<?xml version="1.0" encoding="UTF-8" standalone="no" ?>
<gpx xmlns="http://www.topografix.com/GPX/1/1" xmlns:xsi="http://www.w3.org/2001/XMLSchema-instance" xsi:schemaLocation="http://www.topografix.com/GPX/1/1 http://www.topografix.com/GPX/1/1/gpx.xsd" version="1.1" creator="VisuGPX - https://www.visugpx.com">
  <metadata>
    <name>2019 - Etape 11 - Palinges-Dompierre sur Besbre</name>
  </metadata>
  <trk>
    <name><![CDATA[2019 - Etape 11 - Palinges-Dompierre sur Besbre]]></name>
    <trkseg>
      <trkpt lat="46.56124" lon="4.22576">
        <ele>259.7</ele>
        <time>2019-08-20T09:19:53Z</time>
      </trkpt>
      <trkpt lat="46.56116" lon="4.22574">
        <ele>259.7</ele>
        <time>2019-08-20T09:20:58Z</time>
      </trkpt>
      <trkpt lat="46.56116" lon="4.22568">
        <ele>259.7</ele>
        <time>2019-08-20T09:21:00Z</time>
      </trkpt>
      <trkpt lat="46.56115" lon="4.22563">
        <ele>259.7</ele>
        <time>2019-08-20T09:21:02Z</time>
      </trkpt>
      <trkpt lat="46.56115" lon="4.22558">
        <ele>259.7</ele>
        <time>2019-08-20T09:21:04Z</time>
      </trkpt>
      <trkpt lat="46.56115" lon="4.22553">
        <ele>259.7</ele>
        <time>2019-08-20T09:21:06Z</time>
      </trkpt>
      <trkpt lat="46.56115" lon="4.22547">
        <ele>259.6</ele>
        <time>2019-08-20T09:21:08Z</time>
      </trkpt>
      <trkpt lat="46.56116" lon="4.22543">
        <ele>259.5</ele>
        <time>2019-08-20T09:21:09Z</time>
      </trkpt>
      <trkpt lat="46.56114" lon="4.22538">
        <ele>259.5</ele>
        <time>2019-08-20T09:21:10Z</time>
      </trkpt>
      <trkpt lat="46.56112" lon="4.22533">
        <ele>259.5</ele>
        <time>2019-08-20T09:21:12Z</time>
      </trkpt>
      <trkpt lat="46.56111" lon="4.22529">
        <ele>259.5</ele>
        <time>2019-08-20T09:21:13Z</time>
      </trkpt>
      <trkpt lat="46.5611" lon="4.22524">
        <ele>259.5</ele>
        <time>2019-08-20T09:21:15Z</time>
      </trkpt>
      <trkpt lat="46.56109" lon="4.22518">
        <ele>259.4</ele>
        <time>2019-08-20T09:21:45Z</time>
      </trkpt>
      <trkpt lat="46.56108" lon="4.22511">
        <ele>259.3</ele>
        <time>2019-08-20T09:21:47Z</time>
      </trkpt>
      <trkpt lat="46.56106" lon="4.22505">
        <ele>259.1</ele>
        <time>2019-08-20T09:21:49Z</time>
      </trkpt>
      <trkpt lat="46.56106" lon="4.225">
        <ele>259.1</ele>
        <time>2019-08-20T09:21:51Z</time>
      </trkpt>
      <trkpt lat="46.56106" lon="4.22494">
        <ele>259.1</ele>
        <time>2019-08-20T09:21:53Z</time>
      </trkpt>
      <trkpt lat="46.56106" lon="4.2249">
        <ele>259.1</ele>
        <time>2019-08-20T09:21:54Z</time>
      </trkpt>
      <trkpt lat="46.56105" lon="4.22482">
        <ele>259.1</ele>
        <time>2019-08-20T09:21:56Z</time>
      </trkpt>
      <trkpt lat="46.56105" lon="4.22477">
        <ele>259.1</ele>
        <time>2019-08-20T09:21:57Z</time>
      </trkpt>
      <trkpt lat="46.56104" lon="4.22473">
        <ele>259.1</ele>
        <time>2019-08-20T09:21:58Z</time>
      </trkpt>
      <trkpt lat="46.56104" lon="4.22467">
        <ele>259.1</ele>
        <time>2019-08-20T09:21:59Z</time>
      </trkpt>
      <trkpt lat="46.56103" lon="4.22461">
        <ele>259</ele>
        <time>2019-08-20T09:22:00Z</time>
      </trkpt>
      <trkpt lat="46.56103" lon="4.22457">
        <ele>259</ele>
        <time>2019-08-20T09:22:01Z</time>
      </trkpt>
      <trkpt lat="46.56102" lon="4.22451">
        <ele>259</ele>
        <time>2019-08-20T09:22:02Z</time>
      </trkpt>
      <trkpt lat="46.56103" lon="4.22447">
        <ele>259</ele>
        <time>2019-08-20T09:22:03Z</time>
      </trkpt>
      <trkpt lat="46.56103" lon="4.22442">
        <ele>258.9</ele>
        <time>2019-08-20T09:22:04Z</time>
      </trkpt>
      <trkpt lat="46.56103" lon="4.22438">
        <ele>258.9</ele>
        <time>2019-08-20T09:22:05Z</time>
      </trkpt>
      <trkpt lat="46.56103" lon="4.22433">
        <ele>258.9</ele>
        <time>2019-08-20T09:22:06Z</time>
      </trkpt>
      <trkpt lat="46.56103" lon="4.22428">
        <ele>258.9</ele>
        <time>2019-08-20T09:22:07Z</time>
      </trkpt>
      <trkpt lat="46.56102" lon="4.22424">
        <ele>258.8</ele>
        <time>2019-08-20T09:22:08Z</time>
      </trkpt>
      <trkpt lat="46.56102" lon="4.22419">
        <ele>258.8</ele>
        <time>2019-08-20T09:22:09Z</time>
      </trkpt>
      <trkpt lat="46.56101" lon="4.22414">
        <ele>258.8</ele>
        <time>2019-08-20T09:22:10Z</time>
      </trkpt>
      <trkpt lat="46.561" lon="4.2241">
        <ele>258.8</ele>
        <time>2019-08-20T09:22:11Z</time>
      </trkpt>
      <trkpt lat="46.56099" lon="4.22405">
        <ele>258.8</ele>
        <time>2019-08-20T09:22:12Z</time>
      </trkpt>
      <trkpt lat="46.56099" lon="4.22402">
        <ele>258.8</ele>
        <time>2019-08-20T09:22:13Z</time>
      </trkpt>
      <trkpt lat="46.56098" lon="4.22397">
        <ele>258.8</ele>
        <time>2019-08-20T09:22:14Z</time>
      </trkpt>
      <trkpt lat="46.56097" lon="4.22393">
        <ele>258.8</ele>
        <time>2019-08-20T09:22:15Z</time>
      </trkpt>
      <trkpt lat="46.56096" lon="4.22388">
        <ele>258.8</ele>
        <time>2019-08-20T09:22:16Z</time>
      </trkpt>
      <trkpt lat="46.56095" lon="4.22383">
        <ele>258.8</ele>
        <time>2019-08-20T09:22:17Z</time>
      </trkpt>
      <trkpt lat="46.56094" lon="4.22378">
        <ele>258.8</ele>
        <time>2019-08-20T09:22:18Z</time>
      </trkpt>
      <trkpt lat="46.56093" lon="4.22374">
        <ele>258.8</ele>
        <time>2019-08-20T09:22:19Z</time>
      </trkpt>
      <trkpt lat="46.56091" lon="4.22369">
        <ele>258.8</ele>
        <time>2019-08-20T09:22:20Z</time>
      </trkpt>
      <trkpt lat="46.56089" lon="4.22365">
        <ele>258.8</ele>
        <time>2019-08-20T09:22:21Z</time>
      </trkpt>
      <trkpt lat="46.56088" lon="4.22361">
        <ele>258.8</ele>
        <time>2019-08-20T09:22:22Z</time>
      </trkpt>
      <trkpt lat="46.56086" lon="4.22357">
        <ele>258.8</ele>
        <time>2019-08-20T09:22:23Z</time>
      </trkpt>
      <trkpt lat="46.56084" lon="4.22353">
        <ele>258.7</ele>
        <time>2019-08-20T09:22:24Z</time>
      </trkpt>
      <trkpt lat="46.56082" lon="4.22349">
        <ele>258.7</ele>
        <time>2019-08-20T09:22:25Z</time>
      </trkpt>
      <trkpt lat="46.56081" lon="4.22344">
        <ele>258.7</ele>
        <time>2019-08-20T09:22:26Z</time>
      </trkpt>
      <trkpt lat="46.56079" lon="4.22339">
        <ele>258.7</ele>
        <time>2019-08-20T09:22:27Z</time>
      </trkpt>
      <trkpt lat="46.56077" lon="4.22334">
        <ele>258.7</ele>
        <time>2019-08-20T09:22:28Z</time>
      </trkpt>
      <trkpt lat="46.56076" lon="4.2233">
        <ele>258.7</ele>
        <time>2019-08-20T09:22:29Z</time>
      </trkpt>
      <trkpt lat="46.56074" lon="4.22326">
        <ele>258.7</ele>
        <time>2019-08-20T09:22:30Z</time>
      </trkpt>
      <trkpt lat="46.56072" lon="4.22322">
        <ele>258.7</ele>
        <time>2019-08-20T09:22:31Z</time>
      </trkpt>
      <trkpt lat="46.56069" lon="4.22316">
        <ele>258.7</ele>
        <time>2019-08-20T09:22:33Z</time>
      </trkpt>
      <trkpt lat="46.56068" lon="4.22312">
        <ele>258.7</ele>
        <time>2019-08-20T09:22:34Z</time>
      </trkpt>
      <trkpt lat="46.56066" lon="4.22309">
        <ele>258.7</ele>
        <time>2019-08-20T09:22:35Z</time>
      </trkpt>
      <trkpt lat="46.56064" lon="4.22305">
        <ele>258.7</ele>
        <time>2019-08-20T09:22:36Z</time>
      </trkpt>
      <trkpt lat="46.56062" lon="4.22301">
        <ele>258.7</ele>
        <time>2019-08-20T09:22:37Z</time>
      </trkpt>
      <trkpt lat="46.5606" lon="4.22297">
        <ele>258.7</ele>
        <time>2019-08-20T09:22:38Z</time>
      </trkpt>
      <trkpt lat="46.56058" lon="4.22293">
        <ele>258.6</ele>
        <time>2019-08-20T09:22:39Z</time>
      </trkpt>
      <trkpt lat="46.56056" lon="4.22289">
        <ele>258.6</ele>
        <time>2019-08-20T09:22:40Z</time>
      </trkpt>
      <trkpt lat="46.56054" lon="4.22284">
        <ele>258.6</ele>
        <time>2019-08-20T09:22:41Z</time>
      </trkpt>
      <trkpt lat="46.56052" lon="4.22279">
        <ele>258.6</ele>
        <time>2019-08-20T09:22:42Z</time>
      </trkpt>
      <trkpt lat="46.5605" lon="4.22275">
        <ele>258.7</ele>
        <time>2019-08-20T09:22:43Z</time>
      </trkpt>
      <trkpt lat="46.56048" lon="4.22271">
        <ele>258.7</ele>
        <time>2019-08-20T09:22:44Z</time>
      </trkpt>
      <trkpt lat="46.56047" lon="4.22267">
        <ele>258.8</ele>
        <time>2019-08-20T09:22:45Z</time>
      </trkpt>
      <trkpt lat="46.56044" lon="4.22263">
        <ele>258.9</ele>
        <time>2019-08-20T09:22:46Z</time>
      </trkpt>
      <trkpt lat="46.56042" lon="4.22259">
        <ele>259.1</ele>
        <time>2019-08-20T09:22:47Z</time>
      </trkpt>
      <trkpt lat="46.5604" lon="4.22255">
        <ele>259.2</ele>
        <time>2019-08-20T09:22:48Z</time>
      </trkpt>
      <trkpt lat="46.56037" lon="4.22251">
        <ele>259.4</ele>
        <time>2019-08-20T09:22:49Z</time>
      </trkpt>
      <trkpt lat="46.56035" lon="4.22247">
        <ele>259.5</ele>
        <time>2019-08-20T09:22:50Z</time>
      </trkpt>
      <trkpt lat="46.56032" lon="4.22243">
        <ele>259.7</ele>
        <time>2019-08-20T09:22:51Z</time>
      </trkpt>
      <trkpt lat="46.56027" lon="4.22236">
        <ele>260</ele>
        <time>2019-08-20T09:22:53Z</time>
      </trkpt>
      <trkpt lat="46.56025" lon="4.22232">
        <ele>260.2</ele>
        <time>2019-08-20T09:22:54Z</time>
      </trkpt>
      <trkpt lat="46.56022" lon="4.22228">
        <ele>260.4</ele>
        <time>2019-08-20T09:22:55Z</time>
      </trkpt>
      <trkpt lat="46.56017" lon="4.22222">
        <ele>260.8</ele>
        <time>2019-08-20T09:22:57Z</time>
      </trkpt>
      <trkpt lat="46.56015" lon="4.22219">
        <ele>261</ele>
        <time>2019-08-20T09:22:58Z</time>
      </trkpt>
      <trkpt lat="46.56013" lon="4.22216">
        <ele>261.1</ele>
        <time>2019-08-20T09:22:59Z</time>
      </trkpt>
      <trkpt lat="46.56011" lon="4.22211">
        <ele>261.3</ele>
        <time>2019-08-20T09:23:00Z</time>
      </trkpt>
      <trkpt lat="46.56009" lon="4.22208">
        <ele>261.5</ele>
        <time>2019-08-20T09:23:01Z</time>
      </trkpt>
      <trkpt lat="46.56006" lon="4.22204">
        <ele>261.7</ele>
        <time>2019-08-20T09:23:02Z</time>
      </trkpt>
      <trkpt lat="46.56003" lon="4.22201">
        <ele>261.8</ele>
        <time>2019-08-20T09:23:03Z</time>
      </trkpt>
      <trkpt lat="46.56" lon="4.22198">
        <ele>261.9</ele>
        <time>2019-08-20T09:23:04Z</time>
      </trkpt>
      <trkpt lat="46.55997" lon="4.22194">
        <ele>261.9</ele>
        <time>2019-08-20T09:23:05Z</time>
      </trkpt>
      <trkpt lat="46.55994" lon="4.22192">
        <ele>262</ele>
        <time>2019-08-20T09:23:06Z</time>
      </trkpt>
      <trkpt lat="46.55992" lon="4.22189">
        <ele>262</ele>
        <time>2019-08-20T09:23:07Z</time>
      </trkpt>
      <trkpt lat="46.55989" lon="4.22186">
        <ele>262</ele>
        <time>2019-08-20T09:23:08Z</time>
      </trkpt>
      <trkpt lat="46.55987" lon="4.22183">
        <ele>262</ele>
        <time>2019-08-20T09:23:09Z</time>
      </trkpt>
      <trkpt lat="46.55984" lon="4.22181">
        <ele>262</ele>
        <time>2019-08-20T09:23:10Z</time>
      </trkpt>
      <trkpt lat="46.55982" lon="4.22178">
        <ele>262</ele>
        <time>2019-08-20T09:23:11Z</time>
      </trkpt>
      <trkpt lat="46.55979" lon="4.22175">
        <ele>262</ele>
        <time>2019-08-20T09:23:12Z</time>
      </trkpt>
      <trkpt lat="46.55976" lon="4.22172">
        <ele>262.1</ele>
        <time>2019-08-20T09:23:13Z</time>
      </trkpt>
      <trkpt lat="46.55973" lon="4.2217">
        <ele>262.1</ele>
        <time>2019-08-20T09:23:14Z</time>
      </trkpt>
      <trkpt lat="46.5597" lon="4.22166">
        <ele>262.1</ele>
        <time>2019-08-20T09:23:15Z</time>
      </trkpt>
      <trkpt lat="46.55967" lon="4.22164">
        <ele>262.1</ele>
        <time>2019-08-20T09:23:16Z</time>
      </trkpt>
      <trkpt lat="46.55964" lon="4.22163">
        <ele>262.2</ele>
        <time>2019-08-20T09:23:17Z</time>
      </trkpt>
      <trkpt lat="46.55961" lon="4.22162">
        <ele>262.2</ele>
        <time>2019-08-20T09:23:18Z</time>
      </trkpt>
      <trkpt lat="46.55957" lon="4.22162">
        <ele>262.2</ele>
        <time>2019-08-20T09:23:19Z</time>
      </trkpt>
      <trkpt lat="46.55953" lon="4.22162">
        <ele>262.4</ele>
        <time>2019-08-20T09:23:20Z</time>
      </trkpt>
      <trkpt lat="46.55949" lon="4.22162">
        <ele>262.4</ele>
        <time>2019-08-20T09:23:21Z</time>
      </trkpt>
      <trkpt lat="46.55945" lon="4.2216">
        <ele>262.5</ele>
        <time>2019-08-20T09:23:22Z</time>
      </trkpt>
      <trkpt lat="46.55941" lon="4.2216">
        <ele>262.6</ele>
        <time>2019-08-20T09:23:23Z</time>
      </trkpt>
      <trkpt lat="46.55937" lon="4.22159">
        <ele>262.7</ele>
        <time>2019-08-20T09:23:24Z</time>
      </trkpt>
      <trkpt lat="46.55933" lon="4.2216">
        <ele>262.7</ele>
        <time>2019-08-20T09:23:25Z</time>
      </trkpt>
      <trkpt lat="46.55929" lon="4.2216">
        <ele>262.8</ele>
        <time>2019-08-20T09:23:26Z</time>
      </trkpt>
      <trkpt lat="46.55926" lon="4.2216">
        <ele>262.9</ele>
        <time>2019-08-20T09:23:27Z</time>
      </trkpt>
      <trkpt lat="46.55922" lon="4.22158">
        <ele>262.9</ele>
        <time>2019-08-20T09:23:28Z</time>
      </trkpt>
      <trkpt lat="46.55918" lon="4.22158">
        <ele>263</ele>
        <time>2019-08-20T09:23:29Z</time>
      </trkpt>
      <trkpt lat="46.55914" lon="4.22158">
        <ele>263.1</ele>
        <time>2019-08-20T09:23:30Z</time>
      </trkpt>
      <trkpt lat="46.5591" lon="4.22157">
        <ele>263.1</ele>
        <time>2019-08-20T09:23:31Z</time>
      </trkpt>
      <trkpt lat="46.55906" lon="4.22157">
        <ele>263.2</ele>
        <time>2019-08-20T09:23:32Z</time>
      </trkpt>
      <trkpt lat="46.55903" lon="4.22157">
        <ele>263.3</ele>
        <time>2019-08-20T09:23:33Z</time>
      </trkpt>
      <trkpt lat="46.55898" lon="4.22157">
        <ele>263.4</ele>
        <time>2019-08-20T09:23:34Z</time>
      </trkpt>
      <trkpt lat="46.55895" lon="4.22156">
        <ele>263.5</ele>
        <time>2019-08-20T09:23:35Z</time>
      </trkpt>
      <trkpt lat="46.55891" lon="4.22156">
        <ele>263.5</ele>
        <time>2019-08-20T09:23:36Z</time>
      </trkpt>
      <trkpt lat="46.55887" lon="4.22156">
        <ele>263.6</ele>
        <time>2019-08-20T09:23:37Z</time>
      </trkpt>
      <trkpt lat="46.55882" lon="4.22156">
        <ele>263.7</ele>
        <time>2019-08-20T09:23:38Z</time>
      </trkpt>
      <trkpt lat="46.55878" lon="4.22154">
        <ele>263.8</ele>
        <time>2019-08-20T09:23:39Z</time>
      </trkpt>
      <trkpt lat="46.55874" lon="4.22154">
        <ele>263.9</ele>
        <time>2019-08-20T09:23:40Z</time>
      </trkpt>
      <trkpt lat="46.55869" lon="4.22154">
        <ele>264</ele>
        <time>2019-08-20T09:23:41Z</time>
      </trkpt>
      <trkpt lat="46.55865" lon="4.22154">
        <ele>264</ele>
        <time>2019-08-20T09:23:42Z</time>
      </trkpt>
      <trkpt lat="46.55861" lon="4.22153">
        <ele>264.1</ele>
        <time>2019-08-20T09:23:43Z</time>
      </trkpt>
      <trkpt lat="46.55858" lon="4.22152">
        <ele>264.2</ele>
        <time>2019-08-20T09:23:44Z</time>
      </trkpt>
      <trkpt lat="46.55854" lon="4.22152">
        <ele>264.3</ele>
        <time>2019-08-20T09:23:45Z</time>
      </trkpt>
      <trkpt lat="46.5585" lon="4.22152">
        <ele>264.4</ele>
        <time>2019-08-20T09:23:46Z</time>
      </trkpt>
      <trkpt lat="46.55846" lon="4.22152">
        <ele>264.5</ele>
        <time>2019-08-20T09:23:47Z</time>
      </trkpt>
      <trkpt lat="46.55842" lon="4.22152">
        <ele>264.6</ele>
        <time>2019-08-20T09:23:48Z</time>
      </trkpt>
      <trkpt lat="46.55839" lon="4.22152">
        <ele>264.7</ele>
        <time>2019-08-20T09:23:49Z</time>
      </trkpt>
      <trkpt lat="46.55835" lon="4.22151">
        <ele>264.8</ele>
        <time>2019-08-20T09:23:50Z</time>
      </trkpt>
      <trkpt lat="46.55832" lon="4.2215">
        <ele>264.9</ele>
        <time>2019-08-20T09:23:51Z</time>
      </trkpt>
      <trkpt lat="46.55828" lon="4.22151">
        <ele>264.9</ele>
        <time>2019-08-20T09:23:52Z</time>
      </trkpt>
      <trkpt lat="46.55825" lon="4.22149">
        <ele>265</ele>
        <time>2019-08-20T09:23:53Z</time>
      </trkpt>
      <trkpt lat="46.55821" lon="4.22148">
        <ele>265</ele>
        <time>2019-08-20T09:23:54Z</time>
      </trkpt>
      <trkpt lat="46.55817" lon="4.22147">
        <ele>265</ele>
        <time>2019-08-20T09:23:55Z</time>
      </trkpt>
      <trkpt lat="46.55813" lon="4.22146">
        <ele>265.1</ele>
        <time>2019-08-20T09:23:56Z</time>
      </trkpt>
      <trkpt lat="46.55809" lon="4.22144">
        <ele>265.1</ele>
        <time>2019-08-20T09:23:57Z</time>
      </trkpt>
      <trkpt lat="46.55806" lon="4.22142">
        <ele>265.1</ele>
        <time>2019-08-20T09:23:58Z</time>
      </trkpt>
      <trkpt lat="46.55802" lon="4.22141">
        <ele>265.1</ele>
        <time>2019-08-20T09:23:59Z</time>
      </trkpt>
      <trkpt lat="46.55799" lon="4.2214">
        <ele>265.1</ele>
        <time>2019-08-20T09:24:00Z</time>
      </trkpt>
      <trkpt lat="46.55795" lon="4.2214">
        <ele>265.2</ele>
        <time>2019-08-20T09:24:01Z</time>
      </trkpt>
      <trkpt lat="46.55791" lon="4.2214">
        <ele>265.2</ele>
        <time>2019-08-20T09:24:02Z</time>
      </trkpt>
      <trkpt lat="46.55788" lon="4.22139">
        <ele>265.2</ele>
        <time>2019-08-20T09:24:03Z</time>
      </trkpt>
      <trkpt lat="46.55782" lon="4.22137">
        <ele>265.3</ele>
        <time>2019-08-20T09:24:05Z</time>
      </trkpt>
      <trkpt lat="46.55779" lon="4.22135">
        <ele>265.3</ele>
        <time>2019-08-20T09:24:06Z</time>
      </trkpt>
      <trkpt lat="46.55775" lon="4.22134">
        <ele>265.4</ele>
        <time>2019-08-20T09:24:07Z</time>
      </trkpt>
      <trkpt lat="46.55771" lon="4.22133">
        <ele>265.4</ele>
        <time>2019-08-20T09:24:08Z</time>
      </trkpt>
      <trkpt lat="46.55767" lon="4.22132">
        <ele>265.5</ele>
        <time>2019-08-20T09:24:09Z</time>
      </trkpt>
      <trkpt lat="46.55763" lon="4.22131">
        <ele>265.5</ele>
        <time>2019-08-20T09:24:10Z</time>
      </trkpt>
      <trkpt lat="46.55759" lon="4.2213">
        <ele>265.5</ele>
        <time>2019-08-20T09:24:11Z</time>
      </trkpt>
      <trkpt lat="46.55755" lon="4.22129">
        <ele>265.6</ele>
        <time>2019-08-20T09:24:12Z</time>
      </trkpt>
      <trkpt lat="46.5575" lon="4.22128">
        <ele>265.6</ele>
        <time>2019-08-20T09:24:13Z</time>
      </trkpt>
      <trkpt lat="46.55746" lon="4.22127">
        <ele>265.6</ele>
        <time>2019-08-20T09:24:14Z</time>
      </trkpt>
      <trkpt lat="46.55741" lon="4.22126">
        <ele>265.7</ele>
        <time>2019-08-20T09:24:15Z</time>
      </trkpt>
      <trkpt lat="46.55737" lon="4.22125">
        <ele>265.7</ele>
        <time>2019-08-20T09:24:16Z</time>
      </trkpt>
      <trkpt lat="46.55733" lon="4.22123">
        <ele>265.7</ele>
        <time>2019-08-20T09:24:17Z</time>
      </trkpt>
      <trkpt lat="46.55729" lon="4.22121">
        <ele>265.8</ele>
        <time>2019-08-20T09:24:18Z</time>
      </trkpt>
      <trkpt lat="46.55725" lon="4.2212">
        <ele>265.8</ele>
        <time>2019-08-20T09:24:19Z</time>
      </trkpt>
      <trkpt lat="46.55721" lon="4.2212">
        <ele>265.9</ele>
        <time>2019-08-20T09:24:20Z</time>
      </trkpt>
      <trkpt lat="46.55717" lon="4.22118">
        <ele>265.9</ele>
        <time>2019-08-20T09:24:21Z</time>
      </trkpt>
      <trkpt lat="46.55713" lon="4.22117">
        <ele>265.9</ele>
        <time>2019-08-20T09:24:22Z</time>
      </trkpt>
      <trkpt lat="46.55709" lon="4.22114">
        <ele>266</ele>
        <time>2019-08-20T09:24:23Z</time>
      </trkpt>
      <trkpt lat="46.55706" lon="4.22113">
        <ele>266</ele>
        <time>2019-08-20T09:24:24Z</time>
      </trkpt>
      <trkpt lat="46.55702" lon="4.22112">
        <ele>266</ele>
        <time>2019-08-20T09:24:25Z</time>
      </trkpt>
      <trkpt lat="46.55699" lon="4.2211">
        <ele>266.1</ele>
        <time>2019-08-20T09:24:26Z</time>
      </trkpt>
      <trkpt lat="46.55695" lon="4.22108">
        <ele>266.1</ele>
        <time>2019-08-20T09:24:27Z</time>
      </trkpt>
      <trkpt lat="46.55691" lon="4.22107">
        <ele>266.2</ele>
        <time>2019-08-20T09:24:28Z</time>
      </trkpt>
      <trkpt lat="46.55688" lon="4.22105">
        <ele>266.3</ele>
        <time>2019-08-20T09:24:29Z</time>
      </trkpt>
      <trkpt lat="46.55685" lon="4.22104">
        <ele>266.3</ele>
        <time>2019-08-20T09:24:30Z</time>
      </trkpt>
      <trkpt lat="46.55682" lon="4.22102">
        <ele>266.4</ele>
        <time>2019-08-20T09:24:31Z</time>
      </trkpt>
      <trkpt lat="46.55679" lon="4.22102">
        <ele>266.5</ele>
        <time>2019-08-20T09:24:32Z</time>
      </trkpt>
      <trkpt lat="46.55675" lon="4.221">
        <ele>266.6</ele>
        <time>2019-08-20T09:24:33Z</time>
      </trkpt>
      <trkpt lat="46.55673" lon="4.22097">
        <ele>266.8</ele>
        <time>2019-08-20T09:24:34Z</time>
      </trkpt>
      <trkpt lat="46.5567" lon="4.22094">
        <ele>266.9</ele>
        <time>2019-08-20T09:24:35Z</time>
      </trkpt>
      <trkpt lat="46.55666" lon="4.22093">
        <ele>267</ele>
        <time>2019-08-20T09:24:36Z</time>
      </trkpt>
      <trkpt lat="46.55662" lon="4.2209">
        <ele>267.2</ele>
        <time>2019-08-20T09:24:37Z</time>
      </trkpt>
      <trkpt lat="46.55659" lon="4.22087">
        <ele>267.4</ele>
        <time>2019-08-20T09:24:38Z</time>
      </trkpt>
      <trkpt lat="46.55655" lon="4.22085">
        <ele>267.5</ele>
        <time>2019-08-20T09:24:39Z</time>
      </trkpt>
      <trkpt lat="46.55652" lon="4.22083">
        <ele>267.7</ele>
        <time>2019-08-20T09:24:40Z</time>
      </trkpt>
      <trkpt lat="46.55648" lon="4.22081">
        <ele>267.8</ele>
        <time>2019-08-20T09:24:41Z</time>
      </trkpt>
      <trkpt lat="46.55645" lon="4.22079">
        <ele>267.8</ele>
        <time>2019-08-20T09:24:42Z</time>
      </trkpt>
      <trkpt lat="46.55642" lon="4.22077">
        <ele>267.9</ele>
        <time>2019-08-20T09:24:43Z</time>
      </trkpt>
      <trkpt lat="46.55639" lon="4.22075">
        <ele>268</ele>
        <time>2019-08-20T09:24:44Z</time>
      </trkpt>
      <trkpt lat="46.55636" lon="4.22073">
        <ele>268.1</ele>
        <time>2019-08-20T09:24:45Z</time>
      </trkpt>
      <trkpt lat="46.55633" lon="4.2207">
        <ele>268.1</ele>
        <time>2019-08-20T09:24:46Z</time>
      </trkpt>
      <trkpt lat="46.5563" lon="4.22067">
        <ele>268.2</ele>
        <time>2019-08-20T09:24:47Z</time>
      </trkpt>
      <trkpt lat="46.55627" lon="4.22065">
        <ele>268.3</ele>
        <time>2019-08-20T09:24:48Z</time>
      </trkpt>
      <trkpt lat="46.55623" lon="4.22063">
        <ele>268.5</ele>
        <time>2019-08-20T09:24:49Z</time>
      </trkpt>
      <trkpt lat="46.5562" lon="4.22061">
        <ele>268.7</ele>
        <time>2019-08-20T09:24:50Z</time>
      </trkpt>
      <trkpt lat="46.55617" lon="4.22059">
        <ele>268.9</ele>
        <time>2019-08-20T09:24:51Z</time>
      </trkpt>
      <trkpt lat="46.55614" lon="4.22058">
        <ele>269.1</ele>
        <time>2019-08-20T09:24:52Z</time>
      </trkpt>
      <trkpt lat="46.5561" lon="4.22057">
        <ele>269.2</ele>
        <time>2019-08-20T09:24:53Z</time>
      </trkpt>
      <trkpt lat="46.55607" lon="4.22055">
        <ele>269.4</ele>
        <time>2019-08-20T09:24:54Z</time>
      </trkpt>
      <trkpt lat="46.55603" lon="4.22054">
        <ele>269.5</ele>
        <time>2019-08-20T09:24:55Z</time>
      </trkpt>
      <trkpt lat="46.55599" lon="4.22052">
        <ele>269.6</ele>
        <time>2019-08-20T09:24:56Z</time>
      </trkpt>
      <trkpt lat="46.55595" lon="4.22051">
        <ele>269.6</ele>
        <time>2019-08-20T09:24:57Z</time>
      </trkpt>
      <trkpt lat="46.55591" lon="4.22049">
        <ele>269.7</ele>
        <time>2019-08-20T09:24:58Z</time>
      </trkpt>
      <trkpt lat="46.55586" lon="4.22047">
        <ele>269.8</ele>
        <time>2019-08-20T09:24:59Z</time>
      </trkpt>
      <trkpt lat="46.55582" lon="4.22046">
        <ele>269.9</ele>
        <time>2019-08-20T09:25:00Z</time>
      </trkpt>
      <trkpt lat="46.55578" lon="4.22044">
        <ele>269.9</ele>
        <time>2019-08-20T09:25:01Z</time>
      </trkpt>
      <trkpt lat="46.55574" lon="4.22043">
        <ele>270</ele>
        <time>2019-08-20T09:25:02Z</time>
      </trkpt>
      <trkpt lat="46.5557" lon="4.22041">
        <ele>270</ele>
        <time>2019-08-20T09:25:03Z</time>
      </trkpt>
      <trkpt lat="46.55566" lon="4.2204">
        <ele>270</ele>
        <time>2019-08-20T09:25:04Z</time>
      </trkpt>
      <trkpt lat="46.55562" lon="4.22037">
        <ele>270</ele>
        <time>2019-08-20T09:25:05Z</time>
      </trkpt>
      <trkpt lat="46.55557" lon="4.22035">
        <ele>270.1</ele>
        <time>2019-08-20T09:25:06Z</time>
      </trkpt>
      <trkpt lat="46.55554" lon="4.22033">
        <ele>270.1</ele>
        <time>2019-08-20T09:25:07Z</time>
      </trkpt>
      <trkpt lat="46.55549" lon="4.22031">
        <ele>270.1</ele>
        <time>2019-08-20T09:25:08Z</time>
      </trkpt>
      <trkpt lat="46.55545" lon="4.22028">
        <ele>270.1</ele>
        <time>2019-08-20T09:25:09Z</time>
      </trkpt>
      <trkpt lat="46.55541" lon="4.22026">
        <ele>270.2</ele>
        <time>2019-08-20T09:25:10Z</time>
      </trkpt>
      <trkpt lat="46.55537" lon="4.22024">
        <ele>270.2</ele>
        <time>2019-08-20T09:25:11Z</time>
      </trkpt>
      <trkpt lat="46.55533" lon="4.22023">
        <ele>270.2</ele>
        <time>2019-08-20T09:25:12Z</time>
      </trkpt>
      <trkpt lat="46.55529" lon="4.22021">
        <ele>270.2</ele>
        <time>2019-08-20T09:25:13Z</time>
      </trkpt>
      <trkpt lat="46.55525" lon="4.22018">
        <ele>270.2</ele>
        <time>2019-08-20T09:25:14Z</time>
      </trkpt>
      <trkpt lat="46.5552" lon="4.22017">
        <ele>270.3</ele>
        <time>2019-08-20T09:25:15Z</time>
      </trkpt>
      <trkpt lat="46.55516" lon="4.22015">
        <ele>270.3</ele>
        <time>2019-08-20T09:25:16Z</time>
      </trkpt>
      <trkpt lat="46.55512" lon="4.22013">
        <ele>270.3</ele>
        <time>2019-08-20T09:25:17Z</time>
      </trkpt>
      <trkpt lat="46.55507" lon="4.2201">
        <ele>270.3</ele>
        <time>2019-08-20T09:25:18Z</time>
      </trkpt>
      <trkpt lat="46.55503" lon="4.22009">
        <ele>270.3</ele>
        <time>2019-08-20T09:25:19Z</time>
      </trkpt>
      <trkpt lat="46.55498" lon="4.22008">
        <ele>270.4</ele>
        <time>2019-08-20T09:25:20Z</time>
      </trkpt>
      <trkpt lat="46.55493" lon="4.22007">
        <ele>270.4</ele>
        <time>2019-08-20T09:25:21Z</time>
      </trkpt>
      <trkpt lat="46.55489" lon="4.22005">
        <ele>270.4</ele>
        <time>2019-08-20T09:25:22Z</time>
      </trkpt>
      <trkpt lat="46.55484" lon="4.22003">
        <ele>270.5</ele>
        <time>2019-08-20T09:25:23Z</time>
      </trkpt>
      <trkpt lat="46.5548" lon="4.22002">
        <ele>270.5</ele>
        <time>2019-08-20T09:25:24Z</time>
      </trkpt>
      <trkpt lat="46.55475" lon="4.21999">
        <ele>270.5</ele>
        <time>2019-08-20T09:25:25Z</time>
      </trkpt>
      <trkpt lat="46.55471" lon="4.21997">
        <ele>270.6</ele>
        <time>2019-08-20T09:25:26Z</time>
      </trkpt>
      <trkpt lat="46.55466" lon="4.21995">
        <ele>270.6</ele>
        <time>2019-08-20T09:25:27Z</time>
      </trkpt>
      <trkpt lat="46.55461" lon="4.21992">
        <ele>270.6</ele>
        <time>2019-08-20T09:25:28Z</time>
      </trkpt>
      <trkpt lat="46.55457" lon="4.2199">
        <ele>270.6</ele>
        <time>2019-08-20T09:25:29Z</time>
      </trkpt>
      <trkpt lat="46.55452" lon="4.21988">
        <ele>270.7</ele>
        <time>2019-08-20T09:25:30Z</time>
      </trkpt>
      <trkpt lat="46.55448" lon="4.21986">
        <ele>270.7</ele>
        <time>2019-08-20T09:25:31Z</time>
      </trkpt>
      <trkpt lat="46.55443" lon="4.21984">
        <ele>270.7</ele>
        <time>2019-08-20T09:25:32Z</time>
      </trkpt>
      <trkpt lat="46.55439" lon="4.21982">
        <ele>270.7</ele>
        <time>2019-08-20T09:25:33Z</time>
      </trkpt>
      <trkpt lat="46.55435" lon="4.21979">
        <ele>270.8</ele>
        <time>2019-08-20T09:25:34Z</time>
      </trkpt>
      <trkpt lat="46.55431" lon="4.21978">
        <ele>270.8</ele>
        <time>2019-08-20T09:25:35Z</time>
      </trkpt>
      <trkpt lat="46.55428" lon="4.21975">
        <ele>270.8</ele>
        <time>2019-08-20T09:25:36Z</time>
      </trkpt>
      <trkpt lat="46.55423" lon="4.21972">
        <ele>270.9</ele>
        <time>2019-08-20T09:25:37Z</time>
      </trkpt>
      <trkpt lat="46.55419" lon="4.2197">
        <ele>271.1</ele>
        <time>2019-08-20T09:25:38Z</time>
      </trkpt>
      <trkpt lat="46.55415" lon="4.21968">
        <ele>271.3</ele>
        <time>2019-08-20T09:25:39Z</time>
      </trkpt>
      <trkpt lat="46.55411" lon="4.21967">
        <ele>271.4</ele>
        <time>2019-08-20T09:25:40Z</time>
      </trkpt>
      <trkpt lat="46.55407" lon="4.21965">
        <ele>271.6</ele>
        <time>2019-08-20T09:25:41Z</time>
      </trkpt>
      <trkpt lat="46.55403" lon="4.21964">
        <ele>271.7</ele>
        <time>2019-08-20T09:25:42Z</time>
      </trkpt>
      <trkpt lat="46.55399" lon="4.21962">
        <ele>271.8</ele>
        <time>2019-08-20T09:25:43Z</time>
      </trkpt>
      <trkpt lat="46.55395" lon="4.2196">
        <ele>271.9</ele>
        <time>2019-08-20T09:25:44Z</time>
      </trkpt>
      <trkpt lat="46.55391" lon="4.21958">
        <ele>272</ele>
        <time>2019-08-20T09:25:45Z</time>
      </trkpt>
      <trkpt lat="46.55386" lon="4.21956">
        <ele>272.1</ele>
        <time>2019-08-20T09:25:46Z</time>
      </trkpt>
      <trkpt lat="46.55382" lon="4.21953">
        <ele>272.2</ele>
        <time>2019-08-20T09:25:47Z</time>
      </trkpt>
      <trkpt lat="46.55378" lon="4.21951">
        <ele>272.3</ele>
        <time>2019-08-20T09:25:48Z</time>
      </trkpt>
      <trkpt lat="46.55373" lon="4.2195">
        <ele>272.4</ele>
        <time>2019-08-20T09:25:49Z</time>
      </trkpt>
      <trkpt lat="46.5537" lon="4.21948">
        <ele>272.5</ele>
        <time>2019-08-20T09:25:50Z</time>
      </trkpt>
      <trkpt lat="46.55365" lon="4.21947">
        <ele>272.6</ele>
        <time>2019-08-20T09:25:51Z</time>
      </trkpt>
      <trkpt lat="46.5536" lon="4.21946">
        <ele>272.7</ele>
        <time>2019-08-20T09:25:52Z</time>
      </trkpt>
      <trkpt lat="46.55356" lon="4.21944">
        <ele>272.8</ele>
        <time>2019-08-20T09:25:53Z</time>
      </trkpt>
      <trkpt lat="46.55352" lon="4.21942">
        <ele>272.8</ele>
        <time>2019-08-20T09:25:54Z</time>
      </trkpt>
      <trkpt lat="46.55348" lon="4.21941">
        <ele>272.9</ele>
        <time>2019-08-20T09:25:55Z</time>
      </trkpt>
      <trkpt lat="46.55345" lon="4.21938">
        <ele>272.9</ele>
        <time>2019-08-20T09:25:56Z</time>
      </trkpt>
      <trkpt lat="46.55341" lon="4.21936">
        <ele>273</ele>
        <time>2019-08-20T09:25:57Z</time>
      </trkpt>
      <trkpt lat="46.55338" lon="4.21934">
        <ele>273.1</ele>
        <time>2019-08-20T09:25:58Z</time>
      </trkpt>
      <trkpt lat="46.55334" lon="4.21931">
        <ele>273.1</ele>
        <time>2019-08-20T09:25:59Z</time>
      </trkpt>
      <trkpt lat="46.55331" lon="4.21925">
        <ele>273.2</ele>
        <time>2019-08-20T09:26:00Z</time>
      </trkpt>
      <trkpt lat="46.55331" lon="4.2192">
        <ele>272.9</ele>
        <time>2019-08-20T09:26:01Z</time>
      </trkpt>
      <trkpt lat="46.55332" lon="4.21914">
        <ele>272.8</ele>
        <time>2019-08-20T09:26:02Z</time>
      </trkpt>
      <trkpt lat="46.55333" lon="4.21907">
        <ele>272.6</ele>
        <time>2019-08-20T09:26:03Z</time>
      </trkpt>
      <trkpt lat="46.55334" lon="4.219">
        <ele>272.4</ele>
        <time>2019-08-20T09:26:04Z</time>
      </trkpt>
      <trkpt lat="46.55335" lon="4.21892">
        <ele>272.1</ele>
        <time>2019-08-20T09:26:05Z</time>
      </trkpt>
      <trkpt lat="46.55336" lon="4.21887">
        <ele>271.9</ele>
        <time>2019-08-20T09:26:06Z</time>
      </trkpt>
      <trkpt lat="46.55336" lon="4.2188">
        <ele>271.7</ele>
        <time>2019-08-20T09:26:07Z</time>
      </trkpt>
      <trkpt lat="46.55337" lon="4.21874">
        <ele>271.5</ele>
        <time>2019-08-20T09:26:08Z</time>
      </trkpt>
      <trkpt lat="46.55338" lon="4.21867">
        <ele>271.2</ele>
        <time>2019-08-20T09:26:09Z</time>
      </trkpt>
      <trkpt lat="46.55339" lon="4.2186">
        <ele>271</ele>
        <time>2019-08-20T09:26:10Z</time>
      </trkpt>
      <trkpt lat="46.55341" lon="4.21854">
        <ele>270.5</ele>
        <time>2019-08-20T09:26:11Z</time>
      </trkpt>
      <trkpt lat="46.55342" lon="4.2185">
        <ele>270.2</ele>
        <time>2019-08-20T09:26:12Z</time>
      </trkpt>
      <trkpt lat="46.55344" lon="4.21846">
        <ele>270</ele>
        <time>2019-08-20T09:26:13Z</time>
      </trkpt>
      <trkpt lat="46.55347" lon="4.21844">
        <ele>269.8</ele>
        <time>2019-08-20T09:26:14Z</time>
      </trkpt>
      <trkpt lat="46.5535" lon="4.21843">
        <ele>269.6</ele>
        <time>2019-08-20T09:26:15Z</time>
      </trkpt>
      <trkpt lat="46.55353" lon="4.21842">
        <ele>269.4</ele>
        <time>2019-08-20T09:26:16Z</time>
      </trkpt>
      <trkpt lat="46.55356" lon="4.2184">
        <ele>269.2</ele>
        <time>2019-08-20T09:26:17Z</time>
      </trkpt>
      <trkpt lat="46.5536" lon="4.21839">
        <ele>268.9</ele>
        <time>2019-08-20T09:26:18Z</time>
      </trkpt>
      <trkpt lat="46.55363" lon="4.21835">
        <ele>268.7</ele>
        <time>2019-08-20T09:26:19Z</time>
      </trkpt>
      <trkpt lat="46.55364" lon="4.21829">
        <ele>268.5</ele>
        <time>2019-08-20T09:26:20Z</time>
      </trkpt>
      <trkpt lat="46.55364" lon="4.21822">
        <ele>268.2</ele>
        <time>2019-08-20T09:26:21Z</time>
      </trkpt>
      <trkpt lat="46.55365" lon="4.21815">
        <ele>267.9</ele>
        <time>2019-08-20T09:26:22Z</time>
      </trkpt>
      <trkpt lat="46.55366" lon="4.21807">
        <ele>267.5</ele>
        <time>2019-08-20T09:26:23Z</time>
      </trkpt>
      <trkpt lat="46.55367" lon="4.21799">
        <ele>267.1</ele>
        <time>2019-08-20T09:26:24Z</time>
      </trkpt>
      <trkpt lat="46.55367" lon="4.2179">
        <ele>266.7</ele>
        <time>2019-08-20T09:26:25Z</time>
      </trkpt>
      <trkpt lat="46.55368" lon="4.21781">
        <ele>266.3</ele>
        <time>2019-08-20T09:26:26Z</time>
      </trkpt>
      <trkpt lat="46.5537" lon="4.21771">
        <ele>265.8</ele>
        <time>2019-08-20T09:26:27Z</time>
      </trkpt>
      <trkpt lat="46.55372" lon="4.21761">
        <ele>265.4</ele>
        <time>2019-08-20T09:26:28Z</time>
      </trkpt>
      <trkpt lat="46.55374" lon="4.21753">
        <ele>265.1</ele>
        <time>2019-08-20T09:26:29Z</time>
      </trkpt>
      <trkpt lat="46.55377" lon="4.21743">
        <ele>264.7</ele>
        <time>2019-08-20T09:26:30Z</time>
      </trkpt>
      <trkpt lat="46.55381" lon="4.21733">
        <ele>264.3</ele>
        <time>2019-08-20T09:26:31Z</time>
      </trkpt>
      <trkpt lat="46.55384" lon="4.21722">
        <ele>263.9</ele>
        <time>2019-08-20T09:26:32Z</time>
      </trkpt>
      <trkpt lat="46.55387" lon="4.2171">
        <ele>263.5</ele>
        <time>2019-08-20T09:26:33Z</time>
      </trkpt>
      <trkpt lat="46.5539" lon="4.217">
        <ele>263</ele>
        <time>2019-08-20T09:26:34Z</time>
      </trkpt>
      <trkpt lat="46.55393" lon="4.21688">
        <ele>262.5</ele>
        <time>2019-08-20T09:26:35Z</time>
      </trkpt>
      <trkpt lat="46.55396" lon="4.21676">
        <ele>262.1</ele>
        <time>2019-08-20T09:26:36Z</time>
      </trkpt>
      <trkpt lat="46.55399" lon="4.21665">
        <ele>261.8</ele>
        <time>2019-08-20T09:26:37Z</time>
      </trkpt>
      <trkpt lat="46.55402" lon="4.21653">
        <ele>261.6</ele>
        <time>2019-08-20T09:26:38Z</time>
      </trkpt>
      <trkpt lat="46.55405" lon="4.21642">
        <ele>261.4</ele>
        <time>2019-08-20T09:26:39Z</time>
      </trkpt>
      <trkpt lat="46.55408" lon="4.21631">
        <ele>261.3</ele>
        <time>2019-08-20T09:26:40Z</time>
      </trkpt>
      <trkpt lat="46.5541" lon="4.2162">
        <ele>260.9</ele>
        <time>2019-08-20T09:26:41Z</time>
      </trkpt>
      <trkpt lat="46.55413" lon="4.21609">
        <ele>260.5</ele>
        <time>2019-08-20T09:26:42Z</time>
      </trkpt>
      <trkpt lat="46.55416" lon="4.21598">
        <ele>260</ele>
        <time>2019-08-20T09:26:43Z</time>
      </trkpt>
      <trkpt lat="46.55419" lon="4.21587">
        <ele>259.6</ele>
        <time>2019-08-20T09:26:44Z</time>
      </trkpt>
      <trkpt lat="46.55422" lon="4.21576">
        <ele>259.4</ele>
        <time>2019-08-20T09:26:45Z</time>
      </trkpt>
      <trkpt lat="46.55424" lon="4.21566">
        <ele>259.2</ele>
        <time>2019-08-20T09:26:46Z</time>
      </trkpt>
      <trkpt lat="46.55427" lon="4.21555">
        <ele>259</ele>
        <time>2019-08-20T09:26:47Z</time>
      </trkpt>
      <trkpt lat="46.5543" lon="4.21546">
        <ele>258.8</ele>
        <time>2019-08-20T09:26:48Z</time>
      </trkpt>
      <trkpt lat="46.55433" lon="4.21536">
        <ele>258.6</ele>
        <time>2019-08-20T09:26:49Z</time>
      </trkpt>
      <trkpt lat="46.55436" lon="4.21527">
        <ele>258.5</ele>
        <time>2019-08-20T09:26:50Z</time>
      </trkpt>
      <trkpt lat="46.55439" lon="4.21519">
        <ele>258.4</ele>
        <time>2019-08-20T09:26:51Z</time>
      </trkpt>
      <trkpt lat="46.55442" lon="4.21512">
        <ele>258.2</ele>
        <time>2019-08-20T09:26:52Z</time>
      </trkpt>
      <trkpt lat="46.55445" lon="4.21506">
        <ele>258</ele>
        <time>2019-08-20T09:26:53Z</time>
      </trkpt>
      <trkpt lat="46.55447" lon="4.21501">
        <ele>257.9</ele>
        <time>2019-08-20T09:26:54Z</time>
      </trkpt>
      <trkpt lat="46.55449" lon="4.21497">
        <ele>257.8</ele>
        <time>2019-08-20T09:26:55Z</time>
      </trkpt>
      <trkpt lat="46.55451" lon="4.21493">
        <ele>257.7</ele>
        <time>2019-08-20T09:26:56Z</time>
      </trkpt>
      <trkpt lat="46.55452" lon="4.21489">
        <ele>257.5</ele>
        <time>2019-08-20T09:26:57Z</time>
      </trkpt>
      <trkpt lat="46.55453" lon="4.21486">
        <ele>257.4</ele>
        <time>2019-08-20T09:26:58Z</time>
      </trkpt>
      <trkpt lat="46.55454" lon="4.21482">
        <ele>257.4</ele>
        <time>2019-08-20T09:26:59Z</time>
      </trkpt>
      <trkpt lat="46.55456" lon="4.21474">
        <ele>257.4</ele>
        <time>2019-08-20T09:27:01Z</time>
      </trkpt>
      <trkpt lat="46.55455" lon="4.2147">
        <ele>257.4</ele>
        <time>2019-08-20T09:27:02Z</time>
      </trkpt>
      <trkpt lat="46.55452" lon="4.21467">
        <ele>257.4</ele>
        <time>2019-08-20T09:27:03Z</time>
      </trkpt>
      <trkpt lat="46.55447" lon="4.21464">
        <ele>257.4</ele>
        <time>2019-08-20T09:27:04Z</time>
      </trkpt>
      <trkpt lat="46.55442" lon="4.2146">
        <ele>257.3</ele>
        <time>2019-08-20T09:27:05Z</time>
      </trkpt>
      <trkpt lat="46.55438" lon="4.21455">
        <ele>257.3</ele>
        <time>2019-08-20T09:27:06Z</time>
      </trkpt>
      <trkpt lat="46.55432" lon="4.21451">
        <ele>257.2</ele>
        <time>2019-08-20T09:27:07Z</time>
      </trkpt>
      <trkpt lat="46.55427" lon="4.21446">
        <ele>257.2</ele>
        <time>2019-08-20T09:27:08Z</time>
      </trkpt>
      <trkpt lat="46.55421" lon="4.2144">
        <ele>257.1</ele>
        <time>2019-08-20T09:27:09Z</time>
      </trkpt>
      <trkpt lat="46.55415" lon="4.21434">
        <ele>256.9</ele>
        <time>2019-08-20T09:27:10Z</time>
      </trkpt>
      <trkpt lat="46.55409" lon="4.21429">
        <ele>256.8</ele>
        <time>2019-08-20T09:27:11Z</time>
      </trkpt>
      <trkpt lat="46.55403" lon="4.21423">
        <ele>256.6</ele>
        <time>2019-08-20T09:27:12Z</time>
      </trkpt>
      <trkpt lat="46.55398" lon="4.21417">
        <ele>256.4</ele>
        <time>2019-08-20T09:27:13Z</time>
      </trkpt>
      <trkpt lat="46.55393" lon="4.21412">
        <ele>256.2</ele>
        <time>2019-08-20T09:27:14Z</time>
      </trkpt>
      <trkpt lat="46.55387" lon="4.21407">
        <ele>256</ele>
        <time>2019-08-20T09:27:15Z</time>
      </trkpt>
      <trkpt lat="46.55382" lon="4.21403">
        <ele>255.9</ele>
        <time>2019-08-20T09:27:16Z</time>
      </trkpt>
      <trkpt lat="46.55377" lon="4.21398">
        <ele>255.7</ele>
        <time>2019-08-20T09:27:17Z</time>
      </trkpt>
      <trkpt lat="46.55373" lon="4.21393">
        <ele>255.6</ele>
        <time>2019-08-20T09:27:18Z</time>
      </trkpt>
      <trkpt lat="46.55368" lon="4.21388">
        <ele>255.5</ele>
        <time>2019-08-20T09:27:19Z</time>
      </trkpt>
      <trkpt lat="46.55363" lon="4.21382">
        <ele>255.4</ele>
        <time>2019-08-20T09:27:20Z</time>
      </trkpt>
      <trkpt lat="46.55359" lon="4.21377">
        <ele>255.3</ele>
        <time>2019-08-20T09:27:21Z</time>
      </trkpt>
      <trkpt lat="46.55354" lon="4.21372">
        <ele>255.3</ele>
        <time>2019-08-20T09:27:22Z</time>
      </trkpt>
      <trkpt lat="46.5535" lon="4.21367">
        <ele>255.3</ele>
        <time>2019-08-20T09:27:23Z</time>
      </trkpt>
      <trkpt lat="46.55346" lon="4.21363">
        <ele>255.2</ele>
        <time>2019-08-20T09:27:24Z</time>
      </trkpt>
      <trkpt lat="46.55341" lon="4.21359">
        <ele>255.2</ele>
        <time>2019-08-20T09:27:25Z</time>
      </trkpt>
      <trkpt lat="46.55337" lon="4.21355">
        <ele>255.2</ele>
        <time>2019-08-20T09:27:26Z</time>
      </trkpt>
      <trkpt lat="46.55332" lon="4.21351">
        <ele>255.2</ele>
        <time>2019-08-20T09:27:27Z</time>
      </trkpt>
      <trkpt lat="46.55328" lon="4.21346">
        <ele>255.2</ele>
        <time>2019-08-20T09:27:28Z</time>
      </trkpt>
      <trkpt lat="46.55324" lon="4.21342">
        <ele>255.2</ele>
        <time>2019-08-20T09:27:29Z</time>
      </trkpt>
      <trkpt lat="46.55319" lon="4.21338">
        <ele>255.2</ele>
        <time>2019-08-20T09:27:30Z</time>
      </trkpt>
      <trkpt lat="46.55315" lon="4.21333">
        <ele>255.2</ele>
        <time>2019-08-20T09:27:31Z</time>
      </trkpt>
      <trkpt lat="46.5531" lon="4.21329">
        <ele>255.2</ele>
        <time>2019-08-20T09:27:32Z</time>
      </trkpt>
      <trkpt lat="46.55306" lon="4.21324">
        <ele>255.2</ele>
        <time>2019-08-20T09:27:33Z</time>
      </trkpt>
      <trkpt lat="46.55301" lon="4.2132">
        <ele>255.2</ele>
        <time>2019-08-20T09:27:34Z</time>
      </trkpt>
      <trkpt lat="46.55296" lon="4.21316">
        <ele>255.2</ele>
        <time>2019-08-20T09:27:35Z</time>
      </trkpt>
      <trkpt lat="46.55292" lon="4.21311">
        <ele>255.2</ele>
        <time>2019-08-20T09:27:36Z</time>
      </trkpt>
      <trkpt lat="46.55287" lon="4.21308">
        <ele>255.2</ele>
        <time>2019-08-20T09:27:37Z</time>
      </trkpt>
      <trkpt lat="46.55283" lon="4.21304">
        <ele>255.2</ele>
        <time>2019-08-20T09:27:38Z</time>
      </trkpt>
      <trkpt lat="46.55279" lon="4.21299">
        <ele>255.2</ele>
        <time>2019-08-20T09:27:39Z</time>
      </trkpt>
      <trkpt lat="46.55274" lon="4.21295">
        <ele>255.2</ele>
        <time>2019-08-20T09:27:40Z</time>
      </trkpt>
      <trkpt lat="46.5527" lon="4.21291">
        <ele>255.2</ele>
        <time>2019-08-20T09:27:41Z</time>
      </trkpt>
      <trkpt lat="46.55265" lon="4.21286">
        <ele>255.2</ele>
        <time>2019-08-20T09:27:42Z</time>
      </trkpt>
      <trkpt lat="46.55261" lon="4.21282">
        <ele>255.2</ele>
        <time>2019-08-20T09:27:43Z</time>
      </trkpt>
      <trkpt lat="46.55258" lon="4.21278">
        <ele>255.2</ele>
        <time>2019-08-20T09:27:44Z</time>
      </trkpt>
      <trkpt lat="46.55254" lon="4.21274">
        <ele>255.2</ele>
        <time>2019-08-20T09:27:45Z</time>
      </trkpt>
      <trkpt lat="46.5525" lon="4.21269">
        <ele>255.2</ele>
        <time>2019-08-20T09:27:46Z</time>
      </trkpt>
      <trkpt lat="46.55247" lon="4.21264">
        <ele>255.2</ele>
        <time>2019-08-20T09:27:47Z</time>
      </trkpt>
      <trkpt lat="46.55243" lon="4.21258">
        <ele>255.2</ele>
        <time>2019-08-20T09:27:48Z</time>
      </trkpt>
      <trkpt lat="46.55238" lon="4.21252">
        <ele>255.2</ele>
        <time>2019-08-20T09:27:49Z</time>
      </trkpt>
      <trkpt lat="46.55234" lon="4.21246">
        <ele>255.2</ele>
        <time>2019-08-20T09:27:50Z</time>
      </trkpt>
      <trkpt lat="46.5523" lon="4.21241">
        <ele>255.2</ele>
        <time>2019-08-20T09:27:51Z</time>
      </trkpt>
      <trkpt lat="46.55227" lon="4.21236">
        <ele>255.2</ele>
        <time>2019-08-20T09:27:52Z</time>
      </trkpt>
      <trkpt lat="46.55222" lon="4.2123">
        <ele>255.2</ele>
        <time>2019-08-20T09:27:53Z</time>
      </trkpt>
      <trkpt lat="46.55217" lon="4.21224">
        <ele>255.2</ele>
        <time>2019-08-20T09:27:54Z</time>
      </trkpt>
      <trkpt lat="46.55213" lon="4.21218">
        <ele>255.2</ele>
        <time>2019-08-20T09:27:55Z</time>
      </trkpt>
      <trkpt lat="46.55209" lon="4.21213">
        <ele>255.2</ele>
        <time>2019-08-20T09:27:56Z</time>
      </trkpt>
      <trkpt lat="46.55206" lon="4.21209">
        <ele>255.2</ele>
        <time>2019-08-20T09:27:57Z</time>
      </trkpt>
      <trkpt lat="46.55201" lon="4.21204">
        <ele>255.2</ele>
        <time>2019-08-20T09:27:58Z</time>
      </trkpt>
      <trkpt lat="46.55197" lon="4.21198">
        <ele>255.2</ele>
        <time>2019-08-20T09:27:59Z</time>
      </trkpt>
      <trkpt lat="46.55193" lon="4.21194">
        <ele>255.2</ele>
        <time>2019-08-20T09:28:00Z</time>
      </trkpt>
      <trkpt lat="46.55189" lon="4.21189">
        <ele>255.2</ele>
        <time>2019-08-20T09:28:01Z</time>
      </trkpt>
      <trkpt lat="46.55186" lon="4.21184">
        <ele>255.2</ele>
        <time>2019-08-20T09:28:02Z</time>
      </trkpt>
      <trkpt lat="46.55182" lon="4.2118">
        <ele>255.2</ele>
        <time>2019-08-20T09:28:03Z</time>
      </trkpt>
      <trkpt lat="46.55178" lon="4.21175">
        <ele>255.2</ele>
        <time>2019-08-20T09:28:04Z</time>
      </trkpt>
      <trkpt lat="46.55176" lon="4.21171">
        <ele>255.2</ele>
        <time>2019-08-20T09:28:05Z</time>
      </trkpt>
      <trkpt lat="46.55172" lon="4.21166">
        <ele>255.2</ele>
        <time>2019-08-20T09:28:06Z</time>
      </trkpt>
      <trkpt lat="46.55168" lon="4.2116">
        <ele>255.2</ele>
        <time>2019-08-20T09:28:07Z</time>
      </trkpt>
      <trkpt lat="46.55165" lon="4.21153">
        <ele>255.2</ele>
        <time>2019-08-20T09:28:08Z</time>
      </trkpt>
      <trkpt lat="46.55161" lon="4.21147">
        <ele>255.2</ele>
        <time>2019-08-20T09:28:09Z</time>
      </trkpt>
      <trkpt lat="46.55158" lon="4.21142">
        <ele>255.2</ele>
        <time>2019-08-20T09:28:10Z</time>
      </trkpt>
      <trkpt lat="46.55156" lon="4.21137">
        <ele>255.2</ele>
        <time>2019-08-20T09:28:11Z</time>
      </trkpt>
      <trkpt lat="46.55153" lon="4.21131">
        <ele>255.2</ele>
        <time>2019-08-20T09:28:12Z</time>
      </trkpt>
      <trkpt lat="46.5515" lon="4.21127">
        <ele>255.2</ele>
        <time>2019-08-20T09:28:13Z</time>
      </trkpt>
      <trkpt lat="46.55148" lon="4.21121">
        <ele>255.2</ele>
        <time>2019-08-20T09:28:14Z</time>
      </trkpt>
      <trkpt lat="46.55145" lon="4.21116">
        <ele>255.2</ele>
        <time>2019-08-20T09:28:15Z</time>
      </trkpt>
      <trkpt lat="46.55141" lon="4.21109">
        <ele>255.2</ele>
        <time>2019-08-20T09:28:16Z</time>
      </trkpt>
      <trkpt lat="46.55138" lon="4.21103">
        <ele>255.2</ele>
        <time>2019-08-20T09:28:17Z</time>
      </trkpt>
      <trkpt lat="46.55135" lon="4.21098">
        <ele>255.2</ele>
        <time>2019-08-20T09:28:18Z</time>
      </trkpt>
      <trkpt lat="46.55132" lon="4.21092">
        <ele>255.2</ele>
        <time>2019-08-20T09:28:19Z</time>
      </trkpt>
      <trkpt lat="46.55129" lon="4.21087">
        <ele>255.2</ele>
        <time>2019-08-20T09:28:20Z</time>
      </trkpt>
      <trkpt lat="46.55124" lon="4.21082">
        <ele>255.2</ele>
        <time>2019-08-20T09:28:21Z</time>
      </trkpt>
      <trkpt lat="46.55119" lon="4.21077">
        <ele>255.2</ele>
        <time>2019-08-20T09:28:22Z</time>
      </trkpt>
      <trkpt lat="46.55113" lon="4.21073">
        <ele>255.2</ele>
        <time>2019-08-20T09:28:23Z</time>
      </trkpt>
      <trkpt lat="46.55107" lon="4.21069">
        <ele>255.2</ele>
        <time>2019-08-20T09:28:24Z</time>
      </trkpt>
      <trkpt lat="46.55102" lon="4.21066">
        <ele>255.2</ele>
        <time>2019-08-20T09:28:25Z</time>
      </trkpt>
      <trkpt lat="46.55098" lon="4.21063">
        <ele>255.2</ele>
        <time>2019-08-20T09:28:26Z</time>
      </trkpt>
      <trkpt lat="46.55092" lon="4.21059">
        <ele>255.2</ele>
        <time>2019-08-20T09:28:27Z</time>
      </trkpt>
      <trkpt lat="46.55087" lon="4.21057">
        <ele>255.2</ele>
        <time>2019-08-20T09:28:28Z</time>
      </trkpt>
      <trkpt lat="46.55081" lon="4.21055">
        <ele>255.2</ele>
        <time>2019-08-20T09:28:29Z</time>
      </trkpt>
      <trkpt lat="46.55076" lon="4.21052">
        <ele>255.2</ele>
        <time>2019-08-20T09:28:30Z</time>
      </trkpt>
      <trkpt lat="46.55071" lon="4.2105">
        <ele>255.2</ele>
        <time>2019-08-20T09:28:31Z</time>
      </trkpt>
      <trkpt lat="46.55065" lon="4.21047">
        <ele>255.2</ele>
        <time>2019-08-20T09:28:32Z</time>
      </trkpt>
      <trkpt lat="46.55059" lon="4.21045">
        <ele>255.2</ele>
        <time>2019-08-20T09:28:33Z</time>
      </trkpt>
      <trkpt lat="46.55053" lon="4.21044">
        <ele>255.2</ele>
        <time>2019-08-20T09:28:34Z</time>
      </trkpt>
      <trkpt lat="46.55047" lon="4.21042">
        <ele>255.2</ele>
        <time>2019-08-20T09:28:35Z</time>
      </trkpt>
      <trkpt lat="46.55041" lon="4.2104">
        <ele>255.1</ele>
        <time>2019-08-20T09:28:36Z</time>
      </trkpt>
      <trkpt lat="46.55035" lon="4.21039">
        <ele>255.1</ele>
        <time>2019-08-20T09:28:37Z</time>
      </trkpt>
      <trkpt lat="46.5503" lon="4.21037">
        <ele>255.1</ele>
        <time>2019-08-20T09:28:38Z</time>
      </trkpt>
      <trkpt lat="46.55024" lon="4.21036">
        <ele>255.1</ele>
        <time>2019-08-20T09:28:39Z</time>
      </trkpt>
      <trkpt lat="46.5502" lon="4.21036">
        <ele>255.1</ele>
        <time>2019-08-20T09:28:40Z</time>
      </trkpt>
      <trkpt lat="46.55015" lon="4.21035">
        <ele>255.1</ele>
        <time>2019-08-20T09:28:41Z</time>
      </trkpt>
      <trkpt lat="46.5501" lon="4.21033">
        <ele>255.1</ele>
        <time>2019-08-20T09:28:42Z</time>
      </trkpt>
      <trkpt lat="46.55005" lon="4.21031">
        <ele>255.1</ele>
        <time>2019-08-20T09:28:43Z</time>
      </trkpt>
      <trkpt lat="46.55" lon="4.21029">
        <ele>255.1</ele>
        <time>2019-08-20T09:28:44Z</time>
      </trkpt>
      <trkpt lat="46.54995" lon="4.21028">
        <ele>255.1</ele>
        <time>2019-08-20T09:28:45Z</time>
      </trkpt>
      <trkpt lat="46.54991" lon="4.21026">
        <ele>255.1</ele>
        <time>2019-08-20T09:28:46Z</time>
      </trkpt>
      <trkpt lat="46.54987" lon="4.21025">
        <ele>255.1</ele>
        <time>2019-08-20T09:28:47Z</time>
      </trkpt>
      <trkpt lat="46.54982" lon="4.21023">
        <ele>255.1</ele>
        <time>2019-08-20T09:28:48Z</time>
      </trkpt>
      <trkpt lat="46.54976" lon="4.21022">
        <ele>255.1</ele>
        <time>2019-08-20T09:28:49Z</time>
      </trkpt>
      <trkpt lat="46.54972" lon="4.2102">
        <ele>255.1</ele>
        <time>2019-08-20T09:28:50Z</time>
      </trkpt>
      <trkpt lat="46.54967" lon="4.21019">
        <ele>255.1</ele>
        <time>2019-08-20T09:28:51Z</time>
      </trkpt>
      <trkpt lat="46.54962" lon="4.21018">
        <ele>255.1</ele>
        <time>2019-08-20T09:28:52Z</time>
      </trkpt>
      <trkpt lat="46.54957" lon="4.21016">
        <ele>255.2</ele>
        <time>2019-08-20T09:28:53Z</time>
      </trkpt>
      <trkpt lat="46.54952" lon="4.21015">
        <ele>255.3</ele>
        <time>2019-08-20T09:28:54Z</time>
      </trkpt>
      <trkpt lat="46.54947" lon="4.21013">
        <ele>255.3</ele>
        <time>2019-08-20T09:28:55Z</time>
      </trkpt>
      <trkpt lat="46.54942" lon="4.21012">
        <ele>255.4</ele>
        <time>2019-08-20T09:28:56Z</time>
      </trkpt>
      <trkpt lat="46.54936" lon="4.21011">
        <ele>255.5</ele>
        <time>2019-08-20T09:28:57Z</time>
      </trkpt>
      <trkpt lat="46.54932" lon="4.2101">
        <ele>255.5</ele>
        <time>2019-08-20T09:28:58Z</time>
      </trkpt>
      <trkpt lat="46.54927" lon="4.2101">
        <ele>255.6</ele>
        <time>2019-08-20T09:28:59Z</time>
      </trkpt>
      <trkpt lat="46.54922" lon="4.2101">
        <ele>255.6</ele>
        <time>2019-08-20T09:29:00Z</time>
      </trkpt>
      <trkpt lat="46.54917" lon="4.2101">
        <ele>255.7</ele>
        <time>2019-08-20T09:29:01Z</time>
      </trkpt>
      <trkpt lat="46.54912" lon="4.2101">
        <ele>255.7</ele>
        <time>2019-08-20T09:29:02Z</time>
      </trkpt>
      <trkpt lat="46.54907" lon="4.21011">
        <ele>255.7</ele>
        <time>2019-08-20T09:29:03Z</time>
      </trkpt>
      <trkpt lat="46.54902" lon="4.21011">
        <ele>255.7</ele>
        <time>2019-08-20T09:29:04Z</time>
      </trkpt>
      <trkpt lat="46.54897" lon="4.21011">
        <ele>255.8</ele>
        <time>2019-08-20T09:29:05Z</time>
      </trkpt>
      <trkpt lat="46.54893" lon="4.21011">
        <ele>255.8</ele>
        <time>2019-08-20T09:29:06Z</time>
      </trkpt>
      <trkpt lat="46.54888" lon="4.21011">
        <ele>255.8</ele>
        <time>2019-08-20T09:29:07Z</time>
      </trkpt>
      <trkpt lat="46.54883" lon="4.21011">
        <ele>255.8</ele>
        <time>2019-08-20T09:29:08Z</time>
      </trkpt>
      <trkpt lat="46.54878" lon="4.21011">
        <ele>255.8</ele>
        <time>2019-08-20T09:29:09Z</time>
      </trkpt>
      <trkpt lat="46.54873" lon="4.21012">
        <ele>255.8</ele>
        <time>2019-08-20T09:29:10Z</time>
      </trkpt>
      <trkpt lat="46.54869" lon="4.21012">
        <ele>255.8</ele>
        <time>2019-08-20T09:29:11Z</time>
      </trkpt>
      <trkpt lat="46.54866" lon="4.21012">
        <ele>255.8</ele>
        <time>2019-08-20T09:29:12Z</time>
      </trkpt>
      <trkpt lat="46.54863" lon="4.21013">
        <ele>255.8</ele>
        <time>2019-08-20T09:29:13Z</time>
      </trkpt>
      <trkpt lat="46.54857" lon="4.21013">
        <ele>255.8</ele>
        <time>2019-08-20T09:29:15Z</time>
      </trkpt>
      <trkpt lat="46.54853" lon="4.21014">
        <ele>255.8</ele>
        <time>2019-08-20T09:29:16Z</time>
      </trkpt>
      <trkpt lat="46.54848" lon="4.21014">
        <ele>255.8</ele>
        <time>2019-08-20T09:29:17Z</time>
      </trkpt>
      <trkpt lat="46.54843" lon="4.21014">
        <ele>255.8</ele>
        <time>2019-08-20T09:29:18Z</time>
      </trkpt>
      <trkpt lat="46.54837" lon="4.21015">
        <ele>255.8</ele>
        <time>2019-08-20T09:29:19Z</time>
      </trkpt>
      <trkpt lat="46.54832" lon="4.21015">
        <ele>255.8</ele>
        <time>2019-08-20T09:29:20Z</time>
      </trkpt>
      <trkpt lat="46.54826" lon="4.21015">
        <ele>255.7</ele>
        <time>2019-08-20T09:29:21Z</time>
      </trkpt>
      <trkpt lat="46.54819" lon="4.21015">
        <ele>255.7</ele>
        <time>2019-08-20T09:29:22Z</time>
      </trkpt>
      <trkpt lat="46.54812" lon="4.21015">
        <ele>255.7</ele>
        <time>2019-08-20T09:29:23Z</time>
      </trkpt>
      <trkpt lat="46.54805" lon="4.21016">
        <ele>255.7</ele>
        <time>2019-08-20T09:29:24Z</time>
      </trkpt>
      <trkpt lat="46.548" lon="4.21015">
        <ele>255.7</ele>
        <time>2019-08-20T09:29:25Z</time>
      </trkpt>
      <trkpt lat="46.54794" lon="4.21015">
        <ele>255.7</ele>
        <time>2019-08-20T09:29:26Z</time>
      </trkpt>
      <trkpt lat="46.54788" lon="4.21016">
        <ele>255.7</ele>
        <time>2019-08-20T09:29:27Z</time>
      </trkpt>
      <trkpt lat="46.54782" lon="4.21016">
        <ele>255.7</ele>
        <time>2019-08-20T09:29:28Z</time>
      </trkpt>
      <trkpt lat="46.54776" lon="4.21017">
        <ele>255.7</ele>
        <time>2019-08-20T09:29:29Z</time>
      </trkpt>
      <trkpt lat="46.54769" lon="4.21017">
        <ele>255.7</ele>
        <time>2019-08-20T09:29:30Z</time>
      </trkpt>
      <trkpt lat="46.54763" lon="4.21018">
        <ele>255.7</ele>
        <time>2019-08-20T09:29:31Z</time>
      </trkpt>
      <trkpt lat="46.54757" lon="4.21019">
        <ele>255.7</ele>
        <time>2019-08-20T09:29:32Z</time>
      </trkpt>
      <trkpt lat="46.54751" lon="4.21019">
        <ele>255.7</ele>
        <time>2019-08-20T09:29:33Z</time>
      </trkpt>
      <trkpt lat="46.54745" lon="4.2102">
        <ele>255.7</ele>
        <time>2019-08-20T09:29:34Z</time>
      </trkpt>
      <trkpt lat="46.54739" lon="4.21021">
        <ele>255.7</ele>
        <time>2019-08-20T09:29:35Z</time>
      </trkpt>
      <trkpt lat="46.54733" lon="4.21022">
        <ele>255.7</ele>
        <time>2019-08-20T09:29:36Z</time>
      </trkpt>
      <trkpt lat="46.54727" lon="4.21023">
        <ele>255.7</ele>
        <time>2019-08-20T09:29:37Z</time>
      </trkpt>
      <trkpt lat="46.54721" lon="4.21024">
        <ele>255.7</ele>
        <time>2019-08-20T09:29:38Z</time>
      </trkpt>
      <trkpt lat="46.54716" lon="4.21025">
        <ele>255.6</ele>
        <time>2019-08-20T09:29:39Z</time>
      </trkpt>
      <trkpt lat="46.5471" lon="4.21026">
        <ele>255.6</ele>
        <time>2019-08-20T09:29:40Z</time>
      </trkpt>
      <trkpt lat="46.54705" lon="4.21026">
        <ele>255.6</ele>
        <time>2019-08-20T09:29:41Z</time>
      </trkpt>
      <trkpt lat="46.54701" lon="4.21027">
        <ele>255.6</ele>
        <time>2019-08-20T09:29:42Z</time>
      </trkpt>
      <trkpt lat="46.54696" lon="4.21028">
        <ele>255.6</ele>
        <time>2019-08-20T09:29:43Z</time>
      </trkpt>
      <trkpt lat="46.5469" lon="4.2103">
        <ele>255.6</ele>
        <time>2019-08-20T09:29:44Z</time>
      </trkpt>
      <trkpt lat="46.54686" lon="4.21032">
        <ele>255.6</ele>
        <time>2019-08-20T09:29:45Z</time>
      </trkpt>
      <trkpt lat="46.5468" lon="4.21035">
        <ele>255.6</ele>
        <time>2019-08-20T09:29:46Z</time>
      </trkpt>
      <trkpt lat="46.54675" lon="4.21038">
        <ele>255.6</ele>
        <time>2019-08-20T09:29:47Z</time>
      </trkpt>
      <trkpt lat="46.5467" lon="4.21041">
        <ele>255.6</ele>
        <time>2019-08-20T09:29:48Z</time>
      </trkpt>
      <trkpt lat="46.54664" lon="4.21045">
        <ele>255.6</ele>
        <time>2019-08-20T09:29:49Z</time>
      </trkpt>
      <trkpt lat="46.54659" lon="4.2105">
        <ele>255.6</ele>
        <time>2019-08-20T09:29:50Z</time>
      </trkpt>
      <trkpt lat="46.54654" lon="4.21054">
        <ele>255.6</ele>
        <time>2019-08-20T09:29:51Z</time>
      </trkpt>
      <trkpt lat="46.5465" lon="4.21058">
        <ele>255.6</ele>
        <time>2019-08-20T09:29:52Z</time>
      </trkpt>
      <trkpt lat="46.54645" lon="4.21062">
        <ele>255.6</ele>
        <time>2019-08-20T09:29:53Z</time>
      </trkpt>
      <trkpt lat="46.5464" lon="4.21066">
        <ele>255.6</ele>
        <time>2019-08-20T09:29:54Z</time>
      </trkpt>
      <trkpt lat="46.54634" lon="4.21071">
        <ele>255.6</ele>
        <time>2019-08-20T09:29:55Z</time>
      </trkpt>
      <trkpt lat="46.54629" lon="4.21075">
        <ele>255.6</ele>
        <time>2019-08-20T09:29:56Z</time>
      </trkpt>
      <trkpt lat="46.54624" lon="4.21079">
        <ele>255.6</ele>
        <time>2019-08-20T09:29:57Z</time>
      </trkpt>
      <trkpt lat="46.5462" lon="4.21083">
        <ele>255.5</ele>
        <time>2019-08-20T09:29:58Z</time>
      </trkpt>
      <trkpt lat="46.54615" lon="4.21086">
        <ele>255.5</ele>
        <time>2019-08-20T09:29:59Z</time>
      </trkpt>
      <trkpt lat="46.5461" lon="4.21089">
        <ele>255.5</ele>
        <time>2019-08-20T09:30:00Z</time>
      </trkpt>
      <trkpt lat="46.54605" lon="4.21091">
        <ele>255.5</ele>
        <time>2019-08-20T09:30:01Z</time>
      </trkpt>
      <trkpt lat="46.546" lon="4.21092">
        <ele>255.5</ele>
        <time>2019-08-20T09:30:02Z</time>
      </trkpt>
      <trkpt lat="46.54594" lon="4.21093">
        <ele>255.5</ele>
        <time>2019-08-20T09:30:03Z</time>
      </trkpt>
      <trkpt lat="46.5459" lon="4.21092">
        <ele>255.5</ele>
        <time>2019-08-20T09:30:04Z</time>
      </trkpt>
      <trkpt lat="46.54584" lon="4.21091">
        <ele>255.5</ele>
        <time>2019-08-20T09:30:05Z</time>
      </trkpt>
      <trkpt lat="46.54579" lon="4.21089">
        <ele>255.5</ele>
        <time>2019-08-20T09:30:06Z</time>
      </trkpt>
      <trkpt lat="46.54575" lon="4.21088">
        <ele>255.5</ele>
        <time>2019-08-20T09:30:07Z</time>
      </trkpt>
      <trkpt lat="46.54569" lon="4.21086">
        <ele>255.5</ele>
        <time>2019-08-20T09:30:08Z</time>
      </trkpt>
      <trkpt lat="46.54564" lon="4.21083">
        <ele>255.5</ele>
        <time>2019-08-20T09:30:09Z</time>
      </trkpt>
      <trkpt lat="46.54558" lon="4.21077">
        <ele>255.5</ele>
        <time>2019-08-20T09:30:10Z</time>
      </trkpt>
      <trkpt lat="46.54553" lon="4.21073">
        <ele>255.5</ele>
        <time>2019-08-20T09:30:11Z</time>
      </trkpt>
      <trkpt lat="46.54548" lon="4.21069">
        <ele>255.5</ele>
        <time>2019-08-20T09:30:12Z</time>
      </trkpt>
      <trkpt lat="46.54543" lon="4.21066">
        <ele>255.4</ele>
        <time>2019-08-20T09:30:13Z</time>
      </trkpt>
      <trkpt lat="46.54539" lon="4.21063">
        <ele>255.4</ele>
        <time>2019-08-20T09:30:14Z</time>
      </trkpt>
      <trkpt lat="46.54534" lon="4.21059">
        <ele>255.4</ele>
        <time>2019-08-20T09:30:15Z</time>
      </trkpt>
      <trkpt lat="46.5453" lon="4.21057">
        <ele>255.4</ele>
        <time>2019-08-20T09:30:16Z</time>
      </trkpt>
      <trkpt lat="46.54525" lon="4.21055">
        <ele>255.4</ele>
        <time>2019-08-20T09:30:17Z</time>
      </trkpt>
      <trkpt lat="46.5452" lon="4.21054">
        <ele>255.4</ele>
        <time>2019-08-20T09:30:18Z</time>
      </trkpt>
      <trkpt lat="46.54514" lon="4.21053">
        <ele>255.4</ele>
        <time>2019-08-20T09:30:19Z</time>
      </trkpt>
      <trkpt lat="46.54509" lon="4.21052">
        <ele>255.4</ele>
        <time>2019-08-20T09:30:20Z</time>
      </trkpt>
      <trkpt lat="46.54504" lon="4.21051">
        <ele>255.4</ele>
        <time>2019-08-20T09:30:21Z</time>
      </trkpt>
      <trkpt lat="46.54498" lon="4.2105">
        <ele>255.4</ele>
        <time>2019-08-20T09:30:22Z</time>
      </trkpt>
      <trkpt lat="46.54493" lon="4.21049">
        <ele>255.4</ele>
        <time>2019-08-20T09:30:23Z</time>
      </trkpt>
      <trkpt lat="46.54488" lon="4.21048">
        <ele>255.4</ele>
        <time>2019-08-20T09:30:24Z</time>
      </trkpt>
      <trkpt lat="46.54483" lon="4.21046">
        <ele>255.4</ele>
        <time>2019-08-20T09:30:25Z</time>
      </trkpt>
      <trkpt lat="46.54479" lon="4.21045">
        <ele>255.4</ele>
        <time>2019-08-20T09:30:26Z</time>
      </trkpt>
      <trkpt lat="46.54474" lon="4.21045">
        <ele>255.3</ele>
        <time>2019-08-20T09:30:27Z</time>
      </trkpt>
      <trkpt lat="46.54469" lon="4.21044">
        <ele>255.3</ele>
        <time>2019-08-20T09:30:28Z</time>
      </trkpt>
      <trkpt lat="46.54464" lon="4.21044">
        <ele>255.3</ele>
        <time>2019-08-20T09:30:29Z</time>
      </trkpt>
      <trkpt lat="46.54459" lon="4.21043">
        <ele>255.3</ele>
        <time>2019-08-20T09:30:30Z</time>
      </trkpt>
      <trkpt lat="46.54454" lon="4.21043">
        <ele>255.3</ele>
        <time>2019-08-20T09:30:31Z</time>
      </trkpt>
      <trkpt lat="46.54449" lon="4.21043">
        <ele>255.3</ele>
        <time>2019-08-20T09:30:32Z</time>
      </trkpt>
      <trkpt lat="46.54444" lon="4.21043">
        <ele>255.3</ele>
        <time>2019-08-20T09:30:33Z</time>
      </trkpt>
      <trkpt lat="46.54439" lon="4.21043">
        <ele>255.3</ele>
        <time>2019-08-20T09:30:34Z</time>
      </trkpt>
      <trkpt lat="46.54434" lon="4.21041">
        <ele>255.2</ele>
        <time>2019-08-20T09:30:35Z</time>
      </trkpt>
      <trkpt lat="46.54429" lon="4.21042">
        <ele>255.2</ele>
        <time>2019-08-20T09:30:36Z</time>
      </trkpt>
      <trkpt lat="46.54424" lon="4.21041">
        <ele>255.2</ele>
        <time>2019-08-20T09:30:37Z</time>
      </trkpt>
      <trkpt lat="46.54418" lon="4.2104">
        <ele>255.2</ele>
        <time>2019-08-20T09:30:38Z</time>
      </trkpt>
      <trkpt lat="46.54412" lon="4.21039">
        <ele>255.2</ele>
        <time>2019-08-20T09:30:39Z</time>
      </trkpt>
      <trkpt lat="46.54407" lon="4.21038">
        <ele>255.1</ele>
        <time>2019-08-20T09:30:40Z</time>
      </trkpt>
      <trkpt lat="46.54401" lon="4.21038">
        <ele>255.1</ele>
        <time>2019-08-20T09:30:41Z</time>
      </trkpt>
      <trkpt lat="46.54396" lon="4.21038">
        <ele>255.1</ele>
        <time>2019-08-20T09:30:42Z</time>
      </trkpt>
      <trkpt lat="46.54391" lon="4.21037">
        <ele>255.1</ele>
        <time>2019-08-20T09:30:43Z</time>
      </trkpt>
      <trkpt lat="46.54386" lon="4.21037">
        <ele>255.1</ele>
        <time>2019-08-20T09:30:44Z</time>
      </trkpt>
      <trkpt lat="46.5438" lon="4.21037">
        <ele>255.1</ele>
        <time>2019-08-20T09:30:45Z</time>
      </trkpt>
      <trkpt lat="46.54375" lon="4.21035">
        <ele>255.1</ele>
        <time>2019-08-20T09:30:46Z</time>
      </trkpt>
      <trkpt lat="46.5437" lon="4.21035">
        <ele>255.1</ele>
        <time>2019-08-20T09:30:47Z</time>
      </trkpt>
      <trkpt lat="46.54364" lon="4.21036">
        <ele>255.1</ele>
        <time>2019-08-20T09:30:48Z</time>
      </trkpt>
      <trkpt lat="46.54359" lon="4.21035">
        <ele>255</ele>
        <time>2019-08-20T09:30:49Z</time>
      </trkpt>
      <trkpt lat="46.54353" lon="4.21034">
        <ele>255</ele>
        <time>2019-08-20T09:30:50Z</time>
      </trkpt>
      <trkpt lat="46.54348" lon="4.21033">
        <ele>255</ele>
        <time>2019-08-20T09:30:51Z</time>
      </trkpt>
      <trkpt lat="46.54343" lon="4.2103">
        <ele>255</ele>
        <time>2019-08-20T09:30:52Z</time>
      </trkpt>
      <trkpt lat="46.54338" lon="4.21027">
        <ele>255</ele>
        <time>2019-08-20T09:30:53Z</time>
      </trkpt>
      <trkpt lat="46.54333" lon="4.21023">
        <ele>254.9</ele>
        <time>2019-08-20T09:30:54Z</time>
      </trkpt>
      <trkpt lat="46.54328" lon="4.21019">
        <ele>254.9</ele>
        <time>2019-08-20T09:30:55Z</time>
      </trkpt>
      <trkpt lat="46.54324" lon="4.21013">
        <ele>254.8</ele>
        <time>2019-08-20T09:30:56Z</time>
      </trkpt>
      <trkpt lat="46.54319" lon="4.21008">
        <ele>254.8</ele>
        <time>2019-08-20T09:30:57Z</time>
      </trkpt>
      <trkpt lat="46.54315" lon="4.21003">
        <ele>254.7</ele>
        <time>2019-08-20T09:30:58Z</time>
      </trkpt>
      <trkpt lat="46.5431" lon="4.20997">
        <ele>254.7</ele>
        <time>2019-08-20T09:30:59Z</time>
      </trkpt>
      <trkpt lat="46.54306" lon="4.20991">
        <ele>254.6</ele>
        <time>2019-08-20T09:31:00Z</time>
      </trkpt>
      <trkpt lat="46.54302" lon="4.20986">
        <ele>254.5</ele>
        <time>2019-08-20T09:31:01Z</time>
      </trkpt>
      <trkpt lat="46.54298" lon="4.2098">
        <ele>254.4</ele>
        <time>2019-08-20T09:31:02Z</time>
      </trkpt>
      <trkpt lat="46.54295" lon="4.20975">
        <ele>254.4</ele>
        <time>2019-08-20T09:31:03Z</time>
      </trkpt>
      <trkpt lat="46.54291" lon="4.20969">
        <ele>254.3</ele>
        <time>2019-08-20T09:31:04Z</time>
      </trkpt>
      <trkpt lat="46.54287" lon="4.20964">
        <ele>254.2</ele>
        <time>2019-08-20T09:31:05Z</time>
      </trkpt>
      <trkpt lat="46.54284" lon="4.20958">
        <ele>254.1</ele>
        <time>2019-08-20T09:31:06Z</time>
      </trkpt>
      <trkpt lat="46.5428" lon="4.20953">
        <ele>253.9</ele>
        <time>2019-08-20T09:31:07Z</time>
      </trkpt>
      <trkpt lat="46.54277" lon="4.20948">
        <ele>253.8</ele>
        <time>2019-08-20T09:31:08Z</time>
      </trkpt>
      <trkpt lat="46.54274" lon="4.20943">
        <ele>253.7</ele>
        <time>2019-08-20T09:31:09Z</time>
      </trkpt>
      <trkpt lat="46.5427" lon="4.20938">
        <ele>253.6</ele>
        <time>2019-08-20T09:31:10Z</time>
      </trkpt>
      <trkpt lat="46.54266" lon="4.20934">
        <ele>253.5</ele>
        <time>2019-08-20T09:31:11Z</time>
      </trkpt>
      <trkpt lat="46.54262" lon="4.2093">
        <ele>253.4</ele>
        <time>2019-08-20T09:31:12Z</time>
      </trkpt>
      <trkpt lat="46.54258" lon="4.20927">
        <ele>253.3</ele>
        <time>2019-08-20T09:31:13Z</time>
      </trkpt>
      <trkpt lat="46.54254" lon="4.20924">
        <ele>253.2</ele>
        <time>2019-08-20T09:31:14Z</time>
      </trkpt>
      <trkpt lat="46.5425" lon="4.20921">
        <ele>253.1</ele>
        <time>2019-08-20T09:31:15Z</time>
      </trkpt>
      <trkpt lat="46.54245" lon="4.20919">
        <ele>253.1</ele>
        <time>2019-08-20T09:31:16Z</time>
      </trkpt>
      <trkpt lat="46.5424" lon="4.20916">
        <ele>253</ele>
        <time>2019-08-20T09:31:17Z</time>
      </trkpt>
      <trkpt lat="46.54236" lon="4.20912">
        <ele>253</ele>
        <time>2019-08-20T09:31:18Z</time>
      </trkpt>
      <trkpt lat="46.54231" lon="4.20909">
        <ele>252.9</ele>
        <time>2019-08-20T09:31:19Z</time>
      </trkpt>
      <trkpt lat="46.54226" lon="4.20907">
        <ele>252.9</ele>
        <time>2019-08-20T09:31:20Z</time>
      </trkpt>
      <trkpt lat="46.54222" lon="4.20903">
        <ele>252.9</ele>
        <time>2019-08-20T09:31:21Z</time>
      </trkpt>
      <trkpt lat="46.54217" lon="4.209">
        <ele>252.9</ele>
        <time>2019-08-20T09:31:22Z</time>
      </trkpt>
      <trkpt lat="46.54212" lon="4.20897">
        <ele>252.8</ele>
        <time>2019-08-20T09:31:23Z</time>
      </trkpt>
      <trkpt lat="46.54206" lon="4.20895">
        <ele>252.8</ele>
        <time>2019-08-20T09:31:24Z</time>
      </trkpt>
      <trkpt lat="46.54201" lon="4.20892">
        <ele>252.8</ele>
        <time>2019-08-20T09:31:25Z</time>
      </trkpt>
      <trkpt lat="46.54196" lon="4.20889">
        <ele>252.8</ele>
        <time>2019-08-20T09:31:26Z</time>
      </trkpt>
      <trkpt lat="46.54191" lon="4.20885">
        <ele>252.8</ele>
        <time>2019-08-20T09:31:27Z</time>
      </trkpt>
      <trkpt lat="46.54185" lon="4.20882">
        <ele>252.8</ele>
        <time>2019-08-20T09:31:28Z</time>
      </trkpt>
      <trkpt lat="46.5418" lon="4.20879">
        <ele>252.7</ele>
        <time>2019-08-20T09:31:29Z</time>
      </trkpt>
      <trkpt lat="46.54175" lon="4.20875">
        <ele>252.7</ele>
        <time>2019-08-20T09:31:30Z</time>
      </trkpt>
      <trkpt lat="46.5417" lon="4.20872">
        <ele>252.7</ele>
        <time>2019-08-20T09:31:31Z</time>
      </trkpt>
      <trkpt lat="46.54164" lon="4.20868">
        <ele>252.7</ele>
        <time>2019-08-20T09:31:32Z</time>
      </trkpt>
      <trkpt lat="46.54158" lon="4.20865">
        <ele>252.7</ele>
        <time>2019-08-20T09:31:33Z</time>
      </trkpt>
      <trkpt lat="46.54153" lon="4.20862">
        <ele>252.7</ele>
        <time>2019-08-20T09:31:34Z</time>
      </trkpt>
      <trkpt lat="46.54147" lon="4.20859">
        <ele>252.7</ele>
        <time>2019-08-20T09:31:35Z</time>
      </trkpt>
      <trkpt lat="46.54141" lon="4.20857">
        <ele>252.7</ele>
        <time>2019-08-20T09:31:36Z</time>
      </trkpt>
      <trkpt lat="46.54136" lon="4.20854">
        <ele>252.7</ele>
        <time>2019-08-20T09:31:37Z</time>
      </trkpt>
      <trkpt lat="46.54131" lon="4.20851">
        <ele>252.7</ele>
        <time>2019-08-20T09:31:38Z</time>
      </trkpt>
      <trkpt lat="46.54126" lon="4.20849">
        <ele>252.7</ele>
        <time>2019-08-20T09:31:39Z</time>
      </trkpt>
      <trkpt lat="46.5412" lon="4.20846">
        <ele>252.7</ele>
        <time>2019-08-20T09:31:40Z</time>
      </trkpt>
      <trkpt lat="46.54115" lon="4.20843">
        <ele>252.7</ele>
        <time>2019-08-20T09:31:41Z</time>
      </trkpt>
      <trkpt lat="46.5411" lon="4.2084">
        <ele>252.7</ele>
        <time>2019-08-20T09:31:42Z</time>
      </trkpt>
      <trkpt lat="46.54104" lon="4.20835">
        <ele>252.7</ele>
        <time>2019-08-20T09:31:43Z</time>
      </trkpt>
      <trkpt lat="46.541" lon="4.20832">
        <ele>252.7</ele>
        <time>2019-08-20T09:31:44Z</time>
      </trkpt>
      <trkpt lat="46.54095" lon="4.20829">
        <ele>252.7</ele>
        <time>2019-08-20T09:31:45Z</time>
      </trkpt>
      <trkpt lat="46.5409" lon="4.20825">
        <ele>252.7</ele>
        <time>2019-08-20T09:31:46Z</time>
      </trkpt>
      <trkpt lat="46.54085" lon="4.20821">
        <ele>252.6</ele>
        <time>2019-08-20T09:31:47Z</time>
      </trkpt>
      <trkpt lat="46.5408" lon="4.20818">
        <ele>252.6</ele>
        <time>2019-08-20T09:31:48Z</time>
      </trkpt>
      <trkpt lat="46.54074" lon="4.20814">
        <ele>252.6</ele>
        <time>2019-08-20T09:31:49Z</time>
      </trkpt>
      <trkpt lat="46.54069" lon="4.2081">
        <ele>252.6</ele>
        <time>2019-08-20T09:31:50Z</time>
      </trkpt>
      <trkpt lat="46.54063" lon="4.20808">
        <ele>252.6</ele>
        <time>2019-08-20T09:31:51Z</time>
      </trkpt>
      <trkpt lat="46.54058" lon="4.20804">
        <ele>252.6</ele>
        <time>2019-08-20T09:31:52Z</time>
      </trkpt>
      <trkpt lat="46.54052" lon="4.208">
        <ele>252.6</ele>
        <time>2019-08-20T09:31:53Z</time>
      </trkpt>
      <trkpt lat="46.54047" lon="4.20797">
        <ele>252.6</ele>
        <time>2019-08-20T09:31:54Z</time>
      </trkpt>
      <trkpt lat="46.54042" lon="4.20794">
        <ele>252.6</ele>
        <time>2019-08-20T09:31:55Z</time>
      </trkpt>
      <trkpt lat="46.54036" lon="4.20791">
        <ele>252.6</ele>
        <time>2019-08-20T09:31:56Z</time>
      </trkpt>
      <trkpt lat="46.54031" lon="4.20788">
        <ele>252.6</ele>
        <time>2019-08-20T09:31:57Z</time>
      </trkpt>
      <trkpt lat="46.54025" lon="4.20785">
        <ele>252.6</ele>
        <time>2019-08-20T09:31:58Z</time>
      </trkpt>
      <trkpt lat="46.5402" lon="4.20781">
        <ele>252.6</ele>
        <time>2019-08-20T09:31:59Z</time>
      </trkpt>
      <trkpt lat="46.54015" lon="4.20778">
        <ele>252.6</ele>
        <time>2019-08-20T09:32:00Z</time>
      </trkpt>
      <trkpt lat="46.5401" lon="4.20774">
        <ele>252.6</ele>
        <time>2019-08-20T09:32:01Z</time>
      </trkpt>
      <trkpt lat="46.54005" lon="4.20771">
        <ele>252.6</ele>
        <time>2019-08-20T09:32:02Z</time>
      </trkpt>
      <trkpt lat="46.54" lon="4.20767">
        <ele>252.6</ele>
        <time>2019-08-20T09:32:03Z</time>
      </trkpt>
      <trkpt lat="46.53995" lon="4.20763">
        <ele>252.6</ele>
        <time>2019-08-20T09:32:04Z</time>
      </trkpt>
      <trkpt lat="46.53989" lon="4.2076">
        <ele>252.6</ele>
        <time>2019-08-20T09:32:05Z</time>
      </trkpt>
      <trkpt lat="46.53984" lon="4.20756">
        <ele>252.5</ele>
        <time>2019-08-20T09:32:06Z</time>
      </trkpt>
      <trkpt lat="46.53978" lon="4.20753">
        <ele>252.5</ele>
        <time>2019-08-20T09:32:07Z</time>
      </trkpt>
      <trkpt lat="46.53973" lon="4.2075">
        <ele>252.5</ele>
        <time>2019-08-20T09:32:08Z</time>
      </trkpt>
      <trkpt lat="46.53967" lon="4.20747">
        <ele>252.5</ele>
        <time>2019-08-20T09:32:09Z</time>
      </trkpt>
      <trkpt lat="46.53961" lon="4.20743">
        <ele>252.5</ele>
        <time>2019-08-20T09:32:10Z</time>
      </trkpt>
      <trkpt lat="46.53957" lon="4.2074">
        <ele>252.5</ele>
        <time>2019-08-20T09:32:11Z</time>
      </trkpt>
      <trkpt lat="46.53952" lon="4.20736">
        <ele>252.5</ele>
        <time>2019-08-20T09:32:12Z</time>
      </trkpt>
      <trkpt lat="46.53946" lon="4.20734">
        <ele>252.5</ele>
        <time>2019-08-20T09:32:13Z</time>
      </trkpt>
      <trkpt lat="46.53941" lon="4.20731">
        <ele>252.5</ele>
        <time>2019-08-20T09:32:14Z</time>
      </trkpt>
      <trkpt lat="46.53936" lon="4.20727">
        <ele>252.5</ele>
        <time>2019-08-20T09:32:15Z</time>
      </trkpt>
      <trkpt lat="46.53931" lon="4.20724">
        <ele>252.5</ele>
        <time>2019-08-20T09:32:16Z</time>
      </trkpt>
      <trkpt lat="46.53926" lon="4.2072">
        <ele>252.5</ele>
        <time>2019-08-20T09:32:17Z</time>
      </trkpt>
      <trkpt lat="46.5392" lon="4.20717">
        <ele>252.5</ele>
        <time>2019-08-20T09:32:18Z</time>
      </trkpt>
      <trkpt lat="46.53915" lon="4.20713">
        <ele>252.5</ele>
        <time>2019-08-20T09:32:19Z</time>
      </trkpt>
      <trkpt lat="46.53909" lon="4.20709">
        <ele>252.5</ele>
        <time>2019-08-20T09:32:20Z</time>
      </trkpt>
      <trkpt lat="46.53904" lon="4.20705">
        <ele>252.5</ele>
        <time>2019-08-20T09:32:21Z</time>
      </trkpt>
      <trkpt lat="46.53899" lon="4.20701">
        <ele>252.4</ele>
        <time>2019-08-20T09:32:22Z</time>
      </trkpt>
      <trkpt lat="46.53893" lon="4.20697">
        <ele>252.4</ele>
        <time>2019-08-20T09:32:23Z</time>
      </trkpt>
      <trkpt lat="46.53888" lon="4.20693">
        <ele>252.4</ele>
        <time>2019-08-20T09:32:24Z</time>
      </trkpt>
      <trkpt lat="46.53882" lon="4.20689">
        <ele>252.4</ele>
        <time>2019-08-20T09:32:25Z</time>
      </trkpt>
      <trkpt lat="46.53877" lon="4.20686">
        <ele>252.4</ele>
        <time>2019-08-20T09:32:26Z</time>
      </trkpt>
      <trkpt lat="46.53871" lon="4.20683">
        <ele>252.4</ele>
        <time>2019-08-20T09:32:27Z</time>
      </trkpt>
      <trkpt lat="46.53866" lon="4.2068">
        <ele>252.4</ele>
        <time>2019-08-20T09:32:28Z</time>
      </trkpt>
      <trkpt lat="46.53861" lon="4.20677">
        <ele>252.4</ele>
        <time>2019-08-20T09:32:29Z</time>
      </trkpt>
      <trkpt lat="46.53855" lon="4.20673">
        <ele>252.4</ele>
        <time>2019-08-20T09:32:30Z</time>
      </trkpt>
      <trkpt lat="46.5385" lon="4.2067">
        <ele>252.4</ele>
        <time>2019-08-20T09:32:31Z</time>
      </trkpt>
      <trkpt lat="46.53846" lon="4.20667">
        <ele>252.4</ele>
        <time>2019-08-20T09:32:32Z</time>
      </trkpt>
      <trkpt lat="46.53841" lon="4.20664">
        <ele>252.4</ele>
        <time>2019-08-20T09:32:33Z</time>
      </trkpt>
      <trkpt lat="46.53836" lon="4.20661">
        <ele>252.4</ele>
        <time>2019-08-20T09:32:34Z</time>
      </trkpt>
      <trkpt lat="46.5383" lon="4.20658">
        <ele>252.4</ele>
        <time>2019-08-20T09:32:35Z</time>
      </trkpt>
      <trkpt lat="46.53825" lon="4.20655">
        <ele>252.4</ele>
        <time>2019-08-20T09:32:36Z</time>
      </trkpt>
      <trkpt lat="46.53819" lon="4.20652">
        <ele>252.4</ele>
        <time>2019-08-20T09:32:37Z</time>
      </trkpt>
      <trkpt lat="46.53814" lon="4.20649">
        <ele>252.4</ele>
        <time>2019-08-20T09:32:38Z</time>
      </trkpt>
      <trkpt lat="46.53809" lon="4.20645">
        <ele>252.4</ele>
        <time>2019-08-20T09:32:39Z</time>
      </trkpt>
      <trkpt lat="46.53804" lon="4.20641">
        <ele>252.4</ele>
        <time>2019-08-20T09:32:40Z</time>
      </trkpt>
      <trkpt lat="46.53799" lon="4.20638">
        <ele>252.4</ele>
        <time>2019-08-20T09:32:41Z</time>
      </trkpt>
      <trkpt lat="46.53794" lon="4.20635">
        <ele>252.4</ele>
        <time>2019-08-20T09:32:42Z</time>
      </trkpt>
      <trkpt lat="46.53789" lon="4.20632">
        <ele>252.3</ele>
        <time>2019-08-20T09:32:43Z</time>
      </trkpt>
      <trkpt lat="46.53784" lon="4.20629">
        <ele>252.3</ele>
        <time>2019-08-20T09:32:44Z</time>
      </trkpt>
      <trkpt lat="46.53779" lon="4.20625">
        <ele>252.3</ele>
        <time>2019-08-20T09:32:45Z</time>
      </trkpt>
      <trkpt lat="46.53774" lon="4.20623">
        <ele>252.3</ele>
        <time>2019-08-20T09:32:46Z</time>
      </trkpt>
      <trkpt lat="46.5377" lon="4.2062">
        <ele>252.3</ele>
        <time>2019-08-20T09:32:47Z</time>
      </trkpt>
      <trkpt lat="46.53765" lon="4.20619">
        <ele>252.3</ele>
        <time>2019-08-20T09:32:48Z</time>
      </trkpt>
      <trkpt lat="46.53759" lon="4.20618">
        <ele>252.3</ele>
        <time>2019-08-20T09:32:49Z</time>
      </trkpt>
      <trkpt lat="46.53754" lon="4.20617">
        <ele>252.3</ele>
        <time>2019-08-20T09:32:50Z</time>
      </trkpt>
      <trkpt lat="46.53749" lon="4.20616">
        <ele>252.3</ele>
        <time>2019-08-20T09:32:51Z</time>
      </trkpt>
      <trkpt lat="46.53744" lon="4.20615">
        <ele>252.3</ele>
        <time>2019-08-20T09:32:52Z</time>
      </trkpt>
      <trkpt lat="46.53738" lon="4.20613">
        <ele>252.3</ele>
        <time>2019-08-20T09:32:53Z</time>
      </trkpt>
      <trkpt lat="46.53733" lon="4.20611">
        <ele>252.3</ele>
        <time>2019-08-20T09:32:54Z</time>
      </trkpt>
      <trkpt lat="46.53727" lon="4.20609">
        <ele>252.3</ele>
        <time>2019-08-20T09:32:55Z</time>
      </trkpt>
      <trkpt lat="46.53721" lon="4.20608">
        <ele>252.3</ele>
        <time>2019-08-20T09:32:56Z</time>
      </trkpt>
      <trkpt lat="46.53716" lon="4.20607">
        <ele>252.3</ele>
        <time>2019-08-20T09:32:57Z</time>
      </trkpt>
      <trkpt lat="46.53711" lon="4.20606">
        <ele>252.3</ele>
        <time>2019-08-20T09:32:58Z</time>
      </trkpt>
      <trkpt lat="46.53705" lon="4.20604">
        <ele>252.3</ele>
        <time>2019-08-20T09:32:59Z</time>
      </trkpt>
      <trkpt lat="46.537" lon="4.20602">
        <ele>252.3</ele>
        <time>2019-08-20T09:33:00Z</time>
      </trkpt>
      <trkpt lat="46.53695" lon="4.206">
        <ele>252.3</ele>
        <time>2019-08-20T09:33:01Z</time>
      </trkpt>
      <trkpt lat="46.5369" lon="4.20599">
        <ele>252.3</ele>
        <time>2019-08-20T09:33:02Z</time>
      </trkpt>
      <trkpt lat="46.53685" lon="4.20597">
        <ele>252.3</ele>
        <time>2019-08-20T09:33:03Z</time>
      </trkpt>
      <trkpt lat="46.53679" lon="4.20596">
        <ele>252.3</ele>
        <time>2019-08-20T09:33:04Z</time>
      </trkpt>
      <trkpt lat="46.53673" lon="4.20595">
        <ele>252.3</ele>
        <time>2019-08-20T09:33:05Z</time>
      </trkpt>
      <trkpt lat="46.53668" lon="4.20594">
        <ele>252.2</ele>
        <time>2019-08-20T09:33:06Z</time>
      </trkpt>
      <trkpt lat="46.53662" lon="4.20592">
        <ele>252.2</ele>
        <time>2019-08-20T09:33:07Z</time>
      </trkpt>
      <trkpt lat="46.53657" lon="4.20591">
        <ele>252.2</ele>
        <time>2019-08-20T09:33:08Z</time>
      </trkpt>
      <trkpt lat="46.53651" lon="4.2059">
        <ele>252.2</ele>
        <time>2019-08-20T09:33:09Z</time>
      </trkpt>
      <trkpt lat="46.53646" lon="4.20588">
        <ele>252.2</ele>
        <time>2019-08-20T09:33:10Z</time>
      </trkpt>
      <trkpt lat="46.53642" lon="4.20586">
        <ele>252.2</ele>
        <time>2019-08-20T09:33:11Z</time>
      </trkpt>
      <trkpt lat="46.53637" lon="4.20585">
        <ele>252.2</ele>
        <time>2019-08-20T09:33:12Z</time>
      </trkpt>
      <trkpt lat="46.53632" lon="4.20584">
        <ele>252.2</ele>
        <time>2019-08-20T09:33:13Z</time>
      </trkpt>
      <trkpt lat="46.53627" lon="4.20583">
        <ele>252.2</ele>
        <time>2019-08-20T09:33:14Z</time>
      </trkpt>
      <trkpt lat="46.53621" lon="4.20582">
        <ele>252.2</ele>
        <time>2019-08-20T09:33:15Z</time>
      </trkpt>
      <trkpt lat="46.53616" lon="4.2058">
        <ele>252.2</ele>
        <time>2019-08-20T09:33:16Z</time>
      </trkpt>
      <trkpt lat="46.53611" lon="4.20579">
        <ele>252.2</ele>
        <time>2019-08-20T09:33:17Z</time>
      </trkpt>
      <trkpt lat="46.53605" lon="4.20578">
        <ele>252.2</ele>
        <time>2019-08-20T09:33:18Z</time>
      </trkpt>
      <trkpt lat="46.536" lon="4.20576">
        <ele>252.2</ele>
        <time>2019-08-20T09:33:19Z</time>
      </trkpt>
      <trkpt lat="46.53594" lon="4.20573">
        <ele>252.2</ele>
        <time>2019-08-20T09:33:20Z</time>
      </trkpt>
      <trkpt lat="46.53589" lon="4.20571">
        <ele>252.2</ele>
        <time>2019-08-20T09:33:21Z</time>
      </trkpt>
      <trkpt lat="46.53585" lon="4.20569">
        <ele>252.2</ele>
        <time>2019-08-20T09:33:22Z</time>
      </trkpt>
      <trkpt lat="46.5358" lon="4.20568">
        <ele>252.2</ele>
        <time>2019-08-20T09:33:23Z</time>
      </trkpt>
      <trkpt lat="46.53575" lon="4.20567">
        <ele>252.2</ele>
        <time>2019-08-20T09:33:24Z</time>
      </trkpt>
      <trkpt lat="46.53571" lon="4.20567">
        <ele>252.2</ele>
        <time>2019-08-20T09:33:25Z</time>
      </trkpt>
      <trkpt lat="46.53566" lon="4.20565">
        <ele>252.2</ele>
        <time>2019-08-20T09:33:26Z</time>
      </trkpt>
      <trkpt lat="46.53562" lon="4.20564">
        <ele>252.2</ele>
        <time>2019-08-20T09:33:27Z</time>
      </trkpt>
      <trkpt lat="46.53559" lon="4.20562">
        <ele>252.2</ele>
        <time>2019-08-20T09:33:28Z</time>
      </trkpt>
      <trkpt lat="46.53555" lon="4.20561">
        <ele>252.2</ele>
        <time>2019-08-20T09:33:29Z</time>
      </trkpt>
      <trkpt lat="46.53551" lon="4.2056">
        <ele>252.2</ele>
        <time>2019-08-20T09:33:30Z</time>
      </trkpt>
      <trkpt lat="46.53547" lon="4.20559">
        <ele>252.2</ele>
        <time>2019-08-20T09:33:31Z</time>
      </trkpt>
      <trkpt lat="46.53543" lon="4.20558">
        <ele>252.1</ele>
        <time>2019-08-20T09:33:32Z</time>
      </trkpt>
      <trkpt lat="46.53539" lon="4.20557">
        <ele>252.1</ele>
        <time>2019-08-20T09:33:33Z</time>
      </trkpt>
      <trkpt lat="46.53534" lon="4.20556">
        <ele>252.1</ele>
        <time>2019-08-20T09:33:34Z</time>
      </trkpt>
      <trkpt lat="46.5353" lon="4.20555">
        <ele>252.1</ele>
        <time>2019-08-20T09:33:35Z</time>
      </trkpt>
      <trkpt lat="46.53525" lon="4.20553">
        <ele>252.1</ele>
        <time>2019-08-20T09:33:36Z</time>
      </trkpt>
      <trkpt lat="46.5352" lon="4.20551">
        <ele>252.1</ele>
        <time>2019-08-20T09:33:37Z</time>
      </trkpt>
      <trkpt lat="46.53515" lon="4.2055">
        <ele>252.1</ele>
        <time>2019-08-20T09:33:38Z</time>
      </trkpt>
      <trkpt lat="46.53511" lon="4.20549">
        <ele>252.1</ele>
        <time>2019-08-20T09:33:39Z</time>
      </trkpt>
      <trkpt lat="46.53506" lon="4.20548">
        <ele>252.1</ele>
        <time>2019-08-20T09:33:40Z</time>
      </trkpt>
      <trkpt lat="46.53501" lon="4.20547">
        <ele>252.1</ele>
        <time>2019-08-20T09:33:41Z</time>
      </trkpt>
      <trkpt lat="46.53496" lon="4.20546">
        <ele>252.1</ele>
        <time>2019-08-20T09:33:42Z</time>
      </trkpt>
      <trkpt lat="46.53491" lon="4.20544">
        <ele>252.1</ele>
        <time>2019-08-20T09:33:43Z</time>
      </trkpt>
      <trkpt lat="46.53486" lon="4.20543">
        <ele>252.1</ele>
        <time>2019-08-20T09:33:44Z</time>
      </trkpt>
      <trkpt lat="46.53481" lon="4.20542">
        <ele>252.1</ele>
        <time>2019-08-20T09:33:45Z</time>
      </trkpt>
      <trkpt lat="46.53476" lon="4.20541">
        <ele>252.1</ele>
        <time>2019-08-20T09:33:46Z</time>
      </trkpt>
      <trkpt lat="46.53471" lon="4.2054">
        <ele>252.1</ele>
        <time>2019-08-20T09:33:47Z</time>
      </trkpt>
      <trkpt lat="46.53466" lon="4.20539">
        <ele>252.1</ele>
        <time>2019-08-20T09:33:48Z</time>
      </trkpt>
      <trkpt lat="46.53462" lon="4.20538">
        <ele>252.1</ele>
        <time>2019-08-20T09:33:49Z</time>
      </trkpt>
      <trkpt lat="46.53457" lon="4.20536">
        <ele>252.1</ele>
        <time>2019-08-20T09:33:50Z</time>
      </trkpt>
      <trkpt lat="46.53452" lon="4.20535">
        <ele>252.1</ele>
        <time>2019-08-20T09:33:51Z</time>
      </trkpt>
      <trkpt lat="46.53447" lon="4.20533">
        <ele>252.1</ele>
        <time>2019-08-20T09:33:52Z</time>
      </trkpt>
      <trkpt lat="46.53442" lon="4.20531">
        <ele>252.1</ele>
        <time>2019-08-20T09:33:53Z</time>
      </trkpt>
      <trkpt lat="46.53437" lon="4.2053">
        <ele>252</ele>
        <time>2019-08-20T09:33:54Z</time>
      </trkpt>
      <trkpt lat="46.53432" lon="4.20528">
        <ele>252</ele>
        <time>2019-08-20T09:33:55Z</time>
      </trkpt>
      <trkpt lat="46.53427" lon="4.20526">
        <ele>252</ele>
        <time>2019-08-20T09:33:56Z</time>
      </trkpt>
      <trkpt lat="46.53422" lon="4.20525">
        <ele>252</ele>
        <time>2019-08-20T09:33:57Z</time>
      </trkpt>
      <trkpt lat="46.53416" lon="4.20522">
        <ele>252</ele>
        <time>2019-08-20T09:33:58Z</time>
      </trkpt>
      <trkpt lat="46.53411" lon="4.2052">
        <ele>252</ele>
        <time>2019-08-20T09:33:59Z</time>
      </trkpt>
      <trkpt lat="46.53405" lon="4.20518">
        <ele>252</ele>
        <time>2019-08-20T09:34:00Z</time>
      </trkpt>
      <trkpt lat="46.53399" lon="4.20517">
        <ele>252</ele>
        <time>2019-08-20T09:34:01Z</time>
      </trkpt>
      <trkpt lat="46.53393" lon="4.20516">
        <ele>252</ele>
        <time>2019-08-20T09:34:02Z</time>
      </trkpt>
      <trkpt lat="46.53388" lon="4.20514">
        <ele>252</ele>
        <time>2019-08-20T09:34:03Z</time>
      </trkpt>
      <trkpt lat="46.53382" lon="4.20512">
        <ele>252</ele>
        <time>2019-08-20T09:34:04Z</time>
      </trkpt>
      <trkpt lat="46.53377" lon="4.20511">
        <ele>252</ele>
        <time>2019-08-20T09:34:05Z</time>
      </trkpt>
      <trkpt lat="46.53371" lon="4.2051">
        <ele>252</ele>
        <time>2019-08-20T09:34:06Z</time>
      </trkpt>
      <trkpt lat="46.53366" lon="4.20509">
        <ele>252</ele>
        <time>2019-08-20T09:34:07Z</time>
      </trkpt>
      <trkpt lat="46.53361" lon="4.20508">
        <ele>252</ele>
        <time>2019-08-20T09:34:08Z</time>
      </trkpt>
      <trkpt lat="46.53355" lon="4.20506">
        <ele>252</ele>
        <time>2019-08-20T09:34:09Z</time>
      </trkpt>
      <trkpt lat="46.53351" lon="4.20505">
        <ele>252</ele>
        <time>2019-08-20T09:34:10Z</time>
      </trkpt>
      <trkpt lat="46.53345" lon="4.20503">
        <ele>252</ele>
        <time>2019-08-20T09:34:11Z</time>
      </trkpt>
      <trkpt lat="46.53339" lon="4.20502">
        <ele>251.9</ele>
        <time>2019-08-20T09:34:12Z</time>
      </trkpt>
      <trkpt lat="46.53334" lon="4.20501">
        <ele>251.9</ele>
        <time>2019-08-20T09:34:13Z</time>
      </trkpt>
      <trkpt lat="46.53328" lon="4.205">
        <ele>251.9</ele>
        <time>2019-08-20T09:34:14Z</time>
      </trkpt>
      <trkpt lat="46.53323" lon="4.20499">
        <ele>251.9</ele>
        <time>2019-08-20T09:34:15Z</time>
      </trkpt>
      <trkpt lat="46.53318" lon="4.20498">
        <ele>251.9</ele>
        <time>2019-08-20T09:34:16Z</time>
      </trkpt>
      <trkpt lat="46.53313" lon="4.20496">
        <ele>251.9</ele>
        <time>2019-08-20T09:34:17Z</time>
      </trkpt>
      <trkpt lat="46.53309" lon="4.20494">
        <ele>251.9</ele>
        <time>2019-08-20T09:34:18Z</time>
      </trkpt>
      <trkpt lat="46.53305" lon="4.20492">
        <ele>251.9</ele>
        <time>2019-08-20T09:34:19Z</time>
      </trkpt>
      <trkpt lat="46.53301" lon="4.2049">
        <ele>251.9</ele>
        <time>2019-08-20T09:34:20Z</time>
      </trkpt>
      <trkpt lat="46.53296" lon="4.20489">
        <ele>251.9</ele>
        <time>2019-08-20T09:34:21Z</time>
      </trkpt>
      <trkpt lat="46.53292" lon="4.20488">
        <ele>251.9</ele>
        <time>2019-08-20T09:34:22Z</time>
      </trkpt>
      <trkpt lat="46.53287" lon="4.20487">
        <ele>251.9</ele>
        <time>2019-08-20T09:34:23Z</time>
      </trkpt>
      <trkpt lat="46.53283" lon="4.20486">
        <ele>251.9</ele>
        <time>2019-08-20T09:34:24Z</time>
      </trkpt>
      <trkpt lat="46.53279" lon="4.20486">
        <ele>251.9</ele>
        <time>2019-08-20T09:34:25Z</time>
      </trkpt>
      <trkpt lat="46.53276" lon="4.20485">
        <ele>251.9</ele>
        <time>2019-08-20T09:34:26Z</time>
      </trkpt>
      <trkpt lat="46.53272" lon="4.20485">
        <ele>251.9</ele>
        <time>2019-08-20T09:34:27Z</time>
      </trkpt>
      <trkpt lat="46.53269" lon="4.20484">
        <ele>251.9</ele>
        <time>2019-08-20T09:34:28Z</time>
      </trkpt>
      <trkpt lat="46.53265" lon="4.20482">
        <ele>251.9</ele>
        <time>2019-08-20T09:34:29Z</time>
      </trkpt>
      <trkpt lat="46.53261" lon="4.20481">
        <ele>251.9</ele>
        <time>2019-08-20T09:34:30Z</time>
      </trkpt>
      <trkpt lat="46.53256" lon="4.20479">
        <ele>251.9</ele>
        <time>2019-08-20T09:34:31Z</time>
      </trkpt>
      <trkpt lat="46.53251" lon="4.20478">
        <ele>251.8</ele>
        <time>2019-08-20T09:34:32Z</time>
      </trkpt>
      <trkpt lat="46.53246" lon="4.20476">
        <ele>251.8</ele>
        <time>2019-08-20T09:34:33Z</time>
      </trkpt>
      <trkpt lat="46.53241" lon="4.20475">
        <ele>251.8</ele>
        <time>2019-08-20T09:34:34Z</time>
      </trkpt>
      <trkpt lat="46.53236" lon="4.20474">
        <ele>251.8</ele>
        <time>2019-08-20T09:34:35Z</time>
      </trkpt>
      <trkpt lat="46.53231" lon="4.20472">
        <ele>251.8</ele>
        <time>2019-08-20T09:34:36Z</time>
      </trkpt>
      <trkpt lat="46.53225" lon="4.20471">
        <ele>251.8</ele>
        <time>2019-08-20T09:34:37Z</time>
      </trkpt>
      <trkpt lat="46.5322" lon="4.2047">
        <ele>251.8</ele>
        <time>2019-08-20T09:34:38Z</time>
      </trkpt>
      <trkpt lat="46.53215" lon="4.20468">
        <ele>251.8</ele>
        <time>2019-08-20T09:34:39Z</time>
      </trkpt>
      <trkpt lat="46.5321" lon="4.20467">
        <ele>251.8</ele>
        <time>2019-08-20T09:34:40Z</time>
      </trkpt>
      <trkpt lat="46.53204" lon="4.20465">
        <ele>251.8</ele>
        <time>2019-08-20T09:34:41Z</time>
      </trkpt>
      <trkpt lat="46.53199" lon="4.20463">
        <ele>251.8</ele>
        <time>2019-08-20T09:34:42Z</time>
      </trkpt>
      <trkpt lat="46.53195" lon="4.20461">
        <ele>251.8</ele>
        <time>2019-08-20T09:34:43Z</time>
      </trkpt>
      <trkpt lat="46.53189" lon="4.2046">
        <ele>251.8</ele>
        <time>2019-08-20T09:34:44Z</time>
      </trkpt>
      <trkpt lat="46.53183" lon="4.20459">
        <ele>251.8</ele>
        <time>2019-08-20T09:34:45Z</time>
      </trkpt>
      <trkpt lat="46.53178" lon="4.20458">
        <ele>251.8</ele>
        <time>2019-08-20T09:34:46Z</time>
      </trkpt>
      <trkpt lat="46.53172" lon="4.20456">
        <ele>251.8</ele>
        <time>2019-08-20T09:34:47Z</time>
      </trkpt>
      <trkpt lat="46.53167" lon="4.20454">
        <ele>251.8</ele>
        <time>2019-08-20T09:34:48Z</time>
      </trkpt>
      <trkpt lat="46.53163" lon="4.20453">
        <ele>251.8</ele>
        <time>2019-08-20T09:34:49Z</time>
      </trkpt>
      <trkpt lat="46.53158" lon="4.2045">
        <ele>251.8</ele>
        <time>2019-08-20T09:34:50Z</time>
      </trkpt>
      <trkpt lat="46.53153" lon="4.20449">
        <ele>251.9</ele>
        <time>2019-08-20T09:34:51Z</time>
      </trkpt>
      <trkpt lat="46.53148" lon="4.20448">
        <ele>251.9</ele>
        <time>2019-08-20T09:34:52Z</time>
      </trkpt>
      <trkpt lat="46.53143" lon="4.20446">
        <ele>251.9</ele>
        <time>2019-08-20T09:34:53Z</time>
      </trkpt>
      <trkpt lat="46.53137" lon="4.20445">
        <ele>251.9</ele>
        <time>2019-08-20T09:34:54Z</time>
      </trkpt>
      <trkpt lat="46.53132" lon="4.20444">
        <ele>252</ele>
        <time>2019-08-20T09:34:55Z</time>
      </trkpt>
      <trkpt lat="46.53126" lon="4.20442">
        <ele>252</ele>
        <time>2019-08-20T09:34:56Z</time>
      </trkpt>
      <trkpt lat="46.5312" lon="4.20439">
        <ele>252.1</ele>
        <time>2019-08-20T09:34:57Z</time>
      </trkpt>
      <trkpt lat="46.53115" lon="4.20436">
        <ele>252.1</ele>
        <time>2019-08-20T09:34:58Z</time>
      </trkpt>
      <trkpt lat="46.53111" lon="4.20433">
        <ele>252.2</ele>
        <time>2019-08-20T09:34:59Z</time>
      </trkpt>
      <trkpt lat="46.53105" lon="4.2043">
        <ele>252.2</ele>
        <time>2019-08-20T09:35:00Z</time>
      </trkpt>
      <trkpt lat="46.53101" lon="4.20426">
        <ele>252.3</ele>
        <time>2019-08-20T09:35:01Z</time>
      </trkpt>
      <trkpt lat="46.53098" lon="4.20421">
        <ele>252.3</ele>
        <time>2019-08-20T09:35:02Z</time>
      </trkpt>
      <trkpt lat="46.53094" lon="4.20417">
        <ele>252.4</ele>
        <time>2019-08-20T09:35:03Z</time>
      </trkpt>
      <trkpt lat="46.53089" lon="4.20413">
        <ele>252.5</ele>
        <time>2019-08-20T09:35:04Z</time>
      </trkpt>
      <trkpt lat="46.53084" lon="4.20408">
        <ele>252.6</ele>
        <time>2019-08-20T09:35:05Z</time>
      </trkpt>
      <trkpt lat="46.5308" lon="4.20403">
        <ele>252.7</ele>
        <time>2019-08-20T09:35:06Z</time>
      </trkpt>
      <trkpt lat="46.53075" lon="4.20398">
        <ele>252.8</ele>
        <time>2019-08-20T09:35:07Z</time>
      </trkpt>
      <trkpt lat="46.53071" lon="4.20392">
        <ele>252.9</ele>
        <time>2019-08-20T09:35:08Z</time>
      </trkpt>
      <trkpt lat="46.53067" lon="4.20386">
        <ele>253</ele>
        <time>2019-08-20T09:35:09Z</time>
      </trkpt>
      <trkpt lat="46.53063" lon="4.20381">
        <ele>253.1</ele>
        <time>2019-08-20T09:35:10Z</time>
      </trkpt>
      <trkpt lat="46.5306" lon="4.20375">
        <ele>253.2</ele>
        <time>2019-08-20T09:35:11Z</time>
      </trkpt>
      <trkpt lat="46.53057" lon="4.2037">
        <ele>253.2</ele>
        <time>2019-08-20T09:35:12Z</time>
      </trkpt>
      <trkpt lat="46.53054" lon="4.20364">
        <ele>253.3</ele>
        <time>2019-08-20T09:35:13Z</time>
      </trkpt>
      <trkpt lat="46.53051" lon="4.20359">
        <ele>253.3</ele>
        <time>2019-08-20T09:35:14Z</time>
      </trkpt>
      <trkpt lat="46.53048" lon="4.20353">
        <ele>253.3</ele>
        <time>2019-08-20T09:35:15Z</time>
      </trkpt>
      <trkpt lat="46.53044" lon="4.20346">
        <ele>253.3</ele>
        <time>2019-08-20T09:35:16Z</time>
      </trkpt>
      <trkpt lat="46.5304" lon="4.2034">
        <ele>253.4</ele>
        <time>2019-08-20T09:35:17Z</time>
      </trkpt>
      <trkpt lat="46.53036" lon="4.20334">
        <ele>253.4</ele>
        <time>2019-08-20T09:35:18Z</time>
      </trkpt>
      <trkpt lat="46.53032" lon="4.20329">
        <ele>253.4</ele>
        <time>2019-08-20T09:35:19Z</time>
      </trkpt>
      <trkpt lat="46.53028" lon="4.20323">
        <ele>253.4</ele>
        <time>2019-08-20T09:35:20Z</time>
      </trkpt>
      <trkpt lat="46.53024" lon="4.20317">
        <ele>253.4</ele>
        <time>2019-08-20T09:35:21Z</time>
      </trkpt>
      <trkpt lat="46.53021" lon="4.2031">
        <ele>253.4</ele>
        <time>2019-08-20T09:35:22Z</time>
      </trkpt>
      <trkpt lat="46.53017" lon="4.20303">
        <ele>253.4</ele>
        <time>2019-08-20T09:35:23Z</time>
      </trkpt>
      <trkpt lat="46.53014" lon="4.20296">
        <ele>253.4</ele>
        <time>2019-08-20T09:35:24Z</time>
      </trkpt>
      <trkpt lat="46.5301" lon="4.2029">
        <ele>253.3</ele>
        <time>2019-08-20T09:35:25Z</time>
      </trkpt>
      <trkpt lat="46.53007" lon="4.20283">
        <ele>253.3</ele>
        <time>2019-08-20T09:35:26Z</time>
      </trkpt>
      <trkpt lat="46.53003" lon="4.20278">
        <ele>253.3</ele>
        <time>2019-08-20T09:35:27Z</time>
      </trkpt>
      <trkpt lat="46.52999" lon="4.20273">
        <ele>253.3</ele>
        <time>2019-08-20T09:35:28Z</time>
      </trkpt>
      <trkpt lat="46.52997" lon="4.20266">
        <ele>253.2</ele>
        <time>2019-08-20T09:35:29Z</time>
      </trkpt>
      <trkpt lat="46.52994" lon="4.2026">
        <ele>253.2</ele>
        <time>2019-08-20T09:35:30Z</time>
      </trkpt>
      <trkpt lat="46.5299" lon="4.20254">
        <ele>253.2</ele>
        <time>2019-08-20T09:35:31Z</time>
      </trkpt>
      <trkpt lat="46.52987" lon="4.20248">
        <ele>253.1</ele>
        <time>2019-08-20T09:35:32Z</time>
      </trkpt>
      <trkpt lat="46.52984" lon="4.20243">
        <ele>253.1</ele>
        <time>2019-08-20T09:35:33Z</time>
      </trkpt>
      <trkpt lat="46.52981" lon="4.20238">
        <ele>253.1</ele>
        <time>2019-08-20T09:35:34Z</time>
      </trkpt>
      <trkpt lat="46.52979" lon="4.20233">
        <ele>253</ele>
        <time>2019-08-20T09:35:35Z</time>
      </trkpt>
      <trkpt lat="46.52976" lon="4.20227">
        <ele>253</ele>
        <time>2019-08-20T09:35:36Z</time>
      </trkpt>
      <trkpt lat="46.52974" lon="4.20222">
        <ele>252.9</ele>
        <time>2019-08-20T09:35:37Z</time>
      </trkpt>
      <trkpt lat="46.52971" lon="4.20216">
        <ele>252.9</ele>
        <time>2019-08-20T09:35:38Z</time>
      </trkpt>
      <trkpt lat="46.52968" lon="4.2021">
        <ele>252.8</ele>
        <time>2019-08-20T09:35:39Z</time>
      </trkpt>
      <trkpt lat="46.52965" lon="4.20205">
        <ele>252.9</ele>
        <time>2019-08-20T09:35:40Z</time>
      </trkpt>
      <trkpt lat="46.52963" lon="4.20199">
        <ele>253</ele>
        <time>2019-08-20T09:35:41Z</time>
      </trkpt>
      <trkpt lat="46.5296" lon="4.20193">
        <ele>253.1</ele>
        <time>2019-08-20T09:35:42Z</time>
      </trkpt>
      <trkpt lat="46.52957" lon="4.20188">
        <ele>253.1</ele>
        <time>2019-08-20T09:35:43Z</time>
      </trkpt>
      <trkpt lat="46.52953" lon="4.20182">
        <ele>253.2</ele>
        <time>2019-08-20T09:35:44Z</time>
      </trkpt>
      <trkpt lat="46.5295" lon="4.20177">
        <ele>253.3</ele>
        <time>2019-08-20T09:35:45Z</time>
      </trkpt>
      <trkpt lat="46.52946" lon="4.20171">
        <ele>253.3</ele>
        <time>2019-08-20T09:35:46Z</time>
      </trkpt>
      <trkpt lat="46.52942" lon="4.20166">
        <ele>253.4</ele>
        <time>2019-08-20T09:35:47Z</time>
      </trkpt>
      <trkpt lat="46.52939" lon="4.2016">
        <ele>253.4</ele>
        <time>2019-08-20T09:35:48Z</time>
      </trkpt>
      <trkpt lat="46.52935" lon="4.20154">
        <ele>253.4</ele>
        <time>2019-08-20T09:35:49Z</time>
      </trkpt>
      <trkpt lat="46.52931" lon="4.20147">
        <ele>253.3</ele>
        <time>2019-08-20T09:35:50Z</time>
      </trkpt>
      <trkpt lat="46.52927" lon="4.20142">
        <ele>253.3</ele>
        <time>2019-08-20T09:35:51Z</time>
      </trkpt>
      <trkpt lat="46.52924" lon="4.20136">
        <ele>253.2</ele>
        <time>2019-08-20T09:35:52Z</time>
      </trkpt>
      <trkpt lat="46.52921" lon="4.20131">
        <ele>253.1</ele>
        <time>2019-08-20T09:35:53Z</time>
      </trkpt>
      <trkpt lat="46.52918" lon="4.20126">
        <ele>253</ele>
        <time>2019-08-20T09:35:54Z</time>
      </trkpt>
      <trkpt lat="46.52915" lon="4.20122">
        <ele>253</ele>
        <time>2019-08-20T09:35:55Z</time>
      </trkpt>
      <trkpt lat="46.52913" lon="4.20117">
        <ele>252.9</ele>
        <time>2019-08-20T09:35:56Z</time>
      </trkpt>
      <trkpt lat="46.5291" lon="4.20112">
        <ele>252.8</ele>
        <time>2019-08-20T09:35:57Z</time>
      </trkpt>
      <trkpt lat="46.52908" lon="4.20106">
        <ele>252.7</ele>
        <time>2019-08-20T09:35:58Z</time>
      </trkpt>
      <trkpt lat="46.52905" lon="4.20101">
        <ele>252.7</ele>
        <time>2019-08-20T09:35:59Z</time>
      </trkpt>
      <trkpt lat="46.52903" lon="4.20096">
        <ele>252.6</ele>
        <time>2019-08-20T09:36:00Z</time>
      </trkpt>
      <trkpt lat="46.529" lon="4.20091">
        <ele>252.6</ele>
        <time>2019-08-20T09:36:01Z</time>
      </trkpt>
      <trkpt lat="46.52898" lon="4.20085">
        <ele>252.6</ele>
        <time>2019-08-20T09:36:02Z</time>
      </trkpt>
      <trkpt lat="46.52895" lon="4.2008">
        <ele>252.5</ele>
        <time>2019-08-20T09:36:03Z</time>
      </trkpt>
      <trkpt lat="46.52892" lon="4.20076">
        <ele>252.5</ele>
        <time>2019-08-20T09:36:04Z</time>
      </trkpt>
      <trkpt lat="46.52888" lon="4.20071">
        <ele>252.5</ele>
        <time>2019-08-20T09:36:05Z</time>
      </trkpt>
      <trkpt lat="46.52885" lon="4.20065">
        <ele>252.5</ele>
        <time>2019-08-20T09:36:06Z</time>
      </trkpt>
      <trkpt lat="46.52882" lon="4.2006">
        <ele>252.5</ele>
        <time>2019-08-20T09:36:07Z</time>
      </trkpt>
      <trkpt lat="46.52879" lon="4.20055">
        <ele>252.5</ele>
        <time>2019-08-20T09:36:08Z</time>
      </trkpt>
      <trkpt lat="46.52875" lon="4.2005">
        <ele>252.5</ele>
        <time>2019-08-20T09:36:09Z</time>
      </trkpt>
      <trkpt lat="46.52872" lon="4.20045">
        <ele>252.5</ele>
        <time>2019-08-20T09:36:10Z</time>
      </trkpt>
      <trkpt lat="46.52868" lon="4.20041">
        <ele>252.5</ele>
        <time>2019-08-20T09:36:11Z</time>
      </trkpt>
      <trkpt lat="46.52864" lon="4.20036">
        <ele>252.4</ele>
        <time>2019-08-20T09:36:12Z</time>
      </trkpt>
      <trkpt lat="46.5286" lon="4.20032">
        <ele>252.4</ele>
        <time>2019-08-20T09:36:13Z</time>
      </trkpt>
      <trkpt lat="46.52857" lon="4.20027">
        <ele>252.4</ele>
        <time>2019-08-20T09:36:14Z</time>
      </trkpt>
      <trkpt lat="46.52853" lon="4.20022">
        <ele>252.3</ele>
        <time>2019-08-20T09:36:15Z</time>
      </trkpt>
      <trkpt lat="46.52849" lon="4.20017">
        <ele>252.3</ele>
        <time>2019-08-20T09:36:16Z</time>
      </trkpt>
      <trkpt lat="46.52845" lon="4.20013">
        <ele>252.2</ele>
        <time>2019-08-20T09:36:17Z</time>
      </trkpt>
      <trkpt lat="46.52841" lon="4.20009">
        <ele>252.2</ele>
        <time>2019-08-20T09:36:18Z</time>
      </trkpt>
      <trkpt lat="46.52837" lon="4.20006">
        <ele>252.2</ele>
        <time>2019-08-20T09:36:19Z</time>
      </trkpt>
      <trkpt lat="46.52833" lon="4.20003">
        <ele>252.2</ele>
        <time>2019-08-20T09:36:20Z</time>
      </trkpt>
      <trkpt lat="46.52829" lon="4.2">
        <ele>252.2</ele>
        <time>2019-08-20T09:36:21Z</time>
      </trkpt>
      <trkpt lat="46.52824" lon="4.19997">
        <ele>252.2</ele>
        <time>2019-08-20T09:36:22Z</time>
      </trkpt>
      <trkpt lat="46.52819" lon="4.19995">
        <ele>252.3</ele>
        <time>2019-08-20T09:36:23Z</time>
      </trkpt>
      <trkpt lat="46.52814" lon="4.19993">
        <ele>252.3</ele>
        <time>2019-08-20T09:36:24Z</time>
      </trkpt>
      <trkpt lat="46.52809" lon="4.1999">
        <ele>252.3</ele>
        <time>2019-08-20T09:36:25Z</time>
      </trkpt>
      <trkpt lat="46.52804" lon="4.19987">
        <ele>252.4</ele>
        <time>2019-08-20T09:36:26Z</time>
      </trkpt>
      <trkpt lat="46.52799" lon="4.19985">
        <ele>252.4</ele>
        <time>2019-08-20T09:36:27Z</time>
      </trkpt>
      <trkpt lat="46.52795" lon="4.19982">
        <ele>252.3</ele>
        <time>2019-08-20T09:36:28Z</time>
      </trkpt>
      <trkpt lat="46.5279" lon="4.1998">
        <ele>252.3</ele>
        <time>2019-08-20T09:36:29Z</time>
      </trkpt>
      <trkpt lat="46.52786" lon="4.19978">
        <ele>252.2</ele>
        <time>2019-08-20T09:36:30Z</time>
      </trkpt>
      <trkpt lat="46.52782" lon="4.19975">
        <ele>252.2</ele>
        <time>2019-08-20T09:36:31Z</time>
      </trkpt>
      <trkpt lat="46.52778" lon="4.19973">
        <ele>252.1</ele>
        <time>2019-08-20T09:36:32Z</time>
      </trkpt>
      <trkpt lat="46.52774" lon="4.1997">
        <ele>252</ele>
        <time>2019-08-20T09:36:33Z</time>
      </trkpt>
      <trkpt lat="46.52769" lon="4.19967">
        <ele>251.8</ele>
        <time>2019-08-20T09:36:34Z</time>
      </trkpt>
      <trkpt lat="46.52764" lon="4.19964">
        <ele>251.7</ele>
        <time>2019-08-20T09:36:35Z</time>
      </trkpt>
      <trkpt lat="46.52758" lon="4.19961">
        <ele>251.7</ele>
        <time>2019-08-20T09:36:36Z</time>
      </trkpt>
      <trkpt lat="46.52753" lon="4.19958">
        <ele>251.7</ele>
        <time>2019-08-20T09:36:37Z</time>
      </trkpt>
      <trkpt lat="46.52747" lon="4.19954">
        <ele>251.7</ele>
        <time>2019-08-20T09:36:38Z</time>
      </trkpt>
      <trkpt lat="46.52743" lon="4.1995">
        <ele>251.6</ele>
        <time>2019-08-20T09:36:39Z</time>
      </trkpt>
      <trkpt lat="46.52738" lon="4.19948">
        <ele>251.6</ele>
        <time>2019-08-20T09:36:40Z</time>
      </trkpt>
      <trkpt lat="46.52733" lon="4.19945">
        <ele>251.5</ele>
        <time>2019-08-20T09:36:41Z</time>
      </trkpt>
      <trkpt lat="46.52728" lon="4.19942">
        <ele>251.4</ele>
        <time>2019-08-20T09:36:42Z</time>
      </trkpt>
      <trkpt lat="46.52724" lon="4.19939">
        <ele>251.2</ele>
        <time>2019-08-20T09:36:43Z</time>
      </trkpt>
      <trkpt lat="46.52719" lon="4.19936">
        <ele>251</ele>
        <time>2019-08-20T09:36:44Z</time>
      </trkpt>
      <trkpt lat="46.52714" lon="4.19933">
        <ele>250.9</ele>
        <time>2019-08-20T09:36:45Z</time>
      </trkpt>
      <trkpt lat="46.5271" lon="4.1993">
        <ele>250.8</ele>
        <time>2019-08-20T09:36:46Z</time>
      </trkpt>
      <trkpt lat="46.52705" lon="4.19927">
        <ele>250.7</ele>
        <time>2019-08-20T09:36:47Z</time>
      </trkpt>
      <trkpt lat="46.52701" lon="4.19923">
        <ele>250.7</ele>
        <time>2019-08-20T09:36:48Z</time>
      </trkpt>
      <trkpt lat="46.52697" lon="4.1992">
        <ele>250.6</ele>
        <time>2019-08-20T09:36:49Z</time>
      </trkpt>
      <trkpt lat="46.52693" lon="4.19917">
        <ele>250.6</ele>
        <time>2019-08-20T09:36:50Z</time>
      </trkpt>
      <trkpt lat="46.52689" lon="4.19914">
        <ele>250.6</ele>
        <time>2019-08-20T09:36:51Z</time>
      </trkpt>
      <trkpt lat="46.52685" lon="4.19911">
        <ele>250.6</ele>
        <time>2019-08-20T09:36:52Z</time>
      </trkpt>
      <trkpt lat="46.5268" lon="4.19908">
        <ele>250.6</ele>
        <time>2019-08-20T09:36:53Z</time>
      </trkpt>
      <trkpt lat="46.52676" lon="4.19906">
        <ele>250.6</ele>
        <time>2019-08-20T09:36:54Z</time>
      </trkpt>
      <trkpt lat="46.52672" lon="4.19904">
        <ele>250.6</ele>
        <time>2019-08-20T09:36:55Z</time>
      </trkpt>
      <trkpt lat="46.52668" lon="4.19903">
        <ele>250.6</ele>
        <time>2019-08-20T09:36:56Z</time>
      </trkpt>
      <trkpt lat="46.52663" lon="4.19901">
        <ele>250.6</ele>
        <time>2019-08-20T09:36:57Z</time>
      </trkpt>
      <trkpt lat="46.52658" lon="4.19899">
        <ele>250.6</ele>
        <time>2019-08-20T09:36:58Z</time>
      </trkpt>
      <trkpt lat="46.52654" lon="4.19896">
        <ele>250.6</ele>
        <time>2019-08-20T09:36:59Z</time>
      </trkpt>
      <trkpt lat="46.52649" lon="4.19893">
        <ele>250.6</ele>
        <time>2019-08-20T09:37:00Z</time>
      </trkpt>
      <trkpt lat="46.52644" lon="4.1989">
        <ele>250.6</ele>
        <time>2019-08-20T09:37:01Z</time>
      </trkpt>
      <trkpt lat="46.52639" lon="4.19888">
        <ele>250.6</ele>
        <time>2019-08-20T09:37:02Z</time>
      </trkpt>
      <trkpt lat="46.52635" lon="4.19885">
        <ele>250.6</ele>
        <time>2019-08-20T09:37:03Z</time>
      </trkpt>
      <trkpt lat="46.5263" lon="4.19882">
        <ele>250.6</ele>
        <time>2019-08-20T09:37:04Z</time>
      </trkpt>
      <trkpt lat="46.52626" lon="4.19879">
        <ele>250.6</ele>
        <time>2019-08-20T09:37:05Z</time>
      </trkpt>
      <trkpt lat="46.52621" lon="4.19876">
        <ele>250.6</ele>
        <time>2019-08-20T09:37:06Z</time>
      </trkpt>
      <trkpt lat="46.52616" lon="4.19873">
        <ele>250.6</ele>
        <time>2019-08-20T09:37:07Z</time>
      </trkpt>
      <trkpt lat="46.52612" lon="4.19869">
        <ele>250.6</ele>
        <time>2019-08-20T09:37:08Z</time>
      </trkpt>
      <trkpt lat="46.52607" lon="4.19867">
        <ele>250.6</ele>
        <time>2019-08-20T09:37:09Z</time>
      </trkpt>
      <trkpt lat="46.52603" lon="4.19863">
        <ele>250.6</ele>
        <time>2019-08-20T09:37:10Z</time>
      </trkpt>
      <trkpt lat="46.52598" lon="4.1986">
        <ele>250.6</ele>
        <time>2019-08-20T09:37:11Z</time>
      </trkpt>
      <trkpt lat="46.52594" lon="4.19857">
        <ele>250.6</ele>
        <time>2019-08-20T09:37:12Z</time>
      </trkpt>
      <trkpt lat="46.52589" lon="4.19853">
        <ele>250.6</ele>
        <time>2019-08-20T09:37:13Z</time>
      </trkpt>
      <trkpt lat="46.52584" lon="4.1985">
        <ele>250.6</ele>
        <time>2019-08-20T09:37:14Z</time>
      </trkpt>
      <trkpt lat="46.52579" lon="4.19846">
        <ele>250.6</ele>
        <time>2019-08-20T09:37:15Z</time>
      </trkpt>
      <trkpt lat="46.52574" lon="4.19843">
        <ele>250.6</ele>
        <time>2019-08-20T09:37:16Z</time>
      </trkpt>
      <trkpt lat="46.52569" lon="4.19841">
        <ele>250.6</ele>
        <time>2019-08-20T09:37:17Z</time>
      </trkpt>
      <trkpt lat="46.52564" lon="4.19838">
        <ele>250.6</ele>
        <time>2019-08-20T09:37:18Z</time>
      </trkpt>
      <trkpt lat="46.52559" lon="4.19835">
        <ele>250.6</ele>
        <time>2019-08-20T09:37:19Z</time>
      </trkpt>
      <trkpt lat="46.52554" lon="4.19831">
        <ele>250.6</ele>
        <time>2019-08-20T09:37:20Z</time>
      </trkpt>
      <trkpt lat="46.52548" lon="4.19827">
        <ele>250.6</ele>
        <time>2019-08-20T09:37:21Z</time>
      </trkpt>
      <trkpt lat="46.52543" lon="4.19824">
        <ele>250.6</ele>
        <time>2019-08-20T09:37:22Z</time>
      </trkpt>
      <trkpt lat="46.52537" lon="4.19821">
        <ele>250.6</ele>
        <time>2019-08-20T09:37:23Z</time>
      </trkpt>
      <trkpt lat="46.52532" lon="4.19818">
        <ele>250.6</ele>
        <time>2019-08-20T09:37:24Z</time>
      </trkpt>
      <trkpt lat="46.52527" lon="4.19816">
        <ele>250.6</ele>
        <time>2019-08-20T09:37:25Z</time>
      </trkpt>
      <trkpt lat="46.52522" lon="4.19813">
        <ele>250.6</ele>
        <time>2019-08-20T09:37:26Z</time>
      </trkpt>
      <trkpt lat="46.52517" lon="4.1981">
        <ele>250.6</ele>
        <time>2019-08-20T09:37:27Z</time>
      </trkpt>
      <trkpt lat="46.52512" lon="4.19807">
        <ele>250.6</ele>
        <time>2019-08-20T09:37:28Z</time>
      </trkpt>
      <trkpt lat="46.52507" lon="4.19804">
        <ele>250.6</ele>
        <time>2019-08-20T09:37:29Z</time>
      </trkpt>
      <trkpt lat="46.52502" lon="4.19801">
        <ele>250.6</ele>
        <time>2019-08-20T09:37:30Z</time>
      </trkpt>
      <trkpt lat="46.52496" lon="4.19797">
        <ele>250.6</ele>
        <time>2019-08-20T09:37:31Z</time>
      </trkpt>
      <trkpt lat="46.52491" lon="4.19794">
        <ele>250.6</ele>
        <time>2019-08-20T09:37:32Z</time>
      </trkpt>
      <trkpt lat="46.52486" lon="4.19792">
        <ele>250.6</ele>
        <time>2019-08-20T09:37:33Z</time>
      </trkpt>
      <trkpt lat="46.52481" lon="4.19788">
        <ele>250.6</ele>
        <time>2019-08-20T09:37:34Z</time>
      </trkpt>
      <trkpt lat="46.52476" lon="4.19784">
        <ele>250.6</ele>
        <time>2019-08-20T09:37:35Z</time>
      </trkpt>
      <trkpt lat="46.52471" lon="4.19781">
        <ele>250.6</ele>
        <time>2019-08-20T09:37:36Z</time>
      </trkpt>
      <trkpt lat="46.52466" lon="4.19777">
        <ele>250.6</ele>
        <time>2019-08-20T09:37:37Z</time>
      </trkpt>
      <trkpt lat="46.5246" lon="4.19775">
        <ele>250.6</ele>
        <time>2019-08-20T09:37:38Z</time>
      </trkpt>
      <trkpt lat="46.52454" lon="4.19771">
        <ele>250.6</ele>
        <time>2019-08-20T09:37:39Z</time>
      </trkpt>
      <trkpt lat="46.52449" lon="4.19768">
        <ele>250.6</ele>
        <time>2019-08-20T09:37:40Z</time>
      </trkpt>
      <trkpt lat="46.52444" lon="4.19765">
        <ele>250.6</ele>
        <time>2019-08-20T09:37:41Z</time>
      </trkpt>
      <trkpt lat="46.5244" lon="4.19762">
        <ele>250.6</ele>
        <time>2019-08-20T09:37:42Z</time>
      </trkpt>
      <trkpt lat="46.52435" lon="4.19759">
        <ele>250.6</ele>
        <time>2019-08-20T09:37:43Z</time>
      </trkpt>
      <trkpt lat="46.5243" lon="4.19756">
        <ele>250.6</ele>
        <time>2019-08-20T09:37:44Z</time>
      </trkpt>
      <trkpt lat="46.52424" lon="4.19752">
        <ele>250.6</ele>
        <time>2019-08-20T09:37:45Z</time>
      </trkpt>
      <trkpt lat="46.52419" lon="4.19749">
        <ele>250.6</ele>
        <time>2019-08-20T09:37:46Z</time>
      </trkpt>
      <trkpt lat="46.52414" lon="4.19745">
        <ele>250.6</ele>
        <time>2019-08-20T09:37:47Z</time>
      </trkpt>
      <trkpt lat="46.52409" lon="4.19742">
        <ele>250.6</ele>
        <time>2019-08-20T09:37:48Z</time>
      </trkpt>
      <trkpt lat="46.52404" lon="4.19739">
        <ele>250.6</ele>
        <time>2019-08-20T09:37:49Z</time>
      </trkpt>
      <trkpt lat="46.52399" lon="4.19737">
        <ele>250.6</ele>
        <time>2019-08-20T09:37:50Z</time>
      </trkpt>
      <trkpt lat="46.52394" lon="4.19734">
        <ele>250.5</ele>
        <time>2019-08-20T09:37:51Z</time>
      </trkpt>
      <trkpt lat="46.52389" lon="4.1973">
        <ele>250.5</ele>
        <time>2019-08-20T09:37:52Z</time>
      </trkpt>
      <trkpt lat="46.52383" lon="4.19728">
        <ele>250.4</ele>
        <time>2019-08-20T09:37:53Z</time>
      </trkpt>
      <trkpt lat="46.52378" lon="4.19724">
        <ele>250.3</ele>
        <time>2019-08-20T09:37:54Z</time>
      </trkpt>
      <trkpt lat="46.52373" lon="4.19721">
        <ele>250.2</ele>
        <time>2019-08-20T09:37:55Z</time>
      </trkpt>
      <trkpt lat="46.52368" lon="4.19718">
        <ele>250</ele>
        <time>2019-08-20T09:37:56Z</time>
      </trkpt>
      <trkpt lat="46.52363" lon="4.19714">
        <ele>249.9</ele>
        <time>2019-08-20T09:37:57Z</time>
      </trkpt>
      <trkpt lat="46.52358" lon="4.19711">
        <ele>249.8</ele>
        <time>2019-08-20T09:37:58Z</time>
      </trkpt>
      <trkpt lat="46.52353" lon="4.19708">
        <ele>249.7</ele>
        <time>2019-08-20T09:37:59Z</time>
      </trkpt>
      <trkpt lat="46.52347" lon="4.19705">
        <ele>249.7</ele>
        <time>2019-08-20T09:38:00Z</time>
      </trkpt>
      <trkpt lat="46.52342" lon="4.19702">
        <ele>249.7</ele>
        <time>2019-08-20T09:38:01Z</time>
      </trkpt>
      <trkpt lat="46.52336" lon="4.19699">
        <ele>249.7</ele>
        <time>2019-08-20T09:38:02Z</time>
      </trkpt>
      <trkpt lat="46.52332" lon="4.19696">
        <ele>249.7</ele>
        <time>2019-08-20T09:38:03Z</time>
      </trkpt>
      <trkpt lat="46.52327" lon="4.19694">
        <ele>249.7</ele>
        <time>2019-08-20T09:38:04Z</time>
      </trkpt>
      <trkpt lat="46.52322" lon="4.19691">
        <ele>249.7</ele>
        <time>2019-08-20T09:38:05Z</time>
      </trkpt>
      <trkpt lat="46.52317" lon="4.19688">
        <ele>249.7</ele>
        <time>2019-08-20T09:38:06Z</time>
      </trkpt>
      <trkpt lat="46.52312" lon="4.19685">
        <ele>249.7</ele>
        <time>2019-08-20T09:38:07Z</time>
      </trkpt>
      <trkpt lat="46.52307" lon="4.19682">
        <ele>249.7</ele>
        <time>2019-08-20T09:38:08Z</time>
      </trkpt>
      <trkpt lat="46.52303" lon="4.19679">
        <ele>249.7</ele>
        <time>2019-08-20T09:38:09Z</time>
      </trkpt>
      <trkpt lat="46.52298" lon="4.19676">
        <ele>249.7</ele>
        <time>2019-08-20T09:38:10Z</time>
      </trkpt>
      <trkpt lat="46.52293" lon="4.19673">
        <ele>249.7</ele>
        <time>2019-08-20T09:38:11Z</time>
      </trkpt>
      <trkpt lat="46.52288" lon="4.19671">
        <ele>249.7</ele>
        <time>2019-08-20T09:38:12Z</time>
      </trkpt>
      <trkpt lat="46.52283" lon="4.19668">
        <ele>249.7</ele>
        <time>2019-08-20T09:38:13Z</time>
      </trkpt>
      <trkpt lat="46.52278" lon="4.19664">
        <ele>249.7</ele>
        <time>2019-08-20T09:38:14Z</time>
      </trkpt>
      <trkpt lat="46.52273" lon="4.19661">
        <ele>249.7</ele>
        <time>2019-08-20T09:38:15Z</time>
      </trkpt>
      <trkpt lat="46.52268" lon="4.19658">
        <ele>249.7</ele>
        <time>2019-08-20T09:38:16Z</time>
      </trkpt>
      <trkpt lat="46.52263" lon="4.19656">
        <ele>249.7</ele>
        <time>2019-08-20T09:38:17Z</time>
      </trkpt>
      <trkpt lat="46.52258" lon="4.19653">
        <ele>249.7</ele>
        <time>2019-08-20T09:38:18Z</time>
      </trkpt>
      <trkpt lat="46.52253" lon="4.1965">
        <ele>249.7</ele>
        <time>2019-08-20T09:38:19Z</time>
      </trkpt>
      <trkpt lat="46.52247" lon="4.19647">
        <ele>249.7</ele>
        <time>2019-08-20T09:38:20Z</time>
      </trkpt>
      <trkpt lat="46.52242" lon="4.19644">
        <ele>249.7</ele>
        <time>2019-08-20T09:38:21Z</time>
      </trkpt>
      <trkpt lat="46.52237" lon="4.1964">
        <ele>249.7</ele>
        <time>2019-08-20T09:38:22Z</time>
      </trkpt>
      <trkpt lat="46.52232" lon="4.19637">
        <ele>249.7</ele>
        <time>2019-08-20T09:38:23Z</time>
      </trkpt>
      <trkpt lat="46.52228" lon="4.19634">
        <ele>249.7</ele>
        <time>2019-08-20T09:38:24Z</time>
      </trkpt>
      <trkpt lat="46.52223" lon="4.19631">
        <ele>249.7</ele>
        <time>2019-08-20T09:38:25Z</time>
      </trkpt>
      <trkpt lat="46.52218" lon="4.19629">
        <ele>249.7</ele>
        <time>2019-08-20T09:38:26Z</time>
      </trkpt>
      <trkpt lat="46.52213" lon="4.19626">
        <ele>249.7</ele>
        <time>2019-08-20T09:38:27Z</time>
      </trkpt>
      <trkpt lat="46.52208" lon="4.19622">
        <ele>249.7</ele>
        <time>2019-08-20T09:38:28Z</time>
      </trkpt>
      <trkpt lat="46.52203" lon="4.19619">
        <ele>249.7</ele>
        <time>2019-08-20T09:38:29Z</time>
      </trkpt>
      <trkpt lat="46.52198" lon="4.19615">
        <ele>249.7</ele>
        <time>2019-08-20T09:38:30Z</time>
      </trkpt>
      <trkpt lat="46.52193" lon="4.19613">
        <ele>249.7</ele>
        <time>2019-08-20T09:38:31Z</time>
      </trkpt>
      <trkpt lat="46.52188" lon="4.19611">
        <ele>249.7</ele>
        <time>2019-08-20T09:38:32Z</time>
      </trkpt>
      <trkpt lat="46.52183" lon="4.19609">
        <ele>249.7</ele>
        <time>2019-08-20T09:38:33Z</time>
      </trkpt>
      <trkpt lat="46.52178" lon="4.19608">
        <ele>249.7</ele>
        <time>2019-08-20T09:38:34Z</time>
      </trkpt>
      <trkpt lat="46.52172" lon="4.19607">
        <ele>249.7</ele>
        <time>2019-08-20T09:38:35Z</time>
      </trkpt>
      <trkpt lat="46.52167" lon="4.19607">
        <ele>249.7</ele>
        <time>2019-08-20T09:38:36Z</time>
      </trkpt>
      <trkpt lat="46.52161" lon="4.19606">
        <ele>249.7</ele>
        <time>2019-08-20T09:38:37Z</time>
      </trkpt>
      <trkpt lat="46.52156" lon="4.19605">
        <ele>249.7</ele>
        <time>2019-08-20T09:38:38Z</time>
      </trkpt>
      <trkpt lat="46.5215" lon="4.19604">
        <ele>249.7</ele>
        <time>2019-08-20T09:38:39Z</time>
      </trkpt>
      <trkpt lat="46.52145" lon="4.19603">
        <ele>249.7</ele>
        <time>2019-08-20T09:38:40Z</time>
      </trkpt>
      <trkpt lat="46.52139" lon="4.19603">
        <ele>249.7</ele>
        <time>2019-08-20T09:38:41Z</time>
      </trkpt>
      <trkpt lat="46.52133" lon="4.19603">
        <ele>249.7</ele>
        <time>2019-08-20T09:38:42Z</time>
      </trkpt>
      <trkpt lat="46.52128" lon="4.19603">
        <ele>249.7</ele>
        <time>2019-08-20T09:38:43Z</time>
      </trkpt>
      <trkpt lat="46.52123" lon="4.19603">
        <ele>249.7</ele>
        <time>2019-08-20T09:38:44Z</time>
      </trkpt>
      <trkpt lat="46.52118" lon="4.19603">
        <ele>249.7</ele>
        <time>2019-08-20T09:38:45Z</time>
      </trkpt>
      <trkpt lat="46.52113" lon="4.19603">
        <ele>249.7</ele>
        <time>2019-08-20T09:38:46Z</time>
      </trkpt>
      <trkpt lat="46.52108" lon="4.19603">
        <ele>249.7</ele>
        <time>2019-08-20T09:38:47Z</time>
      </trkpt>
      <trkpt lat="46.52104" lon="4.19605">
        <ele>249.7</ele>
        <time>2019-08-20T09:38:48Z</time>
      </trkpt>
      <trkpt lat="46.52099" lon="4.19605">
        <ele>249.7</ele>
        <time>2019-08-20T09:38:49Z</time>
      </trkpt>
      <trkpt lat="46.52094" lon="4.19605">
        <ele>249.7</ele>
        <time>2019-08-20T09:38:50Z</time>
      </trkpt>
      <trkpt lat="46.52089" lon="4.19604">
        <ele>249.7</ele>
        <time>2019-08-20T09:38:51Z</time>
      </trkpt>
      <trkpt lat="46.52083" lon="4.19603">
        <ele>249.7</ele>
        <time>2019-08-20T09:38:52Z</time>
      </trkpt>
      <trkpt lat="46.52078" lon="4.19603">
        <ele>249.7</ele>
        <time>2019-08-20T09:38:53Z</time>
      </trkpt>
      <trkpt lat="46.52072" lon="4.19603">
        <ele>249.7</ele>
        <time>2019-08-20T09:38:54Z</time>
      </trkpt>
      <trkpt lat="46.52066" lon="4.19603">
        <ele>249.7</ele>
        <time>2019-08-20T09:38:55Z</time>
      </trkpt>
      <trkpt lat="46.5206" lon="4.19603">
        <ele>249.7</ele>
        <time>2019-08-20T09:38:56Z</time>
      </trkpt>
      <trkpt lat="46.52055" lon="4.19603">
        <ele>249.7</ele>
        <time>2019-08-20T09:38:57Z</time>
      </trkpt>
      <trkpt lat="46.52049" lon="4.19603">
        <ele>249.7</ele>
        <time>2019-08-20T09:38:58Z</time>
      </trkpt>
      <trkpt lat="46.52044" lon="4.19603">
        <ele>249.7</ele>
        <time>2019-08-20T09:38:59Z</time>
      </trkpt>
      <trkpt lat="46.52039" lon="4.19602">
        <ele>249.7</ele>
        <time>2019-08-20T09:39:00Z</time>
      </trkpt>
      <trkpt lat="46.52035" lon="4.19602">
        <ele>249.7</ele>
        <time>2019-08-20T09:39:01Z</time>
      </trkpt>
      <trkpt lat="46.5203" lon="4.19602">
        <ele>249.7</ele>
        <time>2019-08-20T09:39:02Z</time>
      </trkpt>
      <trkpt lat="46.52024" lon="4.19602">
        <ele>249.7</ele>
        <time>2019-08-20T09:39:03Z</time>
      </trkpt>
      <trkpt lat="46.5202" lon="4.19602">
        <ele>249.7</ele>
        <time>2019-08-20T09:39:04Z</time>
      </trkpt>
      <trkpt lat="46.52015" lon="4.19602">
        <ele>249.7</ele>
        <time>2019-08-20T09:39:05Z</time>
      </trkpt>
      <trkpt lat="46.5201" lon="4.19602">
        <ele>249.7</ele>
        <time>2019-08-20T09:39:06Z</time>
      </trkpt>
      <trkpt lat="46.52004" lon="4.19602">
        <ele>249.7</ele>
        <time>2019-08-20T09:39:07Z</time>
      </trkpt>
      <trkpt lat="46.51999" lon="4.19602">
        <ele>249.7</ele>
        <time>2019-08-20T09:39:08Z</time>
      </trkpt>
      <trkpt lat="46.51995" lon="4.19602">
        <ele>249.7</ele>
        <time>2019-08-20T09:39:09Z</time>
      </trkpt>
      <trkpt lat="46.51989" lon="4.19602">
        <ele>249.7</ele>
        <time>2019-08-20T09:39:10Z</time>
      </trkpt>
      <trkpt lat="46.51984" lon="4.19601">
        <ele>249.7</ele>
        <time>2019-08-20T09:39:11Z</time>
      </trkpt>
      <trkpt lat="46.51978" lon="4.196">
        <ele>249.7</ele>
        <time>2019-08-20T09:39:12Z</time>
      </trkpt>
      <trkpt lat="46.51973" lon="4.196">
        <ele>249.7</ele>
        <time>2019-08-20T09:39:13Z</time>
      </trkpt>
      <trkpt lat="46.51967" lon="4.196">
        <ele>249.7</ele>
        <time>2019-08-20T09:39:14Z</time>
      </trkpt>
      <trkpt lat="46.51961" lon="4.196">
        <ele>249.7</ele>
        <time>2019-08-20T09:39:15Z</time>
      </trkpt>
      <trkpt lat="46.51956" lon="4.196">
        <ele>249.7</ele>
        <time>2019-08-20T09:39:16Z</time>
      </trkpt>
      <trkpt lat="46.5195" lon="4.19599">
        <ele>249.7</ele>
        <time>2019-08-20T09:39:17Z</time>
      </trkpt>
      <trkpt lat="46.51945" lon="4.19598">
        <ele>249.7</ele>
        <time>2019-08-20T09:39:18Z</time>
      </trkpt>
      <trkpt lat="46.5194" lon="4.19597">
        <ele>249.7</ele>
        <time>2019-08-20T09:39:19Z</time>
      </trkpt>
      <trkpt lat="46.51935" lon="4.19596">
        <ele>249.7</ele>
        <time>2019-08-20T09:39:20Z</time>
      </trkpt>
      <trkpt lat="46.51931" lon="4.19596">
        <ele>249.7</ele>
        <time>2019-08-20T09:39:21Z</time>
      </trkpt>
      <trkpt lat="46.51926" lon="4.19595">
        <ele>249.7</ele>
        <time>2019-08-20T09:39:22Z</time>
      </trkpt>
      <trkpt lat="46.51921" lon="4.19595">
        <ele>249.7</ele>
        <time>2019-08-20T09:39:23Z</time>
      </trkpt>
      <trkpt lat="46.51916" lon="4.19595">
        <ele>249.7</ele>
        <time>2019-08-20T09:39:24Z</time>
      </trkpt>
      <trkpt lat="46.51911" lon="4.19595">
        <ele>249.7</ele>
        <time>2019-08-20T09:39:25Z</time>
      </trkpt>
      <trkpt lat="46.51906" lon="4.19594">
        <ele>249.7</ele>
        <time>2019-08-20T09:39:26Z</time>
      </trkpt>
      <trkpt lat="46.519" lon="4.19593">
        <ele>249.7</ele>
        <time>2019-08-20T09:39:27Z</time>
      </trkpt>
      <trkpt lat="46.51894" lon="4.19593">
        <ele>249.7</ele>
        <time>2019-08-20T09:39:28Z</time>
      </trkpt>
      <trkpt lat="46.51888" lon="4.19593">
        <ele>249.7</ele>
        <time>2019-08-20T09:39:29Z</time>
      </trkpt>
      <trkpt lat="46.51883" lon="4.19592">
        <ele>249.7</ele>
        <time>2019-08-20T09:39:30Z</time>
      </trkpt>
      <trkpt lat="46.51878" lon="4.19592">
        <ele>249.7</ele>
        <time>2019-08-20T09:39:31Z</time>
      </trkpt>
      <trkpt lat="46.51872" lon="4.19592">
        <ele>249.7</ele>
        <time>2019-08-20T09:39:32Z</time>
      </trkpt>
      <trkpt lat="46.51866" lon="4.19592">
        <ele>249.7</ele>
        <time>2019-08-20T09:39:33Z</time>
      </trkpt>
      <trkpt lat="46.5186" lon="4.19592">
        <ele>249.7</ele>
        <time>2019-08-20T09:39:34Z</time>
      </trkpt>
      <trkpt lat="46.51855" lon="4.19591">
        <ele>249.7</ele>
        <time>2019-08-20T09:39:35Z</time>
      </trkpt>
      <trkpt lat="46.5185" lon="4.1959">
        <ele>249.7</ele>
        <time>2019-08-20T09:39:36Z</time>
      </trkpt>
      <trkpt lat="46.51844" lon="4.19589">
        <ele>249.7</ele>
        <time>2019-08-20T09:39:37Z</time>
      </trkpt>
      <trkpt lat="46.51839" lon="4.19589">
        <ele>249.7</ele>
        <time>2019-08-20T09:39:38Z</time>
      </trkpt>
      <trkpt lat="46.51833" lon="4.19589">
        <ele>249.6</ele>
        <time>2019-08-20T09:39:39Z</time>
      </trkpt>
      <trkpt lat="46.51827" lon="4.19588">
        <ele>249.6</ele>
        <time>2019-08-20T09:39:40Z</time>
      </trkpt>
      <trkpt lat="46.51822" lon="4.19587">
        <ele>249.4</ele>
        <time>2019-08-20T09:39:41Z</time>
      </trkpt>
      <trkpt lat="46.51816" lon="4.19586">
        <ele>249.3</ele>
        <time>2019-08-20T09:39:42Z</time>
      </trkpt>
      <trkpt lat="46.51811" lon="4.19585">
        <ele>249.1</ele>
        <time>2019-08-20T09:39:43Z</time>
      </trkpt>
      <trkpt lat="46.51806" lon="4.19584">
        <ele>248.9</ele>
        <time>2019-08-20T09:39:44Z</time>
      </trkpt>
      <trkpt lat="46.518" lon="4.19584">
        <ele>248.8</ele>
        <time>2019-08-20T09:39:45Z</time>
      </trkpt>
      <trkpt lat="46.51795" lon="4.19584">
        <ele>248.7</ele>
        <time>2019-08-20T09:39:46Z</time>
      </trkpt>
      <trkpt lat="46.51789" lon="4.19584">
        <ele>248.6</ele>
        <time>2019-08-20T09:39:47Z</time>
      </trkpt>
      <trkpt lat="46.51783" lon="4.19584">
        <ele>248.6</ele>
        <time>2019-08-20T09:39:48Z</time>
      </trkpt>
      <trkpt lat="46.51778" lon="4.19583">
        <ele>248.6</ele>
        <time>2019-08-20T09:39:49Z</time>
      </trkpt>
      <trkpt lat="46.51772" lon="4.19583">
        <ele>248.6</ele>
        <time>2019-08-20T09:39:50Z</time>
      </trkpt>
      <trkpt lat="46.51767" lon="4.19582">
        <ele>248.6</ele>
        <time>2019-08-20T09:39:51Z</time>
      </trkpt>
      <trkpt lat="46.51762" lon="4.19581">
        <ele>248.6</ele>
        <time>2019-08-20T09:39:52Z</time>
      </trkpt>
      <trkpt lat="46.51756" lon="4.19581">
        <ele>248.6</ele>
        <time>2019-08-20T09:39:53Z</time>
      </trkpt>
      <trkpt lat="46.51751" lon="4.1958">
        <ele>248.6</ele>
        <time>2019-08-20T09:39:54Z</time>
      </trkpt>
      <trkpt lat="46.51747" lon="4.19579">
        <ele>248.6</ele>
        <time>2019-08-20T09:39:55Z</time>
      </trkpt>
      <trkpt lat="46.51742" lon="4.19579">
        <ele>248.6</ele>
        <time>2019-08-20T09:39:56Z</time>
      </trkpt>
      <trkpt lat="46.51737" lon="4.19578">
        <ele>248.6</ele>
        <time>2019-08-20T09:39:57Z</time>
      </trkpt>
      <trkpt lat="46.51731" lon="4.19578">
        <ele>248.6</ele>
        <time>2019-08-20T09:39:58Z</time>
      </trkpt>
      <trkpt lat="46.51726" lon="4.19578">
        <ele>248.6</ele>
        <time>2019-08-20T09:39:59Z</time>
      </trkpt>
      <trkpt lat="46.51721" lon="4.19576">
        <ele>248.6</ele>
        <time>2019-08-20T09:40:00Z</time>
      </trkpt>
      <trkpt lat="46.51715" lon="4.19575">
        <ele>248.6</ele>
        <time>2019-08-20T09:40:01Z</time>
      </trkpt>
      <trkpt lat="46.51709" lon="4.19574">
        <ele>248.6</ele>
        <time>2019-08-20T09:40:02Z</time>
      </trkpt>
      <trkpt lat="46.51703" lon="4.19573">
        <ele>248.6</ele>
        <time>2019-08-20T09:40:03Z</time>
      </trkpt>
      <trkpt lat="46.51698" lon="4.19572">
        <ele>248.6</ele>
        <time>2019-08-20T09:40:04Z</time>
      </trkpt>
      <trkpt lat="46.51692" lon="4.19571">
        <ele>248.6</ele>
        <time>2019-08-20T09:40:05Z</time>
      </trkpt>
      <trkpt lat="46.51686" lon="4.19569">
        <ele>248.6</ele>
        <time>2019-08-20T09:40:06Z</time>
      </trkpt>
      <trkpt lat="46.5168" lon="4.19567">
        <ele>248.6</ele>
        <time>2019-08-20T09:40:07Z</time>
      </trkpt>
      <trkpt lat="46.51675" lon="4.19565">
        <ele>248.6</ele>
        <time>2019-08-20T09:40:08Z</time>
      </trkpt>
      <trkpt lat="46.51669" lon="4.19563">
        <ele>248.6</ele>
        <time>2019-08-20T09:40:09Z</time>
      </trkpt>
      <trkpt lat="46.51663" lon="4.19561">
        <ele>248.7</ele>
        <time>2019-08-20T09:40:10Z</time>
      </trkpt>
      <trkpt lat="46.51659" lon="4.19559">
        <ele>248.8</ele>
        <time>2019-08-20T09:40:11Z</time>
      </trkpt>
      <trkpt lat="46.51653" lon="4.19558">
        <ele>249</ele>
        <time>2019-08-20T09:40:12Z</time>
      </trkpt>
      <trkpt lat="46.51648" lon="4.19557">
        <ele>249.2</ele>
        <time>2019-08-20T09:40:13Z</time>
      </trkpt>
      <trkpt lat="46.51644" lon="4.19555">
        <ele>249.4</ele>
        <time>2019-08-20T09:40:14Z</time>
      </trkpt>
      <trkpt lat="46.51639" lon="4.19554">
        <ele>249.6</ele>
        <time>2019-08-20T09:40:15Z</time>
      </trkpt>
      <trkpt lat="46.51635" lon="4.19553">
        <ele>249.9</ele>
        <time>2019-08-20T09:40:16Z</time>
      </trkpt>
      <trkpt lat="46.51631" lon="4.19552">
        <ele>250.1</ele>
        <time>2019-08-20T09:40:17Z</time>
      </trkpt>
      <trkpt lat="46.51626" lon="4.19551">
        <ele>250.3</ele>
        <time>2019-08-20T09:40:18Z</time>
      </trkpt>
      <trkpt lat="46.51621" lon="4.1955">
        <ele>250.6</ele>
        <time>2019-08-20T09:40:19Z</time>
      </trkpt>
      <trkpt lat="46.51617" lon="4.19548">
        <ele>250.6</ele>
        <time>2019-08-20T09:40:20Z</time>
      </trkpt>
      <trkpt lat="46.51612" lon="4.19547">
        <ele>250.6</ele>
        <time>2019-08-20T09:40:21Z</time>
      </trkpt>
      <trkpt lat="46.51609" lon="4.19546">
        <ele>250.6</ele>
        <time>2019-08-20T09:40:22Z</time>
      </trkpt>
      <trkpt lat="46.51605" lon="4.19544">
        <ele>250.6</ele>
        <time>2019-08-20T09:40:23Z</time>
      </trkpt>
      <trkpt lat="46.51601" lon="4.19543">
        <ele>250.6</ele>
        <time>2019-08-20T09:40:24Z</time>
      </trkpt>
      <trkpt lat="46.51596" lon="4.19541">
        <ele>250.6</ele>
        <time>2019-08-20T09:40:25Z</time>
      </trkpt>
      <trkpt lat="46.51591" lon="4.19539">
        <ele>250.6</ele>
        <time>2019-08-20T09:40:26Z</time>
      </trkpt>
      <trkpt lat="46.51586" lon="4.19537">
        <ele>250.6</ele>
        <time>2019-08-20T09:40:27Z</time>
      </trkpt>
      <trkpt lat="46.5158" lon="4.19535">
        <ele>250.6</ele>
        <time>2019-08-20T09:40:28Z</time>
      </trkpt>
      <trkpt lat="46.51574" lon="4.19533">
        <ele>250.6</ele>
        <time>2019-08-20T09:40:29Z</time>
      </trkpt>
      <trkpt lat="46.51568" lon="4.19531">
        <ele>250.6</ele>
        <time>2019-08-20T09:40:30Z</time>
      </trkpt>
      <trkpt lat="46.51561" lon="4.1953">
        <ele>250.6</ele>
        <time>2019-08-20T09:40:31Z</time>
      </trkpt>
      <trkpt lat="46.51555" lon="4.19528">
        <ele>250.6</ele>
        <time>2019-08-20T09:40:32Z</time>
      </trkpt>
      <trkpt lat="46.51549" lon="4.19526">
        <ele>250.6</ele>
        <time>2019-08-20T09:40:33Z</time>
      </trkpt>
      <trkpt lat="46.51543" lon="4.19524">
        <ele>250.6</ele>
        <time>2019-08-20T09:40:34Z</time>
      </trkpt>
      <trkpt lat="46.51537" lon="4.19523">
        <ele>250.5</ele>
        <time>2019-08-20T09:40:35Z</time>
      </trkpt>
      <trkpt lat="46.51531" lon="4.19521">
        <ele>250.5</ele>
        <time>2019-08-20T09:40:36Z</time>
      </trkpt>
      <trkpt lat="46.51526" lon="4.19519">
        <ele>250.5</ele>
        <time>2019-08-20T09:40:37Z</time>
      </trkpt>
      <trkpt lat="46.51521" lon="4.19518">
        <ele>250.5</ele>
        <time>2019-08-20T09:40:38Z</time>
      </trkpt>
      <trkpt lat="46.51516" lon="4.19516">
        <ele>250.5</ele>
        <time>2019-08-20T09:40:39Z</time>
      </trkpt>
      <trkpt lat="46.51511" lon="4.19514">
        <ele>250.5</ele>
        <time>2019-08-20T09:40:40Z</time>
      </trkpt>
      <trkpt lat="46.51505" lon="4.19513">
        <ele>250.5</ele>
        <time>2019-08-20T09:40:41Z</time>
      </trkpt>
      <trkpt lat="46.515" lon="4.19512">
        <ele>250.5</ele>
        <time>2019-08-20T09:40:42Z</time>
      </trkpt>
      <trkpt lat="46.51494" lon="4.19511">
        <ele>250.4</ele>
        <time>2019-08-20T09:40:43Z</time>
      </trkpt>
      <trkpt lat="46.51489" lon="4.19509">
        <ele>250.4</ele>
        <time>2019-08-20T09:40:44Z</time>
      </trkpt>
      <trkpt lat="46.51483" lon="4.19507">
        <ele>250.4</ele>
        <time>2019-08-20T09:40:45Z</time>
      </trkpt>
      <trkpt lat="46.51478" lon="4.19505">
        <ele>250.3</ele>
        <time>2019-08-20T09:40:46Z</time>
      </trkpt>
      <trkpt lat="46.51472" lon="4.19503">
        <ele>250.3</ele>
        <time>2019-08-20T09:40:47Z</time>
      </trkpt>
      <trkpt lat="46.51467" lon="4.19502">
        <ele>250.2</ele>
        <time>2019-08-20T09:40:48Z</time>
      </trkpt>
      <trkpt lat="46.51462" lon="4.19501">
        <ele>250.2</ele>
        <time>2019-08-20T09:40:49Z</time>
      </trkpt>
      <trkpt lat="46.51457" lon="4.19499">
        <ele>250.2</ele>
        <time>2019-08-20T09:40:50Z</time>
      </trkpt>
      <trkpt lat="46.51452" lon="4.19498">
        <ele>250.2</ele>
        <time>2019-08-20T09:40:51Z</time>
      </trkpt>
      <trkpt lat="46.51447" lon="4.19496">
        <ele>250.1</ele>
        <time>2019-08-20T09:40:52Z</time>
      </trkpt>
      <trkpt lat="46.51441" lon="4.19495">
        <ele>250.1</ele>
        <time>2019-08-20T09:40:53Z</time>
      </trkpt>
      <trkpt lat="46.51435" lon="4.19494">
        <ele>250.1</ele>
        <time>2019-08-20T09:40:54Z</time>
      </trkpt>
      <trkpt lat="46.5143" lon="4.19492">
        <ele>250.1</ele>
        <time>2019-08-20T09:40:55Z</time>
      </trkpt>
      <trkpt lat="46.51424" lon="4.19491">
        <ele>250.1</ele>
        <time>2019-08-20T09:40:56Z</time>
      </trkpt>
      <trkpt lat="46.51419" lon="4.1949">
        <ele>250.1</ele>
        <time>2019-08-20T09:40:57Z</time>
      </trkpt>
      <trkpt lat="46.51414" lon="4.19488">
        <ele>250.1</ele>
        <time>2019-08-20T09:40:58Z</time>
      </trkpt>
      <trkpt lat="46.51409" lon="4.19486">
        <ele>250.1</ele>
        <time>2019-08-20T09:40:59Z</time>
      </trkpt>
      <trkpt lat="46.51404" lon="4.19484">
        <ele>250.1</ele>
        <time>2019-08-20T09:41:00Z</time>
      </trkpt>
      <trkpt lat="46.51399" lon="4.19482">
        <ele>250.1</ele>
        <time>2019-08-20T09:41:01Z</time>
      </trkpt>
      <trkpt lat="46.51394" lon="4.1948">
        <ele>250.1</ele>
        <time>2019-08-20T09:41:02Z</time>
      </trkpt>
      <trkpt lat="46.51389" lon="4.19478">
        <ele>250.1</ele>
        <time>2019-08-20T09:41:03Z</time>
      </trkpt>
      <trkpt lat="46.51383" lon="4.19475">
        <ele>250.1</ele>
        <time>2019-08-20T09:41:04Z</time>
      </trkpt>
      <trkpt lat="46.51378" lon="4.19474">
        <ele>250.1</ele>
        <time>2019-08-20T09:41:05Z</time>
      </trkpt>
      <trkpt lat="46.51373" lon="4.19472">
        <ele>250.1</ele>
        <time>2019-08-20T09:41:06Z</time>
      </trkpt>
      <trkpt lat="46.51368" lon="4.19471">
        <ele>250.1</ele>
        <time>2019-08-20T09:41:07Z</time>
      </trkpt>
      <trkpt lat="46.51363" lon="4.1947">
        <ele>250.1</ele>
        <time>2019-08-20T09:41:08Z</time>
      </trkpt>
      <trkpt lat="46.51358" lon="4.19469">
        <ele>250.1</ele>
        <time>2019-08-20T09:41:09Z</time>
      </trkpt>
      <trkpt lat="46.51353" lon="4.19469">
        <ele>250.1</ele>
        <time>2019-08-20T09:41:10Z</time>
      </trkpt>
      <trkpt lat="46.51348" lon="4.19468">
        <ele>250.1</ele>
        <time>2019-08-20T09:41:11Z</time>
      </trkpt>
      <trkpt lat="46.51342" lon="4.19467">
        <ele>250.1</ele>
        <time>2019-08-20T09:41:12Z</time>
      </trkpt>
      <trkpt lat="46.51336" lon="4.19464">
        <ele>250.1</ele>
        <time>2019-08-20T09:41:13Z</time>
      </trkpt>
      <trkpt lat="46.5133" lon="4.19463">
        <ele>250.1</ele>
        <time>2019-08-20T09:41:14Z</time>
      </trkpt>
      <trkpt lat="46.51324" lon="4.19461">
        <ele>250.1</ele>
        <time>2019-08-20T09:41:15Z</time>
      </trkpt>
      <trkpt lat="46.51318" lon="4.19459">
        <ele>250.1</ele>
        <time>2019-08-20T09:41:16Z</time>
      </trkpt>
      <trkpt lat="46.51314" lon="4.19457">
        <ele>250.1</ele>
        <time>2019-08-20T09:41:17Z</time>
      </trkpt>
      <trkpt lat="46.51309" lon="4.19456">
        <ele>250.1</ele>
        <time>2019-08-20T09:41:18Z</time>
      </trkpt>
      <trkpt lat="46.51304" lon="4.19455">
        <ele>250.1</ele>
        <time>2019-08-20T09:41:19Z</time>
      </trkpt>
      <trkpt lat="46.513" lon="4.19453">
        <ele>250.1</ele>
        <time>2019-08-20T09:41:20Z</time>
      </trkpt>
      <trkpt lat="46.51295" lon="4.19452">
        <ele>250.1</ele>
        <time>2019-08-20T09:41:21Z</time>
      </trkpt>
      <trkpt lat="46.5129" lon="4.19451">
        <ele>250.1</ele>
        <time>2019-08-20T09:41:22Z</time>
      </trkpt>
      <trkpt lat="46.51285" lon="4.19449">
        <ele>250.1</ele>
        <time>2019-08-20T09:41:23Z</time>
      </trkpt>
      <trkpt lat="46.5128" lon="4.19448">
        <ele>250.1</ele>
        <time>2019-08-20T09:41:24Z</time>
      </trkpt>
      <trkpt lat="46.51274" lon="4.19446">
        <ele>250.1</ele>
        <time>2019-08-20T09:41:25Z</time>
      </trkpt>
      <trkpt lat="46.51268" lon="4.19445">
        <ele>250.1</ele>
        <time>2019-08-20T09:41:26Z</time>
      </trkpt>
      <trkpt lat="46.51263" lon="4.19443">
        <ele>250.1</ele>
        <time>2019-08-20T09:41:27Z</time>
      </trkpt>
      <trkpt lat="46.51258" lon="4.19442">
        <ele>250.1</ele>
        <time>2019-08-20T09:41:28Z</time>
      </trkpt>
      <trkpt lat="46.51253" lon="4.1944">
        <ele>250.1</ele>
        <time>2019-08-20T09:41:29Z</time>
      </trkpt>
      <trkpt lat="46.51248" lon="4.19439">
        <ele>250.1</ele>
        <time>2019-08-20T09:41:30Z</time>
      </trkpt>
      <trkpt lat="46.51242" lon="4.19437">
        <ele>250</ele>
        <time>2019-08-20T09:41:31Z</time>
      </trkpt>
      <trkpt lat="46.51237" lon="4.19435">
        <ele>250</ele>
        <time>2019-08-20T09:41:32Z</time>
      </trkpt>
      <trkpt lat="46.51232" lon="4.19434">
        <ele>250</ele>
        <time>2019-08-20T09:41:33Z</time>
      </trkpt>
      <trkpt lat="46.51227" lon="4.19433">
        <ele>250</ele>
        <time>2019-08-20T09:41:34Z</time>
      </trkpt>
      <trkpt lat="46.51222" lon="4.19431">
        <ele>250</ele>
        <time>2019-08-20T09:41:35Z</time>
      </trkpt>
      <trkpt lat="46.51217" lon="4.1943">
        <ele>250</ele>
        <time>2019-08-20T09:41:36Z</time>
      </trkpt>
      <trkpt lat="46.51213" lon="4.19428">
        <ele>250</ele>
        <time>2019-08-20T09:41:37Z</time>
      </trkpt>
      <trkpt lat="46.51208" lon="4.19427">
        <ele>250</ele>
        <time>2019-08-20T09:41:38Z</time>
      </trkpt>
      <trkpt lat="46.51203" lon="4.19425">
        <ele>250</ele>
        <time>2019-08-20T09:41:39Z</time>
      </trkpt>
      <trkpt lat="46.51198" lon="4.19423">
        <ele>250</ele>
        <time>2019-08-20T09:41:40Z</time>
      </trkpt>
      <trkpt lat="46.51194" lon="4.19421">
        <ele>250</ele>
        <time>2019-08-20T09:41:41Z</time>
      </trkpt>
      <trkpt lat="46.51189" lon="4.19419">
        <ele>250.1</ele>
        <time>2019-08-20T09:41:42Z</time>
      </trkpt>
      <trkpt lat="46.51185" lon="4.19417">
        <ele>250.1</ele>
        <time>2019-08-20T09:41:43Z</time>
      </trkpt>
      <trkpt lat="46.5118" lon="4.19416">
        <ele>250.1</ele>
        <time>2019-08-20T09:41:44Z</time>
      </trkpt>
      <trkpt lat="46.51174" lon="4.19415">
        <ele>250.1</ele>
        <time>2019-08-20T09:41:45Z</time>
      </trkpt>
      <trkpt lat="46.51169" lon="4.19413">
        <ele>250.2</ele>
        <time>2019-08-20T09:41:46Z</time>
      </trkpt>
      <trkpt lat="46.51165" lon="4.19411">
        <ele>250.2</ele>
        <time>2019-08-20T09:41:47Z</time>
      </trkpt>
      <trkpt lat="46.5116" lon="4.19409">
        <ele>250.2</ele>
        <time>2019-08-20T09:41:48Z</time>
      </trkpt>
      <trkpt lat="46.51155" lon="4.19407">
        <ele>250.2</ele>
        <time>2019-08-20T09:41:49Z</time>
      </trkpt>
      <trkpt lat="46.5115" lon="4.19406">
        <ele>250.2</ele>
        <time>2019-08-20T09:41:50Z</time>
      </trkpt>
      <trkpt lat="46.51146" lon="4.19404">
        <ele>250.2</ele>
        <time>2019-08-20T09:41:51Z</time>
      </trkpt>
      <trkpt lat="46.51141" lon="4.19403">
        <ele>250.2</ele>
        <time>2019-08-20T09:41:52Z</time>
      </trkpt>
      <trkpt lat="46.51137" lon="4.19403">
        <ele>250.2</ele>
        <time>2019-08-20T09:41:53Z</time>
      </trkpt>
      <trkpt lat="46.51132" lon="4.19402">
        <ele>250.2</ele>
        <time>2019-08-20T09:41:54Z</time>
      </trkpt>
      <trkpt lat="46.51129" lon="4.19401">
        <ele>250.1</ele>
        <time>2019-08-20T09:41:55Z</time>
      </trkpt>
      <trkpt lat="46.51125" lon="4.19399">
        <ele>250.1</ele>
        <time>2019-08-20T09:41:56Z</time>
      </trkpt>
      <trkpt lat="46.51121" lon="4.19398">
        <ele>250.1</ele>
        <time>2019-08-20T09:41:57Z</time>
      </trkpt>
      <trkpt lat="46.51118" lon="4.19397">
        <ele>250.1</ele>
        <time>2019-08-20T09:41:58Z</time>
      </trkpt>
      <trkpt lat="46.51115" lon="4.19395">
        <ele>250</ele>
        <time>2019-08-20T09:41:59Z</time>
      </trkpt>
      <trkpt lat="46.51111" lon="4.19395">
        <ele>250</ele>
        <time>2019-08-20T09:42:00Z</time>
      </trkpt>
      <trkpt lat="46.51107" lon="4.19395">
        <ele>250</ele>
        <time>2019-08-20T09:42:01Z</time>
      </trkpt>
      <trkpt lat="46.51102" lon="4.19394">
        <ele>250</ele>
        <time>2019-08-20T09:42:02Z</time>
      </trkpt>
      <trkpt lat="46.51097" lon="4.19392">
        <ele>249.9</ele>
        <time>2019-08-20T09:42:03Z</time>
      </trkpt>
      <trkpt lat="46.51093" lon="4.1939">
        <ele>249.9</ele>
        <time>2019-08-20T09:42:04Z</time>
      </trkpt>
      <trkpt lat="46.51089" lon="4.19389">
        <ele>249.8</ele>
        <time>2019-08-20T09:42:05Z</time>
      </trkpt>
      <trkpt lat="46.51084" lon="4.19387">
        <ele>249.8</ele>
        <time>2019-08-20T09:42:06Z</time>
      </trkpt>
      <trkpt lat="46.51079" lon="4.19386">
        <ele>249.7</ele>
        <time>2019-08-20T09:42:07Z</time>
      </trkpt>
      <trkpt lat="46.51074" lon="4.19384">
        <ele>249.7</ele>
        <time>2019-08-20T09:42:08Z</time>
      </trkpt>
      <trkpt lat="46.51068" lon="4.19383">
        <ele>249.6</ele>
        <time>2019-08-20T09:42:09Z</time>
      </trkpt>
      <trkpt lat="46.51063" lon="4.19381">
        <ele>249.6</ele>
        <time>2019-08-20T09:42:10Z</time>
      </trkpt>
      <trkpt lat="46.51058" lon="4.19378">
        <ele>249.5</ele>
        <time>2019-08-20T09:42:11Z</time>
      </trkpt>
      <trkpt lat="46.51052" lon="4.19378">
        <ele>249.5</ele>
        <time>2019-08-20T09:42:12Z</time>
      </trkpt>
      <trkpt lat="46.51047" lon="4.19376">
        <ele>249.4</ele>
        <time>2019-08-20T09:42:13Z</time>
      </trkpt>
      <trkpt lat="46.51042" lon="4.19375">
        <ele>249.4</ele>
        <time>2019-08-20T09:42:14Z</time>
      </trkpt>
      <trkpt lat="46.51037" lon="4.19373">
        <ele>249.4</ele>
        <time>2019-08-20T09:42:15Z</time>
      </trkpt>
      <trkpt lat="46.51031" lon="4.19372">
        <ele>249.3</ele>
        <time>2019-08-20T09:42:16Z</time>
      </trkpt>
      <trkpt lat="46.51025" lon="4.19371">
        <ele>249.3</ele>
        <time>2019-08-20T09:42:17Z</time>
      </trkpt>
      <trkpt lat="46.5102" lon="4.19368">
        <ele>249.3</ele>
        <time>2019-08-20T09:42:18Z</time>
      </trkpt>
      <trkpt lat="46.51015" lon="4.19366">
        <ele>249.3</ele>
        <time>2019-08-20T09:42:19Z</time>
      </trkpt>
      <trkpt lat="46.5101" lon="4.19365">
        <ele>249.2</ele>
        <time>2019-08-20T09:42:20Z</time>
      </trkpt>
      <trkpt lat="46.51004" lon="4.19363">
        <ele>249.2</ele>
        <time>2019-08-20T09:42:21Z</time>
      </trkpt>
      <trkpt lat="46.50999" lon="4.19361">
        <ele>249.2</ele>
        <time>2019-08-20T09:42:22Z</time>
      </trkpt>
      <trkpt lat="46.50993" lon="4.1936">
        <ele>249.2</ele>
        <time>2019-08-20T09:42:23Z</time>
      </trkpt>
      <trkpt lat="46.50988" lon="4.19358">
        <ele>249.1</ele>
        <time>2019-08-20T09:42:24Z</time>
      </trkpt>
      <trkpt lat="46.50983" lon="4.19357">
        <ele>249.1</ele>
        <time>2019-08-20T09:42:25Z</time>
      </trkpt>
      <trkpt lat="46.50979" lon="4.19355">
        <ele>249.1</ele>
        <time>2019-08-20T09:42:26Z</time>
      </trkpt>
      <trkpt lat="46.50974" lon="4.19352">
        <ele>249.1</ele>
        <time>2019-08-20T09:42:27Z</time>
      </trkpt>
      <trkpt lat="46.5097" lon="4.19349">
        <ele>249.1</ele>
        <time>2019-08-20T09:42:28Z</time>
      </trkpt>
      <trkpt lat="46.50966" lon="4.19345">
        <ele>249</ele>
        <time>2019-08-20T09:42:29Z</time>
      </trkpt>
      <trkpt lat="46.50962" lon="4.19341">
        <ele>249</ele>
        <time>2019-08-20T09:42:30Z</time>
      </trkpt>
      <trkpt lat="46.50958" lon="4.19335">
        <ele>249</ele>
        <time>2019-08-20T09:42:31Z</time>
      </trkpt>
      <trkpt lat="46.50954" lon="4.1933">
        <ele>249</ele>
        <time>2019-08-20T09:42:32Z</time>
      </trkpt>
      <trkpt lat="46.50949" lon="4.19324">
        <ele>249</ele>
        <time>2019-08-20T09:42:33Z</time>
      </trkpt>
      <trkpt lat="46.50946" lon="4.19319">
        <ele>249</ele>
        <time>2019-08-20T09:42:34Z</time>
      </trkpt>
      <trkpt lat="46.50942" lon="4.19313">
        <ele>249</ele>
        <time>2019-08-20T09:42:35Z</time>
      </trkpt>
      <trkpt lat="46.5094" lon="4.19308">
        <ele>249.1</ele>
        <time>2019-08-20T09:42:36Z</time>
      </trkpt>
      <trkpt lat="46.50937" lon="4.193">
        <ele>249.1</ele>
        <time>2019-08-20T09:42:37Z</time>
      </trkpt>
      <trkpt lat="46.50935" lon="4.19293">
        <ele>249.1</ele>
        <time>2019-08-20T09:42:38Z</time>
      </trkpt>
      <trkpt lat="46.50933" lon="4.19285">
        <ele>249.1</ele>
        <time>2019-08-20T09:42:39Z</time>
      </trkpt>
      <trkpt lat="46.50932" lon="4.19279">
        <ele>249.1</ele>
        <time>2019-08-20T09:42:40Z</time>
      </trkpt>
      <trkpt lat="46.50931" lon="4.19271">
        <ele>249.1</ele>
        <time>2019-08-20T09:42:41Z</time>
      </trkpt>
      <trkpt lat="46.5093" lon="4.19264">
        <ele>249.1</ele>
        <time>2019-08-20T09:42:42Z</time>
      </trkpt>
      <trkpt lat="46.50929" lon="4.19256">
        <ele>249.1</ele>
        <time>2019-08-20T09:42:43Z</time>
      </trkpt>
      <trkpt lat="46.50928" lon="4.19248">
        <ele>249.1</ele>
        <time>2019-08-20T09:42:44Z</time>
      </trkpt>
      <trkpt lat="46.50927" lon="4.1924">
        <ele>249.1</ele>
        <time>2019-08-20T09:42:45Z</time>
      </trkpt>
      <trkpt lat="46.50927" lon="4.19232">
        <ele>249.1</ele>
        <time>2019-08-20T09:42:46Z</time>
      </trkpt>
      <trkpt lat="46.50927" lon="4.19224">
        <ele>249.1</ele>
        <time>2019-08-20T09:42:47Z</time>
      </trkpt>
      <trkpt lat="46.50927" lon="4.19216">
        <ele>249.2</ele>
        <time>2019-08-20T09:42:48Z</time>
      </trkpt>
      <trkpt lat="46.50927" lon="4.19208">
        <ele>249.2</ele>
        <time>2019-08-20T09:42:49Z</time>
      </trkpt>
      <trkpt lat="46.50927" lon="4.192">
        <ele>249.2</ele>
        <time>2019-08-20T09:42:50Z</time>
      </trkpt>
      <trkpt lat="46.50927" lon="4.19193">
        <ele>249.2</ele>
        <time>2019-08-20T09:42:51Z</time>
      </trkpt>
      <trkpt lat="46.50928" lon="4.19186">
        <ele>249.2</ele>
        <time>2019-08-20T09:42:52Z</time>
      </trkpt>
      <trkpt lat="46.50928" lon="4.19179">
        <ele>249.3</ele>
        <time>2019-08-20T09:42:53Z</time>
      </trkpt>
      <trkpt lat="46.50928" lon="4.19171">
        <ele>249.3</ele>
        <time>2019-08-20T09:42:54Z</time>
      </trkpt>
      <trkpt lat="46.50929" lon="4.19163">
        <ele>249.3</ele>
        <time>2019-08-20T09:42:55Z</time>
      </trkpt>
      <trkpt lat="46.50929" lon="4.19156">
        <ele>249.2</ele>
        <time>2019-08-20T09:42:56Z</time>
      </trkpt>
      <trkpt lat="46.50929" lon="4.19149">
        <ele>249.2</ele>
        <time>2019-08-20T09:42:57Z</time>
      </trkpt>
      <trkpt lat="46.50929" lon="4.19142">
        <ele>249.2</ele>
        <time>2019-08-20T09:42:58Z</time>
      </trkpt>
      <trkpt lat="46.50929" lon="4.19135">
        <ele>249.2</ele>
        <time>2019-08-20T09:42:59Z</time>
      </trkpt>
      <trkpt lat="46.50929" lon="4.19128">
        <ele>249.2</ele>
        <time>2019-08-20T09:43:00Z</time>
      </trkpt>
      <trkpt lat="46.50929" lon="4.19121">
        <ele>249.1</ele>
        <time>2019-08-20T09:43:01Z</time>
      </trkpt>
      <trkpt lat="46.50928" lon="4.19114">
        <ele>249.1</ele>
        <time>2019-08-20T09:43:02Z</time>
      </trkpt>
      <trkpt lat="46.50927" lon="4.19106">
        <ele>249.1</ele>
        <time>2019-08-20T09:43:03Z</time>
      </trkpt>
      <trkpt lat="46.50926" lon="4.19099">
        <ele>249.1</ele>
        <time>2019-08-20T09:43:04Z</time>
      </trkpt>
      <trkpt lat="46.50924" lon="4.19092">
        <ele>249.1</ele>
        <time>2019-08-20T09:43:05Z</time>
      </trkpt>
      <trkpt lat="46.50922" lon="4.19085">
        <ele>249.1</ele>
        <time>2019-08-20T09:43:06Z</time>
      </trkpt>
      <trkpt lat="46.50919" lon="4.19078">
        <ele>249.1</ele>
        <time>2019-08-20T09:43:07Z</time>
      </trkpt>
      <trkpt lat="46.50917" lon="4.19072">
        <ele>249.1</ele>
        <time>2019-08-20T09:43:08Z</time>
      </trkpt>
      <trkpt lat="46.50915" lon="4.19064">
        <ele>249.1</ele>
        <time>2019-08-20T09:43:09Z</time>
      </trkpt>
      <trkpt lat="46.50912" lon="4.19057">
        <ele>249.1</ele>
        <time>2019-08-20T09:43:10Z</time>
      </trkpt>
      <trkpt lat="46.50908" lon="4.19051">
        <ele>249</ele>
        <time>2019-08-20T09:43:11Z</time>
      </trkpt>
      <trkpt lat="46.50905" lon="4.19045">
        <ele>249</ele>
        <time>2019-08-20T09:43:12Z</time>
      </trkpt>
      <trkpt lat="46.50902" lon="4.19039">
        <ele>249</ele>
        <time>2019-08-20T09:43:13Z</time>
      </trkpt>
      <trkpt lat="46.50898" lon="4.19033">
        <ele>249</ele>
        <time>2019-08-20T09:43:14Z</time>
      </trkpt>
      <trkpt lat="46.50894" lon="4.19027">
        <ele>249</ele>
        <time>2019-08-20T09:43:15Z</time>
      </trkpt>
      <trkpt lat="46.5089" lon="4.19021">
        <ele>248.9</ele>
        <time>2019-08-20T09:43:16Z</time>
      </trkpt>
      <trkpt lat="46.50886" lon="4.19016">
        <ele>248.9</ele>
        <time>2019-08-20T09:43:17Z</time>
      </trkpt>
      <trkpt lat="46.50882" lon="4.19011">
        <ele>248.9</ele>
        <time>2019-08-20T09:43:18Z</time>
      </trkpt>
      <trkpt lat="46.50878" lon="4.19005">
        <ele>248.9</ele>
        <time>2019-08-20T09:43:19Z</time>
      </trkpt>
      <trkpt lat="46.50874" lon="4.19">
        <ele>248.9</ele>
        <time>2019-08-20T09:43:20Z</time>
      </trkpt>
      <trkpt lat="46.5087" lon="4.18994">
        <ele>248.9</ele>
        <time>2019-08-20T09:43:21Z</time>
      </trkpt>
      <trkpt lat="46.50866" lon="4.18989">
        <ele>248.9</ele>
        <time>2019-08-20T09:43:22Z</time>
      </trkpt>
      <trkpt lat="46.50861" lon="4.18985">
        <ele>248.9</ele>
        <time>2019-08-20T09:43:23Z</time>
      </trkpt>
      <trkpt lat="46.50857" lon="4.1898">
        <ele>248.9</ele>
        <time>2019-08-20T09:43:24Z</time>
      </trkpt>
      <trkpt lat="46.50854" lon="4.18974">
        <ele>248.9</ele>
        <time>2019-08-20T09:43:25Z</time>
      </trkpt>
      <trkpt lat="46.5085" lon="4.18969">
        <ele>249</ele>
        <time>2019-08-20T09:43:26Z</time>
      </trkpt>
      <trkpt lat="46.50848" lon="4.18963">
        <ele>249</ele>
        <time>2019-08-20T09:43:27Z</time>
      </trkpt>
      <trkpt lat="46.50845" lon="4.18957">
        <ele>249</ele>
        <time>2019-08-20T09:43:28Z</time>
      </trkpt>
      <trkpt lat="46.50842" lon="4.1895">
        <ele>249.1</ele>
        <time>2019-08-20T09:43:29Z</time>
      </trkpt>
      <trkpt lat="46.50839" lon="4.18943">
        <ele>249.1</ele>
        <time>2019-08-20T09:43:30Z</time>
      </trkpt>
      <trkpt lat="46.50837" lon="4.18936">
        <ele>249.1</ele>
        <time>2019-08-20T09:43:31Z</time>
      </trkpt>
      <trkpt lat="46.50834" lon="4.18929">
        <ele>249.2</ele>
        <time>2019-08-20T09:43:32Z</time>
      </trkpt>
      <trkpt lat="46.50831" lon="4.18922">
        <ele>249.2</ele>
        <time>2019-08-20T09:43:33Z</time>
      </trkpt>
      <trkpt lat="46.50829" lon="4.18915">
        <ele>249.2</ele>
        <time>2019-08-20T09:43:34Z</time>
      </trkpt>
      <trkpt lat="46.50826" lon="4.18908">
        <ele>249.2</ele>
        <time>2019-08-20T09:43:35Z</time>
      </trkpt>
      <trkpt lat="46.50823" lon="4.18902">
        <ele>249.2</ele>
        <time>2019-08-20T09:43:36Z</time>
      </trkpt>
      <trkpt lat="46.5082" lon="4.18896">
        <ele>249.2</ele>
        <time>2019-08-20T09:43:37Z</time>
      </trkpt>
      <trkpt lat="46.50817" lon="4.18889">
        <ele>249.2</ele>
        <time>2019-08-20T09:43:38Z</time>
      </trkpt>
      <trkpt lat="46.50815" lon="4.18883">
        <ele>249.2</ele>
        <time>2019-08-20T09:43:39Z</time>
      </trkpt>
      <trkpt lat="46.50812" lon="4.18877">
        <ele>249.2</ele>
        <time>2019-08-20T09:43:40Z</time>
      </trkpt>
      <trkpt lat="46.50809" lon="4.18871">
        <ele>249.2</ele>
        <time>2019-08-20T09:43:41Z</time>
      </trkpt>
      <trkpt lat="46.50806" lon="4.18864">
        <ele>249.2</ele>
        <time>2019-08-20T09:43:42Z</time>
      </trkpt>
      <trkpt lat="46.50802" lon="4.18858">
        <ele>249.2</ele>
        <time>2019-08-20T09:43:43Z</time>
      </trkpt>
      <trkpt lat="46.50799" lon="4.18851">
        <ele>249.2</ele>
        <time>2019-08-20T09:43:44Z</time>
      </trkpt>
      <trkpt lat="46.50796" lon="4.18845">
        <ele>249.2</ele>
        <time>2019-08-20T09:43:45Z</time>
      </trkpt>
      <trkpt lat="46.50792" lon="4.1884">
        <ele>249.2</ele>
        <time>2019-08-20T09:43:46Z</time>
      </trkpt>
      <trkpt lat="46.50789" lon="4.18835">
        <ele>249.2</ele>
        <time>2019-08-20T09:43:47Z</time>
      </trkpt>
      <trkpt lat="46.50786" lon="4.1883">
        <ele>249.2</ele>
        <time>2019-08-20T09:43:48Z</time>
      </trkpt>
      <trkpt lat="46.50782" lon="4.18824">
        <ele>249.2</ele>
        <time>2019-08-20T09:43:49Z</time>
      </trkpt>
      <trkpt lat="46.50778" lon="4.1882">
        <ele>249.2</ele>
        <time>2019-08-20T09:43:50Z</time>
      </trkpt>
      <trkpt lat="46.50774" lon="4.18815">
        <ele>249.2</ele>
        <time>2019-08-20T09:43:51Z</time>
      </trkpt>
      <trkpt lat="46.5077" lon="4.18809">
        <ele>249.2</ele>
        <time>2019-08-20T09:43:52Z</time>
      </trkpt>
      <trkpt lat="46.50765" lon="4.18805">
        <ele>249.2</ele>
        <time>2019-08-20T09:43:53Z</time>
      </trkpt>
      <trkpt lat="46.50761" lon="4.188">
        <ele>249.2</ele>
        <time>2019-08-20T09:43:54Z</time>
      </trkpt>
      <trkpt lat="46.50757" lon="4.18795">
        <ele>249.3</ele>
        <time>2019-08-20T09:43:55Z</time>
      </trkpt>
      <trkpt lat="46.50753" lon="4.18791">
        <ele>249.3</ele>
        <time>2019-08-20T09:43:56Z</time>
      </trkpt>
      <trkpt lat="46.50749" lon="4.18786">
        <ele>249.4</ele>
        <time>2019-08-20T09:43:57Z</time>
      </trkpt>
      <trkpt lat="46.50745" lon="4.18781">
        <ele>249.5</ele>
        <time>2019-08-20T09:43:58Z</time>
      </trkpt>
      <trkpt lat="46.50742" lon="4.18776">
        <ele>249.6</ele>
        <time>2019-08-20T09:43:59Z</time>
      </trkpt>
      <trkpt lat="46.50738" lon="4.18771">
        <ele>249.7</ele>
        <time>2019-08-20T09:44:00Z</time>
      </trkpt>
      <trkpt lat="46.50733" lon="4.18766">
        <ele>249.9</ele>
        <time>2019-08-20T09:44:01Z</time>
      </trkpt>
      <trkpt lat="46.50729" lon="4.18762">
        <ele>250.1</ele>
        <time>2019-08-20T09:44:02Z</time>
      </trkpt>
      <trkpt lat="46.50725" lon="4.18757">
        <ele>250.3</ele>
        <time>2019-08-20T09:44:03Z</time>
      </trkpt>
      <trkpt lat="46.50721" lon="4.18751">
        <ele>250.5</ele>
        <time>2019-08-20T09:44:04Z</time>
      </trkpt>
      <trkpt lat="46.50718" lon="4.18746">
        <ele>250.8</ele>
        <time>2019-08-20T09:44:05Z</time>
      </trkpt>
      <trkpt lat="46.50714" lon="4.18741">
        <ele>251</ele>
        <time>2019-08-20T09:44:06Z</time>
      </trkpt>
      <trkpt lat="46.5071" lon="4.18735">
        <ele>251.3</ele>
        <time>2019-08-20T09:44:07Z</time>
      </trkpt>
      <trkpt lat="46.50706" lon="4.18729">
        <ele>251.5</ele>
        <time>2019-08-20T09:44:08Z</time>
      </trkpt>
      <trkpt lat="46.50701" lon="4.18724">
        <ele>251.7</ele>
        <time>2019-08-20T09:44:09Z</time>
      </trkpt>
      <trkpt lat="46.50696" lon="4.18718">
        <ele>251.9</ele>
        <time>2019-08-20T09:44:10Z</time>
      </trkpt>
      <trkpt lat="46.50691" lon="4.18713">
        <ele>252</ele>
        <time>2019-08-20T09:44:11Z</time>
      </trkpt>
      <trkpt lat="46.50686" lon="4.18707">
        <ele>252.1</ele>
        <time>2019-08-20T09:44:12Z</time>
      </trkpt>
      <trkpt lat="46.50681" lon="4.18701">
        <ele>252.1</ele>
        <time>2019-08-20T09:44:13Z</time>
      </trkpt>
      <trkpt lat="46.50677" lon="4.18695">
        <ele>252.1</ele>
        <time>2019-08-20T09:44:14Z</time>
      </trkpt>
      <trkpt lat="46.50673" lon="4.1869">
        <ele>252.1</ele>
        <time>2019-08-20T09:44:15Z</time>
      </trkpt>
      <trkpt lat="46.50668" lon="4.18685">
        <ele>252.1</ele>
        <time>2019-08-20T09:44:16Z</time>
      </trkpt>
      <trkpt lat="46.50665" lon="4.1868">
        <ele>252.1</ele>
        <time>2019-08-20T09:44:17Z</time>
      </trkpt>
      <trkpt lat="46.50661" lon="4.18676">
        <ele>252.1</ele>
        <time>2019-08-20T09:44:18Z</time>
      </trkpt>
      <trkpt lat="46.50658" lon="4.18672">
        <ele>252.1</ele>
        <time>2019-08-20T09:44:19Z</time>
      </trkpt>
      <trkpt lat="46.50656" lon="4.18669">
        <ele>252.1</ele>
        <time>2019-08-20T09:44:20Z</time>
      </trkpt>
      <trkpt lat="46.50652" lon="4.18665">
        <ele>252.1</ele>
        <time>2019-08-20T09:44:22Z</time>
      </trkpt>
      <trkpt lat="46.5065" lon="4.18662">
        <ele>252.1</ele>
        <time>2019-08-20T09:44:24Z</time>
      </trkpt>
      <trkpt lat="46.50648" lon="4.18661">
        <ele>252.1</ele>
        <time>2019-08-20T09:44:34Z</time>
      </trkpt>
      <trkpt lat="46.50643" lon="4.18655">
        <ele>252.2</ele>
        <time>2019-08-20T09:44:36Z</time>
      </trkpt>
      <trkpt lat="46.50641" lon="4.18651">
        <ele>252.2</ele>
        <time>2019-08-20T09:44:37Z</time>
      </trkpt>
      <trkpt lat="46.50639" lon="4.18649">
        <ele>252.2</ele>
        <time>2019-08-20T09:44:38Z</time>
      </trkpt>
      <trkpt lat="46.50635" lon="4.18646">
        <ele>252.2</ele>
        <time>2019-08-20T09:44:39Z</time>
      </trkpt>
      <trkpt lat="46.50632" lon="4.18642">
        <ele>252.2</ele>
        <time>2019-08-20T09:44:40Z</time>
      </trkpt>
      <trkpt lat="46.50628" lon="4.18638">
        <ele>252.2</ele>
        <time>2019-08-20T09:44:41Z</time>
      </trkpt>
      <trkpt lat="46.50624" lon="4.18634">
        <ele>252</ele>
        <time>2019-08-20T09:44:42Z</time>
      </trkpt>
      <trkpt lat="46.5062" lon="4.1863">
        <ele>251.8</ele>
        <time>2019-08-20T09:44:43Z</time>
      </trkpt>
      <trkpt lat="46.50615" lon="4.18626">
        <ele>251.7</ele>
        <time>2019-08-20T09:44:44Z</time>
      </trkpt>
      <trkpt lat="46.50611" lon="4.18623">
        <ele>251.5</ele>
        <time>2019-08-20T09:44:45Z</time>
      </trkpt>
      <trkpt lat="46.50606" lon="4.18619">
        <ele>251.3</ele>
        <time>2019-08-20T09:44:46Z</time>
      </trkpt>
      <trkpt lat="46.50601" lon="4.18616">
        <ele>251.1</ele>
        <time>2019-08-20T09:44:47Z</time>
      </trkpt>
      <trkpt lat="46.50596" lon="4.18613">
        <ele>251</ele>
        <time>2019-08-20T09:44:48Z</time>
      </trkpt>
      <trkpt lat="46.5059" lon="4.18611">
        <ele>250.8</ele>
        <time>2019-08-20T09:44:49Z</time>
      </trkpt>
      <trkpt lat="46.50585" lon="4.18609">
        <ele>250.7</ele>
        <time>2019-08-20T09:44:50Z</time>
      </trkpt>
      <trkpt lat="46.5058" lon="4.18608">
        <ele>250.6</ele>
        <time>2019-08-20T09:44:51Z</time>
      </trkpt>
      <trkpt lat="46.50575" lon="4.18608">
        <ele>250.5</ele>
        <time>2019-08-20T09:44:52Z</time>
      </trkpt>
      <trkpt lat="46.50571" lon="4.18608">
        <ele>250.4</ele>
        <time>2019-08-20T09:44:53Z</time>
      </trkpt>
      <trkpt lat="46.50566" lon="4.18607">
        <ele>250.4</ele>
        <time>2019-08-20T09:44:54Z</time>
      </trkpt>
      <trkpt lat="46.50562" lon="4.18607">
        <ele>250.3</ele>
        <time>2019-08-20T09:44:55Z</time>
      </trkpt>
      <trkpt lat="46.50558" lon="4.18606">
        <ele>250.3</ele>
        <time>2019-08-20T09:44:56Z</time>
      </trkpt>
      <trkpt lat="46.50554" lon="4.18606">
        <ele>250.2</ele>
        <time>2019-08-20T09:44:57Z</time>
      </trkpt>
      <trkpt lat="46.5055" lon="4.18605">
        <ele>250.2</ele>
        <time>2019-08-20T09:44:58Z</time>
      </trkpt>
      <trkpt lat="46.50545" lon="4.18604">
        <ele>250.2</ele>
        <time>2019-08-20T09:44:59Z</time>
      </trkpt>
      <trkpt lat="46.5054" lon="4.18604">
        <ele>250.2</ele>
        <time>2019-08-20T09:45:00Z</time>
      </trkpt>
      <trkpt lat="46.50534" lon="4.18603">
        <ele>250.2</ele>
        <time>2019-08-20T09:45:01Z</time>
      </trkpt>
      <trkpt lat="46.50528" lon="4.18603">
        <ele>250.2</ele>
        <time>2019-08-20T09:45:02Z</time>
      </trkpt>
      <trkpt lat="46.50522" lon="4.18603">
        <ele>250.2</ele>
        <time>2019-08-20T09:45:03Z</time>
      </trkpt>
      <trkpt lat="46.50517" lon="4.18602">
        <ele>250.2</ele>
        <time>2019-08-20T09:45:04Z</time>
      </trkpt>
      <trkpt lat="46.50512" lon="4.18601">
        <ele>250.2</ele>
        <time>2019-08-20T09:45:05Z</time>
      </trkpt>
      <trkpt lat="46.50507" lon="4.18599">
        <ele>250.2</ele>
        <time>2019-08-20T09:45:06Z</time>
      </trkpt>
      <trkpt lat="46.50502" lon="4.18596">
        <ele>250.2</ele>
        <time>2019-08-20T09:45:07Z</time>
      </trkpt>
      <trkpt lat="46.50498" lon="4.18594">
        <ele>250.2</ele>
        <time>2019-08-20T09:45:08Z</time>
      </trkpt>
      <trkpt lat="46.50492" lon="4.18593">
        <ele>250.2</ele>
        <time>2019-08-20T09:45:09Z</time>
      </trkpt>
      <trkpt lat="46.50487" lon="4.18591">
        <ele>250.3</ele>
        <time>2019-08-20T09:45:10Z</time>
      </trkpt>
      <trkpt lat="46.50482" lon="4.18589">
        <ele>250.3</ele>
        <time>2019-08-20T09:45:11Z</time>
      </trkpt>
      <trkpt lat="46.50476" lon="4.18587">
        <ele>250.3</ele>
        <time>2019-08-20T09:45:12Z</time>
      </trkpt>
      <trkpt lat="46.50471" lon="4.18584">
        <ele>250.3</ele>
        <time>2019-08-20T09:45:13Z</time>
      </trkpt>
      <trkpt lat="46.50466" lon="4.18581">
        <ele>250.3</ele>
        <time>2019-08-20T09:45:14Z</time>
      </trkpt>
      <trkpt lat="46.5046" lon="4.18578">
        <ele>250.3</ele>
        <time>2019-08-20T09:45:15Z</time>
      </trkpt>
      <trkpt lat="46.50455" lon="4.18574">
        <ele>250.2</ele>
        <time>2019-08-20T09:45:16Z</time>
      </trkpt>
      <trkpt lat="46.5045" lon="4.18571">
        <ele>250.2</ele>
        <time>2019-08-20T09:45:17Z</time>
      </trkpt>
      <trkpt lat="46.50445" lon="4.18567">
        <ele>250.2</ele>
        <time>2019-08-20T09:45:18Z</time>
      </trkpt>
      <trkpt lat="46.5044" lon="4.18564">
        <ele>250.2</ele>
        <time>2019-08-20T09:45:19Z</time>
      </trkpt>
      <trkpt lat="46.50434" lon="4.18561">
        <ele>250.1</ele>
        <time>2019-08-20T09:45:20Z</time>
      </trkpt>
      <trkpt lat="46.50429" lon="4.18558">
        <ele>250.1</ele>
        <time>2019-08-20T09:45:21Z</time>
      </trkpt>
      <trkpt lat="46.50423" lon="4.18555">
        <ele>250</ele>
        <time>2019-08-20T09:45:22Z</time>
      </trkpt>
      <trkpt lat="46.50418" lon="4.18551">
        <ele>250</ele>
        <time>2019-08-20T09:45:23Z</time>
      </trkpt>
      <trkpt lat="46.50413" lon="4.18547">
        <ele>249.9</ele>
        <time>2019-08-20T09:45:24Z</time>
      </trkpt>
      <trkpt lat="46.50408" lon="4.18543">
        <ele>249.9</ele>
        <time>2019-08-20T09:45:25Z</time>
      </trkpt>
      <trkpt lat="46.50403" lon="4.18539">
        <ele>249.8</ele>
        <time>2019-08-20T09:45:26Z</time>
      </trkpt>
      <trkpt lat="46.50399" lon="4.18537">
        <ele>249.8</ele>
        <time>2019-08-20T09:45:27Z</time>
      </trkpt>
      <trkpt lat="46.50395" lon="4.18533">
        <ele>249.8</ele>
        <time>2019-08-20T09:45:28Z</time>
      </trkpt>
      <trkpt lat="46.50392" lon="4.1853">
        <ele>249.8</ele>
        <time>2019-08-20T09:45:29Z</time>
      </trkpt>
      <trkpt lat="46.50388" lon="4.18528">
        <ele>249.7</ele>
        <time>2019-08-20T09:45:30Z</time>
      </trkpt>
      <trkpt lat="46.50385" lon="4.18525">
        <ele>249.7</ele>
        <time>2019-08-20T09:45:31Z</time>
      </trkpt>
      <trkpt lat="46.50381" lon="4.18523">
        <ele>249.7</ele>
        <time>2019-08-20T09:45:32Z</time>
      </trkpt>
      <trkpt lat="46.50377" lon="4.18521">
        <ele>249.7</ele>
        <time>2019-08-20T09:45:33Z</time>
      </trkpt>
      <trkpt lat="46.50373" lon="4.18518">
        <ele>249.7</ele>
        <time>2019-08-20T09:45:34Z</time>
      </trkpt>
      <trkpt lat="46.50369" lon="4.18515">
        <ele>249.7</ele>
        <time>2019-08-20T09:45:35Z</time>
      </trkpt>
      <trkpt lat="46.50364" lon="4.18513">
        <ele>249.6</ele>
        <time>2019-08-20T09:45:36Z</time>
      </trkpt>
      <trkpt lat="46.5036" lon="4.18511">
        <ele>249.6</ele>
        <time>2019-08-20T09:45:37Z</time>
      </trkpt>
      <trkpt lat="46.50355" lon="4.18508">
        <ele>249.6</ele>
        <time>2019-08-20T09:45:38Z</time>
      </trkpt>
      <trkpt lat="46.5035" lon="4.18506">
        <ele>249.6</ele>
        <time>2019-08-20T09:45:39Z</time>
      </trkpt>
      <trkpt lat="46.50345" lon="4.18504">
        <ele>249.6</ele>
        <time>2019-08-20T09:45:40Z</time>
      </trkpt>
      <trkpt lat="46.50339" lon="4.18503">
        <ele>249.6</ele>
        <time>2019-08-20T09:45:41Z</time>
      </trkpt>
      <trkpt lat="46.50333" lon="4.18501">
        <ele>249.5</ele>
        <time>2019-08-20T09:45:42Z</time>
      </trkpt>
      <trkpt lat="46.50328" lon="4.185">
        <ele>249.5</ele>
        <time>2019-08-20T09:45:43Z</time>
      </trkpt>
      <trkpt lat="46.50322" lon="4.18499">
        <ele>249.5</ele>
        <time>2019-08-20T09:45:44Z</time>
      </trkpt>
      <trkpt lat="46.50316" lon="4.18497">
        <ele>249.4</ele>
        <time>2019-08-20T09:45:45Z</time>
      </trkpt>
      <trkpt lat="46.50311" lon="4.18496">
        <ele>249.3</ele>
        <time>2019-08-20T09:45:46Z</time>
      </trkpt>
      <trkpt lat="46.50305" lon="4.18494">
        <ele>249.2</ele>
        <time>2019-08-20T09:45:47Z</time>
      </trkpt>
      <trkpt lat="46.50299" lon="4.18491">
        <ele>249.1</ele>
        <time>2019-08-20T09:45:48Z</time>
      </trkpt>
      <trkpt lat="46.50292" lon="4.1849">
        <ele>248.9</ele>
        <time>2019-08-20T09:45:49Z</time>
      </trkpt>
      <trkpt lat="46.50286" lon="4.18489">
        <ele>248.8</ele>
        <time>2019-08-20T09:45:50Z</time>
      </trkpt>
      <trkpt lat="46.50279" lon="4.18488">
        <ele>248.7</ele>
        <time>2019-08-20T09:45:51Z</time>
      </trkpt>
      <trkpt lat="46.50273" lon="4.18487">
        <ele>248.6</ele>
        <time>2019-08-20T09:45:52Z</time>
      </trkpt>
      <trkpt lat="46.50268" lon="4.18484">
        <ele>248.5</ele>
        <time>2019-08-20T09:45:53Z</time>
      </trkpt>
      <trkpt lat="46.50262" lon="4.18483">
        <ele>248.4</ele>
        <time>2019-08-20T09:45:54Z</time>
      </trkpt>
      <trkpt lat="46.50256" lon="4.18482">
        <ele>248.3</ele>
        <time>2019-08-20T09:45:55Z</time>
      </trkpt>
      <trkpt lat="46.50249" lon="4.18482">
        <ele>248.2</ele>
        <time>2019-08-20T09:45:56Z</time>
      </trkpt>
      <trkpt lat="46.50243" lon="4.18481">
        <ele>248.1</ele>
        <time>2019-08-20T09:45:57Z</time>
      </trkpt>
      <trkpt lat="46.50237" lon="4.18479">
        <ele>248</ele>
        <time>2019-08-20T09:45:58Z</time>
      </trkpt>
      <trkpt lat="46.50231" lon="4.18478">
        <ele>247.9</ele>
        <time>2019-08-20T09:45:59Z</time>
      </trkpt>
      <trkpt lat="46.50226" lon="4.18477">
        <ele>247.9</ele>
        <time>2019-08-20T09:46:00Z</time>
      </trkpt>
      <trkpt lat="46.50222" lon="4.18476">
        <ele>247.8</ele>
        <time>2019-08-20T09:46:01Z</time>
      </trkpt>
      <trkpt lat="46.50217" lon="4.18475">
        <ele>247.8</ele>
        <time>2019-08-20T09:46:02Z</time>
      </trkpt>
      <trkpt lat="46.50211" lon="4.18474">
        <ele>247.7</ele>
        <time>2019-08-20T09:46:03Z</time>
      </trkpt>
      <trkpt lat="46.50206" lon="4.18473">
        <ele>247.7</ele>
        <time>2019-08-20T09:46:04Z</time>
      </trkpt>
      <trkpt lat="46.50201" lon="4.18471">
        <ele>247.7</ele>
        <time>2019-08-20T09:46:05Z</time>
      </trkpt>
      <trkpt lat="46.50196" lon="4.1847">
        <ele>247.7</ele>
        <time>2019-08-20T09:46:06Z</time>
      </trkpt>
      <trkpt lat="46.50191" lon="4.18468">
        <ele>247.7</ele>
        <time>2019-08-20T09:46:07Z</time>
      </trkpt>
      <trkpt lat="46.50187" lon="4.18467">
        <ele>247.7</ele>
        <time>2019-08-20T09:46:08Z</time>
      </trkpt>
      <trkpt lat="46.50183" lon="4.18466">
        <ele>247.6</ele>
        <time>2019-08-20T09:46:09Z</time>
      </trkpt>
      <trkpt lat="46.50178" lon="4.18465">
        <ele>247.6</ele>
        <time>2019-08-20T09:46:10Z</time>
      </trkpt>
      <trkpt lat="46.50174" lon="4.18464">
        <ele>247.6</ele>
        <time>2019-08-20T09:46:11Z</time>
      </trkpt>
      <trkpt lat="46.50169" lon="4.18463">
        <ele>247.6</ele>
        <time>2019-08-20T09:46:12Z</time>
      </trkpt>
      <trkpt lat="46.50164" lon="4.18462">
        <ele>247.7</ele>
        <time>2019-08-20T09:46:13Z</time>
      </trkpt>
      <trkpt lat="46.50159" lon="4.18461">
        <ele>247.7</ele>
        <time>2019-08-20T09:46:14Z</time>
      </trkpt>
      <trkpt lat="46.50154" lon="4.18459">
        <ele>247.7</ele>
        <time>2019-08-20T09:46:15Z</time>
      </trkpt>
      <trkpt lat="46.50148" lon="4.18458">
        <ele>247.7</ele>
        <time>2019-08-20T09:46:16Z</time>
      </trkpt>
      <trkpt lat="46.50143" lon="4.18457">
        <ele>247.7</ele>
        <time>2019-08-20T09:46:17Z</time>
      </trkpt>
      <trkpt lat="46.50138" lon="4.18456">
        <ele>247.7</ele>
        <time>2019-08-20T09:46:18Z</time>
      </trkpt>
      <trkpt lat="46.50133" lon="4.18454">
        <ele>247.7</ele>
        <time>2019-08-20T09:46:19Z</time>
      </trkpt>
      <trkpt lat="46.50127" lon="4.18453">
        <ele>247.7</ele>
        <time>2019-08-20T09:46:20Z</time>
      </trkpt>
      <trkpt lat="46.50122" lon="4.18451">
        <ele>247.7</ele>
        <time>2019-08-20T09:46:21Z</time>
      </trkpt>
      <trkpt lat="46.50117" lon="4.1845">
        <ele>247.7</ele>
        <time>2019-08-20T09:46:22Z</time>
      </trkpt>
      <trkpt lat="46.50112" lon="4.18449">
        <ele>247.7</ele>
        <time>2019-08-20T09:46:23Z</time>
      </trkpt>
      <trkpt lat="46.50107" lon="4.18447">
        <ele>247.7</ele>
        <time>2019-08-20T09:46:24Z</time>
      </trkpt>
      <trkpt lat="46.50101" lon="4.18445">
        <ele>247.7</ele>
        <time>2019-08-20T09:46:25Z</time>
      </trkpt>
      <trkpt lat="46.50094" lon="4.18443">
        <ele>247.7</ele>
        <time>2019-08-20T09:46:26Z</time>
      </trkpt>
      <trkpt lat="46.50088" lon="4.18441">
        <ele>247.7</ele>
        <time>2019-08-20T09:46:27Z</time>
      </trkpt>
      <trkpt lat="46.50082" lon="4.1844">
        <ele>247.7</ele>
        <time>2019-08-20T09:46:28Z</time>
      </trkpt>
      <trkpt lat="46.50075" lon="4.18438">
        <ele>247.7</ele>
        <time>2019-08-20T09:46:29Z</time>
      </trkpt>
      <trkpt lat="46.50068" lon="4.18437">
        <ele>247.7</ele>
        <time>2019-08-20T09:46:30Z</time>
      </trkpt>
      <trkpt lat="46.50063" lon="4.18436">
        <ele>247.7</ele>
        <time>2019-08-20T09:46:31Z</time>
      </trkpt>
      <trkpt lat="46.50057" lon="4.18434">
        <ele>247.7</ele>
        <time>2019-08-20T09:46:32Z</time>
      </trkpt>
      <trkpt lat="46.50052" lon="4.18432">
        <ele>247.7</ele>
        <time>2019-08-20T09:46:33Z</time>
      </trkpt>
      <trkpt lat="46.50046" lon="4.1843">
        <ele>247.7</ele>
        <time>2019-08-20T09:46:34Z</time>
      </trkpt>
      <trkpt lat="46.50041" lon="4.18429">
        <ele>247.7</ele>
        <time>2019-08-20T09:46:35Z</time>
      </trkpt>
      <trkpt lat="46.50035" lon="4.18429">
        <ele>247.8</ele>
        <time>2019-08-20T09:46:36Z</time>
      </trkpt>
      <trkpt lat="46.5003" lon="4.18427">
        <ele>247.8</ele>
        <time>2019-08-20T09:46:37Z</time>
      </trkpt>
      <trkpt lat="46.50025" lon="4.18426">
        <ele>247.8</ele>
        <time>2019-08-20T09:46:38Z</time>
      </trkpt>
      <trkpt lat="46.50019" lon="4.18425">
        <ele>247.8</ele>
        <time>2019-08-20T09:46:39Z</time>
      </trkpt>
      <trkpt lat="46.50014" lon="4.18424">
        <ele>247.8</ele>
        <time>2019-08-20T09:46:40Z</time>
      </trkpt>
      <trkpt lat="46.50009" lon="4.18423">
        <ele>247.8</ele>
        <time>2019-08-20T09:46:41Z</time>
      </trkpt>
      <trkpt lat="46.50004" lon="4.18421">
        <ele>247.8</ele>
        <time>2019-08-20T09:46:42Z</time>
      </trkpt>
      <trkpt lat="46.5" lon="4.18419">
        <ele>247.9</ele>
        <time>2019-08-20T09:46:43Z</time>
      </trkpt>
      <trkpt lat="46.49995" lon="4.18418">
        <ele>247.9</ele>
        <time>2019-08-20T09:46:44Z</time>
      </trkpt>
      <trkpt lat="46.4999" lon="4.18417">
        <ele>247.9</ele>
        <time>2019-08-20T09:46:45Z</time>
      </trkpt>
      <trkpt lat="46.49985" lon="4.18416">
        <ele>247.9</ele>
        <time>2019-08-20T09:46:46Z</time>
      </trkpt>
      <trkpt lat="46.4998" lon="4.18415">
        <ele>247.9</ele>
        <time>2019-08-20T09:46:47Z</time>
      </trkpt>
      <trkpt lat="46.49975" lon="4.18413">
        <ele>247.9</ele>
        <time>2019-08-20T09:46:48Z</time>
      </trkpt>
      <trkpt lat="46.49969" lon="4.18411">
        <ele>247.8</ele>
        <time>2019-08-20T09:46:49Z</time>
      </trkpt>
      <trkpt lat="46.49964" lon="4.1841">
        <ele>247.8</ele>
        <time>2019-08-20T09:46:50Z</time>
      </trkpt>
      <trkpt lat="46.49959" lon="4.18409">
        <ele>247.8</ele>
        <time>2019-08-20T09:46:51Z</time>
      </trkpt>
      <trkpt lat="46.49954" lon="4.18408">
        <ele>247.8</ele>
        <time>2019-08-20T09:46:52Z</time>
      </trkpt>
      <trkpt lat="46.49949" lon="4.18406">
        <ele>247.8</ele>
        <time>2019-08-20T09:46:53Z</time>
      </trkpt>
      <trkpt lat="46.49943" lon="4.18405">
        <ele>247.8</ele>
        <time>2019-08-20T09:46:54Z</time>
      </trkpt>
      <trkpt lat="46.49937" lon="4.18404">
        <ele>247.7</ele>
        <time>2019-08-20T09:46:55Z</time>
      </trkpt>
      <trkpt lat="46.49931" lon="4.18401">
        <ele>247.7</ele>
        <time>2019-08-20T09:46:56Z</time>
      </trkpt>
      <trkpt lat="46.49926" lon="4.18399">
        <ele>247.7</ele>
        <time>2019-08-20T09:46:57Z</time>
      </trkpt>
      <trkpt lat="46.49919" lon="4.18398">
        <ele>247.6</ele>
        <time>2019-08-20T09:46:58Z</time>
      </trkpt>
      <trkpt lat="46.49913" lon="4.18396">
        <ele>247.6</ele>
        <time>2019-08-20T09:46:59Z</time>
      </trkpt>
      <trkpt lat="46.49907" lon="4.18394">
        <ele>247.6</ele>
        <time>2019-08-20T09:47:00Z</time>
      </trkpt>
      <trkpt lat="46.49902" lon="4.18393">
        <ele>247.6</ele>
        <time>2019-08-20T09:47:01Z</time>
      </trkpt>
      <trkpt lat="46.49897" lon="4.18392">
        <ele>247.6</ele>
        <time>2019-08-20T09:47:02Z</time>
      </trkpt>
      <trkpt lat="46.49892" lon="4.18391">
        <ele>247.5</ele>
        <time>2019-08-20T09:47:03Z</time>
      </trkpt>
      <trkpt lat="46.49886" lon="4.1839">
        <ele>247.5</ele>
        <time>2019-08-20T09:47:04Z</time>
      </trkpt>
      <trkpt lat="46.49881" lon="4.18388">
        <ele>247.5</ele>
        <time>2019-08-20T09:47:05Z</time>
      </trkpt>
      <trkpt lat="46.49875" lon="4.18386">
        <ele>247.5</ele>
        <time>2019-08-20T09:47:06Z</time>
      </trkpt>
      <trkpt lat="46.49869" lon="4.18385">
        <ele>247.5</ele>
        <time>2019-08-20T09:47:07Z</time>
      </trkpt>
      <trkpt lat="46.49863" lon="4.18385">
        <ele>247.4</ele>
        <time>2019-08-20T09:47:08Z</time>
      </trkpt>
      <trkpt lat="46.49858" lon="4.18384">
        <ele>247.4</ele>
        <time>2019-08-20T09:47:09Z</time>
      </trkpt>
      <trkpt lat="46.49853" lon="4.18382">
        <ele>247.4</ele>
        <time>2019-08-20T09:47:10Z</time>
      </trkpt>
      <trkpt lat="46.49848" lon="4.18382">
        <ele>247.3</ele>
        <time>2019-08-20T09:47:11Z</time>
      </trkpt>
      <trkpt lat="46.49843" lon="4.18381">
        <ele>247.3</ele>
        <time>2019-08-20T09:47:12Z</time>
      </trkpt>
      <trkpt lat="46.49838" lon="4.1838">
        <ele>247.2</ele>
        <time>2019-08-20T09:47:13Z</time>
      </trkpt>
      <trkpt lat="46.49832" lon="4.18379">
        <ele>247.2</ele>
        <time>2019-08-20T09:47:14Z</time>
      </trkpt>
      <trkpt lat="46.49826" lon="4.18378">
        <ele>247.1</ele>
        <time>2019-08-20T09:47:15Z</time>
      </trkpt>
      <trkpt lat="46.49821" lon="4.18377">
        <ele>247</ele>
        <time>2019-08-20T09:47:16Z</time>
      </trkpt>
      <trkpt lat="46.49815" lon="4.18375">
        <ele>246.9</ele>
        <time>2019-08-20T09:47:17Z</time>
      </trkpt>
      <trkpt lat="46.49809" lon="4.18374">
        <ele>246.8</ele>
        <time>2019-08-20T09:47:18Z</time>
      </trkpt>
      <trkpt lat="46.49803" lon="4.18373">
        <ele>246.7</ele>
        <time>2019-08-20T09:47:19Z</time>
      </trkpt>
      <trkpt lat="46.49797" lon="4.18371">
        <ele>246.7</ele>
        <time>2019-08-20T09:47:20Z</time>
      </trkpt>
      <trkpt lat="46.49792" lon="4.1837">
        <ele>246.6</ele>
        <time>2019-08-20T09:47:21Z</time>
      </trkpt>
      <trkpt lat="46.49786" lon="4.18367">
        <ele>246.5</ele>
        <time>2019-08-20T09:47:22Z</time>
      </trkpt>
      <trkpt lat="46.49781" lon="4.18365">
        <ele>246.4</ele>
        <time>2019-08-20T09:47:23Z</time>
      </trkpt>
      <trkpt lat="46.49775" lon="4.18364">
        <ele>246.4</ele>
        <time>2019-08-20T09:47:24Z</time>
      </trkpt>
      <trkpt lat="46.4977" lon="4.18362">
        <ele>246.3</ele>
        <time>2019-08-20T09:47:25Z</time>
      </trkpt>
      <trkpt lat="46.49764" lon="4.18361">
        <ele>246.3</ele>
        <time>2019-08-20T09:47:26Z</time>
      </trkpt>
      <trkpt lat="46.49758" lon="4.18361">
        <ele>246.2</ele>
        <time>2019-08-20T09:47:27Z</time>
      </trkpt>
      <trkpt lat="46.49753" lon="4.1836">
        <ele>246.2</ele>
        <time>2019-08-20T09:47:28Z</time>
      </trkpt>
      <trkpt lat="46.49748" lon="4.18359">
        <ele>246.2</ele>
        <time>2019-08-20T09:47:29Z</time>
      </trkpt>
      <trkpt lat="46.49743" lon="4.18357">
        <ele>246.2</ele>
        <time>2019-08-20T09:47:30Z</time>
      </trkpt>
      <trkpt lat="46.49738" lon="4.18356">
        <ele>246.2</ele>
        <time>2019-08-20T09:47:31Z</time>
      </trkpt>
      <trkpt lat="46.49732" lon="4.18354">
        <ele>246.3</ele>
        <time>2019-08-20T09:47:32Z</time>
      </trkpt>
      <trkpt lat="46.49727" lon="4.18352">
        <ele>246.3</ele>
        <time>2019-08-20T09:47:33Z</time>
      </trkpt>
      <trkpt lat="46.49722" lon="4.1835">
        <ele>246.3</ele>
        <time>2019-08-20T09:47:34Z</time>
      </trkpt>
      <trkpt lat="46.49716" lon="4.18348">
        <ele>246.4</ele>
        <time>2019-08-20T09:47:35Z</time>
      </trkpt>
      <trkpt lat="46.4971" lon="4.18347">
        <ele>246.4</ele>
        <time>2019-08-20T09:47:36Z</time>
      </trkpt>
      <trkpt lat="46.49704" lon="4.18346">
        <ele>246.5</ele>
        <time>2019-08-20T09:47:37Z</time>
      </trkpt>
      <trkpt lat="46.49698" lon="4.18345">
        <ele>246.5</ele>
        <time>2019-08-20T09:47:38Z</time>
      </trkpt>
      <trkpt lat="46.49692" lon="4.18344">
        <ele>246.5</ele>
        <time>2019-08-20T09:47:39Z</time>
      </trkpt>
      <trkpt lat="46.49686" lon="4.18343">
        <ele>246.6</ele>
        <time>2019-08-20T09:47:40Z</time>
      </trkpt>
      <trkpt lat="46.49681" lon="4.18342">
        <ele>246.6</ele>
        <time>2019-08-20T09:47:41Z</time>
      </trkpt>
      <trkpt lat="46.49675" lon="4.1834">
        <ele>246.7</ele>
        <time>2019-08-20T09:47:42Z</time>
      </trkpt>
      <trkpt lat="46.4967" lon="4.1834">
        <ele>246.7</ele>
        <time>2019-08-20T09:47:43Z</time>
      </trkpt>
      <trkpt lat="46.49664" lon="4.18339">
        <ele>246.7</ele>
        <time>2019-08-20T09:47:44Z</time>
      </trkpt>
      <trkpt lat="46.49659" lon="4.18337">
        <ele>246.7</ele>
        <time>2019-08-20T09:47:45Z</time>
      </trkpt>
      <trkpt lat="46.49654" lon="4.18335">
        <ele>246.7</ele>
        <time>2019-08-20T09:47:46Z</time>
      </trkpt>
      <trkpt lat="46.49648" lon="4.18334">
        <ele>246.7</ele>
        <time>2019-08-20T09:47:47Z</time>
      </trkpt>
      <trkpt lat="46.49642" lon="4.18334">
        <ele>246.8</ele>
        <time>2019-08-20T09:47:48Z</time>
      </trkpt>
      <trkpt lat="46.49637" lon="4.18333">
        <ele>246.7</ele>
        <time>2019-08-20T09:47:49Z</time>
      </trkpt>
      <trkpt lat="46.49631" lon="4.18331">
        <ele>246.7</ele>
        <time>2019-08-20T09:47:50Z</time>
      </trkpt>
      <trkpt lat="46.49625" lon="4.18329">
        <ele>246.7</ele>
        <time>2019-08-20T09:47:51Z</time>
      </trkpt>
      <trkpt lat="46.4962" lon="4.18328">
        <ele>246.7</ele>
        <time>2019-08-20T09:47:52Z</time>
      </trkpt>
      <trkpt lat="46.49614" lon="4.18328">
        <ele>246.7</ele>
        <time>2019-08-20T09:47:53Z</time>
      </trkpt>
      <trkpt lat="46.49609" lon="4.18326">
        <ele>246.7</ele>
        <time>2019-08-20T09:47:54Z</time>
      </trkpt>
      <trkpt lat="46.49604" lon="4.18324">
        <ele>246.7</ele>
        <time>2019-08-20T09:47:55Z</time>
      </trkpt>
      <trkpt lat="46.49598" lon="4.18323">
        <ele>246.7</ele>
        <time>2019-08-20T09:47:56Z</time>
      </trkpt>
      <trkpt lat="46.49593" lon="4.18321">
        <ele>246.6</ele>
        <time>2019-08-20T09:47:57Z</time>
      </trkpt>
      <trkpt lat="46.49588" lon="4.1832">
        <ele>246.6</ele>
        <time>2019-08-20T09:47:58Z</time>
      </trkpt>
      <trkpt lat="46.49583" lon="4.18318">
        <ele>246.6</ele>
        <time>2019-08-20T09:47:59Z</time>
      </trkpt>
      <trkpt lat="46.49579" lon="4.18316">
        <ele>246.6</ele>
        <time>2019-08-20T09:48:00Z</time>
      </trkpt>
      <trkpt lat="46.49574" lon="4.18316">
        <ele>246.6</ele>
        <time>2019-08-20T09:48:01Z</time>
      </trkpt>
      <trkpt lat="46.49569" lon="4.18315">
        <ele>246.6</ele>
        <time>2019-08-20T09:48:02Z</time>
      </trkpt>
      <trkpt lat="46.49563" lon="4.18314">
        <ele>246.6</ele>
        <time>2019-08-20T09:48:03Z</time>
      </trkpt>
      <trkpt lat="46.49557" lon="4.18313">
        <ele>246.6</ele>
        <time>2019-08-20T09:48:04Z</time>
      </trkpt>
      <trkpt lat="46.49552" lon="4.18312">
        <ele>246.6</ele>
        <time>2019-08-20T09:48:05Z</time>
      </trkpt>
      <trkpt lat="46.49546" lon="4.18311">
        <ele>246.6</ele>
        <time>2019-08-20T09:48:06Z</time>
      </trkpt>
      <trkpt lat="46.49541" lon="4.1831">
        <ele>246.7</ele>
        <time>2019-08-20T09:48:07Z</time>
      </trkpt>
      <trkpt lat="46.49536" lon="4.18309">
        <ele>246.7</ele>
        <time>2019-08-20T09:48:08Z</time>
      </trkpt>
      <trkpt lat="46.49531" lon="4.18308">
        <ele>246.7</ele>
        <time>2019-08-20T09:48:09Z</time>
      </trkpt>
      <trkpt lat="46.49525" lon="4.18306">
        <ele>246.7</ele>
        <time>2019-08-20T09:48:10Z</time>
      </trkpt>
      <trkpt lat="46.4952" lon="4.18305">
        <ele>246.7</ele>
        <time>2019-08-20T09:48:11Z</time>
      </trkpt>
      <trkpt lat="46.49516" lon="4.18303">
        <ele>246.7</ele>
        <time>2019-08-20T09:48:12Z</time>
      </trkpt>
      <trkpt lat="46.4951" lon="4.18301">
        <ele>246.7</ele>
        <time>2019-08-20T09:48:13Z</time>
      </trkpt>
      <trkpt lat="46.49505" lon="4.183">
        <ele>246.7</ele>
        <time>2019-08-20T09:48:14Z</time>
      </trkpt>
      <trkpt lat="46.49499" lon="4.18299">
        <ele>246.6</ele>
        <time>2019-08-20T09:48:15Z</time>
      </trkpt>
      <trkpt lat="46.49493" lon="4.18298">
        <ele>246.6</ele>
        <time>2019-08-20T09:48:16Z</time>
      </trkpt>
      <trkpt lat="46.49488" lon="4.18296">
        <ele>246.6</ele>
        <time>2019-08-20T09:48:17Z</time>
      </trkpt>
      <trkpt lat="46.49482" lon="4.18294">
        <ele>246.6</ele>
        <time>2019-08-20T09:48:18Z</time>
      </trkpt>
      <trkpt lat="46.49476" lon="4.18292">
        <ele>246.6</ele>
        <time>2019-08-20T09:48:19Z</time>
      </trkpt>
      <trkpt lat="46.49471" lon="4.18291">
        <ele>246.6</ele>
        <time>2019-08-20T09:48:20Z</time>
      </trkpt>
      <trkpt lat="46.49466" lon="4.18289">
        <ele>246.5</ele>
        <time>2019-08-20T09:48:21Z</time>
      </trkpt>
      <trkpt lat="46.49461" lon="4.18288">
        <ele>246.5</ele>
        <time>2019-08-20T09:48:22Z</time>
      </trkpt>
      <trkpt lat="46.49455" lon="4.18287">
        <ele>246.5</ele>
        <time>2019-08-20T09:48:23Z</time>
      </trkpt>
      <trkpt lat="46.4945" lon="4.18286">
        <ele>246.4</ele>
        <time>2019-08-20T09:48:24Z</time>
      </trkpt>
      <trkpt lat="46.49445" lon="4.18285">
        <ele>246.4</ele>
        <time>2019-08-20T09:48:25Z</time>
      </trkpt>
      <trkpt lat="46.4944" lon="4.18283">
        <ele>246.3</ele>
        <time>2019-08-20T09:48:26Z</time>
      </trkpt>
      <trkpt lat="46.49433" lon="4.18281">
        <ele>246.2</ele>
        <time>2019-08-20T09:48:27Z</time>
      </trkpt>
      <trkpt lat="46.49427" lon="4.18281">
        <ele>246.2</ele>
        <time>2019-08-20T09:48:28Z</time>
      </trkpt>
      <trkpt lat="46.49421" lon="4.1828">
        <ele>246.1</ele>
        <time>2019-08-20T09:48:29Z</time>
      </trkpt>
      <trkpt lat="46.49416" lon="4.18279">
        <ele>246</ele>
        <time>2019-08-20T09:48:30Z</time>
      </trkpt>
      <trkpt lat="46.49411" lon="4.18276">
        <ele>245.9</ele>
        <time>2019-08-20T09:48:31Z</time>
      </trkpt>
      <trkpt lat="46.49406" lon="4.18275">
        <ele>245.9</ele>
        <time>2019-08-20T09:48:32Z</time>
      </trkpt>
      <trkpt lat="46.49401" lon="4.18273">
        <ele>245.8</ele>
        <time>2019-08-20T09:48:33Z</time>
      </trkpt>
      <trkpt lat="46.49396" lon="4.18271">
        <ele>245.7</ele>
        <time>2019-08-20T09:48:34Z</time>
      </trkpt>
      <trkpt lat="46.4939" lon="4.1827">
        <ele>245.7</ele>
        <time>2019-08-20T09:48:35Z</time>
      </trkpt>
      <trkpt lat="46.49384" lon="4.18269">
        <ele>245.6</ele>
        <time>2019-08-20T09:48:36Z</time>
      </trkpt>
      <trkpt lat="46.49378" lon="4.18267">
        <ele>245.6</ele>
        <time>2019-08-20T09:48:37Z</time>
      </trkpt>
      <trkpt lat="46.49373" lon="4.18267">
        <ele>245.6</ele>
        <time>2019-08-20T09:48:38Z</time>
      </trkpt>
      <trkpt lat="46.49368" lon="4.18266">
        <ele>245.5</ele>
        <time>2019-08-20T09:48:39Z</time>
      </trkpt>
      <trkpt lat="46.49363" lon="4.18265">
        <ele>245.5</ele>
        <time>2019-08-20T09:48:40Z</time>
      </trkpt>
      <trkpt lat="46.49357" lon="4.18264">
        <ele>245.5</ele>
        <time>2019-08-20T09:48:41Z</time>
      </trkpt>
      <trkpt lat="46.49352" lon="4.18264">
        <ele>245.6</ele>
        <time>2019-08-20T09:48:42Z</time>
      </trkpt>
      <trkpt lat="46.49347" lon="4.18263">
        <ele>245.6</ele>
        <time>2019-08-20T09:48:43Z</time>
      </trkpt>
      <trkpt lat="46.49341" lon="4.18262">
        <ele>245.6</ele>
        <time>2019-08-20T09:48:44Z</time>
      </trkpt>
      <trkpt lat="46.49336" lon="4.1826">
        <ele>245.6</ele>
        <time>2019-08-20T09:48:45Z</time>
      </trkpt>
      <trkpt lat="46.4933" lon="4.18258">
        <ele>245.6</ele>
        <time>2019-08-20T09:48:46Z</time>
      </trkpt>
      <trkpt lat="46.49325" lon="4.18256">
        <ele>245.7</ele>
        <time>2019-08-20T09:48:47Z</time>
      </trkpt>
      <trkpt lat="46.49321" lon="4.18255">
        <ele>245.7</ele>
        <time>2019-08-20T09:48:48Z</time>
      </trkpt>
      <trkpt lat="46.49316" lon="4.18254">
        <ele>245.7</ele>
        <time>2019-08-20T09:48:49Z</time>
      </trkpt>
      <trkpt lat="46.49312" lon="4.18253">
        <ele>245.8</ele>
        <time>2019-08-20T09:48:50Z</time>
      </trkpt>
      <trkpt lat="46.49308" lon="4.18252">
        <ele>245.8</ele>
        <time>2019-08-20T09:48:51Z</time>
      </trkpt>
      <trkpt lat="46.49305" lon="4.1825">
        <ele>245.8</ele>
        <time>2019-08-20T09:48:52Z</time>
      </trkpt>
      <trkpt lat="46.493" lon="4.18249">
        <ele>245.9</ele>
        <time>2019-08-20T09:48:53Z</time>
      </trkpt>
      <trkpt lat="46.49295" lon="4.18247">
        <ele>245.9</ele>
        <time>2019-08-20T09:48:54Z</time>
      </trkpt>
      <trkpt lat="46.4929" lon="4.18244">
        <ele>245.9</ele>
        <time>2019-08-20T09:48:55Z</time>
      </trkpt>
      <trkpt lat="46.49284" lon="4.18243">
        <ele>246</ele>
        <time>2019-08-20T09:48:56Z</time>
      </trkpt>
      <trkpt lat="46.49278" lon="4.18241">
        <ele>246</ele>
        <time>2019-08-20T09:48:57Z</time>
      </trkpt>
      <trkpt lat="46.49273" lon="4.18241">
        <ele>246.1</ele>
        <time>2019-08-20T09:48:58Z</time>
      </trkpt>
      <trkpt lat="46.49268" lon="4.18239">
        <ele>246.1</ele>
        <time>2019-08-20T09:48:59Z</time>
      </trkpt>
      <trkpt lat="46.49263" lon="4.18238">
        <ele>246.1</ele>
        <time>2019-08-20T09:49:00Z</time>
      </trkpt>
      <trkpt lat="46.49258" lon="4.18236">
        <ele>246.1</ele>
        <time>2019-08-20T09:49:01Z</time>
      </trkpt>
      <trkpt lat="46.49253" lon="4.18235">
        <ele>246.2</ele>
        <time>2019-08-20T09:49:02Z</time>
      </trkpt>
      <trkpt lat="46.49247" lon="4.18234">
        <ele>246.2</ele>
        <time>2019-08-20T09:49:03Z</time>
      </trkpt>
      <trkpt lat="46.49243" lon="4.18233">
        <ele>246.2</ele>
        <time>2019-08-20T09:49:04Z</time>
      </trkpt>
      <trkpt lat="46.49238" lon="4.18232">
        <ele>246.2</ele>
        <time>2019-08-20T09:49:05Z</time>
      </trkpt>
      <trkpt lat="46.49233" lon="4.18231">
        <ele>246.3</ele>
        <time>2019-08-20T09:49:06Z</time>
      </trkpt>
      <trkpt lat="46.49228" lon="4.18231">
        <ele>246.3</ele>
        <time>2019-08-20T09:49:07Z</time>
      </trkpt>
      <trkpt lat="46.49223" lon="4.18229">
        <ele>246.3</ele>
        <time>2019-08-20T09:49:08Z</time>
      </trkpt>
      <trkpt lat="46.49218" lon="4.18228">
        <ele>246.3</ele>
        <time>2019-08-20T09:49:09Z</time>
      </trkpt>
      <trkpt lat="46.49214" lon="4.18226">
        <ele>246.3</ele>
        <time>2019-08-20T09:49:10Z</time>
      </trkpt>
      <trkpt lat="46.49209" lon="4.18225">
        <ele>246.4</ele>
        <time>2019-08-20T09:49:11Z</time>
      </trkpt>
      <trkpt lat="46.49204" lon="4.18225">
        <ele>246.4</ele>
        <time>2019-08-20T09:49:12Z</time>
      </trkpt>
      <trkpt lat="46.492" lon="4.18225">
        <ele>246.4</ele>
        <time>2019-08-20T09:49:13Z</time>
      </trkpt>
      <trkpt lat="46.49195" lon="4.18224">
        <ele>246.4</ele>
        <time>2019-08-20T09:49:14Z</time>
      </trkpt>
      <trkpt lat="46.4919" lon="4.18223">
        <ele>246.4</ele>
        <time>2019-08-20T09:49:15Z</time>
      </trkpt>
      <trkpt lat="46.49184" lon="4.18223">
        <ele>246.5</ele>
        <time>2019-08-20T09:49:16Z</time>
      </trkpt>
      <trkpt lat="46.49179" lon="4.18222">
        <ele>246.5</ele>
        <time>2019-08-20T09:49:17Z</time>
      </trkpt>
      <trkpt lat="46.49174" lon="4.18221">
        <ele>246.5</ele>
        <time>2019-08-20T09:49:18Z</time>
      </trkpt>
      <trkpt lat="46.49169" lon="4.1822">
        <ele>246.5</ele>
        <time>2019-08-20T09:49:19Z</time>
      </trkpt>
      <trkpt lat="46.49164" lon="4.18218">
        <ele>246.5</ele>
        <time>2019-08-20T09:49:20Z</time>
      </trkpt>
      <trkpt lat="46.49159" lon="4.18216">
        <ele>246.6</ele>
        <time>2019-08-20T09:49:21Z</time>
      </trkpt>
      <trkpt lat="46.49155" lon="4.18214">
        <ele>246.6</ele>
        <time>2019-08-20T09:49:22Z</time>
      </trkpt>
      <trkpt lat="46.4915" lon="4.18213">
        <ele>246.6</ele>
        <time>2019-08-20T09:49:23Z</time>
      </trkpt>
      <trkpt lat="46.49145" lon="4.18212">
        <ele>246.6</ele>
        <time>2019-08-20T09:49:24Z</time>
      </trkpt>
      <trkpt lat="46.4914" lon="4.18211">
        <ele>246.6</ele>
        <time>2019-08-20T09:49:25Z</time>
      </trkpt>
      <trkpt lat="46.49136" lon="4.18209">
        <ele>246.7</ele>
        <time>2019-08-20T09:49:26Z</time>
      </trkpt>
      <trkpt lat="46.49132" lon="4.18206">
        <ele>246.7</ele>
        <time>2019-08-20T09:49:27Z</time>
      </trkpt>
      <trkpt lat="46.49127" lon="4.18203">
        <ele>246.7</ele>
        <time>2019-08-20T09:49:28Z</time>
      </trkpt>
      <trkpt lat="46.49123" lon="4.182">
        <ele>246.7</ele>
        <time>2019-08-20T09:49:29Z</time>
      </trkpt>
      <trkpt lat="46.49118" lon="4.18196">
        <ele>246.7</ele>
        <time>2019-08-20T09:49:30Z</time>
      </trkpt>
      <trkpt lat="46.49113" lon="4.18193">
        <ele>246.8</ele>
        <time>2019-08-20T09:49:31Z</time>
      </trkpt>
      <trkpt lat="46.49108" lon="4.18189">
        <ele>246.8</ele>
        <time>2019-08-20T09:49:32Z</time>
      </trkpt>
      <trkpt lat="46.49104" lon="4.18186">
        <ele>246.8</ele>
        <time>2019-08-20T09:49:33Z</time>
      </trkpt>
      <trkpt lat="46.49099" lon="4.18182">
        <ele>246.8</ele>
        <time>2019-08-20T09:49:34Z</time>
      </trkpt>
      <trkpt lat="46.49095" lon="4.18177">
        <ele>246.8</ele>
        <time>2019-08-20T09:49:35Z</time>
      </trkpt>
      <trkpt lat="46.4909" lon="4.18173">
        <ele>246.8</ele>
        <time>2019-08-20T09:49:36Z</time>
      </trkpt>
      <trkpt lat="46.49086" lon="4.18168">
        <ele>246.8</ele>
        <time>2019-08-20T09:49:37Z</time>
      </trkpt>
      <trkpt lat="46.49082" lon="4.18163">
        <ele>246.7</ele>
        <time>2019-08-20T09:49:38Z</time>
      </trkpt>
      <trkpt lat="46.49078" lon="4.18157">
        <ele>246.7</ele>
        <time>2019-08-20T09:49:39Z</time>
      </trkpt>
      <trkpt lat="46.49073" lon="4.18152">
        <ele>246.7</ele>
        <time>2019-08-20T09:49:40Z</time>
      </trkpt>
      <trkpt lat="46.49069" lon="4.18147">
        <ele>246.6</ele>
        <time>2019-08-20T09:49:41Z</time>
      </trkpt>
      <trkpt lat="46.49065" lon="4.18142">
        <ele>246.6</ele>
        <time>2019-08-20T09:49:42Z</time>
      </trkpt>
      <trkpt lat="46.49061" lon="4.18136">
        <ele>246.6</ele>
        <time>2019-08-20T09:49:43Z</time>
      </trkpt>
      <trkpt lat="46.49057" lon="4.18131">
        <ele>246.5</ele>
        <time>2019-08-20T09:49:44Z</time>
      </trkpt>
      <trkpt lat="46.49052" lon="4.18127">
        <ele>246.5</ele>
        <time>2019-08-20T09:49:45Z</time>
      </trkpt>
      <trkpt lat="46.49048" lon="4.18122">
        <ele>246.5</ele>
        <time>2019-08-20T09:49:46Z</time>
      </trkpt>
      <trkpt lat="46.49044" lon="4.18117">
        <ele>246.4</ele>
        <time>2019-08-20T09:49:47Z</time>
      </trkpt>
      <trkpt lat="46.4904" lon="4.18111">
        <ele>246.4</ele>
        <time>2019-08-20T09:49:48Z</time>
      </trkpt>
      <trkpt lat="46.49036" lon="4.18107">
        <ele>246.3</ele>
        <time>2019-08-20T09:49:49Z</time>
      </trkpt>
      <trkpt lat="46.4903" lon="4.18102">
        <ele>246.3</ele>
        <time>2019-08-20T09:49:50Z</time>
      </trkpt>
      <trkpt lat="46.49025" lon="4.18099">
        <ele>246.3</ele>
        <time>2019-08-20T09:49:51Z</time>
      </trkpt>
      <trkpt lat="46.4902" lon="4.18095">
        <ele>246.2</ele>
        <time>2019-08-20T09:49:52Z</time>
      </trkpt>
      <trkpt lat="46.49014" lon="4.1809">
        <ele>246.2</ele>
        <time>2019-08-20T09:49:53Z</time>
      </trkpt>
      <trkpt lat="46.49009" lon="4.18087">
        <ele>246.2</ele>
        <time>2019-08-20T09:49:54Z</time>
      </trkpt>
      <trkpt lat="46.49003" lon="4.18083">
        <ele>246.1</ele>
        <time>2019-08-20T09:49:55Z</time>
      </trkpt>
      <trkpt lat="46.48998" lon="4.1808">
        <ele>246.1</ele>
        <time>2019-08-20T09:49:56Z</time>
      </trkpt>
      <trkpt lat="46.48992" lon="4.18077">
        <ele>246.1</ele>
        <time>2019-08-20T09:49:57Z</time>
      </trkpt>
      <trkpt lat="46.48987" lon="4.18074">
        <ele>246</ele>
        <time>2019-08-20T09:49:58Z</time>
      </trkpt>
      <trkpt lat="46.48981" lon="4.18072">
        <ele>246</ele>
        <time>2019-08-20T09:49:59Z</time>
      </trkpt>
      <trkpt lat="46.48976" lon="4.18068">
        <ele>246</ele>
        <time>2019-08-20T09:50:00Z</time>
      </trkpt>
      <trkpt lat="46.48971" lon="4.18065">
        <ele>245.9</ele>
        <time>2019-08-20T09:50:01Z</time>
      </trkpt>
      <trkpt lat="46.48966" lon="4.18061">
        <ele>245.9</ele>
        <time>2019-08-20T09:50:02Z</time>
      </trkpt>
      <trkpt lat="46.48961" lon="4.18058">
        <ele>245.9</ele>
        <time>2019-08-20T09:50:03Z</time>
      </trkpt>
      <trkpt lat="46.48956" lon="4.18055">
        <ele>245.9</ele>
        <time>2019-08-20T09:50:04Z</time>
      </trkpt>
      <trkpt lat="46.4895" lon="4.18052">
        <ele>245.9</ele>
        <time>2019-08-20T09:50:05Z</time>
      </trkpt>
      <trkpt lat="46.48945" lon="4.18049">
        <ele>245.9</ele>
        <time>2019-08-20T09:50:06Z</time>
      </trkpt>
      <trkpt lat="46.48939" lon="4.18046">
        <ele>245.9</ele>
        <time>2019-08-20T09:50:07Z</time>
      </trkpt>
      <trkpt lat="46.48934" lon="4.18043">
        <ele>245.9</ele>
        <time>2019-08-20T09:50:08Z</time>
      </trkpt>
      <trkpt lat="46.48929" lon="4.18039">
        <ele>245.9</ele>
        <time>2019-08-20T09:50:09Z</time>
      </trkpt>
      <trkpt lat="46.48924" lon="4.18037">
        <ele>245.9</ele>
        <time>2019-08-20T09:50:10Z</time>
      </trkpt>
      <trkpt lat="46.48919" lon="4.18033">
        <ele>245.9</ele>
        <time>2019-08-20T09:50:11Z</time>
      </trkpt>
      <trkpt lat="46.48914" lon="4.1803">
        <ele>245.9</ele>
        <time>2019-08-20T09:50:12Z</time>
      </trkpt>
      <trkpt lat="46.48909" lon="4.18027">
        <ele>245.9</ele>
        <time>2019-08-20T09:50:13Z</time>
      </trkpt>
      <trkpt lat="46.48904" lon="4.18025">
        <ele>245.9</ele>
        <time>2019-08-20T09:50:14Z</time>
      </trkpt>
      <trkpt lat="46.48898" lon="4.18022">
        <ele>245.8</ele>
        <time>2019-08-20T09:50:15Z</time>
      </trkpt>
      <trkpt lat="46.48893" lon="4.18019">
        <ele>245.8</ele>
        <time>2019-08-20T09:50:16Z</time>
      </trkpt>
      <trkpt lat="46.48888" lon="4.18017">
        <ele>245.8</ele>
        <time>2019-08-20T09:50:17Z</time>
      </trkpt>
      <trkpt lat="46.48883" lon="4.18014">
        <ele>245.8</ele>
        <time>2019-08-20T09:50:18Z</time>
      </trkpt>
      <trkpt lat="46.48878" lon="4.18011">
        <ele>245.8</ele>
        <time>2019-08-20T09:50:19Z</time>
      </trkpt>
      <trkpt lat="46.48873" lon="4.18008">
        <ele>245.7</ele>
        <time>2019-08-20T09:50:20Z</time>
      </trkpt>
      <trkpt lat="46.48868" lon="4.18006">
        <ele>245.7</ele>
        <time>2019-08-20T09:50:21Z</time>
      </trkpt>
      <trkpt lat="46.48863" lon="4.18003">
        <ele>245.7</ele>
        <time>2019-08-20T09:50:22Z</time>
      </trkpt>
      <trkpt lat="46.48859" lon="4.18001">
        <ele>245.7</ele>
        <time>2019-08-20T09:50:23Z</time>
      </trkpt>
      <trkpt lat="46.48854" lon="4.17998">
        <ele>245.7</ele>
        <time>2019-08-20T09:50:24Z</time>
      </trkpt>
      <trkpt lat="46.4885" lon="4.17995">
        <ele>245.7</ele>
        <time>2019-08-20T09:50:25Z</time>
      </trkpt>
      <trkpt lat="46.48846" lon="4.17992">
        <ele>245.7</ele>
        <time>2019-08-20T09:50:26Z</time>
      </trkpt>
      <trkpt lat="46.48842" lon="4.1799">
        <ele>245.7</ele>
        <time>2019-08-20T09:50:27Z</time>
      </trkpt>
      <trkpt lat="46.48837" lon="4.17988">
        <ele>245.7</ele>
        <time>2019-08-20T09:50:28Z</time>
      </trkpt>
      <trkpt lat="46.48832" lon="4.17986">
        <ele>245.7</ele>
        <time>2019-08-20T09:50:29Z</time>
      </trkpt>
      <trkpt lat="46.48827" lon="4.17983">
        <ele>245.7</ele>
        <time>2019-08-20T09:50:30Z</time>
      </trkpt>
      <trkpt lat="46.48822" lon="4.1798">
        <ele>245.7</ele>
        <time>2019-08-20T09:50:31Z</time>
      </trkpt>
      <trkpt lat="46.48817" lon="4.17976">
        <ele>245.7</ele>
        <time>2019-08-20T09:50:32Z</time>
      </trkpt>
      <trkpt lat="46.48812" lon="4.17973">
        <ele>245.7</ele>
        <time>2019-08-20T09:50:33Z</time>
      </trkpt>
      <trkpt lat="46.48807" lon="4.1797">
        <ele>245.8</ele>
        <time>2019-08-20T09:50:34Z</time>
      </trkpt>
      <trkpt lat="46.48803" lon="4.17966">
        <ele>245.8</ele>
        <time>2019-08-20T09:50:35Z</time>
      </trkpt>
      <trkpt lat="46.48798" lon="4.17963">
        <ele>245.8</ele>
        <time>2019-08-20T09:50:36Z</time>
      </trkpt>
      <trkpt lat="46.48794" lon="4.17961">
        <ele>245.8</ele>
        <time>2019-08-20T09:50:37Z</time>
      </trkpt>
      <trkpt lat="46.48789" lon="4.17958">
        <ele>245.9</ele>
        <time>2019-08-20T09:50:38Z</time>
      </trkpt>
      <trkpt lat="46.48784" lon="4.17955">
        <ele>245.9</ele>
        <time>2019-08-20T09:50:39Z</time>
      </trkpt>
      <trkpt lat="46.48779" lon="4.17952">
        <ele>245.9</ele>
        <time>2019-08-20T09:50:40Z</time>
      </trkpt>
      <trkpt lat="46.48774" lon="4.17949">
        <ele>245.9</ele>
        <time>2019-08-20T09:50:41Z</time>
      </trkpt>
      <trkpt lat="46.48769" lon="4.17946">
        <ele>246</ele>
        <time>2019-08-20T09:50:42Z</time>
      </trkpt>
      <trkpt lat="46.48765" lon="4.17942">
        <ele>246</ele>
        <time>2019-08-20T09:50:43Z</time>
      </trkpt>
      <trkpt lat="46.4876" lon="4.17939">
        <ele>246</ele>
        <time>2019-08-20T09:50:44Z</time>
      </trkpt>
      <trkpt lat="46.48755" lon="4.17936">
        <ele>246</ele>
        <time>2019-08-20T09:50:45Z</time>
      </trkpt>
      <trkpt lat="46.48751" lon="4.17932">
        <ele>246</ele>
        <time>2019-08-20T09:50:46Z</time>
      </trkpt>
      <trkpt lat="46.48746" lon="4.17929">
        <ele>246.1</ele>
        <time>2019-08-20T09:50:47Z</time>
      </trkpt>
      <trkpt lat="46.48742" lon="4.17926">
        <ele>246.1</ele>
        <time>2019-08-20T09:50:48Z</time>
      </trkpt>
      <trkpt lat="46.48737" lon="4.17922">
        <ele>246.1</ele>
        <time>2019-08-20T09:50:49Z</time>
      </trkpt>
      <trkpt lat="46.48733" lon="4.17916">
        <ele>246.1</ele>
        <time>2019-08-20T09:50:50Z</time>
      </trkpt>
      <trkpt lat="46.48728" lon="4.17911">
        <ele>246.1</ele>
        <time>2019-08-20T09:50:51Z</time>
      </trkpt>
      <trkpt lat="46.48724" lon="4.17907">
        <ele>246.1</ele>
        <time>2019-08-20T09:50:52Z</time>
      </trkpt>
      <trkpt lat="46.48719" lon="4.17904">
        <ele>246.1</ele>
        <time>2019-08-20T09:50:53Z</time>
      </trkpt>
      <trkpt lat="46.48715" lon="4.17901">
        <ele>246.2</ele>
        <time>2019-08-20T09:50:54Z</time>
      </trkpt>
      <trkpt lat="46.4871" lon="4.17897">
        <ele>246.2</ele>
        <time>2019-08-20T09:50:55Z</time>
      </trkpt>
      <trkpt lat="46.48706" lon="4.17891">
        <ele>246.2</ele>
        <time>2019-08-20T09:50:56Z</time>
      </trkpt>
      <trkpt lat="46.48701" lon="4.17887">
        <ele>246.2</ele>
        <time>2019-08-20T09:50:57Z</time>
      </trkpt>
      <trkpt lat="46.48697" lon="4.17882">
        <ele>246.2</ele>
        <time>2019-08-20T09:50:58Z</time>
      </trkpt>
      <trkpt lat="46.48692" lon="4.17878">
        <ele>246.2</ele>
        <time>2019-08-20T09:50:59Z</time>
      </trkpt>
      <trkpt lat="46.48688" lon="4.17874">
        <ele>246.2</ele>
        <time>2019-08-20T09:51:00Z</time>
      </trkpt>
      <trkpt lat="46.48684" lon="4.1787">
        <ele>246.2</ele>
        <time>2019-08-20T09:51:01Z</time>
      </trkpt>
      <trkpt lat="46.4868" lon="4.17866">
        <ele>246.2</ele>
        <time>2019-08-20T09:51:02Z</time>
      </trkpt>
      <trkpt lat="46.48675" lon="4.17862">
        <ele>246.2</ele>
        <time>2019-08-20T09:51:03Z</time>
      </trkpt>
      <trkpt lat="46.48672" lon="4.17857">
        <ele>246.1</ele>
        <time>2019-08-20T09:51:04Z</time>
      </trkpt>
      <trkpt lat="46.48667" lon="4.17853">
        <ele>246.1</ele>
        <time>2019-08-20T09:51:05Z</time>
      </trkpt>
      <trkpt lat="46.48663" lon="4.17849">
        <ele>246.1</ele>
        <time>2019-08-20T09:51:06Z</time>
      </trkpt>
      <trkpt lat="46.48658" lon="4.17845">
        <ele>246.1</ele>
        <time>2019-08-20T09:51:07Z</time>
      </trkpt>
      <trkpt lat="46.48654" lon="4.1784">
        <ele>246</ele>
        <time>2019-08-20T09:51:08Z</time>
      </trkpt>
      <trkpt lat="46.48649" lon="4.17836">
        <ele>246</ele>
        <time>2019-08-20T09:51:09Z</time>
      </trkpt>
      <trkpt lat="46.48644" lon="4.17833">
        <ele>245.9</ele>
        <time>2019-08-20T09:51:10Z</time>
      </trkpt>
      <trkpt lat="46.48639" lon="4.17829">
        <ele>245.9</ele>
        <time>2019-08-20T09:51:11Z</time>
      </trkpt>
      <trkpt lat="46.48635" lon="4.17825">
        <ele>245.9</ele>
        <time>2019-08-20T09:51:12Z</time>
      </trkpt>
      <trkpt lat="46.4863" lon="4.17822">
        <ele>245.8</ele>
        <time>2019-08-20T09:51:13Z</time>
      </trkpt>
      <trkpt lat="46.48626" lon="4.1782">
        <ele>245.8</ele>
        <time>2019-08-20T09:51:14Z</time>
      </trkpt>
      <trkpt lat="46.48621" lon="4.17817">
        <ele>245.7</ele>
        <time>2019-08-20T09:51:15Z</time>
      </trkpt>
      <trkpt lat="46.48616" lon="4.17814">
        <ele>245.7</ele>
        <time>2019-08-20T09:51:16Z</time>
      </trkpt>
      <trkpt lat="46.48611" lon="4.17811">
        <ele>245.7</ele>
        <time>2019-08-20T09:51:17Z</time>
      </trkpt>
      <trkpt lat="46.48606" lon="4.17808">
        <ele>245.6</ele>
        <time>2019-08-20T09:51:18Z</time>
      </trkpt>
      <trkpt lat="46.48601" lon="4.17806">
        <ele>245.6</ele>
        <time>2019-08-20T09:51:19Z</time>
      </trkpt>
      <trkpt lat="46.48596" lon="4.17804">
        <ele>245.6</ele>
        <time>2019-08-20T09:51:20Z</time>
      </trkpt>
      <trkpt lat="46.4859" lon="4.17802">
        <ele>245.5</ele>
        <time>2019-08-20T09:51:21Z</time>
      </trkpt>
      <trkpt lat="46.48584" lon="4.17801">
        <ele>245.5</ele>
        <time>2019-08-20T09:51:22Z</time>
      </trkpt>
      <trkpt lat="46.48579" lon="4.178">
        <ele>245.5</ele>
        <time>2019-08-20T09:51:23Z</time>
      </trkpt>
      <trkpt lat="46.48574" lon="4.17799">
        <ele>245.5</ele>
        <time>2019-08-20T09:51:24Z</time>
      </trkpt>
      <trkpt lat="46.48569" lon="4.17797">
        <ele>245.4</ele>
        <time>2019-08-20T09:51:25Z</time>
      </trkpt>
      <trkpt lat="46.48563" lon="4.17796">
        <ele>245.4</ele>
        <time>2019-08-20T09:51:26Z</time>
      </trkpt>
      <trkpt lat="46.48558" lon="4.17795">
        <ele>245.4</ele>
        <time>2019-08-20T09:51:27Z</time>
      </trkpt>
      <trkpt lat="46.48553" lon="4.17794">
        <ele>245.4</ele>
        <time>2019-08-20T09:51:28Z</time>
      </trkpt>
      <trkpt lat="46.48548" lon="4.17792">
        <ele>245.4</ele>
        <time>2019-08-20T09:51:29Z</time>
      </trkpt>
      <trkpt lat="46.48542" lon="4.17791">
        <ele>245.4</ele>
        <time>2019-08-20T09:51:30Z</time>
      </trkpt>
      <trkpt lat="46.48537" lon="4.17788">
        <ele>245.4</ele>
        <time>2019-08-20T09:51:31Z</time>
      </trkpt>
      <trkpt lat="46.48531" lon="4.17787">
        <ele>245.3</ele>
        <time>2019-08-20T09:51:32Z</time>
      </trkpt>
      <trkpt lat="46.48526" lon="4.17787">
        <ele>245.3</ele>
        <time>2019-08-20T09:51:33Z</time>
      </trkpt>
      <trkpt lat="46.4852" lon="4.17786">
        <ele>245.3</ele>
        <time>2019-08-20T09:51:34Z</time>
      </trkpt>
      <trkpt lat="46.48515" lon="4.17784">
        <ele>245.3</ele>
        <time>2019-08-20T09:51:35Z</time>
      </trkpt>
      <trkpt lat="46.48509" lon="4.17782">
        <ele>245.3</ele>
        <time>2019-08-20T09:51:36Z</time>
      </trkpt>
      <trkpt lat="46.48504" lon="4.17781">
        <ele>245.3</ele>
        <time>2019-08-20T09:51:37Z</time>
      </trkpt>
      <trkpt lat="46.48498" lon="4.1778">
        <ele>245.3</ele>
        <time>2019-08-20T09:51:38Z</time>
      </trkpt>
      <trkpt lat="46.48493" lon="4.17777">
        <ele>245.3</ele>
        <time>2019-08-20T09:51:39Z</time>
      </trkpt>
      <trkpt lat="46.48487" lon="4.17774">
        <ele>245.3</ele>
        <time>2019-08-20T09:51:40Z</time>
      </trkpt>
      <trkpt lat="46.48481" lon="4.17772">
        <ele>245.3</ele>
        <time>2019-08-20T09:51:41Z</time>
      </trkpt>
      <trkpt lat="46.48476" lon="4.1777">
        <ele>245.3</ele>
        <time>2019-08-20T09:51:42Z</time>
      </trkpt>
      <trkpt lat="46.4847" lon="4.17769">
        <ele>245.3</ele>
        <time>2019-08-20T09:51:43Z</time>
      </trkpt>
      <trkpt lat="46.48464" lon="4.17767">
        <ele>245.2</ele>
        <time>2019-08-20T09:51:44Z</time>
      </trkpt>
      <trkpt lat="46.48458" lon="4.17767">
        <ele>245.2</ele>
        <time>2019-08-20T09:51:45Z</time>
      </trkpt>
      <trkpt lat="46.48453" lon="4.17766">
        <ele>245.2</ele>
        <time>2019-08-20T09:51:46Z</time>
      </trkpt>
      <trkpt lat="46.48448" lon="4.17765">
        <ele>245.2</ele>
        <time>2019-08-20T09:51:47Z</time>
      </trkpt>
      <trkpt lat="46.48443" lon="4.17764">
        <ele>245.2</ele>
        <time>2019-08-20T09:51:48Z</time>
      </trkpt>
      <trkpt lat="46.48437" lon="4.17761">
        <ele>245.2</ele>
        <time>2019-08-20T09:51:49Z</time>
      </trkpt>
      <trkpt lat="46.48432" lon="4.17759">
        <ele>245.2</ele>
        <time>2019-08-20T09:51:50Z</time>
      </trkpt>
      <trkpt lat="46.48427" lon="4.17757">
        <ele>245.2</ele>
        <time>2019-08-20T09:51:51Z</time>
      </trkpt>
      <trkpt lat="46.48422" lon="4.17755">
        <ele>245.2</ele>
        <time>2019-08-20T09:51:52Z</time>
      </trkpt>
      <trkpt lat="46.48417" lon="4.17754">
        <ele>245.2</ele>
        <time>2019-08-20T09:51:53Z</time>
      </trkpt>
      <trkpt lat="46.48412" lon="4.17752">
        <ele>245.2</ele>
        <time>2019-08-20T09:51:54Z</time>
      </trkpt>
      <trkpt lat="46.48407" lon="4.17751">
        <ele>245.2</ele>
        <time>2019-08-20T09:51:55Z</time>
      </trkpt>
      <trkpt lat="46.48401" lon="4.17749">
        <ele>245.2</ele>
        <time>2019-08-20T09:51:56Z</time>
      </trkpt>
      <trkpt lat="46.48395" lon="4.17748">
        <ele>245.2</ele>
        <time>2019-08-20T09:51:57Z</time>
      </trkpt>
      <trkpt lat="46.4839" lon="4.17746">
        <ele>245.2</ele>
        <time>2019-08-20T09:51:58Z</time>
      </trkpt>
      <trkpt lat="46.48384" lon="4.17745">
        <ele>245.3</ele>
        <time>2019-08-20T09:51:59Z</time>
      </trkpt>
      <trkpt lat="46.48379" lon="4.17743">
        <ele>245.3</ele>
        <time>2019-08-20T09:52:00Z</time>
      </trkpt>
      <trkpt lat="46.48373" lon="4.17742">
        <ele>245.3</ele>
        <time>2019-08-20T09:52:01Z</time>
      </trkpt>
      <trkpt lat="46.48368" lon="4.1774">
        <ele>245.3</ele>
        <time>2019-08-20T09:52:02Z</time>
      </trkpt>
      <trkpt lat="46.48363" lon="4.17739">
        <ele>245.3</ele>
        <time>2019-08-20T09:52:03Z</time>
      </trkpt>
      <trkpt lat="46.48358" lon="4.17737">
        <ele>245.4</ele>
        <time>2019-08-20T09:52:04Z</time>
      </trkpt>
      <trkpt lat="46.48353" lon="4.17736">
        <ele>245.4</ele>
        <time>2019-08-20T09:52:05Z</time>
      </trkpt>
      <trkpt lat="46.48348" lon="4.17734">
        <ele>245.4</ele>
        <time>2019-08-20T09:52:06Z</time>
      </trkpt>
      <trkpt lat="46.48343" lon="4.17733">
        <ele>245.4</ele>
        <time>2019-08-20T09:52:07Z</time>
      </trkpt>
      <trkpt lat="46.48337" lon="4.17731">
        <ele>245.4</ele>
        <time>2019-08-20T09:52:08Z</time>
      </trkpt>
      <trkpt lat="46.48333" lon="4.1773">
        <ele>245.4</ele>
        <time>2019-08-20T09:52:09Z</time>
      </trkpt>
      <trkpt lat="46.48329" lon="4.17728">
        <ele>245.4</ele>
        <time>2019-08-20T09:52:10Z</time>
      </trkpt>
      <trkpt lat="46.48324" lon="4.17726">
        <ele>245.4</ele>
        <time>2019-08-20T09:52:11Z</time>
      </trkpt>
      <trkpt lat="46.4832" lon="4.17725">
        <ele>245.4</ele>
        <time>2019-08-20T09:52:12Z</time>
      </trkpt>
      <trkpt lat="46.48316" lon="4.17724">
        <ele>245.4</ele>
        <time>2019-08-20T09:52:13Z</time>
      </trkpt>
      <trkpt lat="46.48311" lon="4.17722">
        <ele>245.4</ele>
        <time>2019-08-20T09:52:14Z</time>
      </trkpt>
      <trkpt lat="46.48306" lon="4.17722">
        <ele>245.3</ele>
        <time>2019-08-20T09:52:15Z</time>
      </trkpt>
      <trkpt lat="46.48301" lon="4.1772">
        <ele>245.3</ele>
        <time>2019-08-20T09:52:16Z</time>
      </trkpt>
      <trkpt lat="46.48296" lon="4.17719">
        <ele>245.3</ele>
        <time>2019-08-20T09:52:17Z</time>
      </trkpt>
      <trkpt lat="46.48291" lon="4.17717">
        <ele>245.3</ele>
        <time>2019-08-20T09:52:18Z</time>
      </trkpt>
      <trkpt lat="46.48286" lon="4.17715">
        <ele>245.3</ele>
        <time>2019-08-20T09:52:19Z</time>
      </trkpt>
      <trkpt lat="46.48281" lon="4.17713">
        <ele>245.2</ele>
        <time>2019-08-20T09:52:20Z</time>
      </trkpt>
      <trkpt lat="46.48276" lon="4.17711">
        <ele>245.2</ele>
        <time>2019-08-20T09:52:21Z</time>
      </trkpt>
      <trkpt lat="46.48271" lon="4.17709">
        <ele>245.2</ele>
        <time>2019-08-20T09:52:22Z</time>
      </trkpt>
      <trkpt lat="46.48266" lon="4.17706">
        <ele>245.1</ele>
        <time>2019-08-20T09:52:23Z</time>
      </trkpt>
      <trkpt lat="46.4826" lon="4.17704">
        <ele>245.1</ele>
        <time>2019-08-20T09:52:24Z</time>
      </trkpt>
      <trkpt lat="46.48255" lon="4.17701">
        <ele>245.1</ele>
        <time>2019-08-20T09:52:25Z</time>
      </trkpt>
      <trkpt lat="46.4825" lon="4.17698">
        <ele>245</ele>
        <time>2019-08-20T09:52:26Z</time>
      </trkpt>
      <trkpt lat="46.48244" lon="4.17694">
        <ele>245</ele>
        <time>2019-08-20T09:52:27Z</time>
      </trkpt>
      <trkpt lat="46.48239" lon="4.17691">
        <ele>244.9</ele>
        <time>2019-08-20T09:52:28Z</time>
      </trkpt>
      <trkpt lat="46.48233" lon="4.17688">
        <ele>244.9</ele>
        <time>2019-08-20T09:52:29Z</time>
      </trkpt>
      <trkpt lat="46.48227" lon="4.17684">
        <ele>244.9</ele>
        <time>2019-08-20T09:52:30Z</time>
      </trkpt>
      <trkpt lat="46.48222" lon="4.17681">
        <ele>244.8</ele>
        <time>2019-08-20T09:52:31Z</time>
      </trkpt>
      <trkpt lat="46.48216" lon="4.17677">
        <ele>244.8</ele>
        <time>2019-08-20T09:52:32Z</time>
      </trkpt>
      <trkpt lat="46.48211" lon="4.17674">
        <ele>244.7</ele>
        <time>2019-08-20T09:52:33Z</time>
      </trkpt>
      <trkpt lat="46.48205" lon="4.17671">
        <ele>244.7</ele>
        <time>2019-08-20T09:52:34Z</time>
      </trkpt>
      <trkpt lat="46.48201" lon="4.17668">
        <ele>244.6</ele>
        <time>2019-08-20T09:52:35Z</time>
      </trkpt>
      <trkpt lat="46.48197" lon="4.17665">
        <ele>244.6</ele>
        <time>2019-08-20T09:52:36Z</time>
      </trkpt>
      <trkpt lat="46.48192" lon="4.17662">
        <ele>244.6</ele>
        <time>2019-08-20T09:52:37Z</time>
      </trkpt>
      <trkpt lat="46.48187" lon="4.17659">
        <ele>244.5</ele>
        <time>2019-08-20T09:52:38Z</time>
      </trkpt>
      <trkpt lat="46.48182" lon="4.17656">
        <ele>244.5</ele>
        <time>2019-08-20T09:52:39Z</time>
      </trkpt>
      <trkpt lat="46.48177" lon="4.17653">
        <ele>244.5</ele>
        <time>2019-08-20T09:52:40Z</time>
      </trkpt>
      <trkpt lat="46.48173" lon="4.1765">
        <ele>244.5</ele>
        <time>2019-08-20T09:52:41Z</time>
      </trkpt>
      <trkpt lat="46.48167" lon="4.17647">
        <ele>244.4</ele>
        <time>2019-08-20T09:52:42Z</time>
      </trkpt>
      <trkpt lat="46.48162" lon="4.17644">
        <ele>244.4</ele>
        <time>2019-08-20T09:52:43Z</time>
      </trkpt>
      <trkpt lat="46.48156" lon="4.17641">
        <ele>244.3</ele>
        <time>2019-08-20T09:52:44Z</time>
      </trkpt>
      <trkpt lat="46.48151" lon="4.17639">
        <ele>244.3</ele>
        <time>2019-08-20T09:52:45Z</time>
      </trkpt>
      <trkpt lat="46.48145" lon="4.17637">
        <ele>244.2</ele>
        <time>2019-08-20T09:52:46Z</time>
      </trkpt>
      <trkpt lat="46.48139" lon="4.17636">
        <ele>244.2</ele>
        <time>2019-08-20T09:52:47Z</time>
      </trkpt>
      <trkpt lat="46.48133" lon="4.17634">
        <ele>244.1</ele>
        <time>2019-08-20T09:52:48Z</time>
      </trkpt>
      <trkpt lat="46.48127" lon="4.17632">
        <ele>244.1</ele>
        <time>2019-08-20T09:52:49Z</time>
      </trkpt>
      <trkpt lat="46.48121" lon="4.1763">
        <ele>244</ele>
        <time>2019-08-20T09:52:50Z</time>
      </trkpt>
      <trkpt lat="46.48116" lon="4.17629">
        <ele>244</ele>
        <time>2019-08-20T09:52:51Z</time>
      </trkpt>
      <trkpt lat="46.48111" lon="4.17628">
        <ele>244</ele>
        <time>2019-08-20T09:52:52Z</time>
      </trkpt>
      <trkpt lat="46.48106" lon="4.17626">
        <ele>244</ele>
        <time>2019-08-20T09:52:53Z</time>
      </trkpt>
      <trkpt lat="46.481" lon="4.17624">
        <ele>244</ele>
        <time>2019-08-20T09:52:54Z</time>
      </trkpt>
      <trkpt lat="46.48095" lon="4.17622">
        <ele>244</ele>
        <time>2019-08-20T09:52:55Z</time>
      </trkpt>
      <trkpt lat="46.48089" lon="4.1762">
        <ele>244</ele>
        <time>2019-08-20T09:52:56Z</time>
      </trkpt>
      <trkpt lat="46.48084" lon="4.17618">
        <ele>244</ele>
        <time>2019-08-20T09:52:57Z</time>
      </trkpt>
      <trkpt lat="46.48079" lon="4.17617">
        <ele>244</ele>
        <time>2019-08-20T09:52:58Z</time>
      </trkpt>
      <trkpt lat="46.48073" lon="4.17616">
        <ele>244</ele>
        <time>2019-08-20T09:52:59Z</time>
      </trkpt>
      <trkpt lat="46.48067" lon="4.17614">
        <ele>244</ele>
        <time>2019-08-20T09:53:00Z</time>
      </trkpt>
      <trkpt lat="46.48061" lon="4.17612">
        <ele>244.1</ele>
        <time>2019-08-20T09:53:01Z</time>
      </trkpt>
      <trkpt lat="46.48056" lon="4.1761">
        <ele>244.1</ele>
        <time>2019-08-20T09:53:02Z</time>
      </trkpt>
      <trkpt lat="46.48051" lon="4.17608">
        <ele>244.1</ele>
        <time>2019-08-20T09:53:03Z</time>
      </trkpt>
      <trkpt lat="46.48046" lon="4.17606">
        <ele>244.2</ele>
        <time>2019-08-20T09:53:04Z</time>
      </trkpt>
      <trkpt lat="46.48041" lon="4.17605">
        <ele>244.2</ele>
        <time>2019-08-20T09:53:05Z</time>
      </trkpt>
      <trkpt lat="46.48036" lon="4.17603">
        <ele>244.3</ele>
        <time>2019-08-20T09:53:06Z</time>
      </trkpt>
      <trkpt lat="46.48031" lon="4.17601">
        <ele>244.3</ele>
        <time>2019-08-20T09:53:07Z</time>
      </trkpt>
      <trkpt lat="46.48026" lon="4.17599">
        <ele>244.4</ele>
        <time>2019-08-20T09:53:08Z</time>
      </trkpt>
      <trkpt lat="46.48021" lon="4.17598">
        <ele>244.4</ele>
        <time>2019-08-20T09:53:09Z</time>
      </trkpt>
      <trkpt lat="46.48016" lon="4.17595">
        <ele>244.5</ele>
        <time>2019-08-20T09:53:10Z</time>
      </trkpt>
      <trkpt lat="46.48012" lon="4.17591">
        <ele>244.5</ele>
        <time>2019-08-20T09:53:11Z</time>
      </trkpt>
      <trkpt lat="46.48007" lon="4.17588">
        <ele>244.6</ele>
        <time>2019-08-20T09:53:12Z</time>
      </trkpt>
      <trkpt lat="46.48002" lon="4.17584">
        <ele>244.6</ele>
        <time>2019-08-20T09:53:13Z</time>
      </trkpt>
      <trkpt lat="46.47997" lon="4.17579">
        <ele>244.7</ele>
        <time>2019-08-20T09:53:14Z</time>
      </trkpt>
      <trkpt lat="46.47992" lon="4.17574">
        <ele>244.7</ele>
        <time>2019-08-20T09:53:15Z</time>
      </trkpt>
      <trkpt lat="46.47987" lon="4.17569">
        <ele>244.8</ele>
        <time>2019-08-20T09:53:16Z</time>
      </trkpt>
      <trkpt lat="46.47983" lon="4.17564">
        <ele>244.8</ele>
        <time>2019-08-20T09:53:17Z</time>
      </trkpt>
      <trkpt lat="46.47978" lon="4.17559">
        <ele>244.9</ele>
        <time>2019-08-20T09:53:18Z</time>
      </trkpt>
      <trkpt lat="46.47974" lon="4.17555">
        <ele>244.9</ele>
        <time>2019-08-20T09:53:19Z</time>
      </trkpt>
      <trkpt lat="46.4797" lon="4.17549">
        <ele>245</ele>
        <time>2019-08-20T09:53:20Z</time>
      </trkpt>
      <trkpt lat="46.47967" lon="4.17544">
        <ele>245</ele>
        <time>2019-08-20T09:53:21Z</time>
      </trkpt>
      <trkpt lat="46.47963" lon="4.17538">
        <ele>245.1</ele>
        <time>2019-08-20T09:53:22Z</time>
      </trkpt>
      <trkpt lat="46.4796" lon="4.17532">
        <ele>245.1</ele>
        <time>2019-08-20T09:53:23Z</time>
      </trkpt>
      <trkpt lat="46.47957" lon="4.17527">
        <ele>245.2</ele>
        <time>2019-08-20T09:53:24Z</time>
      </trkpt>
      <trkpt lat="46.47954" lon="4.17521">
        <ele>245.2</ele>
        <time>2019-08-20T09:53:25Z</time>
      </trkpt>
      <trkpt lat="46.47951" lon="4.17516">
        <ele>245.3</ele>
        <time>2019-08-20T09:53:26Z</time>
      </trkpt>
      <trkpt lat="46.47948" lon="4.1751">
        <ele>245.4</ele>
        <time>2019-08-20T09:53:27Z</time>
      </trkpt>
      <trkpt lat="46.47945" lon="4.17504">
        <ele>245.4</ele>
        <time>2019-08-20T09:53:28Z</time>
      </trkpt>
      <trkpt lat="46.47942" lon="4.17499">
        <ele>245.5</ele>
        <time>2019-08-20T09:53:29Z</time>
      </trkpt>
      <trkpt lat="46.47938" lon="4.17494">
        <ele>245.6</ele>
        <time>2019-08-20T09:53:30Z</time>
      </trkpt>
      <trkpt lat="46.47934" lon="4.1749">
        <ele>245.6</ele>
        <time>2019-08-20T09:53:31Z</time>
      </trkpt>
      <trkpt lat="46.4793" lon="4.17485">
        <ele>245.6</ele>
        <time>2019-08-20T09:53:32Z</time>
      </trkpt>
      <trkpt lat="46.47927" lon="4.1748">
        <ele>245.6</ele>
        <time>2019-08-20T09:53:33Z</time>
      </trkpt>
      <trkpt lat="46.47924" lon="4.17474">
        <ele>245.7</ele>
        <time>2019-08-20T09:53:34Z</time>
      </trkpt>
      <trkpt lat="46.47921" lon="4.17467">
        <ele>245.6</ele>
        <time>2019-08-20T09:53:35Z</time>
      </trkpt>
      <trkpt lat="46.47917" lon="4.17461">
        <ele>245.6</ele>
        <time>2019-08-20T09:53:36Z</time>
      </trkpt>
      <trkpt lat="46.47914" lon="4.17454">
        <ele>245.5</ele>
        <time>2019-08-20T09:53:37Z</time>
      </trkpt>
      <trkpt lat="46.47909" lon="4.17447">
        <ele>245.4</ele>
        <time>2019-08-20T09:53:38Z</time>
      </trkpt>
      <trkpt lat="46.47905" lon="4.17439">
        <ele>245.3</ele>
        <time>2019-08-20T09:53:39Z</time>
      </trkpt>
      <trkpt lat="46.479" lon="4.17432">
        <ele>245.1</ele>
        <time>2019-08-20T09:53:40Z</time>
      </trkpt>
      <trkpt lat="46.47895" lon="4.17424">
        <ele>244.8</ele>
        <time>2019-08-20T09:53:41Z</time>
      </trkpt>
      <trkpt lat="46.47891" lon="4.17415">
        <ele>244.6</ele>
        <time>2019-08-20T09:53:42Z</time>
      </trkpt>
      <trkpt lat="46.47887" lon="4.17408">
        <ele>244.4</ele>
        <time>2019-08-20T09:53:43Z</time>
      </trkpt>
      <trkpt lat="46.47882" lon="4.17401">
        <ele>244.2</ele>
        <time>2019-08-20T09:53:44Z</time>
      </trkpt>
      <trkpt lat="46.47878" lon="4.17393">
        <ele>244</ele>
        <time>2019-08-20T09:53:45Z</time>
      </trkpt>
      <trkpt lat="46.47874" lon="4.17386">
        <ele>243.9</ele>
        <time>2019-08-20T09:53:46Z</time>
      </trkpt>
      <trkpt lat="46.47869" lon="4.17379">
        <ele>243.8</ele>
        <time>2019-08-20T09:53:47Z</time>
      </trkpt>
      <trkpt lat="46.47865" lon="4.17373">
        <ele>243.7</ele>
        <time>2019-08-20T09:53:48Z</time>
      </trkpt>
      <trkpt lat="46.4786" lon="4.17366">
        <ele>243.6</ele>
        <time>2019-08-20T09:53:49Z</time>
      </trkpt>
      <trkpt lat="46.47856" lon="4.17359">
        <ele>243.6</ele>
        <time>2019-08-20T09:53:50Z</time>
      </trkpt>
      <trkpt lat="46.47852" lon="4.17352">
        <ele>243.6</ele>
        <time>2019-08-20T09:53:51Z</time>
      </trkpt>
      <trkpt lat="46.47847" lon="4.17345">
        <ele>243.6</ele>
        <time>2019-08-20T09:53:52Z</time>
      </trkpt>
      <trkpt lat="46.47843" lon="4.17338">
        <ele>243.6</ele>
        <time>2019-08-20T09:53:53Z</time>
      </trkpt>
      <trkpt lat="46.47839" lon="4.17333">
        <ele>243.6</ele>
        <time>2019-08-20T09:53:54Z</time>
      </trkpt>
      <trkpt lat="46.47834" lon="4.17328">
        <ele>243.6</ele>
        <time>2019-08-20T09:53:55Z</time>
      </trkpt>
      <trkpt lat="46.4783" lon="4.17322">
        <ele>243.6</ele>
        <time>2019-08-20T09:53:56Z</time>
      </trkpt>
      <trkpt lat="46.47825" lon="4.17318">
        <ele>243.6</ele>
        <time>2019-08-20T09:53:57Z</time>
      </trkpt>
      <trkpt lat="46.47821" lon="4.17313">
        <ele>243.6</ele>
        <time>2019-08-20T09:53:58Z</time>
      </trkpt>
      <trkpt lat="46.47816" lon="4.17309">
        <ele>243.5</ele>
        <time>2019-08-20T09:53:59Z</time>
      </trkpt>
      <trkpt lat="46.47811" lon="4.17304">
        <ele>243.5</ele>
        <time>2019-08-20T09:54:00Z</time>
      </trkpt>
      <trkpt lat="46.47806" lon="4.173">
        <ele>243.4</ele>
        <time>2019-08-20T09:54:01Z</time>
      </trkpt>
      <trkpt lat="46.47801" lon="4.17296">
        <ele>243.4</ele>
        <time>2019-08-20T09:54:02Z</time>
      </trkpt>
      <trkpt lat="46.47795" lon="4.17293">
        <ele>243.3</ele>
        <time>2019-08-20T09:54:03Z</time>
      </trkpt>
      <trkpt lat="46.4779" lon="4.1729">
        <ele>243.3</ele>
        <time>2019-08-20T09:54:04Z</time>
      </trkpt>
      <trkpt lat="46.47784" lon="4.17288">
        <ele>243.3</ele>
        <time>2019-08-20T09:54:05Z</time>
      </trkpt>
      <trkpt lat="46.47778" lon="4.17286">
        <ele>243.3</ele>
        <time>2019-08-20T09:54:06Z</time>
      </trkpt>
      <trkpt lat="46.47771" lon="4.17284">
        <ele>243.2</ele>
        <time>2019-08-20T09:54:07Z</time>
      </trkpt>
      <trkpt lat="46.47765" lon="4.17282">
        <ele>243.2</ele>
        <time>2019-08-20T09:54:08Z</time>
      </trkpt>
      <trkpt lat="46.47759" lon="4.17279">
        <ele>243.2</ele>
        <time>2019-08-20T09:54:09Z</time>
      </trkpt>
      <trkpt lat="46.47754" lon="4.17277">
        <ele>243.2</ele>
        <time>2019-08-20T09:54:10Z</time>
      </trkpt>
      <trkpt lat="46.47748" lon="4.17274">
        <ele>243.1</ele>
        <time>2019-08-20T09:54:11Z</time>
      </trkpt>
      <trkpt lat="46.47743" lon="4.17272">
        <ele>243.1</ele>
        <time>2019-08-20T09:54:12Z</time>
      </trkpt>
      <trkpt lat="46.47738" lon="4.17269">
        <ele>243.1</ele>
        <time>2019-08-20T09:54:13Z</time>
      </trkpt>
      <trkpt lat="46.47733" lon="4.17267">
        <ele>243</ele>
        <time>2019-08-20T09:54:14Z</time>
      </trkpt>
      <trkpt lat="46.47728" lon="4.17266">
        <ele>243</ele>
        <time>2019-08-20T09:54:15Z</time>
      </trkpt>
      <trkpt lat="46.47724" lon="4.17264">
        <ele>243</ele>
        <time>2019-08-20T09:54:16Z</time>
      </trkpt>
      <trkpt lat="46.47718" lon="4.17262">
        <ele>242.9</ele>
        <time>2019-08-20T09:54:17Z</time>
      </trkpt>
      <trkpt lat="46.47713" lon="4.1726">
        <ele>242.8</ele>
        <time>2019-08-20T09:54:18Z</time>
      </trkpt>
      <trkpt lat="46.47708" lon="4.17258">
        <ele>242.8</ele>
        <time>2019-08-20T09:54:19Z</time>
      </trkpt>
      <trkpt lat="46.47704" lon="4.17255">
        <ele>242.8</ele>
        <time>2019-08-20T09:54:20Z</time>
      </trkpt>
      <trkpt lat="46.47699" lon="4.17253">
        <ele>242.7</ele>
        <time>2019-08-20T09:54:21Z</time>
      </trkpt>
      <trkpt lat="46.47695" lon="4.17252">
        <ele>242.7</ele>
        <time>2019-08-20T09:54:22Z</time>
      </trkpt>
      <trkpt lat="46.4769" lon="4.17251">
        <ele>242.7</ele>
        <time>2019-08-20T09:54:23Z</time>
      </trkpt>
      <trkpt lat="46.47686" lon="4.17249">
        <ele>242.7</ele>
        <time>2019-08-20T09:54:24Z</time>
      </trkpt>
      <trkpt lat="46.4768" lon="4.17248">
        <ele>242.8</ele>
        <time>2019-08-20T09:54:25Z</time>
      </trkpt>
      <trkpt lat="46.47675" lon="4.17246">
        <ele>242.8</ele>
        <time>2019-08-20T09:54:26Z</time>
      </trkpt>
      <trkpt lat="46.47671" lon="4.17245">
        <ele>242.9</ele>
        <time>2019-08-20T09:54:27Z</time>
      </trkpt>
      <trkpt lat="46.47666" lon="4.17243">
        <ele>243.1</ele>
        <time>2019-08-20T09:54:28Z</time>
      </trkpt>
      <trkpt lat="46.4766" lon="4.17242">
        <ele>243.2</ele>
        <time>2019-08-20T09:54:29Z</time>
      </trkpt>
      <trkpt lat="46.47656" lon="4.1724">
        <ele>243.3</ele>
        <time>2019-08-20T09:54:30Z</time>
      </trkpt>
      <trkpt lat="46.47651" lon="4.17239">
        <ele>243.3</ele>
        <time>2019-08-20T09:54:31Z</time>
      </trkpt>
      <trkpt lat="46.47646" lon="4.17237">
        <ele>243.4</ele>
        <time>2019-08-20T09:54:32Z</time>
      </trkpt>
      <trkpt lat="46.47641" lon="4.17236">
        <ele>243.5</ele>
        <time>2019-08-20T09:54:33Z</time>
      </trkpt>
      <trkpt lat="46.47636" lon="4.17234">
        <ele>243.5</ele>
        <time>2019-08-20T09:54:34Z</time>
      </trkpt>
      <trkpt lat="46.47631" lon="4.17232">
        <ele>243.5</ele>
        <time>2019-08-20T09:54:35Z</time>
      </trkpt>
      <trkpt lat="46.47626" lon="4.17231">
        <ele>243.5</ele>
        <time>2019-08-20T09:54:36Z</time>
      </trkpt>
      <trkpt lat="46.4762" lon="4.1723">
        <ele>243.5</ele>
        <time>2019-08-20T09:54:37Z</time>
      </trkpt>
      <trkpt lat="46.47615" lon="4.17229">
        <ele>243.5</ele>
        <time>2019-08-20T09:54:38Z</time>
      </trkpt>
      <trkpt lat="46.4761" lon="4.17227">
        <ele>243.5</ele>
        <time>2019-08-20T09:54:39Z</time>
      </trkpt>
      <trkpt lat="46.47603" lon="4.17226">
        <ele>243.5</ele>
        <time>2019-08-20T09:54:40Z</time>
      </trkpt>
      <trkpt lat="46.47598" lon="4.17224">
        <ele>243.5</ele>
        <time>2019-08-20T09:54:41Z</time>
      </trkpt>
      <trkpt lat="46.47592" lon="4.17223">
        <ele>243.6</ele>
        <time>2019-08-20T09:54:42Z</time>
      </trkpt>
      <trkpt lat="46.47586" lon="4.17222">
        <ele>243.6</ele>
        <time>2019-08-20T09:54:43Z</time>
      </trkpt>
      <trkpt lat="46.47581" lon="4.1722">
        <ele>243.6</ele>
        <time>2019-08-20T09:54:44Z</time>
      </trkpt>
      <trkpt lat="46.47575" lon="4.17218">
        <ele>243.6</ele>
        <time>2019-08-20T09:54:45Z</time>
      </trkpt>
      <trkpt lat="46.47569" lon="4.17217">
        <ele>243.6</ele>
        <time>2019-08-20T09:54:46Z</time>
      </trkpt>
      <trkpt lat="46.47564" lon="4.17216">
        <ele>243.5</ele>
        <time>2019-08-20T09:54:47Z</time>
      </trkpt>
      <trkpt lat="46.47559" lon="4.17215">
        <ele>243.5</ele>
        <time>2019-08-20T09:54:48Z</time>
      </trkpt>
      <trkpt lat="46.47555" lon="4.17214">
        <ele>243.5</ele>
        <time>2019-08-20T09:54:49Z</time>
      </trkpt>
      <trkpt lat="46.4755" lon="4.17214">
        <ele>243.5</ele>
        <time>2019-08-20T09:54:50Z</time>
      </trkpt>
      <trkpt lat="46.47545" lon="4.17213">
        <ele>243.4</ele>
        <time>2019-08-20T09:54:51Z</time>
      </trkpt>
      <trkpt lat="46.4754" lon="4.17212">
        <ele>243.3</ele>
        <time>2019-08-20T09:54:52Z</time>
      </trkpt>
      <trkpt lat="46.47534" lon="4.17211">
        <ele>243.2</ele>
        <time>2019-08-20T09:54:53Z</time>
      </trkpt>
      <trkpt lat="46.47529" lon="4.1721">
        <ele>243.1</ele>
        <time>2019-08-20T09:54:54Z</time>
      </trkpt>
      <trkpt lat="46.47523" lon="4.17209">
        <ele>243</ele>
        <time>2019-08-20T09:54:55Z</time>
      </trkpt>
      <trkpt lat="46.47518" lon="4.17208">
        <ele>242.8</ele>
        <time>2019-08-20T09:54:56Z</time>
      </trkpt>
      <trkpt lat="46.47512" lon="4.17206">
        <ele>242.7</ele>
        <time>2019-08-20T09:54:57Z</time>
      </trkpt>
      <trkpt lat="46.47507" lon="4.17205">
        <ele>242.6</ele>
        <time>2019-08-20T09:54:58Z</time>
      </trkpt>
      <trkpt lat="46.47501" lon="4.17203">
        <ele>242.6</ele>
        <time>2019-08-20T09:54:59Z</time>
      </trkpt>
      <trkpt lat="46.47495" lon="4.17203">
        <ele>242.6</ele>
        <time>2019-08-20T09:55:00Z</time>
      </trkpt>
      <trkpt lat="46.4749" lon="4.17202">
        <ele>242.6</ele>
        <time>2019-08-20T09:55:01Z</time>
      </trkpt>
      <trkpt lat="46.47484" lon="4.17201">
        <ele>242.7</ele>
        <time>2019-08-20T09:55:02Z</time>
      </trkpt>
      <trkpt lat="46.47479" lon="4.17199">
        <ele>242.8</ele>
        <time>2019-08-20T09:55:03Z</time>
      </trkpt>
      <trkpt lat="46.47474" lon="4.17198">
        <ele>242.9</ele>
        <time>2019-08-20T09:55:04Z</time>
      </trkpt>
      <trkpt lat="46.47469" lon="4.17197">
        <ele>243</ele>
        <time>2019-08-20T09:55:05Z</time>
      </trkpt>
      <trkpt lat="46.47464" lon="4.17196">
        <ele>243.1</ele>
        <time>2019-08-20T09:55:06Z</time>
      </trkpt>
      <trkpt lat="46.47459" lon="4.17195">
        <ele>243.1</ele>
        <time>2019-08-20T09:55:07Z</time>
      </trkpt>
      <trkpt lat="46.47454" lon="4.17194">
        <ele>243.2</ele>
        <time>2019-08-20T09:55:08Z</time>
      </trkpt>
      <trkpt lat="46.47449" lon="4.17193">
        <ele>243.2</ele>
        <time>2019-08-20T09:55:09Z</time>
      </trkpt>
      <trkpt lat="46.47443" lon="4.17192">
        <ele>243.2</ele>
        <time>2019-08-20T09:55:10Z</time>
      </trkpt>
      <trkpt lat="46.47437" lon="4.17191">
        <ele>243.2</ele>
        <time>2019-08-20T09:55:11Z</time>
      </trkpt>
      <trkpt lat="46.47432" lon="4.1719">
        <ele>243.1</ele>
        <time>2019-08-20T09:55:12Z</time>
      </trkpt>
      <trkpt lat="46.47427" lon="4.17189">
        <ele>243.1</ele>
        <time>2019-08-20T09:55:13Z</time>
      </trkpt>
      <trkpt lat="46.4742" lon="4.17189">
        <ele>243</ele>
        <time>2019-08-20T09:55:14Z</time>
      </trkpt>
      <trkpt lat="46.47414" lon="4.17188">
        <ele>243</ele>
        <time>2019-08-20T09:55:15Z</time>
      </trkpt>
      <trkpt lat="46.47408" lon="4.17187">
        <ele>242.9</ele>
        <time>2019-08-20T09:55:16Z</time>
      </trkpt>
      <trkpt lat="46.47402" lon="4.17186">
        <ele>242.9</ele>
        <time>2019-08-20T09:55:17Z</time>
      </trkpt>
      <trkpt lat="46.47396" lon="4.17185">
        <ele>242.9</ele>
        <time>2019-08-20T09:55:18Z</time>
      </trkpt>
      <trkpt lat="46.4739" lon="4.17183">
        <ele>242.9</ele>
        <time>2019-08-20T09:55:19Z</time>
      </trkpt>
      <trkpt lat="46.47384" lon="4.1718">
        <ele>243</ele>
        <time>2019-08-20T09:55:20Z</time>
      </trkpt>
      <trkpt lat="46.47378" lon="4.17177">
        <ele>243.1</ele>
        <time>2019-08-20T09:55:21Z</time>
      </trkpt>
      <trkpt lat="46.47373" lon="4.17176">
        <ele>243.2</ele>
        <time>2019-08-20T09:55:22Z</time>
      </trkpt>
      <trkpt lat="46.47367" lon="4.17173">
        <ele>243.3</ele>
        <time>2019-08-20T09:55:23Z</time>
      </trkpt>
      <trkpt lat="46.47362" lon="4.17171">
        <ele>243.5</ele>
        <time>2019-08-20T09:55:24Z</time>
      </trkpt>
      <trkpt lat="46.47357" lon="4.17168">
        <ele>243.6</ele>
        <time>2019-08-20T09:55:25Z</time>
      </trkpt>
      <trkpt lat="46.47352" lon="4.17165">
        <ele>243.8</ele>
        <time>2019-08-20T09:55:26Z</time>
      </trkpt>
      <trkpt lat="46.47348" lon="4.17163">
        <ele>243.9</ele>
        <time>2019-08-20T09:55:27Z</time>
      </trkpt>
      <trkpt lat="46.47344" lon="4.1716">
        <ele>243.9</ele>
        <time>2019-08-20T09:55:28Z</time>
      </trkpt>
      <trkpt lat="46.4734" lon="4.17157">
        <ele>244</ele>
        <time>2019-08-20T09:55:29Z</time>
      </trkpt>
      <trkpt lat="46.47336" lon="4.17153">
        <ele>244</ele>
        <time>2019-08-20T09:55:30Z</time>
      </trkpt>
      <trkpt lat="46.47333" lon="4.17149">
        <ele>244</ele>
        <time>2019-08-20T09:55:31Z</time>
      </trkpt>
      <trkpt lat="46.4733" lon="4.17145">
        <ele>243.9</ele>
        <time>2019-08-20T09:55:32Z</time>
      </trkpt>
      <trkpt lat="46.47326" lon="4.17139">
        <ele>243.9</ele>
        <time>2019-08-20T09:55:33Z</time>
      </trkpt>
      <trkpt lat="46.47323" lon="4.17135">
        <ele>243.8</ele>
        <time>2019-08-20T09:55:34Z</time>
      </trkpt>
      <trkpt lat="46.47319" lon="4.1713">
        <ele>243.6</ele>
        <time>2019-08-20T09:55:35Z</time>
      </trkpt>
      <trkpt lat="46.47315" lon="4.17125">
        <ele>243.5</ele>
        <time>2019-08-20T09:55:36Z</time>
      </trkpt>
      <trkpt lat="46.47311" lon="4.1712">
        <ele>243.4</ele>
        <time>2019-08-20T09:55:37Z</time>
      </trkpt>
      <trkpt lat="46.47307" lon="4.17114">
        <ele>243.2</ele>
        <time>2019-08-20T09:55:38Z</time>
      </trkpt>
      <trkpt lat="46.47303" lon="4.17109">
        <ele>243.1</ele>
        <time>2019-08-20T09:55:39Z</time>
      </trkpt>
      <trkpt lat="46.47299" lon="4.17104">
        <ele>243</ele>
        <time>2019-08-20T09:55:40Z</time>
      </trkpt>
      <trkpt lat="46.47295" lon="4.17098">
        <ele>242.9</ele>
        <time>2019-08-20T09:55:41Z</time>
      </trkpt>
      <trkpt lat="46.47292" lon="4.17092">
        <ele>242.8</ele>
        <time>2019-08-20T09:55:42Z</time>
      </trkpt>
      <trkpt lat="46.47288" lon="4.17087">
        <ele>242.8</ele>
        <time>2019-08-20T09:55:43Z</time>
      </trkpt>
      <trkpt lat="46.47284" lon="4.17081">
        <ele>242.8</ele>
        <time>2019-08-20T09:55:44Z</time>
      </trkpt>
      <trkpt lat="46.4728" lon="4.17076">
        <ele>242.8</ele>
        <time>2019-08-20T09:55:45Z</time>
      </trkpt>
      <trkpt lat="46.47277" lon="4.17071">
        <ele>242.9</ele>
        <time>2019-08-20T09:55:46Z</time>
      </trkpt>
      <trkpt lat="46.47273" lon="4.17066">
        <ele>242.9</ele>
        <time>2019-08-20T09:55:47Z</time>
      </trkpt>
      <trkpt lat="46.47269" lon="4.17062">
        <ele>242.9</ele>
        <time>2019-08-20T09:55:48Z</time>
      </trkpt>
      <trkpt lat="46.47266" lon="4.17057">
        <ele>243</ele>
        <time>2019-08-20T09:55:49Z</time>
      </trkpt>
      <trkpt lat="46.47262" lon="4.17052">
        <ele>243.1</ele>
        <time>2019-08-20T09:55:50Z</time>
      </trkpt>
      <trkpt lat="46.47259" lon="4.17047">
        <ele>243.1</ele>
        <time>2019-08-20T09:55:51Z</time>
      </trkpt>
      <trkpt lat="46.47256" lon="4.17041">
        <ele>243.2</ele>
        <time>2019-08-20T09:55:52Z</time>
      </trkpt>
      <trkpt lat="46.47252" lon="4.17035">
        <ele>243.3</ele>
        <time>2019-08-20T09:55:53Z</time>
      </trkpt>
      <trkpt lat="46.47248" lon="4.17029">
        <ele>243.4</ele>
        <time>2019-08-20T09:55:54Z</time>
      </trkpt>
      <trkpt lat="46.47245" lon="4.17022">
        <ele>243.4</ele>
        <time>2019-08-20T09:55:55Z</time>
      </trkpt>
      <trkpt lat="46.47241" lon="4.17017">
        <ele>243.5</ele>
        <time>2019-08-20T09:55:56Z</time>
      </trkpt>
      <trkpt lat="46.47237" lon="4.17011">
        <ele>243.6</ele>
        <time>2019-08-20T09:55:57Z</time>
      </trkpt>
      <trkpt lat="46.47233" lon="4.17005">
        <ele>243.7</ele>
        <time>2019-08-20T09:55:58Z</time>
      </trkpt>
      <trkpt lat="46.4723" lon="4.16998">
        <ele>243.8</ele>
        <time>2019-08-20T09:55:59Z</time>
      </trkpt>
      <trkpt lat="46.47226" lon="4.16993">
        <ele>243.9</ele>
        <time>2019-08-20T09:56:00Z</time>
      </trkpt>
      <trkpt lat="46.47222" lon="4.16988">
        <ele>243.9</ele>
        <time>2019-08-20T09:56:01Z</time>
      </trkpt>
      <trkpt lat="46.47219" lon="4.16983">
        <ele>243.8</ele>
        <time>2019-08-20T09:56:02Z</time>
      </trkpt>
      <trkpt lat="46.47215" lon="4.16978">
        <ele>243.8</ele>
        <time>2019-08-20T09:56:03Z</time>
      </trkpt>
      <trkpt lat="46.47211" lon="4.16972">
        <ele>243.7</ele>
        <time>2019-08-20T09:56:04Z</time>
      </trkpt>
      <trkpt lat="46.47208" lon="4.16967">
        <ele>243.5</ele>
        <time>2019-08-20T09:56:05Z</time>
      </trkpt>
      <trkpt lat="46.47204" lon="4.16961">
        <ele>243.4</ele>
        <time>2019-08-20T09:56:06Z</time>
      </trkpt>
      <trkpt lat="46.472" lon="4.16956">
        <ele>243.2</ele>
        <time>2019-08-20T09:56:07Z</time>
      </trkpt>
      <trkpt lat="46.47195" lon="4.16951">
        <ele>243.1</ele>
        <time>2019-08-20T09:56:08Z</time>
      </trkpt>
      <trkpt lat="46.47191" lon="4.16946">
        <ele>243</ele>
        <time>2019-08-20T09:56:09Z</time>
      </trkpt>
      <trkpt lat="46.47187" lon="4.16939">
        <ele>242.9</ele>
        <time>2019-08-20T09:56:10Z</time>
      </trkpt>
      <trkpt lat="46.47184" lon="4.16934">
        <ele>242.8</ele>
        <time>2019-08-20T09:56:11Z</time>
      </trkpt>
      <trkpt lat="46.4718" lon="4.16928">
        <ele>242.8</ele>
        <time>2019-08-20T09:56:12Z</time>
      </trkpt>
      <trkpt lat="46.47176" lon="4.16922">
        <ele>242.9</ele>
        <time>2019-08-20T09:56:13Z</time>
      </trkpt>
      <trkpt lat="46.47172" lon="4.16916">
        <ele>242.9</ele>
        <time>2019-08-20T09:56:14Z</time>
      </trkpt>
      <trkpt lat="46.47168" lon="4.1691">
        <ele>243</ele>
        <time>2019-08-20T09:56:15Z</time>
      </trkpt>
      <trkpt lat="46.47164" lon="4.16905">
        <ele>243.1</ele>
        <time>2019-08-20T09:56:16Z</time>
      </trkpt>
      <trkpt lat="46.47159" lon="4.169">
        <ele>243.2</ele>
        <time>2019-08-20T09:56:17Z</time>
      </trkpt>
      <trkpt lat="46.47155" lon="4.16894">
        <ele>243.3</ele>
        <time>2019-08-20T09:56:18Z</time>
      </trkpt>
      <trkpt lat="46.47151" lon="4.16888">
        <ele>243.3</ele>
        <time>2019-08-20T09:56:19Z</time>
      </trkpt>
      <trkpt lat="46.47147" lon="4.16884">
        <ele>243.3</ele>
        <time>2019-08-20T09:56:20Z</time>
      </trkpt>
      <trkpt lat="46.47142" lon="4.1688">
        <ele>243.4</ele>
        <time>2019-08-20T09:56:21Z</time>
      </trkpt>
      <trkpt lat="46.47139" lon="4.16874">
        <ele>243.4</ele>
        <time>2019-08-20T09:56:22Z</time>
      </trkpt>
      <trkpt lat="46.47135" lon="4.16868">
        <ele>243.4</ele>
        <time>2019-08-20T09:56:23Z</time>
      </trkpt>
      <trkpt lat="46.47132" lon="4.16863">
        <ele>243.5</ele>
        <time>2019-08-20T09:56:24Z</time>
      </trkpt>
      <trkpt lat="46.47128" lon="4.16858">
        <ele>243.5</ele>
        <time>2019-08-20T09:56:25Z</time>
      </trkpt>
      <trkpt lat="46.47125" lon="4.16852">
        <ele>243.5</ele>
        <time>2019-08-20T09:56:26Z</time>
      </trkpt>
      <trkpt lat="46.47121" lon="4.16847">
        <ele>243.5</ele>
        <time>2019-08-20T09:56:27Z</time>
      </trkpt>
      <trkpt lat="46.47118" lon="4.16841">
        <ele>243.5</ele>
        <time>2019-08-20T09:56:28Z</time>
      </trkpt>
      <trkpt lat="46.47115" lon="4.16835">
        <ele>243.5</ele>
        <time>2019-08-20T09:56:29Z</time>
      </trkpt>
      <trkpt lat="46.47111" lon="4.1683">
        <ele>243.4</ele>
        <time>2019-08-20T09:56:30Z</time>
      </trkpt>
      <trkpt lat="46.47107" lon="4.16824">
        <ele>243.4</ele>
        <time>2019-08-20T09:56:31Z</time>
      </trkpt>
      <trkpt lat="46.47104" lon="4.16818">
        <ele>243.4</ele>
        <time>2019-08-20T09:56:32Z</time>
      </trkpt>
      <trkpt lat="46.47101" lon="4.16811">
        <ele>243.4</ele>
        <time>2019-08-20T09:56:33Z</time>
      </trkpt>
      <trkpt lat="46.47097" lon="4.16805">
        <ele>243.4</ele>
        <time>2019-08-20T09:56:34Z</time>
      </trkpt>
      <trkpt lat="46.47093" lon="4.168">
        <ele>243.4</ele>
        <time>2019-08-20T09:56:35Z</time>
      </trkpt>
      <trkpt lat="46.4709" lon="4.16793">
        <ele>243.5</ele>
        <time>2019-08-20T09:56:36Z</time>
      </trkpt>
      <trkpt lat="46.47087" lon="4.16787">
        <ele>243.5</ele>
        <time>2019-08-20T09:56:37Z</time>
      </trkpt>
      <trkpt lat="46.47083" lon="4.16782">
        <ele>243.5</ele>
        <time>2019-08-20T09:56:38Z</time>
      </trkpt>
      <trkpt lat="46.47079" lon="4.16776">
        <ele>243.5</ele>
        <time>2019-08-20T09:56:39Z</time>
      </trkpt>
      <trkpt lat="46.47075" lon="4.16771">
        <ele>243.5</ele>
        <time>2019-08-20T09:56:40Z</time>
      </trkpt>
      <trkpt lat="46.47071" lon="4.16765">
        <ele>243.5</ele>
        <time>2019-08-20T09:56:41Z</time>
      </trkpt>
      <trkpt lat="46.47066" lon="4.16759">
        <ele>243.5</ele>
        <time>2019-08-20T09:56:42Z</time>
      </trkpt>
      <trkpt lat="46.47062" lon="4.16752">
        <ele>243.5</ele>
        <time>2019-08-20T09:56:43Z</time>
      </trkpt>
      <trkpt lat="46.47058" lon="4.16746">
        <ele>243.5</ele>
        <time>2019-08-20T09:56:44Z</time>
      </trkpt>
      <trkpt lat="46.47054" lon="4.1674">
        <ele>243.4</ele>
        <time>2019-08-20T09:56:45Z</time>
      </trkpt>
      <trkpt lat="46.4705" lon="4.16736">
        <ele>243.4</ele>
        <time>2019-08-20T09:56:46Z</time>
      </trkpt>
      <trkpt lat="46.47045" lon="4.16729">
        <ele>243.3</ele>
        <time>2019-08-20T09:56:47Z</time>
      </trkpt>
      <trkpt lat="46.4704" lon="4.16725">
        <ele>243.2</ele>
        <time>2019-08-20T09:56:48Z</time>
      </trkpt>
      <trkpt lat="46.47036" lon="4.16719">
        <ele>243.1</ele>
        <time>2019-08-20T09:56:49Z</time>
      </trkpt>
      <trkpt lat="46.47032" lon="4.16713">
        <ele>243.1</ele>
        <time>2019-08-20T09:56:50Z</time>
      </trkpt>
      <trkpt lat="46.47028" lon="4.16708">
        <ele>243.1</ele>
        <time>2019-08-20T09:56:51Z</time>
      </trkpt>
      <trkpt lat="46.47024" lon="4.16703">
        <ele>243</ele>
        <time>2019-08-20T09:56:52Z</time>
      </trkpt>
      <trkpt lat="46.47021" lon="4.16698">
        <ele>243.1</ele>
        <time>2019-08-20T09:56:53Z</time>
      </trkpt>
      <trkpt lat="46.47017" lon="4.16693">
        <ele>243.1</ele>
        <time>2019-08-20T09:56:54Z</time>
      </trkpt>
      <trkpt lat="46.47014" lon="4.16688">
        <ele>243.2</ele>
        <time>2019-08-20T09:56:55Z</time>
      </trkpt>
      <trkpt lat="46.4701" lon="4.16682">
        <ele>243.3</ele>
        <time>2019-08-20T09:56:56Z</time>
      </trkpt>
      <trkpt lat="46.47007" lon="4.16678">
        <ele>243.5</ele>
        <time>2019-08-20T09:56:57Z</time>
      </trkpt>
      <trkpt lat="46.47003" lon="4.16674">
        <ele>243.6</ele>
        <time>2019-08-20T09:56:58Z</time>
      </trkpt>
      <trkpt lat="46.47" lon="4.16669">
        <ele>243.7</ele>
        <time>2019-08-20T09:56:59Z</time>
      </trkpt>
      <trkpt lat="46.46997" lon="4.16666">
        <ele>243.8</ele>
        <time>2019-08-20T09:57:00Z</time>
      </trkpt>
      <trkpt lat="46.46994" lon="4.16662">
        <ele>243.9</ele>
        <time>2019-08-20T09:57:01Z</time>
      </trkpt>
      <trkpt lat="46.46992" lon="4.16658">
        <ele>243.9</ele>
        <time>2019-08-20T09:57:02Z</time>
      </trkpt>
      <trkpt lat="46.46989" lon="4.16654">
        <ele>244</ele>
        <time>2019-08-20T09:57:03Z</time>
      </trkpt>
      <trkpt lat="46.46986" lon="4.1665">
        <ele>244</ele>
        <time>2019-08-20T09:57:04Z</time>
      </trkpt>
      <trkpt lat="46.46982" lon="4.16647">
        <ele>244.1</ele>
        <time>2019-08-20T09:57:05Z</time>
      </trkpt>
      <trkpt lat="46.46978" lon="4.16644">
        <ele>244.1</ele>
        <time>2019-08-20T09:57:06Z</time>
      </trkpt>
      <trkpt lat="46.46974" lon="4.1664">
        <ele>244.3</ele>
        <time>2019-08-20T09:57:07Z</time>
      </trkpt>
      <trkpt lat="46.4697" lon="4.16637">
        <ele>244.3</ele>
        <time>2019-08-20T09:57:08Z</time>
      </trkpt>
      <trkpt lat="46.46967" lon="4.16635">
        <ele>244.3</ele>
        <time>2019-08-20T09:57:09Z</time>
      </trkpt>
      <trkpt lat="46.46963" lon="4.16633">
        <ele>244.3</ele>
        <time>2019-08-20T09:57:10Z</time>
      </trkpt>
      <trkpt lat="46.46959" lon="4.1663">
        <ele>244.3</ele>
        <time>2019-08-20T09:57:11Z</time>
      </trkpt>
      <trkpt lat="46.46956" lon="4.16626">
        <ele>244.3</ele>
        <time>2019-08-20T09:57:12Z</time>
      </trkpt>
      <trkpt lat="46.46952" lon="4.16623">
        <ele>244.4</ele>
        <time>2019-08-20T09:57:13Z</time>
      </trkpt>
      <trkpt lat="46.46949" lon="4.1662">
        <ele>244.4</ele>
        <time>2019-08-20T09:57:14Z</time>
      </trkpt>
      <trkpt lat="46.46946" lon="4.16618">
        <ele>244.4</ele>
        <time>2019-08-20T09:57:15Z</time>
      </trkpt>
      <trkpt lat="46.46943" lon="4.16617">
        <ele>244.4</ele>
        <time>2019-08-20T09:57:16Z</time>
      </trkpt>
      <trkpt lat="46.46939" lon="4.16614">
        <ele>244.4</ele>
        <time>2019-08-20T09:57:18Z</time>
      </trkpt>
      <trkpt lat="46.46935" lon="4.16611">
        <ele>244.5</ele>
        <time>2019-08-20T09:57:20Z</time>
      </trkpt>
      <trkpt lat="46.46931" lon="4.16609">
        <ele>244.5</ele>
        <time>2019-08-20T09:57:21Z</time>
      </trkpt>
      <trkpt lat="46.46928" lon="4.16606">
        <ele>244.5</ele>
        <time>2019-08-20T09:57:22Z</time>
      </trkpt>
      <trkpt lat="46.46924" lon="4.16603">
        <ele>244.5</ele>
        <time>2019-08-20T09:57:23Z</time>
      </trkpt>
      <trkpt lat="46.46919" lon="4.166">
        <ele>244.4</ele>
        <time>2019-08-20T09:57:24Z</time>
      </trkpt>
      <trkpt lat="46.46914" lon="4.16598">
        <ele>244.2</ele>
        <time>2019-08-20T09:57:25Z</time>
      </trkpt>
      <trkpt lat="46.4691" lon="4.16593">
        <ele>244</ele>
        <time>2019-08-20T09:57:26Z</time>
      </trkpt>
      <trkpt lat="46.46905" lon="4.1659">
        <ele>243.9</ele>
        <time>2019-08-20T09:57:27Z</time>
      </trkpt>
      <trkpt lat="46.46899" lon="4.16586">
        <ele>243.8</ele>
        <time>2019-08-20T09:57:28Z</time>
      </trkpt>
      <trkpt lat="46.46894" lon="4.16583">
        <ele>243.7</ele>
        <time>2019-08-20T09:57:29Z</time>
      </trkpt>
      <trkpt lat="46.46889" lon="4.16579">
        <ele>243.7</ele>
        <time>2019-08-20T09:57:30Z</time>
      </trkpt>
      <trkpt lat="46.46884" lon="4.16576">
        <ele>243.7</ele>
        <time>2019-08-20T09:57:31Z</time>
      </trkpt>
      <trkpt lat="46.46879" lon="4.16572">
        <ele>243.6</ele>
        <time>2019-08-20T09:57:32Z</time>
      </trkpt>
      <trkpt lat="46.46873" lon="4.16569">
        <ele>243.6</ele>
        <time>2019-08-20T09:57:33Z</time>
      </trkpt>
      <trkpt lat="46.46869" lon="4.16566">
        <ele>243.5</ele>
        <time>2019-08-20T09:57:34Z</time>
      </trkpt>
      <trkpt lat="46.46864" lon="4.16562">
        <ele>243.5</ele>
        <time>2019-08-20T09:57:35Z</time>
      </trkpt>
      <trkpt lat="46.46859" lon="4.16559">
        <ele>243.5</ele>
        <time>2019-08-20T09:57:36Z</time>
      </trkpt>
      <trkpt lat="46.46854" lon="4.16557">
        <ele>243.5</ele>
        <time>2019-08-20T09:57:37Z</time>
      </trkpt>
      <trkpt lat="46.4685" lon="4.16553">
        <ele>243.5</ele>
        <time>2019-08-20T09:57:38Z</time>
      </trkpt>
      <trkpt lat="46.46846" lon="4.16551">
        <ele>243.5</ele>
        <time>2019-08-20T09:57:39Z</time>
      </trkpt>
      <trkpt lat="46.46843" lon="4.16548">
        <ele>243.6</ele>
        <time>2019-08-20T09:57:40Z</time>
      </trkpt>
      <trkpt lat="46.4684" lon="4.16546">
        <ele>243.6</ele>
        <time>2019-08-20T09:57:41Z</time>
      </trkpt>
      <trkpt lat="46.46836" lon="4.16543">
        <ele>243.6</ele>
        <time>2019-08-20T09:57:42Z</time>
      </trkpt>
      <trkpt lat="46.46833" lon="4.16539">
        <ele>243.6</ele>
        <time>2019-08-20T09:57:43Z</time>
      </trkpt>
      <trkpt lat="46.4683" lon="4.16536">
        <ele>243.6</ele>
        <time>2019-08-20T09:57:44Z</time>
      </trkpt>
      <trkpt lat="46.46827" lon="4.16532">
        <ele>243.6</ele>
        <time>2019-08-20T09:57:45Z</time>
      </trkpt>
      <trkpt lat="46.46823" lon="4.16529">
        <ele>243.6</ele>
        <time>2019-08-20T09:57:46Z</time>
      </trkpt>
      <trkpt lat="46.4682" lon="4.16526">
        <ele>243.6</ele>
        <time>2019-08-20T09:57:47Z</time>
      </trkpt>
      <trkpt lat="46.46816" lon="4.16524">
        <ele>243.6</ele>
        <time>2019-08-20T09:57:48Z</time>
      </trkpt>
      <trkpt lat="46.46812" lon="4.16521">
        <ele>243.5</ele>
        <time>2019-08-20T09:57:49Z</time>
      </trkpt>
      <trkpt lat="46.46809" lon="4.16518">
        <ele>243.5</ele>
        <time>2019-08-20T09:57:50Z</time>
      </trkpt>
      <trkpt lat="46.46805" lon="4.16515">
        <ele>243.5</ele>
        <time>2019-08-20T09:57:51Z</time>
      </trkpt>
      <trkpt lat="46.46802" lon="4.16511">
        <ele>243.5</ele>
        <time>2019-08-20T09:57:52Z</time>
      </trkpt>
      <trkpt lat="46.468" lon="4.16509">
        <ele>243.5</ele>
        <time>2019-08-20T09:57:53Z</time>
      </trkpt>
      <trkpt lat="46.46798" lon="4.16506">
        <ele>243.5</ele>
        <time>2019-08-20T09:57:54Z</time>
      </trkpt>
      <trkpt lat="46.46795" lon="4.16502">
        <ele>243.5</ele>
        <time>2019-08-20T09:57:55Z</time>
      </trkpt>
      <trkpt lat="46.46792" lon="4.165">
        <ele>243.5</ele>
        <time>2019-08-20T09:57:56Z</time>
      </trkpt>
      <trkpt lat="46.46788" lon="4.16497">
        <ele>243.5</ele>
        <time>2019-08-20T09:57:57Z</time>
      </trkpt>
      <trkpt lat="46.46785" lon="4.16494">
        <ele>243.4</ele>
        <time>2019-08-20T09:57:58Z</time>
      </trkpt>
      <trkpt lat="46.46781" lon="4.16491">
        <ele>243.3</ele>
        <time>2019-08-20T09:57:59Z</time>
      </trkpt>
      <trkpt lat="46.46777" lon="4.16486">
        <ele>243.2</ele>
        <time>2019-08-20T09:58:00Z</time>
      </trkpt>
      <trkpt lat="46.46772" lon="4.16481">
        <ele>243.1</ele>
        <time>2019-08-20T09:58:01Z</time>
      </trkpt>
      <trkpt lat="46.46767" lon="4.16475">
        <ele>243</ele>
        <time>2019-08-20T09:58:02Z</time>
      </trkpt>
      <trkpt lat="46.46762" lon="4.16468">
        <ele>242.9</ele>
        <time>2019-08-20T09:58:03Z</time>
      </trkpt>
      <trkpt lat="46.46756" lon="4.16462">
        <ele>242.8</ele>
        <time>2019-08-20T09:58:04Z</time>
      </trkpt>
      <trkpt lat="46.4675" lon="4.16456">
        <ele>242.7</ele>
        <time>2019-08-20T09:58:05Z</time>
      </trkpt>
      <trkpt lat="46.46744" lon="4.1645">
        <ele>242.6</ele>
        <time>2019-08-20T09:58:06Z</time>
      </trkpt>
      <trkpt lat="46.46738" lon="4.16444">
        <ele>242.6</ele>
        <time>2019-08-20T09:58:07Z</time>
      </trkpt>
      <trkpt lat="46.46732" lon="4.16438">
        <ele>242.6</ele>
        <time>2019-08-20T09:58:08Z</time>
      </trkpt>
      <trkpt lat="46.46727" lon="4.16434">
        <ele>242.6</ele>
        <time>2019-08-20T09:58:09Z</time>
      </trkpt>
      <trkpt lat="46.46722" lon="4.16431">
        <ele>242.6</ele>
        <time>2019-08-20T09:58:10Z</time>
      </trkpt>
      <trkpt lat="46.46718" lon="4.16428">
        <ele>242.6</ele>
        <time>2019-08-20T09:58:11Z</time>
      </trkpt>
      <trkpt lat="46.46714" lon="4.16425">
        <ele>242.7</ele>
        <time>2019-08-20T09:58:12Z</time>
      </trkpt>
      <trkpt lat="46.46709" lon="4.16422">
        <ele>242.7</ele>
        <time>2019-08-20T09:58:13Z</time>
      </trkpt>
      <trkpt lat="46.46704" lon="4.1642">
        <ele>242.8</ele>
        <time>2019-08-20T09:58:14Z</time>
      </trkpt>
      <trkpt lat="46.46698" lon="4.16418">
        <ele>242.8</ele>
        <time>2019-08-20T09:58:15Z</time>
      </trkpt>
      <trkpt lat="46.46693" lon="4.16417">
        <ele>242.8</ele>
        <time>2019-08-20T09:58:16Z</time>
      </trkpt>
      <trkpt lat="46.46688" lon="4.16416">
        <ele>242.8</ele>
        <time>2019-08-20T09:58:17Z</time>
      </trkpt>
      <trkpt lat="46.46684" lon="4.16415">
        <ele>242.8</ele>
        <time>2019-08-20T09:58:18Z</time>
      </trkpt>
      <trkpt lat="46.46678" lon="4.16415">
        <ele>242.8</ele>
        <time>2019-08-20T09:58:19Z</time>
      </trkpt>
      <trkpt lat="46.46673" lon="4.16415">
        <ele>242.8</ele>
        <time>2019-08-20T09:58:20Z</time>
      </trkpt>
      <trkpt lat="46.46667" lon="4.16414">
        <ele>242.8</ele>
        <time>2019-08-20T09:58:21Z</time>
      </trkpt>
      <trkpt lat="46.46663" lon="4.16414">
        <ele>242.7</ele>
        <time>2019-08-20T09:58:22Z</time>
      </trkpt>
      <trkpt lat="46.46657" lon="4.16413">
        <ele>242.7</ele>
        <time>2019-08-20T09:58:23Z</time>
      </trkpt>
      <trkpt lat="46.46652" lon="4.16412">
        <ele>242.8</ele>
        <time>2019-08-20T09:58:24Z</time>
      </trkpt>
      <trkpt lat="46.46647" lon="4.16412">
        <ele>242.8</ele>
        <time>2019-08-20T09:58:25Z</time>
      </trkpt>
      <trkpt lat="46.46643" lon="4.16412">
        <ele>242.8</ele>
        <time>2019-08-20T09:58:26Z</time>
      </trkpt>
      <trkpt lat="46.46638" lon="4.16412">
        <ele>242.9</ele>
        <time>2019-08-20T09:58:27Z</time>
      </trkpt>
      <trkpt lat="46.46634" lon="4.16412">
        <ele>242.9</ele>
        <time>2019-08-20T09:58:28Z</time>
      </trkpt>
      <trkpt lat="46.4663" lon="4.16411">
        <ele>242.8</ele>
        <time>2019-08-20T09:58:29Z</time>
      </trkpt>
      <trkpt lat="46.46626" lon="4.1641">
        <ele>242.8</ele>
        <time>2019-08-20T09:58:30Z</time>
      </trkpt>
      <trkpt lat="46.46622" lon="4.1641">
        <ele>242.8</ele>
        <time>2019-08-20T09:58:31Z</time>
      </trkpt>
      <trkpt lat="46.46618" lon="4.16409">
        <ele>242.7</ele>
        <time>2019-08-20T09:58:32Z</time>
      </trkpt>
      <trkpt lat="46.46614" lon="4.16409">
        <ele>242.7</ele>
        <time>2019-08-20T09:58:33Z</time>
      </trkpt>
      <trkpt lat="46.46609" lon="4.16408">
        <ele>242.7</ele>
        <time>2019-08-20T09:58:34Z</time>
      </trkpt>
      <trkpt lat="46.46604" lon="4.16406">
        <ele>242.6</ele>
        <time>2019-08-20T09:58:35Z</time>
      </trkpt>
      <trkpt lat="46.46599" lon="4.16404">
        <ele>242.6</ele>
        <time>2019-08-20T09:58:36Z</time>
      </trkpt>
      <trkpt lat="46.46593" lon="4.16403">
        <ele>242.6</ele>
        <time>2019-08-20T09:58:37Z</time>
      </trkpt>
      <trkpt lat="46.46588" lon="4.16402">
        <ele>242.6</ele>
        <time>2019-08-20T09:58:38Z</time>
      </trkpt>
      <trkpt lat="46.46582" lon="4.16402">
        <ele>242.6</ele>
        <time>2019-08-20T09:58:39Z</time>
      </trkpt>
      <trkpt lat="46.46577" lon="4.16402">
        <ele>242.7</ele>
        <time>2019-08-20T09:58:40Z</time>
      </trkpt>
      <trkpt lat="46.46573" lon="4.16401">
        <ele>242.7</ele>
        <time>2019-08-20T09:58:41Z</time>
      </trkpt>
      <trkpt lat="46.46568" lon="4.164">
        <ele>242.7</ele>
        <time>2019-08-20T09:58:42Z</time>
      </trkpt>
      <trkpt lat="46.46563" lon="4.164">
        <ele>242.7</ele>
        <time>2019-08-20T09:58:43Z</time>
      </trkpt>
      <trkpt lat="46.46558" lon="4.16399">
        <ele>242.7</ele>
        <time>2019-08-20T09:58:44Z</time>
      </trkpt>
      <trkpt lat="46.46554" lon="4.16399">
        <ele>242.7</ele>
        <time>2019-08-20T09:58:45Z</time>
      </trkpt>
      <trkpt lat="46.4655" lon="4.16399">
        <ele>242.6</ele>
        <time>2019-08-20T09:58:46Z</time>
      </trkpt>
      <trkpt lat="46.46546" lon="4.16398">
        <ele>242.6</ele>
        <time>2019-08-20T09:58:47Z</time>
      </trkpt>
      <trkpt lat="46.46542" lon="4.16398">
        <ele>242.6</ele>
        <time>2019-08-20T09:58:48Z</time>
      </trkpt>
      <trkpt lat="46.46537" lon="4.16398">
        <ele>242.5</ele>
        <time>2019-08-20T09:58:49Z</time>
      </trkpt>
      <trkpt lat="46.46532" lon="4.16397">
        <ele>242.5</ele>
        <time>2019-08-20T09:58:50Z</time>
      </trkpt>
      <trkpt lat="46.46527" lon="4.16396">
        <ele>242.6</ele>
        <time>2019-08-20T09:58:51Z</time>
      </trkpt>
      <trkpt lat="46.46521" lon="4.16395">
        <ele>242.6</ele>
        <time>2019-08-20T09:58:52Z</time>
      </trkpt>
      <trkpt lat="46.46517" lon="4.16394">
        <ele>242.7</ele>
        <time>2019-08-20T09:58:53Z</time>
      </trkpt>
      <trkpt lat="46.46511" lon="4.16393">
        <ele>242.8</ele>
        <time>2019-08-20T09:58:54Z</time>
      </trkpt>
      <trkpt lat="46.46506" lon="4.16392">
        <ele>242.9</ele>
        <time>2019-08-20T09:58:55Z</time>
      </trkpt>
      <trkpt lat="46.46501" lon="4.16391">
        <ele>243</ele>
        <time>2019-08-20T09:58:56Z</time>
      </trkpt>
      <trkpt lat="46.46496" lon="4.1639">
        <ele>243.1</ele>
        <time>2019-08-20T09:58:57Z</time>
      </trkpt>
      <trkpt lat="46.4649" lon="4.16387">
        <ele>243.1</ele>
        <time>2019-08-20T09:58:58Z</time>
      </trkpt>
      <trkpt lat="46.46484" lon="4.16386">
        <ele>243</ele>
        <time>2019-08-20T09:58:59Z</time>
      </trkpt>
      <trkpt lat="46.46478" lon="4.16384">
        <ele>243</ele>
        <time>2019-08-20T09:59:00Z</time>
      </trkpt>
      <trkpt lat="46.46472" lon="4.16381">
        <ele>242.9</ele>
        <time>2019-08-20T09:59:01Z</time>
      </trkpt>
      <trkpt lat="46.46466" lon="4.16379">
        <ele>242.9</ele>
        <time>2019-08-20T09:59:02Z</time>
      </trkpt>
      <trkpt lat="46.4646" lon="4.16376">
        <ele>242.9</ele>
        <time>2019-08-20T09:59:03Z</time>
      </trkpt>
      <trkpt lat="46.46454" lon="4.16373">
        <ele>242.8</ele>
        <time>2019-08-20T09:59:04Z</time>
      </trkpt>
      <trkpt lat="46.46449" lon="4.1637">
        <ele>242.8</ele>
        <time>2019-08-20T09:59:05Z</time>
      </trkpt>
      <trkpt lat="46.46444" lon="4.16367">
        <ele>242.7</ele>
        <time>2019-08-20T09:59:06Z</time>
      </trkpt>
      <trkpt lat="46.46439" lon="4.16364">
        <ele>242.7</ele>
        <time>2019-08-20T09:59:07Z</time>
      </trkpt>
      <trkpt lat="46.46434" lon="4.16361">
        <ele>242.7</ele>
        <time>2019-08-20T09:59:08Z</time>
      </trkpt>
      <trkpt lat="46.4643" lon="4.16358">
        <ele>242.6</ele>
        <time>2019-08-20T09:59:09Z</time>
      </trkpt>
      <trkpt lat="46.46425" lon="4.16355">
        <ele>242.6</ele>
        <time>2019-08-20T09:59:10Z</time>
      </trkpt>
      <trkpt lat="46.4642" lon="4.16352">
        <ele>242.6</ele>
        <time>2019-08-20T09:59:11Z</time>
      </trkpt>
      <trkpt lat="46.46415" lon="4.16349">
        <ele>242.7</ele>
        <time>2019-08-20T09:59:12Z</time>
      </trkpt>
      <trkpt lat="46.4641" lon="4.16346">
        <ele>242.7</ele>
        <time>2019-08-20T09:59:13Z</time>
      </trkpt>
      <trkpt lat="46.46405" lon="4.16342">
        <ele>242.7</ele>
        <time>2019-08-20T09:59:14Z</time>
      </trkpt>
      <trkpt lat="46.464" lon="4.16338">
        <ele>242.8</ele>
        <time>2019-08-20T09:59:15Z</time>
      </trkpt>
      <trkpt lat="46.46395" lon="4.16335">
        <ele>242.8</ele>
        <time>2019-08-20T09:59:16Z</time>
      </trkpt>
      <trkpt lat="46.4639" lon="4.16332">
        <ele>242.8</ele>
        <time>2019-08-20T09:59:17Z</time>
      </trkpt>
      <trkpt lat="46.46385" lon="4.16329">
        <ele>242.8</ele>
        <time>2019-08-20T09:59:18Z</time>
      </trkpt>
      <trkpt lat="46.4638" lon="4.16326">
        <ele>242.8</ele>
        <time>2019-08-20T09:59:19Z</time>
      </trkpt>
      <trkpt lat="46.46375" lon="4.16323">
        <ele>242.8</ele>
        <time>2019-08-20T09:59:20Z</time>
      </trkpt>
      <trkpt lat="46.46371" lon="4.16319">
        <ele>242.7</ele>
        <time>2019-08-20T09:59:21Z</time>
      </trkpt>
      <trkpt lat="46.46366" lon="4.16316">
        <ele>242.7</ele>
        <time>2019-08-20T09:59:22Z</time>
      </trkpt>
      <trkpt lat="46.46362" lon="4.16313">
        <ele>242.6</ele>
        <time>2019-08-20T09:59:23Z</time>
      </trkpt>
      <trkpt lat="46.46357" lon="4.16311">
        <ele>242.5</ele>
        <time>2019-08-20T09:59:24Z</time>
      </trkpt>
      <trkpt lat="46.46353" lon="4.16308">
        <ele>242.5</ele>
        <time>2019-08-20T09:59:25Z</time>
      </trkpt>
      <trkpt lat="46.46348" lon="4.16305">
        <ele>242.4</ele>
        <time>2019-08-20T09:59:26Z</time>
      </trkpt>
      <trkpt lat="46.46344" lon="4.16302">
        <ele>242.4</ele>
        <time>2019-08-20T09:59:27Z</time>
      </trkpt>
      <trkpt lat="46.46339" lon="4.16299">
        <ele>242.4</ele>
        <time>2019-08-20T09:59:28Z</time>
      </trkpt>
      <trkpt lat="46.46334" lon="4.16296">
        <ele>242.3</ele>
        <time>2019-08-20T09:59:29Z</time>
      </trkpt>
      <trkpt lat="46.46329" lon="4.16294">
        <ele>242.3</ele>
        <time>2019-08-20T09:59:30Z</time>
      </trkpt>
      <trkpt lat="46.46324" lon="4.16291">
        <ele>242.3</ele>
        <time>2019-08-20T09:59:31Z</time>
      </trkpt>
      <trkpt lat="46.46319" lon="4.16288">
        <ele>242.3</ele>
        <time>2019-08-20T09:59:32Z</time>
      </trkpt>
      <trkpt lat="46.46314" lon="4.16285">
        <ele>242.3</ele>
        <time>2019-08-20T09:59:33Z</time>
      </trkpt>
      <trkpt lat="46.4631" lon="4.16283">
        <ele>242.4</ele>
        <time>2019-08-20T09:59:34Z</time>
      </trkpt>
      <trkpt lat="46.46306" lon="4.16279">
        <ele>242.4</ele>
        <time>2019-08-20T09:59:35Z</time>
      </trkpt>
      <trkpt lat="46.463" lon="4.16276">
        <ele>242.4</ele>
        <time>2019-08-20T09:59:36Z</time>
      </trkpt>
      <trkpt lat="46.46295" lon="4.16272">
        <ele>242.5</ele>
        <time>2019-08-20T09:59:37Z</time>
      </trkpt>
      <trkpt lat="46.4629" lon="4.16269">
        <ele>242.5</ele>
        <time>2019-08-20T09:59:38Z</time>
      </trkpt>
      <trkpt lat="46.46284" lon="4.16267">
        <ele>242.4</ele>
        <time>2019-08-20T09:59:39Z</time>
      </trkpt>
      <trkpt lat="46.46279" lon="4.16264">
        <ele>242.5</ele>
        <time>2019-08-20T09:59:40Z</time>
      </trkpt>
      <trkpt lat="46.46273" lon="4.16261">
        <ele>242.5</ele>
        <time>2019-08-20T09:59:41Z</time>
      </trkpt>
      <trkpt lat="46.46266" lon="4.16255">
        <ele>242.6</ele>
        <time>2019-08-20T09:59:42Z</time>
      </trkpt>
      <trkpt lat="46.46261" lon="4.16252">
        <ele>242.6</ele>
        <time>2019-08-20T09:59:43Z</time>
      </trkpt>
      <trkpt lat="46.46257" lon="4.1625">
        <ele>242.7</ele>
        <time>2019-08-20T09:59:44Z</time>
      </trkpt>
      <trkpt lat="46.46253" lon="4.16247">
        <ele>242.7</ele>
        <time>2019-08-20T09:59:45Z</time>
      </trkpt>
      <trkpt lat="46.46249" lon="4.16244">
        <ele>242.8</ele>
        <time>2019-08-20T09:59:46Z</time>
      </trkpt>
      <trkpt lat="46.46245" lon="4.16242">
        <ele>242.9</ele>
        <time>2019-08-20T09:59:47Z</time>
      </trkpt>
      <trkpt lat="46.46241" lon="4.16239">
        <ele>243</ele>
        <time>2019-08-20T09:59:48Z</time>
      </trkpt>
      <trkpt lat="46.46236" lon="4.16236">
        <ele>243.1</ele>
        <time>2019-08-20T09:59:49Z</time>
      </trkpt>
      <trkpt lat="46.46231" lon="4.16233">
        <ele>243.1</ele>
        <time>2019-08-20T09:59:50Z</time>
      </trkpt>
      <trkpt lat="46.46226" lon="4.1623">
        <ele>243.1</ele>
        <time>2019-08-20T09:59:51Z</time>
      </trkpt>
      <trkpt lat="46.46221" lon="4.16227">
        <ele>243.1</ele>
        <time>2019-08-20T09:59:52Z</time>
      </trkpt>
      <trkpt lat="46.46216" lon="4.16224">
        <ele>243.1</ele>
        <time>2019-08-20T09:59:53Z</time>
      </trkpt>
      <trkpt lat="46.46212" lon="4.1622">
        <ele>243.1</ele>
        <time>2019-08-20T09:59:54Z</time>
      </trkpt>
      <trkpt lat="46.46207" lon="4.16217">
        <ele>243.1</ele>
        <time>2019-08-20T09:59:55Z</time>
      </trkpt>
      <trkpt lat="46.46201" lon="4.16214">
        <ele>243</ele>
        <time>2019-08-20T09:59:56Z</time>
      </trkpt>
      <trkpt lat="46.46196" lon="4.1621">
        <ele>243</ele>
        <time>2019-08-20T09:59:57Z</time>
      </trkpt>
      <trkpt lat="46.46191" lon="4.16207">
        <ele>242.9</ele>
        <time>2019-08-20T09:59:58Z</time>
      </trkpt>
      <trkpt lat="46.46185" lon="4.16203">
        <ele>242.9</ele>
        <time>2019-08-20T09:59:59Z</time>
      </trkpt>
      <trkpt lat="46.4618" lon="4.16199">
        <ele>242.9</ele>
        <time>2019-08-20T10:00:00Z</time>
      </trkpt>
      <trkpt lat="46.46175" lon="4.16195">
        <ele>242.9</ele>
        <time>2019-08-20T10:00:01Z</time>
      </trkpt>
      <trkpt lat="46.4617" lon="4.16191">
        <ele>242.9</ele>
        <time>2019-08-20T10:00:02Z</time>
      </trkpt>
      <trkpt lat="46.46166" lon="4.16187">
        <ele>242.9</ele>
        <time>2019-08-20T10:00:03Z</time>
      </trkpt>
      <trkpt lat="46.46162" lon="4.16182">
        <ele>242.9</ele>
        <time>2019-08-20T10:00:04Z</time>
      </trkpt>
      <trkpt lat="46.46158" lon="4.16179">
        <ele>242.9</ele>
        <time>2019-08-20T10:00:05Z</time>
      </trkpt>
      <trkpt lat="46.46153" lon="4.16175">
        <ele>242.9</ele>
        <time>2019-08-20T10:00:06Z</time>
      </trkpt>
      <trkpt lat="46.46149" lon="4.16171">
        <ele>242.8</ele>
        <time>2019-08-20T10:00:07Z</time>
      </trkpt>
      <trkpt lat="46.46144" lon="4.16166">
        <ele>242.8</ele>
        <time>2019-08-20T10:00:08Z</time>
      </trkpt>
      <trkpt lat="46.46141" lon="4.16162">
        <ele>242.8</ele>
        <time>2019-08-20T10:00:09Z</time>
      </trkpt>
      <trkpt lat="46.46137" lon="4.16157">
        <ele>242.9</ele>
        <time>2019-08-20T10:00:10Z</time>
      </trkpt>
      <trkpt lat="46.46132" lon="4.16152">
        <ele>242.9</ele>
        <time>2019-08-20T10:00:11Z</time>
      </trkpt>
      <trkpt lat="46.46127" lon="4.16145">
        <ele>243.1</ele>
        <time>2019-08-20T10:00:12Z</time>
      </trkpt>
      <trkpt lat="46.46122" lon="4.1614">
        <ele>243.2</ele>
        <time>2019-08-20T10:00:13Z</time>
      </trkpt>
      <trkpt lat="46.46118" lon="4.16135">
        <ele>243.3</ele>
        <time>2019-08-20T10:00:14Z</time>
      </trkpt>
      <trkpt lat="46.46112" lon="4.16131">
        <ele>243.4</ele>
        <time>2019-08-20T10:00:15Z</time>
      </trkpt>
      <trkpt lat="46.46107" lon="4.16127">
        <ele>243.5</ele>
        <time>2019-08-20T10:00:16Z</time>
      </trkpt>
      <trkpt lat="46.46102" lon="4.16123">
        <ele>243.5</ele>
        <time>2019-08-20T10:00:17Z</time>
      </trkpt>
      <trkpt lat="46.46097" lon="4.16118">
        <ele>243.6</ele>
        <time>2019-08-20T10:00:18Z</time>
      </trkpt>
      <trkpt lat="46.46092" lon="4.16113">
        <ele>243.6</ele>
        <time>2019-08-20T10:00:19Z</time>
      </trkpt>
      <trkpt lat="46.46087" lon="4.16107">
        <ele>243.6</ele>
        <time>2019-08-20T10:00:20Z</time>
      </trkpt>
      <trkpt lat="46.46083" lon="4.16102">
        <ele>243.6</ele>
        <time>2019-08-20T10:00:21Z</time>
      </trkpt>
      <trkpt lat="46.46078" lon="4.16096">
        <ele>243.5</ele>
        <time>2019-08-20T10:00:22Z</time>
      </trkpt>
      <trkpt lat="46.46075" lon="4.16092">
        <ele>243.5</ele>
        <time>2019-08-20T10:00:23Z</time>
      </trkpt>
      <trkpt lat="46.46071" lon="4.16087">
        <ele>243.5</ele>
        <time>2019-08-20T10:00:24Z</time>
      </trkpt>
      <trkpt lat="46.46067" lon="4.16083">
        <ele>243.4</ele>
        <time>2019-08-20T10:00:25Z</time>
      </trkpt>
      <trkpt lat="46.46062" lon="4.16078">
        <ele>243.3</ele>
        <time>2019-08-20T10:00:26Z</time>
      </trkpt>
      <trkpt lat="46.46058" lon="4.16074">
        <ele>243.3</ele>
        <time>2019-08-20T10:00:27Z</time>
      </trkpt>
      <trkpt lat="46.46054" lon="4.16069">
        <ele>243.2</ele>
        <time>2019-08-20T10:00:28Z</time>
      </trkpt>
      <trkpt lat="46.4605" lon="4.16064">
        <ele>243.2</ele>
        <time>2019-08-20T10:00:29Z</time>
      </trkpt>
      <trkpt lat="46.46046" lon="4.1606">
        <ele>243.2</ele>
        <time>2019-08-20T10:00:30Z</time>
      </trkpt>
      <trkpt lat="46.46043" lon="4.16057">
        <ele>243.3</ele>
        <time>2019-08-20T10:00:31Z</time>
      </trkpt>
      <trkpt lat="46.46039" lon="4.16053">
        <ele>243.3</ele>
        <time>2019-08-20T10:00:32Z</time>
      </trkpt>
      <trkpt lat="46.46036" lon="4.16048">
        <ele>243.3</ele>
        <time>2019-08-20T10:00:33Z</time>
      </trkpt>
      <trkpt lat="46.46032" lon="4.16045">
        <ele>243.3</ele>
        <time>2019-08-20T10:00:34Z</time>
      </trkpt>
      <trkpt lat="46.46028" lon="4.1604">
        <ele>243.3</ele>
        <time>2019-08-20T10:00:35Z</time>
      </trkpt>
      <trkpt lat="46.46024" lon="4.16036">
        <ele>243.3</ele>
        <time>2019-08-20T10:00:36Z</time>
      </trkpt>
      <trkpt lat="46.46019" lon="4.16032">
        <ele>243.3</ele>
        <time>2019-08-20T10:00:37Z</time>
      </trkpt>
      <trkpt lat="46.46015" lon="4.16027">
        <ele>243.3</ele>
        <time>2019-08-20T10:00:38Z</time>
      </trkpt>
      <trkpt lat="46.4601" lon="4.16023">
        <ele>243.4</ele>
        <time>2019-08-20T10:00:39Z</time>
      </trkpt>
      <trkpt lat="46.46005" lon="4.16018">
        <ele>243.4</ele>
        <time>2019-08-20T10:00:40Z</time>
      </trkpt>
      <trkpt lat="46.46001" lon="4.16012">
        <ele>243.5</ele>
        <time>2019-08-20T10:00:41Z</time>
      </trkpt>
      <trkpt lat="46.45996" lon="4.16008">
        <ele>243.5</ele>
        <time>2019-08-20T10:00:42Z</time>
      </trkpt>
      <trkpt lat="46.45992" lon="4.16004">
        <ele>243.6</ele>
        <time>2019-08-20T10:00:43Z</time>
      </trkpt>
      <trkpt lat="46.45987" lon="4.16">
        <ele>243.6</ele>
        <time>2019-08-20T10:00:44Z</time>
      </trkpt>
      <trkpt lat="46.45983" lon="4.15996">
        <ele>243.5</ele>
        <time>2019-08-20T10:00:45Z</time>
      </trkpt>
      <trkpt lat="46.45979" lon="4.15992">
        <ele>243.5</ele>
        <time>2019-08-20T10:00:46Z</time>
      </trkpt>
      <trkpt lat="46.45975" lon="4.15988">
        <ele>243.4</ele>
        <time>2019-08-20T10:00:47Z</time>
      </trkpt>
      <trkpt lat="46.45972" lon="4.15984">
        <ele>243.3</ele>
        <time>2019-08-20T10:00:48Z</time>
      </trkpt>
      <trkpt lat="46.45968" lon="4.15979">
        <ele>243.3</ele>
        <time>2019-08-20T10:00:49Z</time>
      </trkpt>
      <trkpt lat="46.45964" lon="4.15975">
        <ele>243.3</ele>
        <time>2019-08-20T10:00:50Z</time>
      </trkpt>
      <trkpt lat="46.4596" lon="4.1597">
        <ele>243.3</ele>
        <time>2019-08-20T10:00:51Z</time>
      </trkpt>
      <trkpt lat="46.45955" lon="4.15965">
        <ele>243.3</ele>
        <time>2019-08-20T10:00:52Z</time>
      </trkpt>
      <trkpt lat="46.45951" lon="4.1596">
        <ele>243.3</ele>
        <time>2019-08-20T10:00:53Z</time>
      </trkpt>
      <trkpt lat="46.45947" lon="4.15955">
        <ele>243.2</ele>
        <time>2019-08-20T10:00:54Z</time>
      </trkpt>
      <trkpt lat="46.45942" lon="4.1595">
        <ele>243.1</ele>
        <time>2019-08-20T10:00:55Z</time>
      </trkpt>
      <trkpt lat="46.45937" lon="4.15945">
        <ele>243</ele>
        <time>2019-08-20T10:00:56Z</time>
      </trkpt>
      <trkpt lat="46.45933" lon="4.1594">
        <ele>242.9</ele>
        <time>2019-08-20T10:00:57Z</time>
      </trkpt>
      <trkpt lat="46.45928" lon="4.15936">
        <ele>242.9</ele>
        <time>2019-08-20T10:00:58Z</time>
      </trkpt>
      <trkpt lat="46.45924" lon="4.15931">
        <ele>242.9</ele>
        <time>2019-08-20T10:00:59Z</time>
      </trkpt>
      <trkpt lat="46.4592" lon="4.15927">
        <ele>243</ele>
        <time>2019-08-20T10:01:00Z</time>
      </trkpt>
      <trkpt lat="46.45915" lon="4.15924">
        <ele>243</ele>
        <time>2019-08-20T10:01:01Z</time>
      </trkpt>
      <trkpt lat="46.4591" lon="4.1592">
        <ele>243.1</ele>
        <time>2019-08-20T10:01:02Z</time>
      </trkpt>
      <trkpt lat="46.45906" lon="4.15917">
        <ele>243.1</ele>
        <time>2019-08-20T10:01:03Z</time>
      </trkpt>
      <trkpt lat="46.45902" lon="4.15914">
        <ele>243.2</ele>
        <time>2019-08-20T10:01:04Z</time>
      </trkpt>
      <trkpt lat="46.45898" lon="4.15911">
        <ele>243.2</ele>
        <time>2019-08-20T10:01:05Z</time>
      </trkpt>
      <trkpt lat="46.45893" lon="4.15909">
        <ele>243.2</ele>
        <time>2019-08-20T10:01:06Z</time>
      </trkpt>
      <trkpt lat="46.45889" lon="4.15907">
        <ele>243.2</ele>
        <time>2019-08-20T10:01:07Z</time>
      </trkpt>
      <trkpt lat="46.45884" lon="4.15904">
        <ele>243.2</ele>
        <time>2019-08-20T10:01:08Z</time>
      </trkpt>
      <trkpt lat="46.45879" lon="4.15902">
        <ele>243.2</ele>
        <time>2019-08-20T10:01:09Z</time>
      </trkpt>
      <trkpt lat="46.45873" lon="4.15899">
        <ele>243.2</ele>
        <time>2019-08-20T10:01:10Z</time>
      </trkpt>
      <trkpt lat="46.45867" lon="4.15896">
        <ele>243.1</ele>
        <time>2019-08-20T10:01:11Z</time>
      </trkpt>
      <trkpt lat="46.45861" lon="4.15893">
        <ele>243.1</ele>
        <time>2019-08-20T10:01:12Z</time>
      </trkpt>
      <trkpt lat="46.45856" lon="4.1589">
        <ele>243.1</ele>
        <time>2019-08-20T10:01:13Z</time>
      </trkpt>
      <trkpt lat="46.4585" lon="4.15888">
        <ele>243</ele>
        <time>2019-08-20T10:01:14Z</time>
      </trkpt>
      <trkpt lat="46.45846" lon="4.15884">
        <ele>243</ele>
        <time>2019-08-20T10:01:15Z</time>
      </trkpt>
      <trkpt lat="46.45841" lon="4.15881">
        <ele>243</ele>
        <time>2019-08-20T10:01:16Z</time>
      </trkpt>
      <trkpt lat="46.45836" lon="4.15878">
        <ele>243</ele>
        <time>2019-08-20T10:01:17Z</time>
      </trkpt>
      <trkpt lat="46.45832" lon="4.15875">
        <ele>243.1</ele>
        <time>2019-08-20T10:01:18Z</time>
      </trkpt>
      <trkpt lat="46.45827" lon="4.15873">
        <ele>243.2</ele>
        <time>2019-08-20T10:01:19Z</time>
      </trkpt>
      <trkpt lat="46.45822" lon="4.15871">
        <ele>243.2</ele>
        <time>2019-08-20T10:01:20Z</time>
      </trkpt>
      <trkpt lat="46.45817" lon="4.15868">
        <ele>243.2</ele>
        <time>2019-08-20T10:01:21Z</time>
      </trkpt>
      <trkpt lat="46.45812" lon="4.15866">
        <ele>243.2</ele>
        <time>2019-08-20T10:01:22Z</time>
      </trkpt>
      <trkpt lat="46.45807" lon="4.15863">
        <ele>243.2</ele>
        <time>2019-08-20T10:01:23Z</time>
      </trkpt>
      <trkpt lat="46.45802" lon="4.1586">
        <ele>243.2</ele>
        <time>2019-08-20T10:01:24Z</time>
      </trkpt>
      <trkpt lat="46.45796" lon="4.15857">
        <ele>243.2</ele>
        <time>2019-08-20T10:01:25Z</time>
      </trkpt>
      <trkpt lat="46.45792" lon="4.15855">
        <ele>243.2</ele>
        <time>2019-08-20T10:01:26Z</time>
      </trkpt>
      <trkpt lat="46.45787" lon="4.15851">
        <ele>243.3</ele>
        <time>2019-08-20T10:01:27Z</time>
      </trkpt>
      <trkpt lat="46.45783" lon="4.15848">
        <ele>243.3</ele>
        <time>2019-08-20T10:01:28Z</time>
      </trkpt>
      <trkpt lat="46.45778" lon="4.15845">
        <ele>243.3</ele>
        <time>2019-08-20T10:01:29Z</time>
      </trkpt>
      <trkpt lat="46.45773" lon="4.15842">
        <ele>243.4</ele>
        <time>2019-08-20T10:01:30Z</time>
      </trkpt>
      <trkpt lat="46.45768" lon="4.15838">
        <ele>243.4</ele>
        <time>2019-08-20T10:01:31Z</time>
      </trkpt>
      <trkpt lat="46.45763" lon="4.15835">
        <ele>243.4</ele>
        <time>2019-08-20T10:01:32Z</time>
      </trkpt>
      <trkpt lat="46.45758" lon="4.15832">
        <ele>243.5</ele>
        <time>2019-08-20T10:01:33Z</time>
      </trkpt>
      <trkpt lat="46.45752" lon="4.15829">
        <ele>243.5</ele>
        <time>2019-08-20T10:01:34Z</time>
      </trkpt>
      <trkpt lat="46.45747" lon="4.15826">
        <ele>243.5</ele>
        <time>2019-08-20T10:01:35Z</time>
      </trkpt>
      <trkpt lat="46.45741" lon="4.15822">
        <ele>243.6</ele>
        <time>2019-08-20T10:01:36Z</time>
      </trkpt>
      <trkpt lat="46.45736" lon="4.15819">
        <ele>243.6</ele>
        <time>2019-08-20T10:01:37Z</time>
      </trkpt>
      <trkpt lat="46.45731" lon="4.15817">
        <ele>243.6</ele>
        <time>2019-08-20T10:01:38Z</time>
      </trkpt>
      <trkpt lat="46.45726" lon="4.15814">
        <ele>243.6</ele>
        <time>2019-08-20T10:01:39Z</time>
      </trkpt>
      <trkpt lat="46.45721" lon="4.15811">
        <ele>243.6</ele>
        <time>2019-08-20T10:01:40Z</time>
      </trkpt>
      <trkpt lat="46.45716" lon="4.15808">
        <ele>243.7</ele>
        <time>2019-08-20T10:01:41Z</time>
      </trkpt>
      <trkpt lat="46.4571" lon="4.15805">
        <ele>243.7</ele>
        <time>2019-08-20T10:01:42Z</time>
      </trkpt>
      <trkpt lat="46.45706" lon="4.15801">
        <ele>243.6</ele>
        <time>2019-08-20T10:01:43Z</time>
      </trkpt>
      <trkpt lat="46.45701" lon="4.15799">
        <ele>243.6</ele>
        <time>2019-08-20T10:01:44Z</time>
      </trkpt>
      <trkpt lat="46.45696" lon="4.15795">
        <ele>243.5</ele>
        <time>2019-08-20T10:01:45Z</time>
      </trkpt>
      <trkpt lat="46.45692" lon="4.15791">
        <ele>243.4</ele>
        <time>2019-08-20T10:01:46Z</time>
      </trkpt>
      <trkpt lat="46.45687" lon="4.15786">
        <ele>243.3</ele>
        <time>2019-08-20T10:01:47Z</time>
      </trkpt>
      <trkpt lat="46.45683" lon="4.15781">
        <ele>243.2</ele>
        <time>2019-08-20T10:01:48Z</time>
      </trkpt>
      <trkpt lat="46.45678" lon="4.15775">
        <ele>243.1</ele>
        <time>2019-08-20T10:01:49Z</time>
      </trkpt>
      <trkpt lat="46.45674" lon="4.15771">
        <ele>243</ele>
        <time>2019-08-20T10:01:50Z</time>
      </trkpt>
      <trkpt lat="46.4567" lon="4.15766">
        <ele>243</ele>
        <time>2019-08-20T10:01:51Z</time>
      </trkpt>
      <trkpt lat="46.45666" lon="4.15762">
        <ele>243</ele>
        <time>2019-08-20T10:01:52Z</time>
      </trkpt>
      <trkpt lat="46.45662" lon="4.15759">
        <ele>243</ele>
        <time>2019-08-20T10:01:53Z</time>
      </trkpt>
      <trkpt lat="46.45658" lon="4.15756">
        <ele>243</ele>
        <time>2019-08-20T10:01:54Z</time>
      </trkpt>
      <trkpt lat="46.45654" lon="4.15752">
        <ele>243</ele>
        <time>2019-08-20T10:01:55Z</time>
      </trkpt>
      <trkpt lat="46.45649" lon="4.1575">
        <ele>243</ele>
        <time>2019-08-20T10:01:56Z</time>
      </trkpt>
      <trkpt lat="46.45645" lon="4.15747">
        <ele>243.1</ele>
        <time>2019-08-20T10:01:57Z</time>
      </trkpt>
      <trkpt lat="46.45639" lon="4.15745">
        <ele>243.1</ele>
        <time>2019-08-20T10:01:58Z</time>
      </trkpt>
      <trkpt lat="46.45634" lon="4.15743">
        <ele>243.1</ele>
        <time>2019-08-20T10:01:59Z</time>
      </trkpt>
      <trkpt lat="46.45629" lon="4.15742">
        <ele>243.2</ele>
        <time>2019-08-20T10:02:00Z</time>
      </trkpt>
      <trkpt lat="46.45623" lon="4.15741">
        <ele>243.2</ele>
        <time>2019-08-20T10:02:01Z</time>
      </trkpt>
      <trkpt lat="46.45618" lon="4.15741">
        <ele>243.2</ele>
        <time>2019-08-20T10:02:02Z</time>
      </trkpt>
      <trkpt lat="46.45613" lon="4.1574">
        <ele>243.2</ele>
        <time>2019-08-20T10:02:03Z</time>
      </trkpt>
      <trkpt lat="46.45607" lon="4.1574">
        <ele>243.3</ele>
        <time>2019-08-20T10:02:04Z</time>
      </trkpt>
      <trkpt lat="46.45602" lon="4.1574">
        <ele>243.3</ele>
        <time>2019-08-20T10:02:05Z</time>
      </trkpt>
      <trkpt lat="46.45597" lon="4.1574">
        <ele>243.3</ele>
        <time>2019-08-20T10:02:06Z</time>
      </trkpt>
      <trkpt lat="46.45592" lon="4.15741">
        <ele>243.4</ele>
        <time>2019-08-20T10:02:07Z</time>
      </trkpt>
      <trkpt lat="46.45586" lon="4.15742">
        <ele>243.4</ele>
        <time>2019-08-20T10:02:08Z</time>
      </trkpt>
      <trkpt lat="46.45581" lon="4.15743">
        <ele>243.4</ele>
        <time>2019-08-20T10:02:09Z</time>
      </trkpt>
      <trkpt lat="46.45575" lon="4.15745">
        <ele>243.4</ele>
        <time>2019-08-20T10:02:10Z</time>
      </trkpt>
      <trkpt lat="46.45569" lon="4.15748">
        <ele>243.4</ele>
        <time>2019-08-20T10:02:11Z</time>
      </trkpt>
      <trkpt lat="46.45563" lon="4.1575">
        <ele>243.3</ele>
        <time>2019-08-20T10:02:12Z</time>
      </trkpt>
      <trkpt lat="46.45557" lon="4.15752">
        <ele>243.2</ele>
        <time>2019-08-20T10:02:13Z</time>
      </trkpt>
      <trkpt lat="46.45551" lon="4.15754">
        <ele>243.1</ele>
        <time>2019-08-20T10:02:14Z</time>
      </trkpt>
      <trkpt lat="46.45546" lon="4.15756">
        <ele>243.1</ele>
        <time>2019-08-20T10:02:15Z</time>
      </trkpt>
      <trkpt lat="46.45541" lon="4.15759">
        <ele>243</ele>
        <time>2019-08-20T10:02:16Z</time>
      </trkpt>
      <trkpt lat="46.45535" lon="4.1576">
        <ele>242.9</ele>
        <time>2019-08-20T10:02:17Z</time>
      </trkpt>
      <trkpt lat="46.4553" lon="4.15761">
        <ele>242.9</ele>
        <time>2019-08-20T10:02:18Z</time>
      </trkpt>
      <trkpt lat="46.45524" lon="4.15763">
        <ele>242.9</ele>
        <time>2019-08-20T10:02:19Z</time>
      </trkpt>
      <trkpt lat="46.45518" lon="4.15764">
        <ele>242.9</ele>
        <time>2019-08-20T10:02:20Z</time>
      </trkpt>
      <trkpt lat="46.45513" lon="4.15766">
        <ele>242.9</ele>
        <time>2019-08-20T10:02:21Z</time>
      </trkpt>
      <trkpt lat="46.45507" lon="4.15768">
        <ele>243</ele>
        <time>2019-08-20T10:02:22Z</time>
      </trkpt>
      <trkpt lat="46.45502" lon="4.15769">
        <ele>243</ele>
        <time>2019-08-20T10:02:23Z</time>
      </trkpt>
      <trkpt lat="46.45497" lon="4.1577">
        <ele>243</ele>
        <time>2019-08-20T10:02:24Z</time>
      </trkpt>
      <trkpt lat="46.45491" lon="4.15772">
        <ele>243</ele>
        <time>2019-08-20T10:02:25Z</time>
      </trkpt>
      <trkpt lat="46.45486" lon="4.15774">
        <ele>243</ele>
        <time>2019-08-20T10:02:26Z</time>
      </trkpt>
      <trkpt lat="46.45481" lon="4.15776">
        <ele>243</ele>
        <time>2019-08-20T10:02:27Z</time>
      </trkpt>
      <trkpt lat="46.45476" lon="4.15779">
        <ele>243</ele>
        <time>2019-08-20T10:02:28Z</time>
      </trkpt>
      <trkpt lat="46.45471" lon="4.1578">
        <ele>242.9</ele>
        <time>2019-08-20T10:02:29Z</time>
      </trkpt>
      <trkpt lat="46.45466" lon="4.15782">
        <ele>242.9</ele>
        <time>2019-08-20T10:02:30Z</time>
      </trkpt>
      <trkpt lat="46.45461" lon="4.15783">
        <ele>242.8</ele>
        <time>2019-08-20T10:02:31Z</time>
      </trkpt>
      <trkpt lat="46.45456" lon="4.15785">
        <ele>242.7</ele>
        <time>2019-08-20T10:02:32Z</time>
      </trkpt>
      <trkpt lat="46.45451" lon="4.15787">
        <ele>242.6</ele>
        <time>2019-08-20T10:02:33Z</time>
      </trkpt>
      <trkpt lat="46.45446" lon="4.15789">
        <ele>242.6</ele>
        <time>2019-08-20T10:02:34Z</time>
      </trkpt>
      <trkpt lat="46.4544" lon="4.15791">
        <ele>242.6</ele>
        <time>2019-08-20T10:02:35Z</time>
      </trkpt>
      <trkpt lat="46.45435" lon="4.15792">
        <ele>242.7</ele>
        <time>2019-08-20T10:02:36Z</time>
      </trkpt>
      <trkpt lat="46.45429" lon="4.15795">
        <ele>242.8</ele>
        <time>2019-08-20T10:02:37Z</time>
      </trkpt>
      <trkpt lat="46.45424" lon="4.15797">
        <ele>243</ele>
        <time>2019-08-20T10:02:38Z</time>
      </trkpt>
      <trkpt lat="46.45419" lon="4.15797">
        <ele>243.2</ele>
        <time>2019-08-20T10:02:39Z</time>
      </trkpt>
      <trkpt lat="46.45414" lon="4.15799">
        <ele>243.4</ele>
        <time>2019-08-20T10:02:40Z</time>
      </trkpt>
      <trkpt lat="46.45409" lon="4.158">
        <ele>243.6</ele>
        <time>2019-08-20T10:02:41Z</time>
      </trkpt>
      <trkpt lat="46.45404" lon="4.15801">
        <ele>243.7</ele>
        <time>2019-08-20T10:02:42Z</time>
      </trkpt>
      <trkpt lat="46.454" lon="4.15802">
        <ele>243.9</ele>
        <time>2019-08-20T10:02:43Z</time>
      </trkpt>
      <trkpt lat="46.45395" lon="4.15802">
        <ele>244</ele>
        <time>2019-08-20T10:02:44Z</time>
      </trkpt>
      <trkpt lat="46.45389" lon="4.15803">
        <ele>244.2</ele>
        <time>2019-08-20T10:02:45Z</time>
      </trkpt>
      <trkpt lat="46.45383" lon="4.15803">
        <ele>244.4</ele>
        <time>2019-08-20T10:02:46Z</time>
      </trkpt>
      <trkpt lat="46.45378" lon="4.15804">
        <ele>244.5</ele>
        <time>2019-08-20T10:02:47Z</time>
      </trkpt>
      <trkpt lat="46.45373" lon="4.15804">
        <ele>244.5</ele>
        <time>2019-08-20T10:02:48Z</time>
      </trkpt>
      <trkpt lat="46.45367" lon="4.15805">
        <ele>244.6</ele>
        <time>2019-08-20T10:02:49Z</time>
      </trkpt>
      <trkpt lat="46.45361" lon="4.15805">
        <ele>244.7</ele>
        <time>2019-08-20T10:02:50Z</time>
      </trkpt>
      <trkpt lat="46.45356" lon="4.15805">
        <ele>244.7</ele>
        <time>2019-08-20T10:02:51Z</time>
      </trkpt>
      <trkpt lat="46.4535" lon="4.15806">
        <ele>244.8</ele>
        <time>2019-08-20T10:02:52Z</time>
      </trkpt>
      <trkpt lat="46.45345" lon="4.15807">
        <ele>244.8</ele>
        <time>2019-08-20T10:02:53Z</time>
      </trkpt>
      <trkpt lat="46.4534" lon="4.15808">
        <ele>244.9</ele>
        <time>2019-08-20T10:02:54Z</time>
      </trkpt>
      <trkpt lat="46.45335" lon="4.1581">
        <ele>245</ele>
        <time>2019-08-20T10:02:55Z</time>
      </trkpt>
      <trkpt lat="46.45331" lon="4.15811">
        <ele>245.1</ele>
        <time>2019-08-20T10:02:56Z</time>
      </trkpt>
      <trkpt lat="46.45326" lon="4.15811">
        <ele>245.2</ele>
        <time>2019-08-20T10:02:57Z</time>
      </trkpt>
      <trkpt lat="46.45321" lon="4.15811">
        <ele>245.4</ele>
        <time>2019-08-20T10:02:58Z</time>
      </trkpt>
      <trkpt lat="46.45316" lon="4.15811">
        <ele>245.6</ele>
        <time>2019-08-20T10:02:59Z</time>
      </trkpt>
      <trkpt lat="46.45311" lon="4.1581">
        <ele>245.7</ele>
        <time>2019-08-20T10:03:00Z</time>
      </trkpt>
      <trkpt lat="46.45306" lon="4.15809">
        <ele>245.8</ele>
        <time>2019-08-20T10:03:01Z</time>
      </trkpt>
      <trkpt lat="46.453" lon="4.15809">
        <ele>246</ele>
        <time>2019-08-20T10:03:02Z</time>
      </trkpt>
      <trkpt lat="46.45295" lon="4.15809">
        <ele>246.1</ele>
        <time>2019-08-20T10:03:03Z</time>
      </trkpt>
      <trkpt lat="46.4529" lon="4.15809">
        <ele>246.1</ele>
        <time>2019-08-20T10:03:04Z</time>
      </trkpt>
      <trkpt lat="46.45284" lon="4.15809">
        <ele>246.1</ele>
        <time>2019-08-20T10:03:05Z</time>
      </trkpt>
      <trkpt lat="46.4528" lon="4.15809">
        <ele>246.1</ele>
        <time>2019-08-20T10:03:06Z</time>
      </trkpt>
      <trkpt lat="46.45275" lon="4.15808">
        <ele>246.1</ele>
        <time>2019-08-20T10:03:07Z</time>
      </trkpt>
      <trkpt lat="46.45269" lon="4.15805">
        <ele>246.1</ele>
        <time>2019-08-20T10:03:08Z</time>
      </trkpt>
      <trkpt lat="46.45264" lon="4.15804">
        <ele>246</ele>
        <time>2019-08-20T10:03:09Z</time>
      </trkpt>
      <trkpt lat="46.45258" lon="4.15801">
        <ele>245.9</ele>
        <time>2019-08-20T10:03:10Z</time>
      </trkpt>
      <trkpt lat="46.45253" lon="4.15797">
        <ele>245.7</ele>
        <time>2019-08-20T10:03:11Z</time>
      </trkpt>
      <trkpt lat="46.45248" lon="4.15793">
        <ele>245.6</ele>
        <time>2019-08-20T10:03:12Z</time>
      </trkpt>
      <trkpt lat="46.45244" lon="4.15788">
        <ele>245.6</ele>
        <time>2019-08-20T10:03:13Z</time>
      </trkpt>
      <trkpt lat="46.45239" lon="4.15783">
        <ele>245.5</ele>
        <time>2019-08-20T10:03:14Z</time>
      </trkpt>
      <trkpt lat="46.45234" lon="4.15779">
        <ele>245.5</ele>
        <time>2019-08-20T10:03:15Z</time>
      </trkpt>
      <trkpt lat="46.4523" lon="4.15775">
        <ele>245.5</ele>
        <time>2019-08-20T10:03:16Z</time>
      </trkpt>
      <trkpt lat="46.45225" lon="4.15771">
        <ele>245.5</ele>
        <time>2019-08-20T10:03:17Z</time>
      </trkpt>
      <trkpt lat="46.45222" lon="4.15766">
        <ele>245.5</ele>
        <time>2019-08-20T10:03:18Z</time>
      </trkpt>
      <trkpt lat="46.45217" lon="4.15763">
        <ele>245.5</ele>
        <time>2019-08-20T10:03:19Z</time>
      </trkpt>
      <trkpt lat="46.45213" lon="4.15759">
        <ele>245.6</ele>
        <time>2019-08-20T10:03:20Z</time>
      </trkpt>
      <trkpt lat="46.45209" lon="4.15756">
        <ele>245.6</ele>
        <time>2019-08-20T10:03:21Z</time>
      </trkpt>
      <trkpt lat="46.45205" lon="4.15753">
        <ele>245.6</ele>
        <time>2019-08-20T10:03:22Z</time>
      </trkpt>
      <trkpt lat="46.45201" lon="4.1575">
        <ele>245.6</ele>
        <time>2019-08-20T10:03:23Z</time>
      </trkpt>
      <trkpt lat="46.45197" lon="4.15747">
        <ele>245.7</ele>
        <time>2019-08-20T10:03:24Z</time>
      </trkpt>
      <trkpt lat="46.45192" lon="4.15744">
        <ele>245.7</ele>
        <time>2019-08-20T10:03:25Z</time>
      </trkpt>
      <trkpt lat="46.45188" lon="4.15742">
        <ele>245.7</ele>
        <time>2019-08-20T10:03:26Z</time>
      </trkpt>
      <trkpt lat="46.45183" lon="4.15739">
        <ele>245.7</ele>
        <time>2019-08-20T10:03:27Z</time>
      </trkpt>
      <trkpt lat="46.45179" lon="4.15735">
        <ele>245.8</ele>
        <time>2019-08-20T10:03:28Z</time>
      </trkpt>
      <trkpt lat="46.45175" lon="4.15732">
        <ele>245.8</ele>
        <time>2019-08-20T10:03:29Z</time>
      </trkpt>
      <trkpt lat="46.45172" lon="4.15729">
        <ele>245.8</ele>
        <time>2019-08-20T10:03:30Z</time>
      </trkpt>
      <trkpt lat="46.45169" lon="4.15726">
        <ele>245.8</ele>
        <time>2019-08-20T10:03:31Z</time>
      </trkpt>
      <trkpt lat="46.45166" lon="4.15725">
        <ele>245.9</ele>
        <time>2019-08-20T10:03:32Z</time>
      </trkpt>
      <trkpt lat="46.45162" lon="4.15723">
        <ele>245.9</ele>
        <time>2019-08-20T10:03:33Z</time>
      </trkpt>
      <trkpt lat="46.45158" lon="4.15721">
        <ele>245.9</ele>
        <time>2019-08-20T10:03:34Z</time>
      </trkpt>
      <trkpt lat="46.45155" lon="4.1572">
        <ele>245.9</ele>
        <time>2019-08-20T10:03:35Z</time>
      </trkpt>
      <trkpt lat="46.45152" lon="4.15719">
        <ele>245.9</ele>
        <time>2019-08-20T10:03:36Z</time>
      </trkpt>
      <trkpt lat="46.45149" lon="4.15718">
        <ele>246</ele>
        <time>2019-08-20T10:03:37Z</time>
      </trkpt>
      <trkpt lat="46.45145" lon="4.15714">
        <ele>246</ele>
        <time>2019-08-20T10:03:39Z</time>
      </trkpt>
      <trkpt lat="46.45142" lon="4.15713">
        <ele>246</ele>
        <time>2019-08-20T10:03:41Z</time>
      </trkpt>
      <trkpt lat="46.45139" lon="4.15712">
        <ele>245.9</ele>
        <time>2019-08-20T10:03:43Z</time>
      </trkpt>
      <trkpt lat="46.45134" lon="4.15711">
        <ele>245.9</ele>
        <time>2019-08-20T10:03:45Z</time>
      </trkpt>
      <trkpt lat="46.45131" lon="4.15712">
        <ele>245.9</ele>
        <time>2019-08-20T10:03:46Z</time>
      </trkpt>
      <trkpt lat="46.45127" lon="4.15711">
        <ele>245.9</ele>
        <time>2019-08-20T10:03:47Z</time>
      </trkpt>
      <trkpt lat="46.45124" lon="4.15711">
        <ele>245.9</ele>
        <time>2019-08-20T10:03:48Z</time>
      </trkpt>
      <trkpt lat="46.4512" lon="4.15711">
        <ele>245.9</ele>
        <time>2019-08-20T10:03:49Z</time>
      </trkpt>
      <trkpt lat="46.45116" lon="4.1571">
        <ele>245.9</ele>
        <time>2019-08-20T10:03:50Z</time>
      </trkpt>
      <trkpt lat="46.4511" lon="4.15711">
        <ele>245.9</ele>
        <time>2019-08-20T10:03:51Z</time>
      </trkpt>
      <trkpt lat="46.45105" lon="4.1571">
        <ele>246</ele>
        <time>2019-08-20T10:03:52Z</time>
      </trkpt>
      <trkpt lat="46.45099" lon="4.1571">
        <ele>246</ele>
        <time>2019-08-20T10:03:53Z</time>
      </trkpt>
      <trkpt lat="46.45093" lon="4.1571">
        <ele>246</ele>
        <time>2019-08-20T10:03:54Z</time>
      </trkpt>
      <trkpt lat="46.45087" lon="4.15709">
        <ele>246.1</ele>
        <time>2019-08-20T10:03:55Z</time>
      </trkpt>
      <trkpt lat="46.45081" lon="4.15708">
        <ele>246.1</ele>
        <time>2019-08-20T10:03:56Z</time>
      </trkpt>
      <trkpt lat="46.45076" lon="4.15708">
        <ele>246</ele>
        <time>2019-08-20T10:03:57Z</time>
      </trkpt>
      <trkpt lat="46.45071" lon="4.15708">
        <ele>245.9</ele>
        <time>2019-08-20T10:03:58Z</time>
      </trkpt>
      <trkpt lat="46.45067" lon="4.15707">
        <ele>245.8</ele>
        <time>2019-08-20T10:03:59Z</time>
      </trkpt>
      <trkpt lat="46.45064" lon="4.15704">
        <ele>245.7</ele>
        <time>2019-08-20T10:04:00Z</time>
      </trkpt>
      <trkpt lat="46.4506" lon="4.15704">
        <ele>245.5</ele>
        <time>2019-08-20T10:04:01Z</time>
      </trkpt>
      <trkpt lat="46.45056" lon="4.15702">
        <ele>245.4</ele>
        <time>2019-08-20T10:04:02Z</time>
      </trkpt>
      <trkpt lat="46.45053" lon="4.15698">
        <ele>245.2</ele>
        <time>2019-08-20T10:04:03Z</time>
      </trkpt>
      <trkpt lat="46.45051" lon="4.15695">
        <ele>245</ele>
        <time>2019-08-20T10:04:04Z</time>
      </trkpt>
      <trkpt lat="46.45052" lon="4.15688">
        <ele>245.4</ele>
        <time>2019-08-20T10:04:06Z</time>
      </trkpt>
      <trkpt lat="46.4505" lon="4.15682">
        <ele>245.3</ele>
        <time>2019-08-20T10:04:08Z</time>
      </trkpt>
      <trkpt lat="46.45046" lon="4.1568">
        <ele>245.2</ele>
        <time>2019-08-20T10:04:09Z</time>
      </trkpt>
      <trkpt lat="46.45043" lon="4.15679">
        <ele>245.2</ele>
        <time>2019-08-20T10:04:10Z</time>
      </trkpt>
      <trkpt lat="46.45039" lon="4.15678">
        <ele>245.1</ele>
        <time>2019-08-20T10:04:11Z</time>
      </trkpt>
      <trkpt lat="46.45035" lon="4.15677">
        <ele>245</ele>
        <time>2019-08-20T10:04:12Z</time>
      </trkpt>
      <trkpt lat="46.45031" lon="4.15676">
        <ele>244.9</ele>
        <time>2019-08-20T10:04:13Z</time>
      </trkpt>
      <trkpt lat="46.45027" lon="4.15674">
        <ele>244.8</ele>
        <time>2019-08-20T10:04:14Z</time>
      </trkpt>
      <trkpt lat="46.45022" lon="4.15672">
        <ele>244.7</ele>
        <time>2019-08-20T10:04:15Z</time>
      </trkpt>
      <trkpt lat="46.45018" lon="4.15669">
        <ele>244.6</ele>
        <time>2019-08-20T10:04:16Z</time>
      </trkpt>
      <trkpt lat="46.45013" lon="4.15667">
        <ele>244.4</ele>
        <time>2019-08-20T10:04:17Z</time>
      </trkpt>
      <trkpt lat="46.45008" lon="4.15665">
        <ele>244.3</ele>
        <time>2019-08-20T10:04:18Z</time>
      </trkpt>
      <trkpt lat="46.45003" lon="4.15663">
        <ele>244.2</ele>
        <time>2019-08-20T10:04:19Z</time>
      </trkpt>
      <trkpt lat="46.44998" lon="4.15661">
        <ele>244.1</ele>
        <time>2019-08-20T10:04:20Z</time>
      </trkpt>
      <trkpt lat="46.44994" lon="4.15658">
        <ele>244</ele>
        <time>2019-08-20T10:04:21Z</time>
      </trkpt>
      <trkpt lat="46.44989" lon="4.15656">
        <ele>243.9</ele>
        <time>2019-08-20T10:04:22Z</time>
      </trkpt>
      <trkpt lat="46.44984" lon="4.15655">
        <ele>243.8</ele>
        <time>2019-08-20T10:04:23Z</time>
      </trkpt>
      <trkpt lat="46.44979" lon="4.15653">
        <ele>243.7</ele>
        <time>2019-08-20T10:04:24Z</time>
      </trkpt>
      <trkpt lat="46.44974" lon="4.15651">
        <ele>243.6</ele>
        <time>2019-08-20T10:04:25Z</time>
      </trkpt>
      <trkpt lat="46.4497" lon="4.1565">
        <ele>243.5</ele>
        <time>2019-08-20T10:04:26Z</time>
      </trkpt>
      <trkpt lat="46.44965" lon="4.15648">
        <ele>243.4</ele>
        <time>2019-08-20T10:04:27Z</time>
      </trkpt>
      <trkpt lat="46.4496" lon="4.15647">
        <ele>243.3</ele>
        <time>2019-08-20T10:04:28Z</time>
      </trkpt>
      <trkpt lat="46.44955" lon="4.15646">
        <ele>243.3</ele>
        <time>2019-08-20T10:04:29Z</time>
      </trkpt>
      <trkpt lat="46.4495" lon="4.15644">
        <ele>243.2</ele>
        <time>2019-08-20T10:04:30Z</time>
      </trkpt>
      <trkpt lat="46.44945" lon="4.15642">
        <ele>243.1</ele>
        <time>2019-08-20T10:04:31Z</time>
      </trkpt>
      <trkpt lat="46.4494" lon="4.1564">
        <ele>243</ele>
        <time>2019-08-20T10:04:32Z</time>
      </trkpt>
      <trkpt lat="46.44935" lon="4.15638">
        <ele>242.9</ele>
        <time>2019-08-20T10:04:33Z</time>
      </trkpt>
      <trkpt lat="46.4493" lon="4.15636">
        <ele>242.7</ele>
        <time>2019-08-20T10:04:34Z</time>
      </trkpt>
      <trkpt lat="46.44925" lon="4.15635">
        <ele>242.7</ele>
        <time>2019-08-20T10:04:35Z</time>
      </trkpt>
      <trkpt lat="46.44921" lon="4.15634">
        <ele>242.9</ele>
        <time>2019-08-20T10:04:36Z</time>
      </trkpt>
      <trkpt lat="46.44916" lon="4.15632">
        <ele>243.1</ele>
        <time>2019-08-20T10:04:37Z</time>
      </trkpt>
      <trkpt lat="46.44911" lon="4.15631">
        <ele>243.3</ele>
        <time>2019-08-20T10:04:38Z</time>
      </trkpt>
      <trkpt lat="46.44907" lon="4.15629">
        <ele>243.4</ele>
        <time>2019-08-20T10:04:39Z</time>
      </trkpt>
      <trkpt lat="46.44902" lon="4.15627">
        <ele>243.5</ele>
        <time>2019-08-20T10:04:40Z</time>
      </trkpt>
      <trkpt lat="46.44897" lon="4.15624">
        <ele>243.6</ele>
        <time>2019-08-20T10:04:41Z</time>
      </trkpt>
      <trkpt lat="46.44892" lon="4.15623">
        <ele>243.6</ele>
        <time>2019-08-20T10:04:42Z</time>
      </trkpt>
      <trkpt lat="46.44888" lon="4.15621">
        <ele>243.6</ele>
        <time>2019-08-20T10:04:43Z</time>
      </trkpt>
      <trkpt lat="46.44883" lon="4.1562">
        <ele>243.7</ele>
        <time>2019-08-20T10:04:44Z</time>
      </trkpt>
      <trkpt lat="46.44878" lon="4.15618">
        <ele>243.7</ele>
        <time>2019-08-20T10:04:45Z</time>
      </trkpt>
      <trkpt lat="46.44874" lon="4.15617">
        <ele>243.7</ele>
        <time>2019-08-20T10:04:46Z</time>
      </trkpt>
      <trkpt lat="46.44869" lon="4.15616">
        <ele>243.8</ele>
        <time>2019-08-20T10:04:47Z</time>
      </trkpt>
      <trkpt lat="46.44864" lon="4.15617">
        <ele>243.9</ele>
        <time>2019-08-20T10:04:48Z</time>
      </trkpt>
      <trkpt lat="46.44859" lon="4.15617">
        <ele>243.9</ele>
        <time>2019-08-20T10:04:49Z</time>
      </trkpt>
      <trkpt lat="46.44854" lon="4.15618">
        <ele>244</ele>
        <time>2019-08-20T10:04:50Z</time>
      </trkpt>
      <trkpt lat="46.44849" lon="4.1562">
        <ele>244</ele>
        <time>2019-08-20T10:04:51Z</time>
      </trkpt>
      <trkpt lat="46.44844" lon="4.15621">
        <ele>244</ele>
        <time>2019-08-20T10:04:52Z</time>
      </trkpt>
      <trkpt lat="46.44839" lon="4.15622">
        <ele>244</ele>
        <time>2019-08-20T10:04:53Z</time>
      </trkpt>
      <trkpt lat="46.44834" lon="4.15623">
        <ele>244</ele>
        <time>2019-08-20T10:04:54Z</time>
      </trkpt>
      <trkpt lat="46.44829" lon="4.15623">
        <ele>244</ele>
        <time>2019-08-20T10:04:55Z</time>
      </trkpt>
      <trkpt lat="46.44824" lon="4.15622">
        <ele>244</ele>
        <time>2019-08-20T10:04:56Z</time>
      </trkpt>
      <trkpt lat="46.44819" lon="4.1562">
        <ele>244</ele>
        <time>2019-08-20T10:04:57Z</time>
      </trkpt>
      <trkpt lat="46.44815" lon="4.15619">
        <ele>244</ele>
        <time>2019-08-20T10:04:58Z</time>
      </trkpt>
      <trkpt lat="46.4481" lon="4.15618">
        <ele>244</ele>
        <time>2019-08-20T10:04:59Z</time>
      </trkpt>
      <trkpt lat="46.44806" lon="4.15617">
        <ele>244</ele>
        <time>2019-08-20T10:05:00Z</time>
      </trkpt>
      <trkpt lat="46.44801" lon="4.15616">
        <ele>244</ele>
        <time>2019-08-20T10:05:01Z</time>
      </trkpt>
      <trkpt lat="46.44797" lon="4.15615">
        <ele>244</ele>
        <time>2019-08-20T10:05:02Z</time>
      </trkpt>
      <trkpt lat="46.44792" lon="4.15613">
        <ele>244</ele>
        <time>2019-08-20T10:05:03Z</time>
      </trkpt>
      <trkpt lat="46.44788" lon="4.15612">
        <ele>244</ele>
        <time>2019-08-20T10:05:04Z</time>
      </trkpt>
      <trkpt lat="46.44783" lon="4.15611">
        <ele>244.1</ele>
        <time>2019-08-20T10:05:05Z</time>
      </trkpt>
      <trkpt lat="46.44779" lon="4.15609">
        <ele>244.1</ele>
        <time>2019-08-20T10:05:06Z</time>
      </trkpt>
      <trkpt lat="46.44774" lon="4.15608">
        <ele>244.1</ele>
        <time>2019-08-20T10:05:07Z</time>
      </trkpt>
      <trkpt lat="46.44769" lon="4.15607">
        <ele>244.1</ele>
        <time>2019-08-20T10:05:08Z</time>
      </trkpt>
      <trkpt lat="46.44765" lon="4.15606">
        <ele>244.1</ele>
        <time>2019-08-20T10:05:09Z</time>
      </trkpt>
      <trkpt lat="46.44761" lon="4.15604">
        <ele>244.1</ele>
        <time>2019-08-20T10:05:10Z</time>
      </trkpt>
      <trkpt lat="46.44756" lon="4.15602">
        <ele>244.1</ele>
        <time>2019-08-20T10:05:11Z</time>
      </trkpt>
      <trkpt lat="46.44751" lon="4.15601">
        <ele>244.1</ele>
        <time>2019-08-20T10:05:12Z</time>
      </trkpt>
      <trkpt lat="46.44747" lon="4.156">
        <ele>244.1</ele>
        <time>2019-08-20T10:05:13Z</time>
      </trkpt>
      <trkpt lat="46.44743" lon="4.15599">
        <ele>244.1</ele>
        <time>2019-08-20T10:05:14Z</time>
      </trkpt>
      <trkpt lat="46.44738" lon="4.15597">
        <ele>244.1</ele>
        <time>2019-08-20T10:05:15Z</time>
      </trkpt>
      <trkpt lat="46.44734" lon="4.15595">
        <ele>244.1</ele>
        <time>2019-08-20T10:05:16Z</time>
      </trkpt>
      <trkpt lat="46.44729" lon="4.15594">
        <ele>244.1</ele>
        <time>2019-08-20T10:05:17Z</time>
      </trkpt>
      <trkpt lat="46.44724" lon="4.15592">
        <ele>244.1</ele>
        <time>2019-08-20T10:05:18Z</time>
      </trkpt>
      <trkpt lat="46.44719" lon="4.15591">
        <ele>244.1</ele>
        <time>2019-08-20T10:05:19Z</time>
      </trkpt>
      <trkpt lat="46.44714" lon="4.15589">
        <ele>244.1</ele>
        <time>2019-08-20T10:05:20Z</time>
      </trkpt>
      <trkpt lat="46.44709" lon="4.15587">
        <ele>244.1</ele>
        <time>2019-08-20T10:05:21Z</time>
      </trkpt>
      <trkpt lat="46.44704" lon="4.15584">
        <ele>244.1</ele>
        <time>2019-08-20T10:05:22Z</time>
      </trkpt>
      <trkpt lat="46.447" lon="4.15583">
        <ele>244.1</ele>
        <time>2019-08-20T10:05:23Z</time>
      </trkpt>
      <trkpt lat="46.44695" lon="4.15582">
        <ele>244.1</ele>
        <time>2019-08-20T10:05:24Z</time>
      </trkpt>
      <trkpt lat="46.44691" lon="4.1558">
        <ele>244.1</ele>
        <time>2019-08-20T10:05:25Z</time>
      </trkpt>
      <trkpt lat="46.44686" lon="4.15579">
        <ele>244.1</ele>
        <time>2019-08-20T10:05:26Z</time>
      </trkpt>
      <trkpt lat="46.44681" lon="4.15578">
        <ele>244.1</ele>
        <time>2019-08-20T10:05:27Z</time>
      </trkpt>
      <trkpt lat="46.44677" lon="4.15577">
        <ele>244.1</ele>
        <time>2019-08-20T10:05:28Z</time>
      </trkpt>
      <trkpt lat="46.44674" lon="4.15577">
        <ele>244.1</ele>
        <time>2019-08-20T10:05:29Z</time>
      </trkpt>
      <trkpt lat="46.44669" lon="4.15576">
        <ele>244.1</ele>
        <time>2019-08-20T10:05:30Z</time>
      </trkpt>
      <trkpt lat="46.44666" lon="4.15574">
        <ele>244.1</ele>
        <time>2019-08-20T10:05:31Z</time>
      </trkpt>
      <trkpt lat="46.44661" lon="4.15572">
        <ele>244.1</ele>
        <time>2019-08-20T10:05:32Z</time>
      </trkpt>
      <trkpt lat="46.44657" lon="4.1557">
        <ele>244.1</ele>
        <time>2019-08-20T10:05:33Z</time>
      </trkpt>
      <trkpt lat="46.44652" lon="4.15568">
        <ele>244.1</ele>
        <time>2019-08-20T10:05:34Z</time>
      </trkpt>
      <trkpt lat="46.44648" lon="4.15565">
        <ele>244.1</ele>
        <time>2019-08-20T10:05:35Z</time>
      </trkpt>
      <trkpt lat="46.44644" lon="4.15562">
        <ele>244.1</ele>
        <time>2019-08-20T10:05:36Z</time>
      </trkpt>
      <trkpt lat="46.44639" lon="4.15559">
        <ele>244.1</ele>
        <time>2019-08-20T10:05:37Z</time>
      </trkpt>
      <trkpt lat="46.44635" lon="4.15556">
        <ele>244.1</ele>
        <time>2019-08-20T10:05:38Z</time>
      </trkpt>
      <trkpt lat="46.4463" lon="4.15552">
        <ele>244.1</ele>
        <time>2019-08-20T10:05:39Z</time>
      </trkpt>
      <trkpt lat="46.44625" lon="4.15549">
        <ele>244.1</ele>
        <time>2019-08-20T10:05:40Z</time>
      </trkpt>
      <trkpt lat="46.44619" lon="4.15546">
        <ele>244.1</ele>
        <time>2019-08-20T10:05:41Z</time>
      </trkpt>
      <trkpt lat="46.44614" lon="4.15543">
        <ele>244.1</ele>
        <time>2019-08-20T10:05:42Z</time>
      </trkpt>
      <trkpt lat="46.44609" lon="4.15541">
        <ele>244.1</ele>
        <time>2019-08-20T10:05:43Z</time>
      </trkpt>
      <trkpt lat="46.44604" lon="4.15538">
        <ele>244.1</ele>
        <time>2019-08-20T10:05:44Z</time>
      </trkpt>
      <trkpt lat="46.44599" lon="4.15535">
        <ele>244.1</ele>
        <time>2019-08-20T10:05:45Z</time>
      </trkpt>
      <trkpt lat="46.44594" lon="4.15532">
        <ele>244.1</ele>
        <time>2019-08-20T10:05:46Z</time>
      </trkpt>
      <trkpt lat="46.4459" lon="4.15528">
        <ele>244.1</ele>
        <time>2019-08-20T10:05:47Z</time>
      </trkpt>
      <trkpt lat="46.44585" lon="4.15525">
        <ele>244.1</ele>
        <time>2019-08-20T10:05:48Z</time>
      </trkpt>
      <trkpt lat="46.44579" lon="4.15522">
        <ele>244.1</ele>
        <time>2019-08-20T10:05:49Z</time>
      </trkpt>
      <trkpt lat="46.44575" lon="4.15517">
        <ele>244.1</ele>
        <time>2019-08-20T10:05:50Z</time>
      </trkpt>
      <trkpt lat="46.44569" lon="4.15514">
        <ele>244.1</ele>
        <time>2019-08-20T10:05:51Z</time>
      </trkpt>
      <trkpt lat="46.44565" lon="4.15512">
        <ele>244.1</ele>
        <time>2019-08-20T10:05:52Z</time>
      </trkpt>
      <trkpt lat="46.4456" lon="4.1551">
        <ele>244.1</ele>
        <time>2019-08-20T10:05:53Z</time>
      </trkpt>
      <trkpt lat="46.44556" lon="4.15507">
        <ele>244.1</ele>
        <time>2019-08-20T10:05:54Z</time>
      </trkpt>
      <trkpt lat="46.44551" lon="4.15504">
        <ele>244.1</ele>
        <time>2019-08-20T10:05:55Z</time>
      </trkpt>
      <trkpt lat="46.44547" lon="4.15501">
        <ele>244.1</ele>
        <time>2019-08-20T10:05:56Z</time>
      </trkpt>
      <trkpt lat="46.44542" lon="4.15498">
        <ele>244.1</ele>
        <time>2019-08-20T10:05:57Z</time>
      </trkpt>
      <trkpt lat="46.44538" lon="4.15495">
        <ele>244.1</ele>
        <time>2019-08-20T10:05:58Z</time>
      </trkpt>
      <trkpt lat="46.44533" lon="4.15492">
        <ele>244.1</ele>
        <time>2019-08-20T10:05:59Z</time>
      </trkpt>
      <trkpt lat="46.44529" lon="4.15488">
        <ele>244.1</ele>
        <time>2019-08-20T10:06:00Z</time>
      </trkpt>
      <trkpt lat="46.44524" lon="4.15485">
        <ele>244.2</ele>
        <time>2019-08-20T10:06:01Z</time>
      </trkpt>
      <trkpt lat="46.44519" lon="4.15481">
        <ele>244.2</ele>
        <time>2019-08-20T10:06:02Z</time>
      </trkpt>
      <trkpt lat="46.44515" lon="4.15477">
        <ele>244.2</ele>
        <time>2019-08-20T10:06:03Z</time>
      </trkpt>
      <trkpt lat="46.44509" lon="4.15475">
        <ele>244.2</ele>
        <time>2019-08-20T10:06:04Z</time>
      </trkpt>
      <trkpt lat="46.44504" lon="4.15472">
        <ele>244.2</ele>
        <time>2019-08-20T10:06:05Z</time>
      </trkpt>
      <trkpt lat="46.445" lon="4.15469">
        <ele>244.2</ele>
        <time>2019-08-20T10:06:06Z</time>
      </trkpt>
      <trkpt lat="46.44495" lon="4.15465">
        <ele>244.2</ele>
        <time>2019-08-20T10:06:07Z</time>
      </trkpt>
      <trkpt lat="46.4449" lon="4.15462">
        <ele>244.2</ele>
        <time>2019-08-20T10:06:08Z</time>
      </trkpt>
      <trkpt lat="46.44484" lon="4.15458">
        <ele>244.2</ele>
        <time>2019-08-20T10:06:09Z</time>
      </trkpt>
      <trkpt lat="46.44479" lon="4.15455">
        <ele>244.2</ele>
        <time>2019-08-20T10:06:10Z</time>
      </trkpt>
      <trkpt lat="46.44473" lon="4.15451">
        <ele>244.2</ele>
        <time>2019-08-20T10:06:11Z</time>
      </trkpt>
      <trkpt lat="46.44468" lon="4.15447">
        <ele>244.2</ele>
        <time>2019-08-20T10:06:12Z</time>
      </trkpt>
      <trkpt lat="46.44463" lon="4.15444">
        <ele>244.2</ele>
        <time>2019-08-20T10:06:13Z</time>
      </trkpt>
      <trkpt lat="46.44458" lon="4.15441">
        <ele>244.2</ele>
        <time>2019-08-20T10:06:14Z</time>
      </trkpt>
      <trkpt lat="46.44453" lon="4.15437">
        <ele>244.2</ele>
        <time>2019-08-20T10:06:15Z</time>
      </trkpt>
      <trkpt lat="46.44447" lon="4.15434">
        <ele>244.2</ele>
        <time>2019-08-20T10:06:16Z</time>
      </trkpt>
      <trkpt lat="46.44442" lon="4.15431">
        <ele>244.2</ele>
        <time>2019-08-20T10:06:17Z</time>
      </trkpt>
      <trkpt lat="46.44437" lon="4.15428">
        <ele>244.2</ele>
        <time>2019-08-20T10:06:18Z</time>
      </trkpt>
      <trkpt lat="46.44432" lon="4.15425">
        <ele>244.2</ele>
        <time>2019-08-20T10:06:19Z</time>
      </trkpt>
      <trkpt lat="46.44428" lon="4.15422">
        <ele>244.2</ele>
        <time>2019-08-20T10:06:20Z</time>
      </trkpt>
      <trkpt lat="46.44424" lon="4.15418">
        <ele>244.2</ele>
        <time>2019-08-20T10:06:21Z</time>
      </trkpt>
      <trkpt lat="46.44419" lon="4.15415">
        <ele>244.2</ele>
        <time>2019-08-20T10:06:22Z</time>
      </trkpt>
      <trkpt lat="46.44415" lon="4.15411">
        <ele>244.2</ele>
        <time>2019-08-20T10:06:23Z</time>
      </trkpt>
      <trkpt lat="46.4441" lon="4.15408">
        <ele>244.2</ele>
        <time>2019-08-20T10:06:24Z</time>
      </trkpt>
      <trkpt lat="46.44406" lon="4.15405">
        <ele>244.2</ele>
        <time>2019-08-20T10:06:25Z</time>
      </trkpt>
      <trkpt lat="46.44402" lon="4.15402">
        <ele>244.2</ele>
        <time>2019-08-20T10:06:26Z</time>
      </trkpt>
      <trkpt lat="46.44397" lon="4.15399">
        <ele>244.2</ele>
        <time>2019-08-20T10:06:27Z</time>
      </trkpt>
      <trkpt lat="46.44394" lon="4.15396">
        <ele>244.2</ele>
        <time>2019-08-20T10:06:28Z</time>
      </trkpt>
      <trkpt lat="46.4439" lon="4.15393">
        <ele>244.2</ele>
        <time>2019-08-20T10:06:29Z</time>
      </trkpt>
      <trkpt lat="46.44386" lon="4.1539">
        <ele>244.2</ele>
        <time>2019-08-20T10:06:30Z</time>
      </trkpt>
      <trkpt lat="46.44382" lon="4.15386">
        <ele>244.2</ele>
        <time>2019-08-20T10:06:31Z</time>
      </trkpt>
      <trkpt lat="46.44379" lon="4.15383">
        <ele>244.2</ele>
        <time>2019-08-20T10:06:32Z</time>
      </trkpt>
      <trkpt lat="46.44374" lon="4.15379">
        <ele>244.2</ele>
        <time>2019-08-20T10:06:33Z</time>
      </trkpt>
      <trkpt lat="46.4437" lon="4.15375">
        <ele>244.2</ele>
        <time>2019-08-20T10:06:34Z</time>
      </trkpt>
      <trkpt lat="46.44365" lon="4.15371">
        <ele>244.2</ele>
        <time>2019-08-20T10:06:35Z</time>
      </trkpt>
      <trkpt lat="46.44361" lon="4.15367">
        <ele>244.2</ele>
        <time>2019-08-20T10:06:36Z</time>
      </trkpt>
      <trkpt lat="46.44357" lon="4.15363">
        <ele>244.2</ele>
        <time>2019-08-20T10:06:37Z</time>
      </trkpt>
      <trkpt lat="46.44353" lon="4.1536">
        <ele>244.2</ele>
        <time>2019-08-20T10:06:38Z</time>
      </trkpt>
      <trkpt lat="46.4435" lon="4.15357">
        <ele>244.2</ele>
        <time>2019-08-20T10:06:39Z</time>
      </trkpt>
      <trkpt lat="46.44346" lon="4.15353">
        <ele>244.2</ele>
        <time>2019-08-20T10:06:40Z</time>
      </trkpt>
      <trkpt lat="46.44343" lon="4.15349">
        <ele>244.2</ele>
        <time>2019-08-20T10:06:41Z</time>
      </trkpt>
      <trkpt lat="46.4434" lon="4.15345">
        <ele>244.2</ele>
        <time>2019-08-20T10:06:42Z</time>
      </trkpt>
      <trkpt lat="46.44337" lon="4.15341">
        <ele>244.2</ele>
        <time>2019-08-20T10:06:43Z</time>
      </trkpt>
      <trkpt lat="46.44334" lon="4.15337">
        <ele>244.2</ele>
        <time>2019-08-20T10:06:44Z</time>
      </trkpt>
      <trkpt lat="46.44331" lon="4.15332">
        <ele>244.2</ele>
        <time>2019-08-20T10:06:45Z</time>
      </trkpt>
      <trkpt lat="46.44328" lon="4.15327">
        <ele>244.2</ele>
        <time>2019-08-20T10:06:46Z</time>
      </trkpt>
      <trkpt lat="46.44324" lon="4.15322">
        <ele>244.2</ele>
        <time>2019-08-20T10:06:47Z</time>
      </trkpt>
      <trkpt lat="46.44321" lon="4.15315">
        <ele>244.2</ele>
        <time>2019-08-20T10:06:48Z</time>
      </trkpt>
      <trkpt lat="46.44317" lon="4.1531">
        <ele>244.2</ele>
        <time>2019-08-20T10:06:49Z</time>
      </trkpt>
      <trkpt lat="46.44314" lon="4.15304">
        <ele>244.2</ele>
        <time>2019-08-20T10:06:50Z</time>
      </trkpt>
      <trkpt lat="46.4431" lon="4.15299">
        <ele>244.2</ele>
        <time>2019-08-20T10:06:51Z</time>
      </trkpt>
      <trkpt lat="46.44307" lon="4.15294">
        <ele>244.2</ele>
        <time>2019-08-20T10:06:52Z</time>
      </trkpt>
      <trkpt lat="46.44304" lon="4.15289">
        <ele>244.2</ele>
        <time>2019-08-20T10:06:53Z</time>
      </trkpt>
      <trkpt lat="46.44301" lon="4.15285">
        <ele>244.2</ele>
        <time>2019-08-20T10:06:54Z</time>
      </trkpt>
      <trkpt lat="46.44298" lon="4.1528">
        <ele>244.2</ele>
        <time>2019-08-20T10:06:55Z</time>
      </trkpt>
      <trkpt lat="46.44295" lon="4.15274">
        <ele>244.3</ele>
        <time>2019-08-20T10:06:56Z</time>
      </trkpt>
      <trkpt lat="46.44292" lon="4.15269">
        <ele>244.3</ele>
        <time>2019-08-20T10:06:57Z</time>
      </trkpt>
      <trkpt lat="46.44289" lon="4.15262">
        <ele>244.3</ele>
        <time>2019-08-20T10:06:58Z</time>
      </trkpt>
      <trkpt lat="46.44285" lon="4.15256">
        <ele>244.3</ele>
        <time>2019-08-20T10:06:59Z</time>
      </trkpt>
      <trkpt lat="46.44282" lon="4.1525">
        <ele>244.3</ele>
        <time>2019-08-20T10:07:00Z</time>
      </trkpt>
      <trkpt lat="46.44278" lon="4.15244">
        <ele>244.3</ele>
        <time>2019-08-20T10:07:01Z</time>
      </trkpt>
      <trkpt lat="46.44274" lon="4.15238">
        <ele>244.3</ele>
        <time>2019-08-20T10:07:02Z</time>
      </trkpt>
      <trkpt lat="46.4427" lon="4.15233">
        <ele>244.2</ele>
        <time>2019-08-20T10:07:03Z</time>
      </trkpt>
      <trkpt lat="46.44267" lon="4.15228">
        <ele>244.2</ele>
        <time>2019-08-20T10:07:04Z</time>
      </trkpt>
      <trkpt lat="46.44265" lon="4.15223">
        <ele>244.2</ele>
        <time>2019-08-20T10:07:05Z</time>
      </trkpt>
      <trkpt lat="46.44262" lon="4.15217">
        <ele>244.1</ele>
        <time>2019-08-20T10:07:06Z</time>
      </trkpt>
      <trkpt lat="46.4426" lon="4.15211">
        <ele>244.1</ele>
        <time>2019-08-20T10:07:07Z</time>
      </trkpt>
      <trkpt lat="46.44257" lon="4.15206">
        <ele>244.1</ele>
        <time>2019-08-20T10:07:08Z</time>
      </trkpt>
      <trkpt lat="46.44254" lon="4.152">
        <ele>244.1</ele>
        <time>2019-08-20T10:07:09Z</time>
      </trkpt>
      <trkpt lat="46.44251" lon="4.15193">
        <ele>244.2</ele>
        <time>2019-08-20T10:07:10Z</time>
      </trkpt>
      <trkpt lat="46.44248" lon="4.15187">
        <ele>244.2</ele>
        <time>2019-08-20T10:07:11Z</time>
      </trkpt>
      <trkpt lat="46.44245" lon="4.1518">
        <ele>244.2</ele>
        <time>2019-08-20T10:07:12Z</time>
      </trkpt>
      <trkpt lat="46.44242" lon="4.15174">
        <ele>244.3</ele>
        <time>2019-08-20T10:07:13Z</time>
      </trkpt>
      <trkpt lat="46.44241" lon="4.15168">
        <ele>244.3</ele>
        <time>2019-08-20T10:07:14Z</time>
      </trkpt>
      <trkpt lat="46.44239" lon="4.15162">
        <ele>244.3</ele>
        <time>2019-08-20T10:07:15Z</time>
      </trkpt>
      <trkpt lat="46.44237" lon="4.15155">
        <ele>244.3</ele>
        <time>2019-08-20T10:07:16Z</time>
      </trkpt>
      <trkpt lat="46.44236" lon="4.15149">
        <ele>244.2</ele>
        <time>2019-08-20T10:07:17Z</time>
      </trkpt>
      <trkpt lat="46.44235" lon="4.15142">
        <ele>244.2</ele>
        <time>2019-08-20T10:07:18Z</time>
      </trkpt>
      <trkpt lat="46.44234" lon="4.15135">
        <ele>244.1</ele>
        <time>2019-08-20T10:07:19Z</time>
      </trkpt>
      <trkpt lat="46.44233" lon="4.15129">
        <ele>244</ele>
        <time>2019-08-20T10:07:20Z</time>
      </trkpt>
      <trkpt lat="46.44234" lon="4.15121">
        <ele>243.8</ele>
        <time>2019-08-20T10:07:21Z</time>
      </trkpt>
      <trkpt lat="46.44234" lon="4.15115">
        <ele>243.6</ele>
        <time>2019-08-20T10:07:22Z</time>
      </trkpt>
      <trkpt lat="46.44234" lon="4.15109">
        <ele>243.5</ele>
        <time>2019-08-20T10:07:23Z</time>
      </trkpt>
      <trkpt lat="46.44234" lon="4.15101">
        <ele>243.4</ele>
        <time>2019-08-20T10:07:24Z</time>
      </trkpt>
      <trkpt lat="46.44234" lon="4.15095">
        <ele>243.4</ele>
        <time>2019-08-20T10:07:25Z</time>
      </trkpt>
      <trkpt lat="46.44235" lon="4.15088">
        <ele>243.5</ele>
        <time>2019-08-20T10:07:26Z</time>
      </trkpt>
      <trkpt lat="46.44237" lon="4.1508">
        <ele>243.7</ele>
        <time>2019-08-20T10:07:27Z</time>
      </trkpt>
      <trkpt lat="46.44238" lon="4.15073">
        <ele>243.9</ele>
        <time>2019-08-20T10:07:28Z</time>
      </trkpt>
      <trkpt lat="46.44239" lon="4.15066">
        <ele>244.1</ele>
        <time>2019-08-20T10:07:29Z</time>
      </trkpt>
      <trkpt lat="46.4424" lon="4.1506">
        <ele>244.2</ele>
        <time>2019-08-20T10:07:30Z</time>
      </trkpt>
      <trkpt lat="46.44242" lon="4.15053">
        <ele>244.4</ele>
        <time>2019-08-20T10:07:31Z</time>
      </trkpt>
      <trkpt lat="46.44244" lon="4.15046">
        <ele>244.5</ele>
        <time>2019-08-20T10:07:32Z</time>
      </trkpt>
      <trkpt lat="46.44246" lon="4.15038">
        <ele>244.6</ele>
        <time>2019-08-20T10:07:33Z</time>
      </trkpt>
      <trkpt lat="46.44248" lon="4.15031">
        <ele>244.6</ele>
        <time>2019-08-20T10:07:34Z</time>
      </trkpt>
      <trkpt lat="46.4425" lon="4.15026">
        <ele>244.6</ele>
        <time>2019-08-20T10:07:35Z</time>
      </trkpt>
      <trkpt lat="46.44252" lon="4.1502">
        <ele>244.6</ele>
        <time>2019-08-20T10:07:36Z</time>
      </trkpt>
      <trkpt lat="46.44254" lon="4.15013">
        <ele>244.6</ele>
        <time>2019-08-20T10:07:37Z</time>
      </trkpt>
      <trkpt lat="46.44256" lon="4.15006">
        <ele>244.6</ele>
        <time>2019-08-20T10:07:38Z</time>
      </trkpt>
      <trkpt lat="46.44258" lon="4.15">
        <ele>244.6</ele>
        <time>2019-08-20T10:07:39Z</time>
      </trkpt>
      <trkpt lat="46.4426" lon="4.14993">
        <ele>244.6</ele>
        <time>2019-08-20T10:07:40Z</time>
      </trkpt>
      <trkpt lat="46.44262" lon="4.14986">
        <ele>244.6</ele>
        <time>2019-08-20T10:07:41Z</time>
      </trkpt>
      <trkpt lat="46.44264" lon="4.14978">
        <ele>244.6</ele>
        <time>2019-08-20T10:07:42Z</time>
      </trkpt>
      <trkpt lat="46.44265" lon="4.1497">
        <ele>244.6</ele>
        <time>2019-08-20T10:07:43Z</time>
      </trkpt>
      <trkpt lat="46.44267" lon="4.14962">
        <ele>244.6</ele>
        <time>2019-08-20T10:07:44Z</time>
      </trkpt>
      <trkpt lat="46.44268" lon="4.14955">
        <ele>244.6</ele>
        <time>2019-08-20T10:07:45Z</time>
      </trkpt>
      <trkpt lat="46.44269" lon="4.14948">
        <ele>244.6</ele>
        <time>2019-08-20T10:07:46Z</time>
      </trkpt>
      <trkpt lat="46.4427" lon="4.14941">
        <ele>244.6</ele>
        <time>2019-08-20T10:07:47Z</time>
      </trkpt>
      <trkpt lat="46.44271" lon="4.14935">
        <ele>244.6</ele>
        <time>2019-08-20T10:07:48Z</time>
      </trkpt>
      <trkpt lat="46.44273" lon="4.14928">
        <ele>244.6</ele>
        <time>2019-08-20T10:07:49Z</time>
      </trkpt>
      <trkpt lat="46.44274" lon="4.14922">
        <ele>244.6</ele>
        <time>2019-08-20T10:07:50Z</time>
      </trkpt>
      <trkpt lat="46.44274" lon="4.14916">
        <ele>244.6</ele>
        <time>2019-08-20T10:07:51Z</time>
      </trkpt>
      <trkpt lat="46.44275" lon="4.1491">
        <ele>244.7</ele>
        <time>2019-08-20T10:07:52Z</time>
      </trkpt>
      <trkpt lat="46.44275" lon="4.14904">
        <ele>244.7</ele>
        <time>2019-08-20T10:07:53Z</time>
      </trkpt>
      <trkpt lat="46.44275" lon="4.14898">
        <ele>244.7</ele>
        <time>2019-08-20T10:07:54Z</time>
      </trkpt>
      <trkpt lat="46.44275" lon="4.14891">
        <ele>244.7</ele>
        <time>2019-08-20T10:07:55Z</time>
      </trkpt>
      <trkpt lat="46.44275" lon="4.14883">
        <ele>244.7</ele>
        <time>2019-08-20T10:07:56Z</time>
      </trkpt>
      <trkpt lat="46.44276" lon="4.14876">
        <ele>244.7</ele>
        <time>2019-08-20T10:07:57Z</time>
      </trkpt>
      <trkpt lat="46.44277" lon="4.14869">
        <ele>244.7</ele>
        <time>2019-08-20T10:07:58Z</time>
      </trkpt>
      <trkpt lat="46.44277" lon="4.14862">
        <ele>244.7</ele>
        <time>2019-08-20T10:07:59Z</time>
      </trkpt>
      <trkpt lat="46.44279" lon="4.14854">
        <ele>244.7</ele>
        <time>2019-08-20T10:08:00Z</time>
      </trkpt>
      <trkpt lat="46.4428" lon="4.14847">
        <ele>244.7</ele>
        <time>2019-08-20T10:08:01Z</time>
      </trkpt>
      <trkpt lat="46.4428" lon="4.14839">
        <ele>244.7</ele>
        <time>2019-08-20T10:08:02Z</time>
      </trkpt>
      <trkpt lat="46.44281" lon="4.14831">
        <ele>244.7</ele>
        <time>2019-08-20T10:08:03Z</time>
      </trkpt>
      <trkpt lat="46.44282" lon="4.14825">
        <ele>244.7</ele>
        <time>2019-08-20T10:08:04Z</time>
      </trkpt>
      <trkpt lat="46.44283" lon="4.14817">
        <ele>244.7</ele>
        <time>2019-08-20T10:08:05Z</time>
      </trkpt>
      <trkpt lat="46.44284" lon="4.14809">
        <ele>244.7</ele>
        <time>2019-08-20T10:08:06Z</time>
      </trkpt>
      <trkpt lat="46.44284" lon="4.14802">
        <ele>244.7</ele>
        <time>2019-08-20T10:08:07Z</time>
      </trkpt>
      <trkpt lat="46.44284" lon="4.14795">
        <ele>244.7</ele>
        <time>2019-08-20T10:08:08Z</time>
      </trkpt>
      <trkpt lat="46.44285" lon="4.14788">
        <ele>244.7</ele>
        <time>2019-08-20T10:08:09Z</time>
      </trkpt>
      <trkpt lat="46.44286" lon="4.1478">
        <ele>244.7</ele>
        <time>2019-08-20T10:08:10Z</time>
      </trkpt>
      <trkpt lat="46.44286" lon="4.14772">
        <ele>244.7</ele>
        <time>2019-08-20T10:08:11Z</time>
      </trkpt>
      <trkpt lat="46.44287" lon="4.14765">
        <ele>244.7</ele>
        <time>2019-08-20T10:08:12Z</time>
      </trkpt>
      <trkpt lat="46.44288" lon="4.14758">
        <ele>244.7</ele>
        <time>2019-08-20T10:08:13Z</time>
      </trkpt>
      <trkpt lat="46.4429" lon="4.14752">
        <ele>244.7</ele>
        <time>2019-08-20T10:08:14Z</time>
      </trkpt>
      <trkpt lat="46.44291" lon="4.14745">
        <ele>244.7</ele>
        <time>2019-08-20T10:08:15Z</time>
      </trkpt>
      <trkpt lat="46.44291" lon="4.14739">
        <ele>244.7</ele>
        <time>2019-08-20T10:08:16Z</time>
      </trkpt>
      <trkpt lat="46.44291" lon="4.14732">
        <ele>244.7</ele>
        <time>2019-08-20T10:08:17Z</time>
      </trkpt>
      <trkpt lat="46.44292" lon="4.14725">
        <ele>244.7</ele>
        <time>2019-08-20T10:08:18Z</time>
      </trkpt>
      <trkpt lat="46.44292" lon="4.14719">
        <ele>244.7</ele>
        <time>2019-08-20T10:08:19Z</time>
      </trkpt>
      <trkpt lat="46.44292" lon="4.14713">
        <ele>244.7</ele>
        <time>2019-08-20T10:08:20Z</time>
      </trkpt>
      <trkpt lat="46.44293" lon="4.14707">
        <ele>244.7</ele>
        <time>2019-08-20T10:08:21Z</time>
      </trkpt>
      <trkpt lat="46.44293" lon="4.147">
        <ele>244.7</ele>
        <time>2019-08-20T10:08:22Z</time>
      </trkpt>
      <trkpt lat="46.44294" lon="4.14692">
        <ele>244.7</ele>
        <time>2019-08-20T10:08:23Z</time>
      </trkpt>
      <trkpt lat="46.44295" lon="4.14683">
        <ele>244.7</ele>
        <time>2019-08-20T10:08:24Z</time>
      </trkpt>
      <trkpt lat="46.44296" lon="4.14676">
        <ele>244.7</ele>
        <time>2019-08-20T10:08:25Z</time>
      </trkpt>
      <trkpt lat="46.44296" lon="4.14668">
        <ele>244.7</ele>
        <time>2019-08-20T10:08:26Z</time>
      </trkpt>
      <trkpt lat="46.44298" lon="4.14664">
        <ele>244.7</ele>
        <time>2019-08-20T10:08:27Z</time>
      </trkpt>
      <trkpt lat="46.44299" lon="4.14657">
        <ele>244.7</ele>
        <time>2019-08-20T10:08:28Z</time>
      </trkpt>
      <trkpt lat="46.443" lon="4.14649">
        <ele>244.7</ele>
        <time>2019-08-20T10:08:29Z</time>
      </trkpt>
      <trkpt lat="46.443" lon="4.14642">
        <ele>244.6</ele>
        <time>2019-08-20T10:08:30Z</time>
      </trkpt>
      <trkpt lat="46.44301" lon="4.14634">
        <ele>244.5</ele>
        <time>2019-08-20T10:08:31Z</time>
      </trkpt>
      <trkpt lat="46.44302" lon="4.14627">
        <ele>244.4</ele>
        <time>2019-08-20T10:08:32Z</time>
      </trkpt>
      <trkpt lat="46.44303" lon="4.1462">
        <ele>244.2</ele>
        <time>2019-08-20T10:08:33Z</time>
      </trkpt>
      <trkpt lat="46.44304" lon="4.14612">
        <ele>243.8</ele>
        <time>2019-08-20T10:08:34Z</time>
      </trkpt>
      <trkpt lat="46.44305" lon="4.14605">
        <ele>243.6</ele>
        <time>2019-08-20T10:08:35Z</time>
      </trkpt>
      <trkpt lat="46.44306" lon="4.14598">
        <ele>243.3</ele>
        <time>2019-08-20T10:08:36Z</time>
      </trkpt>
      <trkpt lat="46.44306" lon="4.14591">
        <ele>243.2</ele>
        <time>2019-08-20T10:08:37Z</time>
      </trkpt>
      <trkpt lat="46.44307" lon="4.14584">
        <ele>243.1</ele>
        <time>2019-08-20T10:08:38Z</time>
      </trkpt>
      <trkpt lat="46.44308" lon="4.14576">
        <ele>243</ele>
        <time>2019-08-20T10:08:39Z</time>
      </trkpt>
      <trkpt lat="46.44308" lon="4.14569">
        <ele>243</ele>
        <time>2019-08-20T10:08:40Z</time>
      </trkpt>
      <trkpt lat="46.44309" lon="4.14562">
        <ele>243</ele>
        <time>2019-08-20T10:08:41Z</time>
      </trkpt>
      <trkpt lat="46.4431" lon="4.14556">
        <ele>243</ele>
        <time>2019-08-20T10:08:42Z</time>
      </trkpt>
      <trkpt lat="46.4431" lon="4.14549">
        <ele>243</ele>
        <time>2019-08-20T10:08:43Z</time>
      </trkpt>
      <trkpt lat="46.44311" lon="4.14543">
        <ele>243</ele>
        <time>2019-08-20T10:08:44Z</time>
      </trkpt>
      <trkpt lat="46.44312" lon="4.14536">
        <ele>243</ele>
        <time>2019-08-20T10:08:45Z</time>
      </trkpt>
      <trkpt lat="46.44313" lon="4.14529">
        <ele>243</ele>
        <time>2019-08-20T10:08:46Z</time>
      </trkpt>
      <trkpt lat="46.44314" lon="4.14522">
        <ele>243</ele>
        <time>2019-08-20T10:08:47Z</time>
      </trkpt>
      <trkpt lat="46.44314" lon="4.14516">
        <ele>243</ele>
        <time>2019-08-20T10:08:48Z</time>
      </trkpt>
      <trkpt lat="46.44315" lon="4.14507">
        <ele>243</ele>
        <time>2019-08-20T10:08:49Z</time>
      </trkpt>
      <trkpt lat="46.44314" lon="4.14501">
        <ele>243</ele>
        <time>2019-08-20T10:08:50Z</time>
      </trkpt>
      <trkpt lat="46.44313" lon="4.14493">
        <ele>243</ele>
        <time>2019-08-20T10:08:51Z</time>
      </trkpt>
      <trkpt lat="46.44314" lon="4.14486">
        <ele>243</ele>
        <time>2019-08-20T10:08:52Z</time>
      </trkpt>
      <trkpt lat="46.44314" lon="4.14478">
        <ele>243</ele>
        <time>2019-08-20T10:08:53Z</time>
      </trkpt>
      <trkpt lat="46.44314" lon="4.14471">
        <ele>243</ele>
        <time>2019-08-20T10:08:54Z</time>
      </trkpt>
      <trkpt lat="46.44315" lon="4.14464">
        <ele>243</ele>
        <time>2019-08-20T10:08:55Z</time>
      </trkpt>
      <trkpt lat="46.44316" lon="4.14457">
        <ele>243</ele>
        <time>2019-08-20T10:08:56Z</time>
      </trkpt>
      <trkpt lat="46.44316" lon="4.14449">
        <ele>243</ele>
        <time>2019-08-20T10:08:57Z</time>
      </trkpt>
      <trkpt lat="46.44317" lon="4.14442">
        <ele>243</ele>
        <time>2019-08-20T10:08:58Z</time>
      </trkpt>
      <trkpt lat="46.44318" lon="4.14436">
        <ele>243</ele>
        <time>2019-08-20T10:08:59Z</time>
      </trkpt>
      <trkpt lat="46.44318" lon="4.1443">
        <ele>243</ele>
        <time>2019-08-20T10:09:00Z</time>
      </trkpt>
      <trkpt lat="46.44319" lon="4.14424">
        <ele>243</ele>
        <time>2019-08-20T10:09:01Z</time>
      </trkpt>
      <trkpt lat="46.44319" lon="4.14416">
        <ele>243</ele>
        <time>2019-08-20T10:09:02Z</time>
      </trkpt>
      <trkpt lat="46.44319" lon="4.14409">
        <ele>243</ele>
        <time>2019-08-20T10:09:03Z</time>
      </trkpt>
      <trkpt lat="46.4432" lon="4.14401">
        <ele>243</ele>
        <time>2019-08-20T10:09:04Z</time>
      </trkpt>
      <trkpt lat="46.4432" lon="4.14393">
        <ele>243</ele>
        <time>2019-08-20T10:09:05Z</time>
      </trkpt>
      <trkpt lat="46.4432" lon="4.14385">
        <ele>243</ele>
        <time>2019-08-20T10:09:06Z</time>
      </trkpt>
      <trkpt lat="46.4432" lon="4.14378">
        <ele>243</ele>
        <time>2019-08-20T10:09:07Z</time>
      </trkpt>
      <trkpt lat="46.44319" lon="4.1437">
        <ele>243</ele>
        <time>2019-08-20T10:09:08Z</time>
      </trkpt>
      <trkpt lat="46.4432" lon="4.14363">
        <ele>243</ele>
        <time>2019-08-20T10:09:09Z</time>
      </trkpt>
      <trkpt lat="46.4432" lon="4.14356">
        <ele>243</ele>
        <time>2019-08-20T10:09:10Z</time>
      </trkpt>
      <trkpt lat="46.4432" lon="4.1435">
        <ele>243</ele>
        <time>2019-08-20T10:09:11Z</time>
      </trkpt>
      <trkpt lat="46.4432" lon="4.14344">
        <ele>243</ele>
        <time>2019-08-20T10:09:12Z</time>
      </trkpt>
      <trkpt lat="46.44321" lon="4.14337">
        <ele>243</ele>
        <time>2019-08-20T10:09:13Z</time>
      </trkpt>
      <trkpt lat="46.44321" lon="4.1433">
        <ele>243</ele>
        <time>2019-08-20T10:09:14Z</time>
      </trkpt>
      <trkpt lat="46.44321" lon="4.14322">
        <ele>243</ele>
        <time>2019-08-20T10:09:15Z</time>
      </trkpt>
      <trkpt lat="46.44321" lon="4.14315">
        <ele>243</ele>
        <time>2019-08-20T10:09:16Z</time>
      </trkpt>
      <trkpt lat="46.44321" lon="4.14308">
        <ele>243</ele>
        <time>2019-08-20T10:09:17Z</time>
      </trkpt>
      <trkpt lat="46.44321" lon="4.14301">
        <ele>243</ele>
        <time>2019-08-20T10:09:18Z</time>
      </trkpt>
      <trkpt lat="46.44321" lon="4.14294">
        <ele>243</ele>
        <time>2019-08-20T10:09:19Z</time>
      </trkpt>
      <trkpt lat="46.44321" lon="4.14287">
        <ele>243</ele>
        <time>2019-08-20T10:09:20Z</time>
      </trkpt>
      <trkpt lat="46.44322" lon="4.14279">
        <ele>243</ele>
        <time>2019-08-20T10:09:21Z</time>
      </trkpt>
      <trkpt lat="46.44322" lon="4.14271">
        <ele>243</ele>
        <time>2019-08-20T10:09:22Z</time>
      </trkpt>
      <trkpt lat="46.44322" lon="4.14264">
        <ele>243</ele>
        <time>2019-08-20T10:09:23Z</time>
      </trkpt>
      <trkpt lat="46.4432" lon="4.14257">
        <ele>243</ele>
        <time>2019-08-20T10:09:24Z</time>
      </trkpt>
      <trkpt lat="46.44319" lon="4.1425">
        <ele>243</ele>
        <time>2019-08-20T10:09:25Z</time>
      </trkpt>
      <trkpt lat="46.44319" lon="4.14243">
        <ele>243.1</ele>
        <time>2019-08-20T10:09:26Z</time>
      </trkpt>
      <trkpt lat="46.44319" lon="4.14234">
        <ele>243.1</ele>
        <time>2019-08-20T10:09:27Z</time>
      </trkpt>
      <trkpt lat="46.44319" lon="4.14226">
        <ele>243.1</ele>
        <time>2019-08-20T10:09:28Z</time>
      </trkpt>
      <trkpt lat="46.44318" lon="4.14218">
        <ele>243.1</ele>
        <time>2019-08-20T10:09:29Z</time>
      </trkpt>
      <trkpt lat="46.44318" lon="4.14212">
        <ele>243</ele>
        <time>2019-08-20T10:09:30Z</time>
      </trkpt>
      <trkpt lat="46.44318" lon="4.14205">
        <ele>243</ele>
        <time>2019-08-20T10:09:31Z</time>
      </trkpt>
      <trkpt lat="46.44318" lon="4.14199">
        <ele>242.9</ele>
        <time>2019-08-20T10:09:32Z</time>
      </trkpt>
      <trkpt lat="46.44318" lon="4.14192">
        <ele>242.8</ele>
        <time>2019-08-20T10:09:33Z</time>
      </trkpt>
      <trkpt lat="46.44318" lon="4.14184">
        <ele>242.7</ele>
        <time>2019-08-20T10:09:34Z</time>
      </trkpt>
      <trkpt lat="46.44318" lon="4.14177">
        <ele>242.5</ele>
        <time>2019-08-20T10:09:35Z</time>
      </trkpt>
      <trkpt lat="46.44318" lon="4.1417">
        <ele>242.4</ele>
        <time>2019-08-20T10:09:36Z</time>
      </trkpt>
      <trkpt lat="46.44318" lon="4.14163">
        <ele>242.3</ele>
        <time>2019-08-20T10:09:37Z</time>
      </trkpt>
      <trkpt lat="46.44318" lon="4.14156">
        <ele>242.1</ele>
        <time>2019-08-20T10:09:38Z</time>
      </trkpt>
      <trkpt lat="46.44319" lon="4.1415">
        <ele>242</ele>
        <time>2019-08-20T10:09:39Z</time>
      </trkpt>
      <trkpt lat="46.44319" lon="4.14145">
        <ele>242</ele>
        <time>2019-08-20T10:09:40Z</time>
      </trkpt>
      <trkpt lat="46.44321" lon="4.14139">
        <ele>242</ele>
        <time>2019-08-20T10:09:41Z</time>
      </trkpt>
      <trkpt lat="46.44322" lon="4.14133">
        <ele>241.9</ele>
        <time>2019-08-20T10:09:42Z</time>
      </trkpt>
      <trkpt lat="46.44322" lon="4.14125">
        <ele>241.9</ele>
        <time>2019-08-20T10:09:43Z</time>
      </trkpt>
      <trkpt lat="46.44322" lon="4.14116">
        <ele>241.8</ele>
        <time>2019-08-20T10:09:44Z</time>
      </trkpt>
      <trkpt lat="46.44322" lon="4.14109">
        <ele>241.8</ele>
        <time>2019-08-20T10:09:45Z</time>
      </trkpt>
      <trkpt lat="46.44321" lon="4.14102">
        <ele>241.7</ele>
        <time>2019-08-20T10:09:46Z</time>
      </trkpt>
      <trkpt lat="46.44321" lon="4.14095">
        <ele>241.7</ele>
        <time>2019-08-20T10:09:47Z</time>
      </trkpt>
      <trkpt lat="46.4432" lon="4.14088">
        <ele>241.7</ele>
        <time>2019-08-20T10:09:48Z</time>
      </trkpt>
      <trkpt lat="46.4432" lon="4.14082">
        <ele>241.6</ele>
        <time>2019-08-20T10:09:49Z</time>
      </trkpt>
      <trkpt lat="46.44321" lon="4.14075">
        <ele>241.6</ele>
        <time>2019-08-20T10:09:50Z</time>
      </trkpt>
      <trkpt lat="46.4432" lon="4.14069">
        <ele>241.6</ele>
        <time>2019-08-20T10:09:51Z</time>
      </trkpt>
      <trkpt lat="46.4432" lon="4.14063">
        <ele>241.5</ele>
        <time>2019-08-20T10:09:52Z</time>
      </trkpt>
      <trkpt lat="46.44321" lon="4.14056">
        <ele>241.5</ele>
        <time>2019-08-20T10:09:53Z</time>
      </trkpt>
      <trkpt lat="46.44321" lon="4.14048">
        <ele>241.4</ele>
        <time>2019-08-20T10:09:54Z</time>
      </trkpt>
      <trkpt lat="46.4432" lon="4.1404">
        <ele>241.4</ele>
        <time>2019-08-20T10:09:55Z</time>
      </trkpt>
      <trkpt lat="46.4432" lon="4.14034">
        <ele>241.4</ele>
        <time>2019-08-20T10:09:56Z</time>
      </trkpt>
      <trkpt lat="46.4432" lon="4.14027">
        <ele>241.4</ele>
        <time>2019-08-20T10:09:57Z</time>
      </trkpt>
      <trkpt lat="46.44319" lon="4.14019">
        <ele>241.4</ele>
        <time>2019-08-20T10:09:58Z</time>
      </trkpt>
      <trkpt lat="46.44319" lon="4.14013">
        <ele>241.4</ele>
        <time>2019-08-20T10:09:59Z</time>
      </trkpt>
      <trkpt lat="46.44319" lon="4.14006">
        <ele>241.4</ele>
        <time>2019-08-20T10:10:00Z</time>
      </trkpt>
      <trkpt lat="46.44318" lon="4.14">
        <ele>241.4</ele>
        <time>2019-08-20T10:10:01Z</time>
      </trkpt>
      <trkpt lat="46.44318" lon="4.13993">
        <ele>241.4</ele>
        <time>2019-08-20T10:10:02Z</time>
      </trkpt>
      <trkpt lat="46.44318" lon="4.13986">
        <ele>241.4</ele>
        <time>2019-08-20T10:10:03Z</time>
      </trkpt>
      <trkpt lat="46.44317" lon="4.13979">
        <ele>241.4</ele>
        <time>2019-08-20T10:10:04Z</time>
      </trkpt>
      <trkpt lat="46.44317" lon="4.13972">
        <ele>241.4</ele>
        <time>2019-08-20T10:10:05Z</time>
      </trkpt>
      <trkpt lat="46.44318" lon="4.13966">
        <ele>241.5</ele>
        <time>2019-08-20T10:10:06Z</time>
      </trkpt>
      <trkpt lat="46.44318" lon="4.1396">
        <ele>241.5</ele>
        <time>2019-08-20T10:10:07Z</time>
      </trkpt>
      <trkpt lat="46.44318" lon="4.13953">
        <ele>241.5</ele>
        <time>2019-08-20T10:10:08Z</time>
      </trkpt>
      <trkpt lat="46.44319" lon="4.13948">
        <ele>241.5</ele>
        <time>2019-08-20T10:10:09Z</time>
      </trkpt>
      <trkpt lat="46.4432" lon="4.13942">
        <ele>241.5</ele>
        <time>2019-08-20T10:10:10Z</time>
      </trkpt>
      <trkpt lat="46.4432" lon="4.13937">
        <ele>241.5</ele>
        <time>2019-08-20T10:10:11Z</time>
      </trkpt>
      <trkpt lat="46.44321" lon="4.13931">
        <ele>241.6</ele>
        <time>2019-08-20T10:10:12Z</time>
      </trkpt>
      <trkpt lat="46.44321" lon="4.13924">
        <ele>241.6</ele>
        <time>2019-08-20T10:10:13Z</time>
      </trkpt>
      <trkpt lat="46.44321" lon="4.13917">
        <ele>241.6</ele>
        <time>2019-08-20T10:10:14Z</time>
      </trkpt>
      <trkpt lat="46.44321" lon="4.13909">
        <ele>241.6</ele>
        <time>2019-08-20T10:10:15Z</time>
      </trkpt>
      <trkpt lat="46.44322" lon="4.13902">
        <ele>241.6</ele>
        <time>2019-08-20T10:10:16Z</time>
      </trkpt>
      <trkpt lat="46.44322" lon="4.13895">
        <ele>241.6</ele>
        <time>2019-08-20T10:10:17Z</time>
      </trkpt>
      <trkpt lat="46.44322" lon="4.13889">
        <ele>241.7</ele>
        <time>2019-08-20T10:10:18Z</time>
      </trkpt>
      <trkpt lat="46.44323" lon="4.13882">
        <ele>241.7</ele>
        <time>2019-08-20T10:10:19Z</time>
      </trkpt>
      <trkpt lat="46.44323" lon="4.13875">
        <ele>241.7</ele>
        <time>2019-08-20T10:10:20Z</time>
      </trkpt>
      <trkpt lat="46.44323" lon="4.13868">
        <ele>241.7</ele>
        <time>2019-08-20T10:10:21Z</time>
      </trkpt>
      <trkpt lat="46.44322" lon="4.13861">
        <ele>241.8</ele>
        <time>2019-08-20T10:10:22Z</time>
      </trkpt>
      <trkpt lat="46.44322" lon="4.13854">
        <ele>241.8</ele>
        <time>2019-08-20T10:10:23Z</time>
      </trkpt>
      <trkpt lat="46.44321" lon="4.13847">
        <ele>241.8</ele>
        <time>2019-08-20T10:10:24Z</time>
      </trkpt>
      <trkpt lat="46.4432" lon="4.1384">
        <ele>241.8</ele>
        <time>2019-08-20T10:10:25Z</time>
      </trkpt>
      <trkpt lat="46.44319" lon="4.13833">
        <ele>241.8</ele>
        <time>2019-08-20T10:10:26Z</time>
      </trkpt>
      <trkpt lat="46.44318" lon="4.13826">
        <ele>241.8</ele>
        <time>2019-08-20T10:10:27Z</time>
      </trkpt>
      <trkpt lat="46.44318" lon="4.1382">
        <ele>241.8</ele>
        <time>2019-08-20T10:10:28Z</time>
      </trkpt>
      <trkpt lat="46.44318" lon="4.13813">
        <ele>241.8</ele>
        <time>2019-08-20T10:10:29Z</time>
      </trkpt>
      <trkpt lat="46.44318" lon="4.13806">
        <ele>241.8</ele>
        <time>2019-08-20T10:10:30Z</time>
      </trkpt>
      <trkpt lat="46.44318" lon="4.13798">
        <ele>241.8</ele>
        <time>2019-08-20T10:10:31Z</time>
      </trkpt>
      <trkpt lat="46.44319" lon="4.13789">
        <ele>241.8</ele>
        <time>2019-08-20T10:10:32Z</time>
      </trkpt>
      <trkpt lat="46.44319" lon="4.13781">
        <ele>241.8</ele>
        <time>2019-08-20T10:10:33Z</time>
      </trkpt>
      <trkpt lat="46.4432" lon="4.13773">
        <ele>241.9</ele>
        <time>2019-08-20T10:10:34Z</time>
      </trkpt>
      <trkpt lat="46.4432" lon="4.13765">
        <ele>241.9</ele>
        <time>2019-08-20T10:10:35Z</time>
      </trkpt>
      <trkpt lat="46.4432" lon="4.13758">
        <ele>242</ele>
        <time>2019-08-20T10:10:36Z</time>
      </trkpt>
      <trkpt lat="46.44319" lon="4.1375">
        <ele>242</ele>
        <time>2019-08-20T10:10:37Z</time>
      </trkpt>
      <trkpt lat="46.44319" lon="4.13743">
        <ele>242.2</ele>
        <time>2019-08-20T10:10:38Z</time>
      </trkpt>
      <trkpt lat="46.44319" lon="4.13736">
        <ele>242.3</ele>
        <time>2019-08-20T10:10:39Z</time>
      </trkpt>
      <trkpt lat="46.4432" lon="4.13729">
        <ele>242.5</ele>
        <time>2019-08-20T10:10:40Z</time>
      </trkpt>
      <trkpt lat="46.44321" lon="4.13721">
        <ele>242.7</ele>
        <time>2019-08-20T10:10:41Z</time>
      </trkpt>
      <trkpt lat="46.44321" lon="4.13714">
        <ele>242.9</ele>
        <time>2019-08-20T10:10:42Z</time>
      </trkpt>
      <trkpt lat="46.4432" lon="4.13707">
        <ele>242.9</ele>
        <time>2019-08-20T10:10:43Z</time>
      </trkpt>
      <trkpt lat="46.4432" lon="4.137">
        <ele>243</ele>
        <time>2019-08-20T10:10:44Z</time>
      </trkpt>
      <trkpt lat="46.4432" lon="4.13693">
        <ele>242.9</ele>
        <time>2019-08-20T10:10:45Z</time>
      </trkpt>
      <trkpt lat="46.4432" lon="4.13685">
        <ele>242.9</ele>
        <time>2019-08-20T10:10:46Z</time>
      </trkpt>
      <trkpt lat="46.4432" lon="4.13677">
        <ele>242.9</ele>
        <time>2019-08-20T10:10:47Z</time>
      </trkpt>
      <trkpt lat="46.4432" lon="4.13668">
        <ele>242.9</ele>
        <time>2019-08-20T10:10:48Z</time>
      </trkpt>
      <trkpt lat="46.4432" lon="4.13661">
        <ele>243</ele>
        <time>2019-08-20T10:10:49Z</time>
      </trkpt>
      <trkpt lat="46.4432" lon="4.13654">
        <ele>243</ele>
        <time>2019-08-20T10:10:50Z</time>
      </trkpt>
      <trkpt lat="46.4432" lon="4.13647">
        <ele>243</ele>
        <time>2019-08-20T10:10:51Z</time>
      </trkpt>
      <trkpt lat="46.4432" lon="4.13639">
        <ele>243.1</ele>
        <time>2019-08-20T10:10:52Z</time>
      </trkpt>
      <trkpt lat="46.44319" lon="4.13633">
        <ele>243.1</ele>
        <time>2019-08-20T10:10:53Z</time>
      </trkpt>
      <trkpt lat="46.44319" lon="4.13626">
        <ele>243.1</ele>
        <time>2019-08-20T10:10:54Z</time>
      </trkpt>
      <trkpt lat="46.44319" lon="4.13619">
        <ele>243.1</ele>
        <time>2019-08-20T10:10:55Z</time>
      </trkpt>
      <trkpt lat="46.44319" lon="4.13611">
        <ele>243.1</ele>
        <time>2019-08-20T10:10:56Z</time>
      </trkpt>
      <trkpt lat="46.44318" lon="4.13603">
        <ele>243.1</ele>
        <time>2019-08-20T10:10:57Z</time>
      </trkpt>
      <trkpt lat="46.44318" lon="4.13596">
        <ele>243.1</ele>
        <time>2019-08-20T10:10:58Z</time>
      </trkpt>
      <trkpt lat="46.44318" lon="4.13588">
        <ele>243.1</ele>
        <time>2019-08-20T10:10:59Z</time>
      </trkpt>
      <trkpt lat="46.44318" lon="4.1358">
        <ele>243.1</ele>
        <time>2019-08-20T10:11:00Z</time>
      </trkpt>
      <trkpt lat="46.44317" lon="4.13572">
        <ele>243.2</ele>
        <time>2019-08-20T10:11:01Z</time>
      </trkpt>
      <trkpt lat="46.44317" lon="4.13565">
        <ele>243.3</ele>
        <time>2019-08-20T10:11:02Z</time>
      </trkpt>
      <trkpt lat="46.44317" lon="4.13559">
        <ele>243.4</ele>
        <time>2019-08-20T10:11:03Z</time>
      </trkpt>
      <trkpt lat="46.44317" lon="4.13552">
        <ele>243.5</ele>
        <time>2019-08-20T10:11:04Z</time>
      </trkpt>
      <trkpt lat="46.44317" lon="4.13545">
        <ele>243.6</ele>
        <time>2019-08-20T10:11:05Z</time>
      </trkpt>
      <trkpt lat="46.44316" lon="4.13538">
        <ele>243.7</ele>
        <time>2019-08-20T10:11:06Z</time>
      </trkpt>
      <trkpt lat="46.44316" lon="4.13531">
        <ele>243.7</ele>
        <time>2019-08-20T10:11:07Z</time>
      </trkpt>
      <trkpt lat="46.44316" lon="4.13524">
        <ele>243.8</ele>
        <time>2019-08-20T10:11:08Z</time>
      </trkpt>
      <trkpt lat="46.44317" lon="4.13517">
        <ele>243.8</ele>
        <time>2019-08-20T10:11:09Z</time>
      </trkpt>
      <trkpt lat="46.44317" lon="4.1351">
        <ele>243.7</ele>
        <time>2019-08-20T10:11:10Z</time>
      </trkpt>
      <trkpt lat="46.44318" lon="4.13503">
        <ele>243.7</ele>
        <time>2019-08-20T10:11:11Z</time>
      </trkpt>
      <trkpt lat="46.44319" lon="4.13496">
        <ele>243.6</ele>
        <time>2019-08-20T10:11:12Z</time>
      </trkpt>
      <trkpt lat="46.44318" lon="4.13491">
        <ele>243.6</ele>
        <time>2019-08-20T10:11:13Z</time>
      </trkpt>
      <trkpt lat="46.44318" lon="4.13484">
        <ele>243.6</ele>
        <time>2019-08-20T10:11:14Z</time>
      </trkpt>
      <trkpt lat="46.44319" lon="4.13477">
        <ele>243.6</ele>
        <time>2019-08-20T10:11:15Z</time>
      </trkpt>
      <trkpt lat="46.44318" lon="4.1347">
        <ele>243.6</ele>
        <time>2019-08-20T10:11:16Z</time>
      </trkpt>
      <trkpt lat="46.44318" lon="4.13461">
        <ele>243.5</ele>
        <time>2019-08-20T10:11:17Z</time>
      </trkpt>
      <trkpt lat="46.44318" lon="4.13454">
        <ele>243.5</ele>
        <time>2019-08-20T10:11:18Z</time>
      </trkpt>
      <trkpt lat="46.44319" lon="4.13447">
        <ele>243.5</ele>
        <time>2019-08-20T10:11:19Z</time>
      </trkpt>
      <trkpt lat="46.44319" lon="4.1344">
        <ele>243.5</ele>
        <time>2019-08-20T10:11:20Z</time>
      </trkpt>
      <trkpt lat="46.4432" lon="4.13433">
        <ele>243.4</ele>
        <time>2019-08-20T10:11:21Z</time>
      </trkpt>
      <trkpt lat="46.44321" lon="4.13427">
        <ele>243.4</ele>
        <time>2019-08-20T10:11:22Z</time>
      </trkpt>
      <trkpt lat="46.44321" lon="4.1342">
        <ele>243.5</ele>
        <time>2019-08-20T10:11:23Z</time>
      </trkpt>
      <trkpt lat="46.44321" lon="4.13414">
        <ele>243.5</ele>
        <time>2019-08-20T10:11:24Z</time>
      </trkpt>
      <trkpt lat="46.44321" lon="4.13408">
        <ele>243.5</ele>
        <time>2019-08-20T10:11:25Z</time>
      </trkpt>
      <trkpt lat="46.4432" lon="4.13401">
        <ele>243.6</ele>
        <time>2019-08-20T10:11:26Z</time>
      </trkpt>
      <trkpt lat="46.4432" lon="4.13395">
        <ele>243.7</ele>
        <time>2019-08-20T10:11:27Z</time>
      </trkpt>
      <trkpt lat="46.4432" lon="4.13389">
        <ele>243.8</ele>
        <time>2019-08-20T10:11:28Z</time>
      </trkpt>
      <trkpt lat="46.44321" lon="4.13383">
        <ele>243.9</ele>
        <time>2019-08-20T10:11:29Z</time>
      </trkpt>
      <trkpt lat="46.44321" lon="4.13377">
        <ele>244</ele>
        <time>2019-08-20T10:11:30Z</time>
      </trkpt>
      <trkpt lat="46.4432" lon="4.1337">
        <ele>244.1</ele>
        <time>2019-08-20T10:11:31Z</time>
      </trkpt>
      <trkpt lat="46.4432" lon="4.13364">
        <ele>244.2</ele>
        <time>2019-08-20T10:11:32Z</time>
      </trkpt>
      <trkpt lat="46.4432" lon="4.13356">
        <ele>244.3</ele>
        <time>2019-08-20T10:11:33Z</time>
      </trkpt>
      <trkpt lat="46.4432" lon="4.13349">
        <ele>244.3</ele>
        <time>2019-08-20T10:11:34Z</time>
      </trkpt>
      <trkpt lat="46.4432" lon="4.1334">
        <ele>244.3</ele>
        <time>2019-08-20T10:11:35Z</time>
      </trkpt>
      <trkpt lat="46.44319" lon="4.13333">
        <ele>244.2</ele>
        <time>2019-08-20T10:11:36Z</time>
      </trkpt>
      <trkpt lat="46.44319" lon="4.13324">
        <ele>244.1</ele>
        <time>2019-08-20T10:11:37Z</time>
      </trkpt>
      <trkpt lat="46.44319" lon="4.13316">
        <ele>244</ele>
        <time>2019-08-20T10:11:38Z</time>
      </trkpt>
      <trkpt lat="46.4432" lon="4.13308">
        <ele>243.9</ele>
        <time>2019-08-20T10:11:39Z</time>
      </trkpt>
      <trkpt lat="46.4432" lon="4.13301">
        <ele>243.9</ele>
        <time>2019-08-20T10:11:40Z</time>
      </trkpt>
      <trkpt lat="46.4432" lon="4.13293">
        <ele>243.9</ele>
        <time>2019-08-20T10:11:41Z</time>
      </trkpt>
      <trkpt lat="46.4432" lon="4.13286">
        <ele>243.9</ele>
        <time>2019-08-20T10:11:42Z</time>
      </trkpt>
      <trkpt lat="46.4432" lon="4.1328">
        <ele>243.9</ele>
        <time>2019-08-20T10:11:43Z</time>
      </trkpt>
      <trkpt lat="46.4432" lon="4.13274">
        <ele>244</ele>
        <time>2019-08-20T10:11:44Z</time>
      </trkpt>
      <trkpt lat="46.4432" lon="4.13267">
        <ele>244</ele>
        <time>2019-08-20T10:11:45Z</time>
      </trkpt>
      <trkpt lat="46.4432" lon="4.1326">
        <ele>244.1</ele>
        <time>2019-08-20T10:11:46Z</time>
      </trkpt>
      <trkpt lat="46.4432" lon="4.13252">
        <ele>244.2</ele>
        <time>2019-08-20T10:11:47Z</time>
      </trkpt>
      <trkpt lat="46.44319" lon="4.13244">
        <ele>244.2</ele>
        <time>2019-08-20T10:11:48Z</time>
      </trkpt>
      <trkpt lat="46.44319" lon="4.13237">
        <ele>244.2</ele>
        <time>2019-08-20T10:11:49Z</time>
      </trkpt>
      <trkpt lat="46.44319" lon="4.13231">
        <ele>244.1</ele>
        <time>2019-08-20T10:11:50Z</time>
      </trkpt>
      <trkpt lat="46.44319" lon="4.13224">
        <ele>244.1</ele>
        <time>2019-08-20T10:11:51Z</time>
      </trkpt>
      <trkpt lat="46.4432" lon="4.13216">
        <ele>244</ele>
        <time>2019-08-20T10:11:52Z</time>
      </trkpt>
      <trkpt lat="46.4432" lon="4.13209">
        <ele>243.9</ele>
        <time>2019-08-20T10:11:53Z</time>
      </trkpt>
      <trkpt lat="46.4432" lon="4.13203">
        <ele>243.9</ele>
        <time>2019-08-20T10:11:54Z</time>
      </trkpt>
      <trkpt lat="46.4432" lon="4.13196">
        <ele>243.8</ele>
        <time>2019-08-20T10:11:55Z</time>
      </trkpt>
      <trkpt lat="46.44319" lon="4.13189">
        <ele>243.8</ele>
        <time>2019-08-20T10:11:56Z</time>
      </trkpt>
      <trkpt lat="46.44319" lon="4.13183">
        <ele>243.8</ele>
        <time>2019-08-20T10:11:57Z</time>
      </trkpt>
      <trkpt lat="46.44318" lon="4.13175">
        <ele>243.8</ele>
        <time>2019-08-20T10:11:58Z</time>
      </trkpt>
      <trkpt lat="46.44317" lon="4.13168">
        <ele>243.7</ele>
        <time>2019-08-20T10:11:59Z</time>
      </trkpt>
      <trkpt lat="46.44317" lon="4.13161">
        <ele>243.7</ele>
        <time>2019-08-20T10:12:00Z</time>
      </trkpt>
      <trkpt lat="46.44318" lon="4.13153">
        <ele>243.7</ele>
        <time>2019-08-20T10:12:01Z</time>
      </trkpt>
      <trkpt lat="46.44318" lon="4.13146">
        <ele>243.8</ele>
        <time>2019-08-20T10:12:02Z</time>
      </trkpt>
      <trkpt lat="46.44318" lon="4.13139">
        <ele>243.8</ele>
        <time>2019-08-20T10:12:03Z</time>
      </trkpt>
      <trkpt lat="46.44318" lon="4.13131">
        <ele>243.9</ele>
        <time>2019-08-20T10:12:04Z</time>
      </trkpt>
      <trkpt lat="46.44319" lon="4.13124">
        <ele>244</ele>
        <time>2019-08-20T10:12:05Z</time>
      </trkpt>
      <trkpt lat="46.44319" lon="4.13117">
        <ele>244.1</ele>
        <time>2019-08-20T10:12:06Z</time>
      </trkpt>
      <trkpt lat="46.44319" lon="4.13108">
        <ele>244.2</ele>
        <time>2019-08-20T10:12:07Z</time>
      </trkpt>
      <trkpt lat="46.4432" lon="4.131">
        <ele>244.3</ele>
        <time>2019-08-20T10:12:08Z</time>
      </trkpt>
      <trkpt lat="46.4432" lon="4.13092">
        <ele>244.3</ele>
        <time>2019-08-20T10:12:09Z</time>
      </trkpt>
      <trkpt lat="46.4432" lon="4.13086">
        <ele>244.3</ele>
        <time>2019-08-20T10:12:10Z</time>
      </trkpt>
      <trkpt lat="46.44319" lon="4.1308">
        <ele>244.3</ele>
        <time>2019-08-20T10:12:11Z</time>
      </trkpt>
      <trkpt lat="46.44319" lon="4.13075">
        <ele>244.2</ele>
        <time>2019-08-20T10:12:12Z</time>
      </trkpt>
      <trkpt lat="46.44318" lon="4.13068">
        <ele>244.2</ele>
        <time>2019-08-20T10:12:13Z</time>
      </trkpt>
      <trkpt lat="46.44317" lon="4.1306">
        <ele>244.2</ele>
        <time>2019-08-20T10:12:14Z</time>
      </trkpt>
      <trkpt lat="46.44317" lon="4.13053">
        <ele>244.1</ele>
        <time>2019-08-20T10:12:15Z</time>
      </trkpt>
      <trkpt lat="46.44317" lon="4.13046">
        <ele>244.1</ele>
        <time>2019-08-20T10:12:16Z</time>
      </trkpt>
      <trkpt lat="46.44317" lon="4.13039">
        <ele>244.1</ele>
        <time>2019-08-20T10:12:17Z</time>
      </trkpt>
      <trkpt lat="46.44318" lon="4.13033">
        <ele>244.1</ele>
        <time>2019-08-20T10:12:18Z</time>
      </trkpt>
      <trkpt lat="46.44317" lon="4.13026">
        <ele>244.1</ele>
        <time>2019-08-20T10:12:19Z</time>
      </trkpt>
      <trkpt lat="46.44315" lon="4.13019">
        <ele>244</ele>
        <time>2019-08-20T10:12:20Z</time>
      </trkpt>
      <trkpt lat="46.44315" lon="4.13012">
        <ele>244</ele>
        <time>2019-08-20T10:12:21Z</time>
      </trkpt>
      <trkpt lat="46.44315" lon="4.13005">
        <ele>244</ele>
        <time>2019-08-20T10:12:22Z</time>
      </trkpt>
      <trkpt lat="46.44316" lon="4.12998">
        <ele>244</ele>
        <time>2019-08-20T10:12:23Z</time>
      </trkpt>
      <trkpt lat="46.44316" lon="4.12991">
        <ele>243.9</ele>
        <time>2019-08-20T10:12:24Z</time>
      </trkpt>
      <trkpt lat="46.44317" lon="4.12985">
        <ele>243.9</ele>
        <time>2019-08-20T10:12:25Z</time>
      </trkpt>
      <trkpt lat="46.44317" lon="4.12978">
        <ele>243.9</ele>
        <time>2019-08-20T10:12:26Z</time>
      </trkpt>
      <trkpt lat="46.44318" lon="4.1297">
        <ele>243.8</ele>
        <time>2019-08-20T10:12:27Z</time>
      </trkpt>
      <trkpt lat="46.44318" lon="4.12964">
        <ele>243.8</ele>
        <time>2019-08-20T10:12:28Z</time>
      </trkpt>
      <trkpt lat="46.44319" lon="4.12957">
        <ele>243.8</ele>
        <time>2019-08-20T10:12:29Z</time>
      </trkpt>
      <trkpt lat="46.44319" lon="4.12949">
        <ele>243.8</ele>
        <time>2019-08-20T10:12:30Z</time>
      </trkpt>
      <trkpt lat="46.44319" lon="4.12942">
        <ele>243.8</ele>
        <time>2019-08-20T10:12:31Z</time>
      </trkpt>
      <trkpt lat="46.4432" lon="4.12935">
        <ele>243.8</ele>
        <time>2019-08-20T10:12:32Z</time>
      </trkpt>
      <trkpt lat="46.44321" lon="4.12928">
        <ele>243.9</ele>
        <time>2019-08-20T10:12:33Z</time>
      </trkpt>
      <trkpt lat="46.44321" lon="4.1292">
        <ele>243.9</ele>
        <time>2019-08-20T10:12:34Z</time>
      </trkpt>
      <trkpt lat="46.44321" lon="4.12913">
        <ele>243.9</ele>
        <time>2019-08-20T10:12:35Z</time>
      </trkpt>
      <trkpt lat="46.44321" lon="4.12906">
        <ele>243.9</ele>
        <time>2019-08-20T10:12:36Z</time>
      </trkpt>
      <trkpt lat="46.44321" lon="4.12899">
        <ele>243.8</ele>
        <time>2019-08-20T10:12:37Z</time>
      </trkpt>
      <trkpt lat="46.44319" lon="4.12891">
        <ele>243.8</ele>
        <time>2019-08-20T10:12:38Z</time>
      </trkpt>
      <trkpt lat="46.44319" lon="4.12884">
        <ele>243.8</ele>
        <time>2019-08-20T10:12:39Z</time>
      </trkpt>
      <trkpt lat="46.4432" lon="4.12877">
        <ele>243.8</ele>
        <time>2019-08-20T10:12:40Z</time>
      </trkpt>
      <trkpt lat="46.44321" lon="4.12871">
        <ele>243.8</ele>
        <time>2019-08-20T10:12:41Z</time>
      </trkpt>
      <trkpt lat="46.44322" lon="4.12864">
        <ele>243.8</ele>
        <time>2019-08-20T10:12:42Z</time>
      </trkpt>
      <trkpt lat="46.44323" lon="4.12856">
        <ele>243.9</ele>
        <time>2019-08-20T10:12:43Z</time>
      </trkpt>
      <trkpt lat="46.44324" lon="4.12848">
        <ele>243.9</ele>
        <time>2019-08-20T10:12:44Z</time>
      </trkpt>
      <trkpt lat="46.44325" lon="4.1284">
        <ele>244</ele>
        <time>2019-08-20T10:12:45Z</time>
      </trkpt>
      <trkpt lat="46.44327" lon="4.12832">
        <ele>244.1</ele>
        <time>2019-08-20T10:12:46Z</time>
      </trkpt>
      <trkpt lat="46.44329" lon="4.12824">
        <ele>244.1</ele>
        <time>2019-08-20T10:12:47Z</time>
      </trkpt>
      <trkpt lat="46.4433" lon="4.12817">
        <ele>244</ele>
        <time>2019-08-20T10:12:48Z</time>
      </trkpt>
      <trkpt lat="46.44332" lon="4.12808">
        <ele>244</ele>
        <time>2019-08-20T10:12:49Z</time>
      </trkpt>
      <trkpt lat="46.44333" lon="4.12801">
        <ele>243.9</ele>
        <time>2019-08-20T10:12:50Z</time>
      </trkpt>
      <trkpt lat="46.44335" lon="4.12794">
        <ele>243.9</ele>
        <time>2019-08-20T10:12:51Z</time>
      </trkpt>
      <trkpt lat="46.44336" lon="4.12789">
        <ele>244</ele>
        <time>2019-08-20T10:12:52Z</time>
      </trkpt>
      <trkpt lat="46.44337" lon="4.12782">
        <ele>244.1</ele>
        <time>2019-08-20T10:12:53Z</time>
      </trkpt>
      <trkpt lat="46.44337" lon="4.12774">
        <ele>244.2</ele>
        <time>2019-08-20T10:12:54Z</time>
      </trkpt>
      <trkpt lat="46.44338" lon="4.12766">
        <ele>244.4</ele>
        <time>2019-08-20T10:12:55Z</time>
      </trkpt>
      <trkpt lat="46.44339" lon="4.1276">
        <ele>244.5</ele>
        <time>2019-08-20T10:12:56Z</time>
      </trkpt>
      <trkpt lat="46.44341" lon="4.12753">
        <ele>244.7</ele>
        <time>2019-08-20T10:12:57Z</time>
      </trkpt>
      <trkpt lat="46.44343" lon="4.12746">
        <ele>244.8</ele>
        <time>2019-08-20T10:12:58Z</time>
      </trkpt>
      <trkpt lat="46.44344" lon="4.12738">
        <ele>244.8</ele>
        <time>2019-08-20T10:12:59Z</time>
      </trkpt>
      <trkpt lat="46.44346" lon="4.12732">
        <ele>244.7</ele>
        <time>2019-08-20T10:13:00Z</time>
      </trkpt>
      <trkpt lat="46.44348" lon="4.12726">
        <ele>244.6</ele>
        <time>2019-08-20T10:13:01Z</time>
      </trkpt>
      <trkpt lat="46.4435" lon="4.1272">
        <ele>244.5</ele>
        <time>2019-08-20T10:13:02Z</time>
      </trkpt>
      <trkpt lat="46.44352" lon="4.12714">
        <ele>244.3</ele>
        <time>2019-08-20T10:13:03Z</time>
      </trkpt>
      <trkpt lat="46.44355" lon="4.12707">
        <ele>244.1</ele>
        <time>2019-08-20T10:13:04Z</time>
      </trkpt>
      <trkpt lat="46.44358" lon="4.12702">
        <ele>244</ele>
        <time>2019-08-20T10:13:05Z</time>
      </trkpt>
      <trkpt lat="46.4436" lon="4.12696">
        <ele>243.9</ele>
        <time>2019-08-20T10:13:06Z</time>
      </trkpt>
      <trkpt lat="46.44362" lon="4.12691">
        <ele>243.8</ele>
        <time>2019-08-20T10:13:07Z</time>
      </trkpt>
      <trkpt lat="46.44364" lon="4.12685">
        <ele>243.7</ele>
        <time>2019-08-20T10:13:08Z</time>
      </trkpt>
      <trkpt lat="46.44367" lon="4.12679">
        <ele>243.6</ele>
        <time>2019-08-20T10:13:09Z</time>
      </trkpt>
      <trkpt lat="46.44369" lon="4.12673">
        <ele>243.6</ele>
        <time>2019-08-20T10:13:10Z</time>
      </trkpt>
      <trkpt lat="46.44372" lon="4.12667">
        <ele>243.6</ele>
        <time>2019-08-20T10:13:11Z</time>
      </trkpt>
      <trkpt lat="46.44374" lon="4.1266">
        <ele>243.7</ele>
        <time>2019-08-20T10:13:12Z</time>
      </trkpt>
      <trkpt lat="46.44376" lon="4.12654">
        <ele>243.8</ele>
        <time>2019-08-20T10:13:13Z</time>
      </trkpt>
      <trkpt lat="46.44378" lon="4.12648">
        <ele>243.9</ele>
        <time>2019-08-20T10:13:14Z</time>
      </trkpt>
      <trkpt lat="46.4438" lon="4.12643">
        <ele>244</ele>
        <time>2019-08-20T10:13:15Z</time>
      </trkpt>
      <trkpt lat="46.4438" lon="4.12637">
        <ele>244.1</ele>
        <time>2019-08-20T10:13:16Z</time>
      </trkpt>
      <trkpt lat="46.44381" lon="4.12631">
        <ele>244.2</ele>
        <time>2019-08-20T10:13:17Z</time>
      </trkpt>
      <trkpt lat="46.44383" lon="4.12625">
        <ele>244.3</ele>
        <time>2019-08-20T10:13:18Z</time>
      </trkpt>
      <trkpt lat="46.44384" lon="4.12619">
        <ele>244.3</ele>
        <time>2019-08-20T10:13:19Z</time>
      </trkpt>
      <trkpt lat="46.44385" lon="4.12614">
        <ele>244.2</ele>
        <time>2019-08-20T10:13:20Z</time>
      </trkpt>
      <trkpt lat="46.44387" lon="4.12608">
        <ele>244.2</ele>
        <time>2019-08-20T10:13:21Z</time>
      </trkpt>
      <trkpt lat="46.44389" lon="4.12602">
        <ele>244.1</ele>
        <time>2019-08-20T10:13:22Z</time>
      </trkpt>
      <trkpt lat="46.44391" lon="4.12596">
        <ele>244</ele>
        <time>2019-08-20T10:13:23Z</time>
      </trkpt>
      <trkpt lat="46.44393" lon="4.12589">
        <ele>243.9</ele>
        <time>2019-08-20T10:13:24Z</time>
      </trkpt>
      <trkpt lat="46.44395" lon="4.12581">
        <ele>243.8</ele>
        <time>2019-08-20T10:13:25Z</time>
      </trkpt>
      <trkpt lat="46.44396" lon="4.12576">
        <ele>243.8</ele>
        <time>2019-08-20T10:13:26Z</time>
      </trkpt>
      <trkpt lat="46.44398" lon="4.12569">
        <ele>243.7</ele>
        <time>2019-08-20T10:13:27Z</time>
      </trkpt>
      <trkpt lat="46.44401" lon="4.12562">
        <ele>243.6</ele>
        <time>2019-08-20T10:13:28Z</time>
      </trkpt>
      <trkpt lat="46.44404" lon="4.12555">
        <ele>243.4</ele>
        <time>2019-08-20T10:13:29Z</time>
      </trkpt>
      <trkpt lat="46.44406" lon="4.12548">
        <ele>243.2</ele>
        <time>2019-08-20T10:13:30Z</time>
      </trkpt>
      <trkpt lat="46.44409" lon="4.12541">
        <ele>243</ele>
        <time>2019-08-20T10:13:31Z</time>
      </trkpt>
      <trkpt lat="46.44412" lon="4.12532">
        <ele>242.8</ele>
        <time>2019-08-20T10:13:32Z</time>
      </trkpt>
      <trkpt lat="46.44415" lon="4.12524">
        <ele>242.5</ele>
        <time>2019-08-20T10:13:33Z</time>
      </trkpt>
      <trkpt lat="46.44417" lon="4.12515">
        <ele>242.3</ele>
        <time>2019-08-20T10:13:34Z</time>
      </trkpt>
      <trkpt lat="46.44421" lon="4.12505">
        <ele>242</ele>
        <time>2019-08-20T10:13:35Z</time>
      </trkpt>
      <trkpt lat="46.44424" lon="4.12497">
        <ele>241.9</ele>
        <time>2019-08-20T10:13:36Z</time>
      </trkpt>
      <trkpt lat="46.44426" lon="4.1249">
        <ele>241.8</ele>
        <time>2019-08-20T10:13:37Z</time>
      </trkpt>
      <trkpt lat="46.44428" lon="4.12482">
        <ele>241.7</ele>
        <time>2019-08-20T10:13:38Z</time>
      </trkpt>
      <trkpt lat="46.4443" lon="4.12476">
        <ele>241.7</ele>
        <time>2019-08-20T10:13:39Z</time>
      </trkpt>
      <trkpt lat="46.44432" lon="4.12469">
        <ele>241.6</ele>
        <time>2019-08-20T10:13:40Z</time>
      </trkpt>
      <trkpt lat="46.44435" lon="4.12461">
        <ele>241.6</ele>
        <time>2019-08-20T10:13:41Z</time>
      </trkpt>
      <trkpt lat="46.44437" lon="4.12454">
        <ele>241.6</ele>
        <time>2019-08-20T10:13:42Z</time>
      </trkpt>
      <trkpt lat="46.44439" lon="4.12446">
        <ele>241.6</ele>
        <time>2019-08-20T10:13:43Z</time>
      </trkpt>
      <trkpt lat="46.44441" lon="4.12438">
        <ele>241.6</ele>
        <time>2019-08-20T10:13:44Z</time>
      </trkpt>
      <trkpt lat="46.44443" lon="4.12431">
        <ele>241.6</ele>
        <time>2019-08-20T10:13:45Z</time>
      </trkpt>
      <trkpt lat="46.44446" lon="4.12424">
        <ele>241.7</ele>
        <time>2019-08-20T10:13:46Z</time>
      </trkpt>
      <trkpt lat="46.44449" lon="4.12418">
        <ele>241.7</ele>
        <time>2019-08-20T10:13:47Z</time>
      </trkpt>
      <trkpt lat="46.44451" lon="4.12412">
        <ele>241.7</ele>
        <time>2019-08-20T10:13:48Z</time>
      </trkpt>
      <trkpt lat="46.44454" lon="4.12405">
        <ele>241.8</ele>
        <time>2019-08-20T10:13:49Z</time>
      </trkpt>
      <trkpt lat="46.44457" lon="4.12398">
        <ele>241.8</ele>
        <time>2019-08-20T10:13:50Z</time>
      </trkpt>
      <trkpt lat="46.44459" lon="4.12391">
        <ele>241.9</ele>
        <time>2019-08-20T10:13:51Z</time>
      </trkpt>
      <trkpt lat="46.44461" lon="4.12384">
        <ele>241.9</ele>
        <time>2019-08-20T10:13:52Z</time>
      </trkpt>
      <trkpt lat="46.44463" lon="4.12378">
        <ele>242</ele>
        <time>2019-08-20T10:13:53Z</time>
      </trkpt>
      <trkpt lat="46.44466" lon="4.12373">
        <ele>242.3</ele>
        <time>2019-08-20T10:13:54Z</time>
      </trkpt>
      <trkpt lat="46.44468" lon="4.12366">
        <ele>242.5</ele>
        <time>2019-08-20T10:13:55Z</time>
      </trkpt>
      <trkpt lat="46.44471" lon="4.1236">
        <ele>242.7</ele>
        <time>2019-08-20T10:13:56Z</time>
      </trkpt>
      <trkpt lat="46.44472" lon="4.12353">
        <ele>242.8</ele>
        <time>2019-08-20T10:13:57Z</time>
      </trkpt>
      <trkpt lat="46.44474" lon="4.12347">
        <ele>242.9</ele>
        <time>2019-08-20T10:13:58Z</time>
      </trkpt>
      <trkpt lat="46.44475" lon="4.12339">
        <ele>243</ele>
        <time>2019-08-20T10:13:59Z</time>
      </trkpt>
      <trkpt lat="46.44477" lon="4.12331">
        <ele>243</ele>
        <time>2019-08-20T10:14:00Z</time>
      </trkpt>
      <trkpt lat="46.44478" lon="4.12325">
        <ele>243</ele>
        <time>2019-08-20T10:14:01Z</time>
      </trkpt>
      <trkpt lat="46.4448" lon="4.12318">
        <ele>243</ele>
        <time>2019-08-20T10:14:02Z</time>
      </trkpt>
      <trkpt lat="46.44482" lon="4.12311">
        <ele>243</ele>
        <time>2019-08-20T10:14:03Z</time>
      </trkpt>
      <trkpt lat="46.44485" lon="4.12305">
        <ele>243</ele>
        <time>2019-08-20T10:14:04Z</time>
      </trkpt>
      <trkpt lat="46.44487" lon="4.12298">
        <ele>243</ele>
        <time>2019-08-20T10:14:05Z</time>
      </trkpt>
      <trkpt lat="46.44489" lon="4.12292">
        <ele>243</ele>
        <time>2019-08-20T10:14:06Z</time>
      </trkpt>
      <trkpt lat="46.44492" lon="4.12285">
        <ele>242.9</ele>
        <time>2019-08-20T10:14:07Z</time>
      </trkpt>
      <trkpt lat="46.44494" lon="4.12278">
        <ele>242.9</ele>
        <time>2019-08-20T10:14:08Z</time>
      </trkpt>
      <trkpt lat="46.44496" lon="4.1227">
        <ele>242.7</ele>
        <time>2019-08-20T10:14:09Z</time>
      </trkpt>
      <trkpt lat="46.44499" lon="4.12263">
        <ele>242.6</ele>
        <time>2019-08-20T10:14:10Z</time>
      </trkpt>
      <trkpt lat="46.445" lon="4.12256">
        <ele>242.6</ele>
        <time>2019-08-20T10:14:11Z</time>
      </trkpt>
      <trkpt lat="46.44502" lon="4.1225">
        <ele>242.5</ele>
        <time>2019-08-20T10:14:12Z</time>
      </trkpt>
      <trkpt lat="46.44505" lon="4.12243">
        <ele>242.5</ele>
        <time>2019-08-20T10:14:13Z</time>
      </trkpt>
      <trkpt lat="46.44507" lon="4.12235">
        <ele>242.6</ele>
        <time>2019-08-20T10:14:14Z</time>
      </trkpt>
      <trkpt lat="46.4451" lon="4.12228">
        <ele>242.7</ele>
        <time>2019-08-20T10:14:15Z</time>
      </trkpt>
      <trkpt lat="46.44512" lon="4.12221">
        <ele>242.9</ele>
        <time>2019-08-20T10:14:16Z</time>
      </trkpt>
      <trkpt lat="46.44514" lon="4.12212">
        <ele>243</ele>
        <time>2019-08-20T10:14:17Z</time>
      </trkpt>
      <trkpt lat="46.44516" lon="4.12206">
        <ele>243.1</ele>
        <time>2019-08-20T10:14:18Z</time>
      </trkpt>
      <trkpt lat="46.44517" lon="4.12202">
        <ele>243.1</ele>
        <time>2019-08-20T10:14:19Z</time>
      </trkpt>
      <trkpt lat="46.44518" lon="4.12197">
        <ele>243.1</ele>
        <time>2019-08-20T10:14:20Z</time>
      </trkpt>
      <trkpt lat="46.4452" lon="4.12191">
        <ele>243.1</ele>
        <time>2019-08-20T10:14:21Z</time>
      </trkpt>
      <trkpt lat="46.44522" lon="4.12185">
        <ele>243.2</ele>
        <time>2019-08-20T10:14:22Z</time>
      </trkpt>
      <trkpt lat="46.44524" lon="4.12178">
        <ele>243.2</ele>
        <time>2019-08-20T10:14:23Z</time>
      </trkpt>
      <trkpt lat="46.44526" lon="4.1217">
        <ele>243.2</ele>
        <time>2019-08-20T10:14:24Z</time>
      </trkpt>
      <trkpt lat="46.44528" lon="4.12163">
        <ele>243.2</ele>
        <time>2019-08-20T10:14:25Z</time>
      </trkpt>
      <trkpt lat="46.4453" lon="4.12155">
        <ele>243.2</ele>
        <time>2019-08-20T10:14:26Z</time>
      </trkpt>
      <trkpt lat="46.44533" lon="4.12148">
        <ele>243.2</ele>
        <time>2019-08-20T10:14:27Z</time>
      </trkpt>
      <trkpt lat="46.44536" lon="4.12141">
        <ele>243.2</ele>
        <time>2019-08-20T10:14:28Z</time>
      </trkpt>
      <trkpt lat="46.44539" lon="4.12134">
        <ele>243.2</ele>
        <time>2019-08-20T10:14:29Z</time>
      </trkpt>
      <trkpt lat="46.44541" lon="4.12128">
        <ele>243.2</ele>
        <time>2019-08-20T10:14:30Z</time>
      </trkpt>
      <trkpt lat="46.44543" lon="4.12122">
        <ele>243.3</ele>
        <time>2019-08-20T10:14:31Z</time>
      </trkpt>
      <trkpt lat="46.44546" lon="4.12114">
        <ele>243.3</ele>
        <time>2019-08-20T10:14:32Z</time>
      </trkpt>
      <trkpt lat="46.44549" lon="4.12106">
        <ele>243.4</ele>
        <time>2019-08-20T10:14:33Z</time>
      </trkpt>
      <trkpt lat="46.44551" lon="4.12099">
        <ele>243.5</ele>
        <time>2019-08-20T10:14:34Z</time>
      </trkpt>
      <trkpt lat="46.44553" lon="4.12092">
        <ele>243.8</ele>
        <time>2019-08-20T10:14:35Z</time>
      </trkpt>
      <trkpt lat="46.44556" lon="4.12085">
        <ele>244</ele>
        <time>2019-08-20T10:14:36Z</time>
      </trkpt>
      <trkpt lat="46.44559" lon="4.12079">
        <ele>244.3</ele>
        <time>2019-08-20T10:14:37Z</time>
      </trkpt>
      <trkpt lat="46.44562" lon="4.12072">
        <ele>244.1</ele>
        <time>2019-08-20T10:14:38Z</time>
      </trkpt>
      <trkpt lat="46.44563" lon="4.12065">
        <ele>244</ele>
        <time>2019-08-20T10:14:39Z</time>
      </trkpt>
      <trkpt lat="46.44566" lon="4.12058">
        <ele>243.8</ele>
        <time>2019-08-20T10:14:40Z</time>
      </trkpt>
      <trkpt lat="46.44568" lon="4.12052">
        <ele>243.7</ele>
        <time>2019-08-20T10:14:41Z</time>
      </trkpt>
      <trkpt lat="46.4457" lon="4.12046">
        <ele>243.6</ele>
        <time>2019-08-20T10:14:42Z</time>
      </trkpt>
      <trkpt lat="46.44572" lon="4.1204">
        <ele>243.5</ele>
        <time>2019-08-20T10:14:43Z</time>
      </trkpt>
      <trkpt lat="46.44575" lon="4.12034">
        <ele>243.4</ele>
        <time>2019-08-20T10:14:44Z</time>
      </trkpt>
      <trkpt lat="46.44577" lon="4.1203">
        <ele>243.4</ele>
        <time>2019-08-20T10:14:45Z</time>
      </trkpt>
      <trkpt lat="46.44581" lon="4.12027">
        <ele>243.3</ele>
        <time>2019-08-20T10:14:46Z</time>
      </trkpt>
      <trkpt lat="46.44585" lon="4.12024">
        <ele>243.2</ele>
        <time>2019-08-20T10:14:47Z</time>
      </trkpt>
      <trkpt lat="46.4459" lon="4.12021">
        <ele>243</ele>
        <time>2019-08-20T10:14:48Z</time>
      </trkpt>
      <trkpt lat="46.44592" lon="4.12018">
        <ele>242.9</ele>
        <time>2019-08-20T10:14:49Z</time>
      </trkpt>
      <trkpt lat="46.44595" lon="4.12016">
        <ele>242.8</ele>
        <time>2019-08-20T10:14:50Z</time>
      </trkpt>
      <trkpt lat="46.44598" lon="4.12012">
        <ele>242.6</ele>
        <time>2019-08-20T10:14:51Z</time>
      </trkpt>
      <trkpt lat="46.44601" lon="4.12008">
        <ele>242.4</ele>
        <time>2019-08-20T10:14:52Z</time>
      </trkpt>
      <trkpt lat="46.44605" lon="4.12004">
        <ele>242</ele>
        <time>2019-08-20T10:14:53Z</time>
      </trkpt>
      <trkpt lat="46.44609" lon="4.12">
        <ele>241.5</ele>
        <time>2019-08-20T10:14:54Z</time>
      </trkpt>
      <trkpt lat="46.44613" lon="4.11996">
        <ele>241.4</ele>
        <time>2019-08-20T10:14:55Z</time>
      </trkpt>
      <trkpt lat="46.44616" lon="4.11992">
        <ele>241.3</ele>
        <time>2019-08-20T10:14:56Z</time>
      </trkpt>
      <trkpt lat="46.44618" lon="4.11987">
        <ele>241.3</ele>
        <time>2019-08-20T10:14:57Z</time>
      </trkpt>
      <trkpt lat="46.4462" lon="4.11981">
        <ele>241.3</ele>
        <time>2019-08-20T10:14:58Z</time>
      </trkpt>
      <trkpt lat="46.44622" lon="4.11975">
        <ele>241.3</ele>
        <time>2019-08-20T10:14:59Z</time>
      </trkpt>
      <trkpt lat="46.44624" lon="4.1197">
        <ele>241.3</ele>
        <time>2019-08-20T10:15:00Z</time>
      </trkpt>
      <trkpt lat="46.44625" lon="4.11964">
        <ele>241.3</ele>
        <time>2019-08-20T10:15:01Z</time>
      </trkpt>
      <trkpt lat="46.44626" lon="4.11959">
        <ele>241.3</ele>
        <time>2019-08-20T10:15:02Z</time>
      </trkpt>
      <trkpt lat="46.44627" lon="4.11953">
        <ele>241.3</ele>
        <time>2019-08-20T10:15:03Z</time>
      </trkpt>
      <trkpt lat="46.44628" lon="4.11947">
        <ele>241.2</ele>
        <time>2019-08-20T10:15:04Z</time>
      </trkpt>
      <trkpt lat="46.44629" lon="4.11941">
        <ele>241.2</ele>
        <time>2019-08-20T10:15:05Z</time>
      </trkpt>
      <trkpt lat="46.4463" lon="4.11935">
        <ele>241.3</ele>
        <time>2019-08-20T10:15:06Z</time>
      </trkpt>
      <trkpt lat="46.44632" lon="4.11929">
        <ele>241.3</ele>
        <time>2019-08-20T10:15:07Z</time>
      </trkpt>
      <trkpt lat="46.44633" lon="4.11922">
        <ele>241.4</ele>
        <time>2019-08-20T10:15:08Z</time>
      </trkpt>
      <trkpt lat="46.44635" lon="4.11917">
        <ele>241.5</ele>
        <time>2019-08-20T10:15:09Z</time>
      </trkpt>
      <trkpt lat="46.44637" lon="4.11912">
        <ele>241.5</ele>
        <time>2019-08-20T10:15:10Z</time>
      </trkpt>
      <trkpt lat="46.44638" lon="4.11905">
        <ele>241.6</ele>
        <time>2019-08-20T10:15:11Z</time>
      </trkpt>
      <trkpt lat="46.4464" lon="4.119">
        <ele>241.6</ele>
        <time>2019-08-20T10:15:12Z</time>
      </trkpt>
      <trkpt lat="46.44641" lon="4.11893">
        <ele>241.7</ele>
        <time>2019-08-20T10:15:13Z</time>
      </trkpt>
      <trkpt lat="46.44643" lon="4.11886">
        <ele>241.8</ele>
        <time>2019-08-20T10:15:14Z</time>
      </trkpt>
      <trkpt lat="46.44645" lon="4.11879">
        <ele>241.9</ele>
        <time>2019-08-20T10:15:15Z</time>
      </trkpt>
      <trkpt lat="46.44647" lon="4.11874">
        <ele>242</ele>
        <time>2019-08-20T10:15:16Z</time>
      </trkpt>
      <trkpt lat="46.44648" lon="4.11869">
        <ele>242.1</ele>
        <time>2019-08-20T10:15:17Z</time>
      </trkpt>
      <trkpt lat="46.4465" lon="4.11864">
        <ele>242.1</ele>
        <time>2019-08-20T10:15:18Z</time>
      </trkpt>
      <trkpt lat="46.44651" lon="4.11857">
        <ele>242.2</ele>
        <time>2019-08-20T10:15:19Z</time>
      </trkpt>
      <trkpt lat="46.44653" lon="4.11852">
        <ele>242.2</ele>
        <time>2019-08-20T10:15:20Z</time>
      </trkpt>
      <trkpt lat="46.44656" lon="4.11848">
        <ele>242.3</ele>
        <time>2019-08-20T10:15:21Z</time>
      </trkpt>
      <trkpt lat="46.44658" lon="4.11844">
        <ele>242.3</ele>
        <time>2019-08-20T10:15:22Z</time>
      </trkpt>
      <trkpt lat="46.44662" lon="4.1184">
        <ele>242.4</ele>
        <time>2019-08-20T10:15:23Z</time>
      </trkpt>
      <trkpt lat="46.44664" lon="4.11835">
        <ele>242.4</ele>
        <time>2019-08-20T10:15:24Z</time>
      </trkpt>
      <trkpt lat="46.44667" lon="4.11831">
        <ele>242.5</ele>
        <time>2019-08-20T10:15:25Z</time>
      </trkpt>
      <trkpt lat="46.44671" lon="4.11827">
        <ele>242.5</ele>
        <time>2019-08-20T10:15:26Z</time>
      </trkpt>
      <trkpt lat="46.44674" lon="4.11822">
        <ele>242.6</ele>
        <time>2019-08-20T10:15:27Z</time>
      </trkpt>
      <trkpt lat="46.44676" lon="4.11818">
        <ele>242.6</ele>
        <time>2019-08-20T10:15:28Z</time>
      </trkpt>
      <trkpt lat="46.44679" lon="4.11814">
        <ele>242.7</ele>
        <time>2019-08-20T10:15:29Z</time>
      </trkpt>
      <trkpt lat="46.44682" lon="4.11811">
        <ele>242.7</ele>
        <time>2019-08-20T10:15:30Z</time>
      </trkpt>
      <trkpt lat="46.44685" lon="4.11807">
        <ele>242.8</ele>
        <time>2019-08-20T10:15:31Z</time>
      </trkpt>
      <trkpt lat="46.4469" lon="4.11802">
        <ele>242.9</ele>
        <time>2019-08-20T10:15:33Z</time>
      </trkpt>
      <trkpt lat="46.44692" lon="4.11799">
        <ele>242.9</ele>
        <time>2019-08-20T10:15:34Z</time>
      </trkpt>
      <trkpt lat="46.44695" lon="4.11795">
        <ele>243</ele>
        <time>2019-08-20T10:15:36Z</time>
      </trkpt>
      <trkpt lat="46.44697" lon="4.11791">
        <ele>243</ele>
        <time>2019-08-20T10:15:41Z</time>
      </trkpt>
      <trkpt lat="46.44697" lon="4.11786">
        <ele>242.9</ele>
        <time>2019-08-20T10:15:43Z</time>
      </trkpt>
      <trkpt lat="46.447" lon="4.11781">
        <ele>242.9</ele>
        <time>2019-08-20T10:15:45Z</time>
      </trkpt>
      <trkpt lat="46.44702" lon="4.11776">
        <ele>242.9</ele>
        <time>2019-08-20T10:15:46Z</time>
      </trkpt>
      <trkpt lat="46.44704" lon="4.11773">
        <ele>242.9</ele>
        <time>2019-08-20T10:15:47Z</time>
      </trkpt>
      <trkpt lat="46.44707" lon="4.11768">
        <ele>242.9</ele>
        <time>2019-08-20T10:15:48Z</time>
      </trkpt>
      <trkpt lat="46.44709" lon="4.11763">
        <ele>242.8</ele>
        <time>2019-08-20T10:15:49Z</time>
      </trkpt>
      <trkpt lat="46.44711" lon="4.11758">
        <ele>242.8</ele>
        <time>2019-08-20T10:15:50Z</time>
      </trkpt>
      <trkpt lat="46.44713" lon="4.11753">
        <ele>242.8</ele>
        <time>2019-08-20T10:15:51Z</time>
      </trkpt>
      <trkpt lat="46.44716" lon="4.11749">
        <ele>242.8</ele>
        <time>2019-08-20T10:15:52Z</time>
      </trkpt>
      <trkpt lat="46.44718" lon="4.11745">
        <ele>242.8</ele>
        <time>2019-08-20T10:15:53Z</time>
      </trkpt>
      <trkpt lat="46.44721" lon="4.11742">
        <ele>242.8</ele>
        <time>2019-08-20T10:15:54Z</time>
      </trkpt>
      <trkpt lat="46.44724" lon="4.1174">
        <ele>242.9</ele>
        <time>2019-08-20T10:15:55Z</time>
      </trkpt>
      <trkpt lat="46.44726" lon="4.11737">
        <ele>242.9</ele>
        <time>2019-08-20T10:15:56Z</time>
      </trkpt>
      <trkpt lat="46.4473" lon="4.11732">
        <ele>242.9</ele>
        <time>2019-08-20T10:15:57Z</time>
      </trkpt>
      <trkpt lat="46.44732" lon="4.1173">
        <ele>242.9</ele>
        <time>2019-08-20T10:15:58Z</time>
      </trkpt>
      <trkpt lat="46.44735" lon="4.11729">
        <ele>242.9</ele>
        <time>2019-08-20T10:15:59Z</time>
      </trkpt>
      <trkpt lat="46.44738" lon="4.11726">
        <ele>242.9</ele>
        <time>2019-08-20T10:16:00Z</time>
      </trkpt>
      <trkpt lat="46.44741" lon="4.11724">
        <ele>243</ele>
        <time>2019-08-20T10:16:01Z</time>
      </trkpt>
      <trkpt lat="46.44745" lon="4.11723">
        <ele>243</ele>
        <time>2019-08-20T10:16:02Z</time>
      </trkpt>
      <trkpt lat="46.44749" lon="4.11719">
        <ele>243</ele>
        <time>2019-08-20T10:16:03Z</time>
      </trkpt>
      <trkpt lat="46.44752" lon="4.11714">
        <ele>243</ele>
        <time>2019-08-20T10:16:04Z</time>
      </trkpt>
      <trkpt lat="46.44754" lon="4.11709">
        <ele>243</ele>
        <time>2019-08-20T10:16:05Z</time>
      </trkpt>
      <trkpt lat="46.44757" lon="4.11704">
        <ele>243</ele>
        <time>2019-08-20T10:16:06Z</time>
      </trkpt>
      <trkpt lat="46.4476" lon="4.11699">
        <ele>243.1</ele>
        <time>2019-08-20T10:16:07Z</time>
      </trkpt>
      <trkpt lat="46.44762" lon="4.11694">
        <ele>243.1</ele>
        <time>2019-08-20T10:16:08Z</time>
      </trkpt>
      <trkpt lat="46.44764" lon="4.11689">
        <ele>243.1</ele>
        <time>2019-08-20T10:16:09Z</time>
      </trkpt>
      <trkpt lat="46.44766" lon="4.11686">
        <ele>243.1</ele>
        <time>2019-08-20T10:16:10Z</time>
      </trkpt>
      <trkpt lat="46.44769" lon="4.11682">
        <ele>243.1</ele>
        <time>2019-08-20T10:16:11Z</time>
      </trkpt>
      <trkpt lat="46.44771" lon="4.11678">
        <ele>243.1</ele>
        <time>2019-08-20T10:16:12Z</time>
      </trkpt>
      <trkpt lat="46.44774" lon="4.11675">
        <ele>243.2</ele>
        <time>2019-08-20T10:16:13Z</time>
      </trkpt>
      <trkpt lat="46.44776" lon="4.11671">
        <ele>243.2</ele>
        <time>2019-08-20T10:16:14Z</time>
      </trkpt>
      <trkpt lat="46.44778" lon="4.11667">
        <ele>243.2</ele>
        <time>2019-08-20T10:16:15Z</time>
      </trkpt>
      <trkpt lat="46.44781" lon="4.11662">
        <ele>243.2</ele>
        <time>2019-08-20T10:16:16Z</time>
      </trkpt>
      <trkpt lat="46.44784" lon="4.11659">
        <ele>243.2</ele>
        <time>2019-08-20T10:16:17Z</time>
      </trkpt>
      <trkpt lat="46.44786" lon="4.11656">
        <ele>243.2</ele>
        <time>2019-08-20T10:16:18Z</time>
      </trkpt>
      <trkpt lat="46.44789" lon="4.11654">
        <ele>243.2</ele>
        <time>2019-08-20T10:16:19Z</time>
      </trkpt>
      <trkpt lat="46.44791" lon="4.11651">
        <ele>243.2</ele>
        <time>2019-08-20T10:16:20Z</time>
      </trkpt>
      <trkpt lat="46.44794" lon="4.11647">
        <ele>243.3</ele>
        <time>2019-08-20T10:16:21Z</time>
      </trkpt>
      <trkpt lat="46.44797" lon="4.11643">
        <ele>243.3</ele>
        <time>2019-08-20T10:16:22Z</time>
      </trkpt>
      <trkpt lat="46.44799" lon="4.11639">
        <ele>243.2</ele>
        <time>2019-08-20T10:16:23Z</time>
      </trkpt>
      <trkpt lat="46.44802" lon="4.11635">
        <ele>243.2</ele>
        <time>2019-08-20T10:16:24Z</time>
      </trkpt>
      <trkpt lat="46.44805" lon="4.11629">
        <ele>243.2</ele>
        <time>2019-08-20T10:16:25Z</time>
      </trkpt>
      <trkpt lat="46.44809" lon="4.11623">
        <ele>243.2</ele>
        <time>2019-08-20T10:16:27Z</time>
      </trkpt>
      <trkpt lat="46.44812" lon="4.1162">
        <ele>243.2</ele>
        <time>2019-08-20T10:16:28Z</time>
      </trkpt>
      <trkpt lat="46.44815" lon="4.11615">
        <ele>243.2</ele>
        <time>2019-08-20T10:16:29Z</time>
      </trkpt>
      <trkpt lat="46.44818" lon="4.11611">
        <ele>243.2</ele>
        <time>2019-08-20T10:16:30Z</time>
      </trkpt>
      <trkpt lat="46.44822" lon="4.11608">
        <ele>243.2</ele>
        <time>2019-08-20T10:16:31Z</time>
      </trkpt>
      <trkpt lat="46.44825" lon="4.11604">
        <ele>243.2</ele>
        <time>2019-08-20T10:16:32Z</time>
      </trkpt>
      <trkpt lat="46.44828" lon="4.116">
        <ele>243.2</ele>
        <time>2019-08-20T10:16:33Z</time>
      </trkpt>
      <trkpt lat="46.44831" lon="4.11594">
        <ele>243.2</ele>
        <time>2019-08-20T10:16:34Z</time>
      </trkpt>
      <trkpt lat="46.44834" lon="4.11588">
        <ele>243.2</ele>
        <time>2019-08-20T10:16:35Z</time>
      </trkpt>
      <trkpt lat="46.44838" lon="4.11583">
        <ele>243.2</ele>
        <time>2019-08-20T10:16:36Z</time>
      </trkpt>
      <trkpt lat="46.44841" lon="4.11579">
        <ele>243.2</ele>
        <time>2019-08-20T10:16:37Z</time>
      </trkpt>
      <trkpt lat="46.44844" lon="4.11576">
        <ele>243.2</ele>
        <time>2019-08-20T10:16:38Z</time>
      </trkpt>
      <trkpt lat="46.44846" lon="4.11572">
        <ele>243.2</ele>
        <time>2019-08-20T10:16:39Z</time>
      </trkpt>
      <trkpt lat="46.44849" lon="4.11568">
        <ele>243.1</ele>
        <time>2019-08-20T10:16:40Z</time>
      </trkpt>
      <trkpt lat="46.44852" lon="4.11562">
        <ele>243.1</ele>
        <time>2019-08-20T10:16:41Z</time>
      </trkpt>
      <trkpt lat="46.44855" lon="4.11558">
        <ele>243.1</ele>
        <time>2019-08-20T10:16:42Z</time>
      </trkpt>
      <trkpt lat="46.44858" lon="4.11553">
        <ele>243</ele>
        <time>2019-08-20T10:16:43Z</time>
      </trkpt>
      <trkpt lat="46.4486" lon="4.11548">
        <ele>243</ele>
        <time>2019-08-20T10:16:44Z</time>
      </trkpt>
      <trkpt lat="46.44863" lon="4.11543">
        <ele>243</ele>
        <time>2019-08-20T10:16:45Z</time>
      </trkpt>
      <trkpt lat="46.44867" lon="4.11538">
        <ele>242.9</ele>
        <time>2019-08-20T10:16:46Z</time>
      </trkpt>
      <trkpt lat="46.4487" lon="4.11535">
        <ele>242.9</ele>
        <time>2019-08-20T10:16:47Z</time>
      </trkpt>
      <trkpt lat="46.44873" lon="4.11531">
        <ele>242.8</ele>
        <time>2019-08-20T10:16:48Z</time>
      </trkpt>
      <trkpt lat="46.44876" lon="4.11528">
        <ele>242.7</ele>
        <time>2019-08-20T10:16:49Z</time>
      </trkpt>
      <trkpt lat="46.44879" lon="4.11523">
        <ele>242.5</ele>
        <time>2019-08-20T10:16:50Z</time>
      </trkpt>
      <trkpt lat="46.44882" lon="4.11519">
        <ele>242.4</ele>
        <time>2019-08-20T10:16:51Z</time>
      </trkpt>
      <trkpt lat="46.44885" lon="4.11515">
        <ele>242.3</ele>
        <time>2019-08-20T10:16:52Z</time>
      </trkpt>
      <trkpt lat="46.44888" lon="4.11512">
        <ele>242.2</ele>
        <time>2019-08-20T10:16:53Z</time>
      </trkpt>
      <trkpt lat="46.4489" lon="4.11509">
        <ele>242.1</ele>
        <time>2019-08-20T10:16:54Z</time>
      </trkpt>
      <trkpt lat="46.44891" lon="4.11513">
        <ele>242</ele>
        <time>2019-08-20T10:16:55Z</time>
      </trkpt>
      <trkpt lat="46.44894" lon="4.11514">
        <ele>242</ele>
        <time>2019-08-20T10:17:03Z</time>
      </trkpt>
      <trkpt lat="46.44897" lon="4.11514">
        <ele>241.9</ele>
        <time>2019-08-20T10:17:05Z</time>
      </trkpt>
      <trkpt lat="46.449" lon="4.1151">
        <ele>241.9</ele>
        <time>2019-08-20T10:17:07Z</time>
      </trkpt>
      <trkpt lat="46.449" lon="4.11505">
        <ele>241.8</ele>
        <time>2019-08-20T10:17:10Z</time>
      </trkpt>
      <trkpt lat="46.44901" lon="4.115">
        <ele>241.8</ele>
        <time>2019-08-20T10:17:13Z</time>
      </trkpt>
      <trkpt lat="46.44905" lon="4.11499">
        <ele>241.9</ele>
        <time>2019-08-20T10:17:15Z</time>
      </trkpt>
      <trkpt lat="46.44907" lon="4.11496">
        <ele>241.9</ele>
        <time>2019-08-20T10:17:17Z</time>
      </trkpt>
      <trkpt lat="46.44912" lon="4.11488">
        <ele>242.1</ele>
        <time>2019-08-20T10:17:21Z</time>
      </trkpt>
      <trkpt lat="46.44914" lon="4.11482">
        <ele>242.2</ele>
        <time>2019-08-20T10:17:28Z</time>
      </trkpt>
      <trkpt lat="46.44917" lon="4.11477">
        <ele>242.3</ele>
        <time>2019-08-20T10:19:33Z</time>
      </trkpt>
      <trkpt lat="46.44919" lon="4.11471">
        <ele>242.4</ele>
        <time>2019-08-20T10:19:34Z</time>
      </trkpt>
      <trkpt lat="46.44922" lon="4.11464">
        <ele>242.5</ele>
        <time>2019-08-20T10:19:35Z</time>
      </trkpt>
      <trkpt lat="46.44926" lon="4.11456">
        <ele>242.6</ele>
        <time>2019-08-20T10:19:36Z</time>
      </trkpt>
      <trkpt lat="46.44929" lon="4.11449">
        <ele>242.6</ele>
        <time>2019-08-20T10:19:37Z</time>
      </trkpt>
      <trkpt lat="46.44932" lon="4.11442">
        <ele>242.6</ele>
        <time>2019-08-20T10:19:38Z</time>
      </trkpt>
      <trkpt lat="46.44935" lon="4.11435">
        <ele>242.6</ele>
        <time>2019-08-20T10:19:39Z</time>
      </trkpt>
      <trkpt lat="46.44938" lon="4.11428">
        <ele>242.7</ele>
        <time>2019-08-20T10:19:40Z</time>
      </trkpt>
      <trkpt lat="46.44942" lon="4.11421">
        <ele>242.7</ele>
        <time>2019-08-20T10:19:41Z</time>
      </trkpt>
      <trkpt lat="46.44944" lon="4.11415">
        <ele>242.7</ele>
        <time>2019-08-20T10:19:42Z</time>
      </trkpt>
      <trkpt lat="46.44945" lon="4.11408">
        <ele>242.7</ele>
        <time>2019-08-20T10:19:43Z</time>
      </trkpt>
      <trkpt lat="46.44948" lon="4.11401">
        <ele>242.7</ele>
        <time>2019-08-20T10:19:44Z</time>
      </trkpt>
      <trkpt lat="46.4495" lon="4.11396">
        <ele>242.7</ele>
        <time>2019-08-20T10:19:45Z</time>
      </trkpt>
      <trkpt lat="46.44952" lon="4.11389">
        <ele>242.7</ele>
        <time>2019-08-20T10:19:46Z</time>
      </trkpt>
      <trkpt lat="46.44955" lon="4.11383">
        <ele>242.6</ele>
        <time>2019-08-20T10:19:47Z</time>
      </trkpt>
      <trkpt lat="46.44959" lon="4.11376">
        <ele>242.6</ele>
        <time>2019-08-20T10:19:48Z</time>
      </trkpt>
      <trkpt lat="46.44961" lon="4.1137">
        <ele>242.6</ele>
        <time>2019-08-20T10:19:49Z</time>
      </trkpt>
      <trkpt lat="46.44964" lon="4.11364">
        <ele>242.6</ele>
        <time>2019-08-20T10:19:50Z</time>
      </trkpt>
      <trkpt lat="46.44967" lon="4.11359">
        <ele>242.6</ele>
        <time>2019-08-20T10:19:51Z</time>
      </trkpt>
      <trkpt lat="46.44969" lon="4.11353">
        <ele>242.6</ele>
        <time>2019-08-20T10:19:52Z</time>
      </trkpt>
      <trkpt lat="46.44971" lon="4.11347">
        <ele>242.6</ele>
        <time>2019-08-20T10:19:53Z</time>
      </trkpt>
      <trkpt lat="46.44974" lon="4.11342">
        <ele>242.5</ele>
        <time>2019-08-20T10:19:54Z</time>
      </trkpt>
      <trkpt lat="46.44976" lon="4.11337">
        <ele>242.5</ele>
        <time>2019-08-20T10:19:55Z</time>
      </trkpt>
      <trkpt lat="46.44979" lon="4.11333">
        <ele>242.5</ele>
        <time>2019-08-20T10:19:56Z</time>
      </trkpt>
      <trkpt lat="46.44982" lon="4.11329">
        <ele>242.4</ele>
        <time>2019-08-20T10:19:57Z</time>
      </trkpt>
      <trkpt lat="46.44984" lon="4.11325">
        <ele>242.3</ele>
        <time>2019-08-20T10:19:58Z</time>
      </trkpt>
      <trkpt lat="46.44986" lon="4.1132">
        <ele>242.3</ele>
        <time>2019-08-20T10:19:59Z</time>
      </trkpt>
      <trkpt lat="46.44988" lon="4.11316">
        <ele>242.2</ele>
        <time>2019-08-20T10:20:00Z</time>
      </trkpt>
      <trkpt lat="46.4499" lon="4.11311">
        <ele>242.2</ele>
        <time>2019-08-20T10:20:01Z</time>
      </trkpt>
      <trkpt lat="46.44992" lon="4.11306">
        <ele>242.1</ele>
        <time>2019-08-20T10:20:02Z</time>
      </trkpt>
      <trkpt lat="46.44993" lon="4.11301">
        <ele>242</ele>
        <time>2019-08-20T10:20:03Z</time>
      </trkpt>
      <trkpt lat="46.44995" lon="4.11295">
        <ele>242</ele>
        <time>2019-08-20T10:20:04Z</time>
      </trkpt>
      <trkpt lat="46.44997" lon="4.11289">
        <ele>241.9</ele>
        <time>2019-08-20T10:20:05Z</time>
      </trkpt>
      <trkpt lat="46.45" lon="4.11283">
        <ele>241.9</ele>
        <time>2019-08-20T10:20:06Z</time>
      </trkpt>
      <trkpt lat="46.45002" lon="4.11278">
        <ele>241.8</ele>
        <time>2019-08-20T10:20:07Z</time>
      </trkpt>
      <trkpt lat="46.45004" lon="4.11272">
        <ele>241.8</ele>
        <time>2019-08-20T10:20:08Z</time>
      </trkpt>
      <trkpt lat="46.45006" lon="4.11266">
        <ele>241.8</ele>
        <time>2019-08-20T10:20:09Z</time>
      </trkpt>
      <trkpt lat="46.45009" lon="4.1126">
        <ele>241.8</ele>
        <time>2019-08-20T10:20:10Z</time>
      </trkpt>
      <trkpt lat="46.45012" lon="4.11255">
        <ele>241.8</ele>
        <time>2019-08-20T10:20:11Z</time>
      </trkpt>
      <trkpt lat="46.45014" lon="4.11251">
        <ele>241.8</ele>
        <time>2019-08-20T10:20:12Z</time>
      </trkpt>
      <trkpt lat="46.45016" lon="4.11246">
        <ele>241.8</ele>
        <time>2019-08-20T10:20:13Z</time>
      </trkpt>
      <trkpt lat="46.45019" lon="4.11241">
        <ele>241.8</ele>
        <time>2019-08-20T10:20:14Z</time>
      </trkpt>
      <trkpt lat="46.45021" lon="4.11236">
        <ele>241.8</ele>
        <time>2019-08-20T10:20:15Z</time>
      </trkpt>
      <trkpt lat="46.45023" lon="4.11231">
        <ele>241.9</ele>
        <time>2019-08-20T10:20:16Z</time>
      </trkpt>
      <trkpt lat="46.45026" lon="4.11225">
        <ele>241.9</ele>
        <time>2019-08-20T10:20:17Z</time>
      </trkpt>
      <trkpt lat="46.45028" lon="4.1122">
        <ele>241.9</ele>
        <time>2019-08-20T10:20:18Z</time>
      </trkpt>
      <trkpt lat="46.45031" lon="4.11216">
        <ele>241.9</ele>
        <time>2019-08-20T10:20:19Z</time>
      </trkpt>
      <trkpt lat="46.45033" lon="4.11211">
        <ele>242</ele>
        <time>2019-08-20T10:20:20Z</time>
      </trkpt>
      <trkpt lat="46.45034" lon="4.11207">
        <ele>242</ele>
        <time>2019-08-20T10:20:21Z</time>
      </trkpt>
      <trkpt lat="46.45036" lon="4.11202">
        <ele>242</ele>
        <time>2019-08-20T10:20:22Z</time>
      </trkpt>
      <trkpt lat="46.45038" lon="4.11198">
        <ele>242</ele>
        <time>2019-08-20T10:20:23Z</time>
      </trkpt>
      <trkpt lat="46.4504" lon="4.11193">
        <ele>242</ele>
        <time>2019-08-20T10:20:24Z</time>
      </trkpt>
      <trkpt lat="46.45043" lon="4.11188">
        <ele>242</ele>
        <time>2019-08-20T10:20:25Z</time>
      </trkpt>
      <trkpt lat="46.45045" lon="4.11183">
        <ele>242</ele>
        <time>2019-08-20T10:20:26Z</time>
      </trkpt>
      <trkpt lat="46.45047" lon="4.11177">
        <ele>242</ele>
        <time>2019-08-20T10:20:27Z</time>
      </trkpt>
      <trkpt lat="46.45049" lon="4.11173">
        <ele>242</ele>
        <time>2019-08-20T10:20:28Z</time>
      </trkpt>
      <trkpt lat="46.45051" lon="4.11169">
        <ele>242.1</ele>
        <time>2019-08-20T10:20:29Z</time>
      </trkpt>
      <trkpt lat="46.45054" lon="4.11165">
        <ele>242.1</ele>
        <time>2019-08-20T10:20:30Z</time>
      </trkpt>
      <trkpt lat="46.45056" lon="4.1116">
        <ele>242.1</ele>
        <time>2019-08-20T10:20:31Z</time>
      </trkpt>
      <trkpt lat="46.45058" lon="4.11156">
        <ele>242.1</ele>
        <time>2019-08-20T10:20:32Z</time>
      </trkpt>
      <trkpt lat="46.45061" lon="4.1115">
        <ele>242.2</ele>
        <time>2019-08-20T10:20:33Z</time>
      </trkpt>
      <trkpt lat="46.45063" lon="4.11144">
        <ele>242.2</ele>
        <time>2019-08-20T10:20:34Z</time>
      </trkpt>
      <trkpt lat="46.45066" lon="4.11137">
        <ele>242.2</ele>
        <time>2019-08-20T10:20:35Z</time>
      </trkpt>
      <trkpt lat="46.45069" lon="4.11131">
        <ele>242.2</ele>
        <time>2019-08-20T10:20:36Z</time>
      </trkpt>
      <trkpt lat="46.45071" lon="4.11125">
        <ele>242.2</ele>
        <time>2019-08-20T10:20:37Z</time>
      </trkpt>
      <trkpt lat="46.45073" lon="4.11119">
        <ele>242.2</ele>
        <time>2019-08-20T10:20:38Z</time>
      </trkpt>
      <trkpt lat="46.45076" lon="4.11114">
        <ele>242.2</ele>
        <time>2019-08-20T10:20:39Z</time>
      </trkpt>
      <trkpt lat="46.45078" lon="4.11108">
        <ele>242.3</ele>
        <time>2019-08-20T10:20:40Z</time>
      </trkpt>
      <trkpt lat="46.4508" lon="4.11104">
        <ele>242.3</ele>
        <time>2019-08-20T10:20:41Z</time>
      </trkpt>
      <trkpt lat="46.45082" lon="4.11098">
        <ele>242.3</ele>
        <time>2019-08-20T10:20:42Z</time>
      </trkpt>
      <trkpt lat="46.45084" lon="4.11093">
        <ele>242.3</ele>
        <time>2019-08-20T10:20:43Z</time>
      </trkpt>
      <trkpt lat="46.45086" lon="4.11087">
        <ele>242.3</ele>
        <time>2019-08-20T10:20:44Z</time>
      </trkpt>
      <trkpt lat="46.45087" lon="4.11082">
        <ele>242.4</ele>
        <time>2019-08-20T10:20:45Z</time>
      </trkpt>
      <trkpt lat="46.45089" lon="4.11078">
        <ele>242.4</ele>
        <time>2019-08-20T10:20:46Z</time>
      </trkpt>
      <trkpt lat="46.45091" lon="4.11072">
        <ele>242.4</ele>
        <time>2019-08-20T10:20:47Z</time>
      </trkpt>
      <trkpt lat="46.45093" lon="4.11067">
        <ele>242.4</ele>
        <time>2019-08-20T10:20:48Z</time>
      </trkpt>
      <trkpt lat="46.45095" lon="4.11062">
        <ele>242.4</ele>
        <time>2019-08-20T10:20:49Z</time>
      </trkpt>
      <trkpt lat="46.45097" lon="4.11058">
        <ele>242.4</ele>
        <time>2019-08-20T10:20:50Z</time>
      </trkpt>
      <trkpt lat="46.451" lon="4.11053">
        <ele>242.4</ele>
        <time>2019-08-20T10:20:51Z</time>
      </trkpt>
      <trkpt lat="46.45103" lon="4.11048">
        <ele>242.4</ele>
        <time>2019-08-20T10:20:52Z</time>
      </trkpt>
      <trkpt lat="46.45106" lon="4.11042">
        <ele>242.4</ele>
        <time>2019-08-20T10:20:53Z</time>
      </trkpt>
      <trkpt lat="46.45109" lon="4.11038">
        <ele>242.4</ele>
        <time>2019-08-20T10:20:54Z</time>
      </trkpt>
      <trkpt lat="46.45111" lon="4.11034">
        <ele>242.4</ele>
        <time>2019-08-20T10:20:55Z</time>
      </trkpt>
      <trkpt lat="46.45113" lon="4.11029">
        <ele>242.4</ele>
        <time>2019-08-20T10:20:56Z</time>
      </trkpt>
      <trkpt lat="46.45115" lon="4.11025">
        <ele>242.4</ele>
        <time>2019-08-20T10:20:57Z</time>
      </trkpt>
      <trkpt lat="46.45118" lon="4.1102">
        <ele>242.4</ele>
        <time>2019-08-20T10:20:58Z</time>
      </trkpt>
      <trkpt lat="46.45121" lon="4.11014">
        <ele>242.4</ele>
        <time>2019-08-20T10:20:59Z</time>
      </trkpt>
      <trkpt lat="46.45123" lon="4.11009">
        <ele>242.4</ele>
        <time>2019-08-20T10:21:00Z</time>
      </trkpt>
      <trkpt lat="46.45127" lon="4.11003">
        <ele>242.4</ele>
        <time>2019-08-20T10:21:01Z</time>
      </trkpt>
      <trkpt lat="46.4513" lon="4.10998">
        <ele>242.4</ele>
        <time>2019-08-20T10:21:02Z</time>
      </trkpt>
      <trkpt lat="46.45133" lon="4.10992">
        <ele>242.4</ele>
        <time>2019-08-20T10:21:03Z</time>
      </trkpt>
      <trkpt lat="46.45136" lon="4.10987">
        <ele>242.4</ele>
        <time>2019-08-20T10:21:04Z</time>
      </trkpt>
      <trkpt lat="46.45138" lon="4.10982">
        <ele>242.4</ele>
        <time>2019-08-20T10:21:05Z</time>
      </trkpt>
      <trkpt lat="46.45141" lon="4.10977">
        <ele>242.4</ele>
        <time>2019-08-20T10:21:06Z</time>
      </trkpt>
      <trkpt lat="46.45142" lon="4.10972">
        <ele>242.4</ele>
        <time>2019-08-20T10:21:07Z</time>
      </trkpt>
      <trkpt lat="46.45144" lon="4.10966">
        <ele>242.4</ele>
        <time>2019-08-20T10:21:08Z</time>
      </trkpt>
      <trkpt lat="46.45146" lon="4.1096">
        <ele>242.4</ele>
        <time>2019-08-20T10:21:09Z</time>
      </trkpt>
      <trkpt lat="46.45149" lon="4.10953">
        <ele>242.4</ele>
        <time>2019-08-20T10:21:10Z</time>
      </trkpt>
      <trkpt lat="46.45152" lon="4.10947">
        <ele>242.4</ele>
        <time>2019-08-20T10:21:11Z</time>
      </trkpt>
      <trkpt lat="46.45154" lon="4.10942">
        <ele>242.4</ele>
        <time>2019-08-20T10:21:12Z</time>
      </trkpt>
      <trkpt lat="46.45156" lon="4.10936">
        <ele>242.4</ele>
        <time>2019-08-20T10:21:13Z</time>
      </trkpt>
      <trkpt lat="46.45158" lon="4.10931">
        <ele>242.4</ele>
        <time>2019-08-20T10:21:14Z</time>
      </trkpt>
      <trkpt lat="46.45162" lon="4.10925">
        <ele>242.3</ele>
        <time>2019-08-20T10:21:15Z</time>
      </trkpt>
      <trkpt lat="46.45164" lon="4.1092">
        <ele>242.3</ele>
        <time>2019-08-20T10:21:16Z</time>
      </trkpt>
      <trkpt lat="46.45167" lon="4.10913">
        <ele>242.3</ele>
        <time>2019-08-20T10:21:17Z</time>
      </trkpt>
      <trkpt lat="46.45169" lon="4.10908">
        <ele>242.3</ele>
        <time>2019-08-20T10:21:18Z</time>
      </trkpt>
      <trkpt lat="46.45172" lon="4.10903">
        <ele>242.3</ele>
        <time>2019-08-20T10:21:19Z</time>
      </trkpt>
      <trkpt lat="46.45174" lon="4.10898">
        <ele>242.3</ele>
        <time>2019-08-20T10:21:20Z</time>
      </trkpt>
      <trkpt lat="46.45176" lon="4.10894">
        <ele>242.2</ele>
        <time>2019-08-20T10:21:21Z</time>
      </trkpt>
      <trkpt lat="46.45179" lon="4.10889">
        <ele>242.2</ele>
        <time>2019-08-20T10:21:22Z</time>
      </trkpt>
      <trkpt lat="46.45181" lon="4.10885">
        <ele>242.2</ele>
        <time>2019-08-20T10:21:23Z</time>
      </trkpt>
      <trkpt lat="46.45183" lon="4.1088">
        <ele>242.2</ele>
        <time>2019-08-20T10:21:24Z</time>
      </trkpt>
      <trkpt lat="46.45185" lon="4.10875">
        <ele>242.2</ele>
        <time>2019-08-20T10:21:25Z</time>
      </trkpt>
      <trkpt lat="46.45187" lon="4.1087">
        <ele>242.2</ele>
        <time>2019-08-20T10:21:26Z</time>
      </trkpt>
      <trkpt lat="46.45189" lon="4.10864">
        <ele>242.2</ele>
        <time>2019-08-20T10:21:27Z</time>
      </trkpt>
      <trkpt lat="46.45192" lon="4.10859">
        <ele>242.2</ele>
        <time>2019-08-20T10:21:28Z</time>
      </trkpt>
      <trkpt lat="46.45194" lon="4.10855">
        <ele>242.2</ele>
        <time>2019-08-20T10:21:29Z</time>
      </trkpt>
      <trkpt lat="46.45196" lon="4.10851">
        <ele>242.2</ele>
        <time>2019-08-20T10:21:30Z</time>
      </trkpt>
      <trkpt lat="46.45198" lon="4.10846">
        <ele>242.2</ele>
        <time>2019-08-20T10:21:31Z</time>
      </trkpt>
      <trkpt lat="46.452" lon="4.10841">
        <ele>242.2</ele>
        <time>2019-08-20T10:21:32Z</time>
      </trkpt>
      <trkpt lat="46.45202" lon="4.10836">
        <ele>242.3</ele>
        <time>2019-08-20T10:21:33Z</time>
      </trkpt>
      <trkpt lat="46.45204" lon="4.10832">
        <ele>242.3</ele>
        <time>2019-08-20T10:21:34Z</time>
      </trkpt>
      <trkpt lat="46.45206" lon="4.10826">
        <ele>242.3</ele>
        <time>2019-08-20T10:21:35Z</time>
      </trkpt>
      <trkpt lat="46.45209" lon="4.10821">
        <ele>242.3</ele>
        <time>2019-08-20T10:21:36Z</time>
      </trkpt>
      <trkpt lat="46.45211" lon="4.10816">
        <ele>242.4</ele>
        <time>2019-08-20T10:21:37Z</time>
      </trkpt>
      <trkpt lat="46.45214" lon="4.10812">
        <ele>242.4</ele>
        <time>2019-08-20T10:21:38Z</time>
      </trkpt>
      <trkpt lat="46.45216" lon="4.10808">
        <ele>242.4</ele>
        <time>2019-08-20T10:21:39Z</time>
      </trkpt>
      <trkpt lat="46.45219" lon="4.10802">
        <ele>242.5</ele>
        <time>2019-08-20T10:21:40Z</time>
      </trkpt>
      <trkpt lat="46.45222" lon="4.10797">
        <ele>242.5</ele>
        <time>2019-08-20T10:21:41Z</time>
      </trkpt>
      <trkpt lat="46.45224" lon="4.10793">
        <ele>242.5</ele>
        <time>2019-08-20T10:21:42Z</time>
      </trkpt>
      <trkpt lat="46.45226" lon="4.10788">
        <ele>242.5</ele>
        <time>2019-08-20T10:21:43Z</time>
      </trkpt>
      <trkpt lat="46.45229" lon="4.10782">
        <ele>242.6</ele>
        <time>2019-08-20T10:21:44Z</time>
      </trkpt>
      <trkpt lat="46.45231" lon="4.10778">
        <ele>242.6</ele>
        <time>2019-08-20T10:21:45Z</time>
      </trkpt>
      <trkpt lat="46.45233" lon="4.10773">
        <ele>242.6</ele>
        <time>2019-08-20T10:21:46Z</time>
      </trkpt>
      <trkpt lat="46.45235" lon="4.10769">
        <ele>242.6</ele>
        <time>2019-08-20T10:21:47Z</time>
      </trkpt>
      <trkpt lat="46.45237" lon="4.10762">
        <ele>242.6</ele>
        <time>2019-08-20T10:21:48Z</time>
      </trkpt>
      <trkpt lat="46.45239" lon="4.10757">
        <ele>242.6</ele>
        <time>2019-08-20T10:21:49Z</time>
      </trkpt>
      <trkpt lat="46.4524" lon="4.10751">
        <ele>242.6</ele>
        <time>2019-08-20T10:21:50Z</time>
      </trkpt>
      <trkpt lat="46.45243" lon="4.10745">
        <ele>242.6</ele>
        <time>2019-08-20T10:21:51Z</time>
      </trkpt>
      <trkpt lat="46.45244" lon="4.10739">
        <ele>242.6</ele>
        <time>2019-08-20T10:21:52Z</time>
      </trkpt>
      <trkpt lat="46.45247" lon="4.10735">
        <ele>242.6</ele>
        <time>2019-08-20T10:21:53Z</time>
      </trkpt>
      <trkpt lat="46.45249" lon="4.10731">
        <ele>242.6</ele>
        <time>2019-08-20T10:21:54Z</time>
      </trkpt>
      <trkpt lat="46.45251" lon="4.10727">
        <ele>242.6</ele>
        <time>2019-08-20T10:21:55Z</time>
      </trkpt>
      <trkpt lat="46.45253" lon="4.10723">
        <ele>242.6</ele>
        <time>2019-08-20T10:21:56Z</time>
      </trkpt>
      <trkpt lat="46.45255" lon="4.10718">
        <ele>242.6</ele>
        <time>2019-08-20T10:21:57Z</time>
      </trkpt>
      <trkpt lat="46.45257" lon="4.10713">
        <ele>242.6</ele>
        <time>2019-08-20T10:21:58Z</time>
      </trkpt>
      <trkpt lat="46.45259" lon="4.10708">
        <ele>242.6</ele>
        <time>2019-08-20T10:21:59Z</time>
      </trkpt>
      <trkpt lat="46.45261" lon="4.10702">
        <ele>242.6</ele>
        <time>2019-08-20T10:22:00Z</time>
      </trkpt>
      <trkpt lat="46.45263" lon="4.10697">
        <ele>242.6</ele>
        <time>2019-08-20T10:22:01Z</time>
      </trkpt>
      <trkpt lat="46.45265" lon="4.10692">
        <ele>242.6</ele>
        <time>2019-08-20T10:22:02Z</time>
      </trkpt>
      <trkpt lat="46.45267" lon="4.10687">
        <ele>242.6</ele>
        <time>2019-08-20T10:22:03Z</time>
      </trkpt>
      <trkpt lat="46.45269" lon="4.10682">
        <ele>242.6</ele>
        <time>2019-08-20T10:22:04Z</time>
      </trkpt>
      <trkpt lat="46.45272" lon="4.10677">
        <ele>242.6</ele>
        <time>2019-08-20T10:22:05Z</time>
      </trkpt>
      <trkpt lat="46.45274" lon="4.10672">
        <ele>242.5</ele>
        <time>2019-08-20T10:22:06Z</time>
      </trkpt>
      <trkpt lat="46.45277" lon="4.10666">
        <ele>242.5</ele>
        <time>2019-08-20T10:22:07Z</time>
      </trkpt>
      <trkpt lat="46.4528" lon="4.10661">
        <ele>242.5</ele>
        <time>2019-08-20T10:22:08Z</time>
      </trkpt>
      <trkpt lat="46.45283" lon="4.10655">
        <ele>242.5</ele>
        <time>2019-08-20T10:22:09Z</time>
      </trkpt>
      <trkpt lat="46.45286" lon="4.1065">
        <ele>242.4</ele>
        <time>2019-08-20T10:22:10Z</time>
      </trkpt>
      <trkpt lat="46.45289" lon="4.10645">
        <ele>242.4</ele>
        <time>2019-08-20T10:22:11Z</time>
      </trkpt>
      <trkpt lat="46.45292" lon="4.1064">
        <ele>242.4</ele>
        <time>2019-08-20T10:22:12Z</time>
      </trkpt>
      <trkpt lat="46.45295" lon="4.10633">
        <ele>242.4</ele>
        <time>2019-08-20T10:22:13Z</time>
      </trkpt>
      <trkpt lat="46.45297" lon="4.10627">
        <ele>242.4</ele>
        <time>2019-08-20T10:22:14Z</time>
      </trkpt>
      <trkpt lat="46.45299" lon="4.10622">
        <ele>242.3</ele>
        <time>2019-08-20T10:22:15Z</time>
      </trkpt>
      <trkpt lat="46.45302" lon="4.10616">
        <ele>242.3</ele>
        <time>2019-08-20T10:22:16Z</time>
      </trkpt>
      <trkpt lat="46.45304" lon="4.1061">
        <ele>242.3</ele>
        <time>2019-08-20T10:22:17Z</time>
      </trkpt>
      <trkpt lat="46.45307" lon="4.10604">
        <ele>242.3</ele>
        <time>2019-08-20T10:22:18Z</time>
      </trkpt>
      <trkpt lat="46.45309" lon="4.106">
        <ele>242.3</ele>
        <time>2019-08-20T10:22:19Z</time>
      </trkpt>
      <trkpt lat="46.45312" lon="4.10592">
        <ele>242.3</ele>
        <time>2019-08-20T10:22:20Z</time>
      </trkpt>
      <trkpt lat="46.45315" lon="4.10587">
        <ele>242.2</ele>
        <time>2019-08-20T10:22:21Z</time>
      </trkpt>
      <trkpt lat="46.45317" lon="4.10582">
        <ele>242.2</ele>
        <time>2019-08-20T10:22:22Z</time>
      </trkpt>
      <trkpt lat="46.4532" lon="4.10578">
        <ele>242.3</ele>
        <time>2019-08-20T10:22:23Z</time>
      </trkpt>
      <trkpt lat="46.45323" lon="4.10574">
        <ele>242.3</ele>
        <time>2019-08-20T10:22:24Z</time>
      </trkpt>
      <trkpt lat="46.45325" lon="4.10568">
        <ele>242.3</ele>
        <time>2019-08-20T10:22:25Z</time>
      </trkpt>
      <trkpt lat="46.45328" lon="4.10564">
        <ele>242.3</ele>
        <time>2019-08-20T10:22:26Z</time>
      </trkpt>
      <trkpt lat="46.4533" lon="4.10558">
        <ele>242.4</ele>
        <time>2019-08-20T10:22:27Z</time>
      </trkpt>
      <trkpt lat="46.45333" lon="4.10551">
        <ele>242.4</ele>
        <time>2019-08-20T10:22:28Z</time>
      </trkpt>
      <trkpt lat="46.45335" lon="4.10545">
        <ele>242.4</ele>
        <time>2019-08-20T10:22:29Z</time>
      </trkpt>
      <trkpt lat="46.45338" lon="4.10539">
        <ele>242.5</ele>
        <time>2019-08-20T10:22:30Z</time>
      </trkpt>
      <trkpt lat="46.45341" lon="4.10533">
        <ele>242.5</ele>
        <time>2019-08-20T10:22:31Z</time>
      </trkpt>
      <trkpt lat="46.45344" lon="4.10528">
        <ele>242.6</ele>
        <time>2019-08-20T10:22:32Z</time>
      </trkpt>
      <trkpt lat="46.45346" lon="4.10523">
        <ele>242.6</ele>
        <time>2019-08-20T10:22:33Z</time>
      </trkpt>
      <trkpt lat="46.45349" lon="4.10517">
        <ele>242.6</ele>
        <time>2019-08-20T10:22:34Z</time>
      </trkpt>
      <trkpt lat="46.45352" lon="4.10511">
        <ele>242.6</ele>
        <time>2019-08-20T10:22:35Z</time>
      </trkpt>
      <trkpt lat="46.45354" lon="4.10505">
        <ele>242.7</ele>
        <time>2019-08-20T10:22:36Z</time>
      </trkpt>
      <trkpt lat="46.45357" lon="4.105">
        <ele>242.7</ele>
        <time>2019-08-20T10:22:37Z</time>
      </trkpt>
      <trkpt lat="46.4536" lon="4.10494">
        <ele>242.7</ele>
        <time>2019-08-20T10:22:38Z</time>
      </trkpt>
      <trkpt lat="46.45363" lon="4.10489">
        <ele>242.7</ele>
        <time>2019-08-20T10:22:39Z</time>
      </trkpt>
      <trkpt lat="46.45365" lon="4.10483">
        <ele>242.8</ele>
        <time>2019-08-20T10:22:40Z</time>
      </trkpt>
      <trkpt lat="46.45368" lon="4.10477">
        <ele>242.8</ele>
        <time>2019-08-20T10:22:41Z</time>
      </trkpt>
      <trkpt lat="46.45371" lon="4.10472">
        <ele>242.8</ele>
        <time>2019-08-20T10:22:42Z</time>
      </trkpt>
      <trkpt lat="46.45374" lon="4.10466">
        <ele>242.8</ele>
        <time>2019-08-20T10:22:43Z</time>
      </trkpt>
      <trkpt lat="46.45377" lon="4.1046">
        <ele>242.8</ele>
        <time>2019-08-20T10:22:44Z</time>
      </trkpt>
      <trkpt lat="46.45379" lon="4.10454">
        <ele>242.8</ele>
        <time>2019-08-20T10:22:45Z</time>
      </trkpt>
      <trkpt lat="46.45382" lon="4.10447">
        <ele>242.8</ele>
        <time>2019-08-20T10:22:46Z</time>
      </trkpt>
      <trkpt lat="46.45385" lon="4.10442">
        <ele>242.8</ele>
        <time>2019-08-20T10:22:47Z</time>
      </trkpt>
      <trkpt lat="46.45387" lon="4.10436">
        <ele>242.9</ele>
        <time>2019-08-20T10:22:48Z</time>
      </trkpt>
      <trkpt lat="46.45389" lon="4.10431">
        <ele>242.9</ele>
        <time>2019-08-20T10:22:49Z</time>
      </trkpt>
      <trkpt lat="46.45391" lon="4.10426">
        <ele>242.9</ele>
        <time>2019-08-20T10:22:50Z</time>
      </trkpt>
      <trkpt lat="46.45394" lon="4.1042">
        <ele>242.9</ele>
        <time>2019-08-20T10:22:51Z</time>
      </trkpt>
      <trkpt lat="46.45397" lon="4.10415">
        <ele>243</ele>
        <time>2019-08-20T10:22:52Z</time>
      </trkpt>
      <trkpt lat="46.45399" lon="4.10409">
        <ele>243</ele>
        <time>2019-08-20T10:22:53Z</time>
      </trkpt>
      <trkpt lat="46.45402" lon="4.10403">
        <ele>243</ele>
        <time>2019-08-20T10:22:54Z</time>
      </trkpt>
      <trkpt lat="46.45404" lon="4.10398">
        <ele>243</ele>
        <time>2019-08-20T10:22:55Z</time>
      </trkpt>
      <trkpt lat="46.45406" lon="4.10393">
        <ele>243</ele>
        <time>2019-08-20T10:22:56Z</time>
      </trkpt>
      <trkpt lat="46.45409" lon="4.10387">
        <ele>243</ele>
        <time>2019-08-20T10:22:57Z</time>
      </trkpt>
      <trkpt lat="46.45412" lon="4.10381">
        <ele>243</ele>
        <time>2019-08-20T10:22:58Z</time>
      </trkpt>
      <trkpt lat="46.45415" lon="4.10375">
        <ele>243</ele>
        <time>2019-08-20T10:22:59Z</time>
      </trkpt>
      <trkpt lat="46.45416" lon="4.10368">
        <ele>243</ele>
        <time>2019-08-20T10:23:00Z</time>
      </trkpt>
      <trkpt lat="46.45419" lon="4.10363">
        <ele>243</ele>
        <time>2019-08-20T10:23:01Z</time>
      </trkpt>
      <trkpt lat="46.45421" lon="4.10356">
        <ele>243</ele>
        <time>2019-08-20T10:23:02Z</time>
      </trkpt>
      <trkpt lat="46.45423" lon="4.10351">
        <ele>243</ele>
        <time>2019-08-20T10:23:03Z</time>
      </trkpt>
      <trkpt lat="46.45424" lon="4.10346">
        <ele>243</ele>
        <time>2019-08-20T10:23:04Z</time>
      </trkpt>
      <trkpt lat="46.45427" lon="4.10341">
        <ele>243</ele>
        <time>2019-08-20T10:23:05Z</time>
      </trkpt>
      <trkpt lat="46.45429" lon="4.10336">
        <ele>243.1</ele>
        <time>2019-08-20T10:23:06Z</time>
      </trkpt>
      <trkpt lat="46.45432" lon="4.10331">
        <ele>243.1</ele>
        <time>2019-08-20T10:23:07Z</time>
      </trkpt>
      <trkpt lat="46.45435" lon="4.10324">
        <ele>243.1</ele>
        <time>2019-08-20T10:23:08Z</time>
      </trkpt>
      <trkpt lat="46.45438" lon="4.10319">
        <ele>243.1</ele>
        <time>2019-08-20T10:23:09Z</time>
      </trkpt>
      <trkpt lat="46.45441" lon="4.10314">
        <ele>243.2</ele>
        <time>2019-08-20T10:23:10Z</time>
      </trkpt>
      <trkpt lat="46.45443" lon="4.10308">
        <ele>243.2</ele>
        <time>2019-08-20T10:23:11Z</time>
      </trkpt>
      <trkpt lat="46.45445" lon="4.10303">
        <ele>243.2</ele>
        <time>2019-08-20T10:23:12Z</time>
      </trkpt>
      <trkpt lat="46.45448" lon="4.10298">
        <ele>243.2</ele>
        <time>2019-08-20T10:23:13Z</time>
      </trkpt>
      <trkpt lat="46.4545" lon="4.10292">
        <ele>243.2</ele>
        <time>2019-08-20T10:23:14Z</time>
      </trkpt>
      <trkpt lat="46.45453" lon="4.10286">
        <ele>243.2</ele>
        <time>2019-08-20T10:23:15Z</time>
      </trkpt>
      <trkpt lat="46.45455" lon="4.1028">
        <ele>243.2</ele>
        <time>2019-08-20T10:23:16Z</time>
      </trkpt>
      <trkpt lat="46.45458" lon="4.10275">
        <ele>243.2</ele>
        <time>2019-08-20T10:23:17Z</time>
      </trkpt>
      <trkpt lat="46.4546" lon="4.10267">
        <ele>243.2</ele>
        <time>2019-08-20T10:23:18Z</time>
      </trkpt>
      <trkpt lat="46.45463" lon="4.10261">
        <ele>243.2</ele>
        <time>2019-08-20T10:23:19Z</time>
      </trkpt>
      <trkpt lat="46.45466" lon="4.10255">
        <ele>243.2</ele>
        <time>2019-08-20T10:23:20Z</time>
      </trkpt>
      <trkpt lat="46.45468" lon="4.10249">
        <ele>243.2</ele>
        <time>2019-08-20T10:23:21Z</time>
      </trkpt>
      <trkpt lat="46.45471" lon="4.10244">
        <ele>243.2</ele>
        <time>2019-08-20T10:23:22Z</time>
      </trkpt>
      <trkpt lat="46.45474" lon="4.10238">
        <ele>243.2</ele>
        <time>2019-08-20T10:23:23Z</time>
      </trkpt>
      <trkpt lat="46.45476" lon="4.10233">
        <ele>243.2</ele>
        <time>2019-08-20T10:23:24Z</time>
      </trkpt>
      <trkpt lat="46.45479" lon="4.10228">
        <ele>243.2</ele>
        <time>2019-08-20T10:23:25Z</time>
      </trkpt>
      <trkpt lat="46.45482" lon="4.10223">
        <ele>243.2</ele>
        <time>2019-08-20T10:23:26Z</time>
      </trkpt>
      <trkpt lat="46.45483" lon="4.1022">
        <ele>243.1</ele>
        <time>2019-08-20T10:23:27Z</time>
      </trkpt>
      <trkpt lat="46.45487" lon="4.10214">
        <ele>243.1</ele>
        <time>2019-08-20T10:23:28Z</time>
      </trkpt>
      <trkpt lat="46.45491" lon="4.10209">
        <ele>243.1</ele>
        <time>2019-08-20T10:23:29Z</time>
      </trkpt>
      <trkpt lat="46.45494" lon="4.10205">
        <ele>243.1</ele>
        <time>2019-08-20T10:23:30Z</time>
      </trkpt>
      <trkpt lat="46.45497" lon="4.102">
        <ele>243.2</ele>
        <time>2019-08-20T10:23:31Z</time>
      </trkpt>
      <trkpt lat="46.45501" lon="4.10195">
        <ele>243.2</ele>
        <time>2019-08-20T10:23:32Z</time>
      </trkpt>
      <trkpt lat="46.45504" lon="4.1019">
        <ele>243.2</ele>
        <time>2019-08-20T10:23:33Z</time>
      </trkpt>
      <trkpt lat="46.45507" lon="4.10186">
        <ele>243.2</ele>
        <time>2019-08-20T10:23:34Z</time>
      </trkpt>
      <trkpt lat="46.4551" lon="4.10181">
        <ele>243.2</ele>
        <time>2019-08-20T10:23:35Z</time>
      </trkpt>
      <trkpt lat="46.45514" lon="4.10176">
        <ele>243.2</ele>
        <time>2019-08-20T10:23:36Z</time>
      </trkpt>
      <trkpt lat="46.45517" lon="4.1017">
        <ele>243.2</ele>
        <time>2019-08-20T10:23:37Z</time>
      </trkpt>
      <trkpt lat="46.45521" lon="4.10166">
        <ele>243.2</ele>
        <time>2019-08-20T10:23:38Z</time>
      </trkpt>
      <trkpt lat="46.45525" lon="4.10162">
        <ele>243.2</ele>
        <time>2019-08-20T10:23:39Z</time>
      </trkpt>
      <trkpt lat="46.45528" lon="4.10157">
        <ele>243.2</ele>
        <time>2019-08-20T10:23:40Z</time>
      </trkpt>
      <trkpt lat="46.4553" lon="4.10153">
        <ele>243.2</ele>
        <time>2019-08-20T10:23:41Z</time>
      </trkpt>
      <trkpt lat="46.45533" lon="4.10149">
        <ele>243.1</ele>
        <time>2019-08-20T10:23:42Z</time>
      </trkpt>
      <trkpt lat="46.45535" lon="4.10145">
        <ele>243.1</ele>
        <time>2019-08-20T10:23:43Z</time>
      </trkpt>
      <trkpt lat="46.45537" lon="4.1014">
        <ele>243.1</ele>
        <time>2019-08-20T10:23:44Z</time>
      </trkpt>
      <trkpt lat="46.4554" lon="4.10135">
        <ele>243</ele>
        <time>2019-08-20T10:23:45Z</time>
      </trkpt>
      <trkpt lat="46.45542" lon="4.10131">
        <ele>243</ele>
        <time>2019-08-20T10:23:46Z</time>
      </trkpt>
      <trkpt lat="46.45545" lon="4.10125">
        <ele>242.9</ele>
        <time>2019-08-20T10:23:47Z</time>
      </trkpt>
      <trkpt lat="46.45547" lon="4.10121">
        <ele>242.8</ele>
        <time>2019-08-20T10:23:48Z</time>
      </trkpt>
      <trkpt lat="46.4555" lon="4.10115">
        <ele>242.8</ele>
        <time>2019-08-20T10:23:49Z</time>
      </trkpt>
      <trkpt lat="46.45552" lon="4.10111">
        <ele>242.7</ele>
        <time>2019-08-20T10:23:50Z</time>
      </trkpt>
      <trkpt lat="46.45555" lon="4.10109">
        <ele>242.7</ele>
        <time>2019-08-20T10:23:51Z</time>
      </trkpt>
      <trkpt lat="46.45557" lon="4.10105">
        <ele>242.6</ele>
        <time>2019-08-20T10:23:52Z</time>
      </trkpt>
      <trkpt lat="46.45561" lon="4.10103">
        <ele>242.5</ele>
        <time>2019-08-20T10:23:53Z</time>
      </trkpt>
      <trkpt lat="46.45564" lon="4.101">
        <ele>242.5</ele>
        <time>2019-08-20T10:23:54Z</time>
      </trkpt>
      <trkpt lat="46.45568" lon="4.10097">
        <ele>242.4</ele>
        <time>2019-08-20T10:23:55Z</time>
      </trkpt>
      <trkpt lat="46.45571" lon="4.10094">
        <ele>242.3</ele>
        <time>2019-08-20T10:23:56Z</time>
      </trkpt>
      <trkpt lat="46.45574" lon="4.10091">
        <ele>242.3</ele>
        <time>2019-08-20T10:23:57Z</time>
      </trkpt>
      <trkpt lat="46.45578" lon="4.10089">
        <ele>242.3</ele>
        <time>2019-08-20T10:23:58Z</time>
      </trkpt>
      <trkpt lat="46.45583" lon="4.10086">
        <ele>242.4</ele>
        <time>2019-08-20T10:23:59Z</time>
      </trkpt>
      <trkpt lat="46.45586" lon="4.10082">
        <ele>242.4</ele>
        <time>2019-08-20T10:24:00Z</time>
      </trkpt>
      <trkpt lat="46.45589" lon="4.1008">
        <ele>242.5</ele>
        <time>2019-08-20T10:24:01Z</time>
      </trkpt>
      <trkpt lat="46.45593" lon="4.10076">
        <ele>242.6</ele>
        <time>2019-08-20T10:24:02Z</time>
      </trkpt>
      <trkpt lat="46.45595" lon="4.10072">
        <ele>242.7</ele>
        <time>2019-08-20T10:24:03Z</time>
      </trkpt>
      <trkpt lat="46.45597" lon="4.10066">
        <ele>242.7</ele>
        <time>2019-08-20T10:24:04Z</time>
      </trkpt>
      <trkpt lat="46.456" lon="4.10061">
        <ele>242.7</ele>
        <time>2019-08-20T10:24:05Z</time>
      </trkpt>
      <trkpt lat="46.45602" lon="4.10057">
        <ele>242.7</ele>
        <time>2019-08-20T10:24:06Z</time>
      </trkpt>
      <trkpt lat="46.45606" lon="4.10051">
        <ele>242.7</ele>
        <time>2019-08-20T10:24:07Z</time>
      </trkpt>
      <trkpt lat="46.45609" lon="4.10047">
        <ele>242.7</ele>
        <time>2019-08-20T10:24:08Z</time>
      </trkpt>
      <trkpt lat="46.45613" lon="4.10042">
        <ele>242.7</ele>
        <time>2019-08-20T10:24:09Z</time>
      </trkpt>
      <trkpt lat="46.45616" lon="4.10038">
        <ele>242.7</ele>
        <time>2019-08-20T10:24:10Z</time>
      </trkpt>
      <trkpt lat="46.45619" lon="4.10033">
        <ele>242.7</ele>
        <time>2019-08-20T10:24:11Z</time>
      </trkpt>
      <trkpt lat="46.45622" lon="4.10029">
        <ele>242.7</ele>
        <time>2019-08-20T10:24:12Z</time>
      </trkpt>
      <trkpt lat="46.45625" lon="4.10025">
        <ele>242.8</ele>
        <time>2019-08-20T10:24:13Z</time>
      </trkpt>
      <trkpt lat="46.45627" lon="4.10021">
        <ele>242.8</ele>
        <time>2019-08-20T10:24:14Z</time>
      </trkpt>
      <trkpt lat="46.4563" lon="4.10016">
        <ele>242.8</ele>
        <time>2019-08-20T10:24:15Z</time>
      </trkpt>
      <trkpt lat="46.45633" lon="4.10012">
        <ele>242.9</ele>
        <time>2019-08-20T10:24:16Z</time>
      </trkpt>
      <trkpt lat="46.45636" lon="4.10008">
        <ele>242.9</ele>
        <time>2019-08-20T10:24:17Z</time>
      </trkpt>
      <trkpt lat="46.4564" lon="4.10003">
        <ele>242.9</ele>
        <time>2019-08-20T10:24:18Z</time>
      </trkpt>
      <trkpt lat="46.45643" lon="4.09999">
        <ele>243</ele>
        <time>2019-08-20T10:24:19Z</time>
      </trkpt>
      <trkpt lat="46.45646" lon="4.09996">
        <ele>243</ele>
        <time>2019-08-20T10:24:20Z</time>
      </trkpt>
      <trkpt lat="46.4565" lon="4.09992">
        <ele>243</ele>
        <time>2019-08-20T10:24:21Z</time>
      </trkpt>
      <trkpt lat="46.45653" lon="4.09988">
        <ele>243</ele>
        <time>2019-08-20T10:24:22Z</time>
      </trkpt>
      <trkpt lat="46.45656" lon="4.09984">
        <ele>243.1</ele>
        <time>2019-08-20T10:24:23Z</time>
      </trkpt>
      <trkpt lat="46.45658" lon="4.0998">
        <ele>243.1</ele>
        <time>2019-08-20T10:24:24Z</time>
      </trkpt>
      <trkpt lat="46.45661" lon="4.09975">
        <ele>243.1</ele>
        <time>2019-08-20T10:24:25Z</time>
      </trkpt>
      <trkpt lat="46.45664" lon="4.0997">
        <ele>243.1</ele>
        <time>2019-08-20T10:24:26Z</time>
      </trkpt>
      <trkpt lat="46.45666" lon="4.09966">
        <ele>243.1</ele>
        <time>2019-08-20T10:24:27Z</time>
      </trkpt>
      <trkpt lat="46.45669" lon="4.09961">
        <ele>243.1</ele>
        <time>2019-08-20T10:24:28Z</time>
      </trkpt>
      <trkpt lat="46.45672" lon="4.09956">
        <ele>243.1</ele>
        <time>2019-08-20T10:24:29Z</time>
      </trkpt>
      <trkpt lat="46.45675" lon="4.0995">
        <ele>243.1</ele>
        <time>2019-08-20T10:24:30Z</time>
      </trkpt>
      <trkpt lat="46.45679" lon="4.09944">
        <ele>243.1</ele>
        <time>2019-08-20T10:24:31Z</time>
      </trkpt>
      <trkpt lat="46.45682" lon="4.09938">
        <ele>243</ele>
        <time>2019-08-20T10:24:32Z</time>
      </trkpt>
      <trkpt lat="46.45685" lon="4.09933">
        <ele>243</ele>
        <time>2019-08-20T10:24:33Z</time>
      </trkpt>
      <trkpt lat="46.45689" lon="4.09928">
        <ele>243</ele>
        <time>2019-08-20T10:24:34Z</time>
      </trkpt>
      <trkpt lat="46.45692" lon="4.09923">
        <ele>243</ele>
        <time>2019-08-20T10:24:35Z</time>
      </trkpt>
      <trkpt lat="46.45696" lon="4.09918">
        <ele>242.9</ele>
        <time>2019-08-20T10:24:36Z</time>
      </trkpt>
      <trkpt lat="46.457" lon="4.09912">
        <ele>242.9</ele>
        <time>2019-08-20T10:24:37Z</time>
      </trkpt>
      <trkpt lat="46.45703" lon="4.09908">
        <ele>242.9</ele>
        <time>2019-08-20T10:24:38Z</time>
      </trkpt>
      <trkpt lat="46.45707" lon="4.09902">
        <ele>242.9</ele>
        <time>2019-08-20T10:24:39Z</time>
      </trkpt>
      <trkpt lat="46.4571" lon="4.09896">
        <ele>242.8</ele>
        <time>2019-08-20T10:24:40Z</time>
      </trkpt>
      <trkpt lat="46.45713" lon="4.09891">
        <ele>242.8</ele>
        <time>2019-08-20T10:24:41Z</time>
      </trkpt>
      <trkpt lat="46.45716" lon="4.09886">
        <ele>242.8</ele>
        <time>2019-08-20T10:24:42Z</time>
      </trkpt>
      <trkpt lat="46.45719" lon="4.0988">
        <ele>242.8</ele>
        <time>2019-08-20T10:24:43Z</time>
      </trkpt>
      <trkpt lat="46.45723" lon="4.09876">
        <ele>242.7</ele>
        <time>2019-08-20T10:24:44Z</time>
      </trkpt>
      <trkpt lat="46.45726" lon="4.09871">
        <ele>242.7</ele>
        <time>2019-08-20T10:24:45Z</time>
      </trkpt>
      <trkpt lat="46.4573" lon="4.09867">
        <ele>242.7</ele>
        <time>2019-08-20T10:24:46Z</time>
      </trkpt>
      <trkpt lat="46.45734" lon="4.09862">
        <ele>242.6</ele>
        <time>2019-08-20T10:24:47Z</time>
      </trkpt>
      <trkpt lat="46.45739" lon="4.09857">
        <ele>242.6</ele>
        <time>2019-08-20T10:24:48Z</time>
      </trkpt>
      <trkpt lat="46.45743" lon="4.09852">
        <ele>242.5</ele>
        <time>2019-08-20T10:24:49Z</time>
      </trkpt>
      <trkpt lat="46.45747" lon="4.09848">
        <ele>242.4</ele>
        <time>2019-08-20T10:24:50Z</time>
      </trkpt>
      <trkpt lat="46.45751" lon="4.09843">
        <ele>242.4</ele>
        <time>2019-08-20T10:24:51Z</time>
      </trkpt>
      <trkpt lat="46.45755" lon="4.09839">
        <ele>242.3</ele>
        <time>2019-08-20T10:24:52Z</time>
      </trkpt>
      <trkpt lat="46.4576" lon="4.09836">
        <ele>242.2</ele>
        <time>2019-08-20T10:24:53Z</time>
      </trkpt>
      <trkpt lat="46.45764" lon="4.09832">
        <ele>242.2</ele>
        <time>2019-08-20T10:24:54Z</time>
      </trkpt>
      <trkpt lat="46.45769" lon="4.09829">
        <ele>242.1</ele>
        <time>2019-08-20T10:24:55Z</time>
      </trkpt>
      <trkpt lat="46.45773" lon="4.09828">
        <ele>242.1</ele>
        <time>2019-08-20T10:24:56Z</time>
      </trkpt>
      <trkpt lat="46.45777" lon="4.09824">
        <ele>242</ele>
        <time>2019-08-20T10:24:57Z</time>
      </trkpt>
      <trkpt lat="46.45782" lon="4.0982">
        <ele>242</ele>
        <time>2019-08-20T10:24:58Z</time>
      </trkpt>
      <trkpt lat="46.45786" lon="4.09817">
        <ele>242</ele>
        <time>2019-08-20T10:24:59Z</time>
      </trkpt>
      <trkpt lat="46.4579" lon="4.09813">
        <ele>241.9</ele>
        <time>2019-08-20T10:25:00Z</time>
      </trkpt>
      <trkpt lat="46.45796" lon="4.0981">
        <ele>241.9</ele>
        <time>2019-08-20T10:25:01Z</time>
      </trkpt>
      <trkpt lat="46.458" lon="4.09807">
        <ele>241.9</ele>
        <time>2019-08-20T10:25:02Z</time>
      </trkpt>
      <trkpt lat="46.45804" lon="4.09804">
        <ele>241.9</ele>
        <time>2019-08-20T10:25:03Z</time>
      </trkpt>
      <trkpt lat="46.45808" lon="4.09801">
        <ele>241.9</ele>
        <time>2019-08-20T10:25:04Z</time>
      </trkpt>
      <trkpt lat="46.45813" lon="4.09798">
        <ele>241.9</ele>
        <time>2019-08-20T10:25:05Z</time>
      </trkpt>
      <trkpt lat="46.45817" lon="4.09795">
        <ele>242</ele>
        <time>2019-08-20T10:25:06Z</time>
      </trkpt>
      <trkpt lat="46.45821" lon="4.09793">
        <ele>242</ele>
        <time>2019-08-20T10:25:07Z</time>
      </trkpt>
      <trkpt lat="46.45824" lon="4.09791">
        <ele>242</ele>
        <time>2019-08-20T10:25:08Z</time>
      </trkpt>
      <trkpt lat="46.4583" lon="4.09787">
        <ele>242</ele>
        <time>2019-08-20T10:25:09Z</time>
      </trkpt>
      <trkpt lat="46.45835" lon="4.09784">
        <ele>242</ele>
        <time>2019-08-20T10:25:10Z</time>
      </trkpt>
      <trkpt lat="46.4584" lon="4.09781">
        <ele>242</ele>
        <time>2019-08-20T10:25:11Z</time>
      </trkpt>
      <trkpt lat="46.45845" lon="4.09779">
        <ele>242</ele>
        <time>2019-08-20T10:25:12Z</time>
      </trkpt>
      <trkpt lat="46.4585" lon="4.09777">
        <ele>241.9</ele>
        <time>2019-08-20T10:25:13Z</time>
      </trkpt>
      <trkpt lat="46.45854" lon="4.09774">
        <ele>241.9</ele>
        <time>2019-08-20T10:25:14Z</time>
      </trkpt>
      <trkpt lat="46.45858" lon="4.09772">
        <ele>241.9</ele>
        <time>2019-08-20T10:25:15Z</time>
      </trkpt>
      <trkpt lat="46.45863" lon="4.0977">
        <ele>241.9</ele>
        <time>2019-08-20T10:25:16Z</time>
      </trkpt>
      <trkpt lat="46.45867" lon="4.09768">
        <ele>241.8</ele>
        <time>2019-08-20T10:25:17Z</time>
      </trkpt>
      <trkpt lat="46.45872" lon="4.09766">
        <ele>241.8</ele>
        <time>2019-08-20T10:25:18Z</time>
      </trkpt>
      <trkpt lat="46.45876" lon="4.09763">
        <ele>241.7</ele>
        <time>2019-08-20T10:25:19Z</time>
      </trkpt>
      <trkpt lat="46.45881" lon="4.09762">
        <ele>241.6</ele>
        <time>2019-08-20T10:25:20Z</time>
      </trkpt>
      <trkpt lat="46.45886" lon="4.0976">
        <ele>241.5</ele>
        <time>2019-08-20T10:25:21Z</time>
      </trkpt>
      <trkpt lat="46.45891" lon="4.09758">
        <ele>241.4</ele>
        <time>2019-08-20T10:25:22Z</time>
      </trkpt>
      <trkpt lat="46.45896" lon="4.09755">
        <ele>241.3</ele>
        <time>2019-08-20T10:25:23Z</time>
      </trkpt>
      <trkpt lat="46.45902" lon="4.09753">
        <ele>241.1</ele>
        <time>2019-08-20T10:25:24Z</time>
      </trkpt>
      <trkpt lat="46.45907" lon="4.09751">
        <ele>241</ele>
        <time>2019-08-20T10:25:25Z</time>
      </trkpt>
      <trkpt lat="46.45913" lon="4.09748">
        <ele>240.8</ele>
        <time>2019-08-20T10:25:26Z</time>
      </trkpt>
      <trkpt lat="46.45918" lon="4.09745">
        <ele>240.6</ele>
        <time>2019-08-20T10:25:27Z</time>
      </trkpt>
      <trkpt lat="46.45923" lon="4.09741">
        <ele>240.5</ele>
        <time>2019-08-20T10:25:28Z</time>
      </trkpt>
      <trkpt lat="46.45929" lon="4.09738">
        <ele>240.3</ele>
        <time>2019-08-20T10:25:29Z</time>
      </trkpt>
      <trkpt lat="46.45934" lon="4.09735">
        <ele>240.2</ele>
        <time>2019-08-20T10:25:30Z</time>
      </trkpt>
      <trkpt lat="46.45939" lon="4.09732">
        <ele>240.1</ele>
        <time>2019-08-20T10:25:31Z</time>
      </trkpt>
      <trkpt lat="46.45944" lon="4.0973">
        <ele>240</ele>
        <time>2019-08-20T10:25:32Z</time>
      </trkpt>
      <trkpt lat="46.45949" lon="4.09726">
        <ele>239.9</ele>
        <time>2019-08-20T10:25:33Z</time>
      </trkpt>
      <trkpt lat="46.45953" lon="4.09723">
        <ele>239.9</ele>
        <time>2019-08-20T10:25:34Z</time>
      </trkpt>
      <trkpt lat="46.45957" lon="4.09719">
        <ele>239.9</ele>
        <time>2019-08-20T10:25:35Z</time>
      </trkpt>
      <trkpt lat="46.45961" lon="4.09716">
        <ele>239.8</ele>
        <time>2019-08-20T10:25:36Z</time>
      </trkpt>
      <trkpt lat="46.45965" lon="4.09711">
        <ele>239.9</ele>
        <time>2019-08-20T10:25:37Z</time>
      </trkpt>
      <trkpt lat="46.45969" lon="4.09706">
        <ele>239.9</ele>
        <time>2019-08-20T10:25:38Z</time>
      </trkpt>
      <trkpt lat="46.45974" lon="4.09701">
        <ele>239.9</ele>
        <time>2019-08-20T10:25:39Z</time>
      </trkpt>
      <trkpt lat="46.45978" lon="4.09696">
        <ele>239.9</ele>
        <time>2019-08-20T10:25:40Z</time>
      </trkpt>
      <trkpt lat="46.45981" lon="4.09691">
        <ele>239.9</ele>
        <time>2019-08-20T10:25:41Z</time>
      </trkpt>
      <trkpt lat="46.45985" lon="4.09687">
        <ele>240</ele>
        <time>2019-08-20T10:25:42Z</time>
      </trkpt>
      <trkpt lat="46.45988" lon="4.09682">
        <ele>240</ele>
        <time>2019-08-20T10:25:43Z</time>
      </trkpt>
      <trkpt lat="46.45992" lon="4.09677">
        <ele>240</ele>
        <time>2019-08-20T10:25:44Z</time>
      </trkpt>
      <trkpt lat="46.45996" lon="4.09672">
        <ele>240</ele>
        <time>2019-08-20T10:25:45Z</time>
      </trkpt>
      <trkpt lat="46.46" lon="4.09667">
        <ele>240.1</ele>
        <time>2019-08-20T10:25:46Z</time>
      </trkpt>
      <trkpt lat="46.46004" lon="4.09662">
        <ele>240.1</ele>
        <time>2019-08-20T10:25:47Z</time>
      </trkpt>
      <trkpt lat="46.46007" lon="4.09657">
        <ele>240.1</ele>
        <time>2019-08-20T10:25:48Z</time>
      </trkpt>
      <trkpt lat="46.4601" lon="4.09651">
        <ele>240.1</ele>
        <time>2019-08-20T10:25:49Z</time>
      </trkpt>
      <trkpt lat="46.46014" lon="4.09647">
        <ele>240.1</ele>
        <time>2019-08-20T10:25:50Z</time>
      </trkpt>
      <trkpt lat="46.46017" lon="4.09642">
        <ele>240.1</ele>
        <time>2019-08-20T10:25:51Z</time>
      </trkpt>
      <trkpt lat="46.4602" lon="4.09637">
        <ele>240.1</ele>
        <time>2019-08-20T10:25:52Z</time>
      </trkpt>
      <trkpt lat="46.46024" lon="4.09632">
        <ele>240.1</ele>
        <time>2019-08-20T10:25:53Z</time>
      </trkpt>
      <trkpt lat="46.46027" lon="4.09627">
        <ele>240.1</ele>
        <time>2019-08-20T10:25:54Z</time>
      </trkpt>
      <trkpt lat="46.46031" lon="4.09623">
        <ele>240.1</ele>
        <time>2019-08-20T10:25:55Z</time>
      </trkpt>
      <trkpt lat="46.46034" lon="4.09618">
        <ele>240.1</ele>
        <time>2019-08-20T10:25:56Z</time>
      </trkpt>
      <trkpt lat="46.46037" lon="4.09611">
        <ele>240.1</ele>
        <time>2019-08-20T10:25:57Z</time>
      </trkpt>
      <trkpt lat="46.4604" lon="4.09605">
        <ele>240.1</ele>
        <time>2019-08-20T10:25:58Z</time>
      </trkpt>
      <trkpt lat="46.46044" lon="4.096">
        <ele>240.1</ele>
        <time>2019-08-20T10:25:59Z</time>
      </trkpt>
      <trkpt lat="46.46047" lon="4.09595">
        <ele>240.1</ele>
        <time>2019-08-20T10:26:00Z</time>
      </trkpt>
      <trkpt lat="46.4605" lon="4.0959">
        <ele>240.1</ele>
        <time>2019-08-20T10:26:01Z</time>
      </trkpt>
      <trkpt lat="46.46053" lon="4.09585">
        <ele>240.1</ele>
        <time>2019-08-20T10:26:02Z</time>
      </trkpt>
      <trkpt lat="46.46056" lon="4.0958">
        <ele>240.1</ele>
        <time>2019-08-20T10:26:03Z</time>
      </trkpt>
      <trkpt lat="46.4606" lon="4.09575">
        <ele>240.1</ele>
        <time>2019-08-20T10:26:04Z</time>
      </trkpt>
      <trkpt lat="46.46063" lon="4.0957">
        <ele>240.1</ele>
        <time>2019-08-20T10:26:05Z</time>
      </trkpt>
      <trkpt lat="46.46067" lon="4.09565">
        <ele>240</ele>
        <time>2019-08-20T10:26:06Z</time>
      </trkpt>
      <trkpt lat="46.46071" lon="4.09561">
        <ele>240</ele>
        <time>2019-08-20T10:26:07Z</time>
      </trkpt>
      <trkpt lat="46.46075" lon="4.09555">
        <ele>240</ele>
        <time>2019-08-20T10:26:08Z</time>
      </trkpt>
      <trkpt lat="46.46079" lon="4.09549">
        <ele>240</ele>
        <time>2019-08-20T10:26:09Z</time>
      </trkpt>
      <trkpt lat="46.46083" lon="4.09543">
        <ele>239.9</ele>
        <time>2019-08-20T10:26:10Z</time>
      </trkpt>
      <trkpt lat="46.46086" lon="4.09537">
        <ele>239.9</ele>
        <time>2019-08-20T10:26:11Z</time>
      </trkpt>
      <trkpt lat="46.46089" lon="4.09532">
        <ele>239.9</ele>
        <time>2019-08-20T10:26:12Z</time>
      </trkpt>
      <trkpt lat="46.46092" lon="4.09527">
        <ele>239.8</ele>
        <time>2019-08-20T10:26:13Z</time>
      </trkpt>
      <trkpt lat="46.46095" lon="4.09521">
        <ele>239.8</ele>
        <time>2019-08-20T10:26:14Z</time>
      </trkpt>
      <trkpt lat="46.46098" lon="4.09516">
        <ele>239.8</ele>
        <time>2019-08-20T10:26:15Z</time>
      </trkpt>
      <trkpt lat="46.46102" lon="4.09511">
        <ele>239.8</ele>
        <time>2019-08-20T10:26:16Z</time>
      </trkpt>
      <trkpt lat="46.46105" lon="4.09505">
        <ele>239.7</ele>
        <time>2019-08-20T10:26:17Z</time>
      </trkpt>
      <trkpt lat="46.46108" lon="4.095">
        <ele>239.7</ele>
        <time>2019-08-20T10:26:18Z</time>
      </trkpt>
      <trkpt lat="46.46112" lon="4.09494">
        <ele>239.7</ele>
        <time>2019-08-20T10:26:19Z</time>
      </trkpt>
      <trkpt lat="46.46116" lon="4.0949">
        <ele>239.7</ele>
        <time>2019-08-20T10:26:20Z</time>
      </trkpt>
      <trkpt lat="46.46119" lon="4.09485">
        <ele>239.6</ele>
        <time>2019-08-20T10:26:21Z</time>
      </trkpt>
      <trkpt lat="46.46122" lon="4.0948">
        <ele>239.6</ele>
        <time>2019-08-20T10:26:22Z</time>
      </trkpt>
      <trkpt lat="46.46126" lon="4.09474">
        <ele>239.6</ele>
        <time>2019-08-20T10:26:23Z</time>
      </trkpt>
      <trkpt lat="46.4613" lon="4.0947">
        <ele>239.6</ele>
        <time>2019-08-20T10:26:24Z</time>
      </trkpt>
      <trkpt lat="46.46133" lon="4.09464">
        <ele>239.6</ele>
        <time>2019-08-20T10:26:25Z</time>
      </trkpt>
      <trkpt lat="46.46137" lon="4.09459">
        <ele>239.6</ele>
        <time>2019-08-20T10:26:26Z</time>
      </trkpt>
      <trkpt lat="46.4614" lon="4.09454">
        <ele>239.6</ele>
        <time>2019-08-20T10:26:27Z</time>
      </trkpt>
      <trkpt lat="46.46144" lon="4.09449">
        <ele>239.6</ele>
        <time>2019-08-20T10:26:28Z</time>
      </trkpt>
      <trkpt lat="46.46147" lon="4.09445">
        <ele>239.6</ele>
        <time>2019-08-20T10:26:29Z</time>
      </trkpt>
      <trkpt lat="46.4615" lon="4.0944">
        <ele>239.6</ele>
        <time>2019-08-20T10:26:30Z</time>
      </trkpt>
      <trkpt lat="46.46153" lon="4.09436">
        <ele>239.6</ele>
        <time>2019-08-20T10:26:31Z</time>
      </trkpt>
      <trkpt lat="46.46157" lon="4.09432">
        <ele>239.6</ele>
        <time>2019-08-20T10:26:32Z</time>
      </trkpt>
      <trkpt lat="46.4616" lon="4.09429">
        <ele>239.6</ele>
        <time>2019-08-20T10:26:33Z</time>
      </trkpt>
      <trkpt lat="46.46162" lon="4.09426">
        <ele>239.7</ele>
        <time>2019-08-20T10:26:34Z</time>
      </trkpt>
      <trkpt lat="46.46163" lon="4.09422">
        <ele>239.7</ele>
        <time>2019-08-20T10:26:36Z</time>
      </trkpt>
      <trkpt lat="46.46161" lon="4.09424">
        <ele>239.7</ele>
        <time>2019-08-20T10:26:41Z</time>
      </trkpt>
      <trkpt lat="46.46161" lon="4.09428">
        <ele>239.7</ele>
        <time>2019-08-20T10:27:34Z</time>
      </trkpt>
      <trkpt lat="46.46163" lon="4.09425">
        <ele>239.7</ele>
        <time>2019-08-20T10:27:36Z</time>
      </trkpt>
      <trkpt lat="46.46166" lon="4.09422">
        <ele>239.7</ele>
        <time>2019-08-20T10:27:55Z</time>
      </trkpt>
      <trkpt lat="46.46168" lon="4.09419">
        <ele>239.7</ele>
        <time>2019-08-20T10:27:58Z</time>
      </trkpt>
      <trkpt lat="46.46171" lon="4.09419">
        <ele>239.7</ele>
        <time>2019-08-20T10:28:03Z</time>
      </trkpt>
      <trkpt lat="46.46175" lon="4.0941">
        <ele>239.8</ele>
        <time>2019-08-20T10:31:17Z</time>
      </trkpt>
      <trkpt lat="46.46179" lon="4.09405">
        <ele>239.8</ele>
        <time>2019-08-20T10:31:19Z</time>
      </trkpt>
      <trkpt lat="46.46181" lon="4.09403">
        <ele>239.8</ele>
        <time>2019-08-20T10:31:20Z</time>
      </trkpt>
      <trkpt lat="46.46183" lon="4.09401">
        <ele>239.8</ele>
        <time>2019-08-20T10:31:21Z</time>
      </trkpt>
      <trkpt lat="46.46185" lon="4.09398">
        <ele>239.8</ele>
        <time>2019-08-20T10:31:22Z</time>
      </trkpt>
      <trkpt lat="46.46187" lon="4.09395">
        <ele>239.8</ele>
        <time>2019-08-20T10:31:23Z</time>
      </trkpt>
      <trkpt lat="46.4619" lon="4.09392">
        <ele>239.9</ele>
        <time>2019-08-20T10:31:24Z</time>
      </trkpt>
      <trkpt lat="46.46193" lon="4.0939">
        <ele>239.9</ele>
        <time>2019-08-20T10:31:25Z</time>
      </trkpt>
      <trkpt lat="46.46195" lon="4.09388">
        <ele>239.9</ele>
        <time>2019-08-20T10:31:26Z</time>
      </trkpt>
      <trkpt lat="46.46199" lon="4.09383">
        <ele>239.9</ele>
        <time>2019-08-20T10:31:28Z</time>
      </trkpt>
      <trkpt lat="46.46203" lon="4.09379">
        <ele>239.9</ele>
        <time>2019-08-20T10:31:30Z</time>
      </trkpt>
      <trkpt lat="46.46205" lon="4.09375">
        <ele>239.9</ele>
        <time>2019-08-20T10:31:31Z</time>
      </trkpt>
      <trkpt lat="46.46207" lon="4.09371">
        <ele>239.9</ele>
        <time>2019-08-20T10:31:32Z</time>
      </trkpt>
      <trkpt lat="46.46209" lon="4.09368">
        <ele>239.9</ele>
        <time>2019-08-20T10:31:33Z</time>
      </trkpt>
      <trkpt lat="46.46213" lon="4.09365">
        <ele>239.9</ele>
        <time>2019-08-20T10:31:34Z</time>
      </trkpt>
      <trkpt lat="46.46216" lon="4.09362">
        <ele>239.9</ele>
        <time>2019-08-20T10:31:35Z</time>
      </trkpt>
      <trkpt lat="46.4622" lon="4.0936">
        <ele>239.9</ele>
        <time>2019-08-20T10:31:36Z</time>
      </trkpt>
      <trkpt lat="46.46223" lon="4.09357">
        <ele>239.9</ele>
        <time>2019-08-20T10:31:37Z</time>
      </trkpt>
      <trkpt lat="46.46226" lon="4.09355">
        <ele>240</ele>
        <time>2019-08-20T10:31:38Z</time>
      </trkpt>
      <trkpt lat="46.46229" lon="4.09353">
        <ele>240</ele>
        <time>2019-08-20T10:31:39Z</time>
      </trkpt>
      <trkpt lat="46.46232" lon="4.0935">
        <ele>240</ele>
        <time>2019-08-20T10:31:40Z</time>
      </trkpt>
      <trkpt lat="46.46235" lon="4.09346">
        <ele>240</ele>
        <time>2019-08-20T10:31:41Z</time>
      </trkpt>
      <trkpt lat="46.46238" lon="4.09343">
        <ele>240</ele>
        <time>2019-08-20T10:31:42Z</time>
      </trkpt>
      <trkpt lat="46.46242" lon="4.0934">
        <ele>240</ele>
        <time>2019-08-20T10:31:43Z</time>
      </trkpt>
      <trkpt lat="46.46245" lon="4.09338">
        <ele>239.9</ele>
        <time>2019-08-20T10:31:44Z</time>
      </trkpt>
      <trkpt lat="46.46248" lon="4.09334">
        <ele>239.9</ele>
        <time>2019-08-20T10:31:45Z</time>
      </trkpt>
      <trkpt lat="46.46251" lon="4.09332">
        <ele>239.9</ele>
        <time>2019-08-20T10:31:46Z</time>
      </trkpt>
      <trkpt lat="46.46254" lon="4.09328">
        <ele>239.9</ele>
        <time>2019-08-20T10:31:47Z</time>
      </trkpt>
      <trkpt lat="46.46257" lon="4.09325">
        <ele>239.9</ele>
        <time>2019-08-20T10:31:48Z</time>
      </trkpt>
      <trkpt lat="46.46261" lon="4.09321">
        <ele>239.9</ele>
        <time>2019-08-20T10:31:49Z</time>
      </trkpt>
      <trkpt lat="46.46264" lon="4.09318">
        <ele>239.9</ele>
        <time>2019-08-20T10:31:50Z</time>
      </trkpt>
      <trkpt lat="46.46268" lon="4.09315">
        <ele>239.9</ele>
        <time>2019-08-20T10:31:51Z</time>
      </trkpt>
      <trkpt lat="46.46271" lon="4.09312">
        <ele>239.9</ele>
        <time>2019-08-20T10:31:52Z</time>
      </trkpt>
      <trkpt lat="46.46275" lon="4.09308">
        <ele>239.9</ele>
        <time>2019-08-20T10:31:53Z</time>
      </trkpt>
      <trkpt lat="46.46278" lon="4.09305">
        <ele>239.9</ele>
        <time>2019-08-20T10:31:54Z</time>
      </trkpt>
      <trkpt lat="46.46281" lon="4.09301">
        <ele>239.9</ele>
        <time>2019-08-20T10:31:55Z</time>
      </trkpt>
      <trkpt lat="46.46285" lon="4.09298">
        <ele>239.9</ele>
        <time>2019-08-20T10:31:56Z</time>
      </trkpt>
      <trkpt lat="46.46288" lon="4.09294">
        <ele>240</ele>
        <time>2019-08-20T10:31:57Z</time>
      </trkpt>
      <trkpt lat="46.46292" lon="4.09291">
        <ele>240</ele>
        <time>2019-08-20T10:31:58Z</time>
      </trkpt>
      <trkpt lat="46.46295" lon="4.09289">
        <ele>240</ele>
        <time>2019-08-20T10:31:59Z</time>
      </trkpt>
      <trkpt lat="46.46299" lon="4.09285">
        <ele>240</ele>
        <time>2019-08-20T10:32:00Z</time>
      </trkpt>
      <trkpt lat="46.46303" lon="4.09281">
        <ele>240</ele>
        <time>2019-08-20T10:32:01Z</time>
      </trkpt>
      <trkpt lat="46.46307" lon="4.09278">
        <ele>240.1</ele>
        <time>2019-08-20T10:32:02Z</time>
      </trkpt>
      <trkpt lat="46.4631" lon="4.09275">
        <ele>240.1</ele>
        <time>2019-08-20T10:32:03Z</time>
      </trkpt>
      <trkpt lat="46.46314" lon="4.09271">
        <ele>240.1</ele>
        <time>2019-08-20T10:32:04Z</time>
      </trkpt>
      <trkpt lat="46.46317" lon="4.09268">
        <ele>240.1</ele>
        <time>2019-08-20T10:32:05Z</time>
      </trkpt>
      <trkpt lat="46.46321" lon="4.09264">
        <ele>240.1</ele>
        <time>2019-08-20T10:32:06Z</time>
      </trkpt>
      <trkpt lat="46.46325" lon="4.09261">
        <ele>240.1</ele>
        <time>2019-08-20T10:32:07Z</time>
      </trkpt>
      <trkpt lat="46.46328" lon="4.09257">
        <ele>240.1</ele>
        <time>2019-08-20T10:32:08Z</time>
      </trkpt>
      <trkpt lat="46.46332" lon="4.09252">
        <ele>240.1</ele>
        <time>2019-08-20T10:32:09Z</time>
      </trkpt>
      <trkpt lat="46.46335" lon="4.09249">
        <ele>240</ele>
        <time>2019-08-20T10:32:10Z</time>
      </trkpt>
      <trkpt lat="46.46339" lon="4.09244">
        <ele>240</ele>
        <time>2019-08-20T10:32:11Z</time>
      </trkpt>
      <trkpt lat="46.46342" lon="4.09241">
        <ele>240</ele>
        <time>2019-08-20T10:32:12Z</time>
      </trkpt>
      <trkpt lat="46.46346" lon="4.09237">
        <ele>240</ele>
        <time>2019-08-20T10:32:13Z</time>
      </trkpt>
      <trkpt lat="46.46349" lon="4.09233">
        <ele>239.9</ele>
        <time>2019-08-20T10:32:14Z</time>
      </trkpt>
      <trkpt lat="46.46352" lon="4.0923">
        <ele>239.9</ele>
        <time>2019-08-20T10:32:15Z</time>
      </trkpt>
      <trkpt lat="46.46356" lon="4.09226">
        <ele>239.9</ele>
        <time>2019-08-20T10:32:16Z</time>
      </trkpt>
      <trkpt lat="46.4636" lon="4.09222">
        <ele>239.8</ele>
        <time>2019-08-20T10:32:17Z</time>
      </trkpt>
      <trkpt lat="46.46364" lon="4.09218">
        <ele>239.7</ele>
        <time>2019-08-20T10:32:18Z</time>
      </trkpt>
      <trkpt lat="46.46368" lon="4.09214">
        <ele>239.6</ele>
        <time>2019-08-20T10:32:19Z</time>
      </trkpt>
      <trkpt lat="46.46372" lon="4.09209">
        <ele>239.5</ele>
        <time>2019-08-20T10:32:20Z</time>
      </trkpt>
      <trkpt lat="46.46377" lon="4.09205">
        <ele>239.4</ele>
        <time>2019-08-20T10:32:21Z</time>
      </trkpt>
      <trkpt lat="46.46382" lon="4.09201">
        <ele>239.3</ele>
        <time>2019-08-20T10:32:22Z</time>
      </trkpt>
      <trkpt lat="46.46387" lon="4.09197">
        <ele>239.1</ele>
        <time>2019-08-20T10:32:23Z</time>
      </trkpt>
      <trkpt lat="46.46392" lon="4.09193">
        <ele>238.9</ele>
        <time>2019-08-20T10:32:24Z</time>
      </trkpt>
      <trkpt lat="46.46396" lon="4.09188">
        <ele>238.8</ele>
        <time>2019-08-20T10:32:25Z</time>
      </trkpt>
      <trkpt lat="46.46401" lon="4.09184">
        <ele>238.7</ele>
        <time>2019-08-20T10:32:26Z</time>
      </trkpt>
      <trkpt lat="46.46405" lon="4.0918">
        <ele>238.6</ele>
        <time>2019-08-20T10:32:27Z</time>
      </trkpt>
      <trkpt lat="46.4641" lon="4.09176">
        <ele>238.5</ele>
        <time>2019-08-20T10:32:28Z</time>
      </trkpt>
      <trkpt lat="46.46414" lon="4.09172">
        <ele>238.4</ele>
        <time>2019-08-20T10:32:29Z</time>
      </trkpt>
      <trkpt lat="46.46418" lon="4.09168">
        <ele>238.4</ele>
        <time>2019-08-20T10:32:30Z</time>
      </trkpt>
      <trkpt lat="46.46422" lon="4.09164">
        <ele>238.4</ele>
        <time>2019-08-20T10:32:31Z</time>
      </trkpt>
      <trkpt lat="46.46426" lon="4.0916">
        <ele>238.3</ele>
        <time>2019-08-20T10:32:32Z</time>
      </trkpt>
      <trkpt lat="46.4643" lon="4.09155">
        <ele>238.3</ele>
        <time>2019-08-20T10:32:33Z</time>
      </trkpt>
      <trkpt lat="46.46434" lon="4.09151">
        <ele>238.3</ele>
        <time>2019-08-20T10:32:34Z</time>
      </trkpt>
      <trkpt lat="46.46438" lon="4.09146">
        <ele>238.2</ele>
        <time>2019-08-20T10:32:35Z</time>
      </trkpt>
      <trkpt lat="46.46442" lon="4.09141">
        <ele>238.2</ele>
        <time>2019-08-20T10:32:36Z</time>
      </trkpt>
      <trkpt lat="46.46446" lon="4.09136">
        <ele>238.2</ele>
        <time>2019-08-20T10:32:37Z</time>
      </trkpt>
      <trkpt lat="46.4645" lon="4.09131">
        <ele>238.1</ele>
        <time>2019-08-20T10:32:38Z</time>
      </trkpt>
      <trkpt lat="46.46453" lon="4.09126">
        <ele>238.1</ele>
        <time>2019-08-20T10:32:39Z</time>
      </trkpt>
      <trkpt lat="46.46457" lon="4.09122">
        <ele>238.1</ele>
        <time>2019-08-20T10:32:40Z</time>
      </trkpt>
      <trkpt lat="46.46461" lon="4.09116">
        <ele>238.1</ele>
        <time>2019-08-20T10:32:41Z</time>
      </trkpt>
      <trkpt lat="46.46464" lon="4.09111">
        <ele>238.1</ele>
        <time>2019-08-20T10:32:42Z</time>
      </trkpt>
      <trkpt lat="46.46468" lon="4.09106">
        <ele>238.1</ele>
        <time>2019-08-20T10:32:43Z</time>
      </trkpt>
      <trkpt lat="46.46471" lon="4.09101">
        <ele>238.1</ele>
        <time>2019-08-20T10:32:44Z</time>
      </trkpt>
      <trkpt lat="46.46475" lon="4.09096">
        <ele>238.1</ele>
        <time>2019-08-20T10:32:45Z</time>
      </trkpt>
      <trkpt lat="46.46478" lon="4.09091">
        <ele>238.1</ele>
        <time>2019-08-20T10:32:46Z</time>
      </trkpt>
      <trkpt lat="46.46481" lon="4.09086">
        <ele>238.1</ele>
        <time>2019-08-20T10:32:47Z</time>
      </trkpt>
      <trkpt lat="46.46485" lon="4.09081">
        <ele>238.1</ele>
        <time>2019-08-20T10:32:48Z</time>
      </trkpt>
      <trkpt lat="46.46488" lon="4.09075">
        <ele>238.1</ele>
        <time>2019-08-20T10:32:49Z</time>
      </trkpt>
      <trkpt lat="46.46492" lon="4.0907">
        <ele>238.1</ele>
        <time>2019-08-20T10:32:50Z</time>
      </trkpt>
      <trkpt lat="46.46496" lon="4.09064">
        <ele>238.2</ele>
        <time>2019-08-20T10:32:51Z</time>
      </trkpt>
      <trkpt lat="46.46499" lon="4.09059">
        <ele>238.2</ele>
        <time>2019-08-20T10:32:52Z</time>
      </trkpt>
      <trkpt lat="46.46503" lon="4.09054">
        <ele>238.2</ele>
        <time>2019-08-20T10:32:53Z</time>
      </trkpt>
      <trkpt lat="46.46506" lon="4.09048">
        <ele>238.2</ele>
        <time>2019-08-20T10:32:54Z</time>
      </trkpt>
      <trkpt lat="46.46509" lon="4.09043">
        <ele>238.2</ele>
        <time>2019-08-20T10:32:55Z</time>
      </trkpt>
      <trkpt lat="46.46513" lon="4.09038">
        <ele>238.2</ele>
        <time>2019-08-20T10:32:56Z</time>
      </trkpt>
      <trkpt lat="46.46516" lon="4.09034">
        <ele>238.2</ele>
        <time>2019-08-20T10:32:57Z</time>
      </trkpt>
      <trkpt lat="46.46519" lon="4.09029">
        <ele>238.2</ele>
        <time>2019-08-20T10:32:58Z</time>
      </trkpt>
      <trkpt lat="46.46522" lon="4.09023">
        <ele>238.2</ele>
        <time>2019-08-20T10:32:59Z</time>
      </trkpt>
      <trkpt lat="46.46525" lon="4.09019">
        <ele>238.2</ele>
        <time>2019-08-20T10:33:00Z</time>
      </trkpt>
      <trkpt lat="46.46528" lon="4.09014">
        <ele>238.2</ele>
        <time>2019-08-20T10:33:01Z</time>
      </trkpt>
      <trkpt lat="46.46531" lon="4.09009">
        <ele>238.2</ele>
        <time>2019-08-20T10:33:02Z</time>
      </trkpt>
      <trkpt lat="46.46534" lon="4.09003">
        <ele>238.3</ele>
        <time>2019-08-20T10:33:03Z</time>
      </trkpt>
      <trkpt lat="46.46537" lon="4.08997">
        <ele>238.3</ele>
        <time>2019-08-20T10:33:04Z</time>
      </trkpt>
      <trkpt lat="46.4654" lon="4.08991">
        <ele>238.3</ele>
        <time>2019-08-20T10:33:05Z</time>
      </trkpt>
      <trkpt lat="46.46544" lon="4.08985">
        <ele>238.3</ele>
        <time>2019-08-20T10:33:06Z</time>
      </trkpt>
      <trkpt lat="46.46547" lon="4.0898">
        <ele>238.4</ele>
        <time>2019-08-20T10:33:07Z</time>
      </trkpt>
      <trkpt lat="46.46551" lon="4.08975">
        <ele>238.4</ele>
        <time>2019-08-20T10:33:08Z</time>
      </trkpt>
      <trkpt lat="46.46554" lon="4.08971">
        <ele>238.4</ele>
        <time>2019-08-20T10:33:09Z</time>
      </trkpt>
      <trkpt lat="46.46558" lon="4.08965">
        <ele>238.4</ele>
        <time>2019-08-20T10:33:10Z</time>
      </trkpt>
      <trkpt lat="46.46561" lon="4.0896">
        <ele>238.4</ele>
        <time>2019-08-20T10:33:11Z</time>
      </trkpt>
      <trkpt lat="46.46564" lon="4.08956">
        <ele>238.4</ele>
        <time>2019-08-20T10:33:12Z</time>
      </trkpt>
      <trkpt lat="46.46568" lon="4.08951">
        <ele>238.4</ele>
        <time>2019-08-20T10:33:13Z</time>
      </trkpt>
      <trkpt lat="46.46571" lon="4.08946">
        <ele>238.4</ele>
        <time>2019-08-20T10:33:14Z</time>
      </trkpt>
      <trkpt lat="46.46575" lon="4.08941">
        <ele>238.4</ele>
        <time>2019-08-20T10:33:15Z</time>
      </trkpt>
      <trkpt lat="46.46578" lon="4.08935">
        <ele>238.4</ele>
        <time>2019-08-20T10:33:16Z</time>
      </trkpt>
      <trkpt lat="46.4658" lon="4.0893">
        <ele>238.5</ele>
        <time>2019-08-20T10:33:17Z</time>
      </trkpt>
      <trkpt lat="46.46583" lon="4.08926">
        <ele>238.5</ele>
        <time>2019-08-20T10:33:18Z</time>
      </trkpt>
      <trkpt lat="46.46585" lon="4.08922">
        <ele>238.5</ele>
        <time>2019-08-20T10:33:19Z</time>
      </trkpt>
      <trkpt lat="46.46588" lon="4.08917">
        <ele>238.5</ele>
        <time>2019-08-20T10:33:20Z</time>
      </trkpt>
      <trkpt lat="46.46592" lon="4.08912">
        <ele>238.5</ele>
        <time>2019-08-20T10:33:21Z</time>
      </trkpt>
      <trkpt lat="46.46595" lon="4.08907">
        <ele>238.5</ele>
        <time>2019-08-20T10:33:22Z</time>
      </trkpt>
      <trkpt lat="46.46598" lon="4.08901">
        <ele>238.5</ele>
        <time>2019-08-20T10:33:23Z</time>
      </trkpt>
      <trkpt lat="46.46602" lon="4.08896">
        <ele>238.5</ele>
        <time>2019-08-20T10:33:24Z</time>
      </trkpt>
      <trkpt lat="46.46605" lon="4.0889">
        <ele>238.5</ele>
        <time>2019-08-20T10:33:25Z</time>
      </trkpt>
      <trkpt lat="46.46608" lon="4.08885">
        <ele>238.5</ele>
        <time>2019-08-20T10:33:26Z</time>
      </trkpt>
      <trkpt lat="46.46611" lon="4.08881">
        <ele>238.6</ele>
        <time>2019-08-20T10:33:27Z</time>
      </trkpt>
      <trkpt lat="46.46614" lon="4.08876">
        <ele>238.6</ele>
        <time>2019-08-20T10:33:28Z</time>
      </trkpt>
      <trkpt lat="46.46618" lon="4.08871">
        <ele>238.6</ele>
        <time>2019-08-20T10:33:29Z</time>
      </trkpt>
      <trkpt lat="46.46621" lon="4.08866">
        <ele>238.6</ele>
        <time>2019-08-20T10:33:30Z</time>
      </trkpt>
      <trkpt lat="46.46624" lon="4.08862">
        <ele>238.6</ele>
        <time>2019-08-20T10:33:31Z</time>
      </trkpt>
      <trkpt lat="46.46627" lon="4.08857">
        <ele>238.6</ele>
        <time>2019-08-20T10:33:32Z</time>
      </trkpt>
      <trkpt lat="46.46631" lon="4.08854">
        <ele>238.6</ele>
        <time>2019-08-20T10:33:33Z</time>
      </trkpt>
      <trkpt lat="46.46635" lon="4.0885">
        <ele>238.7</ele>
        <time>2019-08-20T10:33:34Z</time>
      </trkpt>
      <trkpt lat="46.46638" lon="4.08846">
        <ele>238.7</ele>
        <time>2019-08-20T10:33:35Z</time>
      </trkpt>
      <trkpt lat="46.46642" lon="4.08841">
        <ele>238.7</ele>
        <time>2019-08-20T10:33:36Z</time>
      </trkpt>
      <trkpt lat="46.46645" lon="4.08837">
        <ele>238.7</ele>
        <time>2019-08-20T10:33:37Z</time>
      </trkpt>
      <trkpt lat="46.46648" lon="4.08831">
        <ele>238.7</ele>
        <time>2019-08-20T10:33:38Z</time>
      </trkpt>
      <trkpt lat="46.46651" lon="4.08826">
        <ele>238.6</ele>
        <time>2019-08-20T10:33:39Z</time>
      </trkpt>
      <trkpt lat="46.46654" lon="4.0882">
        <ele>238.6</ele>
        <time>2019-08-20T10:33:40Z</time>
      </trkpt>
      <trkpt lat="46.46658" lon="4.08815">
        <ele>238.6</ele>
        <time>2019-08-20T10:33:41Z</time>
      </trkpt>
      <trkpt lat="46.46661" lon="4.0881">
        <ele>238.6</ele>
        <time>2019-08-20T10:33:42Z</time>
      </trkpt>
      <trkpt lat="46.46664" lon="4.08805">
        <ele>238.6</ele>
        <time>2019-08-20T10:33:43Z</time>
      </trkpt>
      <trkpt lat="46.46668" lon="4.088">
        <ele>238.5</ele>
        <time>2019-08-20T10:33:44Z</time>
      </trkpt>
      <trkpt lat="46.46672" lon="4.08795">
        <ele>238.5</ele>
        <time>2019-08-20T10:33:45Z</time>
      </trkpt>
      <trkpt lat="46.46676" lon="4.0879">
        <ele>238.4</ele>
        <time>2019-08-20T10:33:46Z</time>
      </trkpt>
      <trkpt lat="46.46679" lon="4.08786">
        <ele>238.4</ele>
        <time>2019-08-20T10:33:47Z</time>
      </trkpt>
      <trkpt lat="46.46683" lon="4.08781">
        <ele>238.4</ele>
        <time>2019-08-20T10:33:48Z</time>
      </trkpt>
      <trkpt lat="46.46686" lon="4.08776">
        <ele>238.3</ele>
        <time>2019-08-20T10:33:49Z</time>
      </trkpt>
      <trkpt lat="46.46691" lon="4.0877">
        <ele>238.3</ele>
        <time>2019-08-20T10:33:50Z</time>
      </trkpt>
      <trkpt lat="46.46695" lon="4.08765">
        <ele>238.2</ele>
        <time>2019-08-20T10:33:51Z</time>
      </trkpt>
      <trkpt lat="46.46699" lon="4.0876">
        <ele>238.2</ele>
        <time>2019-08-20T10:33:52Z</time>
      </trkpt>
      <trkpt lat="46.46702" lon="4.08756">
        <ele>238.1</ele>
        <time>2019-08-20T10:33:53Z</time>
      </trkpt>
      <trkpt lat="46.46706" lon="4.0875">
        <ele>238.1</ele>
        <time>2019-08-20T10:33:54Z</time>
      </trkpt>
      <trkpt lat="46.46709" lon="4.08745">
        <ele>238.1</ele>
        <time>2019-08-20T10:33:55Z</time>
      </trkpt>
      <trkpt lat="46.46713" lon="4.0874">
        <ele>238</ele>
        <time>2019-08-20T10:33:56Z</time>
      </trkpt>
      <trkpt lat="46.46716" lon="4.08735">
        <ele>238</ele>
        <time>2019-08-20T10:33:57Z</time>
      </trkpt>
      <trkpt lat="46.46719" lon="4.0873">
        <ele>238</ele>
        <time>2019-08-20T10:33:58Z</time>
      </trkpt>
      <trkpt lat="46.46723" lon="4.08725">
        <ele>238</ele>
        <time>2019-08-20T10:33:59Z</time>
      </trkpt>
      <trkpt lat="46.46726" lon="4.0872">
        <ele>237.9</ele>
        <time>2019-08-20T10:34:00Z</time>
      </trkpt>
      <trkpt lat="46.4673" lon="4.08715">
        <ele>237.9</ele>
        <time>2019-08-20T10:34:01Z</time>
      </trkpt>
      <trkpt lat="46.46733" lon="4.08709">
        <ele>237.9</ele>
        <time>2019-08-20T10:34:02Z</time>
      </trkpt>
      <trkpt lat="46.46736" lon="4.08704">
        <ele>237.8</ele>
        <time>2019-08-20T10:34:03Z</time>
      </trkpt>
      <trkpt lat="46.4674" lon="4.08699">
        <ele>237.8</ele>
        <time>2019-08-20T10:34:04Z</time>
      </trkpt>
      <trkpt lat="46.46744" lon="4.08693">
        <ele>237.8</ele>
        <time>2019-08-20T10:34:05Z</time>
      </trkpt>
      <trkpt lat="46.46748" lon="4.08688">
        <ele>237.7</ele>
        <time>2019-08-20T10:34:06Z</time>
      </trkpt>
      <trkpt lat="46.46752" lon="4.08683">
        <ele>237.7</ele>
        <time>2019-08-20T10:34:07Z</time>
      </trkpt>
      <trkpt lat="46.46755" lon="4.08678">
        <ele>237.7</ele>
        <time>2019-08-20T10:34:08Z</time>
      </trkpt>
      <trkpt lat="46.46759" lon="4.08672">
        <ele>237.7</ele>
        <time>2019-08-20T10:34:09Z</time>
      </trkpt>
      <trkpt lat="46.46763" lon="4.08666">
        <ele>237.6</ele>
        <time>2019-08-20T10:34:10Z</time>
      </trkpt>
      <trkpt lat="46.46767" lon="4.08661">
        <ele>237.6</ele>
        <time>2019-08-20T10:34:11Z</time>
      </trkpt>
      <trkpt lat="46.46771" lon="4.08654">
        <ele>237.6</ele>
        <time>2019-08-20T10:34:12Z</time>
      </trkpt>
      <trkpt lat="46.46775" lon="4.08649">
        <ele>237.7</ele>
        <time>2019-08-20T10:34:13Z</time>
      </trkpt>
      <trkpt lat="46.46778" lon="4.08643">
        <ele>237.7</ele>
        <time>2019-08-20T10:34:14Z</time>
      </trkpt>
      <trkpt lat="46.46782" lon="4.08637">
        <ele>237.7</ele>
        <time>2019-08-20T10:34:15Z</time>
      </trkpt>
      <trkpt lat="46.46785" lon="4.08633">
        <ele>237.7</ele>
        <time>2019-08-20T10:34:16Z</time>
      </trkpt>
      <trkpt lat="46.46788" lon="4.08629">
        <ele>237.7</ele>
        <time>2019-08-20T10:34:17Z</time>
      </trkpt>
      <trkpt lat="46.46791" lon="4.08624">
        <ele>237.7</ele>
        <time>2019-08-20T10:34:18Z</time>
      </trkpt>
      <trkpt lat="46.46795" lon="4.0862">
        <ele>237.7</ele>
        <time>2019-08-20T10:34:19Z</time>
      </trkpt>
      <trkpt lat="46.46798" lon="4.08615">
        <ele>237.7</ele>
        <time>2019-08-20T10:34:20Z</time>
      </trkpt>
      <trkpt lat="46.46801" lon="4.08611">
        <ele>237.7</ele>
        <time>2019-08-20T10:34:21Z</time>
      </trkpt>
      <trkpt lat="46.46805" lon="4.08606">
        <ele>237.7</ele>
        <time>2019-08-20T10:34:22Z</time>
      </trkpt>
      <trkpt lat="46.46808" lon="4.08601">
        <ele>237.7</ele>
        <time>2019-08-20T10:34:23Z</time>
      </trkpt>
      <trkpt lat="46.46812" lon="4.08597">
        <ele>237.7</ele>
        <time>2019-08-20T10:34:24Z</time>
      </trkpt>
      <trkpt lat="46.46815" lon="4.08593">
        <ele>237.7</ele>
        <time>2019-08-20T10:34:25Z</time>
      </trkpt>
      <trkpt lat="46.46818" lon="4.08588">
        <ele>237.7</ele>
        <time>2019-08-20T10:34:26Z</time>
      </trkpt>
      <trkpt lat="46.46821" lon="4.08583">
        <ele>237.8</ele>
        <time>2019-08-20T10:34:27Z</time>
      </trkpt>
      <trkpt lat="46.46824" lon="4.08579">
        <ele>237.8</ele>
        <time>2019-08-20T10:34:28Z</time>
      </trkpt>
      <trkpt lat="46.46828" lon="4.08574">
        <ele>237.8</ele>
        <time>2019-08-20T10:34:29Z</time>
      </trkpt>
      <trkpt lat="46.46831" lon="4.08569">
        <ele>237.8</ele>
        <time>2019-08-20T10:34:30Z</time>
      </trkpt>
      <trkpt lat="46.46834" lon="4.08563">
        <ele>237.9</ele>
        <time>2019-08-20T10:34:31Z</time>
      </trkpt>
      <trkpt lat="46.46838" lon="4.08557">
        <ele>237.9</ele>
        <time>2019-08-20T10:34:32Z</time>
      </trkpt>
      <trkpt lat="46.46841" lon="4.08552">
        <ele>238</ele>
        <time>2019-08-20T10:34:33Z</time>
      </trkpt>
      <trkpt lat="46.46845" lon="4.08546">
        <ele>238</ele>
        <time>2019-08-20T10:34:34Z</time>
      </trkpt>
      <trkpt lat="46.46849" lon="4.0854">
        <ele>238</ele>
        <time>2019-08-20T10:34:35Z</time>
      </trkpt>
      <trkpt lat="46.46852" lon="4.08535">
        <ele>238</ele>
        <time>2019-08-20T10:34:36Z</time>
      </trkpt>
      <trkpt lat="46.46855" lon="4.0853">
        <ele>238.1</ele>
        <time>2019-08-20T10:34:37Z</time>
      </trkpt>
      <trkpt lat="46.46859" lon="4.08526">
        <ele>238.1</ele>
        <time>2019-08-20T10:34:38Z</time>
      </trkpt>
      <trkpt lat="46.46863" lon="4.08522">
        <ele>238.1</ele>
        <time>2019-08-20T10:34:39Z</time>
      </trkpt>
      <trkpt lat="46.46866" lon="4.08517">
        <ele>238.1</ele>
        <time>2019-08-20T10:34:40Z</time>
      </trkpt>
      <trkpt lat="46.4687" lon="4.08513">
        <ele>238.1</ele>
        <time>2019-08-20T10:34:41Z</time>
      </trkpt>
      <trkpt lat="46.46873" lon="4.08508">
        <ele>238.1</ele>
        <time>2019-08-20T10:34:42Z</time>
      </trkpt>
      <trkpt lat="46.46877" lon="4.08504">
        <ele>238.1</ele>
        <time>2019-08-20T10:34:43Z</time>
      </trkpt>
      <trkpt lat="46.4688" lon="4.08499">
        <ele>238.1</ele>
        <time>2019-08-20T10:34:44Z</time>
      </trkpt>
      <trkpt lat="46.46883" lon="4.08494">
        <ele>238</ele>
        <time>2019-08-20T10:34:45Z</time>
      </trkpt>
      <trkpt lat="46.46887" lon="4.08489">
        <ele>238</ele>
        <time>2019-08-20T10:34:46Z</time>
      </trkpt>
      <trkpt lat="46.4689" lon="4.08483">
        <ele>237.9</ele>
        <time>2019-08-20T10:34:47Z</time>
      </trkpt>
      <trkpt lat="46.46894" lon="4.08478">
        <ele>237.9</ele>
        <time>2019-08-20T10:34:48Z</time>
      </trkpt>
      <trkpt lat="46.46898" lon="4.08472">
        <ele>237.8</ele>
        <time>2019-08-20T10:34:49Z</time>
      </trkpt>
      <trkpt lat="46.46901" lon="4.08466">
        <ele>237.8</ele>
        <time>2019-08-20T10:34:50Z</time>
      </trkpt>
      <trkpt lat="46.46905" lon="4.0846">
        <ele>237.7</ele>
        <time>2019-08-20T10:34:51Z</time>
      </trkpt>
      <trkpt lat="46.46908" lon="4.08455">
        <ele>237.7</ele>
        <time>2019-08-20T10:34:52Z</time>
      </trkpt>
      <trkpt lat="46.46912" lon="4.0845">
        <ele>237.6</ele>
        <time>2019-08-20T10:34:53Z</time>
      </trkpt>
      <trkpt lat="46.46917" lon="4.08445">
        <ele>237.6</ele>
        <time>2019-08-20T10:34:54Z</time>
      </trkpt>
      <trkpt lat="46.4692" lon="4.08441">
        <ele>237.6</ele>
        <time>2019-08-20T10:34:55Z</time>
      </trkpt>
      <trkpt lat="46.46924" lon="4.08436">
        <ele>237.5</ele>
        <time>2019-08-20T10:34:56Z</time>
      </trkpt>
      <trkpt lat="46.46928" lon="4.08431">
        <ele>237.5</ele>
        <time>2019-08-20T10:34:57Z</time>
      </trkpt>
      <trkpt lat="46.46932" lon="4.08426">
        <ele>237.4</ele>
        <time>2019-08-20T10:34:58Z</time>
      </trkpt>
      <trkpt lat="46.46935" lon="4.08419">
        <ele>237.4</ele>
        <time>2019-08-20T10:34:59Z</time>
      </trkpt>
      <trkpt lat="46.46939" lon="4.08414">
        <ele>237.4</ele>
        <time>2019-08-20T10:35:00Z</time>
      </trkpt>
      <trkpt lat="46.46943" lon="4.0841">
        <ele>237.4</ele>
        <time>2019-08-20T10:35:01Z</time>
      </trkpt>
      <trkpt lat="46.46947" lon="4.08405">
        <ele>237.4</ele>
        <time>2019-08-20T10:35:02Z</time>
      </trkpt>
      <trkpt lat="46.46951" lon="4.084">
        <ele>237.4</ele>
        <time>2019-08-20T10:35:03Z</time>
      </trkpt>
      <trkpt lat="46.46954" lon="4.08395">
        <ele>237.3</ele>
        <time>2019-08-20T10:35:04Z</time>
      </trkpt>
      <trkpt lat="46.46958" lon="4.0839">
        <ele>237.3</ele>
        <time>2019-08-20T10:35:05Z</time>
      </trkpt>
      <trkpt lat="46.46961" lon="4.08384">
        <ele>237.3</ele>
        <time>2019-08-20T10:35:06Z</time>
      </trkpt>
      <trkpt lat="46.46964" lon="4.08379">
        <ele>237.3</ele>
        <time>2019-08-20T10:35:07Z</time>
      </trkpt>
      <trkpt lat="46.46968" lon="4.08375">
        <ele>237.3</ele>
        <time>2019-08-20T10:35:08Z</time>
      </trkpt>
      <trkpt lat="46.46971" lon="4.0837">
        <ele>237.3</ele>
        <time>2019-08-20T10:35:09Z</time>
      </trkpt>
      <trkpt lat="46.46974" lon="4.08364">
        <ele>237.2</ele>
        <time>2019-08-20T10:35:10Z</time>
      </trkpt>
      <trkpt lat="46.46978" lon="4.0836">
        <ele>237.2</ele>
        <time>2019-08-20T10:35:11Z</time>
      </trkpt>
      <trkpt lat="46.46982" lon="4.08355">
        <ele>237.2</ele>
        <time>2019-08-20T10:35:12Z</time>
      </trkpt>
      <trkpt lat="46.46984" lon="4.0835">
        <ele>237.2</ele>
        <time>2019-08-20T10:35:13Z</time>
      </trkpt>
      <trkpt lat="46.46988" lon="4.08345">
        <ele>237.2</ele>
        <time>2019-08-20T10:35:14Z</time>
      </trkpt>
      <trkpt lat="46.46991" lon="4.08339">
        <ele>237.2</ele>
        <time>2019-08-20T10:35:15Z</time>
      </trkpt>
      <trkpt lat="46.46994" lon="4.08334">
        <ele>237.2</ele>
        <time>2019-08-20T10:35:16Z</time>
      </trkpt>
      <trkpt lat="46.46996" lon="4.08328">
        <ele>237.2</ele>
        <time>2019-08-20T10:35:17Z</time>
      </trkpt>
      <trkpt lat="46.46999" lon="4.08322">
        <ele>237.2</ele>
        <time>2019-08-20T10:35:18Z</time>
      </trkpt>
      <trkpt lat="46.47002" lon="4.08315">
        <ele>237.2</ele>
        <time>2019-08-20T10:35:19Z</time>
      </trkpt>
      <trkpt lat="46.47005" lon="4.08309">
        <ele>237.2</ele>
        <time>2019-08-20T10:35:20Z</time>
      </trkpt>
      <trkpt lat="46.47007" lon="4.08303">
        <ele>237.3</ele>
        <time>2019-08-20T10:35:21Z</time>
      </trkpt>
      <trkpt lat="46.47009" lon="4.08297">
        <ele>237.3</ele>
        <time>2019-08-20T10:35:22Z</time>
      </trkpt>
      <trkpt lat="46.47011" lon="4.08292">
        <ele>237.3</ele>
        <time>2019-08-20T10:35:23Z</time>
      </trkpt>
      <trkpt lat="46.47011" lon="4.08285">
        <ele>237.3</ele>
        <time>2019-08-20T10:35:24Z</time>
      </trkpt>
      <trkpt lat="46.47012" lon="4.08277">
        <ele>237.3</ele>
        <time>2019-08-20T10:35:25Z</time>
      </trkpt>
      <trkpt lat="46.47013" lon="4.08269">
        <ele>237.4</ele>
        <time>2019-08-20T10:35:26Z</time>
      </trkpt>
      <trkpt lat="46.47014" lon="4.08262">
        <ele>237.4</ele>
        <time>2019-08-20T10:35:27Z</time>
      </trkpt>
      <trkpt lat="46.47015" lon="4.08254">
        <ele>237.4</ele>
        <time>2019-08-20T10:35:28Z</time>
      </trkpt>
      <trkpt lat="46.47015" lon="4.08247">
        <ele>237.4</ele>
        <time>2019-08-20T10:35:29Z</time>
      </trkpt>
      <trkpt lat="46.47016" lon="4.08241">
        <ele>237.4</ele>
        <time>2019-08-20T10:35:30Z</time>
      </trkpt>
      <trkpt lat="46.47016" lon="4.08234">
        <ele>237.4</ele>
        <time>2019-08-20T10:35:31Z</time>
      </trkpt>
      <trkpt lat="46.47017" lon="4.08227">
        <ele>237.4</ele>
        <time>2019-08-20T10:35:32Z</time>
      </trkpt>
      <trkpt lat="46.47019" lon="4.0822">
        <ele>237.5</ele>
        <time>2019-08-20T10:35:33Z</time>
      </trkpt>
      <trkpt lat="46.47021" lon="4.08213">
        <ele>237.5</ele>
        <time>2019-08-20T10:35:34Z</time>
      </trkpt>
      <trkpt lat="46.47022" lon="4.08207">
        <ele>237.5</ele>
        <time>2019-08-20T10:35:35Z</time>
      </trkpt>
      <trkpt lat="46.47023" lon="4.08201">
        <ele>237.5</ele>
        <time>2019-08-20T10:35:36Z</time>
      </trkpt>
      <trkpt lat="46.47024" lon="4.08196">
        <ele>237.5</ele>
        <time>2019-08-20T10:35:37Z</time>
      </trkpt>
      <trkpt lat="46.47025" lon="4.08191">
        <ele>237.5</ele>
        <time>2019-08-20T10:35:38Z</time>
      </trkpt>
      <trkpt lat="46.47026" lon="4.08184">
        <ele>237.5</ele>
        <time>2019-08-20T10:35:39Z</time>
      </trkpt>
      <trkpt lat="46.47029" lon="4.08177">
        <ele>237.5</ele>
        <time>2019-08-20T10:35:40Z</time>
      </trkpt>
      <trkpt lat="46.47031" lon="4.08169">
        <ele>237.5</ele>
        <time>2019-08-20T10:35:41Z</time>
      </trkpt>
      <trkpt lat="46.47034" lon="4.08162">
        <ele>237.5</ele>
        <time>2019-08-20T10:35:42Z</time>
      </trkpt>
      <trkpt lat="46.47039" lon="4.08157">
        <ele>237.5</ele>
        <time>2019-08-20T10:35:43Z</time>
      </trkpt>
      <trkpt lat="46.47043" lon="4.08152">
        <ele>237.6</ele>
        <time>2019-08-20T10:35:44Z</time>
      </trkpt>
      <trkpt lat="46.47047" lon="4.08148">
        <ele>237.6</ele>
        <time>2019-08-20T10:35:45Z</time>
      </trkpt>
      <trkpt lat="46.47051" lon="4.08143">
        <ele>237.6</ele>
        <time>2019-08-20T10:35:46Z</time>
      </trkpt>
      <trkpt lat="46.47054" lon="4.08139">
        <ele>237.6</ele>
        <time>2019-08-20T10:35:47Z</time>
      </trkpt>
      <trkpt lat="46.47058" lon="4.08134">
        <ele>237.6</ele>
        <time>2019-08-20T10:35:48Z</time>
      </trkpt>
      <trkpt lat="46.47061" lon="4.08129">
        <ele>237.7</ele>
        <time>2019-08-20T10:35:49Z</time>
      </trkpt>
      <trkpt lat="46.47063" lon="4.08123">
        <ele>237.7</ele>
        <time>2019-08-20T10:35:50Z</time>
      </trkpt>
      <trkpt lat="46.47065" lon="4.08118">
        <ele>237.7</ele>
        <time>2019-08-20T10:35:51Z</time>
      </trkpt>
      <trkpt lat="46.47067" lon="4.08111">
        <ele>237.7</ele>
        <time>2019-08-20T10:35:52Z</time>
      </trkpt>
      <trkpt lat="46.47069" lon="4.08105">
        <ele>237.7</ele>
        <time>2019-08-20T10:35:53Z</time>
      </trkpt>
      <trkpt lat="46.4707" lon="4.08098">
        <ele>237.7</ele>
        <time>2019-08-20T10:35:54Z</time>
      </trkpt>
      <trkpt lat="46.47071" lon="4.08093">
        <ele>237.7</ele>
        <time>2019-08-20T10:35:55Z</time>
      </trkpt>
      <trkpt lat="46.47073" lon="4.08086">
        <ele>237.7</ele>
        <time>2019-08-20T10:35:56Z</time>
      </trkpt>
      <trkpt lat="46.47074" lon="4.08079">
        <ele>237.7</ele>
        <time>2019-08-20T10:35:57Z</time>
      </trkpt>
      <trkpt lat="46.47075" lon="4.08072">
        <ele>237.6</ele>
        <time>2019-08-20T10:35:58Z</time>
      </trkpt>
      <trkpt lat="46.47076" lon="4.08064">
        <ele>237.6</ele>
        <time>2019-08-20T10:35:59Z</time>
      </trkpt>
      <trkpt lat="46.47077" lon="4.08057">
        <ele>237.6</ele>
        <time>2019-08-20T10:36:00Z</time>
      </trkpt>
      <trkpt lat="46.47077" lon="4.08051">
        <ele>237.6</ele>
        <time>2019-08-20T10:36:01Z</time>
      </trkpt>
      <trkpt lat="46.47077" lon="4.08044">
        <ele>237.6</ele>
        <time>2019-08-20T10:36:02Z</time>
      </trkpt>
      <trkpt lat="46.47076" lon="4.08037">
        <ele>237.6</ele>
        <time>2019-08-20T10:36:03Z</time>
      </trkpt>
      <trkpt lat="46.47074" lon="4.0803">
        <ele>237.6</ele>
        <time>2019-08-20T10:36:04Z</time>
      </trkpt>
      <trkpt lat="46.47072" lon="4.08023">
        <ele>237.6</ele>
        <time>2019-08-20T10:36:05Z</time>
      </trkpt>
      <trkpt lat="46.47071" lon="4.08016">
        <ele>237.6</ele>
        <time>2019-08-20T10:36:06Z</time>
      </trkpt>
      <trkpt lat="46.47069" lon="4.08009">
        <ele>237.6</ele>
        <time>2019-08-20T10:36:07Z</time>
      </trkpt>
      <trkpt lat="46.47068" lon="4.08003">
        <ele>237.6</ele>
        <time>2019-08-20T10:36:08Z</time>
      </trkpt>
      <trkpt lat="46.47067" lon="4.07997">
        <ele>237.6</ele>
        <time>2019-08-20T10:36:09Z</time>
      </trkpt>
      <trkpt lat="46.47067" lon="4.0799">
        <ele>237.6</ele>
        <time>2019-08-20T10:36:10Z</time>
      </trkpt>
      <trkpt lat="46.47065" lon="4.07982">
        <ele>237.6</ele>
        <time>2019-08-20T10:36:11Z</time>
      </trkpt>
      <trkpt lat="46.47063" lon="4.07975">
        <ele>237.6</ele>
        <time>2019-08-20T10:36:12Z</time>
      </trkpt>
      <trkpt lat="46.47062" lon="4.07968">
        <ele>237.6</ele>
        <time>2019-08-20T10:36:13Z</time>
      </trkpt>
      <trkpt lat="46.4706" lon="4.0796">
        <ele>237.6</ele>
        <time>2019-08-20T10:36:14Z</time>
      </trkpt>
      <trkpt lat="46.47058" lon="4.07953">
        <ele>237.6</ele>
        <time>2019-08-20T10:36:15Z</time>
      </trkpt>
      <trkpt lat="46.47056" lon="4.07947">
        <ele>237.6</ele>
        <time>2019-08-20T10:36:16Z</time>
      </trkpt>
      <trkpt lat="46.47054" lon="4.0794">
        <ele>237.6</ele>
        <time>2019-08-20T10:36:17Z</time>
      </trkpt>
      <trkpt lat="46.47053" lon="4.07934">
        <ele>237.7</ele>
        <time>2019-08-20T10:36:18Z</time>
      </trkpt>
      <trkpt lat="46.47053" lon="4.07926">
        <ele>237.7</ele>
        <time>2019-08-20T10:36:19Z</time>
      </trkpt>
      <trkpt lat="46.47051" lon="4.0792">
        <ele>237.7</ele>
        <time>2019-08-20T10:36:20Z</time>
      </trkpt>
      <trkpt lat="46.4705" lon="4.07914">
        <ele>237.7</ele>
        <time>2019-08-20T10:36:21Z</time>
      </trkpt>
      <trkpt lat="46.47049" lon="4.07907">
        <ele>237.7</ele>
        <time>2019-08-20T10:36:22Z</time>
      </trkpt>
      <trkpt lat="46.47048" lon="4.079">
        <ele>237.8</ele>
        <time>2019-08-20T10:36:23Z</time>
      </trkpt>
      <trkpt lat="46.47046" lon="4.07892">
        <ele>237.8</ele>
        <time>2019-08-20T10:36:24Z</time>
      </trkpt>
      <trkpt lat="46.47045" lon="4.07886">
        <ele>237.8</ele>
        <time>2019-08-20T10:36:25Z</time>
      </trkpt>
      <trkpt lat="46.47045" lon="4.07879">
        <ele>237.8</ele>
        <time>2019-08-20T10:36:26Z</time>
      </trkpt>
      <trkpt lat="46.47045" lon="4.07872">
        <ele>237.9</ele>
        <time>2019-08-20T10:36:27Z</time>
      </trkpt>
      <trkpt lat="46.47045" lon="4.07865">
        <ele>237.9</ele>
        <time>2019-08-20T10:36:28Z</time>
      </trkpt>
      <trkpt lat="46.47045" lon="4.07858">
        <ele>237.9</ele>
        <time>2019-08-20T10:36:29Z</time>
      </trkpt>
      <trkpt lat="46.47046" lon="4.07851">
        <ele>238</ele>
        <time>2019-08-20T10:36:30Z</time>
      </trkpt>
      <trkpt lat="46.47046" lon="4.07844">
        <ele>238</ele>
        <time>2019-08-20T10:36:31Z</time>
      </trkpt>
      <trkpt lat="46.47047" lon="4.07838">
        <ele>238.1</ele>
        <time>2019-08-20T10:36:32Z</time>
      </trkpt>
      <trkpt lat="46.47048" lon="4.07831">
        <ele>238.2</ele>
        <time>2019-08-20T10:36:33Z</time>
      </trkpt>
      <trkpt lat="46.47049" lon="4.07824">
        <ele>238.2</ele>
        <time>2019-08-20T10:36:34Z</time>
      </trkpt>
      <trkpt lat="46.47049" lon="4.07815">
        <ele>238.3</ele>
        <time>2019-08-20T10:36:35Z</time>
      </trkpt>
      <trkpt lat="46.47051" lon="4.07809">
        <ele>238.3</ele>
        <time>2019-08-20T10:36:36Z</time>
      </trkpt>
      <trkpt lat="46.47052" lon="4.07803">
        <ele>238.4</ele>
        <time>2019-08-20T10:36:37Z</time>
      </trkpt>
      <trkpt lat="46.47054" lon="4.07797">
        <ele>238.3</ele>
        <time>2019-08-20T10:36:38Z</time>
      </trkpt>
      <trkpt lat="46.47056" lon="4.0779">
        <ele>238.2</ele>
        <time>2019-08-20T10:36:39Z</time>
      </trkpt>
      <trkpt lat="46.47057" lon="4.07785">
        <ele>238.2</ele>
        <time>2019-08-20T10:36:40Z</time>
      </trkpt>
      <trkpt lat="46.47059" lon="4.07779">
        <ele>238.1</ele>
        <time>2019-08-20T10:36:41Z</time>
      </trkpt>
      <trkpt lat="46.4706" lon="4.07773">
        <ele>238.1</ele>
        <time>2019-08-20T10:36:42Z</time>
      </trkpt>
      <trkpt lat="46.47062" lon="4.07767">
        <ele>238</ele>
        <time>2019-08-20T10:36:43Z</time>
      </trkpt>
      <trkpt lat="46.47063" lon="4.07761">
        <ele>237.9</ele>
        <time>2019-08-20T10:36:44Z</time>
      </trkpt>
      <trkpt lat="46.47065" lon="4.07754">
        <ele>237.9</ele>
        <time>2019-08-20T10:36:45Z</time>
      </trkpt>
      <trkpt lat="46.47067" lon="4.07747">
        <ele>237.8</ele>
        <time>2019-08-20T10:36:46Z</time>
      </trkpt>
      <trkpt lat="46.47069" lon="4.07742">
        <ele>237.8</ele>
        <time>2019-08-20T10:36:47Z</time>
      </trkpt>
      <trkpt lat="46.4707" lon="4.07737">
        <ele>237.8</ele>
        <time>2019-08-20T10:36:48Z</time>
      </trkpt>
      <trkpt lat="46.47072" lon="4.07734">
        <ele>237.8</ele>
        <time>2019-08-20T10:36:49Z</time>
      </trkpt>
      <trkpt lat="46.47077" lon="4.07728">
        <ele>237.7</ele>
        <time>2019-08-20T10:36:51Z</time>
      </trkpt>
      <trkpt lat="46.47079" lon="4.07724">
        <ele>237.8</ele>
        <time>2019-08-20T10:36:52Z</time>
      </trkpt>
      <trkpt lat="46.47081" lon="4.0772">
        <ele>237.8</ele>
        <time>2019-08-20T10:36:53Z</time>
      </trkpt>
      <trkpt lat="46.47084" lon="4.07715">
        <ele>237.8</ele>
        <time>2019-08-20T10:36:54Z</time>
      </trkpt>
      <trkpt lat="46.47086" lon="4.07709">
        <ele>237.9</ele>
        <time>2019-08-20T10:36:55Z</time>
      </trkpt>
      <trkpt lat="46.47088" lon="4.07705">
        <ele>237.9</ele>
        <time>2019-08-20T10:36:56Z</time>
      </trkpt>
      <trkpt lat="46.47092" lon="4.07702">
        <ele>238</ele>
        <time>2019-08-20T10:36:57Z</time>
      </trkpt>
      <trkpt lat="46.47095" lon="4.07701">
        <ele>238.1</ele>
        <time>2019-08-20T10:36:58Z</time>
      </trkpt>
      <trkpt lat="46.47098" lon="4.07698">
        <ele>238.1</ele>
        <time>2019-08-20T10:36:59Z</time>
      </trkpt>
      <trkpt lat="46.471" lon="4.07695">
        <ele>238.1</ele>
        <time>2019-08-20T10:37:00Z</time>
      </trkpt>
      <trkpt lat="46.47101" lon="4.0769">
        <ele>238.1</ele>
        <time>2019-08-20T10:37:01Z</time>
      </trkpt>
      <trkpt lat="46.47102" lon="4.07686">
        <ele>238.1</ele>
        <time>2019-08-20T10:37:02Z</time>
      </trkpt>
      <trkpt lat="46.47104" lon="4.07682">
        <ele>238.1</ele>
        <time>2019-08-20T10:37:03Z</time>
      </trkpt>
      <trkpt lat="46.47106" lon="4.07678">
        <ele>238.1</ele>
        <time>2019-08-20T10:37:04Z</time>
      </trkpt>
      <trkpt lat="46.47108" lon="4.07673">
        <ele>238.1</ele>
        <time>2019-08-20T10:37:05Z</time>
      </trkpt>
      <trkpt lat="46.47111" lon="4.07668">
        <ele>238.1</ele>
        <time>2019-08-20T10:37:06Z</time>
      </trkpt>
      <trkpt lat="46.47113" lon="4.07664">
        <ele>238.1</ele>
        <time>2019-08-20T10:37:07Z</time>
      </trkpt>
      <trkpt lat="46.47115" lon="4.07658">
        <ele>238.1</ele>
        <time>2019-08-20T10:37:08Z</time>
      </trkpt>
      <trkpt lat="46.47118" lon="4.07652">
        <ele>238.1</ele>
        <time>2019-08-20T10:37:09Z</time>
      </trkpt>
      <trkpt lat="46.4712" lon="4.07647">
        <ele>238.1</ele>
        <time>2019-08-20T10:37:10Z</time>
      </trkpt>
      <trkpt lat="46.47123" lon="4.07641">
        <ele>238.1</ele>
        <time>2019-08-20T10:37:11Z</time>
      </trkpt>
      <trkpt lat="46.47125" lon="4.07636">
        <ele>238.1</ele>
        <time>2019-08-20T10:37:12Z</time>
      </trkpt>
      <trkpt lat="46.47127" lon="4.07631">
        <ele>238.1</ele>
        <time>2019-08-20T10:37:13Z</time>
      </trkpt>
      <trkpt lat="46.47129" lon="4.07625">
        <ele>238.1</ele>
        <time>2019-08-20T10:37:14Z</time>
      </trkpt>
      <trkpt lat="46.47132" lon="4.07619">
        <ele>238.1</ele>
        <time>2019-08-20T10:37:15Z</time>
      </trkpt>
      <trkpt lat="46.47134" lon="4.07613">
        <ele>238.1</ele>
        <time>2019-08-20T10:37:16Z</time>
      </trkpt>
      <trkpt lat="46.47137" lon="4.07607">
        <ele>238.1</ele>
        <time>2019-08-20T10:37:17Z</time>
      </trkpt>
      <trkpt lat="46.47139" lon="4.07602">
        <ele>238.1</ele>
        <time>2019-08-20T10:37:18Z</time>
      </trkpt>
      <trkpt lat="46.47142" lon="4.07597">
        <ele>238.1</ele>
        <time>2019-08-20T10:37:19Z</time>
      </trkpt>
      <trkpt lat="46.47144" lon="4.07591">
        <ele>238.1</ele>
        <time>2019-08-20T10:37:20Z</time>
      </trkpt>
      <trkpt lat="46.47147" lon="4.07585">
        <ele>238.1</ele>
        <time>2019-08-20T10:37:21Z</time>
      </trkpt>
      <trkpt lat="46.47149" lon="4.0758">
        <ele>238.1</ele>
        <time>2019-08-20T10:37:22Z</time>
      </trkpt>
      <trkpt lat="46.47152" lon="4.07576">
        <ele>238.1</ele>
        <time>2019-08-20T10:37:23Z</time>
      </trkpt>
      <trkpt lat="46.47155" lon="4.0757">
        <ele>238.1</ele>
        <time>2019-08-20T10:37:24Z</time>
      </trkpt>
      <trkpt lat="46.47158" lon="4.07564">
        <ele>238.1</ele>
        <time>2019-08-20T10:37:25Z</time>
      </trkpt>
      <trkpt lat="46.47161" lon="4.07559">
        <ele>238.1</ele>
        <time>2019-08-20T10:37:26Z</time>
      </trkpt>
      <trkpt lat="46.47163" lon="4.07553">
        <ele>238.1</ele>
        <time>2019-08-20T10:37:27Z</time>
      </trkpt>
      <trkpt lat="46.47165" lon="4.07547">
        <ele>238.1</ele>
        <time>2019-08-20T10:37:28Z</time>
      </trkpt>
      <trkpt lat="46.47168" lon="4.07542">
        <ele>238.1</ele>
        <time>2019-08-20T10:37:29Z</time>
      </trkpt>
      <trkpt lat="46.47171" lon="4.07537">
        <ele>238.1</ele>
        <time>2019-08-20T10:37:30Z</time>
      </trkpt>
      <trkpt lat="46.47173" lon="4.07532">
        <ele>238.1</ele>
        <time>2019-08-20T10:37:31Z</time>
      </trkpt>
      <trkpt lat="46.47175" lon="4.07527">
        <ele>238.1</ele>
        <time>2019-08-20T10:37:32Z</time>
      </trkpt>
      <trkpt lat="46.47177" lon="4.07521">
        <ele>238.1</ele>
        <time>2019-08-20T10:37:33Z</time>
      </trkpt>
      <trkpt lat="46.47179" lon="4.07515">
        <ele>238.1</ele>
        <time>2019-08-20T10:37:34Z</time>
      </trkpt>
      <trkpt lat="46.47181" lon="4.07509">
        <ele>238.1</ele>
        <time>2019-08-20T10:37:35Z</time>
      </trkpt>
      <trkpt lat="46.47183" lon="4.07502">
        <ele>238.1</ele>
        <time>2019-08-20T10:37:36Z</time>
      </trkpt>
      <trkpt lat="46.47184" lon="4.07498">
        <ele>238.1</ele>
        <time>2019-08-20T10:37:37Z</time>
      </trkpt>
      <trkpt lat="46.47186" lon="4.0749">
        <ele>238.1</ele>
        <time>2019-08-20T10:37:38Z</time>
      </trkpt>
      <trkpt lat="46.47186" lon="4.07486">
        <ele>238.1</ele>
        <time>2019-08-20T10:37:39Z</time>
      </trkpt>
      <trkpt lat="46.47187" lon="4.0748">
        <ele>238.1</ele>
        <time>2019-08-20T10:37:40Z</time>
      </trkpt>
      <trkpt lat="46.47188" lon="4.07474">
        <ele>238.1</ele>
        <time>2019-08-20T10:37:41Z</time>
      </trkpt>
      <trkpt lat="46.47189" lon="4.07468">
        <ele>238.1</ele>
        <time>2019-08-20T10:37:42Z</time>
      </trkpt>
      <trkpt lat="46.4719" lon="4.07462">
        <ele>238.1</ele>
        <time>2019-08-20T10:37:43Z</time>
      </trkpt>
      <trkpt lat="46.47191" lon="4.07456">
        <ele>238.1</ele>
        <time>2019-08-20T10:37:44Z</time>
      </trkpt>
      <trkpt lat="46.47193" lon="4.07449">
        <ele>238.1</ele>
        <time>2019-08-20T10:37:45Z</time>
      </trkpt>
      <trkpt lat="46.47195" lon="4.07443">
        <ele>238.1</ele>
        <time>2019-08-20T10:37:46Z</time>
      </trkpt>
      <trkpt lat="46.47197" lon="4.07436">
        <ele>238.1</ele>
        <time>2019-08-20T10:37:47Z</time>
      </trkpt>
      <trkpt lat="46.47199" lon="4.07431">
        <ele>238.1</ele>
        <time>2019-08-20T10:37:48Z</time>
      </trkpt>
      <trkpt lat="46.47201" lon="4.07425">
        <ele>238.1</ele>
        <time>2019-08-20T10:37:49Z</time>
      </trkpt>
      <trkpt lat="46.47203" lon="4.0742">
        <ele>238.1</ele>
        <time>2019-08-20T10:37:50Z</time>
      </trkpt>
      <trkpt lat="46.47205" lon="4.07414">
        <ele>238.1</ele>
        <time>2019-08-20T10:37:51Z</time>
      </trkpt>
      <trkpt lat="46.47208" lon="4.07408">
        <ele>238.1</ele>
        <time>2019-08-20T10:37:52Z</time>
      </trkpt>
      <trkpt lat="46.4721" lon="4.07402">
        <ele>238.1</ele>
        <time>2019-08-20T10:37:53Z</time>
      </trkpt>
      <trkpt lat="46.47212" lon="4.07396">
        <ele>238.1</ele>
        <time>2019-08-20T10:37:54Z</time>
      </trkpt>
      <trkpt lat="46.47215" lon="4.0739">
        <ele>238.1</ele>
        <time>2019-08-20T10:37:55Z</time>
      </trkpt>
      <trkpt lat="46.47217" lon="4.07383">
        <ele>238.1</ele>
        <time>2019-08-20T10:37:56Z</time>
      </trkpt>
      <trkpt lat="46.47219" lon="4.07378">
        <ele>238.1</ele>
        <time>2019-08-20T10:37:57Z</time>
      </trkpt>
      <trkpt lat="46.47221" lon="4.07371">
        <ele>238.1</ele>
        <time>2019-08-20T10:37:58Z</time>
      </trkpt>
      <trkpt lat="46.47223" lon="4.07365">
        <ele>238.1</ele>
        <time>2019-08-20T10:37:59Z</time>
      </trkpt>
      <trkpt lat="46.47225" lon="4.07359">
        <ele>238.1</ele>
        <time>2019-08-20T10:38:00Z</time>
      </trkpt>
      <trkpt lat="46.47227" lon="4.07353">
        <ele>238.1</ele>
        <time>2019-08-20T10:38:01Z</time>
      </trkpt>
      <trkpt lat="46.4723" lon="4.07346">
        <ele>238.1</ele>
        <time>2019-08-20T10:38:02Z</time>
      </trkpt>
      <trkpt lat="46.47232" lon="4.0734">
        <ele>238.1</ele>
        <time>2019-08-20T10:38:03Z</time>
      </trkpt>
      <trkpt lat="46.47234" lon="4.07333">
        <ele>238.1</ele>
        <time>2019-08-20T10:38:04Z</time>
      </trkpt>
      <trkpt lat="46.47237" lon="4.07327">
        <ele>238.1</ele>
        <time>2019-08-20T10:38:05Z</time>
      </trkpt>
      <trkpt lat="46.4724" lon="4.07321">
        <ele>238.1</ele>
        <time>2019-08-20T10:38:06Z</time>
      </trkpt>
      <trkpt lat="46.47243" lon="4.07314">
        <ele>238.1</ele>
        <time>2019-08-20T10:38:07Z</time>
      </trkpt>
      <trkpt lat="46.47245" lon="4.07307">
        <ele>238.1</ele>
        <time>2019-08-20T10:38:08Z</time>
      </trkpt>
      <trkpt lat="46.47248" lon="4.073">
        <ele>238.1</ele>
        <time>2019-08-20T10:38:09Z</time>
      </trkpt>
      <trkpt lat="46.4725" lon="4.07294">
        <ele>238.1</ele>
        <time>2019-08-20T10:38:10Z</time>
      </trkpt>
      <trkpt lat="46.47253" lon="4.07288">
        <ele>238.1</ele>
        <time>2019-08-20T10:38:11Z</time>
      </trkpt>
      <trkpt lat="46.47255" lon="4.07282">
        <ele>238.1</ele>
        <time>2019-08-20T10:38:12Z</time>
      </trkpt>
      <trkpt lat="46.47257" lon="4.07276">
        <ele>238.1</ele>
        <time>2019-08-20T10:38:13Z</time>
      </trkpt>
      <trkpt lat="46.4726" lon="4.07271">
        <ele>238.1</ele>
        <time>2019-08-20T10:38:14Z</time>
      </trkpt>
      <trkpt lat="46.47262" lon="4.07265">
        <ele>238.1</ele>
        <time>2019-08-20T10:38:15Z</time>
      </trkpt>
      <trkpt lat="46.47265" lon="4.07259">
        <ele>238.1</ele>
        <time>2019-08-20T10:38:16Z</time>
      </trkpt>
      <trkpt lat="46.47268" lon="4.07253">
        <ele>238.1</ele>
        <time>2019-08-20T10:38:17Z</time>
      </trkpt>
      <trkpt lat="46.4727" lon="4.07247">
        <ele>238.1</ele>
        <time>2019-08-20T10:38:18Z</time>
      </trkpt>
      <trkpt lat="46.47273" lon="4.0724">
        <ele>238.1</ele>
        <time>2019-08-20T10:38:19Z</time>
      </trkpt>
      <trkpt lat="46.47275" lon="4.07236">
        <ele>238.1</ele>
        <time>2019-08-20T10:38:20Z</time>
      </trkpt>
      <trkpt lat="46.47278" lon="4.07227">
        <ele>238.1</ele>
        <time>2019-08-20T10:38:21Z</time>
      </trkpt>
      <trkpt lat="46.4728" lon="4.07221">
        <ele>238.1</ele>
        <time>2019-08-20T10:38:22Z</time>
      </trkpt>
      <trkpt lat="46.47283" lon="4.07215">
        <ele>238.1</ele>
        <time>2019-08-20T10:38:23Z</time>
      </trkpt>
      <trkpt lat="46.47286" lon="4.07208">
        <ele>238.1</ele>
        <time>2019-08-20T10:38:24Z</time>
      </trkpt>
      <trkpt lat="46.47289" lon="4.07201">
        <ele>238.1</ele>
        <time>2019-08-20T10:38:25Z</time>
      </trkpt>
      <trkpt lat="46.47292" lon="4.07196">
        <ele>238.1</ele>
        <time>2019-08-20T10:38:26Z</time>
      </trkpt>
      <trkpt lat="46.47294" lon="4.0719">
        <ele>238.1</ele>
        <time>2019-08-20T10:38:27Z</time>
      </trkpt>
      <trkpt lat="46.47295" lon="4.07183">
        <ele>238.1</ele>
        <time>2019-08-20T10:38:28Z</time>
      </trkpt>
      <trkpt lat="46.47297" lon="4.07176">
        <ele>238.1</ele>
        <time>2019-08-20T10:38:29Z</time>
      </trkpt>
      <trkpt lat="46.47299" lon="4.07169">
        <ele>238.1</ele>
        <time>2019-08-20T10:38:30Z</time>
      </trkpt>
      <trkpt lat="46.473" lon="4.07163">
        <ele>238.1</ele>
        <time>2019-08-20T10:38:31Z</time>
      </trkpt>
      <trkpt lat="46.47302" lon="4.07157">
        <ele>238.1</ele>
        <time>2019-08-20T10:38:32Z</time>
      </trkpt>
      <trkpt lat="46.47303" lon="4.07149">
        <ele>238.1</ele>
        <time>2019-08-20T10:38:33Z</time>
      </trkpt>
      <trkpt lat="46.47305" lon="4.07142">
        <ele>238.1</ele>
        <time>2019-08-20T10:38:34Z</time>
      </trkpt>
      <trkpt lat="46.47307" lon="4.07136">
        <ele>238.1</ele>
        <time>2019-08-20T10:38:35Z</time>
      </trkpt>
      <trkpt lat="46.47309" lon="4.07129">
        <ele>238.1</ele>
        <time>2019-08-20T10:38:36Z</time>
      </trkpt>
      <trkpt lat="46.47311" lon="4.0712">
        <ele>238.1</ele>
        <time>2019-08-20T10:38:37Z</time>
      </trkpt>
      <trkpt lat="46.47314" lon="4.07114">
        <ele>238.1</ele>
        <time>2019-08-20T10:38:38Z</time>
      </trkpt>
      <trkpt lat="46.47316" lon="4.07108">
        <ele>238.1</ele>
        <time>2019-08-20T10:38:39Z</time>
      </trkpt>
      <trkpt lat="46.47318" lon="4.07102">
        <ele>238.1</ele>
        <time>2019-08-20T10:38:40Z</time>
      </trkpt>
      <trkpt lat="46.4732" lon="4.07095">
        <ele>238.1</ele>
        <time>2019-08-20T10:38:41Z</time>
      </trkpt>
      <trkpt lat="46.47321" lon="4.0709">
        <ele>238.1</ele>
        <time>2019-08-20T10:38:42Z</time>
      </trkpt>
      <trkpt lat="46.47323" lon="4.07084">
        <ele>238.1</ele>
        <time>2019-08-20T10:38:43Z</time>
      </trkpt>
      <trkpt lat="46.47325" lon="4.07078">
        <ele>238.1</ele>
        <time>2019-08-20T10:38:44Z</time>
      </trkpt>
      <trkpt lat="46.47327" lon="4.07072">
        <ele>238.1</ele>
        <time>2019-08-20T10:38:45Z</time>
      </trkpt>
      <trkpt lat="46.47329" lon="4.07067">
        <ele>238.1</ele>
        <time>2019-08-20T10:38:46Z</time>
      </trkpt>
      <trkpt lat="46.4733" lon="4.07062">
        <ele>238.1</ele>
        <time>2019-08-20T10:38:47Z</time>
      </trkpt>
      <trkpt lat="46.47332" lon="4.07056">
        <ele>238.1</ele>
        <time>2019-08-20T10:38:48Z</time>
      </trkpt>
      <trkpt lat="46.47334" lon="4.0705">
        <ele>238.1</ele>
        <time>2019-08-20T10:38:49Z</time>
      </trkpt>
      <trkpt lat="46.47335" lon="4.07044">
        <ele>238.1</ele>
        <time>2019-08-20T10:38:50Z</time>
      </trkpt>
      <trkpt lat="46.47337" lon="4.07038">
        <ele>238.1</ele>
        <time>2019-08-20T10:38:51Z</time>
      </trkpt>
      <trkpt lat="46.4734" lon="4.0703">
        <ele>238.1</ele>
        <time>2019-08-20T10:38:52Z</time>
      </trkpt>
      <trkpt lat="46.47343" lon="4.07024">
        <ele>238.1</ele>
        <time>2019-08-20T10:38:53Z</time>
      </trkpt>
      <trkpt lat="46.47346" lon="4.07017">
        <ele>238.1</ele>
        <time>2019-08-20T10:38:54Z</time>
      </trkpt>
      <trkpt lat="46.47348" lon="4.07011">
        <ele>238.1</ele>
        <time>2019-08-20T10:38:55Z</time>
      </trkpt>
      <trkpt lat="46.47351" lon="4.07004">
        <ele>238.1</ele>
        <time>2019-08-20T10:38:56Z</time>
      </trkpt>
      <trkpt lat="46.47353" lon="4.06997">
        <ele>238.1</ele>
        <time>2019-08-20T10:38:57Z</time>
      </trkpt>
      <trkpt lat="46.47355" lon="4.0699">
        <ele>238.1</ele>
        <time>2019-08-20T10:38:58Z</time>
      </trkpt>
      <trkpt lat="46.47357" lon="4.06983">
        <ele>238.1</ele>
        <time>2019-08-20T10:38:59Z</time>
      </trkpt>
      <trkpt lat="46.4736" lon="4.06976">
        <ele>238.1</ele>
        <time>2019-08-20T10:39:00Z</time>
      </trkpt>
      <trkpt lat="46.47363" lon="4.06969">
        <ele>238.1</ele>
        <time>2019-08-20T10:39:01Z</time>
      </trkpt>
      <trkpt lat="46.47365" lon="4.06962">
        <ele>238.1</ele>
        <time>2019-08-20T10:39:02Z</time>
      </trkpt>
      <trkpt lat="46.47368" lon="4.06956">
        <ele>238.1</ele>
        <time>2019-08-20T10:39:03Z</time>
      </trkpt>
      <trkpt lat="46.47371" lon="4.06949">
        <ele>238.1</ele>
        <time>2019-08-20T10:39:04Z</time>
      </trkpt>
      <trkpt lat="46.47374" lon="4.06943">
        <ele>238.1</ele>
        <time>2019-08-20T10:39:05Z</time>
      </trkpt>
      <trkpt lat="46.47378" lon="4.06936">
        <ele>238.1</ele>
        <time>2019-08-20T10:39:06Z</time>
      </trkpt>
      <trkpt lat="46.47381" lon="4.0693">
        <ele>238.1</ele>
        <time>2019-08-20T10:39:07Z</time>
      </trkpt>
      <trkpt lat="46.47385" lon="4.06923">
        <ele>238.1</ele>
        <time>2019-08-20T10:39:08Z</time>
      </trkpt>
      <trkpt lat="46.47388" lon="4.06917">
        <ele>238.1</ele>
        <time>2019-08-20T10:39:09Z</time>
      </trkpt>
      <trkpt lat="46.47392" lon="4.06911">
        <ele>238.1</ele>
        <time>2019-08-20T10:39:10Z</time>
      </trkpt>
      <trkpt lat="46.47396" lon="4.06905">
        <ele>238.1</ele>
        <time>2019-08-20T10:39:11Z</time>
      </trkpt>
      <trkpt lat="46.474" lon="4.069">
        <ele>238.1</ele>
        <time>2019-08-20T10:39:12Z</time>
      </trkpt>
      <trkpt lat="46.47404" lon="4.06895">
        <ele>238.1</ele>
        <time>2019-08-20T10:39:13Z</time>
      </trkpt>
      <trkpt lat="46.47408" lon="4.06891">
        <ele>238.1</ele>
        <time>2019-08-20T10:39:14Z</time>
      </trkpt>
      <trkpt lat="46.47413" lon="4.06887">
        <ele>238.1</ele>
        <time>2019-08-20T10:39:15Z</time>
      </trkpt>
      <trkpt lat="46.47417" lon="4.06882">
        <ele>238.1</ele>
        <time>2019-08-20T10:39:16Z</time>
      </trkpt>
      <trkpt lat="46.47421" lon="4.06878">
        <ele>238.1</ele>
        <time>2019-08-20T10:39:17Z</time>
      </trkpt>
      <trkpt lat="46.47424" lon="4.06875">
        <ele>238.1</ele>
        <time>2019-08-20T10:39:18Z</time>
      </trkpt>
      <trkpt lat="46.47427" lon="4.06872">
        <ele>238.1</ele>
        <time>2019-08-20T10:39:19Z</time>
      </trkpt>
      <trkpt lat="46.4743" lon="4.06868">
        <ele>238.1</ele>
        <time>2019-08-20T10:39:20Z</time>
      </trkpt>
      <trkpt lat="46.47433" lon="4.06865">
        <ele>238.1</ele>
        <time>2019-08-20T10:39:21Z</time>
      </trkpt>
      <trkpt lat="46.47439" lon="4.0686">
        <ele>238.1</ele>
        <time>2019-08-20T10:39:22Z</time>
      </trkpt>
      <trkpt lat="46.47443" lon="4.06857">
        <ele>238.1</ele>
        <time>2019-08-20T10:39:23Z</time>
      </trkpt>
      <trkpt lat="46.47447" lon="4.06854">
        <ele>238.1</ele>
        <time>2019-08-20T10:39:24Z</time>
      </trkpt>
      <trkpt lat="46.47451" lon="4.06851">
        <ele>238.1</ele>
        <time>2019-08-20T10:39:25Z</time>
      </trkpt>
      <trkpt lat="46.47455" lon="4.06846">
        <ele>238.1</ele>
        <time>2019-08-20T10:39:26Z</time>
      </trkpt>
      <trkpt lat="46.47459" lon="4.06843">
        <ele>238.1</ele>
        <time>2019-08-20T10:39:27Z</time>
      </trkpt>
      <trkpt lat="46.47464" lon="4.06839">
        <ele>238.1</ele>
        <time>2019-08-20T10:39:28Z</time>
      </trkpt>
      <trkpt lat="46.47468" lon="4.06835">
        <ele>238.1</ele>
        <time>2019-08-20T10:39:29Z</time>
      </trkpt>
      <trkpt lat="46.47472" lon="4.06831">
        <ele>238.1</ele>
        <time>2019-08-20T10:39:30Z</time>
      </trkpt>
      <trkpt lat="46.47475" lon="4.06827">
        <ele>238.1</ele>
        <time>2019-08-20T10:39:31Z</time>
      </trkpt>
      <trkpt lat="46.47478" lon="4.06823">
        <ele>238.1</ele>
        <time>2019-08-20T10:39:32Z</time>
      </trkpt>
      <trkpt lat="46.47482" lon="4.06819">
        <ele>238.1</ele>
        <time>2019-08-20T10:39:33Z</time>
      </trkpt>
      <trkpt lat="46.47485" lon="4.06816">
        <ele>238.1</ele>
        <time>2019-08-20T10:39:34Z</time>
      </trkpt>
      <trkpt lat="46.47489" lon="4.06812">
        <ele>238.1</ele>
        <time>2019-08-20T10:39:35Z</time>
      </trkpt>
      <trkpt lat="46.47492" lon="4.06809">
        <ele>238.1</ele>
        <time>2019-08-20T10:39:36Z</time>
      </trkpt>
      <trkpt lat="46.47495" lon="4.06807">
        <ele>238.1</ele>
        <time>2019-08-20T10:39:37Z</time>
      </trkpt>
      <trkpt lat="46.47499" lon="4.06802">
        <ele>238.1</ele>
        <time>2019-08-20T10:39:38Z</time>
      </trkpt>
      <trkpt lat="46.47504" lon="4.06799">
        <ele>238.1</ele>
        <time>2019-08-20T10:39:39Z</time>
      </trkpt>
      <trkpt lat="46.47507" lon="4.06796">
        <ele>238.1</ele>
        <time>2019-08-20T10:39:40Z</time>
      </trkpt>
      <trkpt lat="46.47511" lon="4.06792">
        <ele>238.1</ele>
        <time>2019-08-20T10:39:41Z</time>
      </trkpt>
      <trkpt lat="46.47515" lon="4.06788">
        <ele>238.1</ele>
        <time>2019-08-20T10:39:42Z</time>
      </trkpt>
      <trkpt lat="46.47518" lon="4.06784">
        <ele>238.1</ele>
        <time>2019-08-20T10:39:43Z</time>
      </trkpt>
      <trkpt lat="46.47522" lon="4.0678">
        <ele>238.1</ele>
        <time>2019-08-20T10:39:44Z</time>
      </trkpt>
      <trkpt lat="46.47527" lon="4.06776">
        <ele>238.1</ele>
        <time>2019-08-20T10:39:45Z</time>
      </trkpt>
      <trkpt lat="46.47531" lon="4.06771">
        <ele>238.1</ele>
        <time>2019-08-20T10:39:46Z</time>
      </trkpt>
      <trkpt lat="46.47534" lon="4.06768">
        <ele>238.1</ele>
        <time>2019-08-20T10:39:47Z</time>
      </trkpt>
      <trkpt lat="46.47538" lon="4.06764">
        <ele>238.1</ele>
        <time>2019-08-20T10:39:48Z</time>
      </trkpt>
      <trkpt lat="46.47543" lon="4.0676">
        <ele>238.1</ele>
        <time>2019-08-20T10:39:49Z</time>
      </trkpt>
      <trkpt lat="46.47547" lon="4.06757">
        <ele>238.1</ele>
        <time>2019-08-20T10:39:50Z</time>
      </trkpt>
      <trkpt lat="46.47551" lon="4.06753">
        <ele>238.1</ele>
        <time>2019-08-20T10:39:51Z</time>
      </trkpt>
      <trkpt lat="46.47554" lon="4.06751">
        <ele>238.1</ele>
        <time>2019-08-20T10:39:52Z</time>
      </trkpt>
      <trkpt lat="46.47558" lon="4.06747">
        <ele>238.1</ele>
        <time>2019-08-20T10:39:53Z</time>
      </trkpt>
      <trkpt lat="46.47562" lon="4.06744">
        <ele>238.1</ele>
        <time>2019-08-20T10:39:54Z</time>
      </trkpt>
      <trkpt lat="46.47566" lon="4.0674">
        <ele>238.1</ele>
        <time>2019-08-20T10:39:55Z</time>
      </trkpt>
      <trkpt lat="46.4757" lon="4.06737">
        <ele>238.1</ele>
        <time>2019-08-20T10:39:56Z</time>
      </trkpt>
      <trkpt lat="46.47573" lon="4.06734">
        <ele>238.1</ele>
        <time>2019-08-20T10:39:57Z</time>
      </trkpt>
      <trkpt lat="46.47576" lon="4.0673">
        <ele>238.1</ele>
        <time>2019-08-20T10:39:58Z</time>
      </trkpt>
      <trkpt lat="46.4758" lon="4.06726">
        <ele>238.1</ele>
        <time>2019-08-20T10:39:59Z</time>
      </trkpt>
      <trkpt lat="46.47584" lon="4.06722">
        <ele>238.1</ele>
        <time>2019-08-20T10:40:00Z</time>
      </trkpt>
      <trkpt lat="46.47587" lon="4.06718">
        <ele>238.1</ele>
        <time>2019-08-20T10:40:01Z</time>
      </trkpt>
      <trkpt lat="46.47591" lon="4.06713">
        <ele>238.1</ele>
        <time>2019-08-20T10:40:02Z</time>
      </trkpt>
      <trkpt lat="46.47595" lon="4.06709">
        <ele>238.1</ele>
        <time>2019-08-20T10:40:03Z</time>
      </trkpt>
      <trkpt lat="46.47599" lon="4.06707">
        <ele>238.1</ele>
        <time>2019-08-20T10:40:04Z</time>
      </trkpt>
      <trkpt lat="46.47603" lon="4.06704">
        <ele>238.1</ele>
        <time>2019-08-20T10:40:05Z</time>
      </trkpt>
      <trkpt lat="46.47607" lon="4.06702">
        <ele>238.1</ele>
        <time>2019-08-20T10:40:06Z</time>
      </trkpt>
      <trkpt lat="46.47611" lon="4.06699">
        <ele>238.1</ele>
        <time>2019-08-20T10:40:07Z</time>
      </trkpt>
      <trkpt lat="46.47616" lon="4.06696">
        <ele>238.1</ele>
        <time>2019-08-20T10:40:08Z</time>
      </trkpt>
      <trkpt lat="46.4762" lon="4.06694">
        <ele>238.1</ele>
        <time>2019-08-20T10:40:09Z</time>
      </trkpt>
      <trkpt lat="46.47625" lon="4.06691">
        <ele>238.1</ele>
        <time>2019-08-20T10:40:10Z</time>
      </trkpt>
      <trkpt lat="46.47632" lon="4.06691">
        <ele>238.1</ele>
        <time>2019-08-20T10:40:11Z</time>
      </trkpt>
      <trkpt lat="46.47637" lon="4.0669">
        <ele>238.1</ele>
        <time>2019-08-20T10:40:12Z</time>
      </trkpt>
      <trkpt lat="46.47642" lon="4.06687">
        <ele>238.1</ele>
        <time>2019-08-20T10:40:13Z</time>
      </trkpt>
      <trkpt lat="46.47646" lon="4.06685">
        <ele>238.1</ele>
        <time>2019-08-20T10:40:14Z</time>
      </trkpt>
      <trkpt lat="46.4765" lon="4.06681">
        <ele>238.1</ele>
        <time>2019-08-20T10:40:15Z</time>
      </trkpt>
      <trkpt lat="46.47655" lon="4.06678">
        <ele>238.1</ele>
        <time>2019-08-20T10:40:16Z</time>
      </trkpt>
      <trkpt lat="46.47661" lon="4.06675">
        <ele>238.1</ele>
        <time>2019-08-20T10:40:17Z</time>
      </trkpt>
      <trkpt lat="46.47665" lon="4.06672">
        <ele>238.1</ele>
        <time>2019-08-20T10:40:18Z</time>
      </trkpt>
      <trkpt lat="46.4767" lon="4.06669">
        <ele>238.1</ele>
        <time>2019-08-20T10:40:19Z</time>
      </trkpt>
      <trkpt lat="46.47675" lon="4.06667">
        <ele>238.1</ele>
        <time>2019-08-20T10:40:20Z</time>
      </trkpt>
      <trkpt lat="46.4768" lon="4.06664">
        <ele>238.1</ele>
        <time>2019-08-20T10:40:21Z</time>
      </trkpt>
      <trkpt lat="46.47685" lon="4.06663">
        <ele>238.1</ele>
        <time>2019-08-20T10:40:22Z</time>
      </trkpt>
      <trkpt lat="46.47691" lon="4.06662">
        <ele>238.1</ele>
        <time>2019-08-20T10:40:23Z</time>
      </trkpt>
      <trkpt lat="46.47697" lon="4.06661">
        <ele>238.1</ele>
        <time>2019-08-20T10:40:24Z</time>
      </trkpt>
      <trkpt lat="46.47702" lon="4.06659">
        <ele>238.1</ele>
        <time>2019-08-20T10:40:25Z</time>
      </trkpt>
      <trkpt lat="46.47707" lon="4.06658">
        <ele>238.1</ele>
        <time>2019-08-20T10:40:26Z</time>
      </trkpt>
      <trkpt lat="46.47713" lon="4.06656">
        <ele>238.1</ele>
        <time>2019-08-20T10:40:27Z</time>
      </trkpt>
      <trkpt lat="46.47718" lon="4.06655">
        <ele>238.1</ele>
        <time>2019-08-20T10:40:28Z</time>
      </trkpt>
      <trkpt lat="46.47723" lon="4.06654">
        <ele>238.1</ele>
        <time>2019-08-20T10:40:29Z</time>
      </trkpt>
      <trkpt lat="46.47728" lon="4.06653">
        <ele>238.1</ele>
        <time>2019-08-20T10:40:30Z</time>
      </trkpt>
      <trkpt lat="46.47733" lon="4.06651">
        <ele>238.1</ele>
        <time>2019-08-20T10:40:31Z</time>
      </trkpt>
      <trkpt lat="46.47738" lon="4.0665">
        <ele>238.1</ele>
        <time>2019-08-20T10:40:32Z</time>
      </trkpt>
      <trkpt lat="46.47742" lon="4.0665">
        <ele>238.1</ele>
        <time>2019-08-20T10:40:33Z</time>
      </trkpt>
      <trkpt lat="46.47747" lon="4.06649">
        <ele>238.1</ele>
        <time>2019-08-20T10:40:34Z</time>
      </trkpt>
      <trkpt lat="46.47752" lon="4.06649">
        <ele>238.1</ele>
        <time>2019-08-20T10:40:35Z</time>
      </trkpt>
      <trkpt lat="46.47757" lon="4.06649">
        <ele>238.1</ele>
        <time>2019-08-20T10:40:36Z</time>
      </trkpt>
      <trkpt lat="46.47762" lon="4.06648">
        <ele>238.1</ele>
        <time>2019-08-20T10:40:37Z</time>
      </trkpt>
      <trkpt lat="46.47767" lon="4.06648">
        <ele>238.1</ele>
        <time>2019-08-20T10:40:38Z</time>
      </trkpt>
      <trkpt lat="46.47771" lon="4.06647">
        <ele>238.1</ele>
        <time>2019-08-20T10:40:39Z</time>
      </trkpt>
      <trkpt lat="46.47775" lon="4.06646">
        <ele>238.1</ele>
        <time>2019-08-20T10:40:40Z</time>
      </trkpt>
      <trkpt lat="46.4778" lon="4.06646">
        <ele>238.1</ele>
        <time>2019-08-20T10:40:41Z</time>
      </trkpt>
      <trkpt lat="46.47784" lon="4.06645">
        <ele>238.1</ele>
        <time>2019-08-20T10:40:42Z</time>
      </trkpt>
      <trkpt lat="46.47788" lon="4.06644">
        <ele>238.1</ele>
        <time>2019-08-20T10:40:43Z</time>
      </trkpt>
      <trkpt lat="46.47793" lon="4.06643">
        <ele>238.1</ele>
        <time>2019-08-20T10:40:44Z</time>
      </trkpt>
      <trkpt lat="46.47798" lon="4.06642">
        <ele>238.1</ele>
        <time>2019-08-20T10:40:45Z</time>
      </trkpt>
      <trkpt lat="46.47803" lon="4.06642">
        <ele>238.1</ele>
        <time>2019-08-20T10:40:46Z</time>
      </trkpt>
      <trkpt lat="46.47808" lon="4.06641">
        <ele>238.1</ele>
        <time>2019-08-20T10:40:47Z</time>
      </trkpt>
      <trkpt lat="46.47813" lon="4.0664">
        <ele>238.1</ele>
        <time>2019-08-20T10:40:48Z</time>
      </trkpt>
      <trkpt lat="46.47817" lon="4.0664">
        <ele>238.1</ele>
        <time>2019-08-20T10:40:49Z</time>
      </trkpt>
      <trkpt lat="46.47822" lon="4.0664">
        <ele>238.1</ele>
        <time>2019-08-20T10:40:50Z</time>
      </trkpt>
      <trkpt lat="46.47826" lon="4.0664">
        <ele>238.1</ele>
        <time>2019-08-20T10:40:51Z</time>
      </trkpt>
      <trkpt lat="46.4783" lon="4.0664">
        <ele>238.1</ele>
        <time>2019-08-20T10:40:52Z</time>
      </trkpt>
      <trkpt lat="46.47834" lon="4.06639">
        <ele>238.1</ele>
        <time>2019-08-20T10:40:53Z</time>
      </trkpt>
      <trkpt lat="46.4784" lon="4.06637">
        <ele>238.1</ele>
        <time>2019-08-20T10:40:54Z</time>
      </trkpt>
      <trkpt lat="46.47845" lon="4.06634">
        <ele>238.1</ele>
        <time>2019-08-20T10:40:55Z</time>
      </trkpt>
      <trkpt lat="46.4785" lon="4.06632">
        <ele>238.1</ele>
        <time>2019-08-20T10:40:56Z</time>
      </trkpt>
      <trkpt lat="46.47854" lon="4.06629">
        <ele>238.1</ele>
        <time>2019-08-20T10:40:57Z</time>
      </trkpt>
      <trkpt lat="46.47858" lon="4.06626">
        <ele>238.1</ele>
        <time>2019-08-20T10:40:58Z</time>
      </trkpt>
      <trkpt lat="46.47861" lon="4.06623">
        <ele>238.1</ele>
        <time>2019-08-20T10:40:59Z</time>
      </trkpt>
      <trkpt lat="46.47865" lon="4.0662">
        <ele>238.1</ele>
        <time>2019-08-20T10:41:00Z</time>
      </trkpt>
      <trkpt lat="46.47869" lon="4.06616">
        <ele>238.1</ele>
        <time>2019-08-20T10:41:01Z</time>
      </trkpt>
      <trkpt lat="46.47872" lon="4.06612">
        <ele>238.1</ele>
        <time>2019-08-20T10:41:02Z</time>
      </trkpt>
      <trkpt lat="46.47877" lon="4.06608">
        <ele>238.1</ele>
        <time>2019-08-20T10:41:03Z</time>
      </trkpt>
      <trkpt lat="46.4788" lon="4.06603">
        <ele>238.1</ele>
        <time>2019-08-20T10:41:04Z</time>
      </trkpt>
      <trkpt lat="46.47884" lon="4.06598">
        <ele>238.1</ele>
        <time>2019-08-20T10:41:05Z</time>
      </trkpt>
      <trkpt lat="46.47888" lon="4.06592">
        <ele>238.1</ele>
        <time>2019-08-20T10:41:06Z</time>
      </trkpt>
      <trkpt lat="46.47892" lon="4.06587">
        <ele>238.1</ele>
        <time>2019-08-20T10:41:07Z</time>
      </trkpt>
      <trkpt lat="46.47895" lon="4.06582">
        <ele>238.1</ele>
        <time>2019-08-20T10:41:08Z</time>
      </trkpt>
      <trkpt lat="46.47898" lon="4.06578">
        <ele>238.1</ele>
        <time>2019-08-20T10:41:09Z</time>
      </trkpt>
      <trkpt lat="46.47902" lon="4.06573">
        <ele>238.1</ele>
        <time>2019-08-20T10:41:10Z</time>
      </trkpt>
      <trkpt lat="46.47905" lon="4.06569">
        <ele>238.1</ele>
        <time>2019-08-20T10:41:11Z</time>
      </trkpt>
      <trkpt lat="46.47909" lon="4.06565">
        <ele>238.1</ele>
        <time>2019-08-20T10:41:12Z</time>
      </trkpt>
      <trkpt lat="46.47912" lon="4.06561">
        <ele>238.1</ele>
        <time>2019-08-20T10:41:13Z</time>
      </trkpt>
      <trkpt lat="46.47915" lon="4.06557">
        <ele>238.1</ele>
        <time>2019-08-20T10:41:14Z</time>
      </trkpt>
      <trkpt lat="46.47918" lon="4.06552">
        <ele>238.1</ele>
        <time>2019-08-20T10:41:15Z</time>
      </trkpt>
      <trkpt lat="46.47921" lon="4.06546">
        <ele>238.1</ele>
        <time>2019-08-20T10:41:16Z</time>
      </trkpt>
      <trkpt lat="46.47924" lon="4.0654">
        <ele>238.1</ele>
        <time>2019-08-20T10:41:17Z</time>
      </trkpt>
      <trkpt lat="46.47926" lon="4.06534">
        <ele>238.1</ele>
        <time>2019-08-20T10:41:18Z</time>
      </trkpt>
      <trkpt lat="46.47929" lon="4.06529">
        <ele>238.1</ele>
        <time>2019-08-20T10:41:19Z</time>
      </trkpt>
      <trkpt lat="46.47931" lon="4.06523">
        <ele>238.1</ele>
        <time>2019-08-20T10:41:20Z</time>
      </trkpt>
      <trkpt lat="46.47934" lon="4.06516">
        <ele>238.1</ele>
        <time>2019-08-20T10:41:21Z</time>
      </trkpt>
      <trkpt lat="46.47936" lon="4.06509">
        <ele>238.1</ele>
        <time>2019-08-20T10:41:22Z</time>
      </trkpt>
      <trkpt lat="46.47938" lon="4.06499">
        <ele>238.1</ele>
        <time>2019-08-20T10:41:23Z</time>
      </trkpt>
      <trkpt lat="46.4794" lon="4.06491">
        <ele>238.1</ele>
        <time>2019-08-20T10:41:24Z</time>
      </trkpt>
      <trkpt lat="46.47942" lon="4.06484">
        <ele>238.1</ele>
        <time>2019-08-20T10:41:25Z</time>
      </trkpt>
      <trkpt lat="46.47943" lon="4.06476">
        <ele>238.1</ele>
        <time>2019-08-20T10:41:26Z</time>
      </trkpt>
      <trkpt lat="46.47945" lon="4.06468">
        <ele>238.1</ele>
        <time>2019-08-20T10:41:27Z</time>
      </trkpt>
      <trkpt lat="46.47947" lon="4.0646">
        <ele>238.1</ele>
        <time>2019-08-20T10:41:28Z</time>
      </trkpt>
      <trkpt lat="46.47948" lon="4.06453">
        <ele>238.1</ele>
        <time>2019-08-20T10:41:29Z</time>
      </trkpt>
      <trkpt lat="46.47949" lon="4.06446">
        <ele>238.1</ele>
        <time>2019-08-20T10:41:30Z</time>
      </trkpt>
      <trkpt lat="46.4795" lon="4.0644">
        <ele>238.1</ele>
        <time>2019-08-20T10:41:31Z</time>
      </trkpt>
      <trkpt lat="46.47951" lon="4.06433">
        <ele>238.1</ele>
        <time>2019-08-20T10:41:32Z</time>
      </trkpt>
      <trkpt lat="46.47952" lon="4.06426">
        <ele>238.1</ele>
        <time>2019-08-20T10:41:33Z</time>
      </trkpt>
      <trkpt lat="46.47952" lon="4.06417">
        <ele>238.1</ele>
        <time>2019-08-20T10:41:34Z</time>
      </trkpt>
      <trkpt lat="46.47953" lon="4.06408">
        <ele>238.1</ele>
        <time>2019-08-20T10:41:35Z</time>
      </trkpt>
      <trkpt lat="46.47954" lon="4.06402">
        <ele>238.1</ele>
        <time>2019-08-20T10:41:36Z</time>
      </trkpt>
      <trkpt lat="46.47954" lon="4.06395">
        <ele>238.1</ele>
        <time>2019-08-20T10:41:37Z</time>
      </trkpt>
      <trkpt lat="46.47954" lon="4.06389">
        <ele>238.1</ele>
        <time>2019-08-20T10:41:38Z</time>
      </trkpt>
      <trkpt lat="46.47954" lon="4.06384">
        <ele>238.1</ele>
        <time>2019-08-20T10:41:39Z</time>
      </trkpt>
      <trkpt lat="46.47954" lon="4.06379">
        <ele>238.1</ele>
        <time>2019-08-20T10:41:40Z</time>
      </trkpt>
      <trkpt lat="46.47953" lon="4.06372">
        <ele>238.1</ele>
        <time>2019-08-20T10:41:41Z</time>
      </trkpt>
      <trkpt lat="46.47953" lon="4.06364">
        <ele>238.1</ele>
        <time>2019-08-20T10:41:42Z</time>
      </trkpt>
      <trkpt lat="46.47952" lon="4.06358">
        <ele>238.1</ele>
        <time>2019-08-20T10:41:43Z</time>
      </trkpt>
      <trkpt lat="46.47951" lon="4.06351">
        <ele>238.1</ele>
        <time>2019-08-20T10:41:44Z</time>
      </trkpt>
      <trkpt lat="46.4795" lon="4.06345">
        <ele>238.1</ele>
        <time>2019-08-20T10:41:45Z</time>
      </trkpt>
      <trkpt lat="46.47948" lon="4.06339">
        <ele>238.1</ele>
        <time>2019-08-20T10:41:46Z</time>
      </trkpt>
      <trkpt lat="46.47947" lon="4.06331">
        <ele>238.1</ele>
        <time>2019-08-20T10:41:47Z</time>
      </trkpt>
      <trkpt lat="46.47945" lon="4.06324">
        <ele>238.1</ele>
        <time>2019-08-20T10:41:48Z</time>
      </trkpt>
      <trkpt lat="46.47943" lon="4.06318">
        <ele>238.1</ele>
        <time>2019-08-20T10:41:49Z</time>
      </trkpt>
      <trkpt lat="46.4794" lon="4.06312">
        <ele>238.1</ele>
        <time>2019-08-20T10:41:50Z</time>
      </trkpt>
      <trkpt lat="46.47939" lon="4.06305">
        <ele>238.1</ele>
        <time>2019-08-20T10:41:51Z</time>
      </trkpt>
      <trkpt lat="46.47938" lon="4.06297">
        <ele>238.1</ele>
        <time>2019-08-20T10:41:52Z</time>
      </trkpt>
      <trkpt lat="46.47937" lon="4.0629">
        <ele>238.1</ele>
        <time>2019-08-20T10:41:53Z</time>
      </trkpt>
      <trkpt lat="46.47936" lon="4.06281">
        <ele>238.1</ele>
        <time>2019-08-20T10:41:54Z</time>
      </trkpt>
      <trkpt lat="46.47935" lon="4.06274">
        <ele>238.1</ele>
        <time>2019-08-20T10:41:55Z</time>
      </trkpt>
      <trkpt lat="46.47934" lon="4.06268">
        <ele>238.1</ele>
        <time>2019-08-20T10:41:56Z</time>
      </trkpt>
      <trkpt lat="46.47933" lon="4.06262">
        <ele>238.1</ele>
        <time>2019-08-20T10:41:57Z</time>
      </trkpt>
      <trkpt lat="46.47931" lon="4.06256">
        <ele>238.1</ele>
        <time>2019-08-20T10:41:58Z</time>
      </trkpt>
      <trkpt lat="46.4793" lon="4.06249">
        <ele>238.1</ele>
        <time>2019-08-20T10:41:59Z</time>
      </trkpt>
      <trkpt lat="46.4793" lon="4.06242">
        <ele>238.1</ele>
        <time>2019-08-20T10:42:00Z</time>
      </trkpt>
      <trkpt lat="46.4793" lon="4.06234">
        <ele>238.1</ele>
        <time>2019-08-20T10:42:01Z</time>
      </trkpt>
      <trkpt lat="46.47929" lon="4.06227">
        <ele>238.1</ele>
        <time>2019-08-20T10:42:02Z</time>
      </trkpt>
      <trkpt lat="46.47927" lon="4.06221">
        <ele>238.1</ele>
        <time>2019-08-20T10:42:03Z</time>
      </trkpt>
      <trkpt lat="46.47926" lon="4.06213">
        <ele>238.1</ele>
        <time>2019-08-20T10:42:04Z</time>
      </trkpt>
      <trkpt lat="46.47925" lon="4.06205">
        <ele>238.1</ele>
        <time>2019-08-20T10:42:05Z</time>
      </trkpt>
      <trkpt lat="46.47924" lon="4.06197">
        <ele>238.1</ele>
        <time>2019-08-20T10:42:06Z</time>
      </trkpt>
      <trkpt lat="46.47923" lon="4.0619">
        <ele>238</ele>
        <time>2019-08-20T10:42:07Z</time>
      </trkpt>
      <trkpt lat="46.47922" lon="4.06182">
        <ele>238</ele>
        <time>2019-08-20T10:42:08Z</time>
      </trkpt>
      <trkpt lat="46.47921" lon="4.06174">
        <ele>237.9</ele>
        <time>2019-08-20T10:42:09Z</time>
      </trkpt>
      <trkpt lat="46.4792" lon="4.06166">
        <ele>237.7</ele>
        <time>2019-08-20T10:42:10Z</time>
      </trkpt>
      <trkpt lat="46.47919" lon="4.06158">
        <ele>237.6</ele>
        <time>2019-08-20T10:42:11Z</time>
      </trkpt>
      <trkpt lat="46.47919" lon="4.06149">
        <ele>237.4</ele>
        <time>2019-08-20T10:42:12Z</time>
      </trkpt>
      <trkpt lat="46.47918" lon="4.06139">
        <ele>237.1</ele>
        <time>2019-08-20T10:42:13Z</time>
      </trkpt>
      <trkpt lat="46.47918" lon="4.06129">
        <ele>236.9</ele>
        <time>2019-08-20T10:42:14Z</time>
      </trkpt>
      <trkpt lat="46.47918" lon="4.0612">
        <ele>236.8</ele>
        <time>2019-08-20T10:42:15Z</time>
      </trkpt>
      <trkpt lat="46.47917" lon="4.06111">
        <ele>236.6</ele>
        <time>2019-08-20T10:42:16Z</time>
      </trkpt>
      <trkpt lat="46.47916" lon="4.06103">
        <ele>236.6</ele>
        <time>2019-08-20T10:42:17Z</time>
      </trkpt>
      <trkpt lat="46.47915" lon="4.06093">
        <ele>236.5</ele>
        <time>2019-08-20T10:42:18Z</time>
      </trkpt>
      <trkpt lat="46.47914" lon="4.06085">
        <ele>236.5</ele>
        <time>2019-08-20T10:42:19Z</time>
      </trkpt>
      <trkpt lat="46.47912" lon="4.06077">
        <ele>236.4</ele>
        <time>2019-08-20T10:42:20Z</time>
      </trkpt>
      <trkpt lat="46.47911" lon="4.06069">
        <ele>236.4</ele>
        <time>2019-08-20T10:42:21Z</time>
      </trkpt>
      <trkpt lat="46.4791" lon="4.0606">
        <ele>236.3</ele>
        <time>2019-08-20T10:42:22Z</time>
      </trkpt>
      <trkpt lat="46.47909" lon="4.0605">
        <ele>236.1</ele>
        <time>2019-08-20T10:42:23Z</time>
      </trkpt>
      <trkpt lat="46.47908" lon="4.06041">
        <ele>235.9</ele>
        <time>2019-08-20T10:42:24Z</time>
      </trkpt>
      <trkpt lat="46.47907" lon="4.06035">
        <ele>235.7</ele>
        <time>2019-08-20T10:42:25Z</time>
      </trkpt>
      <trkpt lat="46.47907" lon="4.06027">
        <ele>235.5</ele>
        <time>2019-08-20T10:42:26Z</time>
      </trkpt>
      <trkpt lat="46.47906" lon="4.06021">
        <ele>235.4</ele>
        <time>2019-08-20T10:42:27Z</time>
      </trkpt>
      <trkpt lat="46.47905" lon="4.06014">
        <ele>235.3</ele>
        <time>2019-08-20T10:42:28Z</time>
      </trkpt>
      <trkpt lat="46.47904" lon="4.06006">
        <ele>235.2</ele>
        <time>2019-08-20T10:42:29Z</time>
      </trkpt>
      <trkpt lat="46.47903" lon="4.05997">
        <ele>235.1</ele>
        <time>2019-08-20T10:42:30Z</time>
      </trkpt>
      <trkpt lat="46.47903" lon="4.05988">
        <ele>235</ele>
        <time>2019-08-20T10:42:31Z</time>
      </trkpt>
      <trkpt lat="46.47903" lon="4.05979">
        <ele>235</ele>
        <time>2019-08-20T10:42:32Z</time>
      </trkpt>
      <trkpt lat="46.47902" lon="4.05971">
        <ele>235</ele>
        <time>2019-08-20T10:42:33Z</time>
      </trkpt>
      <trkpt lat="46.47901" lon="4.05963">
        <ele>235</ele>
        <time>2019-08-20T10:42:34Z</time>
      </trkpt>
      <trkpt lat="46.47901" lon="4.05953">
        <ele>235</ele>
        <time>2019-08-20T10:42:35Z</time>
      </trkpt>
      <trkpt lat="46.479" lon="4.05944">
        <ele>235</ele>
        <time>2019-08-20T10:42:36Z</time>
      </trkpt>
      <trkpt lat="46.47901" lon="4.05939">
        <ele>235</ele>
        <time>2019-08-20T10:42:37Z</time>
      </trkpt>
      <trkpt lat="46.47901" lon="4.05931">
        <ele>235</ele>
        <time>2019-08-20T10:42:38Z</time>
      </trkpt>
      <trkpt lat="46.47902" lon="4.05924">
        <ele>235</ele>
        <time>2019-08-20T10:42:39Z</time>
      </trkpt>
      <trkpt lat="46.47903" lon="4.05915">
        <ele>235</ele>
        <time>2019-08-20T10:42:40Z</time>
      </trkpt>
      <trkpt lat="46.47904" lon="4.05906">
        <ele>235</ele>
        <time>2019-08-20T10:42:41Z</time>
      </trkpt>
      <trkpt lat="46.47904" lon="4.05897">
        <ele>235</ele>
        <time>2019-08-20T10:42:42Z</time>
      </trkpt>
      <trkpt lat="46.47905" lon="4.05888">
        <ele>235</ele>
        <time>2019-08-20T10:42:43Z</time>
      </trkpt>
      <trkpt lat="46.47906" lon="4.05882">
        <ele>235</ele>
        <time>2019-08-20T10:42:44Z</time>
      </trkpt>
      <trkpt lat="46.47908" lon="4.05874">
        <ele>235</ele>
        <time>2019-08-20T10:42:45Z</time>
      </trkpt>
      <trkpt lat="46.4791" lon="4.05868">
        <ele>235</ele>
        <time>2019-08-20T10:42:46Z</time>
      </trkpt>
      <trkpt lat="46.47912" lon="4.05861">
        <ele>235</ele>
        <time>2019-08-20T10:42:47Z</time>
      </trkpt>
      <trkpt lat="46.47915" lon="4.05854">
        <ele>235</ele>
        <time>2019-08-20T10:42:48Z</time>
      </trkpt>
      <trkpt lat="46.47918" lon="4.05847">
        <ele>235</ele>
        <time>2019-08-20T10:42:49Z</time>
      </trkpt>
      <trkpt lat="46.47921" lon="4.05841">
        <ele>235</ele>
        <time>2019-08-20T10:42:50Z</time>
      </trkpt>
      <trkpt lat="46.47925" lon="4.05837">
        <ele>235</ele>
        <time>2019-08-20T10:42:51Z</time>
      </trkpt>
      <trkpt lat="46.47928" lon="4.05831">
        <ele>235</ele>
        <time>2019-08-20T10:42:52Z</time>
      </trkpt>
      <trkpt lat="46.47933" lon="4.05822">
        <ele>235</ele>
        <time>2019-08-20T10:42:53Z</time>
      </trkpt>
      <trkpt lat="46.47938" lon="4.05814">
        <ele>235</ele>
        <time>2019-08-20T10:42:54Z</time>
      </trkpt>
      <trkpt lat="46.47941" lon="4.0581">
        <ele>235</ele>
        <time>2019-08-20T10:42:55Z</time>
      </trkpt>
      <trkpt lat="46.47945" lon="4.05804">
        <ele>235</ele>
        <time>2019-08-20T10:42:56Z</time>
      </trkpt>
      <trkpt lat="46.47949" lon="4.05797">
        <ele>235</ele>
        <time>2019-08-20T10:42:57Z</time>
      </trkpt>
      <trkpt lat="46.47954" lon="4.05791">
        <ele>235</ele>
        <time>2019-08-20T10:42:58Z</time>
      </trkpt>
      <trkpt lat="46.47958" lon="4.05785">
        <ele>235</ele>
        <time>2019-08-20T10:42:59Z</time>
      </trkpt>
      <trkpt lat="46.47962" lon="4.05779">
        <ele>235</ele>
        <time>2019-08-20T10:43:00Z</time>
      </trkpt>
      <trkpt lat="46.47966" lon="4.05774">
        <ele>235</ele>
        <time>2019-08-20T10:43:01Z</time>
      </trkpt>
      <trkpt lat="46.4797" lon="4.05769">
        <ele>235</ele>
        <time>2019-08-20T10:43:02Z</time>
      </trkpt>
      <trkpt lat="46.47974" lon="4.05762">
        <ele>235</ele>
        <time>2019-08-20T10:43:03Z</time>
      </trkpt>
      <trkpt lat="46.47978" lon="4.05757">
        <ele>235</ele>
        <time>2019-08-20T10:43:04Z</time>
      </trkpt>
      <trkpt lat="46.47982" lon="4.05753">
        <ele>235</ele>
        <time>2019-08-20T10:43:05Z</time>
      </trkpt>
      <trkpt lat="46.47987" lon="4.05747">
        <ele>235</ele>
        <time>2019-08-20T10:43:06Z</time>
      </trkpt>
      <trkpt lat="46.47991" lon="4.05742">
        <ele>235</ele>
        <time>2019-08-20T10:43:07Z</time>
      </trkpt>
      <trkpt lat="46.47995" lon="4.05737">
        <ele>235</ele>
        <time>2019-08-20T10:43:08Z</time>
      </trkpt>
      <trkpt lat="46.47999" lon="4.05732">
        <ele>235</ele>
        <time>2019-08-20T10:43:09Z</time>
      </trkpt>
      <trkpt lat="46.48003" lon="4.05726">
        <ele>235</ele>
        <time>2019-08-20T10:43:10Z</time>
      </trkpt>
      <trkpt lat="46.48007" lon="4.0572">
        <ele>235</ele>
        <time>2019-08-20T10:43:11Z</time>
      </trkpt>
      <trkpt lat="46.48011" lon="4.05714">
        <ele>235</ele>
        <time>2019-08-20T10:43:12Z</time>
      </trkpt>
      <trkpt lat="46.48014" lon="4.05708">
        <ele>235</ele>
        <time>2019-08-20T10:43:13Z</time>
      </trkpt>
      <trkpt lat="46.48018" lon="4.05703">
        <ele>235</ele>
        <time>2019-08-20T10:43:14Z</time>
      </trkpt>
      <trkpt lat="46.48021" lon="4.05698">
        <ele>235</ele>
        <time>2019-08-20T10:43:15Z</time>
      </trkpt>
      <trkpt lat="46.48024" lon="4.05693">
        <ele>235</ele>
        <time>2019-08-20T10:43:16Z</time>
      </trkpt>
      <trkpt lat="46.48027" lon="4.05689">
        <ele>235</ele>
        <time>2019-08-20T10:43:17Z</time>
      </trkpt>
      <trkpt lat="46.4803" lon="4.05683">
        <ele>235</ele>
        <time>2019-08-20T10:43:18Z</time>
      </trkpt>
      <trkpt lat="46.48033" lon="4.05677">
        <ele>235</ele>
        <time>2019-08-20T10:43:19Z</time>
      </trkpt>
      <trkpt lat="46.48037" lon="4.05672">
        <ele>235</ele>
        <time>2019-08-20T10:43:20Z</time>
      </trkpt>
      <trkpt lat="46.4804" lon="4.05666">
        <ele>235</ele>
        <time>2019-08-20T10:43:21Z</time>
      </trkpt>
      <trkpt lat="46.48043" lon="4.0566">
        <ele>235</ele>
        <time>2019-08-20T10:43:22Z</time>
      </trkpt>
      <trkpt lat="46.48046" lon="4.05655">
        <ele>235</ele>
        <time>2019-08-20T10:43:23Z</time>
      </trkpt>
      <trkpt lat="46.48049" lon="4.05648">
        <ele>235</ele>
        <time>2019-08-20T10:43:24Z</time>
      </trkpt>
      <trkpt lat="46.48051" lon="4.05643">
        <ele>235</ele>
        <time>2019-08-20T10:43:25Z</time>
      </trkpt>
      <trkpt lat="46.48055" lon="4.05637">
        <ele>235</ele>
        <time>2019-08-20T10:43:26Z</time>
      </trkpt>
      <trkpt lat="46.48058" lon="4.05631">
        <ele>235</ele>
        <time>2019-08-20T10:43:27Z</time>
      </trkpt>
      <trkpt lat="46.48061" lon="4.05626">
        <ele>235</ele>
        <time>2019-08-20T10:43:28Z</time>
      </trkpt>
      <trkpt lat="46.48064" lon="4.0562">
        <ele>235</ele>
        <time>2019-08-20T10:43:29Z</time>
      </trkpt>
      <trkpt lat="46.48067" lon="4.05614">
        <ele>235</ele>
        <time>2019-08-20T10:43:30Z</time>
      </trkpt>
      <trkpt lat="46.4807" lon="4.05609">
        <ele>235</ele>
        <time>2019-08-20T10:43:31Z</time>
      </trkpt>
      <trkpt lat="46.48074" lon="4.05604">
        <ele>235</ele>
        <time>2019-08-20T10:43:32Z</time>
      </trkpt>
      <trkpt lat="46.48077" lon="4.05598">
        <ele>235</ele>
        <time>2019-08-20T10:43:33Z</time>
      </trkpt>
      <trkpt lat="46.4808" lon="4.05593">
        <ele>235</ele>
        <time>2019-08-20T10:43:34Z</time>
      </trkpt>
      <trkpt lat="46.48083" lon="4.05586">
        <ele>235</ele>
        <time>2019-08-20T10:43:35Z</time>
      </trkpt>
      <trkpt lat="46.48086" lon="4.0558">
        <ele>235</ele>
        <time>2019-08-20T10:43:36Z</time>
      </trkpt>
      <trkpt lat="46.48089" lon="4.05574">
        <ele>235</ele>
        <time>2019-08-20T10:43:37Z</time>
      </trkpt>
      <trkpt lat="46.48092" lon="4.05568">
        <ele>235</ele>
        <time>2019-08-20T10:43:38Z</time>
      </trkpt>
      <trkpt lat="46.48095" lon="4.05563">
        <ele>235</ele>
        <time>2019-08-20T10:43:39Z</time>
      </trkpt>
      <trkpt lat="46.48098" lon="4.05558">
        <ele>235</ele>
        <time>2019-08-20T10:43:40Z</time>
      </trkpt>
      <trkpt lat="46.48101" lon="4.05552">
        <ele>235</ele>
        <time>2019-08-20T10:43:41Z</time>
      </trkpt>
      <trkpt lat="46.48104" lon="4.05547">
        <ele>235</ele>
        <time>2019-08-20T10:43:42Z</time>
      </trkpt>
      <trkpt lat="46.48108" lon="4.0554">
        <ele>235</ele>
        <time>2019-08-20T10:43:43Z</time>
      </trkpt>
      <trkpt lat="46.4811" lon="4.05535">
        <ele>235</ele>
        <time>2019-08-20T10:43:44Z</time>
      </trkpt>
      <trkpt lat="46.48113" lon="4.0553">
        <ele>235</ele>
        <time>2019-08-20T10:43:45Z</time>
      </trkpt>
      <trkpt lat="46.48117" lon="4.05525">
        <ele>235</ele>
        <time>2019-08-20T10:43:46Z</time>
      </trkpt>
      <trkpt lat="46.48121" lon="4.05518">
        <ele>235</ele>
        <time>2019-08-20T10:43:47Z</time>
      </trkpt>
      <trkpt lat="46.48125" lon="4.05512">
        <ele>235</ele>
        <time>2019-08-20T10:43:48Z</time>
      </trkpt>
      <trkpt lat="46.48129" lon="4.05505">
        <ele>235</ele>
        <time>2019-08-20T10:43:49Z</time>
      </trkpt>
      <trkpt lat="46.48132" lon="4.05498">
        <ele>235</ele>
        <time>2019-08-20T10:43:50Z</time>
      </trkpt>
      <trkpt lat="46.48136" lon="4.05492">
        <ele>235</ele>
        <time>2019-08-20T10:43:51Z</time>
      </trkpt>
      <trkpt lat="46.48139" lon="4.05485">
        <ele>235</ele>
        <time>2019-08-20T10:43:52Z</time>
      </trkpt>
      <trkpt lat="46.48143" lon="4.05478">
        <ele>235</ele>
        <time>2019-08-20T10:43:53Z</time>
      </trkpt>
      <trkpt lat="46.48146" lon="4.05473">
        <ele>235</ele>
        <time>2019-08-20T10:43:54Z</time>
      </trkpt>
      <trkpt lat="46.48149" lon="4.05467">
        <ele>235</ele>
        <time>2019-08-20T10:43:55Z</time>
      </trkpt>
      <trkpt lat="46.48152" lon="4.0546">
        <ele>235</ele>
        <time>2019-08-20T10:43:56Z</time>
      </trkpt>
      <trkpt lat="46.48155" lon="4.05454">
        <ele>235</ele>
        <time>2019-08-20T10:43:57Z</time>
      </trkpt>
      <trkpt lat="46.48158" lon="4.05446">
        <ele>235</ele>
        <time>2019-08-20T10:43:58Z</time>
      </trkpt>
      <trkpt lat="46.4816" lon="4.05438">
        <ele>235</ele>
        <time>2019-08-20T10:43:59Z</time>
      </trkpt>
      <trkpt lat="46.48162" lon="4.05431">
        <ele>235</ele>
        <time>2019-08-20T10:44:00Z</time>
      </trkpt>
      <trkpt lat="46.48165" lon="4.05422">
        <ele>235</ele>
        <time>2019-08-20T10:44:01Z</time>
      </trkpt>
      <trkpt lat="46.48167" lon="4.05416">
        <ele>235</ele>
        <time>2019-08-20T10:44:02Z</time>
      </trkpt>
      <trkpt lat="46.48169" lon="4.05409">
        <ele>235</ele>
        <time>2019-08-20T10:44:03Z</time>
      </trkpt>
      <trkpt lat="46.48171" lon="4.05403">
        <ele>235</ele>
        <time>2019-08-20T10:44:04Z</time>
      </trkpt>
      <trkpt lat="46.48173" lon="4.05397">
        <ele>235</ele>
        <time>2019-08-20T10:44:05Z</time>
      </trkpt>
      <trkpt lat="46.48175" lon="4.05391">
        <ele>235</ele>
        <time>2019-08-20T10:44:06Z</time>
      </trkpt>
      <trkpt lat="46.48177" lon="4.05385">
        <ele>235</ele>
        <time>2019-08-20T10:44:07Z</time>
      </trkpt>
      <trkpt lat="46.48179" lon="4.0538">
        <ele>235</ele>
        <time>2019-08-20T10:44:08Z</time>
      </trkpt>
      <trkpt lat="46.48181" lon="4.05375">
        <ele>235</ele>
        <time>2019-08-20T10:44:09Z</time>
      </trkpt>
      <trkpt lat="46.48183" lon="4.05368">
        <ele>235</ele>
        <time>2019-08-20T10:44:10Z</time>
      </trkpt>
      <trkpt lat="46.48186" lon="4.05362">
        <ele>235</ele>
        <time>2019-08-20T10:44:11Z</time>
      </trkpt>
      <trkpt lat="46.48188" lon="4.05356">
        <ele>235</ele>
        <time>2019-08-20T10:44:12Z</time>
      </trkpt>
      <trkpt lat="46.48191" lon="4.0535">
        <ele>235</ele>
        <time>2019-08-20T10:44:13Z</time>
      </trkpt>
      <trkpt lat="46.48193" lon="4.05343">
        <ele>235</ele>
        <time>2019-08-20T10:44:14Z</time>
      </trkpt>
      <trkpt lat="46.48195" lon="4.05338">
        <ele>235</ele>
        <time>2019-08-20T10:44:15Z</time>
      </trkpt>
      <trkpt lat="46.48197" lon="4.0533">
        <ele>235</ele>
        <time>2019-08-20T10:44:16Z</time>
      </trkpt>
      <trkpt lat="46.482" lon="4.05324">
        <ele>235</ele>
        <time>2019-08-20T10:44:17Z</time>
      </trkpt>
      <trkpt lat="46.48202" lon="4.05318">
        <ele>235</ele>
        <time>2019-08-20T10:44:18Z</time>
      </trkpt>
      <trkpt lat="46.48206" lon="4.05313">
        <ele>235</ele>
        <time>2019-08-20T10:44:19Z</time>
      </trkpt>
      <trkpt lat="46.4821" lon="4.05308">
        <ele>235</ele>
        <time>2019-08-20T10:44:20Z</time>
      </trkpt>
      <trkpt lat="46.48214" lon="4.05304">
        <ele>235</ele>
        <time>2019-08-20T10:44:21Z</time>
      </trkpt>
      <trkpt lat="46.48218" lon="4.053">
        <ele>235</ele>
        <time>2019-08-20T10:44:22Z</time>
      </trkpt>
      <trkpt lat="46.48222" lon="4.05295">
        <ele>235</ele>
        <time>2019-08-20T10:44:23Z</time>
      </trkpt>
      <trkpt lat="46.48226" lon="4.0529">
        <ele>235</ele>
        <time>2019-08-20T10:44:24Z</time>
      </trkpt>
      <trkpt lat="46.48229" lon="4.05286">
        <ele>235</ele>
        <time>2019-08-20T10:44:25Z</time>
      </trkpt>
      <trkpt lat="46.48233" lon="4.05283">
        <ele>235</ele>
        <time>2019-08-20T10:44:26Z</time>
      </trkpt>
      <trkpt lat="46.48236" lon="4.0528">
        <ele>235</ele>
        <time>2019-08-20T10:44:27Z</time>
      </trkpt>
      <trkpt lat="46.4824" lon="4.05276">
        <ele>235</ele>
        <time>2019-08-20T10:44:28Z</time>
      </trkpt>
      <trkpt lat="46.48245" lon="4.05274">
        <ele>235</ele>
        <time>2019-08-20T10:44:29Z</time>
      </trkpt>
      <trkpt lat="46.4825" lon="4.05272">
        <ele>235</ele>
        <time>2019-08-20T10:44:30Z</time>
      </trkpt>
      <trkpt lat="46.48254" lon="4.0527">
        <ele>235</ele>
        <time>2019-08-20T10:44:31Z</time>
      </trkpt>
      <trkpt lat="46.48259" lon="4.05269">
        <ele>235</ele>
        <time>2019-08-20T10:44:32Z</time>
      </trkpt>
      <trkpt lat="46.48263" lon="4.05267">
        <ele>235</ele>
        <time>2019-08-20T10:44:33Z</time>
      </trkpt>
      <trkpt lat="46.48267" lon="4.05266">
        <ele>235</ele>
        <time>2019-08-20T10:44:34Z</time>
      </trkpt>
      <trkpt lat="46.48271" lon="4.05265">
        <ele>235</ele>
        <time>2019-08-20T10:44:35Z</time>
      </trkpt>
      <trkpt lat="46.48276" lon="4.05263">
        <ele>235</ele>
        <time>2019-08-20T10:44:36Z</time>
      </trkpt>
      <trkpt lat="46.4828" lon="4.0526">
        <ele>235</ele>
        <time>2019-08-20T10:44:37Z</time>
      </trkpt>
      <trkpt lat="46.48285" lon="4.05258">
        <ele>235</ele>
        <time>2019-08-20T10:44:38Z</time>
      </trkpt>
      <trkpt lat="46.48289" lon="4.05255">
        <ele>235</ele>
        <time>2019-08-20T10:44:39Z</time>
      </trkpt>
      <trkpt lat="46.48293" lon="4.05252">
        <ele>235</ele>
        <time>2019-08-20T10:44:40Z</time>
      </trkpt>
      <trkpt lat="46.48297" lon="4.05248">
        <ele>235</ele>
        <time>2019-08-20T10:44:41Z</time>
      </trkpt>
      <trkpt lat="46.48302" lon="4.05244">
        <ele>235</ele>
        <time>2019-08-20T10:44:42Z</time>
      </trkpt>
      <trkpt lat="46.48306" lon="4.0524">
        <ele>235</ele>
        <time>2019-08-20T10:44:43Z</time>
      </trkpt>
      <trkpt lat="46.4831" lon="4.05236">
        <ele>235</ele>
        <time>2019-08-20T10:44:44Z</time>
      </trkpt>
      <trkpt lat="46.48315" lon="4.05232">
        <ele>235</ele>
        <time>2019-08-20T10:44:45Z</time>
      </trkpt>
      <trkpt lat="46.48319" lon="4.05228">
        <ele>235</ele>
        <time>2019-08-20T10:44:46Z</time>
      </trkpt>
      <trkpt lat="46.48323" lon="4.05223">
        <ele>235</ele>
        <time>2019-08-20T10:44:47Z</time>
      </trkpt>
      <trkpt lat="46.48328" lon="4.05219">
        <ele>235</ele>
        <time>2019-08-20T10:44:48Z</time>
      </trkpt>
      <trkpt lat="46.48332" lon="4.05214">
        <ele>235</ele>
        <time>2019-08-20T10:44:49Z</time>
      </trkpt>
      <trkpt lat="46.48336" lon="4.05209">
        <ele>235</ele>
        <time>2019-08-20T10:44:50Z</time>
      </trkpt>
      <trkpt lat="46.4834" lon="4.05204">
        <ele>235</ele>
        <time>2019-08-20T10:44:51Z</time>
      </trkpt>
      <trkpt lat="46.48343" lon="4.052">
        <ele>235</ele>
        <time>2019-08-20T10:44:52Z</time>
      </trkpt>
      <trkpt lat="46.48347" lon="4.05196">
        <ele>235</ele>
        <time>2019-08-20T10:44:53Z</time>
      </trkpt>
      <trkpt lat="46.48351" lon="4.05192">
        <ele>235</ele>
        <time>2019-08-20T10:44:54Z</time>
      </trkpt>
      <trkpt lat="46.48355" lon="4.05189">
        <ele>235</ele>
        <time>2019-08-20T10:44:55Z</time>
      </trkpt>
      <trkpt lat="46.48359" lon="4.05185">
        <ele>235</ele>
        <time>2019-08-20T10:44:56Z</time>
      </trkpt>
      <trkpt lat="46.48362" lon="4.05181">
        <ele>235</ele>
        <time>2019-08-20T10:44:57Z</time>
      </trkpt>
      <trkpt lat="46.48366" lon="4.05178">
        <ele>235</ele>
        <time>2019-08-20T10:44:58Z</time>
      </trkpt>
      <trkpt lat="46.4837" lon="4.05174">
        <ele>235</ele>
        <time>2019-08-20T10:44:59Z</time>
      </trkpt>
      <trkpt lat="46.48374" lon="4.0517">
        <ele>235</ele>
        <time>2019-08-20T10:45:00Z</time>
      </trkpt>
      <trkpt lat="46.48377" lon="4.05166">
        <ele>235</ele>
        <time>2019-08-20T10:45:01Z</time>
      </trkpt>
      <trkpt lat="46.48381" lon="4.05163">
        <ele>235</ele>
        <time>2019-08-20T10:45:02Z</time>
      </trkpt>
      <trkpt lat="46.48385" lon="4.05158">
        <ele>235</ele>
        <time>2019-08-20T10:45:03Z</time>
      </trkpt>
      <trkpt lat="46.48389" lon="4.05154">
        <ele>235</ele>
        <time>2019-08-20T10:45:04Z</time>
      </trkpt>
      <trkpt lat="46.48393" lon="4.0515">
        <ele>235</ele>
        <time>2019-08-20T10:45:05Z</time>
      </trkpt>
      <trkpt lat="46.48396" lon="4.05147">
        <ele>235</ele>
        <time>2019-08-20T10:45:06Z</time>
      </trkpt>
      <trkpt lat="46.484" lon="4.05144">
        <ele>235</ele>
        <time>2019-08-20T10:45:07Z</time>
      </trkpt>
      <trkpt lat="46.48404" lon="4.05139">
        <ele>235</ele>
        <time>2019-08-20T10:45:08Z</time>
      </trkpt>
      <trkpt lat="46.48408" lon="4.05135">
        <ele>235</ele>
        <time>2019-08-20T10:45:09Z</time>
      </trkpt>
      <trkpt lat="46.48411" lon="4.0513">
        <ele>235</ele>
        <time>2019-08-20T10:45:10Z</time>
      </trkpt>
      <trkpt lat="46.48415" lon="4.05125">
        <ele>235</ele>
        <time>2019-08-20T10:45:11Z</time>
      </trkpt>
      <trkpt lat="46.48419" lon="4.05121">
        <ele>235</ele>
        <time>2019-08-20T10:45:12Z</time>
      </trkpt>
      <trkpt lat="46.48423" lon="4.05117">
        <ele>235</ele>
        <time>2019-08-20T10:45:13Z</time>
      </trkpt>
      <trkpt lat="46.48426" lon="4.05111">
        <ele>235</ele>
        <time>2019-08-20T10:45:14Z</time>
      </trkpt>
      <trkpt lat="46.48429" lon="4.05105">
        <ele>235</ele>
        <time>2019-08-20T10:45:15Z</time>
      </trkpt>
      <trkpt lat="46.48432" lon="4.05099">
        <ele>235</ele>
        <time>2019-08-20T10:45:16Z</time>
      </trkpt>
      <trkpt lat="46.48436" lon="4.05092">
        <ele>235</ele>
        <time>2019-08-20T10:45:17Z</time>
      </trkpt>
      <trkpt lat="46.48439" lon="4.05085">
        <ele>235</ele>
        <time>2019-08-20T10:45:18Z</time>
      </trkpt>
      <trkpt lat="46.48443" lon="4.05078">
        <ele>235</ele>
        <time>2019-08-20T10:45:19Z</time>
      </trkpt>
      <trkpt lat="46.48445" lon="4.05072">
        <ele>235</ele>
        <time>2019-08-20T10:45:20Z</time>
      </trkpt>
      <trkpt lat="46.48447" lon="4.05064">
        <ele>235</ele>
        <time>2019-08-20T10:45:21Z</time>
      </trkpt>
      <trkpt lat="46.48449" lon="4.05057">
        <ele>235</ele>
        <time>2019-08-20T10:45:22Z</time>
      </trkpt>
      <trkpt lat="46.4845" lon="4.05051">
        <ele>235</ele>
        <time>2019-08-20T10:45:23Z</time>
      </trkpt>
      <trkpt lat="46.48452" lon="4.05045">
        <ele>235</ele>
        <time>2019-08-20T10:45:24Z</time>
      </trkpt>
      <trkpt lat="46.48452" lon="4.0504">
        <ele>235</ele>
        <time>2019-08-20T10:45:25Z</time>
      </trkpt>
      <trkpt lat="46.48453" lon="4.05033">
        <ele>235</ele>
        <time>2019-08-20T10:45:26Z</time>
      </trkpt>
      <trkpt lat="46.48454" lon="4.05026">
        <ele>235</ele>
        <time>2019-08-20T10:45:27Z</time>
      </trkpt>
      <trkpt lat="46.48455" lon="4.05019">
        <ele>235</ele>
        <time>2019-08-20T10:45:28Z</time>
      </trkpt>
      <trkpt lat="46.48456" lon="4.05014">
        <ele>235</ele>
        <time>2019-08-20T10:45:29Z</time>
      </trkpt>
      <trkpt lat="46.48457" lon="4.05007">
        <ele>235</ele>
        <time>2019-08-20T10:45:30Z</time>
      </trkpt>
      <trkpt lat="46.48458" lon="4.05001">
        <ele>235</ele>
        <time>2019-08-20T10:45:31Z</time>
      </trkpt>
      <trkpt lat="46.4846" lon="4.04994">
        <ele>235</ele>
        <time>2019-08-20T10:45:32Z</time>
      </trkpt>
      <trkpt lat="46.48462" lon="4.04987">
        <ele>235</ele>
        <time>2019-08-20T10:45:33Z</time>
      </trkpt>
      <trkpt lat="46.48464" lon="4.0498">
        <ele>235</ele>
        <time>2019-08-20T10:45:34Z</time>
      </trkpt>
      <trkpt lat="46.48466" lon="4.04974">
        <ele>235</ele>
        <time>2019-08-20T10:45:35Z</time>
      </trkpt>
      <trkpt lat="46.48468" lon="4.04968">
        <ele>235</ele>
        <time>2019-08-20T10:45:36Z</time>
      </trkpt>
      <trkpt lat="46.4847" lon="4.04963">
        <ele>235</ele>
        <time>2019-08-20T10:45:37Z</time>
      </trkpt>
      <trkpt lat="46.48473" lon="4.04957">
        <ele>235</ele>
        <time>2019-08-20T10:45:38Z</time>
      </trkpt>
      <trkpt lat="46.48475" lon="4.04951">
        <ele>235</ele>
        <time>2019-08-20T10:45:39Z</time>
      </trkpt>
      <trkpt lat="46.48478" lon="4.04945">
        <ele>235</ele>
        <time>2019-08-20T10:45:40Z</time>
      </trkpt>
      <trkpt lat="46.4848" lon="4.04939">
        <ele>235</ele>
        <time>2019-08-20T10:45:41Z</time>
      </trkpt>
      <trkpt lat="46.48483" lon="4.04934">
        <ele>235</ele>
        <time>2019-08-20T10:45:42Z</time>
      </trkpt>
      <trkpt lat="46.48486" lon="4.04929">
        <ele>235</ele>
        <time>2019-08-20T10:45:43Z</time>
      </trkpt>
      <trkpt lat="46.4849" lon="4.04924">
        <ele>235</ele>
        <time>2019-08-20T10:45:44Z</time>
      </trkpt>
      <trkpt lat="46.48493" lon="4.04918">
        <ele>235</ele>
        <time>2019-08-20T10:45:45Z</time>
      </trkpt>
      <trkpt lat="46.48497" lon="4.04913">
        <ele>235</ele>
        <time>2019-08-20T10:45:46Z</time>
      </trkpt>
      <trkpt lat="46.485" lon="4.04909">
        <ele>235</ele>
        <time>2019-08-20T10:45:47Z</time>
      </trkpt>
      <trkpt lat="46.48504" lon="4.04904">
        <ele>235</ele>
        <time>2019-08-20T10:45:48Z</time>
      </trkpt>
      <trkpt lat="46.48507" lon="4.04899">
        <ele>235</ele>
        <time>2019-08-20T10:45:49Z</time>
      </trkpt>
      <trkpt lat="46.48511" lon="4.04895">
        <ele>235</ele>
        <time>2019-08-20T10:45:50Z</time>
      </trkpt>
      <trkpt lat="46.48515" lon="4.04891">
        <ele>235</ele>
        <time>2019-08-20T10:45:51Z</time>
      </trkpt>
      <trkpt lat="46.48519" lon="4.04889">
        <ele>235</ele>
        <time>2019-08-20T10:45:52Z</time>
      </trkpt>
      <trkpt lat="46.48523" lon="4.04885">
        <ele>235</ele>
        <time>2019-08-20T10:45:53Z</time>
      </trkpt>
      <trkpt lat="46.48527" lon="4.04881">
        <ele>235</ele>
        <time>2019-08-20T10:45:54Z</time>
      </trkpt>
      <trkpt lat="46.48531" lon="4.04877">
        <ele>235</ele>
        <time>2019-08-20T10:45:55Z</time>
      </trkpt>
      <trkpt lat="46.48536" lon="4.04874">
        <ele>235</ele>
        <time>2019-08-20T10:45:56Z</time>
      </trkpt>
      <trkpt lat="46.4854" lon="4.04871">
        <ele>235</ele>
        <time>2019-08-20T10:45:57Z</time>
      </trkpt>
      <trkpt lat="46.48544" lon="4.04867">
        <ele>235</ele>
        <time>2019-08-20T10:45:58Z</time>
      </trkpt>
      <trkpt lat="46.48549" lon="4.04863">
        <ele>235</ele>
        <time>2019-08-20T10:45:59Z</time>
      </trkpt>
      <trkpt lat="46.48553" lon="4.04859">
        <ele>235</ele>
        <time>2019-08-20T10:46:00Z</time>
      </trkpt>
      <trkpt lat="46.48557" lon="4.04855">
        <ele>235</ele>
        <time>2019-08-20T10:46:01Z</time>
      </trkpt>
      <trkpt lat="46.48561" lon="4.04851">
        <ele>235</ele>
        <time>2019-08-20T10:46:02Z</time>
      </trkpt>
      <trkpt lat="46.48564" lon="4.04848">
        <ele>235</ele>
        <time>2019-08-20T10:46:03Z</time>
      </trkpt>
      <trkpt lat="46.48568" lon="4.04843">
        <ele>235</ele>
        <time>2019-08-20T10:46:04Z</time>
      </trkpt>
      <trkpt lat="46.48571" lon="4.04839">
        <ele>235</ele>
        <time>2019-08-20T10:46:05Z</time>
      </trkpt>
      <trkpt lat="46.48574" lon="4.04834">
        <ele>235</ele>
        <time>2019-08-20T10:46:06Z</time>
      </trkpt>
      <trkpt lat="46.48577" lon="4.04829">
        <ele>235</ele>
        <time>2019-08-20T10:46:07Z</time>
      </trkpt>
      <trkpt lat="46.48581" lon="4.04823">
        <ele>235</ele>
        <time>2019-08-20T10:46:08Z</time>
      </trkpt>
      <trkpt lat="46.48583" lon="4.04817">
        <ele>235</ele>
        <time>2019-08-20T10:46:09Z</time>
      </trkpt>
      <trkpt lat="46.48585" lon="4.04813">
        <ele>235</ele>
        <time>2019-08-20T10:46:10Z</time>
      </trkpt>
      <trkpt lat="46.48587" lon="4.04807">
        <ele>235</ele>
        <time>2019-08-20T10:46:11Z</time>
      </trkpt>
      <trkpt lat="46.48588" lon="4.04801">
        <ele>235</ele>
        <time>2019-08-20T10:46:12Z</time>
      </trkpt>
      <trkpt lat="46.4859" lon="4.04795">
        <ele>235</ele>
        <time>2019-08-20T10:46:13Z</time>
      </trkpt>
      <trkpt lat="46.48592" lon="4.04787">
        <ele>235</ele>
        <time>2019-08-20T10:46:14Z</time>
      </trkpt>
      <trkpt lat="46.48593" lon="4.0478">
        <ele>235</ele>
        <time>2019-08-20T10:46:15Z</time>
      </trkpt>
      <trkpt lat="46.48595" lon="4.04773">
        <ele>235</ele>
        <time>2019-08-20T10:46:16Z</time>
      </trkpt>
      <trkpt lat="46.48596" lon="4.04765">
        <ele>235</ele>
        <time>2019-08-20T10:46:17Z</time>
      </trkpt>
      <trkpt lat="46.48597" lon="4.04758">
        <ele>235</ele>
        <time>2019-08-20T10:46:18Z</time>
      </trkpt>
      <trkpt lat="46.48597" lon="4.04751">
        <ele>235</ele>
        <time>2019-08-20T10:46:19Z</time>
      </trkpt>
      <trkpt lat="46.48598" lon="4.04744">
        <ele>235</ele>
        <time>2019-08-20T10:46:20Z</time>
      </trkpt>
      <trkpt lat="46.48598" lon="4.04738">
        <ele>235</ele>
        <time>2019-08-20T10:46:21Z</time>
      </trkpt>
      <trkpt lat="46.48597" lon="4.04731">
        <ele>235</ele>
        <time>2019-08-20T10:46:22Z</time>
      </trkpt>
      <trkpt lat="46.48597" lon="4.04727">
        <ele>235</ele>
        <time>2019-08-20T10:46:23Z</time>
      </trkpt>
      <trkpt lat="46.48597" lon="4.04722">
        <ele>235</ele>
        <time>2019-08-20T10:46:24Z</time>
      </trkpt>
      <trkpt lat="46.48598" lon="4.04717">
        <ele>235</ele>
        <time>2019-08-20T10:46:25Z</time>
      </trkpt>
      <trkpt lat="46.48599" lon="4.04712">
        <ele>235</ele>
        <time>2019-08-20T10:46:26Z</time>
      </trkpt>
      <trkpt lat="46.48599" lon="4.04706">
        <ele>235</ele>
        <time>2019-08-20T10:46:27Z</time>
      </trkpt>
      <trkpt lat="46.486" lon="4.04701">
        <ele>235</ele>
        <time>2019-08-20T10:46:28Z</time>
      </trkpt>
      <trkpt lat="46.48601" lon="4.04696">
        <ele>235</ele>
        <time>2019-08-20T10:46:29Z</time>
      </trkpt>
      <trkpt lat="46.48602" lon="4.04691">
        <ele>235</ele>
        <time>2019-08-20T10:46:30Z</time>
      </trkpt>
      <trkpt lat="46.48603" lon="4.04687">
        <ele>235</ele>
        <time>2019-08-20T10:46:31Z</time>
      </trkpt>
      <trkpt lat="46.48604" lon="4.04682">
        <ele>235</ele>
        <time>2019-08-20T10:46:32Z</time>
      </trkpt>
      <trkpt lat="46.48605" lon="4.04675">
        <ele>235</ele>
        <time>2019-08-20T10:46:33Z</time>
      </trkpt>
      <trkpt lat="46.48606" lon="4.0467">
        <ele>235</ele>
        <time>2019-08-20T10:46:34Z</time>
      </trkpt>
      <trkpt lat="46.48607" lon="4.04664">
        <ele>235</ele>
        <time>2019-08-20T10:46:35Z</time>
      </trkpt>
      <trkpt lat="46.48608" lon="4.04658">
        <ele>235</ele>
        <time>2019-08-20T10:46:36Z</time>
      </trkpt>
      <trkpt lat="46.48608" lon="4.04652">
        <ele>235</ele>
        <time>2019-08-20T10:46:37Z</time>
      </trkpt>
      <trkpt lat="46.48608" lon="4.04647">
        <ele>235</ele>
        <time>2019-08-20T10:46:38Z</time>
      </trkpt>
      <trkpt lat="46.48608" lon="4.04642">
        <ele>235</ele>
        <time>2019-08-20T10:46:39Z</time>
      </trkpt>
      <trkpt lat="46.48609" lon="4.04636">
        <ele>235</ele>
        <time>2019-08-20T10:46:40Z</time>
      </trkpt>
      <trkpt lat="46.48609" lon="4.04631">
        <ele>235</ele>
        <time>2019-08-20T10:46:41Z</time>
      </trkpt>
      <trkpt lat="46.4861" lon="4.04626">
        <ele>235</ele>
        <time>2019-08-20T10:46:42Z</time>
      </trkpt>
      <trkpt lat="46.4861" lon="4.0462">
        <ele>235</ele>
        <time>2019-08-20T10:46:43Z</time>
      </trkpt>
      <trkpt lat="46.4861" lon="4.04614">
        <ele>235</ele>
        <time>2019-08-20T10:46:44Z</time>
      </trkpt>
      <trkpt lat="46.4861" lon="4.04608">
        <ele>235</ele>
        <time>2019-08-20T10:46:45Z</time>
      </trkpt>
      <trkpt lat="46.4861" lon="4.04601">
        <ele>235</ele>
        <time>2019-08-20T10:46:46Z</time>
      </trkpt>
      <trkpt lat="46.4861" lon="4.04595">
        <ele>235</ele>
        <time>2019-08-20T10:46:47Z</time>
      </trkpt>
      <trkpt lat="46.48611" lon="4.0459">
        <ele>235</ele>
        <time>2019-08-20T10:46:48Z</time>
      </trkpt>
      <trkpt lat="46.48611" lon="4.04583">
        <ele>235</ele>
        <time>2019-08-20T10:46:49Z</time>
      </trkpt>
      <trkpt lat="46.48612" lon="4.04576">
        <ele>235</ele>
        <time>2019-08-20T10:46:50Z</time>
      </trkpt>
      <trkpt lat="46.48613" lon="4.04569">
        <ele>235</ele>
        <time>2019-08-20T10:46:51Z</time>
      </trkpt>
      <trkpt lat="46.48614" lon="4.04563">
        <ele>235</ele>
        <time>2019-08-20T10:46:52Z</time>
      </trkpt>
      <trkpt lat="46.48614" lon="4.04558">
        <ele>235</ele>
        <time>2019-08-20T10:46:53Z</time>
      </trkpt>
      <trkpt lat="46.48615" lon="4.04552">
        <ele>235</ele>
        <time>2019-08-20T10:46:54Z</time>
      </trkpt>
      <trkpt lat="46.48615" lon="4.04546">
        <ele>235</ele>
        <time>2019-08-20T10:46:55Z</time>
      </trkpt>
      <trkpt lat="46.48616" lon="4.0454">
        <ele>235</ele>
        <time>2019-08-20T10:46:56Z</time>
      </trkpt>
      <trkpt lat="46.48616" lon="4.04534">
        <ele>235</ele>
        <time>2019-08-20T10:46:57Z</time>
      </trkpt>
      <trkpt lat="46.48616" lon="4.04529">
        <ele>235</ele>
        <time>2019-08-20T10:46:58Z</time>
      </trkpt>
      <trkpt lat="46.48617" lon="4.04522">
        <ele>235</ele>
        <time>2019-08-20T10:46:59Z</time>
      </trkpt>
      <trkpt lat="46.48618" lon="4.04515">
        <ele>235</ele>
        <time>2019-08-20T10:47:00Z</time>
      </trkpt>
      <trkpt lat="46.48619" lon="4.0451">
        <ele>235</ele>
        <time>2019-08-20T10:47:01Z</time>
      </trkpt>
      <trkpt lat="46.4862" lon="4.04504">
        <ele>235</ele>
        <time>2019-08-20T10:47:02Z</time>
      </trkpt>
      <trkpt lat="46.4862" lon="4.04498">
        <ele>235</ele>
        <time>2019-08-20T10:47:03Z</time>
      </trkpt>
      <trkpt lat="46.4862" lon="4.04492">
        <ele>235</ele>
        <time>2019-08-20T10:47:04Z</time>
      </trkpt>
      <trkpt lat="46.4862" lon="4.04486">
        <ele>235</ele>
        <time>2019-08-20T10:47:05Z</time>
      </trkpt>
      <trkpt lat="46.48622" lon="4.04479">
        <ele>235</ele>
        <time>2019-08-20T10:47:06Z</time>
      </trkpt>
      <trkpt lat="46.48624" lon="4.04474">
        <ele>235</ele>
        <time>2019-08-20T10:47:07Z</time>
      </trkpt>
      <trkpt lat="46.48624" lon="4.04467">
        <ele>235</ele>
        <time>2019-08-20T10:47:08Z</time>
      </trkpt>
      <trkpt lat="46.48625" lon="4.0446">
        <ele>235</ele>
        <time>2019-08-20T10:47:09Z</time>
      </trkpt>
      <trkpt lat="46.48624" lon="4.04454">
        <ele>235</ele>
        <time>2019-08-20T10:47:10Z</time>
      </trkpt>
      <trkpt lat="46.48625" lon="4.04446">
        <ele>235</ele>
        <time>2019-08-20T10:47:11Z</time>
      </trkpt>
      <trkpt lat="46.48625" lon="4.04439">
        <ele>235</ele>
        <time>2019-08-20T10:47:12Z</time>
      </trkpt>
      <trkpt lat="46.48625" lon="4.04432">
        <ele>235</ele>
        <time>2019-08-20T10:47:13Z</time>
      </trkpt>
      <trkpt lat="46.48625" lon="4.04424">
        <ele>235</ele>
        <time>2019-08-20T10:47:14Z</time>
      </trkpt>
      <trkpt lat="46.48626" lon="4.04417">
        <ele>235</ele>
        <time>2019-08-20T10:47:15Z</time>
      </trkpt>
      <trkpt lat="46.48626" lon="4.04411">
        <ele>235</ele>
        <time>2019-08-20T10:47:16Z</time>
      </trkpt>
      <trkpt lat="46.48626" lon="4.04405">
        <ele>235</ele>
        <time>2019-08-20T10:47:17Z</time>
      </trkpt>
      <trkpt lat="46.48626" lon="4.04398">
        <ele>235</ele>
        <time>2019-08-20T10:47:18Z</time>
      </trkpt>
      <trkpt lat="46.48626" lon="4.04391">
        <ele>235</ele>
        <time>2019-08-20T10:47:19Z</time>
      </trkpt>
      <trkpt lat="46.48627" lon="4.04385">
        <ele>235</ele>
        <time>2019-08-20T10:47:20Z</time>
      </trkpt>
      <trkpt lat="46.48628" lon="4.04376">
        <ele>235</ele>
        <time>2019-08-20T10:47:21Z</time>
      </trkpt>
      <trkpt lat="46.4863" lon="4.04368">
        <ele>235</ele>
        <time>2019-08-20T10:47:22Z</time>
      </trkpt>
      <trkpt lat="46.48631" lon="4.04362">
        <ele>235</ele>
        <time>2019-08-20T10:47:23Z</time>
      </trkpt>
      <trkpt lat="46.48632" lon="4.04355">
        <ele>235</ele>
        <time>2019-08-20T10:47:24Z</time>
      </trkpt>
      <trkpt lat="46.48632" lon="4.04348">
        <ele>235</ele>
        <time>2019-08-20T10:47:25Z</time>
      </trkpt>
      <trkpt lat="46.48633" lon="4.04342">
        <ele>235</ele>
        <time>2019-08-20T10:47:26Z</time>
      </trkpt>
      <trkpt lat="46.48633" lon="4.04334">
        <ele>235</ele>
        <time>2019-08-20T10:47:27Z</time>
      </trkpt>
      <trkpt lat="46.48634" lon="4.04328">
        <ele>235</ele>
        <time>2019-08-20T10:47:28Z</time>
      </trkpt>
      <trkpt lat="46.48635" lon="4.0432">
        <ele>235</ele>
        <time>2019-08-20T10:47:29Z</time>
      </trkpt>
      <trkpt lat="46.48636" lon="4.04312">
        <ele>235</ele>
        <time>2019-08-20T10:47:30Z</time>
      </trkpt>
      <trkpt lat="46.48636" lon="4.04304">
        <ele>235</ele>
        <time>2019-08-20T10:47:31Z</time>
      </trkpt>
      <trkpt lat="46.48636" lon="4.04295">
        <ele>235</ele>
        <time>2019-08-20T10:47:32Z</time>
      </trkpt>
      <trkpt lat="46.48637" lon="4.04287">
        <ele>235</ele>
        <time>2019-08-20T10:47:33Z</time>
      </trkpt>
      <trkpt lat="46.48637" lon="4.04279">
        <ele>235</ele>
        <time>2019-08-20T10:47:34Z</time>
      </trkpt>
      <trkpt lat="46.48638" lon="4.04271">
        <ele>235</ele>
        <time>2019-08-20T10:47:35Z</time>
      </trkpt>
      <trkpt lat="46.48639" lon="4.04265">
        <ele>235</ele>
        <time>2019-08-20T10:47:36Z</time>
      </trkpt>
      <trkpt lat="46.4864" lon="4.04258">
        <ele>235</ele>
        <time>2019-08-20T10:47:37Z</time>
      </trkpt>
      <trkpt lat="46.4864" lon="4.04251">
        <ele>235</ele>
        <time>2019-08-20T10:47:38Z</time>
      </trkpt>
      <trkpt lat="46.48642" lon="4.04241">
        <ele>235</ele>
        <time>2019-08-20T10:47:39Z</time>
      </trkpt>
      <trkpt lat="46.48642" lon="4.04233">
        <ele>235</ele>
        <time>2019-08-20T10:47:40Z</time>
      </trkpt>
      <trkpt lat="46.48643" lon="4.04223">
        <ele>235</ele>
        <time>2019-08-20T10:47:41Z</time>
      </trkpt>
      <trkpt lat="46.48643" lon="4.04216">
        <ele>235</ele>
        <time>2019-08-20T10:47:42Z</time>
      </trkpt>
      <trkpt lat="46.48644" lon="4.04209">
        <ele>235</ele>
        <time>2019-08-20T10:47:43Z</time>
      </trkpt>
      <trkpt lat="46.48647" lon="4.04201">
        <ele>235</ele>
        <time>2019-08-20T10:47:44Z</time>
      </trkpt>
      <trkpt lat="46.48648" lon="4.04194">
        <ele>235</ele>
        <time>2019-08-20T10:47:45Z</time>
      </trkpt>
      <trkpt lat="46.48649" lon="4.04186">
        <ele>235</ele>
        <time>2019-08-20T10:47:46Z</time>
      </trkpt>
      <trkpt lat="46.4865" lon="4.04178">
        <ele>235</ele>
        <time>2019-08-20T10:47:47Z</time>
      </trkpt>
      <trkpt lat="46.4865" lon="4.0417">
        <ele>235</ele>
        <time>2019-08-20T10:47:48Z</time>
      </trkpt>
      <trkpt lat="46.48651" lon="4.04163">
        <ele>235</ele>
        <time>2019-08-20T10:47:49Z</time>
      </trkpt>
      <trkpt lat="46.48652" lon="4.04156">
        <ele>235</ele>
        <time>2019-08-20T10:47:50Z</time>
      </trkpt>
      <trkpt lat="46.48653" lon="4.04149">
        <ele>235</ele>
        <time>2019-08-20T10:47:51Z</time>
      </trkpt>
      <trkpt lat="46.48654" lon="4.0414">
        <ele>235</ele>
        <time>2019-08-20T10:47:52Z</time>
      </trkpt>
      <trkpt lat="46.48654" lon="4.04132">
        <ele>235</ele>
        <time>2019-08-20T10:47:53Z</time>
      </trkpt>
      <trkpt lat="46.48654" lon="4.04123">
        <ele>235</ele>
        <time>2019-08-20T10:47:54Z</time>
      </trkpt>
      <trkpt lat="46.48655" lon="4.04116">
        <ele>235</ele>
        <time>2019-08-20T10:47:55Z</time>
      </trkpt>
      <trkpt lat="46.48656" lon="4.04109">
        <ele>235</ele>
        <time>2019-08-20T10:47:56Z</time>
      </trkpt>
      <trkpt lat="46.48658" lon="4.04102">
        <ele>235</ele>
        <time>2019-08-20T10:47:57Z</time>
      </trkpt>
      <trkpt lat="46.48659" lon="4.04094">
        <ele>235</ele>
        <time>2019-08-20T10:47:58Z</time>
      </trkpt>
      <trkpt lat="46.4866" lon="4.04086">
        <ele>235</ele>
        <time>2019-08-20T10:47:59Z</time>
      </trkpt>
      <trkpt lat="46.48661" lon="4.04078">
        <ele>235</ele>
        <time>2019-08-20T10:48:00Z</time>
      </trkpt>
      <trkpt lat="46.48662" lon="4.0407">
        <ele>235</ele>
        <time>2019-08-20T10:48:01Z</time>
      </trkpt>
      <trkpt lat="46.48663" lon="4.04063">
        <ele>235</ele>
        <time>2019-08-20T10:48:02Z</time>
      </trkpt>
      <trkpt lat="46.48663" lon="4.04056">
        <ele>235</ele>
        <time>2019-08-20T10:48:03Z</time>
      </trkpt>
      <trkpt lat="46.48663" lon="4.04049">
        <ele>235</ele>
        <time>2019-08-20T10:48:04Z</time>
      </trkpt>
      <trkpt lat="46.48663" lon="4.04042">
        <ele>235</ele>
        <time>2019-08-20T10:48:05Z</time>
      </trkpt>
      <trkpt lat="46.48664" lon="4.04035">
        <ele>235</ele>
        <time>2019-08-20T10:48:06Z</time>
      </trkpt>
      <trkpt lat="46.48664" lon="4.04027">
        <ele>235</ele>
        <time>2019-08-20T10:48:07Z</time>
      </trkpt>
      <trkpt lat="46.48665" lon="4.0402">
        <ele>235</ele>
        <time>2019-08-20T10:48:08Z</time>
      </trkpt>
      <trkpt lat="46.48665" lon="4.04013">
        <ele>235</ele>
        <time>2019-08-20T10:48:09Z</time>
      </trkpt>
      <trkpt lat="46.48665" lon="4.04006">
        <ele>235</ele>
        <time>2019-08-20T10:48:10Z</time>
      </trkpt>
      <trkpt lat="46.48665" lon="4.03998">
        <ele>235</ele>
        <time>2019-08-20T10:48:11Z</time>
      </trkpt>
      <trkpt lat="46.48665" lon="4.03991">
        <ele>235</ele>
        <time>2019-08-20T10:48:12Z</time>
      </trkpt>
      <trkpt lat="46.48665" lon="4.03985">
        <ele>235</ele>
        <time>2019-08-20T10:48:13Z</time>
      </trkpt>
      <trkpt lat="46.48665" lon="4.03977">
        <ele>235</ele>
        <time>2019-08-20T10:48:14Z</time>
      </trkpt>
      <trkpt lat="46.48666" lon="4.03969">
        <ele>235</ele>
        <time>2019-08-20T10:48:15Z</time>
      </trkpt>
      <trkpt lat="46.48667" lon="4.03962">
        <ele>235</ele>
        <time>2019-08-20T10:48:16Z</time>
      </trkpt>
      <trkpt lat="46.48669" lon="4.03955">
        <ele>235</ele>
        <time>2019-08-20T10:48:17Z</time>
      </trkpt>
      <trkpt lat="46.48669" lon="4.03948">
        <ele>235</ele>
        <time>2019-08-20T10:48:18Z</time>
      </trkpt>
      <trkpt lat="46.4867" lon="4.03942">
        <ele>235</ele>
        <time>2019-08-20T10:48:19Z</time>
      </trkpt>
      <trkpt lat="46.48671" lon="4.03936">
        <ele>235</ele>
        <time>2019-08-20T10:48:20Z</time>
      </trkpt>
      <trkpt lat="46.48672" lon="4.0393">
        <ele>235</ele>
        <time>2019-08-20T10:48:21Z</time>
      </trkpt>
      <trkpt lat="46.48673" lon="4.03923">
        <ele>235</ele>
        <time>2019-08-20T10:48:22Z</time>
      </trkpt>
      <trkpt lat="46.48674" lon="4.03918">
        <ele>235</ele>
        <time>2019-08-20T10:48:23Z</time>
      </trkpt>
      <trkpt lat="46.48675" lon="4.03911">
        <ele>235</ele>
        <time>2019-08-20T10:48:24Z</time>
      </trkpt>
      <trkpt lat="46.48677" lon="4.03904">
        <ele>235</ele>
        <time>2019-08-20T10:48:25Z</time>
      </trkpt>
      <trkpt lat="46.48678" lon="4.03896">
        <ele>235</ele>
        <time>2019-08-20T10:48:26Z</time>
      </trkpt>
      <trkpt lat="46.4868" lon="4.0389">
        <ele>235</ele>
        <time>2019-08-20T10:48:27Z</time>
      </trkpt>
      <trkpt lat="46.48681" lon="4.03883">
        <ele>235</ele>
        <time>2019-08-20T10:48:28Z</time>
      </trkpt>
      <trkpt lat="46.48683" lon="4.03877">
        <ele>235</ele>
        <time>2019-08-20T10:48:29Z</time>
      </trkpt>
      <trkpt lat="46.48684" lon="4.0387">
        <ele>235</ele>
        <time>2019-08-20T10:48:30Z</time>
      </trkpt>
      <trkpt lat="46.48685" lon="4.03863">
        <ele>235</ele>
        <time>2019-08-20T10:48:31Z</time>
      </trkpt>
      <trkpt lat="46.48686" lon="4.03855">
        <ele>235</ele>
        <time>2019-08-20T10:48:32Z</time>
      </trkpt>
      <trkpt lat="46.48687" lon="4.03847">
        <ele>235</ele>
        <time>2019-08-20T10:48:33Z</time>
      </trkpt>
      <trkpt lat="46.48688" lon="4.03841">
        <ele>235</ele>
        <time>2019-08-20T10:48:34Z</time>
      </trkpt>
      <trkpt lat="46.48689" lon="4.03835">
        <ele>235</ele>
        <time>2019-08-20T10:48:35Z</time>
      </trkpt>
      <trkpt lat="46.4869" lon="4.03828">
        <ele>235</ele>
        <time>2019-08-20T10:48:36Z</time>
      </trkpt>
      <trkpt lat="46.48691" lon="4.03823">
        <ele>235</ele>
        <time>2019-08-20T10:48:37Z</time>
      </trkpt>
      <trkpt lat="46.48693" lon="4.03816">
        <ele>235</ele>
        <time>2019-08-20T10:48:38Z</time>
      </trkpt>
      <trkpt lat="46.48694" lon="4.0381">
        <ele>235</ele>
        <time>2019-08-20T10:48:39Z</time>
      </trkpt>
      <trkpt lat="46.48696" lon="4.03804">
        <ele>235</ele>
        <time>2019-08-20T10:48:40Z</time>
      </trkpt>
      <trkpt lat="46.48697" lon="4.03797">
        <ele>235</ele>
        <time>2019-08-20T10:48:41Z</time>
      </trkpt>
      <trkpt lat="46.48699" lon="4.0379">
        <ele>235</ele>
        <time>2019-08-20T10:48:42Z</time>
      </trkpt>
      <trkpt lat="46.487" lon="4.03784">
        <ele>235</ele>
        <time>2019-08-20T10:48:43Z</time>
      </trkpt>
      <trkpt lat="46.48701" lon="4.03778">
        <ele>235</ele>
        <time>2019-08-20T10:48:44Z</time>
      </trkpt>
      <trkpt lat="46.48701" lon="4.03771">
        <ele>235</ele>
        <time>2019-08-20T10:48:45Z</time>
      </trkpt>
      <trkpt lat="46.48703" lon="4.03765">
        <ele>235</ele>
        <time>2019-08-20T10:48:46Z</time>
      </trkpt>
      <trkpt lat="46.48703" lon="4.03758">
        <ele>235</ele>
        <time>2019-08-20T10:48:47Z</time>
      </trkpt>
      <trkpt lat="46.48704" lon="4.03752">
        <ele>235</ele>
        <time>2019-08-20T10:48:48Z</time>
      </trkpt>
      <trkpt lat="46.48705" lon="4.03745">
        <ele>235</ele>
        <time>2019-08-20T10:48:49Z</time>
      </trkpt>
      <trkpt lat="46.48706" lon="4.03738">
        <ele>235</ele>
        <time>2019-08-20T10:48:50Z</time>
      </trkpt>
      <trkpt lat="46.48706" lon="4.0373">
        <ele>235</ele>
        <time>2019-08-20T10:48:51Z</time>
      </trkpt>
      <trkpt lat="46.48706" lon="4.03723">
        <ele>235</ele>
        <time>2019-08-20T10:48:52Z</time>
      </trkpt>
      <trkpt lat="46.48707" lon="4.03715">
        <ele>235</ele>
        <time>2019-08-20T10:48:53Z</time>
      </trkpt>
      <trkpt lat="46.48707" lon="4.03707">
        <ele>235</ele>
        <time>2019-08-20T10:48:54Z</time>
      </trkpt>
      <trkpt lat="46.48707" lon="4.037">
        <ele>235</ele>
        <time>2019-08-20T10:48:55Z</time>
      </trkpt>
      <trkpt lat="46.48707" lon="4.03694">
        <ele>235</ele>
        <time>2019-08-20T10:48:56Z</time>
      </trkpt>
      <trkpt lat="46.48707" lon="4.03688">
        <ele>235</ele>
        <time>2019-08-20T10:48:57Z</time>
      </trkpt>
      <trkpt lat="46.48707" lon="4.03682">
        <ele>235</ele>
        <time>2019-08-20T10:48:58Z</time>
      </trkpt>
      <trkpt lat="46.48706" lon="4.03675">
        <ele>235</ele>
        <time>2019-08-20T10:48:59Z</time>
      </trkpt>
      <trkpt lat="46.48706" lon="4.0367">
        <ele>235</ele>
        <time>2019-08-20T10:49:00Z</time>
      </trkpt>
      <trkpt lat="46.48706" lon="4.03662">
        <ele>235</ele>
        <time>2019-08-20T10:49:01Z</time>
      </trkpt>
      <trkpt lat="46.48706" lon="4.03655">
        <ele>235</ele>
        <time>2019-08-20T10:49:02Z</time>
      </trkpt>
      <trkpt lat="46.48705" lon="4.03649">
        <ele>235</ele>
        <time>2019-08-20T10:49:03Z</time>
      </trkpt>
      <trkpt lat="46.48705" lon="4.03644">
        <ele>235</ele>
        <time>2019-08-20T10:49:04Z</time>
      </trkpt>
      <trkpt lat="46.48703" lon="4.03637">
        <ele>235</ele>
        <time>2019-08-20T10:49:05Z</time>
      </trkpt>
      <trkpt lat="46.48702" lon="4.0363">
        <ele>235</ele>
        <time>2019-08-20T10:49:06Z</time>
      </trkpt>
      <trkpt lat="46.48701" lon="4.03623">
        <ele>235</ele>
        <time>2019-08-20T10:49:07Z</time>
      </trkpt>
      <trkpt lat="46.48701" lon="4.03616">
        <ele>235</ele>
        <time>2019-08-20T10:49:08Z</time>
      </trkpt>
      <trkpt lat="46.487" lon="4.0361">
        <ele>235</ele>
        <time>2019-08-20T10:49:09Z</time>
      </trkpt>
      <trkpt lat="46.48699" lon="4.03603">
        <ele>235</ele>
        <time>2019-08-20T10:49:10Z</time>
      </trkpt>
      <trkpt lat="46.48698" lon="4.03597">
        <ele>235</ele>
        <time>2019-08-20T10:49:11Z</time>
      </trkpt>
      <trkpt lat="46.48697" lon="4.03591">
        <ele>235</ele>
        <time>2019-08-20T10:49:12Z</time>
      </trkpt>
      <trkpt lat="46.48697" lon="4.03584">
        <ele>235</ele>
        <time>2019-08-20T10:49:13Z</time>
      </trkpt>
      <trkpt lat="46.48696" lon="4.03577">
        <ele>235</ele>
        <time>2019-08-20T10:49:14Z</time>
      </trkpt>
      <trkpt lat="46.48696" lon="4.0357">
        <ele>235</ele>
        <time>2019-08-20T10:49:15Z</time>
      </trkpt>
      <trkpt lat="46.48695" lon="4.03562">
        <ele>235</ele>
        <time>2019-08-20T10:49:16Z</time>
      </trkpt>
      <trkpt lat="46.48695" lon="4.03555">
        <ele>235</ele>
        <time>2019-08-20T10:49:17Z</time>
      </trkpt>
      <trkpt lat="46.48694" lon="4.03548">
        <ele>235</ele>
        <time>2019-08-20T10:49:18Z</time>
      </trkpt>
      <trkpt lat="46.48693" lon="4.03541">
        <ele>235</ele>
        <time>2019-08-20T10:49:19Z</time>
      </trkpt>
      <trkpt lat="46.48692" lon="4.03534">
        <ele>235</ele>
        <time>2019-08-20T10:49:20Z</time>
      </trkpt>
      <trkpt lat="46.48692" lon="4.03526">
        <ele>235</ele>
        <time>2019-08-20T10:49:21Z</time>
      </trkpt>
      <trkpt lat="46.48691" lon="4.0352">
        <ele>235</ele>
        <time>2019-08-20T10:49:22Z</time>
      </trkpt>
      <trkpt lat="46.48689" lon="4.03513">
        <ele>235</ele>
        <time>2019-08-20T10:49:23Z</time>
      </trkpt>
      <trkpt lat="46.48688" lon="4.03506">
        <ele>235</ele>
        <time>2019-08-20T10:49:24Z</time>
      </trkpt>
      <trkpt lat="46.48688" lon="4.03499">
        <ele>235</ele>
        <time>2019-08-20T10:49:25Z</time>
      </trkpt>
      <trkpt lat="46.48688" lon="4.03492">
        <ele>235</ele>
        <time>2019-08-20T10:49:26Z</time>
      </trkpt>
      <trkpt lat="46.48687" lon="4.03485">
        <ele>235</ele>
        <time>2019-08-20T10:49:27Z</time>
      </trkpt>
      <trkpt lat="46.48687" lon="4.03478">
        <ele>235</ele>
        <time>2019-08-20T10:49:28Z</time>
      </trkpt>
      <trkpt lat="46.48687" lon="4.03472">
        <ele>235</ele>
        <time>2019-08-20T10:49:29Z</time>
      </trkpt>
      <trkpt lat="46.48686" lon="4.03464">
        <ele>235</ele>
        <time>2019-08-20T10:49:30Z</time>
      </trkpt>
      <trkpt lat="46.48685" lon="4.03457">
        <ele>235</ele>
        <time>2019-08-20T10:49:31Z</time>
      </trkpt>
      <trkpt lat="46.48684" lon="4.0345">
        <ele>235.1</ele>
        <time>2019-08-20T10:49:32Z</time>
      </trkpt>
      <trkpt lat="46.48684" lon="4.03443">
        <ele>235.1</ele>
        <time>2019-08-20T10:49:33Z</time>
      </trkpt>
      <trkpt lat="46.48684" lon="4.03436">
        <ele>235.2</ele>
        <time>2019-08-20T10:49:34Z</time>
      </trkpt>
      <trkpt lat="46.48685" lon="4.03429">
        <ele>235.2</ele>
        <time>2019-08-20T10:49:35Z</time>
      </trkpt>
      <trkpt lat="46.48684" lon="4.03423">
        <ele>235.3</ele>
        <time>2019-08-20T10:49:36Z</time>
      </trkpt>
      <trkpt lat="46.48683" lon="4.03419">
        <ele>235.3</ele>
        <time>2019-08-20T10:49:37Z</time>
      </trkpt>
      <trkpt lat="46.48682" lon="4.03413">
        <ele>235.3</ele>
        <time>2019-08-20T10:49:38Z</time>
      </trkpt>
      <trkpt lat="46.4868" lon="4.03407">
        <ele>235.4</ele>
        <time>2019-08-20T10:49:39Z</time>
      </trkpt>
      <trkpt lat="46.4868" lon="4.03401">
        <ele>235.4</ele>
        <time>2019-08-20T10:49:40Z</time>
      </trkpt>
      <trkpt lat="46.48682" lon="4.03397">
        <ele>235.4</ele>
        <time>2019-08-20T10:49:41Z</time>
      </trkpt>
      <trkpt lat="46.48683" lon="4.03392">
        <ele>235.4</ele>
        <time>2019-08-20T10:49:42Z</time>
      </trkpt>
      <trkpt lat="46.48685" lon="4.03386">
        <ele>235.5</ele>
        <time>2019-08-20T10:49:43Z</time>
      </trkpt>
      <trkpt lat="46.48687" lon="4.03381">
        <ele>235.5</ele>
        <time>2019-08-20T10:49:44Z</time>
      </trkpt>
      <trkpt lat="46.48689" lon="4.03375">
        <ele>235.5</ele>
        <time>2019-08-20T10:49:45Z</time>
      </trkpt>
      <trkpt lat="46.4869" lon="4.0337">
        <ele>235.5</ele>
        <time>2019-08-20T10:49:46Z</time>
      </trkpt>
      <trkpt lat="46.48691" lon="4.03364">
        <ele>235.6</ele>
        <time>2019-08-20T10:49:47Z</time>
      </trkpt>
      <trkpt lat="46.48693" lon="4.03357">
        <ele>235.6</ele>
        <time>2019-08-20T10:49:48Z</time>
      </trkpt>
      <trkpt lat="46.48693" lon="4.03349">
        <ele>235.6</ele>
        <time>2019-08-20T10:49:49Z</time>
      </trkpt>
      <trkpt lat="46.48694" lon="4.03343">
        <ele>235.6</ele>
        <time>2019-08-20T10:49:50Z</time>
      </trkpt>
      <trkpt lat="46.48696" lon="4.03336">
        <ele>235.7</ele>
        <time>2019-08-20T10:49:51Z</time>
      </trkpt>
      <trkpt lat="46.48697" lon="4.0333">
        <ele>235.7</ele>
        <time>2019-08-20T10:49:52Z</time>
      </trkpt>
      <trkpt lat="46.48697" lon="4.03324">
        <ele>235.7</ele>
        <time>2019-08-20T10:49:53Z</time>
      </trkpt>
      <trkpt lat="46.48698" lon="4.03317">
        <ele>235.7</ele>
        <time>2019-08-20T10:49:54Z</time>
      </trkpt>
      <trkpt lat="46.48699" lon="4.03311">
        <ele>235.7</ele>
        <time>2019-08-20T10:49:55Z</time>
      </trkpt>
      <trkpt lat="46.487" lon="4.03303">
        <ele>235.7</ele>
        <time>2019-08-20T10:49:56Z</time>
      </trkpt>
      <trkpt lat="46.48701" lon="4.03295">
        <ele>235.7</ele>
        <time>2019-08-20T10:49:57Z</time>
      </trkpt>
      <trkpt lat="46.48703" lon="4.03287">
        <ele>235.7</ele>
        <time>2019-08-20T10:49:58Z</time>
      </trkpt>
      <trkpt lat="46.48703" lon="4.03281">
        <ele>235.6</ele>
        <time>2019-08-20T10:49:59Z</time>
      </trkpt>
      <trkpt lat="46.48705" lon="4.03276">
        <ele>235.6</ele>
        <time>2019-08-20T10:50:00Z</time>
      </trkpt>
      <trkpt lat="46.48707" lon="4.0327">
        <ele>235.6</ele>
        <time>2019-08-20T10:50:01Z</time>
      </trkpt>
      <trkpt lat="46.48709" lon="4.03263">
        <ele>235.6</ele>
        <time>2019-08-20T10:50:02Z</time>
      </trkpt>
      <trkpt lat="46.48711" lon="4.03256">
        <ele>235.6</ele>
        <time>2019-08-20T10:50:03Z</time>
      </trkpt>
      <trkpt lat="46.48712" lon="4.0325">
        <ele>235.5</ele>
        <time>2019-08-20T10:50:04Z</time>
      </trkpt>
      <trkpt lat="46.48713" lon="4.03243">
        <ele>235.5</ele>
        <time>2019-08-20T10:50:05Z</time>
      </trkpt>
      <trkpt lat="46.48715" lon="4.03237">
        <ele>235.5</ele>
        <time>2019-08-20T10:50:06Z</time>
      </trkpt>
      <trkpt lat="46.48716" lon="4.0323">
        <ele>235.5</ele>
        <time>2019-08-20T10:50:07Z</time>
      </trkpt>
      <trkpt lat="46.48717" lon="4.03224">
        <ele>235.5</ele>
        <time>2019-08-20T10:50:08Z</time>
      </trkpt>
      <trkpt lat="46.48719" lon="4.03219">
        <ele>235.5</ele>
        <time>2019-08-20T10:50:09Z</time>
      </trkpt>
      <trkpt lat="46.4872" lon="4.03211">
        <ele>235.4</ele>
        <time>2019-08-20T10:50:10Z</time>
      </trkpt>
      <trkpt lat="46.48721" lon="4.03204">
        <ele>235.4</ele>
        <time>2019-08-20T10:50:11Z</time>
      </trkpt>
      <trkpt lat="46.48721" lon="4.03196">
        <ele>235.4</ele>
        <time>2019-08-20T10:50:12Z</time>
      </trkpt>
      <trkpt lat="46.48722" lon="4.0319">
        <ele>235.4</ele>
        <time>2019-08-20T10:50:13Z</time>
      </trkpt>
      <trkpt lat="46.48723" lon="4.03185">
        <ele>235.4</ele>
        <time>2019-08-20T10:50:14Z</time>
      </trkpt>
      <trkpt lat="46.48724" lon="4.03179">
        <ele>235.4</ele>
        <time>2019-08-20T10:50:15Z</time>
      </trkpt>
      <trkpt lat="46.48726" lon="4.03173">
        <ele>235.4</ele>
        <time>2019-08-20T10:50:16Z</time>
      </trkpt>
      <trkpt lat="46.48727" lon="4.03167">
        <ele>235.4</ele>
        <time>2019-08-20T10:50:17Z</time>
      </trkpt>
      <trkpt lat="46.48728" lon="4.03161">
        <ele>235.4</ele>
        <time>2019-08-20T10:50:18Z</time>
      </trkpt>
      <trkpt lat="46.4873" lon="4.03154">
        <ele>235.4</ele>
        <time>2019-08-20T10:50:19Z</time>
      </trkpt>
      <trkpt lat="46.48732" lon="4.03148">
        <ele>235.4</ele>
        <time>2019-08-20T10:50:20Z</time>
      </trkpt>
      <trkpt lat="46.48734" lon="4.03141">
        <ele>235.4</ele>
        <time>2019-08-20T10:50:21Z</time>
      </trkpt>
      <trkpt lat="46.48737" lon="4.03133">
        <ele>235.4</ele>
        <time>2019-08-20T10:50:22Z</time>
      </trkpt>
      <trkpt lat="46.4874" lon="4.03124">
        <ele>235.4</ele>
        <time>2019-08-20T10:50:23Z</time>
      </trkpt>
      <trkpt lat="46.48744" lon="4.03118">
        <ele>235.4</ele>
        <time>2019-08-20T10:50:24Z</time>
      </trkpt>
      <trkpt lat="46.48747" lon="4.03111">
        <ele>235.4</ele>
        <time>2019-08-20T10:50:25Z</time>
      </trkpt>
      <trkpt lat="46.4875" lon="4.03104">
        <ele>235.4</ele>
        <time>2019-08-20T10:50:26Z</time>
      </trkpt>
      <trkpt lat="46.48753" lon="4.03098">
        <ele>235.4</ele>
        <time>2019-08-20T10:50:27Z</time>
      </trkpt>
      <trkpt lat="46.48757" lon="4.03092">
        <ele>235.4</ele>
        <time>2019-08-20T10:50:28Z</time>
      </trkpt>
      <trkpt lat="46.48761" lon="4.03086">
        <ele>235.4</ele>
        <time>2019-08-20T10:50:29Z</time>
      </trkpt>
      <trkpt lat="46.48764" lon="4.0308">
        <ele>235.4</ele>
        <time>2019-08-20T10:50:30Z</time>
      </trkpt>
      <trkpt lat="46.48767" lon="4.03074">
        <ele>235.4</ele>
        <time>2019-08-20T10:50:31Z</time>
      </trkpt>
      <trkpt lat="46.48771" lon="4.03068">
        <ele>235.4</ele>
        <time>2019-08-20T10:50:32Z</time>
      </trkpt>
      <trkpt lat="46.48774" lon="4.03062">
        <ele>235.4</ele>
        <time>2019-08-20T10:50:33Z</time>
      </trkpt>
      <trkpt lat="46.48777" lon="4.03056">
        <ele>235.4</ele>
        <time>2019-08-20T10:50:34Z</time>
      </trkpt>
      <trkpt lat="46.48781" lon="4.03052">
        <ele>235.4</ele>
        <time>2019-08-20T10:50:35Z</time>
      </trkpt>
      <trkpt lat="46.48784" lon="4.03047">
        <ele>235.4</ele>
        <time>2019-08-20T10:50:36Z</time>
      </trkpt>
      <trkpt lat="46.48787" lon="4.03041">
        <ele>235.4</ele>
        <time>2019-08-20T10:50:37Z</time>
      </trkpt>
      <trkpt lat="46.4879" lon="4.03035">
        <ele>235.4</ele>
        <time>2019-08-20T10:50:38Z</time>
      </trkpt>
      <trkpt lat="46.48793" lon="4.03028">
        <ele>235.4</ele>
        <time>2019-08-20T10:50:39Z</time>
      </trkpt>
      <trkpt lat="46.48796" lon="4.03022">
        <ele>235.4</ele>
        <time>2019-08-20T10:50:40Z</time>
      </trkpt>
      <trkpt lat="46.48798" lon="4.03016">
        <ele>235.4</ele>
        <time>2019-08-20T10:50:41Z</time>
      </trkpt>
      <trkpt lat="46.488" lon="4.03009">
        <ele>235.4</ele>
        <time>2019-08-20T10:50:42Z</time>
      </trkpt>
      <trkpt lat="46.48801" lon="4.03003">
        <ele>235.4</ele>
        <time>2019-08-20T10:50:43Z</time>
      </trkpt>
      <trkpt lat="46.48803" lon="4.02996">
        <ele>235.4</ele>
        <time>2019-08-20T10:50:44Z</time>
      </trkpt>
      <trkpt lat="46.48805" lon="4.02989">
        <ele>235.4</ele>
        <time>2019-08-20T10:50:45Z</time>
      </trkpt>
      <trkpt lat="46.48806" lon="4.02982">
        <ele>235.4</ele>
        <time>2019-08-20T10:50:46Z</time>
      </trkpt>
      <trkpt lat="46.48807" lon="4.02975">
        <ele>235.3</ele>
        <time>2019-08-20T10:50:47Z</time>
      </trkpt>
      <trkpt lat="46.48808" lon="4.02969">
        <ele>235.3</ele>
        <time>2019-08-20T10:50:48Z</time>
      </trkpt>
      <trkpt lat="46.48809" lon="4.02962">
        <ele>235.3</ele>
        <time>2019-08-20T10:50:49Z</time>
      </trkpt>
      <trkpt lat="46.4881" lon="4.02955">
        <ele>235.2</ele>
        <time>2019-08-20T10:50:50Z</time>
      </trkpt>
      <trkpt lat="46.48811" lon="4.02949">
        <ele>235.2</ele>
        <time>2019-08-20T10:50:51Z</time>
      </trkpt>
      <trkpt lat="46.48811" lon="4.02942">
        <ele>235.2</ele>
        <time>2019-08-20T10:50:52Z</time>
      </trkpt>
      <trkpt lat="46.48812" lon="4.02936">
        <ele>235.1</ele>
        <time>2019-08-20T10:50:53Z</time>
      </trkpt>
      <trkpt lat="46.48812" lon="4.02929">
        <ele>235</ele>
        <time>2019-08-20T10:50:54Z</time>
      </trkpt>
      <trkpt lat="46.48813" lon="4.02924">
        <ele>235</ele>
        <time>2019-08-20T10:50:55Z</time>
      </trkpt>
      <trkpt lat="46.48814" lon="4.02917">
        <ele>234.9</ele>
        <time>2019-08-20T10:50:56Z</time>
      </trkpt>
      <trkpt lat="46.48814" lon="4.0291">
        <ele>234.9</ele>
        <time>2019-08-20T10:50:57Z</time>
      </trkpt>
      <trkpt lat="46.48815" lon="4.02903">
        <ele>234.8</ele>
        <time>2019-08-20T10:50:58Z</time>
      </trkpt>
      <trkpt lat="46.48816" lon="4.02897">
        <ele>234.7</ele>
        <time>2019-08-20T10:50:59Z</time>
      </trkpt>
      <trkpt lat="46.48816" lon="4.02891">
        <ele>234.7</ele>
        <time>2019-08-20T10:51:00Z</time>
      </trkpt>
      <trkpt lat="46.48817" lon="4.02884">
        <ele>234.6</ele>
        <time>2019-08-20T10:51:01Z</time>
      </trkpt>
      <trkpt lat="46.48818" lon="4.02878">
        <ele>234.6</ele>
        <time>2019-08-20T10:51:02Z</time>
      </trkpt>
      <trkpt lat="46.48818" lon="4.02871">
        <ele>234.5</ele>
        <time>2019-08-20T10:51:03Z</time>
      </trkpt>
      <trkpt lat="46.48819" lon="4.02865">
        <ele>234.4</ele>
        <time>2019-08-20T10:51:04Z</time>
      </trkpt>
      <trkpt lat="46.48819" lon="4.02859">
        <ele>234.4</ele>
        <time>2019-08-20T10:51:05Z</time>
      </trkpt>
      <trkpt lat="46.48819" lon="4.02851">
        <ele>234.3</ele>
        <time>2019-08-20T10:51:06Z</time>
      </trkpt>
      <trkpt lat="46.48818" lon="4.02843">
        <ele>234.2</ele>
        <time>2019-08-20T10:51:07Z</time>
      </trkpt>
      <trkpt lat="46.48818" lon="4.02835">
        <ele>234.1</ele>
        <time>2019-08-20T10:51:08Z</time>
      </trkpt>
      <trkpt lat="46.48818" lon="4.02828">
        <ele>234.1</ele>
        <time>2019-08-20T10:51:09Z</time>
      </trkpt>
      <trkpt lat="46.48818" lon="4.02821">
        <ele>234</ele>
        <time>2019-08-20T10:51:10Z</time>
      </trkpt>
      <trkpt lat="46.48817" lon="4.02814">
        <ele>234</ele>
        <time>2019-08-20T10:51:11Z</time>
      </trkpt>
      <trkpt lat="46.48817" lon="4.02806">
        <ele>234</ele>
        <time>2019-08-20T10:51:12Z</time>
      </trkpt>
      <trkpt lat="46.48816" lon="4.028">
        <ele>233.9</ele>
        <time>2019-08-20T10:51:13Z</time>
      </trkpt>
      <trkpt lat="46.48816" lon="4.02793">
        <ele>233.9</ele>
        <time>2019-08-20T10:51:14Z</time>
      </trkpt>
      <trkpt lat="46.48815" lon="4.02787">
        <ele>233.8</ele>
        <time>2019-08-20T10:51:15Z</time>
      </trkpt>
      <trkpt lat="46.48815" lon="4.02781">
        <ele>233.7</ele>
        <time>2019-08-20T10:51:16Z</time>
      </trkpt>
      <trkpt lat="46.48814" lon="4.02774">
        <ele>233.5</ele>
        <time>2019-08-20T10:51:17Z</time>
      </trkpt>
      <trkpt lat="46.48813" lon="4.02768">
        <ele>233.4</ele>
        <time>2019-08-20T10:51:18Z</time>
      </trkpt>
      <trkpt lat="46.48813" lon="4.02761">
        <ele>233.4</ele>
        <time>2019-08-20T10:51:19Z</time>
      </trkpt>
      <trkpt lat="46.48812" lon="4.02754">
        <ele>233.5</ele>
        <time>2019-08-20T10:51:20Z</time>
      </trkpt>
      <trkpt lat="46.48811" lon="4.02746">
        <ele>233.5</ele>
        <time>2019-08-20T10:51:21Z</time>
      </trkpt>
      <trkpt lat="46.48811" lon="4.02738">
        <ele>233.7</ele>
        <time>2019-08-20T10:51:22Z</time>
      </trkpt>
      <trkpt lat="46.48811" lon="4.02729">
        <ele>233.8</ele>
        <time>2019-08-20T10:51:23Z</time>
      </trkpt>
      <trkpt lat="46.4881" lon="4.02722">
        <ele>233.9</ele>
        <time>2019-08-20T10:51:24Z</time>
      </trkpt>
      <trkpt lat="46.48809" lon="4.02716">
        <ele>234</ele>
        <time>2019-08-20T10:51:25Z</time>
      </trkpt>
      <trkpt lat="46.48808" lon="4.02709">
        <ele>234.1</ele>
        <time>2019-08-20T10:51:26Z</time>
      </trkpt>
      <trkpt lat="46.48807" lon="4.02702">
        <ele>234.2</ele>
        <time>2019-08-20T10:51:27Z</time>
      </trkpt>
      <trkpt lat="46.48806" lon="4.02696">
        <ele>234.2</ele>
        <time>2019-08-20T10:51:28Z</time>
      </trkpt>
      <trkpt lat="46.48805" lon="4.0269">
        <ele>234.2</ele>
        <time>2019-08-20T10:51:29Z</time>
      </trkpt>
      <trkpt lat="46.48804" lon="4.02684">
        <ele>234.3</ele>
        <time>2019-08-20T10:51:30Z</time>
      </trkpt>
      <trkpt lat="46.48803" lon="4.02678">
        <ele>234.3</ele>
        <time>2019-08-20T10:51:31Z</time>
      </trkpt>
      <trkpt lat="46.48803" lon="4.02672">
        <ele>234.3</ele>
        <time>2019-08-20T10:51:32Z</time>
      </trkpt>
      <trkpt lat="46.48803" lon="4.02666">
        <ele>234.3</ele>
        <time>2019-08-20T10:51:33Z</time>
      </trkpt>
      <trkpt lat="46.48801" lon="4.02659">
        <ele>234.3</ele>
        <time>2019-08-20T10:51:34Z</time>
      </trkpt>
      <trkpt lat="46.488" lon="4.02651">
        <ele>234.4</ele>
        <time>2019-08-20T10:51:35Z</time>
      </trkpt>
      <trkpt lat="46.48799" lon="4.02643">
        <ele>234.4</ele>
        <time>2019-08-20T10:51:36Z</time>
      </trkpt>
      <trkpt lat="46.48798" lon="4.02635">
        <ele>234.4</ele>
        <time>2019-08-20T10:51:37Z</time>
      </trkpt>
      <trkpt lat="46.48797" lon="4.02628">
        <ele>234.3</ele>
        <time>2019-08-20T10:51:38Z</time>
      </trkpt>
      <trkpt lat="46.48796" lon="4.02621">
        <ele>234.3</ele>
        <time>2019-08-20T10:51:39Z</time>
      </trkpt>
      <trkpt lat="46.48796" lon="4.02613">
        <ele>234.1</ele>
        <time>2019-08-20T10:51:40Z</time>
      </trkpt>
      <trkpt lat="46.48795" lon="4.02607">
        <ele>234</ele>
        <time>2019-08-20T10:51:41Z</time>
      </trkpt>
      <trkpt lat="46.48794" lon="4.02597">
        <ele>233.9</ele>
        <time>2019-08-20T10:51:42Z</time>
      </trkpt>
      <trkpt lat="46.48792" lon="4.0259">
        <ele>233.9</ele>
        <time>2019-08-20T10:51:43Z</time>
      </trkpt>
      <trkpt lat="46.48791" lon="4.02582">
        <ele>233.9</ele>
        <time>2019-08-20T10:51:44Z</time>
      </trkpt>
      <trkpt lat="46.4879" lon="4.02575">
        <ele>233.9</ele>
        <time>2019-08-20T10:51:45Z</time>
      </trkpt>
      <trkpt lat="46.48789" lon="4.02567">
        <ele>233.9</ele>
        <time>2019-08-20T10:51:46Z</time>
      </trkpt>
      <trkpt lat="46.48788" lon="4.02558">
        <ele>233.9</ele>
        <time>2019-08-20T10:51:47Z</time>
      </trkpt>
      <trkpt lat="46.48786" lon="4.02551">
        <ele>233.9</ele>
        <time>2019-08-20T10:51:48Z</time>
      </trkpt>
      <trkpt lat="46.48785" lon="4.02544">
        <ele>233.9</ele>
        <time>2019-08-20T10:51:49Z</time>
      </trkpt>
      <trkpt lat="46.48783" lon="4.02538">
        <ele>233.9</ele>
        <time>2019-08-20T10:51:50Z</time>
      </trkpt>
      <trkpt lat="46.48782" lon="4.02531">
        <ele>233.9</ele>
        <time>2019-08-20T10:51:51Z</time>
      </trkpt>
      <trkpt lat="46.48779" lon="4.02524">
        <ele>233.9</ele>
        <time>2019-08-20T10:51:52Z</time>
      </trkpt>
      <trkpt lat="46.48777" lon="4.02517">
        <ele>233.9</ele>
        <time>2019-08-20T10:51:53Z</time>
      </trkpt>
      <trkpt lat="46.48774" lon="4.0251">
        <ele>233.9</ele>
        <time>2019-08-20T10:51:54Z</time>
      </trkpt>
      <trkpt lat="46.48772" lon="4.02503">
        <ele>233.9</ele>
        <time>2019-08-20T10:51:55Z</time>
      </trkpt>
      <trkpt lat="46.4877" lon="4.02495">
        <ele>233.9</ele>
        <time>2019-08-20T10:51:56Z</time>
      </trkpt>
      <trkpt lat="46.48768" lon="4.02487">
        <ele>233.9</ele>
        <time>2019-08-20T10:51:57Z</time>
      </trkpt>
      <trkpt lat="46.48767" lon="4.0248">
        <ele>233.9</ele>
        <time>2019-08-20T10:51:58Z</time>
      </trkpt>
      <trkpt lat="46.48767" lon="4.02473">
        <ele>233.9</ele>
        <time>2019-08-20T10:51:59Z</time>
      </trkpt>
      <trkpt lat="46.48765" lon="4.02465">
        <ele>233.9</ele>
        <time>2019-08-20T10:52:00Z</time>
      </trkpt>
      <trkpt lat="46.48763" lon="4.02457">
        <ele>233.9</ele>
        <time>2019-08-20T10:52:01Z</time>
      </trkpt>
      <trkpt lat="46.48762" lon="4.0245">
        <ele>233.9</ele>
        <time>2019-08-20T10:52:02Z</time>
      </trkpt>
      <trkpt lat="46.4876" lon="4.02443">
        <ele>233.9</ele>
        <time>2019-08-20T10:52:03Z</time>
      </trkpt>
      <trkpt lat="46.48759" lon="4.02437">
        <ele>233.9</ele>
        <time>2019-08-20T10:52:04Z</time>
      </trkpt>
      <trkpt lat="46.48757" lon="4.0243">
        <ele>233.9</ele>
        <time>2019-08-20T10:52:05Z</time>
      </trkpt>
      <trkpt lat="46.48756" lon="4.02423">
        <ele>233.9</ele>
        <time>2019-08-20T10:52:06Z</time>
      </trkpt>
      <trkpt lat="46.48755" lon="4.02416">
        <ele>233.9</ele>
        <time>2019-08-20T10:52:07Z</time>
      </trkpt>
      <trkpt lat="46.48754" lon="4.02409">
        <ele>233.9</ele>
        <time>2019-08-20T10:52:08Z</time>
      </trkpt>
      <trkpt lat="46.48753" lon="4.02402">
        <ele>233.9</ele>
        <time>2019-08-20T10:52:09Z</time>
      </trkpt>
      <trkpt lat="46.48752" lon="4.02394">
        <ele>233.9</ele>
        <time>2019-08-20T10:52:10Z</time>
      </trkpt>
      <trkpt lat="46.48752" lon="4.02386">
        <ele>233.9</ele>
        <time>2019-08-20T10:52:11Z</time>
      </trkpt>
      <trkpt lat="46.48751" lon="4.02379">
        <ele>233.9</ele>
        <time>2019-08-20T10:52:12Z</time>
      </trkpt>
      <trkpt lat="46.4875" lon="4.02373">
        <ele>233.9</ele>
        <time>2019-08-20T10:52:13Z</time>
      </trkpt>
      <trkpt lat="46.4875" lon="4.02366">
        <ele>233.9</ele>
        <time>2019-08-20T10:52:14Z</time>
      </trkpt>
      <trkpt lat="46.48749" lon="4.02359">
        <ele>233.9</ele>
        <time>2019-08-20T10:52:15Z</time>
      </trkpt>
      <trkpt lat="46.48749" lon="4.02352">
        <ele>233.9</ele>
        <time>2019-08-20T10:52:16Z</time>
      </trkpt>
      <trkpt lat="46.48748" lon="4.02345">
        <ele>233.9</ele>
        <time>2019-08-20T10:52:17Z</time>
      </trkpt>
      <trkpt lat="46.48748" lon="4.02338">
        <ele>233.9</ele>
        <time>2019-08-20T10:52:18Z</time>
      </trkpt>
      <trkpt lat="46.48748" lon="4.02331">
        <ele>233.9</ele>
        <time>2019-08-20T10:52:19Z</time>
      </trkpt>
      <trkpt lat="46.48747" lon="4.02325">
        <ele>233.9</ele>
        <time>2019-08-20T10:52:20Z</time>
      </trkpt>
      <trkpt lat="46.48747" lon="4.02318">
        <ele>233.9</ele>
        <time>2019-08-20T10:52:21Z</time>
      </trkpt>
      <trkpt lat="46.48745" lon="4.02312">
        <ele>233.9</ele>
        <time>2019-08-20T10:52:22Z</time>
      </trkpt>
      <trkpt lat="46.48744" lon="4.02305">
        <ele>233.9</ele>
        <time>2019-08-20T10:52:23Z</time>
      </trkpt>
      <trkpt lat="46.48744" lon="4.02298">
        <ele>233.9</ele>
        <time>2019-08-20T10:52:24Z</time>
      </trkpt>
      <trkpt lat="46.48744" lon="4.02291">
        <ele>233.9</ele>
        <time>2019-08-20T10:52:25Z</time>
      </trkpt>
      <trkpt lat="46.48744" lon="4.02283">
        <ele>233.9</ele>
        <time>2019-08-20T10:52:26Z</time>
      </trkpt>
      <trkpt lat="46.48742" lon="4.02275">
        <ele>233.9</ele>
        <time>2019-08-20T10:52:27Z</time>
      </trkpt>
      <trkpt lat="46.48741" lon="4.02266">
        <ele>233.9</ele>
        <time>2019-08-20T10:52:28Z</time>
      </trkpt>
      <trkpt lat="46.4874" lon="4.02258">
        <ele>233.9</ele>
        <time>2019-08-20T10:52:29Z</time>
      </trkpt>
      <trkpt lat="46.48738" lon="4.02248">
        <ele>233.9</ele>
        <time>2019-08-20T10:52:30Z</time>
      </trkpt>
      <trkpt lat="46.48737" lon="4.0224">
        <ele>233.9</ele>
        <time>2019-08-20T10:52:31Z</time>
      </trkpt>
      <trkpt lat="46.48736" lon="4.02233">
        <ele>233.9</ele>
        <time>2019-08-20T10:52:32Z</time>
      </trkpt>
      <trkpt lat="46.48735" lon="4.02226">
        <ele>233.8</ele>
        <time>2019-08-20T10:52:33Z</time>
      </trkpt>
      <trkpt lat="46.48733" lon="4.02219">
        <ele>233.8</ele>
        <time>2019-08-20T10:52:34Z</time>
      </trkpt>
      <trkpt lat="46.48731" lon="4.02211">
        <ele>233.8</ele>
        <time>2019-08-20T10:52:35Z</time>
      </trkpt>
      <trkpt lat="46.4873" lon="4.02203">
        <ele>233.8</ele>
        <time>2019-08-20T10:52:36Z</time>
      </trkpt>
      <trkpt lat="46.48728" lon="4.02195">
        <ele>233.7</ele>
        <time>2019-08-20T10:52:37Z</time>
      </trkpt>
      <trkpt lat="46.48727" lon="4.02187">
        <ele>233.7</ele>
        <time>2019-08-20T10:52:38Z</time>
      </trkpt>
      <trkpt lat="46.48725" lon="4.0218">
        <ele>233.7</ele>
        <time>2019-08-20T10:52:39Z</time>
      </trkpt>
      <trkpt lat="46.48723" lon="4.02173">
        <ele>233.7</ele>
        <time>2019-08-20T10:52:40Z</time>
      </trkpt>
      <trkpt lat="46.48722" lon="4.02166">
        <ele>233.7</ele>
        <time>2019-08-20T10:52:41Z</time>
      </trkpt>
      <trkpt lat="46.4872" lon="4.02158">
        <ele>233.7</ele>
        <time>2019-08-20T10:52:42Z</time>
      </trkpt>
      <trkpt lat="46.48718" lon="4.02152">
        <ele>233.7</ele>
        <time>2019-08-20T10:52:43Z</time>
      </trkpt>
      <trkpt lat="46.48716" lon="4.02145">
        <ele>233.7</ele>
        <time>2019-08-20T10:52:44Z</time>
      </trkpt>
      <trkpt lat="46.48714" lon="4.02138">
        <ele>233.7</ele>
        <time>2019-08-20T10:52:45Z</time>
      </trkpt>
      <trkpt lat="46.48712" lon="4.02131">
        <ele>233.7</ele>
        <time>2019-08-20T10:52:46Z</time>
      </trkpt>
      <trkpt lat="46.4871" lon="4.02126">
        <ele>233.7</ele>
        <time>2019-08-20T10:52:47Z</time>
      </trkpt>
      <trkpt lat="46.48709" lon="4.02121">
        <ele>233.7</ele>
        <time>2019-08-20T10:52:48Z</time>
      </trkpt>
      <trkpt lat="46.48708" lon="4.02115">
        <ele>233.7</ele>
        <time>2019-08-20T10:52:49Z</time>
      </trkpt>
      <trkpt lat="46.48707" lon="4.02109">
        <ele>233.7</ele>
        <time>2019-08-20T10:52:50Z</time>
      </trkpt>
      <trkpt lat="46.48706" lon="4.02102">
        <ele>233.7</ele>
        <time>2019-08-20T10:52:51Z</time>
      </trkpt>
      <trkpt lat="46.48705" lon="4.02096">
        <ele>233.7</ele>
        <time>2019-08-20T10:52:52Z</time>
      </trkpt>
      <trkpt lat="46.48703" lon="4.0209">
        <ele>233.7</ele>
        <time>2019-08-20T10:52:53Z</time>
      </trkpt>
      <trkpt lat="46.48702" lon="4.02084">
        <ele>233.7</ele>
        <time>2019-08-20T10:52:54Z</time>
      </trkpt>
      <trkpt lat="46.48701" lon="4.02078">
        <ele>233.7</ele>
        <time>2019-08-20T10:52:55Z</time>
      </trkpt>
      <trkpt lat="46.48699" lon="4.02072">
        <ele>233.7</ele>
        <time>2019-08-20T10:52:56Z</time>
      </trkpt>
      <trkpt lat="46.48698" lon="4.02064">
        <ele>233.7</ele>
        <time>2019-08-20T10:52:57Z</time>
      </trkpt>
      <trkpt lat="46.48698" lon="4.02057">
        <ele>233.6</ele>
        <time>2019-08-20T10:52:58Z</time>
      </trkpt>
      <trkpt lat="46.48697" lon="4.0205">
        <ele>233.6</ele>
        <time>2019-08-20T10:52:59Z</time>
      </trkpt>
      <trkpt lat="46.48696" lon="4.02044">
        <ele>233.6</ele>
        <time>2019-08-20T10:53:00Z</time>
      </trkpt>
      <trkpt lat="46.48696" lon="4.02037">
        <ele>233.6</ele>
        <time>2019-08-20T10:53:01Z</time>
      </trkpt>
      <trkpt lat="46.48695" lon="4.0203">
        <ele>233.5</ele>
        <time>2019-08-20T10:53:02Z</time>
      </trkpt>
      <trkpt lat="46.48694" lon="4.02023">
        <ele>233.5</ele>
        <time>2019-08-20T10:53:03Z</time>
      </trkpt>
      <trkpt lat="46.48695" lon="4.02015">
        <ele>233.5</ele>
        <time>2019-08-20T10:53:04Z</time>
      </trkpt>
      <trkpt lat="46.48696" lon="4.02007">
        <ele>233.4</ele>
        <time>2019-08-20T10:53:05Z</time>
      </trkpt>
      <trkpt lat="46.48697" lon="4.01999">
        <ele>233.4</ele>
        <time>2019-08-20T10:53:06Z</time>
      </trkpt>
      <trkpt lat="46.48698" lon="4.01992">
        <ele>233.4</ele>
        <time>2019-08-20T10:53:07Z</time>
      </trkpt>
      <trkpt lat="46.48699" lon="4.01984">
        <ele>233.4</ele>
        <time>2019-08-20T10:53:08Z</time>
      </trkpt>
      <trkpt lat="46.48699" lon="4.01977">
        <ele>233.3</ele>
        <time>2019-08-20T10:53:09Z</time>
      </trkpt>
      <trkpt lat="46.487" lon="4.0197">
        <ele>233.3</ele>
        <time>2019-08-20T10:53:10Z</time>
      </trkpt>
      <trkpt lat="46.487" lon="4.01963">
        <ele>233.3</ele>
        <time>2019-08-20T10:53:11Z</time>
      </trkpt>
      <trkpt lat="46.487" lon="4.01956">
        <ele>233.3</ele>
        <time>2019-08-20T10:53:12Z</time>
      </trkpt>
      <trkpt lat="46.48701" lon="4.01947">
        <ele>233.2</ele>
        <time>2019-08-20T10:53:13Z</time>
      </trkpt>
      <trkpt lat="46.48701" lon="4.01939">
        <ele>233.2</ele>
        <time>2019-08-20T10:53:14Z</time>
      </trkpt>
      <trkpt lat="46.48702" lon="4.01932">
        <ele>233.2</ele>
        <time>2019-08-20T10:53:15Z</time>
      </trkpt>
      <trkpt lat="46.48702" lon="4.01924">
        <ele>233.2</ele>
        <time>2019-08-20T10:53:16Z</time>
      </trkpt>
      <trkpt lat="46.48703" lon="4.01917">
        <ele>233.2</ele>
        <time>2019-08-20T10:53:17Z</time>
      </trkpt>
      <trkpt lat="46.48704" lon="4.0191">
        <ele>233.2</ele>
        <time>2019-08-20T10:53:18Z</time>
      </trkpt>
      <trkpt lat="46.48704" lon="4.01904">
        <ele>233.2</ele>
        <time>2019-08-20T10:53:19Z</time>
      </trkpt>
      <trkpt lat="46.48704" lon="4.01897">
        <ele>233.2</ele>
        <time>2019-08-20T10:53:20Z</time>
      </trkpt>
      <trkpt lat="46.48705" lon="4.01889">
        <ele>233.2</ele>
        <time>2019-08-20T10:53:21Z</time>
      </trkpt>
      <trkpt lat="46.48705" lon="4.01883">
        <ele>233.2</ele>
        <time>2019-08-20T10:53:22Z</time>
      </trkpt>
      <trkpt lat="46.48706" lon="4.01876">
        <ele>233.2</ele>
        <time>2019-08-20T10:53:23Z</time>
      </trkpt>
      <trkpt lat="46.48706" lon="4.01869">
        <ele>233.2</ele>
        <time>2019-08-20T10:53:24Z</time>
      </trkpt>
      <trkpt lat="46.48707" lon="4.01862">
        <ele>233.2</ele>
        <time>2019-08-20T10:53:25Z</time>
      </trkpt>
      <trkpt lat="46.48707" lon="4.01855">
        <ele>233.2</ele>
        <time>2019-08-20T10:53:26Z</time>
      </trkpt>
      <trkpt lat="46.48708" lon="4.01848">
        <ele>233.2</ele>
        <time>2019-08-20T10:53:27Z</time>
      </trkpt>
      <trkpt lat="46.4871" lon="4.0184">
        <ele>233.2</ele>
        <time>2019-08-20T10:53:28Z</time>
      </trkpt>
      <trkpt lat="46.4871" lon="4.01833">
        <ele>233.2</ele>
        <time>2019-08-20T10:53:29Z</time>
      </trkpt>
      <trkpt lat="46.48711" lon="4.01827">
        <ele>233.2</ele>
        <time>2019-08-20T10:53:30Z</time>
      </trkpt>
      <trkpt lat="46.48711" lon="4.01819">
        <ele>233.2</ele>
        <time>2019-08-20T10:53:31Z</time>
      </trkpt>
      <trkpt lat="46.48712" lon="4.01812">
        <ele>233.2</ele>
        <time>2019-08-20T10:53:32Z</time>
      </trkpt>
      <trkpt lat="46.48713" lon="4.01804">
        <ele>233.2</ele>
        <time>2019-08-20T10:53:33Z</time>
      </trkpt>
      <trkpt lat="46.48713" lon="4.01796">
        <ele>233.2</ele>
        <time>2019-08-20T10:53:34Z</time>
      </trkpt>
      <trkpt lat="46.48713" lon="4.01788">
        <ele>233.3</ele>
        <time>2019-08-20T10:53:35Z</time>
      </trkpt>
      <trkpt lat="46.48714" lon="4.01781">
        <ele>233.3</ele>
        <time>2019-08-20T10:53:36Z</time>
      </trkpt>
      <trkpt lat="46.48714" lon="4.01774">
        <ele>233.3</ele>
        <time>2019-08-20T10:53:37Z</time>
      </trkpt>
      <trkpt lat="46.48714" lon="4.01767">
        <ele>233.3</ele>
        <time>2019-08-20T10:53:38Z</time>
      </trkpt>
      <trkpt lat="46.48714" lon="4.01761">
        <ele>233.3</ele>
        <time>2019-08-20T10:53:39Z</time>
      </trkpt>
      <trkpt lat="46.48715" lon="4.01753">
        <ele>233.3</ele>
        <time>2019-08-20T10:53:40Z</time>
      </trkpt>
      <trkpt lat="46.48716" lon="4.01746">
        <ele>233.3</ele>
        <time>2019-08-20T10:53:41Z</time>
      </trkpt>
      <trkpt lat="46.48717" lon="4.01738">
        <ele>233.3</ele>
        <time>2019-08-20T10:53:42Z</time>
      </trkpt>
      <trkpt lat="46.48718" lon="4.01731">
        <ele>233.3</ele>
        <time>2019-08-20T10:53:43Z</time>
      </trkpt>
      <trkpt lat="46.48719" lon="4.01724">
        <ele>233.3</ele>
        <time>2019-08-20T10:53:44Z</time>
      </trkpt>
      <trkpt lat="46.4872" lon="4.01716">
        <ele>233.4</ele>
        <time>2019-08-20T10:53:45Z</time>
      </trkpt>
      <trkpt lat="46.48721" lon="4.0171">
        <ele>233.4</ele>
        <time>2019-08-20T10:53:46Z</time>
      </trkpt>
      <trkpt lat="46.48722" lon="4.01703">
        <ele>233.4</ele>
        <time>2019-08-20T10:53:47Z</time>
      </trkpt>
      <trkpt lat="46.48723" lon="4.01696">
        <ele>233.4</ele>
        <time>2019-08-20T10:53:48Z</time>
      </trkpt>
      <trkpt lat="46.48724" lon="4.0169">
        <ele>233.4</ele>
        <time>2019-08-20T10:53:49Z</time>
      </trkpt>
      <trkpt lat="46.48725" lon="4.01683">
        <ele>233.4</ele>
        <time>2019-08-20T10:53:50Z</time>
      </trkpt>
      <trkpt lat="46.48726" lon="4.01676">
        <ele>233.4</ele>
        <time>2019-08-20T10:53:51Z</time>
      </trkpt>
      <trkpt lat="46.48729" lon="4.01669">
        <ele>233.4</ele>
        <time>2019-08-20T10:53:52Z</time>
      </trkpt>
      <trkpt lat="46.4873" lon="4.01662">
        <ele>233.4</ele>
        <time>2019-08-20T10:53:53Z</time>
      </trkpt>
      <trkpt lat="46.48733" lon="4.01654">
        <ele>233.4</ele>
        <time>2019-08-20T10:53:54Z</time>
      </trkpt>
      <trkpt lat="46.48734" lon="4.01648">
        <ele>233.4</ele>
        <time>2019-08-20T10:53:55Z</time>
      </trkpt>
      <trkpt lat="46.48737" lon="4.0164">
        <ele>233.4</ele>
        <time>2019-08-20T10:53:56Z</time>
      </trkpt>
      <trkpt lat="46.48739" lon="4.01634">
        <ele>233.4</ele>
        <time>2019-08-20T10:53:57Z</time>
      </trkpt>
      <trkpt lat="46.48741" lon="4.01627">
        <ele>233.4</ele>
        <time>2019-08-20T10:53:58Z</time>
      </trkpt>
      <trkpt lat="46.48744" lon="4.01622">
        <ele>233.4</ele>
        <time>2019-08-20T10:53:59Z</time>
      </trkpt>
      <trkpt lat="46.48747" lon="4.01616">
        <ele>233.4</ele>
        <time>2019-08-20T10:54:00Z</time>
      </trkpt>
      <trkpt lat="46.48751" lon="4.01613">
        <ele>233.4</ele>
        <time>2019-08-20T10:54:01Z</time>
      </trkpt>
      <trkpt lat="46.48755" lon="4.01611">
        <ele>233.4</ele>
        <time>2019-08-20T10:54:02Z</time>
      </trkpt>
      <trkpt lat="46.4876" lon="4.01611">
        <ele>233.5</ele>
        <time>2019-08-20T10:54:03Z</time>
      </trkpt>
      <trkpt lat="46.48765" lon="4.01612">
        <ele>233.5</ele>
        <time>2019-08-20T10:54:04Z</time>
      </trkpt>
      <trkpt lat="46.48769" lon="4.01613">
        <ele>233.6</ele>
        <time>2019-08-20T10:54:05Z</time>
      </trkpt>
      <trkpt lat="46.48773" lon="4.01612">
        <ele>233.6</ele>
        <time>2019-08-20T10:54:06Z</time>
      </trkpt>
      <trkpt lat="46.48776" lon="4.01611">
        <ele>233.6</ele>
        <time>2019-08-20T10:54:07Z</time>
      </trkpt>
      <trkpt lat="46.48778" lon="4.01607">
        <ele>233.6</ele>
        <time>2019-08-20T10:54:08Z</time>
      </trkpt>
      <trkpt lat="46.48777" lon="4.01603">
        <ele>233.7</ele>
        <time>2019-08-20T10:54:09Z</time>
      </trkpt>
      <trkpt lat="46.48776" lon="4.01597">
        <ele>233.8</ele>
        <time>2019-08-20T10:54:11Z</time>
      </trkpt>
      <trkpt lat="46.48775" lon="4.01593">
        <ele>233.8</ele>
        <time>2019-08-20T10:54:12Z</time>
      </trkpt>
      <trkpt lat="46.48773" lon="4.0159">
        <ele>233.8</ele>
        <time>2019-08-20T10:54:13Z</time>
      </trkpt>
      <trkpt lat="46.48771" lon="4.01588">
        <ele>233.8</ele>
        <time>2019-08-20T10:54:14Z</time>
      </trkpt>
      <trkpt lat="46.48769" lon="4.01584">
        <ele>233.8</ele>
        <time>2019-08-20T10:54:15Z</time>
      </trkpt>
      <trkpt lat="46.48767" lon="4.01578">
        <ele>233.7</ele>
        <time>2019-08-20T10:54:17Z</time>
      </trkpt>
      <trkpt lat="46.48766" lon="4.01571">
        <ele>233.7</ele>
        <time>2019-08-20T10:54:19Z</time>
      </trkpt>
      <trkpt lat="46.48766" lon="4.01564">
        <ele>233.7</ele>
        <time>2019-08-20T10:54:21Z</time>
      </trkpt>
      <trkpt lat="46.48768" lon="4.01561">
        <ele>233.7</ele>
        <time>2019-08-20T10:54:23Z</time>
      </trkpt>
      <trkpt lat="46.4877" lon="4.01554">
        <ele>233.7</ele>
        <time>2019-08-20T10:54:25Z</time>
      </trkpt>
      <trkpt lat="46.48772" lon="4.01545">
        <ele>233.7</ele>
        <time>2019-08-20T10:54:27Z</time>
      </trkpt>
      <trkpt lat="46.48773" lon="4.0154">
        <ele>233.7</ele>
        <time>2019-08-20T10:54:28Z</time>
      </trkpt>
      <trkpt lat="46.48775" lon="4.01535">
        <ele>233.7</ele>
        <time>2019-08-20T10:54:29Z</time>
      </trkpt>
      <trkpt lat="46.48776" lon="4.0153">
        <ele>233.7</ele>
        <time>2019-08-20T10:54:30Z</time>
      </trkpt>
      <trkpt lat="46.48777" lon="4.01526">
        <ele>233.7</ele>
        <time>2019-08-20T10:54:31Z</time>
      </trkpt>
      <trkpt lat="46.48779" lon="4.01522">
        <ele>233.7</ele>
        <time>2019-08-20T10:54:32Z</time>
      </trkpt>
      <trkpt lat="46.4878" lon="4.01518">
        <ele>233.7</ele>
        <time>2019-08-20T10:54:33Z</time>
      </trkpt>
      <trkpt lat="46.48782" lon="4.01513">
        <ele>233.7</ele>
        <time>2019-08-20T10:54:34Z</time>
      </trkpt>
      <trkpt lat="46.48784" lon="4.01508">
        <ele>233.7</ele>
        <time>2019-08-20T10:54:35Z</time>
      </trkpt>
      <trkpt lat="46.48786" lon="4.01504">
        <ele>233.7</ele>
        <time>2019-08-20T10:54:36Z</time>
      </trkpt>
      <trkpt lat="46.48787" lon="4.01499">
        <ele>233.7</ele>
        <time>2019-08-20T10:54:37Z</time>
      </trkpt>
      <trkpt lat="46.48789" lon="4.01493">
        <ele>233.7</ele>
        <time>2019-08-20T10:54:38Z</time>
      </trkpt>
      <trkpt lat="46.48791" lon="4.01488">
        <ele>233.7</ele>
        <time>2019-08-20T10:54:39Z</time>
      </trkpt>
      <trkpt lat="46.48792" lon="4.01481">
        <ele>233.7</ele>
        <time>2019-08-20T10:54:40Z</time>
      </trkpt>
      <trkpt lat="46.48794" lon="4.01473">
        <ele>233.7</ele>
        <time>2019-08-20T10:54:41Z</time>
      </trkpt>
      <trkpt lat="46.48796" lon="4.01468">
        <ele>233.7</ele>
        <time>2019-08-20T10:54:42Z</time>
      </trkpt>
      <trkpt lat="46.48798" lon="4.01462">
        <ele>233.7</ele>
        <time>2019-08-20T10:54:43Z</time>
      </trkpt>
      <trkpt lat="46.48799" lon="4.01456">
        <ele>233.7</ele>
        <time>2019-08-20T10:54:44Z</time>
      </trkpt>
      <trkpt lat="46.48801" lon="4.0145">
        <ele>233.7</ele>
        <time>2019-08-20T10:54:45Z</time>
      </trkpt>
      <trkpt lat="46.48803" lon="4.01443">
        <ele>233.7</ele>
        <time>2019-08-20T10:54:46Z</time>
      </trkpt>
      <trkpt lat="46.48805" lon="4.01437">
        <ele>233.7</ele>
        <time>2019-08-20T10:54:47Z</time>
      </trkpt>
      <trkpt lat="46.48807" lon="4.01431">
        <ele>233.7</ele>
        <time>2019-08-20T10:54:48Z</time>
      </trkpt>
      <trkpt lat="46.48809" lon="4.01426">
        <ele>233.7</ele>
        <time>2019-08-20T10:54:49Z</time>
      </trkpt>
      <trkpt lat="46.48811" lon="4.0142">
        <ele>233.6</ele>
        <time>2019-08-20T10:54:50Z</time>
      </trkpt>
      <trkpt lat="46.48812" lon="4.01415">
        <ele>233.6</ele>
        <time>2019-08-20T10:54:51Z</time>
      </trkpt>
      <trkpt lat="46.48814" lon="4.01409">
        <ele>233.6</ele>
        <time>2019-08-20T10:54:52Z</time>
      </trkpt>
      <trkpt lat="46.48816" lon="4.01403">
        <ele>233.6</ele>
        <time>2019-08-20T10:54:53Z</time>
      </trkpt>
      <trkpt lat="46.48817" lon="4.01398">
        <ele>233.6</ele>
        <time>2019-08-20T10:54:54Z</time>
      </trkpt>
      <trkpt lat="46.48819" lon="4.01392">
        <ele>233.7</ele>
        <time>2019-08-20T10:54:55Z</time>
      </trkpt>
      <trkpt lat="46.4882" lon="4.01386">
        <ele>233.7</ele>
        <time>2019-08-20T10:54:56Z</time>
      </trkpt>
      <trkpt lat="46.48821" lon="4.0138">
        <ele>233.7</ele>
        <time>2019-08-20T10:54:57Z</time>
      </trkpt>
      <trkpt lat="46.48822" lon="4.01373">
        <ele>233.7</ele>
        <time>2019-08-20T10:54:58Z</time>
      </trkpt>
      <trkpt lat="46.48823" lon="4.01366">
        <ele>233.7</ele>
        <time>2019-08-20T10:54:59Z</time>
      </trkpt>
      <trkpt lat="46.48823" lon="4.0136">
        <ele>233.7</ele>
        <time>2019-08-20T10:55:00Z</time>
      </trkpt>
      <trkpt lat="46.48824" lon="4.01354">
        <ele>233.8</ele>
        <time>2019-08-20T10:55:01Z</time>
      </trkpt>
      <trkpt lat="46.48825" lon="4.01346">
        <ele>233.8</ele>
        <time>2019-08-20T10:55:02Z</time>
      </trkpt>
      <trkpt lat="46.48825" lon="4.01337">
        <ele>233.8</ele>
        <time>2019-08-20T10:55:03Z</time>
      </trkpt>
      <trkpt lat="46.48826" lon="4.0133">
        <ele>233.8</ele>
        <time>2019-08-20T10:55:04Z</time>
      </trkpt>
      <trkpt lat="46.48826" lon="4.01323">
        <ele>233.9</ele>
        <time>2019-08-20T10:55:05Z</time>
      </trkpt>
      <trkpt lat="46.48825" lon="4.01316">
        <ele>233.9</ele>
        <time>2019-08-20T10:55:06Z</time>
      </trkpt>
      <trkpt lat="46.48824" lon="4.0131">
        <ele>233.9</ele>
        <time>2019-08-20T10:55:07Z</time>
      </trkpt>
      <trkpt lat="46.48824" lon="4.01302">
        <ele>233.9</ele>
        <time>2019-08-20T10:55:08Z</time>
      </trkpt>
      <trkpt lat="46.48824" lon="4.01296">
        <ele>233.9</ele>
        <time>2019-08-20T10:55:09Z</time>
      </trkpt>
      <trkpt lat="46.48824" lon="4.01289">
        <ele>233.9</ele>
        <time>2019-08-20T10:55:10Z</time>
      </trkpt>
      <trkpt lat="46.48823" lon="4.01282">
        <ele>233.9</ele>
        <time>2019-08-20T10:55:11Z</time>
      </trkpt>
      <trkpt lat="46.48823" lon="4.01275">
        <ele>233.9</ele>
        <time>2019-08-20T10:55:12Z</time>
      </trkpt>
      <trkpt lat="46.48823" lon="4.01268">
        <ele>234</ele>
        <time>2019-08-20T10:55:13Z</time>
      </trkpt>
      <trkpt lat="46.48822" lon="4.01261">
        <ele>234</ele>
        <time>2019-08-20T10:55:14Z</time>
      </trkpt>
      <trkpt lat="46.48821" lon="4.01254">
        <ele>234</ele>
        <time>2019-08-20T10:55:15Z</time>
      </trkpt>
      <trkpt lat="46.4882" lon="4.01247">
        <ele>234</ele>
        <time>2019-08-20T10:55:16Z</time>
      </trkpt>
      <trkpt lat="46.48819" lon="4.01241">
        <ele>234</ele>
        <time>2019-08-20T10:55:17Z</time>
      </trkpt>
      <trkpt lat="46.48818" lon="4.01235">
        <ele>234</ele>
        <time>2019-08-20T10:55:18Z</time>
      </trkpt>
      <trkpt lat="46.48817" lon="4.0123">
        <ele>234</ele>
        <time>2019-08-20T10:55:19Z</time>
      </trkpt>
      <trkpt lat="46.48816" lon="4.01223">
        <ele>234</ele>
        <time>2019-08-20T10:55:20Z</time>
      </trkpt>
      <trkpt lat="46.48814" lon="4.01217">
        <ele>234</ele>
        <time>2019-08-20T10:55:21Z</time>
      </trkpt>
      <trkpt lat="46.48813" lon="4.01212">
        <ele>234</ele>
        <time>2019-08-20T10:55:22Z</time>
      </trkpt>
      <trkpt lat="46.48812" lon="4.01205">
        <ele>233.9</ele>
        <time>2019-08-20T10:55:23Z</time>
      </trkpt>
      <trkpt lat="46.4881" lon="4.012">
        <ele>233.9</ele>
        <time>2019-08-20T10:55:24Z</time>
      </trkpt>
      <trkpt lat="46.48808" lon="4.01192">
        <ele>233.9</ele>
        <time>2019-08-20T10:55:25Z</time>
      </trkpt>
      <trkpt lat="46.48806" lon="4.01187">
        <ele>233.9</ele>
        <time>2019-08-20T10:55:26Z</time>
      </trkpt>
      <trkpt lat="46.48805" lon="4.01179">
        <ele>233.9</ele>
        <time>2019-08-20T10:55:27Z</time>
      </trkpt>
      <trkpt lat="46.48803" lon="4.01172">
        <ele>233.9</ele>
        <time>2019-08-20T10:55:28Z</time>
      </trkpt>
      <trkpt lat="46.48802" lon="4.01166">
        <ele>233.9</ele>
        <time>2019-08-20T10:55:29Z</time>
      </trkpt>
      <trkpt lat="46.488" lon="4.01159">
        <ele>233.9</ele>
        <time>2019-08-20T10:55:30Z</time>
      </trkpt>
      <trkpt lat="46.48799" lon="4.01152">
        <ele>233.9</ele>
        <time>2019-08-20T10:55:31Z</time>
      </trkpt>
      <trkpt lat="46.48797" lon="4.01146">
        <ele>233.9</ele>
        <time>2019-08-20T10:55:32Z</time>
      </trkpt>
      <trkpt lat="46.48795" lon="4.01139">
        <ele>233.9</ele>
        <time>2019-08-20T10:55:33Z</time>
      </trkpt>
      <trkpt lat="46.48794" lon="4.01133">
        <ele>233.9</ele>
        <time>2019-08-20T10:55:34Z</time>
      </trkpt>
      <trkpt lat="46.48793" lon="4.01126">
        <ele>233.9</ele>
        <time>2019-08-20T10:55:35Z</time>
      </trkpt>
      <trkpt lat="46.48791" lon="4.01121">
        <ele>233.9</ele>
        <time>2019-08-20T10:55:36Z</time>
      </trkpt>
      <trkpt lat="46.4879" lon="4.01115">
        <ele>233.9</ele>
        <time>2019-08-20T10:55:37Z</time>
      </trkpt>
      <trkpt lat="46.48788" lon="4.01109">
        <ele>233.9</ele>
        <time>2019-08-20T10:55:38Z</time>
      </trkpt>
      <trkpt lat="46.48787" lon="4.01102">
        <ele>233.8</ele>
        <time>2019-08-20T10:55:39Z</time>
      </trkpt>
      <trkpt lat="46.48786" lon="4.01096">
        <ele>233.8</ele>
        <time>2019-08-20T10:55:40Z</time>
      </trkpt>
      <trkpt lat="46.48785" lon="4.01089">
        <ele>233.8</ele>
        <time>2019-08-20T10:55:41Z</time>
      </trkpt>
      <trkpt lat="46.48783" lon="4.01082">
        <ele>233.8</ele>
        <time>2019-08-20T10:55:42Z</time>
      </trkpt>
      <trkpt lat="46.48782" lon="4.01075">
        <ele>233.8</ele>
        <time>2019-08-20T10:55:43Z</time>
      </trkpt>
      <trkpt lat="46.48781" lon="4.01066">
        <ele>233.8</ele>
        <time>2019-08-20T10:55:44Z</time>
      </trkpt>
      <trkpt lat="46.4878" lon="4.0106">
        <ele>233.7</ele>
        <time>2019-08-20T10:55:45Z</time>
      </trkpt>
      <trkpt lat="46.48778" lon="4.01054">
        <ele>233.7</ele>
        <time>2019-08-20T10:55:46Z</time>
      </trkpt>
      <trkpt lat="46.48776" lon="4.01047">
        <ele>233.7</ele>
        <time>2019-08-20T10:55:47Z</time>
      </trkpt>
      <trkpt lat="46.48775" lon="4.01039">
        <ele>233.7</ele>
        <time>2019-08-20T10:55:48Z</time>
      </trkpt>
      <trkpt lat="46.48774" lon="4.01032">
        <ele>233.7</ele>
        <time>2019-08-20T10:55:49Z</time>
      </trkpt>
      <trkpt lat="46.48772" lon="4.01025">
        <ele>233.6</ele>
        <time>2019-08-20T10:55:50Z</time>
      </trkpt>
      <trkpt lat="46.48771" lon="4.01018">
        <ele>233.6</ele>
        <time>2019-08-20T10:55:51Z</time>
      </trkpt>
      <trkpt lat="46.4877" lon="4.01012">
        <ele>233.6</ele>
        <time>2019-08-20T10:55:52Z</time>
      </trkpt>
      <trkpt lat="46.48768" lon="4.01005">
        <ele>233.6</ele>
        <time>2019-08-20T10:55:53Z</time>
      </trkpt>
      <trkpt lat="46.48767" lon="4.00998">
        <ele>233.6</ele>
        <time>2019-08-20T10:55:54Z</time>
      </trkpt>
      <trkpt lat="46.48767" lon="4.00991">
        <ele>233.6</ele>
        <time>2019-08-20T10:55:55Z</time>
      </trkpt>
      <trkpt lat="46.48767" lon="4.00984">
        <ele>233.6</ele>
        <time>2019-08-20T10:55:56Z</time>
      </trkpt>
      <trkpt lat="46.48767" lon="4.00977">
        <ele>233.6</ele>
        <time>2019-08-20T10:55:57Z</time>
      </trkpt>
      <trkpt lat="46.48767" lon="4.0097">
        <ele>233.6</ele>
        <time>2019-08-20T10:55:58Z</time>
      </trkpt>
      <trkpt lat="46.48767" lon="4.00963">
        <ele>233.6</ele>
        <time>2019-08-20T10:55:59Z</time>
      </trkpt>
      <trkpt lat="46.48767" lon="4.00956">
        <ele>233.6</ele>
        <time>2019-08-20T10:56:00Z</time>
      </trkpt>
      <trkpt lat="46.48768" lon="4.00949">
        <ele>233.6</ele>
        <time>2019-08-20T10:56:01Z</time>
      </trkpt>
      <trkpt lat="46.48769" lon="4.00942">
        <ele>233.6</ele>
        <time>2019-08-20T10:56:02Z</time>
      </trkpt>
      <trkpt lat="46.4877" lon="4.00935">
        <ele>233.6</ele>
        <time>2019-08-20T10:56:03Z</time>
      </trkpt>
      <trkpt lat="46.48771" lon="4.00928">
        <ele>233.5</ele>
        <time>2019-08-20T10:56:04Z</time>
      </trkpt>
      <trkpt lat="46.48772" lon="4.00921">
        <ele>233.5</ele>
        <time>2019-08-20T10:56:05Z</time>
      </trkpt>
      <trkpt lat="46.48773" lon="4.00913">
        <ele>233.5</ele>
        <time>2019-08-20T10:56:06Z</time>
      </trkpt>
      <trkpt lat="46.48773" lon="4.00906">
        <ele>233.5</ele>
        <time>2019-08-20T10:56:07Z</time>
      </trkpt>
      <trkpt lat="46.48774" lon="4.00899">
        <ele>233.5</ele>
        <time>2019-08-20T10:56:08Z</time>
      </trkpt>
      <trkpt lat="46.48775" lon="4.00893">
        <ele>233.5</ele>
        <time>2019-08-20T10:56:09Z</time>
      </trkpt>
      <trkpt lat="46.48776" lon="4.00887">
        <ele>233.5</ele>
        <time>2019-08-20T10:56:10Z</time>
      </trkpt>
      <trkpt lat="46.48777" lon="4.00881">
        <ele>233.5</ele>
        <time>2019-08-20T10:56:11Z</time>
      </trkpt>
      <trkpt lat="46.48779" lon="4.00874">
        <ele>233.5</ele>
        <time>2019-08-20T10:56:12Z</time>
      </trkpt>
      <trkpt lat="46.4878" lon="4.00867">
        <ele>233.5</ele>
        <time>2019-08-20T10:56:13Z</time>
      </trkpt>
      <trkpt lat="46.48782" lon="4.0086">
        <ele>233.5</ele>
        <time>2019-08-20T10:56:14Z</time>
      </trkpt>
      <trkpt lat="46.48783" lon="4.00854">
        <ele>233.5</ele>
        <time>2019-08-20T10:56:15Z</time>
      </trkpt>
      <trkpt lat="46.48784" lon="4.00847">
        <ele>233.5</ele>
        <time>2019-08-20T10:56:16Z</time>
      </trkpt>
      <trkpt lat="46.48785" lon="4.00841">
        <ele>233.5</ele>
        <time>2019-08-20T10:56:17Z</time>
      </trkpt>
      <trkpt lat="46.48786" lon="4.00835">
        <ele>233.5</ele>
        <time>2019-08-20T10:56:18Z</time>
      </trkpt>
      <trkpt lat="46.48788" lon="4.00827">
        <ele>233.4</ele>
        <time>2019-08-20T10:56:19Z</time>
      </trkpt>
      <trkpt lat="46.48789" lon="4.00819">
        <ele>233.4</ele>
        <time>2019-08-20T10:56:20Z</time>
      </trkpt>
      <trkpt lat="46.4879" lon="4.00811">
        <ele>233.4</ele>
        <time>2019-08-20T10:56:21Z</time>
      </trkpt>
      <trkpt lat="46.4879" lon="4.00803">
        <ele>233.3</ele>
        <time>2019-08-20T10:56:22Z</time>
      </trkpt>
      <trkpt lat="46.48791" lon="4.00796">
        <ele>233.3</ele>
        <time>2019-08-20T10:56:23Z</time>
      </trkpt>
      <trkpt lat="46.48792" lon="4.00789">
        <ele>233.2</ele>
        <time>2019-08-20T10:56:24Z</time>
      </trkpt>
      <trkpt lat="46.48793" lon="4.00783">
        <ele>233.2</ele>
        <time>2019-08-20T10:56:25Z</time>
      </trkpt>
      <trkpt lat="46.48793" lon="4.00776">
        <ele>233.1</ele>
        <time>2019-08-20T10:56:26Z</time>
      </trkpt>
      <trkpt lat="46.48794" lon="4.0077">
        <ele>233.1</ele>
        <time>2019-08-20T10:56:27Z</time>
      </trkpt>
      <trkpt lat="46.48795" lon="4.00763">
        <ele>233</ele>
        <time>2019-08-20T10:56:28Z</time>
      </trkpt>
      <trkpt lat="46.48795" lon="4.00757">
        <ele>233</ele>
        <time>2019-08-20T10:56:29Z</time>
      </trkpt>
      <trkpt lat="46.48797" lon="4.0075">
        <ele>232.9</ele>
        <time>2019-08-20T10:56:30Z</time>
      </trkpt>
      <trkpt lat="46.48798" lon="4.00743">
        <ele>232.9</ele>
        <time>2019-08-20T10:56:31Z</time>
      </trkpt>
      <trkpt lat="46.48799" lon="4.00735">
        <ele>233</ele>
        <time>2019-08-20T10:56:32Z</time>
      </trkpt>
      <trkpt lat="46.48799" lon="4.00727">
        <ele>233</ele>
        <time>2019-08-20T10:56:33Z</time>
      </trkpt>
      <trkpt lat="46.488" lon="4.00719">
        <ele>233.1</ele>
        <time>2019-08-20T10:56:34Z</time>
      </trkpt>
      <trkpt lat="46.488" lon="4.00712">
        <ele>233.1</ele>
        <time>2019-08-20T10:56:35Z</time>
      </trkpt>
      <trkpt lat="46.48802" lon="4.00706">
        <ele>233.2</ele>
        <time>2019-08-20T10:56:36Z</time>
      </trkpt>
      <trkpt lat="46.48803" lon="4.007">
        <ele>233.2</ele>
        <time>2019-08-20T10:56:37Z</time>
      </trkpt>
      <trkpt lat="46.48805" lon="4.00693">
        <ele>233.3</ele>
        <time>2019-08-20T10:56:38Z</time>
      </trkpt>
      <trkpt lat="46.48805" lon="4.00686">
        <ele>233.4</ele>
        <time>2019-08-20T10:56:39Z</time>
      </trkpt>
      <trkpt lat="46.48805" lon="4.00679">
        <ele>233.4</ele>
        <time>2019-08-20T10:56:40Z</time>
      </trkpt>
      <trkpt lat="46.48804" lon="4.00673">
        <ele>233.5</ele>
        <time>2019-08-20T10:56:41Z</time>
      </trkpt>
      <trkpt lat="46.48804" lon="4.00666">
        <ele>233.5</ele>
        <time>2019-08-20T10:56:42Z</time>
      </trkpt>
      <trkpt lat="46.48804" lon="4.0066">
        <ele>233.6</ele>
        <time>2019-08-20T10:56:43Z</time>
      </trkpt>
      <trkpt lat="46.48805" lon="4.00654">
        <ele>233.6</ele>
        <time>2019-08-20T10:56:44Z</time>
      </trkpt>
      <trkpt lat="46.48806" lon="4.0065">
        <ele>233.7</ele>
        <time>2019-08-20T10:56:45Z</time>
      </trkpt>
      <trkpt lat="46.48808" lon="4.00645">
        <ele>233.7</ele>
        <time>2019-08-20T10:56:46Z</time>
      </trkpt>
      <trkpt lat="46.48811" lon="4.00641">
        <ele>233.8</ele>
        <time>2019-08-20T10:56:47Z</time>
      </trkpt>
      <trkpt lat="46.48812" lon="4.00635">
        <ele>233.8</ele>
        <time>2019-08-20T10:56:48Z</time>
      </trkpt>
      <trkpt lat="46.48814" lon="4.0063">
        <ele>233.9</ele>
        <time>2019-08-20T10:56:49Z</time>
      </trkpt>
      <trkpt lat="46.48816" lon="4.00623">
        <ele>234</ele>
        <time>2019-08-20T10:56:50Z</time>
      </trkpt>
      <trkpt lat="46.48817" lon="4.00617">
        <ele>234</ele>
        <time>2019-08-20T10:56:51Z</time>
      </trkpt>
      <trkpt lat="46.48819" lon="4.00612">
        <ele>234.1</ele>
        <time>2019-08-20T10:56:52Z</time>
      </trkpt>
      <trkpt lat="46.4882" lon="4.00607">
        <ele>234.2</ele>
        <time>2019-08-20T10:56:53Z</time>
      </trkpt>
      <trkpt lat="46.4882" lon="4.00602">
        <ele>234.1</ele>
        <time>2019-08-20T10:56:54Z</time>
      </trkpt>
      <trkpt lat="46.48822" lon="4.00597">
        <ele>234.1</ele>
        <time>2019-08-20T10:56:55Z</time>
      </trkpt>
      <trkpt lat="46.48823" lon="4.00591">
        <ele>234</ele>
        <time>2019-08-20T10:56:56Z</time>
      </trkpt>
      <trkpt lat="46.48823" lon="4.00584">
        <ele>233.9</ele>
        <time>2019-08-20T10:56:57Z</time>
      </trkpt>
      <trkpt lat="46.48824" lon="4.00577">
        <ele>233.9</ele>
        <time>2019-08-20T10:56:58Z</time>
      </trkpt>
      <trkpt lat="46.48825" lon="4.00571">
        <ele>233.8</ele>
        <time>2019-08-20T10:56:59Z</time>
      </trkpt>
      <trkpt lat="46.48825" lon="4.00563">
        <ele>233.7</ele>
        <time>2019-08-20T10:57:00Z</time>
      </trkpt>
      <trkpt lat="46.48826" lon="4.00557">
        <ele>233.7</ele>
        <time>2019-08-20T10:57:01Z</time>
      </trkpt>
      <trkpt lat="46.48827" lon="4.00551">
        <ele>233.7</ele>
        <time>2019-08-20T10:57:02Z</time>
      </trkpt>
      <trkpt lat="46.48828" lon="4.00546">
        <ele>233.6</ele>
        <time>2019-08-20T10:57:03Z</time>
      </trkpt>
      <trkpt lat="46.48829" lon="4.0054">
        <ele>233.6</ele>
        <time>2019-08-20T10:57:04Z</time>
      </trkpt>
      <trkpt lat="46.48829" lon="4.00535">
        <ele>233.5</ele>
        <time>2019-08-20T10:57:05Z</time>
      </trkpt>
      <trkpt lat="46.4883" lon="4.00529">
        <ele>233.5</ele>
        <time>2019-08-20T10:57:06Z</time>
      </trkpt>
      <trkpt lat="46.4883" lon="4.00523">
        <ele>233.5</ele>
        <time>2019-08-20T10:57:07Z</time>
      </trkpt>
      <trkpt lat="46.48831" lon="4.00516">
        <ele>233.4</ele>
        <time>2019-08-20T10:57:08Z</time>
      </trkpt>
      <trkpt lat="46.48831" lon="4.00509">
        <ele>233.4</ele>
        <time>2019-08-20T10:57:09Z</time>
      </trkpt>
      <trkpt lat="46.48831" lon="4.00503">
        <ele>233.4</ele>
        <time>2019-08-20T10:57:10Z</time>
      </trkpt>
      <trkpt lat="46.48831" lon="4.00495">
        <ele>233.4</ele>
        <time>2019-08-20T10:57:11Z</time>
      </trkpt>
      <trkpt lat="46.4883" lon="4.00489">
        <ele>233.3</ele>
        <time>2019-08-20T10:57:12Z</time>
      </trkpt>
      <trkpt lat="46.4883" lon="4.0048">
        <ele>233.3</ele>
        <time>2019-08-20T10:57:13Z</time>
      </trkpt>
      <trkpt lat="46.4883" lon="4.00473">
        <ele>233.3</ele>
        <time>2019-08-20T10:57:14Z</time>
      </trkpt>
      <trkpt lat="46.48829" lon="4.00466">
        <ele>233.3</ele>
        <time>2019-08-20T10:57:15Z</time>
      </trkpt>
      <trkpt lat="46.4883" lon="4.0046">
        <ele>233.3</ele>
        <time>2019-08-20T10:57:16Z</time>
      </trkpt>
      <trkpt lat="46.48829" lon="4.00453">
        <ele>233.3</ele>
        <time>2019-08-20T10:57:17Z</time>
      </trkpt>
      <trkpt lat="46.48828" lon="4.00446">
        <ele>233.3</ele>
        <time>2019-08-20T10:57:18Z</time>
      </trkpt>
      <trkpt lat="46.48828" lon="4.0044">
        <ele>233.3</ele>
        <time>2019-08-20T10:57:19Z</time>
      </trkpt>
      <trkpt lat="46.48828" lon="4.00432">
        <ele>233.4</ele>
        <time>2019-08-20T10:57:20Z</time>
      </trkpt>
      <trkpt lat="46.48827" lon="4.00425">
        <ele>233.4</ele>
        <time>2019-08-20T10:57:21Z</time>
      </trkpt>
      <trkpt lat="46.48826" lon="4.00419">
        <ele>233.4</ele>
        <time>2019-08-20T10:57:22Z</time>
      </trkpt>
      <trkpt lat="46.48824" lon="4.00413">
        <ele>233.4</ele>
        <time>2019-08-20T10:57:23Z</time>
      </trkpt>
      <trkpt lat="46.48822" lon="4.00406">
        <ele>233.5</ele>
        <time>2019-08-20T10:57:24Z</time>
      </trkpt>
      <trkpt lat="46.48821" lon="4.004">
        <ele>233.5</ele>
        <time>2019-08-20T10:57:25Z</time>
      </trkpt>
      <trkpt lat="46.4882" lon="4.00394">
        <ele>233.5</ele>
        <time>2019-08-20T10:57:26Z</time>
      </trkpt>
      <trkpt lat="46.48819" lon="4.00387">
        <ele>233.5</ele>
        <time>2019-08-20T10:57:27Z</time>
      </trkpt>
      <trkpt lat="46.48817" lon="4.0038">
        <ele>233.5</ele>
        <time>2019-08-20T10:57:28Z</time>
      </trkpt>
      <trkpt lat="46.48815" lon="4.00373">
        <ele>233.6</ele>
        <time>2019-08-20T10:57:29Z</time>
      </trkpt>
      <trkpt lat="46.48814" lon="4.00367">
        <ele>233.6</ele>
        <time>2019-08-20T10:57:30Z</time>
      </trkpt>
      <trkpt lat="46.48813" lon="4.00362">
        <ele>233.6</ele>
        <time>2019-08-20T10:57:31Z</time>
      </trkpt>
      <trkpt lat="46.48811" lon="4.00356">
        <ele>233.6</ele>
        <time>2019-08-20T10:57:32Z</time>
      </trkpt>
      <trkpt lat="46.48809" lon="4.00349">
        <ele>233.6</ele>
        <time>2019-08-20T10:57:33Z</time>
      </trkpt>
      <trkpt lat="46.48807" lon="4.00343">
        <ele>233.6</ele>
        <time>2019-08-20T10:57:34Z</time>
      </trkpt>
      <trkpt lat="46.48805" lon="4.00338">
        <ele>233.6</ele>
        <time>2019-08-20T10:57:35Z</time>
      </trkpt>
      <trkpt lat="46.48803" lon="4.00333">
        <ele>233.6</ele>
        <time>2019-08-20T10:57:36Z</time>
      </trkpt>
      <trkpt lat="46.48801" lon="4.00327">
        <ele>233.6</ele>
        <time>2019-08-20T10:57:37Z</time>
      </trkpt>
      <trkpt lat="46.48799" lon="4.00323">
        <ele>233.6</ele>
        <time>2019-08-20T10:57:38Z</time>
      </trkpt>
      <trkpt lat="46.48796" lon="4.00317">
        <ele>233.5</ele>
        <time>2019-08-20T10:57:39Z</time>
      </trkpt>
      <trkpt lat="46.48793" lon="4.00312">
        <ele>233.5</ele>
        <time>2019-08-20T10:57:40Z</time>
      </trkpt>
      <trkpt lat="46.4879" lon="4.00307">
        <ele>233.5</ele>
        <time>2019-08-20T10:57:41Z</time>
      </trkpt>
      <trkpt lat="46.48787" lon="4.00301">
        <ele>233.5</ele>
        <time>2019-08-20T10:57:42Z</time>
      </trkpt>
      <trkpt lat="46.48784" lon="4.00296">
        <ele>233.5</ele>
        <time>2019-08-20T10:57:43Z</time>
      </trkpt>
      <trkpt lat="46.48781" lon="4.0029">
        <ele>233.4</ele>
        <time>2019-08-20T10:57:44Z</time>
      </trkpt>
      <trkpt lat="46.48779" lon="4.00284">
        <ele>233.4</ele>
        <time>2019-08-20T10:57:45Z</time>
      </trkpt>
      <trkpt lat="46.48777" lon="4.00279">
        <ele>233.4</ele>
        <time>2019-08-20T10:57:46Z</time>
      </trkpt>
      <trkpt lat="46.48774" lon="4.00274">
        <ele>233.4</ele>
        <time>2019-08-20T10:57:47Z</time>
      </trkpt>
      <trkpt lat="46.48771" lon="4.00269">
        <ele>233.4</ele>
        <time>2019-08-20T10:57:48Z</time>
      </trkpt>
      <trkpt lat="46.48769" lon="4.00263">
        <ele>233.3</ele>
        <time>2019-08-20T10:57:49Z</time>
      </trkpt>
      <trkpt lat="46.48767" lon="4.00257">
        <ele>233.3</ele>
        <time>2019-08-20T10:57:50Z</time>
      </trkpt>
      <trkpt lat="46.48764" lon="4.00252">
        <ele>233.3</ele>
        <time>2019-08-20T10:57:51Z</time>
      </trkpt>
      <trkpt lat="46.48761" lon="4.00247">
        <ele>233.2</ele>
        <time>2019-08-20T10:57:52Z</time>
      </trkpt>
      <trkpt lat="46.48759" lon="4.00241">
        <ele>233.2</ele>
        <time>2019-08-20T10:57:53Z</time>
      </trkpt>
      <trkpt lat="46.48756" lon="4.00235">
        <ele>233.2</ele>
        <time>2019-08-20T10:57:54Z</time>
      </trkpt>
      <trkpt lat="46.48754" lon="4.0023">
        <ele>233.2</ele>
        <time>2019-08-20T10:57:55Z</time>
      </trkpt>
      <trkpt lat="46.48752" lon="4.00223">
        <ele>233.1</ele>
        <time>2019-08-20T10:57:56Z</time>
      </trkpt>
      <trkpt lat="46.48749" lon="4.00217">
        <ele>233.1</ele>
        <time>2019-08-20T10:57:57Z</time>
      </trkpt>
      <trkpt lat="46.48747" lon="4.00212">
        <ele>233.1</ele>
        <time>2019-08-20T10:57:58Z</time>
      </trkpt>
      <trkpt lat="46.48744" lon="4.00206">
        <ele>233.1</ele>
        <time>2019-08-20T10:57:59Z</time>
      </trkpt>
      <trkpt lat="46.48742" lon="4.00202">
        <ele>233</ele>
        <time>2019-08-20T10:58:00Z</time>
      </trkpt>
      <trkpt lat="46.48739" lon="4.00197">
        <ele>233</ele>
        <time>2019-08-20T10:58:01Z</time>
      </trkpt>
      <trkpt lat="46.48736" lon="4.00192">
        <ele>233</ele>
        <time>2019-08-20T10:58:02Z</time>
      </trkpt>
      <trkpt lat="46.48734" lon="4.00186">
        <ele>233</ele>
        <time>2019-08-20T10:58:03Z</time>
      </trkpt>
      <trkpt lat="46.48731" lon="4.00179">
        <ele>233</ele>
        <time>2019-08-20T10:58:04Z</time>
      </trkpt>
      <trkpt lat="46.48728" lon="4.00173">
        <ele>233</ele>
        <time>2019-08-20T10:58:05Z</time>
      </trkpt>
      <trkpt lat="46.48725" lon="4.00167">
        <ele>233</ele>
        <time>2019-08-20T10:58:06Z</time>
      </trkpt>
      <trkpt lat="46.48722" lon="4.00161">
        <ele>232.9</ele>
        <time>2019-08-20T10:58:07Z</time>
      </trkpt>
      <trkpt lat="46.4872" lon="4.00155">
        <ele>232.9</ele>
        <time>2019-08-20T10:58:08Z</time>
      </trkpt>
      <trkpt lat="46.48718" lon="4.00149">
        <ele>232.9</ele>
        <time>2019-08-20T10:58:09Z</time>
      </trkpt>
      <trkpt lat="46.48715" lon="4.00142">
        <ele>232.9</ele>
        <time>2019-08-20T10:58:10Z</time>
      </trkpt>
      <trkpt lat="46.48713" lon="4.00136">
        <ele>232.9</ele>
        <time>2019-08-20T10:58:11Z</time>
      </trkpt>
      <trkpt lat="46.4871" lon="4.0013">
        <ele>232.9</ele>
        <time>2019-08-20T10:58:12Z</time>
      </trkpt>
      <trkpt lat="46.48707" lon="4.00124">
        <ele>232.9</ele>
        <time>2019-08-20T10:58:13Z</time>
      </trkpt>
      <trkpt lat="46.48704" lon="4.00118">
        <ele>232.8</ele>
        <time>2019-08-20T10:58:14Z</time>
      </trkpt>
      <trkpt lat="46.48701" lon="4.00112">
        <ele>232.8</ele>
        <time>2019-08-20T10:58:15Z</time>
      </trkpt>
      <trkpt lat="46.48699" lon="4.00107">
        <ele>232.7</ele>
        <time>2019-08-20T10:58:16Z</time>
      </trkpt>
      <trkpt lat="46.48696" lon="4.00101">
        <ele>232.7</ele>
        <time>2019-08-20T10:58:17Z</time>
      </trkpt>
      <trkpt lat="46.48693" lon="4.00096">
        <ele>232.6</ele>
        <time>2019-08-20T10:58:18Z</time>
      </trkpt>
      <trkpt lat="46.4869" lon="4.0009">
        <ele>232.6</ele>
        <time>2019-08-20T10:58:19Z</time>
      </trkpt>
      <trkpt lat="46.48688" lon="4.00083">
        <ele>232.6</ele>
        <time>2019-08-20T10:58:20Z</time>
      </trkpt>
      <trkpt lat="46.48684" lon="4.00077">
        <ele>232.5</ele>
        <time>2019-08-20T10:58:21Z</time>
      </trkpt>
      <trkpt lat="46.48682" lon="4.00072">
        <ele>232.5</ele>
        <time>2019-08-20T10:58:22Z</time>
      </trkpt>
      <trkpt lat="46.48679" lon="4.00066">
        <ele>232.5</ele>
        <time>2019-08-20T10:58:23Z</time>
      </trkpt>
      <trkpt lat="46.48676" lon="4.0006">
        <ele>232.5</ele>
        <time>2019-08-20T10:58:24Z</time>
      </trkpt>
      <trkpt lat="46.48674" lon="4.00055">
        <ele>232.5</ele>
        <time>2019-08-20T10:58:25Z</time>
      </trkpt>
      <trkpt lat="46.48671" lon="4.00049">
        <ele>232.5</ele>
        <time>2019-08-20T10:58:26Z</time>
      </trkpt>
      <trkpt lat="46.48668" lon="4.00045">
        <ele>232.5</ele>
        <time>2019-08-20T10:58:27Z</time>
      </trkpt>
      <trkpt lat="46.48666" lon="4.00039">
        <ele>232.5</ele>
        <time>2019-08-20T10:58:28Z</time>
      </trkpt>
      <trkpt lat="46.48663" lon="4.00032">
        <ele>232.5</ele>
        <time>2019-08-20T10:58:29Z</time>
      </trkpt>
      <trkpt lat="46.48659" lon="4.00026">
        <ele>232.5</ele>
        <time>2019-08-20T10:58:30Z</time>
      </trkpt>
      <trkpt lat="46.48656" lon="4.00019">
        <ele>232.5</ele>
        <time>2019-08-20T10:58:31Z</time>
      </trkpt>
      <trkpt lat="46.48654" lon="4.00013">
        <ele>232.4</ele>
        <time>2019-08-20T10:58:32Z</time>
      </trkpt>
      <trkpt lat="46.4865" lon="4.00007">
        <ele>232.4</ele>
        <time>2019-08-20T10:58:33Z</time>
      </trkpt>
      <trkpt lat="46.48647" lon="3.99999">
        <ele>232.4</ele>
        <time>2019-08-20T10:58:34Z</time>
      </trkpt>
      <trkpt lat="46.48644" lon="3.99994">
        <ele>232.4</ele>
        <time>2019-08-20T10:58:35Z</time>
      </trkpt>
      <trkpt lat="46.48642" lon="3.99988">
        <ele>232.4</ele>
        <time>2019-08-20T10:58:36Z</time>
      </trkpt>
      <trkpt lat="46.48639" lon="3.99984">
        <ele>232.4</ele>
        <time>2019-08-20T10:58:37Z</time>
      </trkpt>
      <trkpt lat="46.48637" lon="3.99977">
        <ele>232.4</ele>
        <time>2019-08-20T10:58:38Z</time>
      </trkpt>
      <trkpt lat="46.48634" lon="3.99972">
        <ele>232.4</ele>
        <time>2019-08-20T10:58:39Z</time>
      </trkpt>
      <trkpt lat="46.48632" lon="3.99966">
        <ele>232.4</ele>
        <time>2019-08-20T10:58:40Z</time>
      </trkpt>
      <trkpt lat="46.4863" lon="3.9996">
        <ele>232.4</ele>
        <time>2019-08-20T10:58:41Z</time>
      </trkpt>
      <trkpt lat="46.48626" lon="3.99953">
        <ele>232.4</ele>
        <time>2019-08-20T10:58:42Z</time>
      </trkpt>
      <trkpt lat="46.48623" lon="3.99947">
        <ele>232.4</ele>
        <time>2019-08-20T10:58:43Z</time>
      </trkpt>
      <trkpt lat="46.4862" lon="3.99942">
        <ele>232.4</ele>
        <time>2019-08-20T10:58:44Z</time>
      </trkpt>
      <trkpt lat="46.48616" lon="3.99935">
        <ele>232.5</ele>
        <time>2019-08-20T10:58:45Z</time>
      </trkpt>
      <trkpt lat="46.48613" lon="3.99929">
        <ele>232.5</ele>
        <time>2019-08-20T10:58:46Z</time>
      </trkpt>
      <trkpt lat="46.4861" lon="3.99922">
        <ele>232.5</ele>
        <time>2019-08-20T10:58:47Z</time>
      </trkpt>
      <trkpt lat="46.48607" lon="3.99917">
        <ele>232.5</ele>
        <time>2019-08-20T10:58:48Z</time>
      </trkpt>
      <trkpt lat="46.48605" lon="3.9991">
        <ele>232.5</ele>
        <time>2019-08-20T10:58:49Z</time>
      </trkpt>
      <trkpt lat="46.48602" lon="3.99903">
        <ele>232.5</ele>
        <time>2019-08-20T10:58:50Z</time>
      </trkpt>
      <trkpt lat="46.48599" lon="3.99897">
        <ele>232.5</ele>
        <time>2019-08-20T10:58:51Z</time>
      </trkpt>
      <trkpt lat="46.48596" lon="3.99893">
        <ele>232.5</ele>
        <time>2019-08-20T10:58:52Z</time>
      </trkpt>
      <trkpt lat="46.48593" lon="3.99886">
        <ele>232.5</ele>
        <time>2019-08-20T10:58:53Z</time>
      </trkpt>
      <trkpt lat="46.4859" lon="3.99881">
        <ele>232.5</ele>
        <time>2019-08-20T10:58:54Z</time>
      </trkpt>
      <trkpt lat="46.48587" lon="3.99875">
        <ele>232.5</ele>
        <time>2019-08-20T10:58:55Z</time>
      </trkpt>
      <trkpt lat="46.48584" lon="3.99871">
        <ele>232.5</ele>
        <time>2019-08-20T10:58:56Z</time>
      </trkpt>
      <trkpt lat="46.4858" lon="3.99865">
        <ele>232.5</ele>
        <time>2019-08-20T10:58:57Z</time>
      </trkpt>
      <trkpt lat="46.48576" lon="3.9986">
        <ele>232.5</ele>
        <time>2019-08-20T10:58:58Z</time>
      </trkpt>
      <trkpt lat="46.48572" lon="3.99853">
        <ele>232.5</ele>
        <time>2019-08-20T10:58:59Z</time>
      </trkpt>
      <trkpt lat="46.48569" lon="3.99847">
        <ele>232.5</ele>
        <time>2019-08-20T10:59:00Z</time>
      </trkpt>
      <trkpt lat="46.48564" lon="3.99836">
        <ele>232.5</ele>
        <time>2019-08-20T10:59:02Z</time>
      </trkpt>
      <trkpt lat="46.48561" lon="3.99832">
        <ele>232.5</ele>
        <time>2019-08-20T10:59:03Z</time>
      </trkpt>
      <trkpt lat="46.4856" lon="3.99825">
        <ele>232.5</ele>
        <time>2019-08-20T10:59:04Z</time>
      </trkpt>
      <trkpt lat="46.48557" lon="3.99818">
        <ele>232.5</ele>
        <time>2019-08-20T10:59:05Z</time>
      </trkpt>
      <trkpt lat="46.48556" lon="3.99813">
        <ele>232.4</ele>
        <time>2019-08-20T10:59:06Z</time>
      </trkpt>
      <trkpt lat="46.48555" lon="3.99808">
        <ele>232.4</ele>
        <time>2019-08-20T10:59:07Z</time>
      </trkpt>
      <trkpt lat="46.48553" lon="3.99803">
        <ele>232.4</ele>
        <time>2019-08-20T10:59:08Z</time>
      </trkpt>
      <trkpt lat="46.48553" lon="3.99797">
        <ele>232.3</ele>
        <time>2019-08-20T10:59:09Z</time>
      </trkpt>
      <trkpt lat="46.48552" lon="3.9979">
        <ele>232.3</ele>
        <time>2019-08-20T10:59:10Z</time>
      </trkpt>
      <trkpt lat="46.48552" lon="3.99783">
        <ele>232.3</ele>
        <time>2019-08-20T10:59:11Z</time>
      </trkpt>
      <trkpt lat="46.4855" lon="3.99775">
        <ele>232.3</ele>
        <time>2019-08-20T10:59:12Z</time>
      </trkpt>
      <trkpt lat="46.48549" lon="3.99768">
        <ele>232.2</ele>
        <time>2019-08-20T10:59:13Z</time>
      </trkpt>
      <trkpt lat="46.48548" lon="3.99761">
        <ele>232.2</ele>
        <time>2019-08-20T10:59:14Z</time>
      </trkpt>
      <trkpt lat="46.48547" lon="3.99754">
        <ele>232.2</ele>
        <time>2019-08-20T10:59:15Z</time>
      </trkpt>
      <trkpt lat="46.48546" lon="3.99746">
        <ele>232.1</ele>
        <time>2019-08-20T10:59:16Z</time>
      </trkpt>
      <trkpt lat="46.48544" lon="3.99739">
        <ele>232.1</ele>
        <time>2019-08-20T10:59:17Z</time>
      </trkpt>
      <trkpt lat="46.48543" lon="3.99731">
        <ele>232.1</ele>
        <time>2019-08-20T10:59:18Z</time>
      </trkpt>
      <trkpt lat="46.48542" lon="3.99724">
        <ele>232.1</ele>
        <time>2019-08-20T10:59:19Z</time>
      </trkpt>
      <trkpt lat="46.48542" lon="3.99716">
        <ele>232</ele>
        <time>2019-08-20T10:59:20Z</time>
      </trkpt>
      <trkpt lat="46.48541" lon="3.99707">
        <ele>232</ele>
        <time>2019-08-20T10:59:21Z</time>
      </trkpt>
      <trkpt lat="46.4854" lon="3.99699">
        <ele>231.9</ele>
        <time>2019-08-20T10:59:22Z</time>
      </trkpt>
      <trkpt lat="46.48539" lon="3.99691">
        <ele>231.9</ele>
        <time>2019-08-20T10:59:23Z</time>
      </trkpt>
      <trkpt lat="46.48538" lon="3.99684">
        <ele>231.8</ele>
        <time>2019-08-20T10:59:24Z</time>
      </trkpt>
      <trkpt lat="46.48538" lon="3.99677">
        <ele>231.7</ele>
        <time>2019-08-20T10:59:25Z</time>
      </trkpt>
      <trkpt lat="46.48538" lon="3.99668">
        <ele>231.6</ele>
        <time>2019-08-20T10:59:26Z</time>
      </trkpt>
      <trkpt lat="46.48538" lon="3.9966">
        <ele>231.5</ele>
        <time>2019-08-20T10:59:27Z</time>
      </trkpt>
      <trkpt lat="46.48537" lon="3.99652">
        <ele>231.5</ele>
        <time>2019-08-20T10:59:28Z</time>
      </trkpt>
      <trkpt lat="46.48538" lon="3.99644">
        <ele>231.4</ele>
        <time>2019-08-20T10:59:29Z</time>
      </trkpt>
      <trkpt lat="46.48538" lon="3.99637">
        <ele>231.3</ele>
        <time>2019-08-20T10:59:30Z</time>
      </trkpt>
      <trkpt lat="46.48538" lon="3.9963">
        <ele>231.3</ele>
        <time>2019-08-20T10:59:31Z</time>
      </trkpt>
      <trkpt lat="46.48539" lon="3.99624">
        <ele>231.3</ele>
        <time>2019-08-20T10:59:32Z</time>
      </trkpt>
      <trkpt lat="46.48539" lon="3.99617">
        <ele>231.3</ele>
        <time>2019-08-20T10:59:33Z</time>
      </trkpt>
      <trkpt lat="46.48539" lon="3.99609">
        <ele>231.3</ele>
        <time>2019-08-20T10:59:34Z</time>
      </trkpt>
      <trkpt lat="46.48539" lon="3.99601">
        <ele>231.3</ele>
        <time>2019-08-20T10:59:35Z</time>
      </trkpt>
      <trkpt lat="46.48539" lon="3.99594">
        <ele>231.3</ele>
        <time>2019-08-20T10:59:36Z</time>
      </trkpt>
      <trkpt lat="46.48539" lon="3.99586">
        <ele>231.3</ele>
        <time>2019-08-20T10:59:37Z</time>
      </trkpt>
      <trkpt lat="46.48538" lon="3.99579">
        <ele>231.3</ele>
        <time>2019-08-20T10:59:38Z</time>
      </trkpt>
      <trkpt lat="46.48538" lon="3.99571">
        <ele>231.3</ele>
        <time>2019-08-20T10:59:39Z</time>
      </trkpt>
      <trkpt lat="46.48537" lon="3.99562">
        <ele>231.3</ele>
        <time>2019-08-20T10:59:40Z</time>
      </trkpt>
      <trkpt lat="46.48537" lon="3.99554">
        <ele>231.3</ele>
        <time>2019-08-20T10:59:41Z</time>
      </trkpt>
      <trkpt lat="46.48537" lon="3.99546">
        <ele>231.3</ele>
        <time>2019-08-20T10:59:42Z</time>
      </trkpt>
      <trkpt lat="46.48538" lon="3.99537">
        <ele>231.3</ele>
        <time>2019-08-20T10:59:43Z</time>
      </trkpt>
      <trkpt lat="46.48538" lon="3.99528">
        <ele>231.3</ele>
        <time>2019-08-20T10:59:44Z</time>
      </trkpt>
      <trkpt lat="46.48538" lon="3.9952">
        <ele>231.3</ele>
        <time>2019-08-20T10:59:45Z</time>
      </trkpt>
      <trkpt lat="46.48539" lon="3.99512">
        <ele>231.3</ele>
        <time>2019-08-20T10:59:46Z</time>
      </trkpt>
      <trkpt lat="46.48539" lon="3.99505">
        <ele>231.3</ele>
        <time>2019-08-20T10:59:47Z</time>
      </trkpt>
      <trkpt lat="46.48538" lon="3.99498">
        <ele>231.3</ele>
        <time>2019-08-20T10:59:48Z</time>
      </trkpt>
      <trkpt lat="46.48538" lon="3.99491">
        <ele>231.3</ele>
        <time>2019-08-20T10:59:49Z</time>
      </trkpt>
      <trkpt lat="46.48538" lon="3.99484">
        <ele>231.3</ele>
        <time>2019-08-20T10:59:50Z</time>
      </trkpt>
      <trkpt lat="46.48538" lon="3.99475">
        <ele>231.3</ele>
        <time>2019-08-20T10:59:51Z</time>
      </trkpt>
      <trkpt lat="46.48537" lon="3.99468">
        <ele>231.3</ele>
        <time>2019-08-20T10:59:52Z</time>
      </trkpt>
      <trkpt lat="46.48536" lon="3.99461">
        <ele>231.3</ele>
        <time>2019-08-20T10:59:53Z</time>
      </trkpt>
      <trkpt lat="46.48535" lon="3.99455">
        <ele>231.3</ele>
        <time>2019-08-20T10:59:54Z</time>
      </trkpt>
      <trkpt lat="46.48535" lon="3.99448">
        <ele>231.3</ele>
        <time>2019-08-20T10:59:55Z</time>
      </trkpt>
      <trkpt lat="46.48534" lon="3.99441">
        <ele>231.3</ele>
        <time>2019-08-20T10:59:56Z</time>
      </trkpt>
      <trkpt lat="46.48534" lon="3.99435">
        <ele>231.3</ele>
        <time>2019-08-20T10:59:57Z</time>
      </trkpt>
      <trkpt lat="46.48533" lon="3.99428">
        <ele>231.4</ele>
        <time>2019-08-20T10:59:58Z</time>
      </trkpt>
      <trkpt lat="46.48533" lon="3.99421">
        <ele>231.4</ele>
        <time>2019-08-20T10:59:59Z</time>
      </trkpt>
      <trkpt lat="46.48531" lon="3.99415">
        <ele>231.4</ele>
        <time>2019-08-20T11:00:00Z</time>
      </trkpt>
      <trkpt lat="46.4853" lon="3.99409">
        <ele>231.5</ele>
        <time>2019-08-20T11:00:01Z</time>
      </trkpt>
      <trkpt lat="46.48528" lon="3.99403">
        <ele>231.5</ele>
        <time>2019-08-20T11:00:02Z</time>
      </trkpt>
      <trkpt lat="46.48526" lon="3.99394">
        <ele>231.5</ele>
        <time>2019-08-20T11:00:03Z</time>
      </trkpt>
      <trkpt lat="46.48525" lon="3.99387">
        <ele>231.5</ele>
        <time>2019-08-20T11:00:04Z</time>
      </trkpt>
      <trkpt lat="46.48524" lon="3.99381">
        <ele>231.6</ele>
        <time>2019-08-20T11:00:05Z</time>
      </trkpt>
      <trkpt lat="46.48522" lon="3.99374">
        <ele>231.6</ele>
        <time>2019-08-20T11:00:06Z</time>
      </trkpt>
      <trkpt lat="46.48519" lon="3.99368">
        <ele>231.6</ele>
        <time>2019-08-20T11:00:07Z</time>
      </trkpt>
      <trkpt lat="46.48517" lon="3.99361">
        <ele>231.6</ele>
        <time>2019-08-20T11:00:08Z</time>
      </trkpt>
      <trkpt lat="46.48514" lon="3.99354">
        <ele>231.6</ele>
        <time>2019-08-20T11:00:09Z</time>
      </trkpt>
      <trkpt lat="46.48511" lon="3.99348">
        <ele>231.6</ele>
        <time>2019-08-20T11:00:10Z</time>
      </trkpt>
      <trkpt lat="46.48508" lon="3.99343">
        <ele>231.6</ele>
        <time>2019-08-20T11:00:11Z</time>
      </trkpt>
      <trkpt lat="46.48506" lon="3.99338">
        <ele>231.6</ele>
        <time>2019-08-20T11:00:12Z</time>
      </trkpt>
      <trkpt lat="46.48503" lon="3.99333">
        <ele>231.7</ele>
        <time>2019-08-20T11:00:13Z</time>
      </trkpt>
      <trkpt lat="46.485" lon="3.99327">
        <ele>231.7</ele>
        <time>2019-08-20T11:00:14Z</time>
      </trkpt>
      <trkpt lat="46.48497" lon="3.99322">
        <ele>231.7</ele>
        <time>2019-08-20T11:00:15Z</time>
      </trkpt>
      <trkpt lat="46.48494" lon="3.99317">
        <ele>231.7</ele>
        <time>2019-08-20T11:00:16Z</time>
      </trkpt>
      <trkpt lat="46.4849" lon="3.99312">
        <ele>231.7</ele>
        <time>2019-08-20T11:00:17Z</time>
      </trkpt>
      <trkpt lat="46.48487" lon="3.99307">
        <ele>231.7</ele>
        <time>2019-08-20T11:00:18Z</time>
      </trkpt>
      <trkpt lat="46.48484" lon="3.99301">
        <ele>231.7</ele>
        <time>2019-08-20T11:00:19Z</time>
      </trkpt>
      <trkpt lat="46.4848" lon="3.99295">
        <ele>231.8</ele>
        <time>2019-08-20T11:00:20Z</time>
      </trkpt>
      <trkpt lat="46.48477" lon="3.99288">
        <ele>231.8</ele>
        <time>2019-08-20T11:00:21Z</time>
      </trkpt>
      <trkpt lat="46.48473" lon="3.99283">
        <ele>231.8</ele>
        <time>2019-08-20T11:00:22Z</time>
      </trkpt>
      <trkpt lat="46.4847" lon="3.99279">
        <ele>231.8</ele>
        <time>2019-08-20T11:00:23Z</time>
      </trkpt>
      <trkpt lat="46.48467" lon="3.99273">
        <ele>231.8</ele>
        <time>2019-08-20T11:00:24Z</time>
      </trkpt>
      <trkpt lat="46.48464" lon="3.99268">
        <ele>231.8</ele>
        <time>2019-08-20T11:00:25Z</time>
      </trkpt>
      <trkpt lat="46.4846" lon="3.99263">
        <ele>231.8</ele>
        <time>2019-08-20T11:00:26Z</time>
      </trkpt>
      <trkpt lat="46.48456" lon="3.99257">
        <ele>231.8</ele>
        <time>2019-08-20T11:00:27Z</time>
      </trkpt>
      <trkpt lat="46.48453" lon="3.99251">
        <ele>231.9</ele>
        <time>2019-08-20T11:00:28Z</time>
      </trkpt>
      <trkpt lat="46.48449" lon="3.99245">
        <ele>231.9</ele>
        <time>2019-08-20T11:00:29Z</time>
      </trkpt>
      <trkpt lat="46.48446" lon="3.99239">
        <ele>231.9</ele>
        <time>2019-08-20T11:00:30Z</time>
      </trkpt>
      <trkpt lat="46.48442" lon="3.99233">
        <ele>231.9</ele>
        <time>2019-08-20T11:00:31Z</time>
      </trkpt>
      <trkpt lat="46.48439" lon="3.99227">
        <ele>231.9</ele>
        <time>2019-08-20T11:00:32Z</time>
      </trkpt>
      <trkpt lat="46.48435" lon="3.99221">
        <ele>231.9</ele>
        <time>2019-08-20T11:00:33Z</time>
      </trkpt>
      <trkpt lat="46.48431" lon="3.99215">
        <ele>232</ele>
        <time>2019-08-20T11:00:34Z</time>
      </trkpt>
      <trkpt lat="46.48428" lon="3.9921">
        <ele>232</ele>
        <time>2019-08-20T11:00:35Z</time>
      </trkpt>
      <trkpt lat="46.48425" lon="3.99204">
        <ele>232</ele>
        <time>2019-08-20T11:00:36Z</time>
      </trkpt>
      <trkpt lat="46.48421" lon="3.99198">
        <ele>232</ele>
        <time>2019-08-20T11:00:37Z</time>
      </trkpt>
      <trkpt lat="46.48418" lon="3.99192">
        <ele>232</ele>
        <time>2019-08-20T11:00:38Z</time>
      </trkpt>
      <trkpt lat="46.48415" lon="3.99186">
        <ele>232</ele>
        <time>2019-08-20T11:00:39Z</time>
      </trkpt>
      <trkpt lat="46.48412" lon="3.9918">
        <ele>232</ele>
        <time>2019-08-20T11:00:40Z</time>
      </trkpt>
      <trkpt lat="46.48411" lon="3.99174">
        <ele>232</ele>
        <time>2019-08-20T11:00:41Z</time>
      </trkpt>
      <trkpt lat="46.48409" lon="3.99167">
        <ele>232.1</ele>
        <time>2019-08-20T11:00:42Z</time>
      </trkpt>
      <trkpt lat="46.48406" lon="3.99162">
        <ele>232.1</ele>
        <time>2019-08-20T11:00:43Z</time>
      </trkpt>
      <trkpt lat="46.48403" lon="3.99157">
        <ele>232.1</ele>
        <time>2019-08-20T11:00:44Z</time>
      </trkpt>
      <trkpt lat="46.48401" lon="3.99151">
        <ele>232.1</ele>
        <time>2019-08-20T11:00:45Z</time>
      </trkpt>
      <trkpt lat="46.484" lon="3.99146">
        <ele>232.1</ele>
        <time>2019-08-20T11:00:46Z</time>
      </trkpt>
      <trkpt lat="46.48398" lon="3.99139">
        <ele>232.1</ele>
        <time>2019-08-20T11:00:47Z</time>
      </trkpt>
      <trkpt lat="46.48396" lon="3.99132">
        <ele>232.2</ele>
        <time>2019-08-20T11:00:48Z</time>
      </trkpt>
      <trkpt lat="46.48395" lon="3.99124">
        <ele>232.2</ele>
        <time>2019-08-20T11:00:49Z</time>
      </trkpt>
      <trkpt lat="46.48394" lon="3.99117">
        <ele>232.2</ele>
        <time>2019-08-20T11:00:50Z</time>
      </trkpt>
      <trkpt lat="46.48392" lon="3.99111">
        <ele>232.2</ele>
        <time>2019-08-20T11:00:51Z</time>
      </trkpt>
      <trkpt lat="46.48391" lon="3.99105">
        <ele>232.2</ele>
        <time>2019-08-20T11:00:52Z</time>
      </trkpt>
      <trkpt lat="46.4839" lon="3.99098">
        <ele>232.2</ele>
        <time>2019-08-20T11:00:53Z</time>
      </trkpt>
      <trkpt lat="46.48388" lon="3.99092">
        <ele>232.2</ele>
        <time>2019-08-20T11:00:54Z</time>
      </trkpt>
      <trkpt lat="46.48387" lon="3.99084">
        <ele>232.2</ele>
        <time>2019-08-20T11:00:55Z</time>
      </trkpt>
      <trkpt lat="46.48386" lon="3.99077">
        <ele>232.2</ele>
        <time>2019-08-20T11:00:56Z</time>
      </trkpt>
      <trkpt lat="46.48384" lon="3.99069">
        <ele>232.3</ele>
        <time>2019-08-20T11:00:57Z</time>
      </trkpt>
      <trkpt lat="46.48383" lon="3.99061">
        <ele>232.3</ele>
        <time>2019-08-20T11:00:58Z</time>
      </trkpt>
      <trkpt lat="46.48381" lon="3.99054">
        <ele>232.3</ele>
        <time>2019-08-20T11:00:59Z</time>
      </trkpt>
      <trkpt lat="46.48379" lon="3.99048">
        <ele>232.3</ele>
        <time>2019-08-20T11:01:00Z</time>
      </trkpt>
      <trkpt lat="46.48378" lon="3.99041">
        <ele>232.3</ele>
        <time>2019-08-20T11:01:01Z</time>
      </trkpt>
      <trkpt lat="46.48378" lon="3.99034">
        <ele>232.3</ele>
        <time>2019-08-20T11:01:02Z</time>
      </trkpt>
      <trkpt lat="46.48377" lon="3.99028">
        <ele>232.3</ele>
        <time>2019-08-20T11:01:03Z</time>
      </trkpt>
      <trkpt lat="46.48376" lon="3.9902">
        <ele>232.4</ele>
        <time>2019-08-20T11:01:04Z</time>
      </trkpt>
      <trkpt lat="46.48375" lon="3.99014">
        <ele>232.4</ele>
        <time>2019-08-20T11:01:05Z</time>
      </trkpt>
      <trkpt lat="46.48373" lon="3.99006">
        <ele>232.4</ele>
        <time>2019-08-20T11:01:06Z</time>
      </trkpt>
      <trkpt lat="46.48372" lon="3.98999">
        <ele>232.4</ele>
        <time>2019-08-20T11:01:07Z</time>
      </trkpt>
      <trkpt lat="46.48371" lon="3.98992">
        <ele>232.4</ele>
        <time>2019-08-20T11:01:08Z</time>
      </trkpt>
      <trkpt lat="46.4837" lon="3.98986">
        <ele>232.4</ele>
        <time>2019-08-20T11:01:09Z</time>
      </trkpt>
      <trkpt lat="46.48369" lon="3.98979">
        <ele>232.4</ele>
        <time>2019-08-20T11:01:10Z</time>
      </trkpt>
      <trkpt lat="46.48368" lon="3.98973">
        <ele>232.5</ele>
        <time>2019-08-20T11:01:11Z</time>
      </trkpt>
      <trkpt lat="46.48366" lon="3.98965">
        <ele>232.5</ele>
        <time>2019-08-20T11:01:12Z</time>
      </trkpt>
      <trkpt lat="46.48364" lon="3.98959">
        <ele>232.5</ele>
        <time>2019-08-20T11:01:13Z</time>
      </trkpt>
      <trkpt lat="46.48364" lon="3.98952">
        <ele>232.5</ele>
        <time>2019-08-20T11:01:14Z</time>
      </trkpt>
      <trkpt lat="46.48363" lon="3.98945">
        <ele>232.5</ele>
        <time>2019-08-20T11:01:15Z</time>
      </trkpt>
      <trkpt lat="46.48361" lon="3.98938">
        <ele>232.5</ele>
        <time>2019-08-20T11:01:16Z</time>
      </trkpt>
      <trkpt lat="46.48359" lon="3.98933">
        <ele>232.5</ele>
        <time>2019-08-20T11:01:17Z</time>
      </trkpt>
      <trkpt lat="46.48357" lon="3.98927">
        <ele>232.5</ele>
        <time>2019-08-20T11:01:18Z</time>
      </trkpt>
      <trkpt lat="46.48355" lon="3.98921">
        <ele>232.6</ele>
        <time>2019-08-20T11:01:19Z</time>
      </trkpt>
      <trkpt lat="46.48353" lon="3.98915">
        <ele>232.6</ele>
        <time>2019-08-20T11:01:20Z</time>
      </trkpt>
      <trkpt lat="46.48352" lon="3.98909">
        <ele>232.6</ele>
        <time>2019-08-20T11:01:21Z</time>
      </trkpt>
      <trkpt lat="46.4835" lon="3.98904">
        <ele>232.6</ele>
        <time>2019-08-20T11:01:22Z</time>
      </trkpt>
      <trkpt lat="46.48348" lon="3.98898">
        <ele>232.7</ele>
        <time>2019-08-20T11:01:23Z</time>
      </trkpt>
      <trkpt lat="46.48346" lon="3.98891">
        <ele>232.7</ele>
        <time>2019-08-20T11:01:24Z</time>
      </trkpt>
      <trkpt lat="46.48344" lon="3.98885">
        <ele>232.9</ele>
        <time>2019-08-20T11:01:25Z</time>
      </trkpt>
      <trkpt lat="46.48342" lon="3.98879">
        <ele>232.9</ele>
        <time>2019-08-20T11:01:26Z</time>
      </trkpt>
      <trkpt lat="46.48338" lon="3.98875">
        <ele>233</ele>
        <time>2019-08-20T11:01:27Z</time>
      </trkpt>
      <trkpt lat="46.48336" lon="3.98869">
        <ele>233.1</ele>
        <time>2019-08-20T11:01:28Z</time>
      </trkpt>
      <trkpt lat="46.48333" lon="3.98864">
        <ele>233.2</ele>
        <time>2019-08-20T11:01:29Z</time>
      </trkpt>
      <trkpt lat="46.4833" lon="3.98859">
        <ele>233.4</ele>
        <time>2019-08-20T11:01:30Z</time>
      </trkpt>
      <trkpt lat="46.48328" lon="3.98853">
        <ele>233.5</ele>
        <time>2019-08-20T11:01:31Z</time>
      </trkpt>
      <trkpt lat="46.48326" lon="3.98848">
        <ele>233.5</ele>
        <time>2019-08-20T11:01:32Z</time>
      </trkpt>
      <trkpt lat="46.48324" lon="3.98843">
        <ele>233.6</ele>
        <time>2019-08-20T11:01:33Z</time>
      </trkpt>
      <trkpt lat="46.48323" lon="3.98839">
        <ele>233.6</ele>
        <time>2019-08-20T11:01:34Z</time>
      </trkpt>
      <trkpt lat="46.48321" lon="3.98835">
        <ele>233.6</ele>
        <time>2019-08-20T11:01:35Z</time>
      </trkpt>
      <trkpt lat="46.4832" lon="3.98831">
        <ele>233.7</ele>
        <time>2019-08-20T11:01:36Z</time>
      </trkpt>
      <trkpt lat="46.48318" lon="3.98827">
        <ele>233.7</ele>
        <time>2019-08-20T11:01:37Z</time>
      </trkpt>
      <trkpt lat="46.48317" lon="3.98821">
        <ele>233.7</ele>
        <time>2019-08-20T11:01:39Z</time>
      </trkpt>
      <trkpt lat="46.48318" lon="3.98814">
        <ele>233.6</ele>
        <time>2019-08-20T11:01:41Z</time>
      </trkpt>
      <trkpt lat="46.48319" lon="3.98807">
        <ele>233.4</ele>
        <time>2019-08-20T11:01:43Z</time>
      </trkpt>
      <trkpt lat="46.48318" lon="3.98802">
        <ele>233.4</ele>
        <time>2019-08-20T11:01:44Z</time>
      </trkpt>
      <trkpt lat="46.48317" lon="3.98798">
        <ele>233.3</ele>
        <time>2019-08-20T11:01:45Z</time>
      </trkpt>
      <trkpt lat="46.48315" lon="3.98791">
        <ele>233.3</ele>
        <time>2019-08-20T11:01:47Z</time>
      </trkpt>
      <trkpt lat="46.48313" lon="3.98784">
        <ele>233.3</ele>
        <time>2019-08-20T11:01:49Z</time>
      </trkpt>
      <trkpt lat="46.48312" lon="3.98781">
        <ele>233.3</ele>
        <time>2019-08-20T11:01:50Z</time>
      </trkpt>
      <trkpt lat="46.48309" lon="3.98775">
        <ele>233.3</ele>
        <time>2019-08-20T11:01:52Z</time>
      </trkpt>
      <trkpt lat="46.48307" lon="3.9877">
        <ele>233.3</ele>
        <time>2019-08-20T11:01:53Z</time>
      </trkpt>
      <trkpt lat="46.48305" lon="3.98766">
        <ele>233.3</ele>
        <time>2019-08-20T11:01:54Z</time>
      </trkpt>
      <trkpt lat="46.48303" lon="3.98762">
        <ele>233.3</ele>
        <time>2019-08-20T11:01:55Z</time>
      </trkpt>
      <trkpt lat="46.48301" lon="3.98757">
        <ele>233.3</ele>
        <time>2019-08-20T11:01:56Z</time>
      </trkpt>
      <trkpt lat="46.48299" lon="3.98754">
        <ele>233.3</ele>
        <time>2019-08-20T11:01:57Z</time>
      </trkpt>
      <trkpt lat="46.48297" lon="3.9875">
        <ele>233.4</ele>
        <time>2019-08-20T11:01:58Z</time>
      </trkpt>
      <trkpt lat="46.48294" lon="3.98742">
        <ele>233.5</ele>
        <time>2019-08-20T11:02:00Z</time>
      </trkpt>
      <trkpt lat="46.48292" lon="3.98739">
        <ele>233.5</ele>
        <time>2019-08-20T11:02:01Z</time>
      </trkpt>
      <trkpt lat="46.48289" lon="3.98735">
        <ele>233.6</ele>
        <time>2019-08-20T11:02:02Z</time>
      </trkpt>
      <trkpt lat="46.48287" lon="3.98732">
        <ele>233.6</ele>
        <time>2019-08-20T11:02:03Z</time>
      </trkpt>
      <trkpt lat="46.48285" lon="3.98728">
        <ele>233.7</ele>
        <time>2019-08-20T11:02:04Z</time>
      </trkpt>
      <trkpt lat="46.48283" lon="3.98724">
        <ele>233.7</ele>
        <time>2019-08-20T11:02:06Z</time>
      </trkpt>
      <trkpt lat="46.4828" lon="3.98724">
        <ele>233.8</ele>
        <time>2019-08-20T11:02:09Z</time>
      </trkpt>
      <trkpt lat="46.48279" lon="3.98728">
        <ele>233.8</ele>
        <time>2019-08-20T11:02:19Z</time>
      </trkpt>
      <trkpt lat="46.48278" lon="3.98723">
        <ele>233.9</ele>
        <time>2019-08-20T11:02:25Z</time>
      </trkpt>
      <trkpt lat="46.4828" lon="3.98718">
        <ele>234</ele>
        <time>2019-08-20T11:02:27Z</time>
      </trkpt>
      <trkpt lat="46.48283" lon="3.98717">
        <ele>234</ele>
        <time>2019-08-20T11:02:29Z</time>
      </trkpt>
      <trkpt lat="46.48285" lon="3.98715">
        <ele>234.1</ele>
        <time>2019-08-20T11:02:34Z</time>
      </trkpt>
      <trkpt lat="46.48279" lon="3.98718">
        <ele>234.1</ele>
        <time>2019-08-20T11:05:35Z</time>
      </trkpt>
      <trkpt lat="46.48276" lon="3.98721">
        <ele>234.2</ele>
        <time>2019-08-20T11:05:37Z</time>
      </trkpt>
      <trkpt lat="46.48272" lon="3.98723">
        <ele>234.2</ele>
        <time>2019-08-20T11:05:39Z</time>
      </trkpt>
      <trkpt lat="46.4827" lon="3.98725">
        <ele>234.2</ele>
        <time>2019-08-20T11:05:40Z</time>
      </trkpt>
      <trkpt lat="46.48267" lon="3.98727">
        <ele>234.3</ele>
        <time>2019-08-20T11:05:41Z</time>
      </trkpt>
      <trkpt lat="46.48265" lon="3.98729">
        <ele>234.3</ele>
        <time>2019-08-20T11:05:42Z</time>
      </trkpt>
      <trkpt lat="46.48261" lon="3.9873">
        <ele>234.4</ele>
        <time>2019-08-20T11:05:44Z</time>
      </trkpt>
      <trkpt lat="46.48258" lon="3.98728">
        <ele>234.4</ele>
        <time>2019-08-20T11:05:45Z</time>
      </trkpt>
      <trkpt lat="46.48256" lon="3.98725">
        <ele>234.4</ele>
        <time>2019-08-20T11:05:46Z</time>
      </trkpt>
      <trkpt lat="46.48252" lon="3.9872">
        <ele>234.5</ele>
        <time>2019-08-20T11:05:48Z</time>
      </trkpt>
      <trkpt lat="46.48249" lon="3.98718">
        <ele>234.5</ele>
        <time>2019-08-20T11:05:49Z</time>
      </trkpt>
      <trkpt lat="46.48246" lon="3.98713">
        <ele>234.6</ele>
        <time>2019-08-20T11:05:51Z</time>
      </trkpt>
      <trkpt lat="46.48246" lon="3.98705">
        <ele>234.6</ele>
        <time>2019-08-20T11:05:53Z</time>
      </trkpt>
      <trkpt lat="46.48248" lon="3.98701">
        <ele>234.7</ele>
        <time>2019-08-20T11:05:54Z</time>
      </trkpt>
      <trkpt lat="46.48249" lon="3.98696">
        <ele>234.7</ele>
        <time>2019-08-20T11:05:55Z</time>
      </trkpt>
      <trkpt lat="46.48249" lon="3.98691">
        <ele>234.7</ele>
        <time>2019-08-20T11:05:56Z</time>
      </trkpt>
      <trkpt lat="46.48247" lon="3.98685">
        <ele>234.7</ele>
        <time>2019-08-20T11:05:57Z</time>
      </trkpt>
      <trkpt lat="46.48245" lon="3.98681">
        <ele>234.8</ele>
        <time>2019-08-20T11:05:58Z</time>
      </trkpt>
      <trkpt lat="46.48242" lon="3.98676">
        <ele>234.8</ele>
        <time>2019-08-20T11:05:59Z</time>
      </trkpt>
      <trkpt lat="46.4824" lon="3.98671">
        <ele>234.8</ele>
        <time>2019-08-20T11:06:00Z</time>
      </trkpt>
      <trkpt lat="46.48238" lon="3.98667">
        <ele>234.8</ele>
        <time>2019-08-20T11:06:01Z</time>
      </trkpt>
      <trkpt lat="46.48235" lon="3.98662">
        <ele>234.9</ele>
        <time>2019-08-20T11:06:02Z</time>
      </trkpt>
      <trkpt lat="46.48233" lon="3.98658">
        <ele>234.9</ele>
        <time>2019-08-20T11:06:03Z</time>
      </trkpt>
      <trkpt lat="46.4823" lon="3.98652">
        <ele>234.9</ele>
        <time>2019-08-20T11:06:04Z</time>
      </trkpt>
      <trkpt lat="46.48229" lon="3.98648">
        <ele>234.9</ele>
        <time>2019-08-20T11:06:05Z</time>
      </trkpt>
      <trkpt lat="46.48228" lon="3.98645">
        <ele>234.9</ele>
        <time>2019-08-20T11:06:06Z</time>
      </trkpt>
      <trkpt lat="46.48225" lon="3.9864">
        <ele>235</ele>
        <time>2019-08-20T11:06:07Z</time>
      </trkpt>
      <trkpt lat="46.48223" lon="3.98636">
        <ele>235</ele>
        <time>2019-08-20T11:06:08Z</time>
      </trkpt>
      <trkpt lat="46.48221" lon="3.98631">
        <ele>235</ele>
        <time>2019-08-20T11:06:09Z</time>
      </trkpt>
      <trkpt lat="46.4822" lon="3.98627">
        <ele>235</ele>
        <time>2019-08-20T11:06:10Z</time>
      </trkpt>
      <trkpt lat="46.48217" lon="3.98623">
        <ele>235</ele>
        <time>2019-08-20T11:06:11Z</time>
      </trkpt>
      <trkpt lat="46.48215" lon="3.98618">
        <ele>235</ele>
        <time>2019-08-20T11:06:12Z</time>
      </trkpt>
      <trkpt lat="46.48213" lon="3.98614">
        <ele>235</ele>
        <time>2019-08-20T11:06:13Z</time>
      </trkpt>
      <trkpt lat="46.48212" lon="3.98609">
        <ele>235.1</ele>
        <time>2019-08-20T11:06:14Z</time>
      </trkpt>
      <trkpt lat="46.48209" lon="3.98606">
        <ele>235.1</ele>
        <time>2019-08-20T11:06:15Z</time>
      </trkpt>
      <trkpt lat="46.48207" lon="3.98602">
        <ele>235.1</ele>
        <time>2019-08-20T11:06:16Z</time>
      </trkpt>
      <trkpt lat="46.48206" lon="3.98598">
        <ele>235.1</ele>
        <time>2019-08-20T11:06:17Z</time>
      </trkpt>
      <trkpt lat="46.48204" lon="3.98594">
        <ele>235.1</ele>
        <time>2019-08-20T11:06:18Z</time>
      </trkpt>
      <trkpt lat="46.48202" lon="3.9859">
        <ele>235.1</ele>
        <time>2019-08-20T11:06:19Z</time>
      </trkpt>
      <trkpt lat="46.48201" lon="3.98586">
        <ele>235.2</ele>
        <time>2019-08-20T11:06:20Z</time>
      </trkpt>
      <trkpt lat="46.48199" lon="3.98581">
        <ele>235.2</ele>
        <time>2019-08-20T11:06:21Z</time>
      </trkpt>
      <trkpt lat="46.48197" lon="3.98577">
        <ele>235.2</ele>
        <time>2019-08-20T11:06:22Z</time>
      </trkpt>
      <trkpt lat="46.48194" lon="3.98575">
        <ele>235.2</ele>
        <time>2019-08-20T11:06:23Z</time>
      </trkpt>
      <trkpt lat="46.48191" lon="3.98569">
        <ele>235.2</ele>
        <time>2019-08-20T11:06:25Z</time>
      </trkpt>
      <trkpt lat="46.48189" lon="3.98565">
        <ele>235.2</ele>
        <time>2019-08-20T11:06:26Z</time>
      </trkpt>
      <trkpt lat="46.48187" lon="3.9856">
        <ele>235.3</ele>
        <time>2019-08-20T11:06:27Z</time>
      </trkpt>
      <trkpt lat="46.48185" lon="3.98556">
        <ele>235.3</ele>
        <time>2019-08-20T11:06:28Z</time>
      </trkpt>
      <trkpt lat="46.48183" lon="3.98552">
        <ele>235.3</ele>
        <time>2019-08-20T11:06:29Z</time>
      </trkpt>
      <trkpt lat="46.48179" lon="3.98546">
        <ele>235.3</ele>
        <time>2019-08-20T11:06:30Z</time>
      </trkpt>
      <trkpt lat="46.48176" lon="3.98541">
        <ele>235.3</ele>
        <time>2019-08-20T11:06:31Z</time>
      </trkpt>
      <trkpt lat="46.48174" lon="3.98536">
        <ele>235.3</ele>
        <time>2019-08-20T11:06:32Z</time>
      </trkpt>
      <trkpt lat="46.48172" lon="3.98532">
        <ele>235.3</ele>
        <time>2019-08-20T11:06:33Z</time>
      </trkpt>
      <trkpt lat="46.48169" lon="3.98527">
        <ele>235.3</ele>
        <time>2019-08-20T11:06:34Z</time>
      </trkpt>
      <trkpt lat="46.48167" lon="3.98522">
        <ele>235.4</ele>
        <time>2019-08-20T11:06:35Z</time>
      </trkpt>
      <trkpt lat="46.48166" lon="3.98517">
        <ele>235.4</ele>
        <time>2019-08-20T11:06:36Z</time>
      </trkpt>
      <trkpt lat="46.48165" lon="3.98512">
        <ele>235.5</ele>
        <time>2019-08-20T11:06:37Z</time>
      </trkpt>
      <trkpt lat="46.48164" lon="3.98507">
        <ele>235.5</ele>
        <time>2019-08-20T11:06:38Z</time>
      </trkpt>
      <trkpt lat="46.48163" lon="3.98503">
        <ele>235.6</ele>
        <time>2019-08-20T11:06:39Z</time>
      </trkpt>
      <trkpt lat="46.4816" lon="3.98498">
        <ele>235.6</ele>
        <time>2019-08-20T11:06:40Z</time>
      </trkpt>
      <trkpt lat="46.48157" lon="3.98494">
        <ele>235.6</ele>
        <time>2019-08-20T11:06:41Z</time>
      </trkpt>
      <trkpt lat="46.48154" lon="3.98488">
        <ele>235.6</ele>
        <time>2019-08-20T11:06:42Z</time>
      </trkpt>
      <trkpt lat="46.48152" lon="3.98484">
        <ele>235.6</ele>
        <time>2019-08-20T11:06:43Z</time>
      </trkpt>
      <trkpt lat="46.48149" lon="3.9848">
        <ele>235.6</ele>
        <time>2019-08-20T11:06:44Z</time>
      </trkpt>
      <trkpt lat="46.48148" lon="3.98475">
        <ele>235.6</ele>
        <time>2019-08-20T11:06:45Z</time>
      </trkpt>
      <trkpt lat="46.48145" lon="3.98471">
        <ele>235.6</ele>
        <time>2019-08-20T11:06:46Z</time>
      </trkpt>
      <trkpt lat="46.48143" lon="3.98467">
        <ele>235.7</ele>
        <time>2019-08-20T11:06:47Z</time>
      </trkpt>
      <trkpt lat="46.4814" lon="3.98462">
        <ele>235.7</ele>
        <time>2019-08-20T11:06:48Z</time>
      </trkpt>
      <trkpt lat="46.48138" lon="3.98456">
        <ele>235.8</ele>
        <time>2019-08-20T11:06:49Z</time>
      </trkpt>
      <trkpt lat="46.48136" lon="3.98451">
        <ele>235.9</ele>
        <time>2019-08-20T11:06:50Z</time>
      </trkpt>
      <trkpt lat="46.48134" lon="3.98447">
        <ele>235.9</ele>
        <time>2019-08-20T11:06:51Z</time>
      </trkpt>
      <trkpt lat="46.48131" lon="3.98442">
        <ele>236</ele>
        <time>2019-08-20T11:06:52Z</time>
      </trkpt>
      <trkpt lat="46.48128" lon="3.98437">
        <ele>236.1</ele>
        <time>2019-08-20T11:06:53Z</time>
      </trkpt>
      <trkpt lat="46.48126" lon="3.98433">
        <ele>236.1</ele>
        <time>2019-08-20T11:06:54Z</time>
      </trkpt>
      <trkpt lat="46.48123" lon="3.98428">
        <ele>236.1</ele>
        <time>2019-08-20T11:06:55Z</time>
      </trkpt>
      <trkpt lat="46.48121" lon="3.98423">
        <ele>236.2</ele>
        <time>2019-08-20T11:06:56Z</time>
      </trkpt>
      <trkpt lat="46.48119" lon="3.98418">
        <ele>236.2</ele>
        <time>2019-08-20T11:06:57Z</time>
      </trkpt>
      <trkpt lat="46.48115" lon="3.98413">
        <ele>236.2</ele>
        <time>2019-08-20T11:06:58Z</time>
      </trkpt>
      <trkpt lat="46.48113" lon="3.98409">
        <ele>236.2</ele>
        <time>2019-08-20T11:06:59Z</time>
      </trkpt>
      <trkpt lat="46.4811" lon="3.98405">
        <ele>236.2</ele>
        <time>2019-08-20T11:07:00Z</time>
      </trkpt>
      <trkpt lat="46.48108" lon="3.98399">
        <ele>236.2</ele>
        <time>2019-08-20T11:07:01Z</time>
      </trkpt>
      <trkpt lat="46.48105" lon="3.98394">
        <ele>236.2</ele>
        <time>2019-08-20T11:07:02Z</time>
      </trkpt>
      <trkpt lat="46.48102" lon="3.98388">
        <ele>236.2</ele>
        <time>2019-08-20T11:07:03Z</time>
      </trkpt>
      <trkpt lat="46.481" lon="3.98383">
        <ele>236.2</ele>
        <time>2019-08-20T11:07:04Z</time>
      </trkpt>
      <trkpt lat="46.48097" lon="3.98379">
        <ele>236.2</ele>
        <time>2019-08-20T11:07:05Z</time>
      </trkpt>
      <trkpt lat="46.48093" lon="3.98375">
        <ele>236.2</ele>
        <time>2019-08-20T11:07:06Z</time>
      </trkpt>
      <trkpt lat="46.48091" lon="3.98371">
        <ele>236.2</ele>
        <time>2019-08-20T11:07:07Z</time>
      </trkpt>
      <trkpt lat="46.48089" lon="3.98366">
        <ele>236.2</ele>
        <time>2019-08-20T11:07:08Z</time>
      </trkpt>
      <trkpt lat="46.48087" lon="3.98361">
        <ele>236.2</ele>
        <time>2019-08-20T11:07:09Z</time>
      </trkpt>
      <trkpt lat="46.48085" lon="3.98355">
        <ele>236.2</ele>
        <time>2019-08-20T11:07:10Z</time>
      </trkpt>
      <trkpt lat="46.48083" lon="3.98349">
        <ele>236.2</ele>
        <time>2019-08-20T11:07:11Z</time>
      </trkpt>
      <trkpt lat="46.4808" lon="3.98344">
        <ele>236.2</ele>
        <time>2019-08-20T11:07:12Z</time>
      </trkpt>
      <trkpt lat="46.48078" lon="3.98339">
        <ele>236.2</ele>
        <time>2019-08-20T11:07:13Z</time>
      </trkpt>
      <trkpt lat="46.48076" lon="3.98334">
        <ele>236.2</ele>
        <time>2019-08-20T11:07:14Z</time>
      </trkpt>
      <trkpt lat="46.48073" lon="3.9833">
        <ele>236.2</ele>
        <time>2019-08-20T11:07:15Z</time>
      </trkpt>
      <trkpt lat="46.48071" lon="3.98325">
        <ele>236.2</ele>
        <time>2019-08-20T11:07:16Z</time>
      </trkpt>
      <trkpt lat="46.4807" lon="3.98321">
        <ele>236.3</ele>
        <time>2019-08-20T11:07:17Z</time>
      </trkpt>
      <trkpt lat="46.48068" lon="3.98317">
        <ele>236.3</ele>
        <time>2019-08-20T11:07:18Z</time>
      </trkpt>
      <trkpt lat="46.48066" lon="3.98312">
        <ele>236.4</ele>
        <time>2019-08-20T11:07:19Z</time>
      </trkpt>
      <trkpt lat="46.48064" lon="3.98307">
        <ele>236.4</ele>
        <time>2019-08-20T11:07:20Z</time>
      </trkpt>
      <trkpt lat="46.48062" lon="3.98302">
        <ele>236.5</ele>
        <time>2019-08-20T11:07:21Z</time>
      </trkpt>
      <trkpt lat="46.4806" lon="3.98297">
        <ele>236.6</ele>
        <time>2019-08-20T11:07:22Z</time>
      </trkpt>
      <trkpt lat="46.48057" lon="3.98294">
        <ele>236.7</ele>
        <time>2019-08-20T11:07:23Z</time>
      </trkpt>
      <trkpt lat="46.48055" lon="3.9829">
        <ele>236.7</ele>
        <time>2019-08-20T11:07:24Z</time>
      </trkpt>
      <trkpt lat="46.48054" lon="3.98286">
        <ele>236.8</ele>
        <time>2019-08-20T11:07:25Z</time>
      </trkpt>
      <trkpt lat="46.48052" lon="3.98282">
        <ele>236.8</ele>
        <time>2019-08-20T11:07:26Z</time>
      </trkpt>
      <trkpt lat="46.48051" lon="3.98278">
        <ele>236.9</ele>
        <time>2019-08-20T11:07:27Z</time>
      </trkpt>
      <trkpt lat="46.48049" lon="3.98274">
        <ele>236.9</ele>
        <time>2019-08-20T11:07:28Z</time>
      </trkpt>
      <trkpt lat="46.48047" lon="3.98269">
        <ele>237</ele>
        <time>2019-08-20T11:07:29Z</time>
      </trkpt>
      <trkpt lat="46.48046" lon="3.98265">
        <ele>237</ele>
        <time>2019-08-20T11:07:30Z</time>
      </trkpt>
      <trkpt lat="46.48044" lon="3.98259">
        <ele>237</ele>
        <time>2019-08-20T11:07:31Z</time>
      </trkpt>
      <trkpt lat="46.48042" lon="3.98254">
        <ele>237</ele>
        <time>2019-08-20T11:07:32Z</time>
      </trkpt>
      <trkpt lat="46.4804" lon="3.9825">
        <ele>237.1</ele>
        <time>2019-08-20T11:07:33Z</time>
      </trkpt>
      <trkpt lat="46.48038" lon="3.98247">
        <ele>237.1</ele>
        <time>2019-08-20T11:07:34Z</time>
      </trkpt>
      <trkpt lat="46.48035" lon="3.98243">
        <ele>237.1</ele>
        <time>2019-08-20T11:07:35Z</time>
      </trkpt>
      <trkpt lat="46.48032" lon="3.98239">
        <ele>237.1</ele>
        <time>2019-08-20T11:07:36Z</time>
      </trkpt>
      <trkpt lat="46.48029" lon="3.98237">
        <ele>237.1</ele>
        <time>2019-08-20T11:07:37Z</time>
      </trkpt>
      <trkpt lat="46.48027" lon="3.98234">
        <ele>237.1</ele>
        <time>2019-08-20T11:07:38Z</time>
      </trkpt>
      <trkpt lat="46.48025" lon="3.9823">
        <ele>237.1</ele>
        <time>2019-08-20T11:07:39Z</time>
      </trkpt>
      <trkpt lat="46.48021" lon="3.98227">
        <ele>237.1</ele>
        <time>2019-08-20T11:07:40Z</time>
      </trkpt>
      <trkpt lat="46.48018" lon="3.98225">
        <ele>237.1</ele>
        <time>2019-08-20T11:07:41Z</time>
      </trkpt>
      <trkpt lat="46.48016" lon="3.98223">
        <ele>237.1</ele>
        <time>2019-08-20T11:07:42Z</time>
      </trkpt>
      <trkpt lat="46.48012" lon="3.98222">
        <ele>237.1</ele>
        <time>2019-08-20T11:07:43Z</time>
      </trkpt>
      <trkpt lat="46.48008" lon="3.9822">
        <ele>237.2</ele>
        <time>2019-08-20T11:07:44Z</time>
      </trkpt>
      <trkpt lat="46.48004" lon="3.98218">
        <ele>237.3</ele>
        <time>2019-08-20T11:07:45Z</time>
      </trkpt>
      <trkpt lat="46.48" lon="3.98216">
        <ele>237.3</ele>
        <time>2019-08-20T11:07:46Z</time>
      </trkpt>
      <trkpt lat="46.47995" lon="3.98214">
        <ele>237.4</ele>
        <time>2019-08-20T11:07:47Z</time>
      </trkpt>
      <trkpt lat="46.4799" lon="3.98212">
        <ele>237.5</ele>
        <time>2019-08-20T11:07:48Z</time>
      </trkpt>
      <trkpt lat="46.47985" lon="3.9821">
        <ele>237.6</ele>
        <time>2019-08-20T11:07:49Z</time>
      </trkpt>
      <trkpt lat="46.47981" lon="3.98208">
        <ele>237.7</ele>
        <time>2019-08-20T11:07:50Z</time>
      </trkpt>
      <trkpt lat="46.47978" lon="3.98207">
        <ele>237.7</ele>
        <time>2019-08-20T11:07:51Z</time>
      </trkpt>
      <trkpt lat="46.47974" lon="3.98203">
        <ele>237.8</ele>
        <time>2019-08-20T11:07:52Z</time>
      </trkpt>
      <trkpt lat="46.47968" lon="3.98199">
        <ele>237.9</ele>
        <time>2019-08-20T11:07:53Z</time>
      </trkpt>
      <trkpt lat="46.47964" lon="3.98194">
        <ele>238</ele>
        <time>2019-08-20T11:07:54Z</time>
      </trkpt>
      <trkpt lat="46.47959" lon="3.9819">
        <ele>237.5</ele>
        <time>2019-08-20T11:07:55Z</time>
      </trkpt>
      <trkpt lat="46.47954" lon="3.98187">
        <ele>237</ele>
        <time>2019-08-20T11:07:56Z</time>
      </trkpt>
      <trkpt lat="46.47949" lon="3.98184">
        <ele>236.7</ele>
        <time>2019-08-20T11:07:57Z</time>
      </trkpt>
      <trkpt lat="46.47946" lon="3.98182">
        <ele>236.4</ele>
        <time>2019-08-20T11:07:58Z</time>
      </trkpt>
      <trkpt lat="46.47942" lon="3.9818">
        <ele>236.2</ele>
        <time>2019-08-20T11:07:59Z</time>
      </trkpt>
      <trkpt lat="46.47939" lon="3.98177">
        <ele>236</ele>
        <time>2019-08-20T11:08:00Z</time>
      </trkpt>
      <trkpt lat="46.47935" lon="3.98174">
        <ele>235.9</ele>
        <time>2019-08-20T11:08:01Z</time>
      </trkpt>
      <trkpt lat="46.47931" lon="3.98171">
        <ele>235.7</ele>
        <time>2019-08-20T11:08:02Z</time>
      </trkpt>
      <trkpt lat="46.47927" lon="3.98167">
        <ele>235.6</ele>
        <time>2019-08-20T11:08:03Z</time>
      </trkpt>
      <trkpt lat="46.47922" lon="3.98164">
        <ele>235.5</ele>
        <time>2019-08-20T11:08:04Z</time>
      </trkpt>
      <trkpt lat="46.47918" lon="3.98162">
        <ele>235.4</ele>
        <time>2019-08-20T11:08:05Z</time>
      </trkpt>
      <trkpt lat="46.47914" lon="3.98157">
        <ele>235.3</ele>
        <time>2019-08-20T11:08:06Z</time>
      </trkpt>
      <trkpt lat="46.4791" lon="3.98156">
        <ele>235.2</ele>
        <time>2019-08-20T11:08:07Z</time>
      </trkpt>
      <trkpt lat="46.47907" lon="3.98154">
        <ele>235.1</ele>
        <time>2019-08-20T11:08:08Z</time>
      </trkpt>
      <trkpt lat="46.47903" lon="3.98151">
        <ele>235.1</ele>
        <time>2019-08-20T11:08:09Z</time>
      </trkpt>
      <trkpt lat="46.479" lon="3.98148">
        <ele>235</ele>
        <time>2019-08-20T11:08:10Z</time>
      </trkpt>
      <trkpt lat="46.47895" lon="3.98145">
        <ele>234.9</ele>
        <time>2019-08-20T11:08:11Z</time>
      </trkpt>
      <trkpt lat="46.47891" lon="3.98143">
        <ele>234.8</ele>
        <time>2019-08-20T11:08:12Z</time>
      </trkpt>
      <trkpt lat="46.47887" lon="3.9814">
        <ele>234.7</ele>
        <time>2019-08-20T11:08:13Z</time>
      </trkpt>
      <trkpt lat="46.47883" lon="3.98138">
        <ele>234.6</ele>
        <time>2019-08-20T11:08:14Z</time>
      </trkpt>
      <trkpt lat="46.47879" lon="3.98135">
        <ele>234.5</ele>
        <time>2019-08-20T11:08:15Z</time>
      </trkpt>
      <trkpt lat="46.47875" lon="3.98133">
        <ele>234.4</ele>
        <time>2019-08-20T11:08:16Z</time>
      </trkpt>
      <trkpt lat="46.4787" lon="3.98131">
        <ele>234.3</ele>
        <time>2019-08-20T11:08:17Z</time>
      </trkpt>
      <trkpt lat="46.47865" lon="3.98128">
        <ele>234.2</ele>
        <time>2019-08-20T11:08:18Z</time>
      </trkpt>
      <trkpt lat="46.47861" lon="3.98125">
        <ele>234.1</ele>
        <time>2019-08-20T11:08:19Z</time>
      </trkpt>
      <trkpt lat="46.47856" lon="3.98123">
        <ele>234</ele>
        <time>2019-08-20T11:08:20Z</time>
      </trkpt>
      <trkpt lat="46.47852" lon="3.98121">
        <ele>234</ele>
        <time>2019-08-20T11:08:21Z</time>
      </trkpt>
      <trkpt lat="46.47849" lon="3.9812">
        <ele>233.7</ele>
        <time>2019-08-20T11:08:22Z</time>
      </trkpt>
      <trkpt lat="46.47846" lon="3.98117">
        <ele>233.5</ele>
        <time>2019-08-20T11:08:23Z</time>
      </trkpt>
      <trkpt lat="46.47843" lon="3.98116">
        <ele>233.4</ele>
        <time>2019-08-20T11:08:24Z</time>
      </trkpt>
      <trkpt lat="46.47839" lon="3.98116">
        <ele>233.2</ele>
        <time>2019-08-20T11:08:25Z</time>
      </trkpt>
      <trkpt lat="46.47836" lon="3.98115">
        <ele>233.1</ele>
        <time>2019-08-20T11:08:26Z</time>
      </trkpt>
      <trkpt lat="46.47833" lon="3.98114">
        <ele>232.9</ele>
        <time>2019-08-20T11:08:27Z</time>
      </trkpt>
      <trkpt lat="46.47829" lon="3.98112">
        <ele>232.7</ele>
        <time>2019-08-20T11:08:28Z</time>
      </trkpt>
      <trkpt lat="46.47825" lon="3.9811">
        <ele>232</ele>
        <time>2019-08-20T11:08:29Z</time>
      </trkpt>
      <trkpt lat="46.47822" lon="3.98107">
        <ele>231.2</ele>
        <time>2019-08-20T11:08:30Z</time>
      </trkpt>
      <trkpt lat="46.47818" lon="3.98104">
        <ele>230.5</ele>
        <time>2019-08-20T11:08:31Z</time>
      </trkpt>
      <trkpt lat="46.47815" lon="3.98102">
        <ele>229.9</ele>
        <time>2019-08-20T11:08:32Z</time>
      </trkpt>
      <trkpt lat="46.47812" lon="3.981">
        <ele>229.4</ele>
        <time>2019-08-20T11:08:33Z</time>
      </trkpt>
      <trkpt lat="46.47808" lon="3.98099">
        <ele>227.2</ele>
        <time>2019-08-20T11:08:35Z</time>
      </trkpt>
      <trkpt lat="46.47805" lon="3.98098">
        <ele>226.1</ele>
        <time>2019-08-20T11:08:56Z</time>
      </trkpt>
      <trkpt lat="46.47803" lon="3.98096">
        <ele>224.9</ele>
        <time>2019-08-20T11:08:58Z</time>
      </trkpt>
      <trkpt lat="46.478" lon="3.98094">
        <ele>223.9</ele>
        <time>2019-08-20T11:09:00Z</time>
      </trkpt>
      <trkpt lat="46.47798" lon="3.98091">
        <ele>223.8</ele>
        <time>2019-08-20T11:09:03Z</time>
      </trkpt>
      <trkpt lat="46.47795" lon="3.98094">
        <ele>223.7</ele>
        <time>2019-08-20T11:09:18Z</time>
      </trkpt>
      <trkpt lat="46.47792" lon="3.98094">
        <ele>223.6</ele>
        <time>2019-08-20T11:09:22Z</time>
      </trkpt>
      <trkpt lat="46.47789" lon="3.98091">
        <ele>223.4</ele>
        <time>2019-08-20T11:09:27Z</time>
      </trkpt>
      <trkpt lat="46.47784" lon="3.98088">
        <ele>223.4</ele>
        <time>2019-08-20T11:09:29Z</time>
      </trkpt>
      <trkpt lat="46.4778" lon="3.98085">
        <ele>223.4</ele>
        <time>2019-08-20T11:09:31Z</time>
      </trkpt>
      <trkpt lat="46.47775" lon="3.98081">
        <ele>223.4</ele>
        <time>2019-08-20T11:09:33Z</time>
      </trkpt>
      <trkpt lat="46.47771" lon="3.9808">
        <ele>223.5</ele>
        <time>2019-08-20T11:09:34Z</time>
      </trkpt>
      <trkpt lat="46.47767" lon="3.98078">
        <ele>223.6</ele>
        <time>2019-08-20T11:09:35Z</time>
      </trkpt>
      <trkpt lat="46.47764" lon="3.98075">
        <ele>223.7</ele>
        <time>2019-08-20T11:09:36Z</time>
      </trkpt>
      <trkpt lat="46.4776" lon="3.98073">
        <ele>223.8</ele>
        <time>2019-08-20T11:09:37Z</time>
      </trkpt>
      <trkpt lat="46.47756" lon="3.9807">
        <ele>223.9</ele>
        <time>2019-08-20T11:09:38Z</time>
      </trkpt>
      <trkpt lat="46.47752" lon="3.98067">
        <ele>223.9</ele>
        <time>2019-08-20T11:09:39Z</time>
      </trkpt>
      <trkpt lat="46.47748" lon="3.98065">
        <ele>224</ele>
        <time>2019-08-20T11:09:40Z</time>
      </trkpt>
      <trkpt lat="46.47745" lon="3.98063">
        <ele>224</ele>
        <time>2019-08-20T11:09:41Z</time>
      </trkpt>
      <trkpt lat="46.47741" lon="3.9806">
        <ele>224</ele>
        <time>2019-08-20T11:09:42Z</time>
      </trkpt>
      <trkpt lat="46.47737" lon="3.98058">
        <ele>223.9</ele>
        <time>2019-08-20T11:09:43Z</time>
      </trkpt>
      <trkpt lat="46.47734" lon="3.98055">
        <ele>223.9</ele>
        <time>2019-08-20T11:09:44Z</time>
      </trkpt>
      <trkpt lat="46.47731" lon="3.98053">
        <ele>223.9</ele>
        <time>2019-08-20T11:09:45Z</time>
      </trkpt>
      <trkpt lat="46.47728" lon="3.98051">
        <ele>224</ele>
        <time>2019-08-20T11:09:46Z</time>
      </trkpt>
      <trkpt lat="46.47725" lon="3.98049">
        <ele>224</ele>
        <time>2019-08-20T11:09:47Z</time>
      </trkpt>
      <trkpt lat="46.47722" lon="3.98047">
        <ele>224</ele>
        <time>2019-08-20T11:09:48Z</time>
      </trkpt>
      <trkpt lat="46.47718" lon="3.98045">
        <ele>224</ele>
        <time>2019-08-20T11:09:49Z</time>
      </trkpt>
      <trkpt lat="46.47713" lon="3.98043">
        <ele>224.1</ele>
        <time>2019-08-20T11:09:50Z</time>
      </trkpt>
      <trkpt lat="46.47709" lon="3.9804">
        <ele>224.1</ele>
        <time>2019-08-20T11:09:51Z</time>
      </trkpt>
      <trkpt lat="46.47704" lon="3.98038">
        <ele>224.2</ele>
        <time>2019-08-20T11:09:52Z</time>
      </trkpt>
      <trkpt lat="46.477" lon="3.98035">
        <ele>224.2</ele>
        <time>2019-08-20T11:09:53Z</time>
      </trkpt>
      <trkpt lat="46.47696" lon="3.98032">
        <ele>224.2</ele>
        <time>2019-08-20T11:09:54Z</time>
      </trkpt>
      <trkpt lat="46.47692" lon="3.98029">
        <ele>224.2</ele>
        <time>2019-08-20T11:09:55Z</time>
      </trkpt>
      <trkpt lat="46.47688" lon="3.98027">
        <ele>224.2</ele>
        <time>2019-08-20T11:09:56Z</time>
      </trkpt>
      <trkpt lat="46.47684" lon="3.98025">
        <ele>224.1</ele>
        <time>2019-08-20T11:09:57Z</time>
      </trkpt>
      <trkpt lat="46.4768" lon="3.98022">
        <ele>224.1</ele>
        <time>2019-08-20T11:09:58Z</time>
      </trkpt>
      <trkpt lat="46.47677" lon="3.9802">
        <ele>224.1</ele>
        <time>2019-08-20T11:09:59Z</time>
      </trkpt>
      <trkpt lat="46.47673" lon="3.98018">
        <ele>224.1</ele>
        <time>2019-08-20T11:10:00Z</time>
      </trkpt>
      <trkpt lat="46.47671" lon="3.98016">
        <ele>224.2</ele>
        <time>2019-08-20T11:10:01Z</time>
      </trkpt>
      <trkpt lat="46.47667" lon="3.98014">
        <ele>224.2</ele>
        <time>2019-08-20T11:10:03Z</time>
      </trkpt>
      <trkpt lat="46.47669" lon="3.98017">
        <ele>224.3</ele>
        <time>2019-08-20T11:10:08Z</time>
      </trkpt>
      <trkpt lat="46.47666" lon="3.9801">
        <ele>224.3</ele>
        <time>2019-08-20T11:11:27Z</time>
      </trkpt>
      <trkpt lat="46.47662" lon="3.98007">
        <ele>224.5</ele>
        <time>2019-08-20T11:11:29Z</time>
      </trkpt>
      <trkpt lat="46.47659" lon="3.98005">
        <ele>224.6</ele>
        <time>2019-08-20T11:11:30Z</time>
      </trkpt>
      <trkpt lat="46.47656" lon="3.98003">
        <ele>224.7</ele>
        <time>2019-08-20T11:11:31Z</time>
      </trkpt>
      <trkpt lat="46.47652" lon="3.98002">
        <ele>224.9</ele>
        <time>2019-08-20T11:11:32Z</time>
      </trkpt>
      <trkpt lat="46.47649" lon="3.98001">
        <ele>225</ele>
        <time>2019-08-20T11:11:33Z</time>
      </trkpt>
      <trkpt lat="46.47645" lon="3.98">
        <ele>225.1</ele>
        <time>2019-08-20T11:11:34Z</time>
      </trkpt>
      <trkpt lat="46.47641" lon="3.97998">
        <ele>225.2</ele>
        <time>2019-08-20T11:11:35Z</time>
      </trkpt>
      <trkpt lat="46.47638" lon="3.97995">
        <ele>225.3</ele>
        <time>2019-08-20T11:11:36Z</time>
      </trkpt>
      <trkpt lat="46.47635" lon="3.97994">
        <ele>225.3</ele>
        <time>2019-08-20T11:11:37Z</time>
      </trkpt>
      <trkpt lat="46.47633" lon="3.97992">
        <ele>225.4</ele>
        <time>2019-08-20T11:11:38Z</time>
      </trkpt>
      <trkpt lat="46.4763" lon="3.9799">
        <ele>225.5</ele>
        <time>2019-08-20T11:11:39Z</time>
      </trkpt>
      <trkpt lat="46.47625" lon="3.97987">
        <ele>225.7</ele>
        <time>2019-08-20T11:11:41Z</time>
      </trkpt>
      <trkpt lat="46.47622" lon="3.97985">
        <ele>225.9</ele>
        <time>2019-08-20T11:11:43Z</time>
      </trkpt>
      <trkpt lat="46.4762" lon="3.97978">
        <ele>226.1</ele>
        <time>2019-08-20T11:12:08Z</time>
      </trkpt>
      <trkpt lat="46.47617" lon="3.97975">
        <ele>226.2</ele>
        <time>2019-08-20T11:12:10Z</time>
      </trkpt>
      <trkpt lat="46.47614" lon="3.97974">
        <ele>226.3</ele>
        <time>2019-08-20T11:12:11Z</time>
      </trkpt>
      <trkpt lat="46.47611" lon="3.97972">
        <ele>226.8</ele>
        <time>2019-08-20T11:12:12Z</time>
      </trkpt>
      <trkpt lat="46.47607" lon="3.9797">
        <ele>226.9</ele>
        <time>2019-08-20T11:12:13Z</time>
      </trkpt>
      <trkpt lat="46.47604" lon="3.97966">
        <ele>227</ele>
        <time>2019-08-20T11:12:14Z</time>
      </trkpt>
      <trkpt lat="46.476" lon="3.97962">
        <ele>227.1</ele>
        <time>2019-08-20T11:12:15Z</time>
      </trkpt>
      <trkpt lat="46.47596" lon="3.97959">
        <ele>227.2</ele>
        <time>2019-08-20T11:12:16Z</time>
      </trkpt>
      <trkpt lat="46.47593" lon="3.97956">
        <ele>227.3</ele>
        <time>2019-08-20T11:12:17Z</time>
      </trkpt>
      <trkpt lat="46.47589" lon="3.97954">
        <ele>227.4</ele>
        <time>2019-08-20T11:12:18Z</time>
      </trkpt>
      <trkpt lat="46.47587" lon="3.97952">
        <ele>227.4</ele>
        <time>2019-08-20T11:12:19Z</time>
      </trkpt>
      <trkpt lat="46.47583" lon="3.97951">
        <ele>227.5</ele>
        <time>2019-08-20T11:12:20Z</time>
      </trkpt>
      <trkpt lat="46.4758" lon="3.9795">
        <ele>227.6</ele>
        <time>2019-08-20T11:12:21Z</time>
      </trkpt>
      <trkpt lat="46.47577" lon="3.97948">
        <ele>227.7</ele>
        <time>2019-08-20T11:12:22Z</time>
      </trkpt>
      <trkpt lat="46.47575" lon="3.97947">
        <ele>227.7</ele>
        <time>2019-08-20T11:12:23Z</time>
      </trkpt>
      <trkpt lat="46.4757" lon="3.97944">
        <ele>227.8</ele>
        <time>2019-08-20T11:12:25Z</time>
      </trkpt>
      <trkpt lat="46.47567" lon="3.97941">
        <ele>227.8</ele>
        <time>2019-08-20T11:12:27Z</time>
      </trkpt>
      <trkpt lat="46.47564" lon="3.97939">
        <ele>227.9</ele>
        <time>2019-08-20T11:12:29Z</time>
      </trkpt>
      <trkpt lat="46.4756" lon="3.97937">
        <ele>227.9</ele>
        <time>2019-08-20T11:12:30Z</time>
      </trkpt>
      <trkpt lat="46.47557" lon="3.97935">
        <ele>228</ele>
        <time>2019-08-20T11:12:31Z</time>
      </trkpt>
      <trkpt lat="46.47553" lon="3.97933">
        <ele>228</ele>
        <time>2019-08-20T11:12:32Z</time>
      </trkpt>
      <trkpt lat="46.4755" lon="3.97931">
        <ele>228.1</ele>
        <time>2019-08-20T11:12:33Z</time>
      </trkpt>
      <trkpt lat="46.47546" lon="3.97928">
        <ele>228.1</ele>
        <time>2019-08-20T11:12:34Z</time>
      </trkpt>
      <trkpt lat="46.47542" lon="3.97926">
        <ele>228.2</ele>
        <time>2019-08-20T11:12:35Z</time>
      </trkpt>
      <trkpt lat="46.47538" lon="3.97924">
        <ele>228.2</ele>
        <time>2019-08-20T11:12:36Z</time>
      </trkpt>
      <trkpt lat="46.47534" lon="3.97923">
        <ele>228.2</ele>
        <time>2019-08-20T11:12:37Z</time>
      </trkpt>
      <trkpt lat="46.4753" lon="3.97921">
        <ele>228.2</ele>
        <time>2019-08-20T11:12:38Z</time>
      </trkpt>
      <trkpt lat="46.47527" lon="3.97919">
        <ele>228.3</ele>
        <time>2019-08-20T11:12:39Z</time>
      </trkpt>
      <trkpt lat="46.47523" lon="3.97917">
        <ele>228.3</ele>
        <time>2019-08-20T11:12:40Z</time>
      </trkpt>
      <trkpt lat="46.4752" lon="3.97915">
        <ele>228.3</ele>
        <time>2019-08-20T11:12:41Z</time>
      </trkpt>
      <trkpt lat="46.47517" lon="3.97914">
        <ele>228.3</ele>
        <time>2019-08-20T11:12:42Z</time>
      </trkpt>
      <trkpt lat="46.47514" lon="3.97912">
        <ele>228.3</ele>
        <time>2019-08-20T11:12:43Z</time>
      </trkpt>
      <trkpt lat="46.47511" lon="3.9791">
        <ele>228.3</ele>
        <time>2019-08-20T11:12:44Z</time>
      </trkpt>
      <trkpt lat="46.47508" lon="3.97909">
        <ele>228.3</ele>
        <time>2019-08-20T11:12:45Z</time>
      </trkpt>
      <trkpt lat="46.47506" lon="3.97906">
        <ele>228.2</ele>
        <time>2019-08-20T11:12:48Z</time>
      </trkpt>
      <trkpt lat="46.47503" lon="3.97907">
        <ele>228.2</ele>
        <time>2019-08-20T11:12:54Z</time>
      </trkpt>
      <trkpt lat="46.47506" lon="3.97909">
        <ele>228.2</ele>
        <time>2019-08-20T11:13:01Z</time>
      </trkpt>
      <trkpt lat="46.47504" lon="3.97901">
        <ele>228.1</ele>
        <time>2019-08-20T11:13:42Z</time>
      </trkpt>
      <trkpt lat="46.475" lon="3.979">
        <ele>228.1</ele>
        <time>2019-08-20T11:13:45Z</time>
      </trkpt>
      <trkpt lat="46.47497" lon="3.97899">
        <ele>228.1</ele>
        <time>2019-08-20T11:13:48Z</time>
      </trkpt>
      <trkpt lat="46.47497" lon="3.97893">
        <ele>228</ele>
        <time>2019-08-20T11:13:51Z</time>
      </trkpt>
      <trkpt lat="46.47497" lon="3.97888">
        <ele>227.9</ele>
        <time>2019-08-20T11:13:52Z</time>
      </trkpt>
      <trkpt lat="46.47495" lon="3.97883">
        <ele>227.8</ele>
        <time>2019-08-20T11:13:54Z</time>
      </trkpt>
      <trkpt lat="46.47493" lon="3.97881">
        <ele>227.7</ele>
        <time>2019-08-20T11:13:55Z</time>
      </trkpt>
      <trkpt lat="46.4749" lon="3.9788">
        <ele>227.7</ele>
        <time>2019-08-20T11:13:56Z</time>
      </trkpt>
      <trkpt lat="46.47487" lon="3.97878">
        <ele>227.6</ele>
        <time>2019-08-20T11:13:57Z</time>
      </trkpt>
      <trkpt lat="46.47482" lon="3.97875">
        <ele>227.4</ele>
        <time>2019-08-20T11:13:58Z</time>
      </trkpt>
      <trkpt lat="46.47477" lon="3.97872">
        <ele>227.3</ele>
        <time>2019-08-20T11:13:59Z</time>
      </trkpt>
      <trkpt lat="46.47473" lon="3.97869">
        <ele>227.2</ele>
        <time>2019-08-20T11:14:00Z</time>
      </trkpt>
      <trkpt lat="46.47468" lon="3.97866">
        <ele>227</ele>
        <time>2019-08-20T11:14:01Z</time>
      </trkpt>
      <trkpt lat="46.47462" lon="3.97862">
        <ele>226.8</ele>
        <time>2019-08-20T11:14:02Z</time>
      </trkpt>
      <trkpt lat="46.47456" lon="3.9786">
        <ele>226.8</ele>
        <time>2019-08-20T11:14:03Z</time>
      </trkpt>
      <trkpt lat="46.47449" lon="3.97858">
        <ele>226.8</ele>
        <time>2019-08-20T11:14:04Z</time>
      </trkpt>
      <trkpt lat="46.47443" lon="3.97855">
        <ele>226.9</ele>
        <time>2019-08-20T11:14:05Z</time>
      </trkpt>
      <trkpt lat="46.47437" lon="3.97852">
        <ele>226.9</ele>
        <time>2019-08-20T11:14:06Z</time>
      </trkpt>
      <trkpt lat="46.4743" lon="3.97849">
        <ele>226.9</ele>
        <time>2019-08-20T11:14:07Z</time>
      </trkpt>
      <trkpt lat="46.47425" lon="3.97846">
        <ele>226.9</ele>
        <time>2019-08-20T11:14:08Z</time>
      </trkpt>
      <trkpt lat="46.4742" lon="3.97843">
        <ele>227</ele>
        <time>2019-08-20T11:14:09Z</time>
      </trkpt>
      <trkpt lat="46.47414" lon="3.9784">
        <ele>227</ele>
        <time>2019-08-20T11:14:10Z</time>
      </trkpt>
      <trkpt lat="46.47408" lon="3.97837">
        <ele>227</ele>
        <time>2019-08-20T11:14:11Z</time>
      </trkpt>
      <trkpt lat="46.47404" lon="3.97833">
        <ele>227</ele>
        <time>2019-08-20T11:14:12Z</time>
      </trkpt>
      <trkpt lat="46.47399" lon="3.9783">
        <ele>227</ele>
        <time>2019-08-20T11:14:13Z</time>
      </trkpt>
      <trkpt lat="46.47394" lon="3.97826">
        <ele>227</ele>
        <time>2019-08-20T11:14:14Z</time>
      </trkpt>
      <trkpt lat="46.47389" lon="3.97823">
        <ele>227</ele>
        <time>2019-08-20T11:14:15Z</time>
      </trkpt>
      <trkpt lat="46.47384" lon="3.97819">
        <ele>227</ele>
        <time>2019-08-20T11:14:16Z</time>
      </trkpt>
      <trkpt lat="46.4738" lon="3.97816">
        <ele>227</ele>
        <time>2019-08-20T11:14:17Z</time>
      </trkpt>
      <trkpt lat="46.47376" lon="3.97812">
        <ele>227</ele>
        <time>2019-08-20T11:14:18Z</time>
      </trkpt>
      <trkpt lat="46.47372" lon="3.97809">
        <ele>227</ele>
        <time>2019-08-20T11:14:19Z</time>
      </trkpt>
      <trkpt lat="46.47369" lon="3.97804">
        <ele>227</ele>
        <time>2019-08-20T11:14:20Z</time>
      </trkpt>
      <trkpt lat="46.47364" lon="3.97799">
        <ele>227</ele>
        <time>2019-08-20T11:14:21Z</time>
      </trkpt>
      <trkpt lat="46.47359" lon="3.97794">
        <ele>227</ele>
        <time>2019-08-20T11:14:22Z</time>
      </trkpt>
      <trkpt lat="46.47354" lon="3.9779">
        <ele>227</ele>
        <time>2019-08-20T11:14:23Z</time>
      </trkpt>
      <trkpt lat="46.47349" lon="3.97785">
        <ele>227</ele>
        <time>2019-08-20T11:14:24Z</time>
      </trkpt>
      <trkpt lat="46.47345" lon="3.97782">
        <ele>227</ele>
        <time>2019-08-20T11:14:25Z</time>
      </trkpt>
      <trkpt lat="46.4734" lon="3.97778">
        <ele>227</ele>
        <time>2019-08-20T11:14:26Z</time>
      </trkpt>
      <trkpt lat="46.47336" lon="3.97773">
        <ele>227</ele>
        <time>2019-08-20T11:14:27Z</time>
      </trkpt>
      <trkpt lat="46.47332" lon="3.97768">
        <ele>227</ele>
        <time>2019-08-20T11:14:28Z</time>
      </trkpt>
      <trkpt lat="46.47327" lon="3.97762">
        <ele>227</ele>
        <time>2019-08-20T11:14:29Z</time>
      </trkpt>
      <trkpt lat="46.47323" lon="3.97757">
        <ele>227</ele>
        <time>2019-08-20T11:14:30Z</time>
      </trkpt>
      <trkpt lat="46.4732" lon="3.97752">
        <ele>227</ele>
        <time>2019-08-20T11:14:31Z</time>
      </trkpt>
      <trkpt lat="46.47318" lon="3.97746">
        <ele>227</ele>
        <time>2019-08-20T11:14:32Z</time>
      </trkpt>
      <trkpt lat="46.47314" lon="3.97741">
        <ele>227</ele>
        <time>2019-08-20T11:14:33Z</time>
      </trkpt>
      <trkpt lat="46.47311" lon="3.97735">
        <ele>227</ele>
        <time>2019-08-20T11:14:34Z</time>
      </trkpt>
      <trkpt lat="46.47307" lon="3.97729">
        <ele>227</ele>
        <time>2019-08-20T11:14:35Z</time>
      </trkpt>
      <trkpt lat="46.47304" lon="3.97724">
        <ele>227.1</ele>
        <time>2019-08-20T11:14:36Z</time>
      </trkpt>
      <trkpt lat="46.47301" lon="3.97717">
        <ele>227.1</ele>
        <time>2019-08-20T11:14:37Z</time>
      </trkpt>
      <trkpt lat="46.47299" lon="3.97712">
        <ele>227.1</ele>
        <time>2019-08-20T11:14:38Z</time>
      </trkpt>
      <trkpt lat="46.47297" lon="3.97707">
        <ele>227.1</ele>
        <time>2019-08-20T11:14:39Z</time>
      </trkpt>
      <trkpt lat="46.47297" lon="3.977">
        <ele>227.2</ele>
        <time>2019-08-20T11:14:41Z</time>
      </trkpt>
      <trkpt lat="46.47297" lon="3.97695">
        <ele>227.2</ele>
        <time>2019-08-20T11:14:42Z</time>
      </trkpt>
      <trkpt lat="46.47297" lon="3.9769">
        <ele>227.2</ele>
        <time>2019-08-20T11:14:43Z</time>
      </trkpt>
      <trkpt lat="46.47297" lon="3.97684">
        <ele>227.3</ele>
        <time>2019-08-20T11:14:44Z</time>
      </trkpt>
      <trkpt lat="46.47296" lon="3.97679">
        <ele>227.3</ele>
        <time>2019-08-20T11:14:45Z</time>
      </trkpt>
      <trkpt lat="46.47295" lon="3.97674">
        <ele>227.3</ele>
        <time>2019-08-20T11:14:46Z</time>
      </trkpt>
      <trkpt lat="46.47295" lon="3.97669">
        <ele>227.3</ele>
        <time>2019-08-20T11:14:47Z</time>
      </trkpt>
      <trkpt lat="46.47295" lon="3.97663">
        <ele>227.3</ele>
        <time>2019-08-20T11:14:48Z</time>
      </trkpt>
      <trkpt lat="46.47296" lon="3.97657">
        <ele>227.4</ele>
        <time>2019-08-20T11:14:49Z</time>
      </trkpt>
      <trkpt lat="46.47295" lon="3.97651">
        <ele>227.4</ele>
        <time>2019-08-20T11:14:50Z</time>
      </trkpt>
      <trkpt lat="46.47295" lon="3.97643">
        <ele>227.5</ele>
        <time>2019-08-20T11:14:51Z</time>
      </trkpt>
      <trkpt lat="46.47295" lon="3.97634">
        <ele>227.5</ele>
        <time>2019-08-20T11:14:52Z</time>
      </trkpt>
      <trkpt lat="46.47296" lon="3.97628">
        <ele>227.6</ele>
        <time>2019-08-20T11:14:53Z</time>
      </trkpt>
      <trkpt lat="46.47296" lon="3.9762">
        <ele>227.6</ele>
        <time>2019-08-20T11:14:54Z</time>
      </trkpt>
      <trkpt lat="46.47295" lon="3.97612">
        <ele>227.7</ele>
        <time>2019-08-20T11:14:55Z</time>
      </trkpt>
      <trkpt lat="46.47294" lon="3.97605">
        <ele>227.8</ele>
        <time>2019-08-20T11:14:56Z</time>
      </trkpt>
      <trkpt lat="46.47294" lon="3.97597">
        <ele>227.8</ele>
        <time>2019-08-20T11:14:57Z</time>
      </trkpt>
      <trkpt lat="46.47293" lon="3.9759">
        <ele>227.9</ele>
        <time>2019-08-20T11:14:58Z</time>
      </trkpt>
      <trkpt lat="46.47293" lon="3.97584">
        <ele>227.9</ele>
        <time>2019-08-20T11:14:59Z</time>
      </trkpt>
      <trkpt lat="46.47294" lon="3.97578">
        <ele>227.9</ele>
        <time>2019-08-20T11:15:00Z</time>
      </trkpt>
      <trkpt lat="46.47294" lon="3.97572">
        <ele>227.9</ele>
        <time>2019-08-20T11:15:01Z</time>
      </trkpt>
      <trkpt lat="46.47294" lon="3.97565">
        <ele>228</ele>
        <time>2019-08-20T11:15:02Z</time>
      </trkpt>
      <trkpt lat="46.47294" lon="3.97559">
        <ele>228</ele>
        <time>2019-08-20T11:15:03Z</time>
      </trkpt>
      <trkpt lat="46.47294" lon="3.97551">
        <ele>228.1</ele>
        <time>2019-08-20T11:15:04Z</time>
      </trkpt>
      <trkpt lat="46.47293" lon="3.97545">
        <ele>228.1</ele>
        <time>2019-08-20T11:15:05Z</time>
      </trkpt>
      <trkpt lat="46.47293" lon="3.97538">
        <ele>228.1</ele>
        <time>2019-08-20T11:15:06Z</time>
      </trkpt>
      <trkpt lat="46.47293" lon="3.97531">
        <ele>228.2</ele>
        <time>2019-08-20T11:15:07Z</time>
      </trkpt>
      <trkpt lat="46.47293" lon="3.97524">
        <ele>228.3</ele>
        <time>2019-08-20T11:15:08Z</time>
      </trkpt>
      <trkpt lat="46.47292" lon="3.97518">
        <ele>228.3</ele>
        <time>2019-08-20T11:15:09Z</time>
      </trkpt>
      <trkpt lat="46.47291" lon="3.97511">
        <ele>228.3</ele>
        <time>2019-08-20T11:15:10Z</time>
      </trkpt>
      <trkpt lat="46.47291" lon="3.97505">
        <ele>228.3</ele>
        <time>2019-08-20T11:15:11Z</time>
      </trkpt>
      <trkpt lat="46.4729" lon="3.975">
        <ele>228.3</ele>
        <time>2019-08-20T11:15:12Z</time>
      </trkpt>
      <trkpt lat="46.4729" lon="3.97494">
        <ele>228.3</ele>
        <time>2019-08-20T11:15:13Z</time>
      </trkpt>
      <trkpt lat="46.4729" lon="3.97487">
        <ele>228.2</ele>
        <time>2019-08-20T11:15:14Z</time>
      </trkpt>
      <trkpt lat="46.4729" lon="3.97481">
        <ele>228.2</ele>
        <time>2019-08-20T11:15:15Z</time>
      </trkpt>
      <trkpt lat="46.4729" lon="3.97473">
        <ele>228.1</ele>
        <time>2019-08-20T11:15:16Z</time>
      </trkpt>
      <trkpt lat="46.4729" lon="3.97466">
        <ele>228</ele>
        <time>2019-08-20T11:15:17Z</time>
      </trkpt>
      <trkpt lat="46.4729" lon="3.9746">
        <ele>227.9</ele>
        <time>2019-08-20T11:15:18Z</time>
      </trkpt>
      <trkpt lat="46.47289" lon="3.97453">
        <ele>227.8</ele>
        <time>2019-08-20T11:15:19Z</time>
      </trkpt>
      <trkpt lat="46.47288" lon="3.97447">
        <ele>227.7</ele>
        <time>2019-08-20T11:15:20Z</time>
      </trkpt>
      <trkpt lat="46.47287" lon="3.9744">
        <ele>227.7</ele>
        <time>2019-08-20T11:15:21Z</time>
      </trkpt>
      <trkpt lat="46.47286" lon="3.97433">
        <ele>227.6</ele>
        <time>2019-08-20T11:15:22Z</time>
      </trkpt>
      <trkpt lat="46.47285" lon="3.97426">
        <ele>227.6</ele>
        <time>2019-08-20T11:15:23Z</time>
      </trkpt>
      <trkpt lat="46.47284" lon="3.9742">
        <ele>227.7</ele>
        <time>2019-08-20T11:15:24Z</time>
      </trkpt>
      <trkpt lat="46.47284" lon="3.97412">
        <ele>227.7</ele>
        <time>2019-08-20T11:15:25Z</time>
      </trkpt>
      <trkpt lat="46.47283" lon="3.97403">
        <ele>227.7</ele>
        <time>2019-08-20T11:15:26Z</time>
      </trkpt>
      <trkpt lat="46.47283" lon="3.97397">
        <ele>227.9</ele>
        <time>2019-08-20T11:15:27Z</time>
      </trkpt>
      <trkpt lat="46.47282" lon="3.97391">
        <ele>228</ele>
        <time>2019-08-20T11:15:28Z</time>
      </trkpt>
      <trkpt lat="46.47281" lon="3.97384">
        <ele>228.2</ele>
        <time>2019-08-20T11:15:29Z</time>
      </trkpt>
      <trkpt lat="46.47281" lon="3.97379">
        <ele>228.4</ele>
        <time>2019-08-20T11:15:30Z</time>
      </trkpt>
      <trkpt lat="46.4728" lon="3.97373">
        <ele>228.6</ele>
        <time>2019-08-20T11:15:31Z</time>
      </trkpt>
      <trkpt lat="46.4728" lon="3.97367">
        <ele>228.6</ele>
        <time>2019-08-20T11:15:32Z</time>
      </trkpt>
      <trkpt lat="46.4728" lon="3.97362">
        <ele>228.6</ele>
        <time>2019-08-20T11:15:33Z</time>
      </trkpt>
      <trkpt lat="46.47279" lon="3.97354">
        <ele>228.6</ele>
        <time>2019-08-20T11:15:34Z</time>
      </trkpt>
      <trkpt lat="46.47278" lon="3.97348">
        <ele>228.6</ele>
        <time>2019-08-20T11:15:35Z</time>
      </trkpt>
      <trkpt lat="46.47278" lon="3.9734">
        <ele>228.6</ele>
        <time>2019-08-20T11:15:36Z</time>
      </trkpt>
      <trkpt lat="46.47278" lon="3.97331">
        <ele>228.6</ele>
        <time>2019-08-20T11:15:37Z</time>
      </trkpt>
      <trkpt lat="46.47278" lon="3.97324">
        <ele>228.6</ele>
        <time>2019-08-20T11:15:38Z</time>
      </trkpt>
      <trkpt lat="46.47278" lon="3.97318">
        <ele>228.6</ele>
        <time>2019-08-20T11:15:39Z</time>
      </trkpt>
      <trkpt lat="46.47278" lon="3.97313">
        <ele>228.6</ele>
        <time>2019-08-20T11:15:40Z</time>
      </trkpt>
      <trkpt lat="46.47277" lon="3.97307">
        <ele>228.6</ele>
        <time>2019-08-20T11:15:41Z</time>
      </trkpt>
      <trkpt lat="46.47277" lon="3.97301">
        <ele>228.6</ele>
        <time>2019-08-20T11:15:42Z</time>
      </trkpt>
      <trkpt lat="46.47276" lon="3.97296">
        <ele>228.6</ele>
        <time>2019-08-20T11:15:43Z</time>
      </trkpt>
      <trkpt lat="46.47276" lon="3.97289">
        <ele>228.6</ele>
        <time>2019-08-20T11:15:44Z</time>
      </trkpt>
      <trkpt lat="46.47276" lon="3.97281">
        <ele>228.5</ele>
        <time>2019-08-20T11:15:45Z</time>
      </trkpt>
      <trkpt lat="46.47276" lon="3.97274">
        <ele>228.4</ele>
        <time>2019-08-20T11:15:46Z</time>
      </trkpt>
      <trkpt lat="46.47276" lon="3.97269">
        <ele>228.4</ele>
        <time>2019-08-20T11:15:47Z</time>
      </trkpt>
      <trkpt lat="46.47276" lon="3.97263">
        <ele>228.3</ele>
        <time>2019-08-20T11:15:48Z</time>
      </trkpt>
      <trkpt lat="46.47276" lon="3.97256">
        <ele>228.3</ele>
        <time>2019-08-20T11:15:49Z</time>
      </trkpt>
      <trkpt lat="46.47276" lon="3.9725">
        <ele>228.4</ele>
        <time>2019-08-20T11:15:50Z</time>
      </trkpt>
      <trkpt lat="46.47276" lon="3.97242">
        <ele>228.4</ele>
        <time>2019-08-20T11:15:51Z</time>
      </trkpt>
      <trkpt lat="46.47275" lon="3.97236">
        <ele>228.4</ele>
        <time>2019-08-20T11:15:52Z</time>
      </trkpt>
      <trkpt lat="46.47275" lon="3.9723">
        <ele>228.5</ele>
        <time>2019-08-20T11:15:53Z</time>
      </trkpt>
      <trkpt lat="46.47275" lon="3.97223">
        <ele>228.5</ele>
        <time>2019-08-20T11:15:54Z</time>
      </trkpt>
      <trkpt lat="46.47275" lon="3.97217">
        <ele>228.6</ele>
        <time>2019-08-20T11:15:55Z</time>
      </trkpt>
      <trkpt lat="46.47274" lon="3.97213">
        <ele>228.6</ele>
        <time>2019-08-20T11:15:56Z</time>
      </trkpt>
      <trkpt lat="46.47273" lon="3.97206">
        <ele>228.6</ele>
        <time>2019-08-20T11:15:57Z</time>
      </trkpt>
      <trkpt lat="46.47272" lon="3.97199">
        <ele>228.7</ele>
        <time>2019-08-20T11:15:58Z</time>
      </trkpt>
      <trkpt lat="46.47272" lon="3.97192">
        <ele>228.7</ele>
        <time>2019-08-20T11:15:59Z</time>
      </trkpt>
      <trkpt lat="46.47271" lon="3.97182">
        <ele>228.8</ele>
        <time>2019-08-20T11:16:00Z</time>
      </trkpt>
      <trkpt lat="46.4727" lon="3.97172">
        <ele>228.8</ele>
        <time>2019-08-20T11:16:02Z</time>
      </trkpt>
      <trkpt lat="46.4727" lon="3.97165">
        <ele>228.8</ele>
        <time>2019-08-20T11:16:03Z</time>
      </trkpt>
      <trkpt lat="46.47269" lon="3.97159">
        <ele>228.8</ele>
        <time>2019-08-20T11:16:04Z</time>
      </trkpt>
      <trkpt lat="46.47268" lon="3.97153">
        <ele>228.8</ele>
        <time>2019-08-20T11:16:05Z</time>
      </trkpt>
      <trkpt lat="46.47267" lon="3.97146">
        <ele>228.9</ele>
        <time>2019-08-20T11:16:06Z</time>
      </trkpt>
      <trkpt lat="46.47267" lon="3.97141">
        <ele>228.9</ele>
        <time>2019-08-20T11:16:07Z</time>
      </trkpt>
      <trkpt lat="46.47266" lon="3.97134">
        <ele>228.9</ele>
        <time>2019-08-20T11:16:08Z</time>
      </trkpt>
      <trkpt lat="46.47265" lon="3.97127">
        <ele>228.9</ele>
        <time>2019-08-20T11:16:09Z</time>
      </trkpt>
      <trkpt lat="46.47265" lon="3.97122">
        <ele>228.9</ele>
        <time>2019-08-20T11:16:10Z</time>
      </trkpt>
      <trkpt lat="46.47265" lon="3.97116">
        <ele>228.9</ele>
        <time>2019-08-20T11:16:11Z</time>
      </trkpt>
      <trkpt lat="46.47264" lon="3.97107">
        <ele>228.9</ele>
        <time>2019-08-20T11:16:12Z</time>
      </trkpt>
      <trkpt lat="46.47264" lon="3.971">
        <ele>228.9</ele>
        <time>2019-08-20T11:16:13Z</time>
      </trkpt>
      <trkpt lat="46.47263" lon="3.97093">
        <ele>228.9</ele>
        <time>2019-08-20T11:16:14Z</time>
      </trkpt>
      <trkpt lat="46.47263" lon="3.97086">
        <ele>228.8</ele>
        <time>2019-08-20T11:16:15Z</time>
      </trkpt>
      <trkpt lat="46.47264" lon="3.97078">
        <ele>228.8</ele>
        <time>2019-08-20T11:16:16Z</time>
      </trkpt>
      <trkpt lat="46.47264" lon="3.9707">
        <ele>228.7</ele>
        <time>2019-08-20T11:16:17Z</time>
      </trkpt>
      <trkpt lat="46.47263" lon="3.97064">
        <ele>228.7</ele>
        <time>2019-08-20T11:16:18Z</time>
      </trkpt>
      <trkpt lat="46.47263" lon="3.97058">
        <ele>228.6</ele>
        <time>2019-08-20T11:16:19Z</time>
      </trkpt>
      <trkpt lat="46.47262" lon="3.97051">
        <ele>228.6</ele>
        <time>2019-08-20T11:16:20Z</time>
      </trkpt>
      <trkpt lat="46.47261" lon="3.97045">
        <ele>228.5</ele>
        <time>2019-08-20T11:16:21Z</time>
      </trkpt>
      <trkpt lat="46.47261" lon="3.97037">
        <ele>228.5</ele>
        <time>2019-08-20T11:16:22Z</time>
      </trkpt>
      <trkpt lat="46.47261" lon="3.97029">
        <ele>228.4</ele>
        <time>2019-08-20T11:16:23Z</time>
      </trkpt>
      <trkpt lat="46.4726" lon="3.97024">
        <ele>228.4</ele>
        <time>2019-08-20T11:16:24Z</time>
      </trkpt>
      <trkpt lat="46.47259" lon="3.97016">
        <ele>228.4</ele>
        <time>2019-08-20T11:16:25Z</time>
      </trkpt>
      <trkpt lat="46.47259" lon="3.9701">
        <ele>228.4</ele>
        <time>2019-08-20T11:16:26Z</time>
      </trkpt>
      <trkpt lat="46.47257" lon="3.97003">
        <ele>228.3</ele>
        <time>2019-08-20T11:16:27Z</time>
      </trkpt>
      <trkpt lat="46.47257" lon="3.96996">
        <ele>228.3</ele>
        <time>2019-08-20T11:16:28Z</time>
      </trkpt>
      <trkpt lat="46.47257" lon="3.96989">
        <ele>228.3</ele>
        <time>2019-08-20T11:16:29Z</time>
      </trkpt>
      <trkpt lat="46.47257" lon="3.96983">
        <ele>228.2</ele>
        <time>2019-08-20T11:16:30Z</time>
      </trkpt>
      <trkpt lat="46.47257" lon="3.96976">
        <ele>228.2</ele>
        <time>2019-08-20T11:16:31Z</time>
      </trkpt>
      <trkpt lat="46.47256" lon="3.9697">
        <ele>228.2</ele>
        <time>2019-08-20T11:16:32Z</time>
      </trkpt>
      <trkpt lat="46.47256" lon="3.96964">
        <ele>228.2</ele>
        <time>2019-08-20T11:16:33Z</time>
      </trkpt>
      <trkpt lat="46.47255" lon="3.96957">
        <ele>228.2</ele>
        <time>2019-08-20T11:16:34Z</time>
      </trkpt>
      <trkpt lat="46.47254" lon="3.9695">
        <ele>228.2</ele>
        <time>2019-08-20T11:16:35Z</time>
      </trkpt>
      <trkpt lat="46.47253" lon="3.96943">
        <ele>228.2</ele>
        <time>2019-08-20T11:16:36Z</time>
      </trkpt>
      <trkpt lat="46.47253" lon="3.96937">
        <ele>228.2</ele>
        <time>2019-08-20T11:16:37Z</time>
      </trkpt>
      <trkpt lat="46.47252" lon="3.9693">
        <ele>228.2</ele>
        <time>2019-08-20T11:16:38Z</time>
      </trkpt>
      <trkpt lat="46.47251" lon="3.96924">
        <ele>228.2</ele>
        <time>2019-08-20T11:16:39Z</time>
      </trkpt>
      <trkpt lat="46.47251" lon="3.96917">
        <ele>228.2</ele>
        <time>2019-08-20T11:16:40Z</time>
      </trkpt>
      <trkpt lat="46.4725" lon="3.96911">
        <ele>228.2</ele>
        <time>2019-08-20T11:16:41Z</time>
      </trkpt>
      <trkpt lat="46.4725" lon="3.96903">
        <ele>228.2</ele>
        <time>2019-08-20T11:16:42Z</time>
      </trkpt>
      <trkpt lat="46.4725" lon="3.96896">
        <ele>228.2</ele>
        <time>2019-08-20T11:16:43Z</time>
      </trkpt>
      <trkpt lat="46.4725" lon="3.9689">
        <ele>228.2</ele>
        <time>2019-08-20T11:16:44Z</time>
      </trkpt>
      <trkpt lat="46.4725" lon="3.96882">
        <ele>228.2</ele>
        <time>2019-08-20T11:16:45Z</time>
      </trkpt>
      <trkpt lat="46.4725" lon="3.96875">
        <ele>228.2</ele>
        <time>2019-08-20T11:16:46Z</time>
      </trkpt>
      <trkpt lat="46.47249" lon="3.96867">
        <ele>228.2</ele>
        <time>2019-08-20T11:16:47Z</time>
      </trkpt>
      <trkpt lat="46.47248" lon="3.96859">
        <ele>228.2</ele>
        <time>2019-08-20T11:16:48Z</time>
      </trkpt>
      <trkpt lat="46.47247" lon="3.96853">
        <ele>228.2</ele>
        <time>2019-08-20T11:16:49Z</time>
      </trkpt>
      <trkpt lat="46.47245" lon="3.96845">
        <ele>228.3</ele>
        <time>2019-08-20T11:16:50Z</time>
      </trkpt>
      <trkpt lat="46.47244" lon="3.96838">
        <ele>228.3</ele>
        <time>2019-08-20T11:16:51Z</time>
      </trkpt>
      <trkpt lat="46.47245" lon="3.96828">
        <ele>228.3</ele>
        <time>2019-08-20T11:16:52Z</time>
      </trkpt>
      <trkpt lat="46.47245" lon="3.9682">
        <ele>228.3</ele>
        <time>2019-08-20T11:16:53Z</time>
      </trkpt>
      <trkpt lat="46.47244" lon="3.96812">
        <ele>228.3</ele>
        <time>2019-08-20T11:16:54Z</time>
      </trkpt>
      <trkpt lat="46.47244" lon="3.96805">
        <ele>228.3</ele>
        <time>2019-08-20T11:16:55Z</time>
      </trkpt>
      <trkpt lat="46.47243" lon="3.96798">
        <ele>228.3</ele>
        <time>2019-08-20T11:16:56Z</time>
      </trkpt>
      <trkpt lat="46.47243" lon="3.96791">
        <ele>228.3</ele>
        <time>2019-08-20T11:16:57Z</time>
      </trkpt>
      <trkpt lat="46.47243" lon="3.96785">
        <ele>228.3</ele>
        <time>2019-08-20T11:16:58Z</time>
      </trkpt>
      <trkpt lat="46.47244" lon="3.96778">
        <ele>228.3</ele>
        <time>2019-08-20T11:16:59Z</time>
      </trkpt>
      <trkpt lat="46.47244" lon="3.9677">
        <ele>228.4</ele>
        <time>2019-08-20T11:17:00Z</time>
      </trkpt>
      <trkpt lat="46.47243" lon="3.96763">
        <ele>228.4</ele>
        <time>2019-08-20T11:17:01Z</time>
      </trkpt>
      <trkpt lat="46.47243" lon="3.96755">
        <ele>228.4</ele>
        <time>2019-08-20T11:17:02Z</time>
      </trkpt>
      <trkpt lat="46.47244" lon="3.96748">
        <ele>228.4</ele>
        <time>2019-08-20T11:17:03Z</time>
      </trkpt>
      <trkpt lat="46.47244" lon="3.96739">
        <ele>228.4</ele>
        <time>2019-08-20T11:17:04Z</time>
      </trkpt>
      <trkpt lat="46.47244" lon="3.96731">
        <ele>228.4</ele>
        <time>2019-08-20T11:17:05Z</time>
      </trkpt>
      <trkpt lat="46.47244" lon="3.96723">
        <ele>228.4</ele>
        <time>2019-08-20T11:17:06Z</time>
      </trkpt>
      <trkpt lat="46.47244" lon="3.96715">
        <ele>228.4</ele>
        <time>2019-08-20T11:17:07Z</time>
      </trkpt>
      <trkpt lat="46.47243" lon="3.96707">
        <ele>228.4</ele>
        <time>2019-08-20T11:17:08Z</time>
      </trkpt>
      <trkpt lat="46.47243" lon="3.96698">
        <ele>228.4</ele>
        <time>2019-08-20T11:17:09Z</time>
      </trkpt>
      <trkpt lat="46.47243" lon="3.96689">
        <ele>228.5</ele>
        <time>2019-08-20T11:17:10Z</time>
      </trkpt>
      <trkpt lat="46.47241" lon="3.9668">
        <ele>228.5</ele>
        <time>2019-08-20T11:17:11Z</time>
      </trkpt>
      <trkpt lat="46.47241" lon="3.96674">
        <ele>228.5</ele>
        <time>2019-08-20T11:17:12Z</time>
      </trkpt>
      <trkpt lat="46.47239" lon="3.96667">
        <ele>228.5</ele>
        <time>2019-08-20T11:17:13Z</time>
      </trkpt>
      <trkpt lat="46.47238" lon="3.96658">
        <ele>228.5</ele>
        <time>2019-08-20T11:17:14Z</time>
      </trkpt>
      <trkpt lat="46.47236" lon="3.96651">
        <ele>228.5</ele>
        <time>2019-08-20T11:17:15Z</time>
      </trkpt>
      <trkpt lat="46.47235" lon="3.96643">
        <ele>228.5</ele>
        <time>2019-08-20T11:17:16Z</time>
      </trkpt>
      <trkpt lat="46.47234" lon="3.96636">
        <ele>228.5</ele>
        <time>2019-08-20T11:17:17Z</time>
      </trkpt>
      <trkpt lat="46.47232" lon="3.96631">
        <ele>228.5</ele>
        <time>2019-08-20T11:17:18Z</time>
      </trkpt>
      <trkpt lat="46.47231" lon="3.96626">
        <ele>228.6</ele>
        <time>2019-08-20T11:17:19Z</time>
      </trkpt>
      <trkpt lat="46.47228" lon="3.96623">
        <ele>228.6</ele>
        <time>2019-08-20T11:17:20Z</time>
      </trkpt>
      <trkpt lat="46.47226" lon="3.96619">
        <ele>228.6</ele>
        <time>2019-08-20T11:17:21Z</time>
      </trkpt>
      <trkpt lat="46.47225" lon="3.96614">
        <ele>228.6</ele>
        <time>2019-08-20T11:17:22Z</time>
      </trkpt>
      <trkpt lat="46.47222" lon="3.9661">
        <ele>228.6</ele>
        <time>2019-08-20T11:17:23Z</time>
      </trkpt>
      <trkpt lat="46.4722" lon="3.96606">
        <ele>228.6</ele>
        <time>2019-08-20T11:17:24Z</time>
      </trkpt>
      <trkpt lat="46.47218" lon="3.96601">
        <ele>228.6</ele>
        <time>2019-08-20T11:17:25Z</time>
      </trkpt>
      <trkpt lat="46.47216" lon="3.96596">
        <ele>228.6</ele>
        <time>2019-08-20T11:17:26Z</time>
      </trkpt>
      <trkpt lat="46.47213" lon="3.96593">
        <ele>228.6</ele>
        <time>2019-08-20T11:17:27Z</time>
      </trkpt>
      <trkpt lat="46.47212" lon="3.96589">
        <ele>228.6</ele>
        <time>2019-08-20T11:17:28Z</time>
      </trkpt>
      <trkpt lat="46.47209" lon="3.96585">
        <ele>228.6</ele>
        <time>2019-08-20T11:17:29Z</time>
      </trkpt>
      <trkpt lat="46.47208" lon="3.96581">
        <ele>228.6</ele>
        <time>2019-08-20T11:17:30Z</time>
      </trkpt>
      <trkpt lat="46.47207" lon="3.96577">
        <ele>228.6</ele>
        <time>2019-08-20T11:17:31Z</time>
      </trkpt>
      <trkpt lat="46.47206" lon="3.96572">
        <ele>228.6</ele>
        <time>2019-08-20T11:17:32Z</time>
      </trkpt>
      <trkpt lat="46.47206" lon="3.96567">
        <ele>228.6</ele>
        <time>2019-08-20T11:17:33Z</time>
      </trkpt>
      <trkpt lat="46.47206" lon="3.96562">
        <ele>228.7</ele>
        <time>2019-08-20T11:17:34Z</time>
      </trkpt>
      <trkpt lat="46.47207" lon="3.96557">
        <ele>228.7</ele>
        <time>2019-08-20T11:17:35Z</time>
      </trkpt>
      <trkpt lat="46.47208" lon="3.96551">
        <ele>228.7</ele>
        <time>2019-08-20T11:17:36Z</time>
      </trkpt>
      <trkpt lat="46.47209" lon="3.96545">
        <ele>228.7</ele>
        <time>2019-08-20T11:17:37Z</time>
      </trkpt>
      <trkpt lat="46.47209" lon="3.96538">
        <ele>228.7</ele>
        <time>2019-08-20T11:17:38Z</time>
      </trkpt>
      <trkpt lat="46.4721" lon="3.96532">
        <ele>228.7</ele>
        <time>2019-08-20T11:17:39Z</time>
      </trkpt>
      <trkpt lat="46.47209" lon="3.96524">
        <ele>228.7</ele>
        <time>2019-08-20T11:17:40Z</time>
      </trkpt>
      <trkpt lat="46.47209" lon="3.96518">
        <ele>228.8</ele>
        <time>2019-08-20T11:17:41Z</time>
      </trkpt>
      <trkpt lat="46.47209" lon="3.96512">
        <ele>228.8</ele>
        <time>2019-08-20T11:17:42Z</time>
      </trkpt>
      <trkpt lat="46.47209" lon="3.96506">
        <ele>228.8</ele>
        <time>2019-08-20T11:17:43Z</time>
      </trkpt>
      <trkpt lat="46.4721" lon="3.965">
        <ele>228.8</ele>
        <time>2019-08-20T11:17:44Z</time>
      </trkpt>
      <trkpt lat="46.47211" lon="3.96494">
        <ele>228.8</ele>
        <time>2019-08-20T11:17:45Z</time>
      </trkpt>
      <trkpt lat="46.47211" lon="3.96488">
        <ele>228.9</ele>
        <time>2019-08-20T11:17:46Z</time>
      </trkpt>
      <trkpt lat="46.47212" lon="3.96481">
        <ele>228.9</ele>
        <time>2019-08-20T11:17:47Z</time>
      </trkpt>
      <trkpt lat="46.47211" lon="3.96476">
        <ele>228.9</ele>
        <time>2019-08-20T11:17:48Z</time>
      </trkpt>
      <trkpt lat="46.47211" lon="3.9647">
        <ele>229</ele>
        <time>2019-08-20T11:17:49Z</time>
      </trkpt>
      <trkpt lat="46.47211" lon="3.96463">
        <ele>229</ele>
        <time>2019-08-20T11:17:50Z</time>
      </trkpt>
      <trkpt lat="46.47211" lon="3.96456">
        <ele>229</ele>
        <time>2019-08-20T11:17:51Z</time>
      </trkpt>
      <trkpt lat="46.47211" lon="3.96449">
        <ele>229.1</ele>
        <time>2019-08-20T11:17:52Z</time>
      </trkpt>
      <trkpt lat="46.47211" lon="3.96443">
        <ele>229.1</ele>
        <time>2019-08-20T11:17:53Z</time>
      </trkpt>
      <trkpt lat="46.47211" lon="3.96437">
        <ele>229.1</ele>
        <time>2019-08-20T11:17:54Z</time>
      </trkpt>
      <trkpt lat="46.47211" lon="3.96429">
        <ele>229.1</ele>
        <time>2019-08-20T11:17:55Z</time>
      </trkpt>
      <trkpt lat="46.47211" lon="3.96423">
        <ele>229.2</ele>
        <time>2019-08-20T11:17:56Z</time>
      </trkpt>
      <trkpt lat="46.47211" lon="3.96415">
        <ele>229.3</ele>
        <time>2019-08-20T11:17:57Z</time>
      </trkpt>
      <trkpt lat="46.47211" lon="3.96408">
        <ele>229.4</ele>
        <time>2019-08-20T11:17:58Z</time>
      </trkpt>
      <trkpt lat="46.47212" lon="3.96401">
        <ele>229.6</ele>
        <time>2019-08-20T11:17:59Z</time>
      </trkpt>
      <trkpt lat="46.47212" lon="3.96393">
        <ele>229.7</ele>
        <time>2019-08-20T11:18:00Z</time>
      </trkpt>
      <trkpt lat="46.47212" lon="3.96386">
        <ele>229.9</ele>
        <time>2019-08-20T11:18:01Z</time>
      </trkpt>
      <trkpt lat="46.47212" lon="3.9638">
        <ele>230</ele>
        <time>2019-08-20T11:18:02Z</time>
      </trkpt>
      <trkpt lat="46.47212" lon="3.96374">
        <ele>230.1</ele>
        <time>2019-08-20T11:18:03Z</time>
      </trkpt>
      <trkpt lat="46.4721" lon="3.96367">
        <ele>230.2</ele>
        <time>2019-08-20T11:18:04Z</time>
      </trkpt>
      <trkpt lat="46.47209" lon="3.9636">
        <ele>230.4</ele>
        <time>2019-08-20T11:18:05Z</time>
      </trkpt>
      <trkpt lat="46.47208" lon="3.96353">
        <ele>230.4</ele>
        <time>2019-08-20T11:18:06Z</time>
      </trkpt>
      <trkpt lat="46.47208" lon="3.96347">
        <ele>230.5</ele>
        <time>2019-08-20T11:18:07Z</time>
      </trkpt>
      <trkpt lat="46.47208" lon="3.96341">
        <ele>230.6</ele>
        <time>2019-08-20T11:18:08Z</time>
      </trkpt>
      <trkpt lat="46.47207" lon="3.96335">
        <ele>230.6</ele>
        <time>2019-08-20T11:18:09Z</time>
      </trkpt>
      <trkpt lat="46.47207" lon="3.96328">
        <ele>230.6</ele>
        <time>2019-08-20T11:18:10Z</time>
      </trkpt>
      <trkpt lat="46.47207" lon="3.96322">
        <ele>230.6</ele>
        <time>2019-08-20T11:18:11Z</time>
      </trkpt>
      <trkpt lat="46.47206" lon="3.96316">
        <ele>230.6</ele>
        <time>2019-08-20T11:18:12Z</time>
      </trkpt>
      <trkpt lat="46.47206" lon="3.96309">
        <ele>230.5</ele>
        <time>2019-08-20T11:18:13Z</time>
      </trkpt>
      <trkpt lat="46.47206" lon="3.96303">
        <ele>230.5</ele>
        <time>2019-08-20T11:18:14Z</time>
      </trkpt>
      <trkpt lat="46.47205" lon="3.96298">
        <ele>230.4</ele>
        <time>2019-08-20T11:18:15Z</time>
      </trkpt>
      <trkpt lat="46.47205" lon="3.96291">
        <ele>230.4</ele>
        <time>2019-08-20T11:18:16Z</time>
      </trkpt>
      <trkpt lat="46.47204" lon="3.96285">
        <ele>230.4</ele>
        <time>2019-08-20T11:18:17Z</time>
      </trkpt>
      <trkpt lat="46.47205" lon="3.96278">
        <ele>230.4</ele>
        <time>2019-08-20T11:18:18Z</time>
      </trkpt>
      <trkpt lat="46.47204" lon="3.96272">
        <ele>230.3</ele>
        <time>2019-08-20T11:18:19Z</time>
      </trkpt>
      <trkpt lat="46.47203" lon="3.96265">
        <ele>230.2</ele>
        <time>2019-08-20T11:18:20Z</time>
      </trkpt>
      <trkpt lat="46.47201" lon="3.96259">
        <ele>230.2</ele>
        <time>2019-08-20T11:18:21Z</time>
      </trkpt>
      <trkpt lat="46.472" lon="3.96253">
        <ele>230.1</ele>
        <time>2019-08-20T11:18:22Z</time>
      </trkpt>
      <trkpt lat="46.47199" lon="3.96247">
        <ele>230.1</ele>
        <time>2019-08-20T11:18:23Z</time>
      </trkpt>
      <trkpt lat="46.47198" lon="3.96239">
        <ele>230.1</ele>
        <time>2019-08-20T11:18:24Z</time>
      </trkpt>
      <trkpt lat="46.47198" lon="3.96232">
        <ele>230.1</ele>
        <time>2019-08-20T11:18:25Z</time>
      </trkpt>
      <trkpt lat="46.47197" lon="3.96225">
        <ele>230.1</ele>
        <time>2019-08-20T11:18:26Z</time>
      </trkpt>
      <trkpt lat="46.47197" lon="3.96219">
        <ele>230.1</ele>
        <time>2019-08-20T11:18:27Z</time>
      </trkpt>
      <trkpt lat="46.47196" lon="3.96213">
        <ele>230.1</ele>
        <time>2019-08-20T11:18:28Z</time>
      </trkpt>
      <trkpt lat="46.47196" lon="3.96207">
        <ele>230.2</ele>
        <time>2019-08-20T11:18:29Z</time>
      </trkpt>
      <trkpt lat="46.47195" lon="3.962">
        <ele>230.2</ele>
        <time>2019-08-20T11:18:30Z</time>
      </trkpt>
      <trkpt lat="46.47195" lon="3.96194">
        <ele>230.3</ele>
        <time>2019-08-20T11:18:31Z</time>
      </trkpt>
      <trkpt lat="46.47195" lon="3.96187">
        <ele>230.2</ele>
        <time>2019-08-20T11:18:32Z</time>
      </trkpt>
      <trkpt lat="46.47194" lon="3.96182">
        <ele>230.2</ele>
        <time>2019-08-20T11:18:33Z</time>
      </trkpt>
      <trkpt lat="46.47193" lon="3.96175">
        <ele>230.2</ele>
        <time>2019-08-20T11:18:34Z</time>
      </trkpt>
      <trkpt lat="46.47193" lon="3.96168">
        <ele>230.2</ele>
        <time>2019-08-20T11:18:35Z</time>
      </trkpt>
      <trkpt lat="46.47192" lon="3.96163">
        <ele>230.2</ele>
        <time>2019-08-20T11:18:36Z</time>
      </trkpt>
      <trkpt lat="46.47192" lon="3.96156">
        <ele>230.2</ele>
        <time>2019-08-20T11:18:37Z</time>
      </trkpt>
      <trkpt lat="46.47191" lon="3.96149">
        <ele>230.2</ele>
        <time>2019-08-20T11:18:38Z</time>
      </trkpt>
      <trkpt lat="46.4719" lon="3.96143">
        <ele>230.2</ele>
        <time>2019-08-20T11:18:39Z</time>
      </trkpt>
      <trkpt lat="46.47191" lon="3.96138">
        <ele>230.2</ele>
        <time>2019-08-20T11:18:40Z</time>
      </trkpt>
      <trkpt lat="46.47191" lon="3.96132">
        <ele>230.2</ele>
        <time>2019-08-20T11:18:41Z</time>
      </trkpt>
      <trkpt lat="46.4719" lon="3.96125">
        <ele>230.2</ele>
        <time>2019-08-20T11:18:42Z</time>
      </trkpt>
      <trkpt lat="46.47189" lon="3.96118">
        <ele>230.2</ele>
        <time>2019-08-20T11:18:43Z</time>
      </trkpt>
      <trkpt lat="46.47188" lon="3.96111">
        <ele>230.2</ele>
        <time>2019-08-20T11:18:44Z</time>
      </trkpt>
      <trkpt lat="46.47188" lon="3.96104">
        <ele>230.2</ele>
        <time>2019-08-20T11:18:45Z</time>
      </trkpt>
      <trkpt lat="46.47188" lon="3.96097">
        <ele>230.2</ele>
        <time>2019-08-20T11:18:46Z</time>
      </trkpt>
      <trkpt lat="46.47188" lon="3.96091">
        <ele>230.2</ele>
        <time>2019-08-20T11:18:47Z</time>
      </trkpt>
      <trkpt lat="46.47187" lon="3.96084">
        <ele>230.1</ele>
        <time>2019-08-20T11:18:48Z</time>
      </trkpt>
      <trkpt lat="46.47186" lon="3.96078">
        <ele>230.1</ele>
        <time>2019-08-20T11:18:49Z</time>
      </trkpt>
      <trkpt lat="46.47186" lon="3.96071">
        <ele>230.1</ele>
        <time>2019-08-20T11:18:50Z</time>
      </trkpt>
      <trkpt lat="46.47185" lon="3.96063">
        <ele>230.1</ele>
        <time>2019-08-20T11:18:51Z</time>
      </trkpt>
      <trkpt lat="46.47184" lon="3.96056">
        <ele>230.1</ele>
        <time>2019-08-20T11:18:52Z</time>
      </trkpt>
      <trkpt lat="46.47184" lon="3.96049">
        <ele>230.1</ele>
        <time>2019-08-20T11:18:53Z</time>
      </trkpt>
      <trkpt lat="46.47183" lon="3.96042">
        <ele>230.1</ele>
        <time>2019-08-20T11:18:54Z</time>
      </trkpt>
      <trkpt lat="46.47183" lon="3.96035">
        <ele>230.1</ele>
        <time>2019-08-20T11:18:55Z</time>
      </trkpt>
      <trkpt lat="46.47183" lon="3.9603">
        <ele>230.1</ele>
        <time>2019-08-20T11:18:56Z</time>
      </trkpt>
      <trkpt lat="46.47183" lon="3.96022">
        <ele>230.1</ele>
        <time>2019-08-20T11:18:57Z</time>
      </trkpt>
      <trkpt lat="46.47181" lon="3.96016">
        <ele>230.1</ele>
        <time>2019-08-20T11:18:58Z</time>
      </trkpt>
      <trkpt lat="46.47181" lon="3.96009">
        <ele>230.1</ele>
        <time>2019-08-20T11:18:59Z</time>
      </trkpt>
      <trkpt lat="46.4718" lon="3.96002">
        <ele>230</ele>
        <time>2019-08-20T11:19:00Z</time>
      </trkpt>
      <trkpt lat="46.47181" lon="3.95995">
        <ele>230</ele>
        <time>2019-08-20T11:19:01Z</time>
      </trkpt>
      <trkpt lat="46.4718" lon="3.95988">
        <ele>230</ele>
        <time>2019-08-20T11:19:02Z</time>
      </trkpt>
      <trkpt lat="46.47179" lon="3.9598">
        <ele>229.9</ele>
        <time>2019-08-20T11:19:03Z</time>
      </trkpt>
      <trkpt lat="46.47179" lon="3.95974">
        <ele>229.9</ele>
        <time>2019-08-20T11:19:04Z</time>
      </trkpt>
      <trkpt lat="46.47179" lon="3.95968">
        <ele>229.9</ele>
        <time>2019-08-20T11:19:05Z</time>
      </trkpt>
      <trkpt lat="46.47179" lon="3.95961">
        <ele>229.8</ele>
        <time>2019-08-20T11:19:06Z</time>
      </trkpt>
      <trkpt lat="46.47179" lon="3.95955">
        <ele>229.8</ele>
        <time>2019-08-20T11:19:07Z</time>
      </trkpt>
      <trkpt lat="46.47179" lon="3.95949">
        <ele>229.8</ele>
        <time>2019-08-20T11:19:08Z</time>
      </trkpt>
      <trkpt lat="46.47179" lon="3.95944">
        <ele>229.9</ele>
        <time>2019-08-20T11:19:09Z</time>
      </trkpt>
      <trkpt lat="46.47178" lon="3.95938">
        <ele>230</ele>
        <time>2019-08-20T11:19:10Z</time>
      </trkpt>
      <trkpt lat="46.47178" lon="3.95933">
        <ele>230.1</ele>
        <time>2019-08-20T11:19:11Z</time>
      </trkpt>
      <trkpt lat="46.47178" lon="3.95929">
        <ele>230.2</ele>
        <time>2019-08-20T11:19:12Z</time>
      </trkpt>
      <trkpt lat="46.47177" lon="3.95925">
        <ele>230.3</ele>
        <time>2019-08-20T11:19:14Z</time>
      </trkpt>
      <trkpt lat="46.47174" lon="3.95918">
        <ele>230.4</ele>
        <time>2019-08-20T11:19:19Z</time>
      </trkpt>
      <trkpt lat="46.47174" lon="3.95913">
        <ele>230.4</ele>
        <time>2019-08-20T11:19:20Z</time>
      </trkpt>
      <trkpt lat="46.47173" lon="3.95907">
        <ele>230.5</ele>
        <time>2019-08-20T11:19:21Z</time>
      </trkpt>
      <trkpt lat="46.47172" lon="3.95903">
        <ele>230.5</ele>
        <time>2019-08-20T11:19:22Z</time>
      </trkpt>
      <trkpt lat="46.47172" lon="3.95897">
        <ele>230.6</ele>
        <time>2019-08-20T11:19:23Z</time>
      </trkpt>
      <trkpt lat="46.47171" lon="3.95892">
        <ele>230.6</ele>
        <time>2019-08-20T11:19:24Z</time>
      </trkpt>
      <trkpt lat="46.47171" lon="3.95886">
        <ele>230.6</ele>
        <time>2019-08-20T11:19:25Z</time>
      </trkpt>
      <trkpt lat="46.47171" lon="3.9588">
        <ele>230.6</ele>
        <time>2019-08-20T11:19:26Z</time>
      </trkpt>
      <trkpt lat="46.4717" lon="3.95873">
        <ele>230.6</ele>
        <time>2019-08-20T11:19:27Z</time>
      </trkpt>
      <trkpt lat="46.47171" lon="3.95869">
        <ele>230.6</ele>
        <time>2019-08-20T11:19:28Z</time>
      </trkpt>
      <trkpt lat="46.47171" lon="3.95863">
        <ele>230.6</ele>
        <time>2019-08-20T11:19:29Z</time>
      </trkpt>
      <trkpt lat="46.47171" lon="3.95858">
        <ele>230.6</ele>
        <time>2019-08-20T11:19:30Z</time>
      </trkpt>
      <trkpt lat="46.47171" lon="3.95852">
        <ele>230.6</ele>
        <time>2019-08-20T11:19:31Z</time>
      </trkpt>
      <trkpt lat="46.47171" lon="3.95847">
        <ele>230.6</ele>
        <time>2019-08-20T11:19:32Z</time>
      </trkpt>
      <trkpt lat="46.47172" lon="3.95841">
        <ele>230.6</ele>
        <time>2019-08-20T11:19:33Z</time>
      </trkpt>
      <trkpt lat="46.47173" lon="3.95834">
        <ele>230.5</ele>
        <time>2019-08-20T11:19:34Z</time>
      </trkpt>
      <trkpt lat="46.47174" lon="3.95828">
        <ele>230.5</ele>
        <time>2019-08-20T11:19:35Z</time>
      </trkpt>
      <trkpt lat="46.47175" lon="3.95823">
        <ele>230.4</ele>
        <time>2019-08-20T11:19:36Z</time>
      </trkpt>
      <trkpt lat="46.47176" lon="3.95816">
        <ele>230.4</ele>
        <time>2019-08-20T11:19:37Z</time>
      </trkpt>
      <trkpt lat="46.47177" lon="3.9581">
        <ele>230.3</ele>
        <time>2019-08-20T11:19:38Z</time>
      </trkpt>
      <trkpt lat="46.47179" lon="3.95805">
        <ele>230.3</ele>
        <time>2019-08-20T11:19:39Z</time>
      </trkpt>
      <trkpt lat="46.47181" lon="3.95799">
        <ele>230.3</ele>
        <time>2019-08-20T11:19:40Z</time>
      </trkpt>
      <trkpt lat="46.47183" lon="3.95793">
        <ele>230.2</ele>
        <time>2019-08-20T11:19:41Z</time>
      </trkpt>
      <trkpt lat="46.47185" lon="3.95787">
        <ele>230.2</ele>
        <time>2019-08-20T11:19:42Z</time>
      </trkpt>
      <trkpt lat="46.47186" lon="3.95781">
        <ele>230.2</ele>
        <time>2019-08-20T11:19:43Z</time>
      </trkpt>
      <trkpt lat="46.47187" lon="3.95775">
        <ele>230.2</ele>
        <time>2019-08-20T11:19:44Z</time>
      </trkpt>
      <trkpt lat="46.47186" lon="3.95769">
        <ele>230.2</ele>
        <time>2019-08-20T11:19:45Z</time>
      </trkpt>
      <trkpt lat="46.47186" lon="3.95763">
        <ele>230.2</ele>
        <time>2019-08-20T11:19:46Z</time>
      </trkpt>
      <trkpt lat="46.47185" lon="3.95756">
        <ele>230.2</ele>
        <time>2019-08-20T11:19:47Z</time>
      </trkpt>
      <trkpt lat="46.47184" lon="3.9575">
        <ele>230.2</ele>
        <time>2019-08-20T11:19:48Z</time>
      </trkpt>
      <trkpt lat="46.47184" lon="3.95742">
        <ele>230.3</ele>
        <time>2019-08-20T11:19:49Z</time>
      </trkpt>
      <trkpt lat="46.47183" lon="3.95736">
        <ele>230.3</ele>
        <time>2019-08-20T11:19:50Z</time>
      </trkpt>
      <trkpt lat="46.47183" lon="3.95729">
        <ele>230.3</ele>
        <time>2019-08-20T11:19:51Z</time>
      </trkpt>
      <trkpt lat="46.47183" lon="3.95722">
        <ele>230.4</ele>
        <time>2019-08-20T11:19:52Z</time>
      </trkpt>
      <trkpt lat="46.47182" lon="3.95715">
        <ele>230.4</ele>
        <time>2019-08-20T11:19:53Z</time>
      </trkpt>
      <trkpt lat="46.47182" lon="3.95709">
        <ele>230.5</ele>
        <time>2019-08-20T11:19:54Z</time>
      </trkpt>
      <trkpt lat="46.47181" lon="3.95702">
        <ele>230.6</ele>
        <time>2019-08-20T11:19:55Z</time>
      </trkpt>
      <trkpt lat="46.4718" lon="3.95696">
        <ele>230.7</ele>
        <time>2019-08-20T11:19:56Z</time>
      </trkpt>
      <trkpt lat="46.47178" lon="3.9569">
        <ele>230.8</ele>
        <time>2019-08-20T11:19:57Z</time>
      </trkpt>
      <trkpt lat="46.47176" lon="3.95684">
        <ele>230.8</ele>
        <time>2019-08-20T11:19:58Z</time>
      </trkpt>
      <trkpt lat="46.47174" lon="3.95677">
        <ele>230.9</ele>
        <time>2019-08-20T11:19:59Z</time>
      </trkpt>
      <trkpt lat="46.47171" lon="3.95672">
        <ele>231</ele>
        <time>2019-08-20T11:20:00Z</time>
      </trkpt>
      <trkpt lat="46.4717" lon="3.95666">
        <ele>231.1</ele>
        <time>2019-08-20T11:20:01Z</time>
      </trkpt>
      <trkpt lat="46.47169" lon="3.9566">
        <ele>231.1</ele>
        <time>2019-08-20T11:20:02Z</time>
      </trkpt>
      <trkpt lat="46.47168" lon="3.95654">
        <ele>231.2</ele>
        <time>2019-08-20T11:20:03Z</time>
      </trkpt>
      <trkpt lat="46.47165" lon="3.95648">
        <ele>231.2</ele>
        <time>2019-08-20T11:20:04Z</time>
      </trkpt>
      <trkpt lat="46.47163" lon="3.95641">
        <ele>231.2</ele>
        <time>2019-08-20T11:20:05Z</time>
      </trkpt>
      <trkpt lat="46.47161" lon="3.95633">
        <ele>231.3</ele>
        <time>2019-08-20T11:20:06Z</time>
      </trkpt>
      <trkpt lat="46.4716" lon="3.95626">
        <ele>231.3</ele>
        <time>2019-08-20T11:20:07Z</time>
      </trkpt>
      <trkpt lat="46.47159" lon="3.9562">
        <ele>231.3</ele>
        <time>2019-08-20T11:20:08Z</time>
      </trkpt>
      <trkpt lat="46.47159" lon="3.95614">
        <ele>231.3</ele>
        <time>2019-08-20T11:20:09Z</time>
      </trkpt>
      <trkpt lat="46.47158" lon="3.95606">
        <ele>231.3</ele>
        <time>2019-08-20T11:20:10Z</time>
      </trkpt>
      <trkpt lat="46.47158" lon="3.956">
        <ele>231.4</ele>
        <time>2019-08-20T11:20:11Z</time>
      </trkpt>
      <trkpt lat="46.47158" lon="3.95593">
        <ele>231.4</ele>
        <time>2019-08-20T11:20:12Z</time>
      </trkpt>
      <trkpt lat="46.47157" lon="3.95586">
        <ele>231.4</ele>
        <time>2019-08-20T11:20:13Z</time>
      </trkpt>
      <trkpt lat="46.47156" lon="3.95579">
        <ele>231.5</ele>
        <time>2019-08-20T11:20:14Z</time>
      </trkpt>
      <trkpt lat="46.47155" lon="3.95573">
        <ele>231.5</ele>
        <time>2019-08-20T11:20:15Z</time>
      </trkpt>
      <trkpt lat="46.47154" lon="3.95567">
        <ele>231.6</ele>
        <time>2019-08-20T11:20:16Z</time>
      </trkpt>
      <trkpt lat="46.47154" lon="3.95561">
        <ele>231.7</ele>
        <time>2019-08-20T11:20:17Z</time>
      </trkpt>
      <trkpt lat="46.47154" lon="3.95553">
        <ele>231.8</ele>
        <time>2019-08-20T11:20:18Z</time>
      </trkpt>
      <trkpt lat="46.47153" lon="3.95547">
        <ele>231.8</ele>
        <time>2019-08-20T11:20:19Z</time>
      </trkpt>
      <trkpt lat="46.47152" lon="3.9554">
        <ele>231.9</ele>
        <time>2019-08-20T11:20:20Z</time>
      </trkpt>
      <trkpt lat="46.47151" lon="3.95533">
        <ele>231.9</ele>
        <time>2019-08-20T11:20:21Z</time>
      </trkpt>
      <trkpt lat="46.47151" lon="3.95525">
        <ele>231.9</ele>
        <time>2019-08-20T11:20:22Z</time>
      </trkpt>
      <trkpt lat="46.47149" lon="3.95519">
        <ele>231.9</ele>
        <time>2019-08-20T11:20:23Z</time>
      </trkpt>
      <trkpt lat="46.47148" lon="3.95513">
        <ele>231.8</ele>
        <time>2019-08-20T11:20:24Z</time>
      </trkpt>
      <trkpt lat="46.47146" lon="3.95507">
        <ele>231.8</ele>
        <time>2019-08-20T11:20:25Z</time>
      </trkpt>
      <trkpt lat="46.47145" lon="3.95499">
        <ele>231.8</ele>
        <time>2019-08-20T11:20:26Z</time>
      </trkpt>
      <trkpt lat="46.47144" lon="3.95492">
        <ele>231.7</ele>
        <time>2019-08-20T11:20:27Z</time>
      </trkpt>
      <trkpt lat="46.47143" lon="3.95485">
        <ele>231.7</ele>
        <time>2019-08-20T11:20:28Z</time>
      </trkpt>
      <trkpt lat="46.47143" lon="3.95477">
        <ele>231.6</ele>
        <time>2019-08-20T11:20:29Z</time>
      </trkpt>
      <trkpt lat="46.47142" lon="3.9547">
        <ele>231.6</ele>
        <time>2019-08-20T11:20:30Z</time>
      </trkpt>
      <trkpt lat="46.47142" lon="3.95463">
        <ele>231.6</ele>
        <time>2019-08-20T11:20:31Z</time>
      </trkpt>
      <trkpt lat="46.47141" lon="3.95455">
        <ele>231.5</ele>
        <time>2019-08-20T11:20:32Z</time>
      </trkpt>
      <trkpt lat="46.47141" lon="3.95448">
        <ele>231.5</ele>
        <time>2019-08-20T11:20:33Z</time>
      </trkpt>
      <trkpt lat="46.47141" lon="3.95439">
        <ele>231.4</ele>
        <time>2019-08-20T11:20:34Z</time>
      </trkpt>
      <trkpt lat="46.47141" lon="3.95432">
        <ele>231.3</ele>
        <time>2019-08-20T11:20:35Z</time>
      </trkpt>
      <trkpt lat="46.47142" lon="3.95425">
        <ele>231.3</ele>
        <time>2019-08-20T11:20:36Z</time>
      </trkpt>
      <trkpt lat="46.47141" lon="3.95419">
        <ele>231.2</ele>
        <time>2019-08-20T11:20:37Z</time>
      </trkpt>
      <trkpt lat="46.47141" lon="3.95413">
        <ele>231.2</ele>
        <time>2019-08-20T11:20:38Z</time>
      </trkpt>
      <trkpt lat="46.4714" lon="3.95406">
        <ele>231.1</ele>
        <time>2019-08-20T11:20:39Z</time>
      </trkpt>
      <trkpt lat="46.47139" lon="3.95399">
        <ele>231.1</ele>
        <time>2019-08-20T11:20:40Z</time>
      </trkpt>
      <trkpt lat="46.47138" lon="3.95392">
        <ele>231.1</ele>
        <time>2019-08-20T11:20:41Z</time>
      </trkpt>
      <trkpt lat="46.47139" lon="3.95385">
        <ele>231.2</ele>
        <time>2019-08-20T11:20:42Z</time>
      </trkpt>
      <trkpt lat="46.47139" lon="3.95378">
        <ele>231.2</ele>
        <time>2019-08-20T11:20:43Z</time>
      </trkpt>
      <trkpt lat="46.47139" lon="3.9537">
        <ele>231.3</ele>
        <time>2019-08-20T11:20:44Z</time>
      </trkpt>
      <trkpt lat="46.47138" lon="3.95362">
        <ele>231.3</ele>
        <time>2019-08-20T11:20:45Z</time>
      </trkpt>
      <trkpt lat="46.47138" lon="3.95355">
        <ele>231.4</ele>
        <time>2019-08-20T11:20:46Z</time>
      </trkpt>
      <trkpt lat="46.47138" lon="3.95348">
        <ele>231.4</ele>
        <time>2019-08-20T11:20:47Z</time>
      </trkpt>
      <trkpt lat="46.47138" lon="3.95341">
        <ele>231.4</ele>
        <time>2019-08-20T11:20:48Z</time>
      </trkpt>
      <trkpt lat="46.47138" lon="3.95333">
        <ele>231.3</ele>
        <time>2019-08-20T11:20:49Z</time>
      </trkpt>
      <trkpt lat="46.47138" lon="3.95326">
        <ele>231.3</ele>
        <time>2019-08-20T11:20:50Z</time>
      </trkpt>
      <trkpt lat="46.47137" lon="3.95319">
        <ele>231.3</ele>
        <time>2019-08-20T11:20:51Z</time>
      </trkpt>
      <trkpt lat="46.47138" lon="3.95312">
        <ele>231.3</ele>
        <time>2019-08-20T11:20:52Z</time>
      </trkpt>
      <trkpt lat="46.47138" lon="3.95304">
        <ele>231.2</ele>
        <time>2019-08-20T11:20:53Z</time>
      </trkpt>
      <trkpt lat="46.47138" lon="3.95296">
        <ele>231.2</ele>
        <time>2019-08-20T11:20:54Z</time>
      </trkpt>
      <trkpt lat="46.47138" lon="3.95288">
        <ele>231.2</ele>
        <time>2019-08-20T11:20:55Z</time>
      </trkpt>
      <trkpt lat="46.47137" lon="3.9528">
        <ele>231.2</ele>
        <time>2019-08-20T11:20:56Z</time>
      </trkpt>
      <trkpt lat="46.47136" lon="3.95272">
        <ele>231.2</ele>
        <time>2019-08-20T11:20:57Z</time>
      </trkpt>
      <trkpt lat="46.47136" lon="3.95264">
        <ele>231.2</ele>
        <time>2019-08-20T11:20:58Z</time>
      </trkpt>
      <trkpt lat="46.47135" lon="3.95257">
        <ele>231.3</ele>
        <time>2019-08-20T11:20:59Z</time>
      </trkpt>
      <trkpt lat="46.47134" lon="3.9525">
        <ele>231.3</ele>
        <time>2019-08-20T11:21:00Z</time>
      </trkpt>
      <trkpt lat="46.47133" lon="3.95243">
        <ele>231.3</ele>
        <time>2019-08-20T11:21:01Z</time>
      </trkpt>
      <trkpt lat="46.47132" lon="3.95236">
        <ele>231.4</ele>
        <time>2019-08-20T11:21:02Z</time>
      </trkpt>
      <trkpt lat="46.47132" lon="3.95228">
        <ele>231.5</ele>
        <time>2019-08-20T11:21:03Z</time>
      </trkpt>
      <trkpt lat="46.47132" lon="3.95221">
        <ele>231.5</ele>
        <time>2019-08-20T11:21:04Z</time>
      </trkpt>
      <trkpt lat="46.47131" lon="3.95215">
        <ele>231.6</ele>
        <time>2019-08-20T11:21:05Z</time>
      </trkpt>
      <trkpt lat="46.4713" lon="3.95208">
        <ele>231.7</ele>
        <time>2019-08-20T11:21:06Z</time>
      </trkpt>
      <trkpt lat="46.47129" lon="3.95201">
        <ele>231.8</ele>
        <time>2019-08-20T11:21:07Z</time>
      </trkpt>
      <trkpt lat="46.4713" lon="3.95194">
        <ele>231.8</ele>
        <time>2019-08-20T11:21:08Z</time>
      </trkpt>
      <trkpt lat="46.47129" lon="3.95187">
        <ele>231.9</ele>
        <time>2019-08-20T11:21:09Z</time>
      </trkpt>
      <trkpt lat="46.47128" lon="3.9518">
        <ele>231.9</ele>
        <time>2019-08-20T11:21:10Z</time>
      </trkpt>
      <trkpt lat="46.47128" lon="3.95173">
        <ele>231.9</ele>
        <time>2019-08-20T11:21:11Z</time>
      </trkpt>
      <trkpt lat="46.47129" lon="3.95165">
        <ele>231.9</ele>
        <time>2019-08-20T11:21:12Z</time>
      </trkpt>
      <trkpt lat="46.4713" lon="3.95158">
        <ele>231.9</ele>
        <time>2019-08-20T11:21:13Z</time>
      </trkpt>
      <trkpt lat="46.47129" lon="3.95151">
        <ele>231.8</ele>
        <time>2019-08-20T11:21:14Z</time>
      </trkpt>
      <trkpt lat="46.47128" lon="3.95143">
        <ele>231.8</ele>
        <time>2019-08-20T11:21:15Z</time>
      </trkpt>
      <trkpt lat="46.47128" lon="3.95136">
        <ele>231.7</ele>
        <time>2019-08-20T11:21:16Z</time>
      </trkpt>
      <trkpt lat="46.47127" lon="3.95127">
        <ele>231.7</ele>
        <time>2019-08-20T11:21:17Z</time>
      </trkpt>
      <trkpt lat="46.47127" lon="3.9512">
        <ele>231.6</ele>
        <time>2019-08-20T11:21:18Z</time>
      </trkpt>
      <trkpt lat="46.47127" lon="3.95113">
        <ele>231.6</ele>
        <time>2019-08-20T11:21:19Z</time>
      </trkpt>
      <trkpt lat="46.47127" lon="3.95106">
        <ele>231.5</ele>
        <time>2019-08-20T11:21:20Z</time>
      </trkpt>
      <trkpt lat="46.47126" lon="3.95099">
        <ele>231.5</ele>
        <time>2019-08-20T11:21:21Z</time>
      </trkpt>
      <trkpt lat="46.47126" lon="3.95092">
        <ele>231.5</ele>
        <time>2019-08-20T11:21:22Z</time>
      </trkpt>
      <trkpt lat="46.47127" lon="3.95085">
        <ele>231.5</ele>
        <time>2019-08-20T11:21:23Z</time>
      </trkpt>
      <trkpt lat="46.47127" lon="3.95079">
        <ele>231.4</ele>
        <time>2019-08-20T11:21:24Z</time>
      </trkpt>
      <trkpt lat="46.47126" lon="3.95072">
        <ele>231.4</ele>
        <time>2019-08-20T11:21:25Z</time>
      </trkpt>
      <trkpt lat="46.47126" lon="3.95064">
        <ele>231.5</ele>
        <time>2019-08-20T11:21:26Z</time>
      </trkpt>
      <trkpt lat="46.47126" lon="3.95056">
        <ele>231.5</ele>
        <time>2019-08-20T11:21:27Z</time>
      </trkpt>
      <trkpt lat="46.47124" lon="3.9505">
        <ele>231.5</ele>
        <time>2019-08-20T11:21:28Z</time>
      </trkpt>
      <trkpt lat="46.47123" lon="3.95044">
        <ele>231.5</ele>
        <time>2019-08-20T11:21:29Z</time>
      </trkpt>
      <trkpt lat="46.47123" lon="3.95037">
        <ele>231.5</ele>
        <time>2019-08-20T11:21:30Z</time>
      </trkpt>
      <trkpt lat="46.47123" lon="3.95029">
        <ele>231.5</ele>
        <time>2019-08-20T11:21:31Z</time>
      </trkpt>
      <trkpt lat="46.47123" lon="3.95023">
        <ele>231.5</ele>
        <time>2019-08-20T11:21:32Z</time>
      </trkpt>
      <trkpt lat="46.47123" lon="3.95018">
        <ele>231.5</ele>
        <time>2019-08-20T11:21:33Z</time>
      </trkpt>
      <trkpt lat="46.47123" lon="3.95012">
        <ele>231.4</ele>
        <time>2019-08-20T11:21:34Z</time>
      </trkpt>
      <trkpt lat="46.47123" lon="3.95006">
        <ele>231.4</ele>
        <time>2019-08-20T11:21:35Z</time>
      </trkpt>
      <trkpt lat="46.47122" lon="3.94999">
        <ele>231.4</ele>
        <time>2019-08-20T11:21:36Z</time>
      </trkpt>
      <trkpt lat="46.47121" lon="3.94993">
        <ele>231.4</ele>
        <time>2019-08-20T11:21:37Z</time>
      </trkpt>
      <trkpt lat="46.4712" lon="3.94986">
        <ele>231.4</ele>
        <time>2019-08-20T11:21:38Z</time>
      </trkpt>
      <trkpt lat="46.4712" lon="3.94979">
        <ele>231.4</ele>
        <time>2019-08-20T11:21:39Z</time>
      </trkpt>
      <trkpt lat="46.47119" lon="3.94973">
        <ele>231.4</ele>
        <time>2019-08-20T11:21:40Z</time>
      </trkpt>
      <trkpt lat="46.47119" lon="3.94966">
        <ele>231.4</ele>
        <time>2019-08-20T11:21:41Z</time>
      </trkpt>
      <trkpt lat="46.47119" lon="3.9496">
        <ele>231.4</ele>
        <time>2019-08-20T11:21:42Z</time>
      </trkpt>
      <trkpt lat="46.47118" lon="3.94954">
        <ele>231.4</ele>
        <time>2019-08-20T11:21:43Z</time>
      </trkpt>
      <trkpt lat="46.47117" lon="3.94948">
        <ele>231.4</ele>
        <time>2019-08-20T11:21:44Z</time>
      </trkpt>
      <trkpt lat="46.47116" lon="3.94942">
        <ele>231.4</ele>
        <time>2019-08-20T11:21:45Z</time>
      </trkpt>
      <trkpt lat="46.47116" lon="3.94935">
        <ele>231.4</ele>
        <time>2019-08-20T11:21:46Z</time>
      </trkpt>
      <trkpt lat="46.47115" lon="3.94928">
        <ele>231.4</ele>
        <time>2019-08-20T11:21:47Z</time>
      </trkpt>
      <trkpt lat="46.47114" lon="3.94921">
        <ele>231.4</ele>
        <time>2019-08-20T11:21:48Z</time>
      </trkpt>
      <trkpt lat="46.47114" lon="3.94914">
        <ele>231.4</ele>
        <time>2019-08-20T11:21:49Z</time>
      </trkpt>
      <trkpt lat="46.47115" lon="3.94907">
        <ele>231.4</ele>
        <time>2019-08-20T11:21:50Z</time>
      </trkpt>
      <trkpt lat="46.47114" lon="3.949">
        <ele>231.5</ele>
        <time>2019-08-20T11:21:51Z</time>
      </trkpt>
      <trkpt lat="46.47114" lon="3.94892">
        <ele>231.5</ele>
        <time>2019-08-20T11:21:52Z</time>
      </trkpt>
      <trkpt lat="46.47115" lon="3.94885">
        <ele>231.5</ele>
        <time>2019-08-20T11:21:53Z</time>
      </trkpt>
      <trkpt lat="46.47115" lon="3.94878">
        <ele>231.5</ele>
        <time>2019-08-20T11:21:54Z</time>
      </trkpt>
      <trkpt lat="46.47115" lon="3.94872">
        <ele>231.5</ele>
        <time>2019-08-20T11:21:55Z</time>
      </trkpt>
      <trkpt lat="46.47115" lon="3.94865">
        <ele>231.4</ele>
        <time>2019-08-20T11:21:56Z</time>
      </trkpt>
      <trkpt lat="46.47115" lon="3.94858">
        <ele>231.4</ele>
        <time>2019-08-20T11:21:57Z</time>
      </trkpt>
      <trkpt lat="46.47115" lon="3.94852">
        <ele>231.3</ele>
        <time>2019-08-20T11:21:58Z</time>
      </trkpt>
      <trkpt lat="46.47114" lon="3.94845">
        <ele>231.2</ele>
        <time>2019-08-20T11:21:59Z</time>
      </trkpt>
      <trkpt lat="46.47113" lon="3.94838">
        <ele>231.2</ele>
        <time>2019-08-20T11:22:00Z</time>
      </trkpt>
      <trkpt lat="46.47113" lon="3.94831">
        <ele>231.1</ele>
        <time>2019-08-20T11:22:01Z</time>
      </trkpt>
      <trkpt lat="46.47113" lon="3.94824">
        <ele>231</ele>
        <time>2019-08-20T11:22:02Z</time>
      </trkpt>
      <trkpt lat="46.47112" lon="3.94817">
        <ele>230.9</ele>
        <time>2019-08-20T11:22:03Z</time>
      </trkpt>
      <trkpt lat="46.47111" lon="3.9481">
        <ele>230.9</ele>
        <time>2019-08-20T11:22:04Z</time>
      </trkpt>
      <trkpt lat="46.4711" lon="3.94804">
        <ele>230.8</ele>
        <time>2019-08-20T11:22:05Z</time>
      </trkpt>
      <trkpt lat="46.4711" lon="3.94797">
        <ele>230.7</ele>
        <time>2019-08-20T11:22:06Z</time>
      </trkpt>
      <trkpt lat="46.4711" lon="3.9479">
        <ele>230.6</ele>
        <time>2019-08-20T11:22:07Z</time>
      </trkpt>
      <trkpt lat="46.47109" lon="3.94783">
        <ele>230.5</ele>
        <time>2019-08-20T11:22:08Z</time>
      </trkpt>
      <trkpt lat="46.47109" lon="3.94775">
        <ele>230.5</ele>
        <time>2019-08-20T11:22:09Z</time>
      </trkpt>
      <trkpt lat="46.47108" lon="3.94768">
        <ele>230.4</ele>
        <time>2019-08-20T11:22:10Z</time>
      </trkpt>
      <trkpt lat="46.47107" lon="3.94761">
        <ele>230.4</ele>
        <time>2019-08-20T11:22:11Z</time>
      </trkpt>
      <trkpt lat="46.47106" lon="3.94754">
        <ele>230.5</ele>
        <time>2019-08-20T11:22:12Z</time>
      </trkpt>
      <trkpt lat="46.47106" lon="3.94746">
        <ele>230.5</ele>
        <time>2019-08-20T11:22:13Z</time>
      </trkpt>
      <trkpt lat="46.47105" lon="3.94738">
        <ele>230.4</ele>
        <time>2019-08-20T11:22:14Z</time>
      </trkpt>
      <trkpt lat="46.47105" lon="3.9473">
        <ele>230.4</ele>
        <time>2019-08-20T11:22:15Z</time>
      </trkpt>
      <trkpt lat="46.47104" lon="3.94723">
        <ele>230.4</ele>
        <time>2019-08-20T11:22:16Z</time>
      </trkpt>
      <trkpt lat="46.47103" lon="3.94716">
        <ele>230.4</ele>
        <time>2019-08-20T11:22:17Z</time>
      </trkpt>
      <trkpt lat="46.47103" lon="3.94709">
        <ele>230.3</ele>
        <time>2019-08-20T11:22:18Z</time>
      </trkpt>
      <trkpt lat="46.47103" lon="3.94703">
        <ele>230.3</ele>
        <time>2019-08-20T11:22:19Z</time>
      </trkpt>
      <trkpt lat="46.47104" lon="3.94696">
        <ele>230.2</ele>
        <time>2019-08-20T11:22:20Z</time>
      </trkpt>
      <trkpt lat="46.47104" lon="3.94688">
        <ele>230.2</ele>
        <time>2019-08-20T11:22:21Z</time>
      </trkpt>
      <trkpt lat="46.47103" lon="3.94682">
        <ele>230.1</ele>
        <time>2019-08-20T11:22:22Z</time>
      </trkpt>
      <trkpt lat="46.47103" lon="3.94675">
        <ele>230.1</ele>
        <time>2019-08-20T11:22:23Z</time>
      </trkpt>
      <trkpt lat="46.47101" lon="3.94668">
        <ele>230.1</ele>
        <time>2019-08-20T11:22:24Z</time>
      </trkpt>
      <trkpt lat="46.47101" lon="3.9466">
        <ele>230</ele>
        <time>2019-08-20T11:22:25Z</time>
      </trkpt>
      <trkpt lat="46.47099" lon="3.94651">
        <ele>230</ele>
        <time>2019-08-20T11:22:26Z</time>
      </trkpt>
      <trkpt lat="46.47098" lon="3.94645">
        <ele>229.9</ele>
        <time>2019-08-20T11:22:27Z</time>
      </trkpt>
      <trkpt lat="46.47098" lon="3.94638">
        <ele>229.9</ele>
        <time>2019-08-20T11:22:28Z</time>
      </trkpt>
      <trkpt lat="46.47097" lon="3.94631">
        <ele>229.9</ele>
        <time>2019-08-20T11:22:29Z</time>
      </trkpt>
      <trkpt lat="46.47096" lon="3.94624">
        <ele>229.8</ele>
        <time>2019-08-20T11:22:30Z</time>
      </trkpt>
      <trkpt lat="46.47095" lon="3.94616">
        <ele>229.8</ele>
        <time>2019-08-20T11:22:31Z</time>
      </trkpt>
      <trkpt lat="46.47095" lon="3.9461">
        <ele>229.7</ele>
        <time>2019-08-20T11:22:32Z</time>
      </trkpt>
      <trkpt lat="46.47093" lon="3.94603">
        <ele>229.7</ele>
        <time>2019-08-20T11:22:33Z</time>
      </trkpt>
      <trkpt lat="46.47092" lon="3.94596">
        <ele>229.6</ele>
        <time>2019-08-20T11:22:34Z</time>
      </trkpt>
      <trkpt lat="46.47092" lon="3.94588">
        <ele>229.6</ele>
        <time>2019-08-20T11:22:35Z</time>
      </trkpt>
      <trkpt lat="46.47092" lon="3.9458">
        <ele>229.6</ele>
        <time>2019-08-20T11:22:36Z</time>
      </trkpt>
      <trkpt lat="46.47092" lon="3.94571">
        <ele>229.5</ele>
        <time>2019-08-20T11:22:37Z</time>
      </trkpt>
      <trkpt lat="46.47092" lon="3.94564">
        <ele>229.5</ele>
        <time>2019-08-20T11:22:38Z</time>
      </trkpt>
      <trkpt lat="46.47092" lon="3.94557">
        <ele>229.5</ele>
        <time>2019-08-20T11:22:39Z</time>
      </trkpt>
      <trkpt lat="46.47093" lon="3.94549">
        <ele>229.6</ele>
        <time>2019-08-20T11:22:40Z</time>
      </trkpt>
      <trkpt lat="46.47093" lon="3.94542">
        <ele>229.6</ele>
        <time>2019-08-20T11:22:41Z</time>
      </trkpt>
      <trkpt lat="46.47093" lon="3.94537">
        <ele>229.7</ele>
        <time>2019-08-20T11:22:42Z</time>
      </trkpt>
      <trkpt lat="46.47092" lon="3.94531">
        <ele>229.7</ele>
        <time>2019-08-20T11:22:43Z</time>
      </trkpt>
      <trkpt lat="46.47092" lon="3.94524">
        <ele>229.7</ele>
        <time>2019-08-20T11:22:44Z</time>
      </trkpt>
      <trkpt lat="46.47092" lon="3.94517">
        <ele>229.8</ele>
        <time>2019-08-20T11:22:45Z</time>
      </trkpt>
      <trkpt lat="46.47091" lon="3.94511">
        <ele>229.8</ele>
        <time>2019-08-20T11:22:46Z</time>
      </trkpt>
      <trkpt lat="46.47091" lon="3.94504">
        <ele>229.8</ele>
        <time>2019-08-20T11:22:47Z</time>
      </trkpt>
      <trkpt lat="46.47092" lon="3.94496">
        <ele>229.8</ele>
        <time>2019-08-20T11:22:48Z</time>
      </trkpt>
      <trkpt lat="46.47092" lon="3.94489">
        <ele>229.8</ele>
        <time>2019-08-20T11:22:49Z</time>
      </trkpt>
      <trkpt lat="46.47092" lon="3.94482">
        <ele>229.8</ele>
        <time>2019-08-20T11:22:50Z</time>
      </trkpt>
      <trkpt lat="46.47092" lon="3.94474">
        <ele>229.8</ele>
        <time>2019-08-20T11:22:51Z</time>
      </trkpt>
      <trkpt lat="46.47092" lon="3.94467">
        <ele>229.7</ele>
        <time>2019-08-20T11:22:52Z</time>
      </trkpt>
      <trkpt lat="46.47092" lon="3.94459">
        <ele>229.6</ele>
        <time>2019-08-20T11:22:53Z</time>
      </trkpt>
      <trkpt lat="46.47092" lon="3.94452">
        <ele>229.6</ele>
        <time>2019-08-20T11:22:54Z</time>
      </trkpt>
      <trkpt lat="46.47091" lon="3.94444">
        <ele>229.5</ele>
        <time>2019-08-20T11:22:55Z</time>
      </trkpt>
      <trkpt lat="46.47091" lon="3.94436">
        <ele>229.3</ele>
        <time>2019-08-20T11:22:56Z</time>
      </trkpt>
      <trkpt lat="46.47091" lon="3.94429">
        <ele>229.3</ele>
        <time>2019-08-20T11:22:57Z</time>
      </trkpt>
      <trkpt lat="46.47091" lon="3.94422">
        <ele>229.2</ele>
        <time>2019-08-20T11:22:58Z</time>
      </trkpt>
      <trkpt lat="46.4709" lon="3.94414">
        <ele>229.1</ele>
        <time>2019-08-20T11:22:59Z</time>
      </trkpt>
      <trkpt lat="46.4709" lon="3.94406">
        <ele>229.1</ele>
        <time>2019-08-20T11:23:00Z</time>
      </trkpt>
      <trkpt lat="46.4709" lon="3.94399">
        <ele>229.1</ele>
        <time>2019-08-20T11:23:01Z</time>
      </trkpt>
      <trkpt lat="46.47091" lon="3.94392">
        <ele>229.3</ele>
        <time>2019-08-20T11:23:02Z</time>
      </trkpt>
      <trkpt lat="46.47091" lon="3.94385">
        <ele>229.4</ele>
        <time>2019-08-20T11:23:03Z</time>
      </trkpt>
      <trkpt lat="46.47092" lon="3.94378">
        <ele>229.6</ele>
        <time>2019-08-20T11:23:04Z</time>
      </trkpt>
      <trkpt lat="46.47092" lon="3.94371">
        <ele>229.8</ele>
        <time>2019-08-20T11:23:05Z</time>
      </trkpt>
      <trkpt lat="46.47093" lon="3.94365">
        <ele>229.9</ele>
        <time>2019-08-20T11:23:06Z</time>
      </trkpt>
      <trkpt lat="46.47093" lon="3.94358">
        <ele>230.1</ele>
        <time>2019-08-20T11:23:07Z</time>
      </trkpt>
      <trkpt lat="46.47093" lon="3.94351">
        <ele>230.1</ele>
        <time>2019-08-20T11:23:08Z</time>
      </trkpt>
      <trkpt lat="46.47094" lon="3.94344">
        <ele>230.2</ele>
        <time>2019-08-20T11:23:09Z</time>
      </trkpt>
      <trkpt lat="46.47095" lon="3.94338">
        <ele>230.2</ele>
        <time>2019-08-20T11:23:10Z</time>
      </trkpt>
      <trkpt lat="46.47096" lon="3.94332">
        <ele>230.2</ele>
        <time>2019-08-20T11:23:11Z</time>
      </trkpt>
      <trkpt lat="46.47097" lon="3.94325">
        <ele>230.3</ele>
        <time>2019-08-20T11:23:12Z</time>
      </trkpt>
      <trkpt lat="46.47098" lon="3.94319">
        <ele>230.2</ele>
        <time>2019-08-20T11:23:13Z</time>
      </trkpt>
      <trkpt lat="46.47099" lon="3.94313">
        <ele>230.2</ele>
        <time>2019-08-20T11:23:14Z</time>
      </trkpt>
      <trkpt lat="46.47101" lon="3.94307">
        <ele>230.2</ele>
        <time>2019-08-20T11:23:15Z</time>
      </trkpt>
      <trkpt lat="46.47102" lon="3.94301">
        <ele>230.1</ele>
        <time>2019-08-20T11:23:16Z</time>
      </trkpt>
      <trkpt lat="46.47103" lon="3.94294">
        <ele>230.1</ele>
        <time>2019-08-20T11:23:17Z</time>
      </trkpt>
      <trkpt lat="46.47105" lon="3.94288">
        <ele>230</ele>
        <time>2019-08-20T11:23:18Z</time>
      </trkpt>
      <trkpt lat="46.47106" lon="3.94282">
        <ele>229.9</ele>
        <time>2019-08-20T11:23:19Z</time>
      </trkpt>
      <trkpt lat="46.47108" lon="3.94275">
        <ele>229.8</ele>
        <time>2019-08-20T11:23:20Z</time>
      </trkpt>
      <trkpt lat="46.47108" lon="3.94268">
        <ele>229.7</ele>
        <time>2019-08-20T11:23:21Z</time>
      </trkpt>
      <trkpt lat="46.4711" lon="3.9426">
        <ele>229.6</ele>
        <time>2019-08-20T11:23:22Z</time>
      </trkpt>
      <trkpt lat="46.4711" lon="3.94253">
        <ele>229.4</ele>
        <time>2019-08-20T11:23:23Z</time>
      </trkpt>
      <trkpt lat="46.47112" lon="3.94246">
        <ele>229.3</ele>
        <time>2019-08-20T11:23:24Z</time>
      </trkpt>
      <trkpt lat="46.47114" lon="3.9424">
        <ele>229.2</ele>
        <time>2019-08-20T11:23:25Z</time>
      </trkpt>
      <trkpt lat="46.47115" lon="3.94235">
        <ele>229</ele>
        <time>2019-08-20T11:23:26Z</time>
      </trkpt>
      <trkpt lat="46.47116" lon="3.94228">
        <ele>228.8</ele>
        <time>2019-08-20T11:23:27Z</time>
      </trkpt>
      <trkpt lat="46.47118" lon="3.94222">
        <ele>228.7</ele>
        <time>2019-08-20T11:23:28Z</time>
      </trkpt>
      <trkpt lat="46.47122" lon="3.94214">
        <ele>228.6</ele>
        <time>2019-08-20T11:23:29Z</time>
      </trkpt>
      <trkpt lat="46.47123" lon="3.94208">
        <ele>228.6</ele>
        <time>2019-08-20T11:23:30Z</time>
      </trkpt>
      <trkpt lat="46.47126" lon="3.94202">
        <ele>228.6</ele>
        <time>2019-08-20T11:23:31Z</time>
      </trkpt>
      <trkpt lat="46.47128" lon="3.94196">
        <ele>228.6</ele>
        <time>2019-08-20T11:23:32Z</time>
      </trkpt>
      <trkpt lat="46.4713" lon="3.9419">
        <ele>228.5</ele>
        <time>2019-08-20T11:23:33Z</time>
      </trkpt>
      <trkpt lat="46.47131" lon="3.94185">
        <ele>228.5</ele>
        <time>2019-08-20T11:23:34Z</time>
      </trkpt>
      <trkpt lat="46.47133" lon="3.94179">
        <ele>228.5</ele>
        <time>2019-08-20T11:23:35Z</time>
      </trkpt>
      <trkpt lat="46.47136" lon="3.94174">
        <ele>228.5</ele>
        <time>2019-08-20T11:23:36Z</time>
      </trkpt>
      <trkpt lat="46.47139" lon="3.94168">
        <ele>228.5</ele>
        <time>2019-08-20T11:23:37Z</time>
      </trkpt>
      <trkpt lat="46.47142" lon="3.94163">
        <ele>228.5</ele>
        <time>2019-08-20T11:23:38Z</time>
      </trkpt>
      <trkpt lat="46.47146" lon="3.94157">
        <ele>228.5</ele>
        <time>2019-08-20T11:23:39Z</time>
      </trkpt>
      <trkpt lat="46.47149" lon="3.94151">
        <ele>228.4</ele>
        <time>2019-08-20T11:23:40Z</time>
      </trkpt>
      <trkpt lat="46.47152" lon="3.94145">
        <ele>228.4</ele>
        <time>2019-08-20T11:23:41Z</time>
      </trkpt>
      <trkpt lat="46.47154" lon="3.94139">
        <ele>228.4</ele>
        <time>2019-08-20T11:23:42Z</time>
      </trkpt>
      <trkpt lat="46.47158" lon="3.94134">
        <ele>228.4</ele>
        <time>2019-08-20T11:23:43Z</time>
      </trkpt>
      <trkpt lat="46.47161" lon="3.94127">
        <ele>228.4</ele>
        <time>2019-08-20T11:23:44Z</time>
      </trkpt>
      <trkpt lat="46.47166" lon="3.94119">
        <ele>228.4</ele>
        <time>2019-08-20T11:23:45Z</time>
      </trkpt>
      <trkpt lat="46.47169" lon="3.94112">
        <ele>228.4</ele>
        <time>2019-08-20T11:23:46Z</time>
      </trkpt>
      <trkpt lat="46.47172" lon="3.94106">
        <ele>228.4</ele>
        <time>2019-08-20T11:23:47Z</time>
      </trkpt>
      <trkpt lat="46.47175" lon="3.941">
        <ele>228.5</ele>
        <time>2019-08-20T11:23:48Z</time>
      </trkpt>
      <trkpt lat="46.47177" lon="3.94094">
        <ele>228.5</ele>
        <time>2019-08-20T11:23:49Z</time>
      </trkpt>
      <trkpt lat="46.4718" lon="3.9409">
        <ele>228.5</ele>
        <time>2019-08-20T11:23:50Z</time>
      </trkpt>
      <trkpt lat="46.47182" lon="3.94084">
        <ele>228.5</ele>
        <time>2019-08-20T11:23:51Z</time>
      </trkpt>
      <trkpt lat="46.47184" lon="3.94078">
        <ele>228.5</ele>
        <time>2019-08-20T11:23:52Z</time>
      </trkpt>
      <trkpt lat="46.47187" lon="3.94072">
        <ele>228.5</ele>
        <time>2019-08-20T11:23:53Z</time>
      </trkpt>
      <trkpt lat="46.4719" lon="3.94067">
        <ele>228.5</ele>
        <time>2019-08-20T11:23:54Z</time>
      </trkpt>
      <trkpt lat="46.47193" lon="3.9406">
        <ele>228.5</ele>
        <time>2019-08-20T11:23:55Z</time>
      </trkpt>
      <trkpt lat="46.47195" lon="3.94053">
        <ele>228.5</ele>
        <time>2019-08-20T11:23:56Z</time>
      </trkpt>
      <trkpt lat="46.47199" lon="3.94046">
        <ele>228.5</ele>
        <time>2019-08-20T11:23:57Z</time>
      </trkpt>
      <trkpt lat="46.47201" lon="3.94041">
        <ele>228.5</ele>
        <time>2019-08-20T11:23:58Z</time>
      </trkpt>
      <trkpt lat="46.47204" lon="3.94034">
        <ele>228.4</ele>
        <time>2019-08-20T11:23:59Z</time>
      </trkpt>
      <trkpt lat="46.47208" lon="3.94028">
        <ele>228.4</ele>
        <time>2019-08-20T11:24:00Z</time>
      </trkpt>
      <trkpt lat="46.47211" lon="3.94021">
        <ele>228.4</ele>
        <time>2019-08-20T11:24:01Z</time>
      </trkpt>
      <trkpt lat="46.47214" lon="3.94017">
        <ele>228.4</ele>
        <time>2019-08-20T11:24:02Z</time>
      </trkpt>
      <trkpt lat="46.47217" lon="3.9401">
        <ele>228.5</ele>
        <time>2019-08-20T11:24:03Z</time>
      </trkpt>
      <trkpt lat="46.47221" lon="3.94003">
        <ele>228.5</ele>
        <time>2019-08-20T11:24:04Z</time>
      </trkpt>
      <trkpt lat="46.47225" lon="3.93997">
        <ele>228.5</ele>
        <time>2019-08-20T11:24:05Z</time>
      </trkpt>
      <trkpt lat="46.47228" lon="3.93991">
        <ele>228.6</ele>
        <time>2019-08-20T11:24:06Z</time>
      </trkpt>
      <trkpt lat="46.47231" lon="3.93985">
        <ele>228.6</ele>
        <time>2019-08-20T11:24:07Z</time>
      </trkpt>
      <trkpt lat="46.47234" lon="3.93978">
        <ele>228.6</ele>
        <time>2019-08-20T11:24:08Z</time>
      </trkpt>
      <trkpt lat="46.47237" lon="3.93972">
        <ele>228.6</ele>
        <time>2019-08-20T11:24:09Z</time>
      </trkpt>
      <trkpt lat="46.4724" lon="3.93967">
        <ele>228.7</ele>
        <time>2019-08-20T11:24:10Z</time>
      </trkpt>
      <trkpt lat="46.47244" lon="3.9396">
        <ele>228.7</ele>
        <time>2019-08-20T11:24:11Z</time>
      </trkpt>
      <trkpt lat="46.47246" lon="3.93954">
        <ele>228.7</ele>
        <time>2019-08-20T11:24:12Z</time>
      </trkpt>
      <trkpt lat="46.4725" lon="3.93949">
        <ele>228.7</ele>
        <time>2019-08-20T11:24:13Z</time>
      </trkpt>
      <trkpt lat="46.47253" lon="3.93941">
        <ele>228.8</ele>
        <time>2019-08-20T11:24:14Z</time>
      </trkpt>
      <trkpt lat="46.47256" lon="3.93935">
        <ele>228.8</ele>
        <time>2019-08-20T11:24:15Z</time>
      </trkpt>
      <trkpt lat="46.47259" lon="3.93928">
        <ele>228.8</ele>
        <time>2019-08-20T11:24:16Z</time>
      </trkpt>
      <trkpt lat="46.47262" lon="3.93922">
        <ele>228.8</ele>
        <time>2019-08-20T11:24:17Z</time>
      </trkpt>
      <trkpt lat="46.47266" lon="3.93916">
        <ele>228.8</ele>
        <time>2019-08-20T11:24:18Z</time>
      </trkpt>
      <trkpt lat="46.47269" lon="3.9391">
        <ele>228.8</ele>
        <time>2019-08-20T11:24:19Z</time>
      </trkpt>
      <trkpt lat="46.47272" lon="3.93903">
        <ele>228.8</ele>
        <time>2019-08-20T11:24:20Z</time>
      </trkpt>
      <trkpt lat="46.47275" lon="3.93898">
        <ele>228.8</ele>
        <time>2019-08-20T11:24:21Z</time>
      </trkpt>
      <trkpt lat="46.47277" lon="3.93891">
        <ele>228.7</ele>
        <time>2019-08-20T11:24:22Z</time>
      </trkpt>
      <trkpt lat="46.47279" lon="3.93884">
        <ele>228.7</ele>
        <time>2019-08-20T11:24:23Z</time>
      </trkpt>
      <trkpt lat="46.47282" lon="3.93878">
        <ele>228.6</ele>
        <time>2019-08-20T11:24:24Z</time>
      </trkpt>
      <trkpt lat="46.47284" lon="3.93871">
        <ele>228.5</ele>
        <time>2019-08-20T11:24:25Z</time>
      </trkpt>
      <trkpt lat="46.47286" lon="3.93865">
        <ele>228.4</ele>
        <time>2019-08-20T11:24:26Z</time>
      </trkpt>
      <trkpt lat="46.47289" lon="3.9386">
        <ele>228.4</ele>
        <time>2019-08-20T11:24:27Z</time>
      </trkpt>
      <trkpt lat="46.47292" lon="3.93855">
        <ele>228.3</ele>
        <time>2019-08-20T11:24:28Z</time>
      </trkpt>
      <trkpt lat="46.47295" lon="3.93848">
        <ele>228.2</ele>
        <time>2019-08-20T11:24:29Z</time>
      </trkpt>
      <trkpt lat="46.47298" lon="3.93843">
        <ele>228.1</ele>
        <time>2019-08-20T11:24:30Z</time>
      </trkpt>
      <trkpt lat="46.47301" lon="3.93837">
        <ele>228</ele>
        <time>2019-08-20T11:24:31Z</time>
      </trkpt>
      <trkpt lat="46.47304" lon="3.9383">
        <ele>228</ele>
        <time>2019-08-20T11:24:32Z</time>
      </trkpt>
      <trkpt lat="46.47306" lon="3.93823">
        <ele>227.9</ele>
        <time>2019-08-20T11:24:33Z</time>
      </trkpt>
      <trkpt lat="46.47309" lon="3.93817">
        <ele>227.9</ele>
        <time>2019-08-20T11:24:34Z</time>
      </trkpt>
      <trkpt lat="46.47312" lon="3.93811">
        <ele>227.9</ele>
        <time>2019-08-20T11:24:35Z</time>
      </trkpt>
      <trkpt lat="46.47314" lon="3.93805">
        <ele>228</ele>
        <time>2019-08-20T11:24:36Z</time>
      </trkpt>
      <trkpt lat="46.47318" lon="3.93799">
        <ele>228</ele>
        <time>2019-08-20T11:24:37Z</time>
      </trkpt>
      <trkpt lat="46.4732" lon="3.93792">
        <ele>228</ele>
        <time>2019-08-20T11:24:38Z</time>
      </trkpt>
      <trkpt lat="46.47323" lon="3.93786">
        <ele>228.1</ele>
        <time>2019-08-20T11:24:39Z</time>
      </trkpt>
      <trkpt lat="46.47325" lon="3.93781">
        <ele>228.1</ele>
        <time>2019-08-20T11:24:40Z</time>
      </trkpt>
      <trkpt lat="46.47329" lon="3.93775">
        <ele>228.1</ele>
        <time>2019-08-20T11:24:41Z</time>
      </trkpt>
      <trkpt lat="46.47331" lon="3.93768">
        <ele>228.2</ele>
        <time>2019-08-20T11:24:42Z</time>
      </trkpt>
      <trkpt lat="46.47333" lon="3.93763">
        <ele>228.2</ele>
        <time>2019-08-20T11:24:43Z</time>
      </trkpt>
      <trkpt lat="46.47336" lon="3.93757">
        <ele>228.3</ele>
        <time>2019-08-20T11:24:44Z</time>
      </trkpt>
      <trkpt lat="46.47339" lon="3.93751">
        <ele>228.3</ele>
        <time>2019-08-20T11:24:45Z</time>
      </trkpt>
      <trkpt lat="46.47341" lon="3.93746">
        <ele>228.3</ele>
        <time>2019-08-20T11:24:46Z</time>
      </trkpt>
      <trkpt lat="46.47344" lon="3.9374">
        <ele>228.3</ele>
        <time>2019-08-20T11:24:47Z</time>
      </trkpt>
      <trkpt lat="46.47347" lon="3.93734">
        <ele>228.4</ele>
        <time>2019-08-20T11:24:48Z</time>
      </trkpt>
      <trkpt lat="46.4735" lon="3.93727">
        <ele>228.4</ele>
        <time>2019-08-20T11:24:49Z</time>
      </trkpt>
      <trkpt lat="46.47351" lon="3.93723">
        <ele>228.4</ele>
        <time>2019-08-20T11:24:50Z</time>
      </trkpt>
      <trkpt lat="46.47354" lon="3.93716">
        <ele>228.4</ele>
        <time>2019-08-20T11:24:51Z</time>
      </trkpt>
      <trkpt lat="46.47356" lon="3.93712">
        <ele>228.4</ele>
        <time>2019-08-20T11:24:52Z</time>
      </trkpt>
      <trkpt lat="46.47359" lon="3.93706">
        <ele>228.4</ele>
        <time>2019-08-20T11:24:53Z</time>
      </trkpt>
      <trkpt lat="46.47362" lon="3.93701">
        <ele>228.3</ele>
        <time>2019-08-20T11:24:54Z</time>
      </trkpt>
      <trkpt lat="46.47364" lon="3.93694">
        <ele>228.3</ele>
        <time>2019-08-20T11:24:55Z</time>
      </trkpt>
      <trkpt lat="46.47367" lon="3.93687">
        <ele>228.3</ele>
        <time>2019-08-20T11:24:56Z</time>
      </trkpt>
      <trkpt lat="46.47369" lon="3.93681">
        <ele>228.2</ele>
        <time>2019-08-20T11:24:57Z</time>
      </trkpt>
      <trkpt lat="46.47372" lon="3.93674">
        <ele>228.2</ele>
        <time>2019-08-20T11:24:58Z</time>
      </trkpt>
      <trkpt lat="46.47375" lon="3.93667">
        <ele>228.2</ele>
        <time>2019-08-20T11:24:59Z</time>
      </trkpt>
      <trkpt lat="46.47378" lon="3.9366">
        <ele>228.2</ele>
        <time>2019-08-20T11:25:00Z</time>
      </trkpt>
      <trkpt lat="46.47382" lon="3.93654">
        <ele>228.2</ele>
        <time>2019-08-20T11:25:01Z</time>
      </trkpt>
      <trkpt lat="46.47385" lon="3.93647">
        <ele>228.2</ele>
        <time>2019-08-20T11:25:02Z</time>
      </trkpt>
      <trkpt lat="46.47387" lon="3.93641">
        <ele>228.2</ele>
        <time>2019-08-20T11:25:03Z</time>
      </trkpt>
      <trkpt lat="46.4739" lon="3.93636">
        <ele>228.2</ele>
        <time>2019-08-20T11:25:04Z</time>
      </trkpt>
      <trkpt lat="46.47392" lon="3.9363">
        <ele>228.2</ele>
        <time>2019-08-20T11:25:05Z</time>
      </trkpt>
      <trkpt lat="46.47395" lon="3.93623">
        <ele>228.1</ele>
        <time>2019-08-20T11:25:06Z</time>
      </trkpt>
      <trkpt lat="46.47398" lon="3.93616">
        <ele>228.1</ele>
        <time>2019-08-20T11:25:07Z</time>
      </trkpt>
      <trkpt lat="46.47402" lon="3.9361">
        <ele>228.1</ele>
        <time>2019-08-20T11:25:08Z</time>
      </trkpt>
      <trkpt lat="46.47405" lon="3.93604">
        <ele>228</ele>
        <time>2019-08-20T11:25:09Z</time>
      </trkpt>
      <trkpt lat="46.47409" lon="3.93599">
        <ele>228</ele>
        <time>2019-08-20T11:25:10Z</time>
      </trkpt>
      <trkpt lat="46.47412" lon="3.93594">
        <ele>227.9</ele>
        <time>2019-08-20T11:25:11Z</time>
      </trkpt>
      <trkpt lat="46.47415" lon="3.93588">
        <ele>227.9</ele>
        <time>2019-08-20T11:25:12Z</time>
      </trkpt>
      <trkpt lat="46.47417" lon="3.93583">
        <ele>227.9</ele>
        <time>2019-08-20T11:25:13Z</time>
      </trkpt>
      <trkpt lat="46.4742" lon="3.93578">
        <ele>227.9</ele>
        <time>2019-08-20T11:25:14Z</time>
      </trkpt>
      <trkpt lat="46.47423" lon="3.93573">
        <ele>227.9</ele>
        <time>2019-08-20T11:25:15Z</time>
      </trkpt>
      <trkpt lat="46.47426" lon="3.93566">
        <ele>227.9</ele>
        <time>2019-08-20T11:25:16Z</time>
      </trkpt>
      <trkpt lat="46.47428" lon="3.9356">
        <ele>227.9</ele>
        <time>2019-08-20T11:25:17Z</time>
      </trkpt>
      <trkpt lat="46.4743" lon="3.93554">
        <ele>228</ele>
        <time>2019-08-20T11:25:18Z</time>
      </trkpt>
      <trkpt lat="46.47433" lon="3.93548">
        <ele>228</ele>
        <time>2019-08-20T11:25:19Z</time>
      </trkpt>
      <trkpt lat="46.47436" lon="3.93543">
        <ele>228.1</ele>
        <time>2019-08-20T11:25:20Z</time>
      </trkpt>
      <trkpt lat="46.47438" lon="3.93537">
        <ele>228.1</ele>
        <time>2019-08-20T11:25:21Z</time>
      </trkpt>
      <trkpt lat="46.47441" lon="3.93531">
        <ele>228.2</ele>
        <time>2019-08-20T11:25:22Z</time>
      </trkpt>
      <trkpt lat="46.47444" lon="3.93524">
        <ele>228.3</ele>
        <time>2019-08-20T11:25:23Z</time>
      </trkpt>
      <trkpt lat="46.47447" lon="3.93518">
        <ele>228.3</ele>
        <time>2019-08-20T11:25:24Z</time>
      </trkpt>
      <trkpt lat="46.4745" lon="3.93512">
        <ele>228.4</ele>
        <time>2019-08-20T11:25:25Z</time>
      </trkpt>
      <trkpt lat="46.47452" lon="3.93505">
        <ele>228.4</ele>
        <time>2019-08-20T11:25:26Z</time>
      </trkpt>
      <trkpt lat="46.47454" lon="3.93498">
        <ele>228.4</ele>
        <time>2019-08-20T11:25:27Z</time>
      </trkpt>
      <trkpt lat="46.47456" lon="3.93493">
        <ele>228.4</ele>
        <time>2019-08-20T11:25:28Z</time>
      </trkpt>
      <trkpt lat="46.47459" lon="3.93488">
        <ele>228.4</ele>
        <time>2019-08-20T11:25:29Z</time>
      </trkpt>
      <trkpt lat="46.47461" lon="3.93483">
        <ele>228.4</ele>
        <time>2019-08-20T11:25:30Z</time>
      </trkpt>
      <trkpt lat="46.47464" lon="3.93477">
        <ele>228.4</ele>
        <time>2019-08-20T11:25:31Z</time>
      </trkpt>
      <trkpt lat="46.47468" lon="3.9347">
        <ele>228.4</ele>
        <time>2019-08-20T11:25:32Z</time>
      </trkpt>
      <trkpt lat="46.47471" lon="3.93463">
        <ele>228.4</ele>
        <time>2019-08-20T11:25:33Z</time>
      </trkpt>
      <trkpt lat="46.47473" lon="3.93457">
        <ele>228.4</ele>
        <time>2019-08-20T11:25:34Z</time>
      </trkpt>
      <trkpt lat="46.47475" lon="3.9345">
        <ele>228.4</ele>
        <time>2019-08-20T11:25:35Z</time>
      </trkpt>
      <trkpt lat="46.47478" lon="3.93443">
        <ele>228.3</ele>
        <time>2019-08-20T11:25:36Z</time>
      </trkpt>
      <trkpt lat="46.4748" lon="3.93437">
        <ele>228.3</ele>
        <time>2019-08-20T11:25:37Z</time>
      </trkpt>
      <trkpt lat="46.47483" lon="3.9343">
        <ele>228.3</ele>
        <time>2019-08-20T11:25:38Z</time>
      </trkpt>
      <trkpt lat="46.47486" lon="3.93422">
        <ele>228.3</ele>
        <time>2019-08-20T11:25:39Z</time>
      </trkpt>
      <trkpt lat="46.47488" lon="3.93415">
        <ele>228.2</ele>
        <time>2019-08-20T11:25:40Z</time>
      </trkpt>
      <trkpt lat="46.47491" lon="3.93408">
        <ele>228.2</ele>
        <time>2019-08-20T11:25:41Z</time>
      </trkpt>
      <trkpt lat="46.47494" lon="3.93401">
        <ele>228.1</ele>
        <time>2019-08-20T11:25:42Z</time>
      </trkpt>
      <trkpt lat="46.47496" lon="3.93394">
        <ele>228</ele>
        <time>2019-08-20T11:25:43Z</time>
      </trkpt>
      <trkpt lat="46.47498" lon="3.93388">
        <ele>228</ele>
        <time>2019-08-20T11:25:44Z</time>
      </trkpt>
      <trkpt lat="46.475" lon="3.93382">
        <ele>227.9</ele>
        <time>2019-08-20T11:25:45Z</time>
      </trkpt>
      <trkpt lat="46.47503" lon="3.93375">
        <ele>227.9</ele>
        <time>2019-08-20T11:25:46Z</time>
      </trkpt>
      <trkpt lat="46.47504" lon="3.93367">
        <ele>227.8</ele>
        <time>2019-08-20T11:25:47Z</time>
      </trkpt>
      <trkpt lat="46.47506" lon="3.9336">
        <ele>227.8</ele>
        <time>2019-08-20T11:25:48Z</time>
      </trkpt>
      <trkpt lat="46.47508" lon="3.93353">
        <ele>227.8</ele>
        <time>2019-08-20T11:25:49Z</time>
      </trkpt>
      <trkpt lat="46.47509" lon="3.93346">
        <ele>227.7</ele>
        <time>2019-08-20T11:25:50Z</time>
      </trkpt>
      <trkpt lat="46.47511" lon="3.9334">
        <ele>227.7</ele>
        <time>2019-08-20T11:25:51Z</time>
      </trkpt>
      <trkpt lat="46.47513" lon="3.93333">
        <ele>227.7</ele>
        <time>2019-08-20T11:25:52Z</time>
      </trkpt>
      <trkpt lat="46.47516" lon="3.93326">
        <ele>227.7</ele>
        <time>2019-08-20T11:25:53Z</time>
      </trkpt>
      <trkpt lat="46.47518" lon="3.9332">
        <ele>227.7</ele>
        <time>2019-08-20T11:25:54Z</time>
      </trkpt>
      <trkpt lat="46.4752" lon="3.93314">
        <ele>227.7</ele>
        <time>2019-08-20T11:25:55Z</time>
      </trkpt>
      <trkpt lat="46.47522" lon="3.93308">
        <ele>227.8</ele>
        <time>2019-08-20T11:25:56Z</time>
      </trkpt>
      <trkpt lat="46.47524" lon="3.93302">
        <ele>227.8</ele>
        <time>2019-08-20T11:25:57Z</time>
      </trkpt>
      <trkpt lat="46.47526" lon="3.93294">
        <ele>227.9</ele>
        <time>2019-08-20T11:25:58Z</time>
      </trkpt>
      <trkpt lat="46.47528" lon="3.93286">
        <ele>228</ele>
        <time>2019-08-20T11:25:59Z</time>
      </trkpt>
      <trkpt lat="46.4753" lon="3.93279">
        <ele>228</ele>
        <time>2019-08-20T11:26:00Z</time>
      </trkpt>
      <trkpt lat="46.47532" lon="3.93272">
        <ele>228.1</ele>
        <time>2019-08-20T11:26:01Z</time>
      </trkpt>
      <trkpt lat="46.47534" lon="3.93265">
        <ele>228.1</ele>
        <time>2019-08-20T11:26:02Z</time>
      </trkpt>
      <trkpt lat="46.47536" lon="3.93259">
        <ele>228.1</ele>
        <time>2019-08-20T11:26:03Z</time>
      </trkpt>
      <trkpt lat="46.47537" lon="3.93253">
        <ele>228.1</ele>
        <time>2019-08-20T11:26:04Z</time>
      </trkpt>
      <trkpt lat="46.47538" lon="3.93247">
        <ele>228.1</ele>
        <time>2019-08-20T11:26:05Z</time>
      </trkpt>
      <trkpt lat="46.47539" lon="3.93242">
        <ele>228.1</ele>
        <time>2019-08-20T11:26:06Z</time>
      </trkpt>
      <trkpt lat="46.4754" lon="3.93236">
        <ele>228.1</ele>
        <time>2019-08-20T11:26:07Z</time>
      </trkpt>
      <trkpt lat="46.47541" lon="3.93228">
        <ele>228</ele>
        <time>2019-08-20T11:26:08Z</time>
      </trkpt>
      <trkpt lat="46.47542" lon="3.93222">
        <ele>228</ele>
        <time>2019-08-20T11:26:09Z</time>
      </trkpt>
      <trkpt lat="46.47544" lon="3.93214">
        <ele>228</ele>
        <time>2019-08-20T11:26:10Z</time>
      </trkpt>
      <trkpt lat="46.47544" lon="3.93206">
        <ele>227.9</ele>
        <time>2019-08-20T11:26:11Z</time>
      </trkpt>
      <trkpt lat="46.47545" lon="3.93199">
        <ele>227.9</ele>
        <time>2019-08-20T11:26:12Z</time>
      </trkpt>
      <trkpt lat="46.47546" lon="3.93192">
        <ele>227.9</ele>
        <time>2019-08-20T11:26:13Z</time>
      </trkpt>
      <trkpt lat="46.47548" lon="3.93185">
        <ele>227.8</ele>
        <time>2019-08-20T11:26:14Z</time>
      </trkpt>
      <trkpt lat="46.47549" lon="3.93178">
        <ele>227.8</ele>
        <time>2019-08-20T11:26:15Z</time>
      </trkpt>
      <trkpt lat="46.4755" lon="3.93171">
        <ele>227.8</ele>
        <time>2019-08-20T11:26:16Z</time>
      </trkpt>
      <trkpt lat="46.47551" lon="3.93164">
        <ele>227.9</ele>
        <time>2019-08-20T11:26:17Z</time>
      </trkpt>
      <trkpt lat="46.47552" lon="3.93156">
        <ele>228</ele>
        <time>2019-08-20T11:26:18Z</time>
      </trkpt>
      <trkpt lat="46.47553" lon="3.93148">
        <ele>228</ele>
        <time>2019-08-20T11:26:19Z</time>
      </trkpt>
      <trkpt lat="46.47554" lon="3.93141">
        <ele>228.1</ele>
        <time>2019-08-20T11:26:20Z</time>
      </trkpt>
      <trkpt lat="46.47555" lon="3.93133">
        <ele>228.1</ele>
        <time>2019-08-20T11:26:21Z</time>
      </trkpt>
      <trkpt lat="46.47556" lon="3.93125">
        <ele>228.2</ele>
        <time>2019-08-20T11:26:22Z</time>
      </trkpt>
      <trkpt lat="46.47557" lon="3.93118">
        <ele>228.2</ele>
        <time>2019-08-20T11:26:23Z</time>
      </trkpt>
      <trkpt lat="46.47557" lon="3.93111">
        <ele>228.2</ele>
        <time>2019-08-20T11:26:24Z</time>
      </trkpt>
      <trkpt lat="46.47558" lon="3.93104">
        <ele>228.2</ele>
        <time>2019-08-20T11:26:25Z</time>
      </trkpt>
      <trkpt lat="46.47558" lon="3.93096">
        <ele>228.2</ele>
        <time>2019-08-20T11:26:26Z</time>
      </trkpt>
      <trkpt lat="46.47558" lon="3.93089">
        <ele>228.2</ele>
        <time>2019-08-20T11:26:27Z</time>
      </trkpt>
      <trkpt lat="46.47558" lon="3.93082">
        <ele>228.1</ele>
        <time>2019-08-20T11:26:28Z</time>
      </trkpt>
      <trkpt lat="46.47558" lon="3.93076">
        <ele>228.1</ele>
        <time>2019-08-20T11:26:29Z</time>
      </trkpt>
      <trkpt lat="46.47558" lon="3.93069">
        <ele>228</ele>
        <time>2019-08-20T11:26:30Z</time>
      </trkpt>
      <trkpt lat="46.47559" lon="3.93063">
        <ele>228</ele>
        <time>2019-08-20T11:26:31Z</time>
      </trkpt>
      <trkpt lat="46.4756" lon="3.93057">
        <ele>227.9</ele>
        <time>2019-08-20T11:26:32Z</time>
      </trkpt>
      <trkpt lat="46.4756" lon="3.93052">
        <ele>227.9</ele>
        <time>2019-08-20T11:26:33Z</time>
      </trkpt>
      <trkpt lat="46.47561" lon="3.93045">
        <ele>227.9</ele>
        <time>2019-08-20T11:26:34Z</time>
      </trkpt>
      <trkpt lat="46.47563" lon="3.93039">
        <ele>227.9</ele>
        <time>2019-08-20T11:26:35Z</time>
      </trkpt>
      <trkpt lat="46.47565" lon="3.93034">
        <ele>227.9</ele>
        <time>2019-08-20T11:26:36Z</time>
      </trkpt>
      <trkpt lat="46.47565" lon="3.93028">
        <ele>227.9</ele>
        <time>2019-08-20T11:26:37Z</time>
      </trkpt>
      <trkpt lat="46.47565" lon="3.93022">
        <ele>227.9</ele>
        <time>2019-08-20T11:26:38Z</time>
      </trkpt>
      <trkpt lat="46.47564" lon="3.93016">
        <ele>228</ele>
        <time>2019-08-20T11:26:39Z</time>
      </trkpt>
      <trkpt lat="46.47563" lon="3.93009">
        <ele>228</ele>
        <time>2019-08-20T11:26:40Z</time>
      </trkpt>
      <trkpt lat="46.47563" lon="3.93001">
        <ele>228.1</ele>
        <time>2019-08-20T11:26:41Z</time>
      </trkpt>
      <trkpt lat="46.47563" lon="3.92994">
        <ele>228.2</ele>
        <time>2019-08-20T11:26:42Z</time>
      </trkpt>
      <trkpt lat="46.47564" lon="3.92988">
        <ele>228.2</ele>
        <time>2019-08-20T11:26:43Z</time>
      </trkpt>
      <trkpt lat="46.47564" lon="3.9298">
        <ele>228.2</ele>
        <time>2019-08-20T11:26:44Z</time>
      </trkpt>
      <trkpt lat="46.47564" lon="3.92975">
        <ele>228.2</ele>
        <time>2019-08-20T11:26:45Z</time>
      </trkpt>
      <trkpt lat="46.47564" lon="3.92968">
        <ele>228.2</ele>
        <time>2019-08-20T11:26:46Z</time>
      </trkpt>
      <trkpt lat="46.47565" lon="3.92963">
        <ele>228.2</ele>
        <time>2019-08-20T11:26:47Z</time>
      </trkpt>
      <trkpt lat="46.47566" lon="3.92957">
        <ele>228.2</ele>
        <time>2019-08-20T11:26:48Z</time>
      </trkpt>
      <trkpt lat="46.47567" lon="3.92952">
        <ele>228.2</ele>
        <time>2019-08-20T11:26:49Z</time>
      </trkpt>
      <trkpt lat="46.47568" lon="3.92947">
        <ele>228.1</ele>
        <time>2019-08-20T11:26:50Z</time>
      </trkpt>
      <trkpt lat="46.47568" lon="3.92942">
        <ele>228.1</ele>
        <time>2019-08-20T11:26:51Z</time>
      </trkpt>
      <trkpt lat="46.4757" lon="3.92936">
        <ele>228.1</ele>
        <time>2019-08-20T11:26:52Z</time>
      </trkpt>
      <trkpt lat="46.47572" lon="3.9293">
        <ele>228</ele>
        <time>2019-08-20T11:26:53Z</time>
      </trkpt>
      <trkpt lat="46.47573" lon="3.92923">
        <ele>228</ele>
        <time>2019-08-20T11:26:54Z</time>
      </trkpt>
      <trkpt lat="46.47575" lon="3.92917">
        <ele>227.9</ele>
        <time>2019-08-20T11:26:55Z</time>
      </trkpt>
      <trkpt lat="46.47576" lon="3.92911">
        <ele>227.9</ele>
        <time>2019-08-20T11:26:56Z</time>
      </trkpt>
      <trkpt lat="46.47577" lon="3.92905">
        <ele>227.9</ele>
        <time>2019-08-20T11:26:57Z</time>
      </trkpt>
      <trkpt lat="46.47578" lon="3.92899">
        <ele>227.9</ele>
        <time>2019-08-20T11:26:58Z</time>
      </trkpt>
      <trkpt lat="46.47578" lon="3.92891">
        <ele>227.8</ele>
        <time>2019-08-20T11:26:59Z</time>
      </trkpt>
      <trkpt lat="46.47578" lon="3.92885">
        <ele>227.8</ele>
        <time>2019-08-20T11:27:00Z</time>
      </trkpt>
      <trkpt lat="46.47578" lon="3.92878">
        <ele>227.8</ele>
        <time>2019-08-20T11:27:01Z</time>
      </trkpt>
      <trkpt lat="46.47579" lon="3.92872">
        <ele>227.8</ele>
        <time>2019-08-20T11:27:02Z</time>
      </trkpt>
      <trkpt lat="46.4758" lon="3.92865">
        <ele>227.8</ele>
        <time>2019-08-20T11:27:03Z</time>
      </trkpt>
      <trkpt lat="46.47581" lon="3.92858">
        <ele>227.8</ele>
        <time>2019-08-20T11:27:04Z</time>
      </trkpt>
      <trkpt lat="46.47582" lon="3.92852">
        <ele>227.8</ele>
        <time>2019-08-20T11:27:05Z</time>
      </trkpt>
      <trkpt lat="46.47583" lon="3.92846">
        <ele>227.8</ele>
        <time>2019-08-20T11:27:06Z</time>
      </trkpt>
      <trkpt lat="46.47582" lon="3.92841">
        <ele>227.9</ele>
        <time>2019-08-20T11:27:07Z</time>
      </trkpt>
      <trkpt lat="46.47582" lon="3.92835">
        <ele>227.9</ele>
        <time>2019-08-20T11:27:08Z</time>
      </trkpt>
      <trkpt lat="46.47584" lon="3.92827">
        <ele>227.9</ele>
        <time>2019-08-20T11:27:09Z</time>
      </trkpt>
      <trkpt lat="46.47584" lon="3.9282">
        <ele>227.9</ele>
        <time>2019-08-20T11:27:10Z</time>
      </trkpt>
      <trkpt lat="46.47585" lon="3.92814">
        <ele>228</ele>
        <time>2019-08-20T11:27:11Z</time>
      </trkpt>
      <trkpt lat="46.47585" lon="3.92806">
        <ele>228</ele>
        <time>2019-08-20T11:27:12Z</time>
      </trkpt>
      <trkpt lat="46.47586" lon="3.92799">
        <ele>228</ele>
        <time>2019-08-20T11:27:13Z</time>
      </trkpt>
      <trkpt lat="46.47586" lon="3.92792">
        <ele>227.9</ele>
        <time>2019-08-20T11:27:14Z</time>
      </trkpt>
      <trkpt lat="46.47587" lon="3.92786">
        <ele>227.9</ele>
        <time>2019-08-20T11:27:15Z</time>
      </trkpt>
      <trkpt lat="46.47587" lon="3.9278">
        <ele>227.9</ele>
        <time>2019-08-20T11:27:16Z</time>
      </trkpt>
      <trkpt lat="46.47588" lon="3.92775">
        <ele>227.9</ele>
        <time>2019-08-20T11:27:17Z</time>
      </trkpt>
      <trkpt lat="46.47588" lon="3.92769">
        <ele>227.9</ele>
        <time>2019-08-20T11:27:18Z</time>
      </trkpt>
      <trkpt lat="46.47589" lon="3.92763">
        <ele>227.9</ele>
        <time>2019-08-20T11:27:19Z</time>
      </trkpt>
      <trkpt lat="46.47589" lon="3.92758">
        <ele>227.8</ele>
        <time>2019-08-20T11:27:20Z</time>
      </trkpt>
      <trkpt lat="46.47591" lon="3.9275">
        <ele>227.8</ele>
        <time>2019-08-20T11:27:21Z</time>
      </trkpt>
      <trkpt lat="46.47592" lon="3.92744">
        <ele>227.8</ele>
        <time>2019-08-20T11:27:22Z</time>
      </trkpt>
      <trkpt lat="46.47592" lon="3.92736">
        <ele>227.8</ele>
        <time>2019-08-20T11:27:23Z</time>
      </trkpt>
      <trkpt lat="46.47593" lon="3.92728">
        <ele>227.8</ele>
        <time>2019-08-20T11:27:24Z</time>
      </trkpt>
      <trkpt lat="46.47594" lon="3.92721">
        <ele>227.7</ele>
        <time>2019-08-20T11:27:25Z</time>
      </trkpt>
      <trkpt lat="46.47594" lon="3.92715">
        <ele>227.7</ele>
        <time>2019-08-20T11:27:26Z</time>
      </trkpt>
      <trkpt lat="46.47595" lon="3.92708">
        <ele>227.7</ele>
        <time>2019-08-20T11:27:27Z</time>
      </trkpt>
      <trkpt lat="46.47596" lon="3.92701">
        <ele>227.7</ele>
        <time>2019-08-20T11:27:28Z</time>
      </trkpt>
      <trkpt lat="46.47597" lon="3.92694">
        <ele>227.7</ele>
        <time>2019-08-20T11:27:29Z</time>
      </trkpt>
      <trkpt lat="46.47597" lon="3.92687">
        <ele>227.7</ele>
        <time>2019-08-20T11:27:30Z</time>
      </trkpt>
      <trkpt lat="46.47598" lon="3.92681">
        <ele>227.7</ele>
        <time>2019-08-20T11:27:31Z</time>
      </trkpt>
      <trkpt lat="46.47599" lon="3.92675">
        <ele>227.7</ele>
        <time>2019-08-20T11:27:32Z</time>
      </trkpt>
      <trkpt lat="46.47599" lon="3.92669">
        <ele>227.6</ele>
        <time>2019-08-20T11:27:33Z</time>
      </trkpt>
      <trkpt lat="46.476" lon="3.92661">
        <ele>227.6</ele>
        <time>2019-08-20T11:27:34Z</time>
      </trkpt>
      <trkpt lat="46.476" lon="3.92654">
        <ele>227.6</ele>
        <time>2019-08-20T11:27:35Z</time>
      </trkpt>
      <trkpt lat="46.47601" lon="3.92646">
        <ele>227.6</ele>
        <time>2019-08-20T11:27:36Z</time>
      </trkpt>
      <trkpt lat="46.47601" lon="3.92637">
        <ele>227.5</ele>
        <time>2019-08-20T11:27:37Z</time>
      </trkpt>
      <trkpt lat="46.47602" lon="3.9263">
        <ele>227.5</ele>
        <time>2019-08-20T11:27:38Z</time>
      </trkpt>
      <trkpt lat="46.47601" lon="3.92622">
        <ele>227.5</ele>
        <time>2019-08-20T11:27:39Z</time>
      </trkpt>
      <trkpt lat="46.47602" lon="3.92615">
        <ele>227.5</ele>
        <time>2019-08-20T11:27:40Z</time>
      </trkpt>
      <trkpt lat="46.47602" lon="3.92608">
        <ele>227.5</ele>
        <time>2019-08-20T11:27:41Z</time>
      </trkpt>
      <trkpt lat="46.47602" lon="3.92601">
        <ele>227.5</ele>
        <time>2019-08-20T11:27:42Z</time>
      </trkpt>
      <trkpt lat="46.47602" lon="3.92596">
        <ele>227.5</ele>
        <time>2019-08-20T11:27:43Z</time>
      </trkpt>
      <trkpt lat="46.47602" lon="3.92589">
        <ele>227.5</ele>
        <time>2019-08-20T11:27:44Z</time>
      </trkpt>
      <trkpt lat="46.47602" lon="3.92584">
        <ele>227.5</ele>
        <time>2019-08-20T11:27:45Z</time>
      </trkpt>
      <trkpt lat="46.47602" lon="3.92578">
        <ele>227.5</ele>
        <time>2019-08-20T11:27:46Z</time>
      </trkpt>
      <trkpt lat="46.47602" lon="3.92572">
        <ele>227.5</ele>
        <time>2019-08-20T11:27:47Z</time>
      </trkpt>
      <trkpt lat="46.47602" lon="3.92566">
        <ele>227.5</ele>
        <time>2019-08-20T11:27:48Z</time>
      </trkpt>
      <trkpt lat="46.47603" lon="3.92559">
        <ele>227.5</ele>
        <time>2019-08-20T11:27:49Z</time>
      </trkpt>
      <trkpt lat="46.47603" lon="3.92553">
        <ele>227.4</ele>
        <time>2019-08-20T11:27:50Z</time>
      </trkpt>
      <trkpt lat="46.47604" lon="3.92546">
        <ele>227.4</ele>
        <time>2019-08-20T11:27:51Z</time>
      </trkpt>
      <trkpt lat="46.47605" lon="3.9254">
        <ele>227.4</ele>
        <time>2019-08-20T11:27:52Z</time>
      </trkpt>
      <trkpt lat="46.47605" lon="3.92533">
        <ele>227.4</ele>
        <time>2019-08-20T11:27:53Z</time>
      </trkpt>
      <trkpt lat="46.47606" lon="3.92524">
        <ele>227.4</ele>
        <time>2019-08-20T11:27:54Z</time>
      </trkpt>
      <trkpt lat="46.47606" lon="3.92518">
        <ele>227.4</ele>
        <time>2019-08-20T11:27:55Z</time>
      </trkpt>
      <trkpt lat="46.47607" lon="3.92511">
        <ele>227.4</ele>
        <time>2019-08-20T11:27:56Z</time>
      </trkpt>
      <trkpt lat="46.47607" lon="3.92506">
        <ele>227.4</ele>
        <time>2019-08-20T11:27:57Z</time>
      </trkpt>
      <trkpt lat="46.47607" lon="3.925">
        <ele>227.5</ele>
        <time>2019-08-20T11:27:58Z</time>
      </trkpt>
      <trkpt lat="46.47608" lon="3.92493">
        <ele>227.5</ele>
        <time>2019-08-20T11:27:59Z</time>
      </trkpt>
      <trkpt lat="46.47608" lon="3.92488">
        <ele>227.5</ele>
        <time>2019-08-20T11:28:00Z</time>
      </trkpt>
      <trkpt lat="46.47609" lon="3.92482">
        <ele>227.5</ele>
        <time>2019-08-20T11:28:01Z</time>
      </trkpt>
      <trkpt lat="46.47609" lon="3.92476">
        <ele>227.5</ele>
        <time>2019-08-20T11:28:02Z</time>
      </trkpt>
      <trkpt lat="46.4761" lon="3.92469">
        <ele>227.5</ele>
        <time>2019-08-20T11:28:03Z</time>
      </trkpt>
      <trkpt lat="46.4761" lon="3.92462">
        <ele>227.6</ele>
        <time>2019-08-20T11:28:04Z</time>
      </trkpt>
      <trkpt lat="46.47611" lon="3.92456">
        <ele>227.6</ele>
        <time>2019-08-20T11:28:05Z</time>
      </trkpt>
      <trkpt lat="46.47611" lon="3.92449">
        <ele>227.6</ele>
        <time>2019-08-20T11:28:06Z</time>
      </trkpt>
      <trkpt lat="46.47612" lon="3.92442">
        <ele>227.7</ele>
        <time>2019-08-20T11:28:07Z</time>
      </trkpt>
      <trkpt lat="46.47614" lon="3.92435">
        <ele>227.6</ele>
        <time>2019-08-20T11:28:08Z</time>
      </trkpt>
      <trkpt lat="46.47615" lon="3.92428">
        <ele>227.6</ele>
        <time>2019-08-20T11:28:09Z</time>
      </trkpt>
      <trkpt lat="46.47617" lon="3.92421">
        <ele>227.5</ele>
        <time>2019-08-20T11:28:10Z</time>
      </trkpt>
      <trkpt lat="46.47619" lon="3.92415">
        <ele>227.4</ele>
        <time>2019-08-20T11:28:11Z</time>
      </trkpt>
      <trkpt lat="46.47621" lon="3.92408">
        <ele>227.4</ele>
        <time>2019-08-20T11:28:12Z</time>
      </trkpt>
      <trkpt lat="46.47622" lon="3.92401">
        <ele>227.5</ele>
        <time>2019-08-20T11:28:13Z</time>
      </trkpt>
      <trkpt lat="46.47623" lon="3.92396">
        <ele>227.5</ele>
        <time>2019-08-20T11:28:14Z</time>
      </trkpt>
      <trkpt lat="46.47624" lon="3.92391">
        <ele>227.6</ele>
        <time>2019-08-20T11:28:15Z</time>
      </trkpt>
      <trkpt lat="46.47626" lon="3.92387">
        <ele>227.6</ele>
        <time>2019-08-20T11:28:16Z</time>
      </trkpt>
      <trkpt lat="46.47627" lon="3.92382">
        <ele>227.7</ele>
        <time>2019-08-20T11:28:17Z</time>
      </trkpt>
      <trkpt lat="46.47629" lon="3.92376">
        <ele>227.7</ele>
        <time>2019-08-20T11:28:19Z</time>
      </trkpt>
      <trkpt lat="46.4763" lon="3.92371">
        <ele>227.6</ele>
        <time>2019-08-20T11:28:21Z</time>
      </trkpt>
      <trkpt lat="46.47631" lon="3.92365">
        <ele>227.6</ele>
        <time>2019-08-20T11:28:24Z</time>
      </trkpt>
      <trkpt lat="46.4763" lon="3.92358">
        <ele>227.5</ele>
        <time>2019-08-20T11:28:26Z</time>
      </trkpt>
      <trkpt lat="46.4763" lon="3.92351">
        <ele>227.5</ele>
        <time>2019-08-20T11:28:27Z</time>
      </trkpt>
      <trkpt lat="46.4763" lon="3.92344">
        <ele>227.4</ele>
        <time>2019-08-20T11:28:28Z</time>
      </trkpt>
      <trkpt lat="46.4763" lon="3.92336">
        <ele>227.4</ele>
        <time>2019-08-20T11:28:29Z</time>
      </trkpt>
      <trkpt lat="46.47629" lon="3.92327">
        <ele>227.3</ele>
        <time>2019-08-20T11:28:30Z</time>
      </trkpt>
      <trkpt lat="46.47629" lon="3.92319">
        <ele>227.3</ele>
        <time>2019-08-20T11:28:31Z</time>
      </trkpt>
      <trkpt lat="46.47628" lon="3.9231">
        <ele>227.2</ele>
        <time>2019-08-20T11:28:32Z</time>
      </trkpt>
      <trkpt lat="46.47627" lon="3.92302">
        <ele>227.2</ele>
        <time>2019-08-20T11:28:33Z</time>
      </trkpt>
      <trkpt lat="46.47627" lon="3.92296">
        <ele>227.3</ele>
        <time>2019-08-20T11:28:34Z</time>
      </trkpt>
      <trkpt lat="46.47627" lon="3.92291">
        <ele>227.3</ele>
        <time>2019-08-20T11:28:35Z</time>
      </trkpt>
      <trkpt lat="46.47629" lon="3.92287">
        <ele>227.3</ele>
        <time>2019-08-20T11:28:36Z</time>
      </trkpt>
      <trkpt lat="46.4763" lon="3.92282">
        <ele>227.4</ele>
        <time>2019-08-20T11:28:37Z</time>
      </trkpt>
      <trkpt lat="46.47631" lon="3.92277">
        <ele>227.4</ele>
        <time>2019-08-20T11:28:38Z</time>
      </trkpt>
      <trkpt lat="46.47631" lon="3.92272">
        <ele>227.4</ele>
        <time>2019-08-20T11:28:39Z</time>
      </trkpt>
      <trkpt lat="46.47631" lon="3.92268">
        <ele>227.4</ele>
        <time>2019-08-20T11:28:40Z</time>
      </trkpt>
      <trkpt lat="46.47631" lon="3.92264">
        <ele>227.4</ele>
        <time>2019-08-20T11:28:41Z</time>
      </trkpt>
      <trkpt lat="46.47632" lon="3.92259">
        <ele>227.4</ele>
        <time>2019-08-20T11:28:42Z</time>
      </trkpt>
      <trkpt lat="46.47632" lon="3.92254">
        <ele>227.4</ele>
        <time>2019-08-20T11:28:43Z</time>
      </trkpt>
      <trkpt lat="46.47633" lon="3.92249">
        <ele>227.4</ele>
        <time>2019-08-20T11:28:44Z</time>
      </trkpt>
      <trkpt lat="46.47634" lon="3.92243">
        <ele>227.4</ele>
        <time>2019-08-20T11:28:45Z</time>
      </trkpt>
      <trkpt lat="46.47634" lon="3.92236">
        <ele>227.4</ele>
        <time>2019-08-20T11:28:46Z</time>
      </trkpt>
      <trkpt lat="46.47635" lon="3.92229">
        <ele>227.4</ele>
        <time>2019-08-20T11:28:47Z</time>
      </trkpt>
      <trkpt lat="46.47636" lon="3.92222">
        <ele>227.5</ele>
        <time>2019-08-20T11:28:48Z</time>
      </trkpt>
      <trkpt lat="46.47637" lon="3.92216">
        <ele>227.5</ele>
        <time>2019-08-20T11:28:49Z</time>
      </trkpt>
      <trkpt lat="46.47638" lon="3.92209">
        <ele>227.5</ele>
        <time>2019-08-20T11:28:50Z</time>
      </trkpt>
      <trkpt lat="46.4764" lon="3.92202">
        <ele>227.5</ele>
        <time>2019-08-20T11:28:51Z</time>
      </trkpt>
      <trkpt lat="46.4764" lon="3.92194">
        <ele>227.4</ele>
        <time>2019-08-20T11:28:52Z</time>
      </trkpt>
      <trkpt lat="46.4764" lon="3.92187">
        <ele>227.4</ele>
        <time>2019-08-20T11:28:53Z</time>
      </trkpt>
      <trkpt lat="46.4764" lon="3.92181">
        <ele>227.4</ele>
        <time>2019-08-20T11:28:54Z</time>
      </trkpt>
      <trkpt lat="46.4764" lon="3.92175">
        <ele>227.4</ele>
        <time>2019-08-20T11:28:55Z</time>
      </trkpt>
      <trkpt lat="46.47639" lon="3.9217">
        <ele>227.4</ele>
        <time>2019-08-20T11:28:56Z</time>
      </trkpt>
      <trkpt lat="46.47639" lon="3.92165">
        <ele>227.4</ele>
        <time>2019-08-20T11:28:57Z</time>
      </trkpt>
      <trkpt lat="46.4764" lon="3.92159">
        <ele>227.4</ele>
        <time>2019-08-20T11:28:58Z</time>
      </trkpt>
      <trkpt lat="46.47642" lon="3.92152">
        <ele>227.3</ele>
        <time>2019-08-20T11:28:59Z</time>
      </trkpt>
      <trkpt lat="46.47644" lon="3.92146">
        <ele>227.3</ele>
        <time>2019-08-20T11:29:00Z</time>
      </trkpt>
      <trkpt lat="46.47645" lon="3.9214">
        <ele>227.3</ele>
        <time>2019-08-20T11:29:01Z</time>
      </trkpt>
      <trkpt lat="46.47645" lon="3.92134">
        <ele>227.2</ele>
        <time>2019-08-20T11:29:02Z</time>
      </trkpt>
      <trkpt lat="46.47646" lon="3.92128">
        <ele>227.2</ele>
        <time>2019-08-20T11:29:03Z</time>
      </trkpt>
      <trkpt lat="46.47647" lon="3.92122">
        <ele>227.2</ele>
        <time>2019-08-20T11:29:04Z</time>
      </trkpt>
      <trkpt lat="46.47648" lon="3.92115">
        <ele>227.2</ele>
        <time>2019-08-20T11:29:05Z</time>
      </trkpt>
      <trkpt lat="46.47649" lon="3.92109">
        <ele>227.1</ele>
        <time>2019-08-20T11:29:06Z</time>
      </trkpt>
      <trkpt lat="46.4765" lon="3.92103">
        <ele>227.1</ele>
        <time>2019-08-20T11:29:07Z</time>
      </trkpt>
      <trkpt lat="46.47651" lon="3.92097">
        <ele>227.1</ele>
        <time>2019-08-20T11:29:08Z</time>
      </trkpt>
      <trkpt lat="46.47653" lon="3.92092">
        <ele>227.1</ele>
        <time>2019-08-20T11:29:09Z</time>
      </trkpt>
      <trkpt lat="46.47654" lon="3.92086">
        <ele>227.1</ele>
        <time>2019-08-20T11:29:10Z</time>
      </trkpt>
      <trkpt lat="46.47655" lon="3.92078">
        <ele>227.2</ele>
        <time>2019-08-20T11:29:11Z</time>
      </trkpt>
      <trkpt lat="46.47656" lon="3.9207">
        <ele>227.2</ele>
        <time>2019-08-20T11:29:12Z</time>
      </trkpt>
      <trkpt lat="46.47658" lon="3.92061">
        <ele>227.2</ele>
        <time>2019-08-20T11:29:13Z</time>
      </trkpt>
      <trkpt lat="46.47659" lon="3.92053">
        <ele>227.2</ele>
        <time>2019-08-20T11:29:14Z</time>
      </trkpt>
      <trkpt lat="46.47662" lon="3.92046">
        <ele>227.3</ele>
        <time>2019-08-20T11:29:15Z</time>
      </trkpt>
      <trkpt lat="46.47664" lon="3.92039">
        <ele>227.3</ele>
        <time>2019-08-20T11:29:16Z</time>
      </trkpt>
      <trkpt lat="46.47666" lon="3.92033">
        <ele>227.3</ele>
        <time>2019-08-20T11:29:17Z</time>
      </trkpt>
      <trkpt lat="46.47667" lon="3.92027">
        <ele>227.3</ele>
        <time>2019-08-20T11:29:18Z</time>
      </trkpt>
      <trkpt lat="46.47668" lon="3.9202">
        <ele>227.3</ele>
        <time>2019-08-20T11:29:19Z</time>
      </trkpt>
      <trkpt lat="46.4767" lon="3.92014">
        <ele>227.3</ele>
        <time>2019-08-20T11:29:20Z</time>
      </trkpt>
      <trkpt lat="46.4767" lon="3.92006">
        <ele>227.3</ele>
        <time>2019-08-20T11:29:21Z</time>
      </trkpt>
      <trkpt lat="46.47671" lon="3.92">
        <ele>227.3</ele>
        <time>2019-08-20T11:29:22Z</time>
      </trkpt>
      <trkpt lat="46.47672" lon="3.91994">
        <ele>227.3</ele>
        <time>2019-08-20T11:29:23Z</time>
      </trkpt>
      <trkpt lat="46.47674" lon="3.91987">
        <ele>227.3</ele>
        <time>2019-08-20T11:29:24Z</time>
      </trkpt>
      <trkpt lat="46.47677" lon="3.9198">
        <ele>227.3</ele>
        <time>2019-08-20T11:29:25Z</time>
      </trkpt>
      <trkpt lat="46.47679" lon="3.91973">
        <ele>227.3</ele>
        <time>2019-08-20T11:29:26Z</time>
      </trkpt>
      <trkpt lat="46.47681" lon="3.91967">
        <ele>227.3</ele>
        <time>2019-08-20T11:29:27Z</time>
      </trkpt>
      <trkpt lat="46.47684" lon="3.9196">
        <ele>227.3</ele>
        <time>2019-08-20T11:29:28Z</time>
      </trkpt>
      <trkpt lat="46.47686" lon="3.91954">
        <ele>227.3</ele>
        <time>2019-08-20T11:29:29Z</time>
      </trkpt>
      <trkpt lat="46.47688" lon="3.91949">
        <ele>227.3</ele>
        <time>2019-08-20T11:29:30Z</time>
      </trkpt>
      <trkpt lat="46.4769" lon="3.91943">
        <ele>227.4</ele>
        <time>2019-08-20T11:29:31Z</time>
      </trkpt>
      <trkpt lat="46.47693" lon="3.91937">
        <ele>227.4</ele>
        <time>2019-08-20T11:29:32Z</time>
      </trkpt>
      <trkpt lat="46.47695" lon="3.91931">
        <ele>227.4</ele>
        <time>2019-08-20T11:29:33Z</time>
      </trkpt>
      <trkpt lat="46.47697" lon="3.91923">
        <ele>227.5</ele>
        <time>2019-08-20T11:29:34Z</time>
      </trkpt>
      <trkpt lat="46.47699" lon="3.91917">
        <ele>227.5</ele>
        <time>2019-08-20T11:29:35Z</time>
      </trkpt>
      <trkpt lat="46.47702" lon="3.9191">
        <ele>227.6</ele>
        <time>2019-08-20T11:29:36Z</time>
      </trkpt>
      <trkpt lat="46.47703" lon="3.91904">
        <ele>227.6</ele>
        <time>2019-08-20T11:29:37Z</time>
      </trkpt>
      <trkpt lat="46.47705" lon="3.91898">
        <ele>227.7</ele>
        <time>2019-08-20T11:29:38Z</time>
      </trkpt>
      <trkpt lat="46.47707" lon="3.91893">
        <ele>227.7</ele>
        <time>2019-08-20T11:29:39Z</time>
      </trkpt>
      <trkpt lat="46.4771" lon="3.91887">
        <ele>227.7</ele>
        <time>2019-08-20T11:29:40Z</time>
      </trkpt>
      <trkpt lat="46.47713" lon="3.9188">
        <ele>227.7</ele>
        <time>2019-08-20T11:29:41Z</time>
      </trkpt>
      <trkpt lat="46.47715" lon="3.91874">
        <ele>227.7</ele>
        <time>2019-08-20T11:29:42Z</time>
      </trkpt>
      <trkpt lat="46.47717" lon="3.91867">
        <ele>227.7</ele>
        <time>2019-08-20T11:29:43Z</time>
      </trkpt>
      <trkpt lat="46.47718" lon="3.91861">
        <ele>227.7</ele>
        <time>2019-08-20T11:29:44Z</time>
      </trkpt>
      <trkpt lat="46.4772" lon="3.91855">
        <ele>227.7</ele>
        <time>2019-08-20T11:29:45Z</time>
      </trkpt>
      <trkpt lat="46.47723" lon="3.91849">
        <ele>227.7</ele>
        <time>2019-08-20T11:29:46Z</time>
      </trkpt>
      <trkpt lat="46.47724" lon="3.91842">
        <ele>227.6</ele>
        <time>2019-08-20T11:29:47Z</time>
      </trkpt>
      <trkpt lat="46.47726" lon="3.91836">
        <ele>227.6</ele>
        <time>2019-08-20T11:29:48Z</time>
      </trkpt>
      <trkpt lat="46.47729" lon="3.91829">
        <ele>227.6</ele>
        <time>2019-08-20T11:29:49Z</time>
      </trkpt>
      <trkpt lat="46.47731" lon="3.91823">
        <ele>227.6</ele>
        <time>2019-08-20T11:29:50Z</time>
      </trkpt>
      <trkpt lat="46.47733" lon="3.91817">
        <ele>227.6</ele>
        <time>2019-08-20T11:29:51Z</time>
      </trkpt>
      <trkpt lat="46.47737" lon="3.9181">
        <ele>227.6</ele>
        <time>2019-08-20T11:29:52Z</time>
      </trkpt>
      <trkpt lat="46.4774" lon="3.91806">
        <ele>227.7</ele>
        <time>2019-08-20T11:29:53Z</time>
      </trkpt>
      <trkpt lat="46.47743" lon="3.918">
        <ele>227.7</ele>
        <time>2019-08-20T11:29:54Z</time>
      </trkpt>
      <trkpt lat="46.47746" lon="3.91795">
        <ele>227.7</ele>
        <time>2019-08-20T11:29:55Z</time>
      </trkpt>
      <trkpt lat="46.47749" lon="3.91789">
        <ele>227.8</ele>
        <time>2019-08-20T11:29:56Z</time>
      </trkpt>
      <trkpt lat="46.47752" lon="3.91783">
        <ele>227.8</ele>
        <time>2019-08-20T11:29:57Z</time>
      </trkpt>
      <trkpt lat="46.47754" lon="3.91776">
        <ele>227.8</ele>
        <time>2019-08-20T11:29:58Z</time>
      </trkpt>
      <trkpt lat="46.47757" lon="3.9177">
        <ele>227.9</ele>
        <time>2019-08-20T11:29:59Z</time>
      </trkpt>
      <trkpt lat="46.4776" lon="3.91763">
        <ele>227.9</ele>
        <time>2019-08-20T11:30:00Z</time>
      </trkpt>
      <trkpt lat="46.47762" lon="3.91756">
        <ele>228</ele>
        <time>2019-08-20T11:30:01Z</time>
      </trkpt>
      <trkpt lat="46.47764" lon="3.9175">
        <ele>228</ele>
        <time>2019-08-20T11:30:02Z</time>
      </trkpt>
      <trkpt lat="46.47766" lon="3.91743">
        <ele>228</ele>
        <time>2019-08-20T11:30:03Z</time>
      </trkpt>
      <trkpt lat="46.47769" lon="3.91737">
        <ele>228</ele>
        <time>2019-08-20T11:30:04Z</time>
      </trkpt>
      <trkpt lat="46.47771" lon="3.9173">
        <ele>228.1</ele>
        <time>2019-08-20T11:30:05Z</time>
      </trkpt>
      <trkpt lat="46.47773" lon="3.91725">
        <ele>228.1</ele>
        <time>2019-08-20T11:30:06Z</time>
      </trkpt>
      <trkpt lat="46.47775" lon="3.91719">
        <ele>228.1</ele>
        <time>2019-08-20T11:30:07Z</time>
      </trkpt>
      <trkpt lat="46.47777" lon="3.91712">
        <ele>228.1</ele>
        <time>2019-08-20T11:30:08Z</time>
      </trkpt>
      <trkpt lat="46.47779" lon="3.91705">
        <ele>228</ele>
        <time>2019-08-20T11:30:09Z</time>
      </trkpt>
      <trkpt lat="46.47782" lon="3.91697">
        <ele>228</ele>
        <time>2019-08-20T11:30:10Z</time>
      </trkpt>
      <trkpt lat="46.47784" lon="3.9169">
        <ele>228</ele>
        <time>2019-08-20T11:30:11Z</time>
      </trkpt>
      <trkpt lat="46.47785" lon="3.91684">
        <ele>228</ele>
        <time>2019-08-20T11:30:12Z</time>
      </trkpt>
      <trkpt lat="46.47787" lon="3.91677">
        <ele>228</ele>
        <time>2019-08-20T11:30:13Z</time>
      </trkpt>
      <trkpt lat="46.47789" lon="3.9167">
        <ele>228</ele>
        <time>2019-08-20T11:30:14Z</time>
      </trkpt>
      <trkpt lat="46.4779" lon="3.91663">
        <ele>228</ele>
        <time>2019-08-20T11:30:15Z</time>
      </trkpt>
      <trkpt lat="46.47792" lon="3.91656">
        <ele>228</ele>
        <time>2019-08-20T11:30:16Z</time>
      </trkpt>
      <trkpt lat="46.47793" lon="3.91649">
        <ele>228</ele>
        <time>2019-08-20T11:30:17Z</time>
      </trkpt>
      <trkpt lat="46.47795" lon="3.91642">
        <ele>227.9</ele>
        <time>2019-08-20T11:30:18Z</time>
      </trkpt>
      <trkpt lat="46.47796" lon="3.91637">
        <ele>227.9</ele>
        <time>2019-08-20T11:30:19Z</time>
      </trkpt>
      <trkpt lat="46.47797" lon="3.9163">
        <ele>227.9</ele>
        <time>2019-08-20T11:30:20Z</time>
      </trkpt>
      <trkpt lat="46.47799" lon="3.91625">
        <ele>227.9</ele>
        <time>2019-08-20T11:30:21Z</time>
      </trkpt>
      <trkpt lat="46.478" lon="3.91618">
        <ele>227.8</ele>
        <time>2019-08-20T11:30:22Z</time>
      </trkpt>
      <trkpt lat="46.47801" lon="3.91611">
        <ele>227.8</ele>
        <time>2019-08-20T11:30:23Z</time>
      </trkpt>
      <trkpt lat="46.47802" lon="3.91605">
        <ele>227.7</ele>
        <time>2019-08-20T11:30:24Z</time>
      </trkpt>
      <trkpt lat="46.47803" lon="3.91598">
        <ele>227.7</ele>
        <time>2019-08-20T11:30:25Z</time>
      </trkpt>
      <trkpt lat="46.47804" lon="3.9159">
        <ele>227.6</ele>
        <time>2019-08-20T11:30:26Z</time>
      </trkpt>
      <trkpt lat="46.47805" lon="3.91582">
        <ele>227.6</ele>
        <time>2019-08-20T11:30:27Z</time>
      </trkpt>
      <trkpt lat="46.47806" lon="3.91575">
        <ele>227.5</ele>
        <time>2019-08-20T11:30:28Z</time>
      </trkpt>
      <trkpt lat="46.47807" lon="3.91567">
        <ele>227.5</ele>
        <time>2019-08-20T11:30:29Z</time>
      </trkpt>
      <trkpt lat="46.47808" lon="3.91559">
        <ele>227.5</ele>
        <time>2019-08-20T11:30:30Z</time>
      </trkpt>
      <trkpt lat="46.4781" lon="3.91551">
        <ele>227.4</ele>
        <time>2019-08-20T11:30:31Z</time>
      </trkpt>
      <trkpt lat="46.47811" lon="3.91544">
        <ele>227.4</ele>
        <time>2019-08-20T11:30:32Z</time>
      </trkpt>
      <trkpt lat="46.47812" lon="3.91538">
        <ele>227.4</ele>
        <time>2019-08-20T11:30:33Z</time>
      </trkpt>
      <trkpt lat="46.47812" lon="3.91532">
        <ele>227.5</ele>
        <time>2019-08-20T11:30:34Z</time>
      </trkpt>
      <trkpt lat="46.47813" lon="3.91525">
        <ele>227.5</ele>
        <time>2019-08-20T11:30:35Z</time>
      </trkpt>
      <trkpt lat="46.47815" lon="3.91518">
        <ele>227.5</ele>
        <time>2019-08-20T11:30:36Z</time>
      </trkpt>
      <trkpt lat="46.47815" lon="3.91512">
        <ele>227.5</ele>
        <time>2019-08-20T11:30:37Z</time>
      </trkpt>
      <trkpt lat="46.47817" lon="3.91504">
        <ele>227.5</ele>
        <time>2019-08-20T11:30:38Z</time>
      </trkpt>
      <trkpt lat="46.47819" lon="3.91496">
        <ele>227.4</ele>
        <time>2019-08-20T11:30:39Z</time>
      </trkpt>
      <trkpt lat="46.47819" lon="3.91489">
        <ele>227.4</ele>
        <time>2019-08-20T11:30:40Z</time>
      </trkpt>
      <trkpt lat="46.4782" lon="3.91482">
        <ele>227.4</ele>
        <time>2019-08-20T11:30:41Z</time>
      </trkpt>
      <trkpt lat="46.47819" lon="3.91475">
        <ele>227.3</ele>
        <time>2019-08-20T11:30:42Z</time>
      </trkpt>
      <trkpt lat="46.47819" lon="3.91469">
        <ele>227.2</ele>
        <time>2019-08-20T11:30:43Z</time>
      </trkpt>
      <trkpt lat="46.47819" lon="3.91462">
        <ele>227.2</ele>
        <time>2019-08-20T11:30:44Z</time>
      </trkpt>
      <trkpt lat="46.4782" lon="3.91454">
        <ele>227.1</ele>
        <time>2019-08-20T11:30:45Z</time>
      </trkpt>
      <trkpt lat="46.4782" lon="3.91447">
        <ele>227.1</ele>
        <time>2019-08-20T11:30:46Z</time>
      </trkpt>
      <trkpt lat="46.4782" lon="3.9144">
        <ele>227.1</ele>
        <time>2019-08-20T11:30:47Z</time>
      </trkpt>
      <trkpt lat="46.4782" lon="3.91434">
        <ele>227.1</ele>
        <time>2019-08-20T11:30:48Z</time>
      </trkpt>
      <trkpt lat="46.4782" lon="3.91426">
        <ele>227.1</ele>
        <time>2019-08-20T11:30:49Z</time>
      </trkpt>
      <trkpt lat="46.47819" lon="3.91418">
        <ele>227.1</ele>
        <time>2019-08-20T11:30:50Z</time>
      </trkpt>
      <trkpt lat="46.47819" lon="3.9141">
        <ele>227.1</ele>
        <time>2019-08-20T11:30:51Z</time>
      </trkpt>
      <trkpt lat="46.47819" lon="3.91403">
        <ele>227.2</ele>
        <time>2019-08-20T11:30:52Z</time>
      </trkpt>
      <trkpt lat="46.47819" lon="3.91395">
        <ele>227.2</ele>
        <time>2019-08-20T11:30:53Z</time>
      </trkpt>
      <trkpt lat="46.47818" lon="3.91388">
        <ele>227.3</ele>
        <time>2019-08-20T11:30:54Z</time>
      </trkpt>
      <trkpt lat="46.47818" lon="3.91381">
        <ele>227.3</ele>
        <time>2019-08-20T11:30:55Z</time>
      </trkpt>
      <trkpt lat="46.47818" lon="3.91374">
        <ele>227.4</ele>
        <time>2019-08-20T11:30:56Z</time>
      </trkpt>
      <trkpt lat="46.47817" lon="3.91367">
        <ele>227.5</ele>
        <time>2019-08-20T11:30:57Z</time>
      </trkpt>
      <trkpt lat="46.47818" lon="3.9136">
        <ele>227.5</ele>
        <time>2019-08-20T11:30:58Z</time>
      </trkpt>
      <trkpt lat="46.47817" lon="3.91353">
        <ele>227.6</ele>
        <time>2019-08-20T11:30:59Z</time>
      </trkpt>
      <trkpt lat="46.47818" lon="3.91346">
        <ele>227.7</ele>
        <time>2019-08-20T11:31:00Z</time>
      </trkpt>
      <trkpt lat="46.47819" lon="3.91339">
        <ele>227.7</ele>
        <time>2019-08-20T11:31:01Z</time>
      </trkpt>
      <trkpt lat="46.4782" lon="3.91331">
        <ele>227.7</ele>
        <time>2019-08-20T11:31:02Z</time>
      </trkpt>
      <trkpt lat="46.4782" lon="3.91325">
        <ele>227.7</ele>
        <time>2019-08-20T11:31:03Z</time>
      </trkpt>
      <trkpt lat="46.47819" lon="3.91318">
        <ele>227.7</ele>
        <time>2019-08-20T11:31:04Z</time>
      </trkpt>
      <trkpt lat="46.47819" lon="3.91313">
        <ele>227.7</ele>
        <time>2019-08-20T11:31:05Z</time>
      </trkpt>
      <trkpt lat="46.47819" lon="3.91308">
        <ele>227.7</ele>
        <time>2019-08-20T11:31:06Z</time>
      </trkpt>
      <trkpt lat="46.47818" lon="3.91302">
        <ele>227.6</ele>
        <time>2019-08-20T11:31:07Z</time>
      </trkpt>
      <trkpt lat="46.47817" lon="3.91298">
        <ele>227.6</ele>
        <time>2019-08-20T11:31:08Z</time>
      </trkpt>
      <trkpt lat="46.47815" lon="3.91293">
        <ele>227.6</ele>
        <time>2019-08-20T11:31:10Z</time>
      </trkpt>
      <trkpt lat="46.47814" lon="3.91289">
        <ele>227.6</ele>
        <time>2019-08-20T11:31:12Z</time>
      </trkpt>
      <trkpt lat="46.47813" lon="3.91282">
        <ele>227.5</ele>
        <time>2019-08-20T11:31:14Z</time>
      </trkpt>
      <trkpt lat="46.47813" lon="3.91278">
        <ele>227.5</ele>
        <time>2019-08-20T11:31:15Z</time>
      </trkpt>
      <trkpt lat="46.47812" lon="3.91272">
        <ele>227.5</ele>
        <time>2019-08-20T11:31:16Z</time>
      </trkpt>
      <trkpt lat="46.47812" lon="3.91267">
        <ele>227.5</ele>
        <time>2019-08-20T11:31:17Z</time>
      </trkpt>
      <trkpt lat="46.47811" lon="3.91261">
        <ele>227.5</ele>
        <time>2019-08-20T11:31:18Z</time>
      </trkpt>
      <trkpt lat="46.4781" lon="3.91255">
        <ele>227.5</ele>
        <time>2019-08-20T11:31:19Z</time>
      </trkpt>
      <trkpt lat="46.47808" lon="3.91249">
        <ele>227.4</ele>
        <time>2019-08-20T11:31:20Z</time>
      </trkpt>
      <trkpt lat="46.47807" lon="3.91243">
        <ele>227.4</ele>
        <time>2019-08-20T11:31:21Z</time>
      </trkpt>
      <trkpt lat="46.47806" lon="3.91237">
        <ele>227.4</ele>
        <time>2019-08-20T11:31:22Z</time>
      </trkpt>
      <trkpt lat="46.47804" lon="3.91231">
        <ele>227.4</ele>
        <time>2019-08-20T11:31:23Z</time>
      </trkpt>
      <trkpt lat="46.47802" lon="3.91224">
        <ele>227.4</ele>
        <time>2019-08-20T11:31:24Z</time>
      </trkpt>
      <trkpt lat="46.478" lon="3.91218">
        <ele>227.4</ele>
        <time>2019-08-20T11:31:25Z</time>
      </trkpt>
      <trkpt lat="46.47799" lon="3.91211">
        <ele>227.3</ele>
        <time>2019-08-20T11:31:26Z</time>
      </trkpt>
      <trkpt lat="46.47797" lon="3.91205">
        <ele>227.3</ele>
        <time>2019-08-20T11:31:27Z</time>
      </trkpt>
      <trkpt lat="46.47797" lon="3.91199">
        <ele>227.3</ele>
        <time>2019-08-20T11:31:28Z</time>
      </trkpt>
      <trkpt lat="46.47797" lon="3.91192">
        <ele>227.2</ele>
        <time>2019-08-20T11:31:29Z</time>
      </trkpt>
      <trkpt lat="46.47797" lon="3.91187">
        <ele>227.2</ele>
        <time>2019-08-20T11:31:30Z</time>
      </trkpt>
      <trkpt lat="46.47796" lon="3.91181">
        <ele>227.2</ele>
        <time>2019-08-20T11:31:31Z</time>
      </trkpt>
      <trkpt lat="46.47796" lon="3.91174">
        <ele>227.1</ele>
        <time>2019-08-20T11:31:32Z</time>
      </trkpt>
      <trkpt lat="46.47796" lon="3.91167">
        <ele>227</ele>
        <time>2019-08-20T11:31:33Z</time>
      </trkpt>
      <trkpt lat="46.47797" lon="3.9116">
        <ele>227</ele>
        <time>2019-08-20T11:31:34Z</time>
      </trkpt>
      <trkpt lat="46.47797" lon="3.91154">
        <ele>226.9</ele>
        <time>2019-08-20T11:31:35Z</time>
      </trkpt>
      <trkpt lat="46.47796" lon="3.91146">
        <ele>226.8</ele>
        <time>2019-08-20T11:31:36Z</time>
      </trkpt>
      <trkpt lat="46.47796" lon="3.9114">
        <ele>226.7</ele>
        <time>2019-08-20T11:31:37Z</time>
      </trkpt>
      <trkpt lat="46.47797" lon="3.91133">
        <ele>226.6</ele>
        <time>2019-08-20T11:31:38Z</time>
      </trkpt>
      <trkpt lat="46.47797" lon="3.91127">
        <ele>226.5</ele>
        <time>2019-08-20T11:31:39Z</time>
      </trkpt>
      <trkpt lat="46.47798" lon="3.9112">
        <ele>226.4</ele>
        <time>2019-08-20T11:31:40Z</time>
      </trkpt>
      <trkpt lat="46.47799" lon="3.91114">
        <ele>226.3</ele>
        <time>2019-08-20T11:31:41Z</time>
      </trkpt>
      <trkpt lat="46.47799" lon="3.91107">
        <ele>226.2</ele>
        <time>2019-08-20T11:31:42Z</time>
      </trkpt>
      <trkpt lat="46.478" lon="3.911">
        <ele>226.2</ele>
        <time>2019-08-20T11:31:43Z</time>
      </trkpt>
      <trkpt lat="46.47802" lon="3.91094">
        <ele>226.1</ele>
        <time>2019-08-20T11:31:44Z</time>
      </trkpt>
      <trkpt lat="46.47802" lon="3.91086">
        <ele>226</ele>
        <time>2019-08-20T11:31:45Z</time>
      </trkpt>
      <trkpt lat="46.47803" lon="3.91078">
        <ele>226</ele>
        <time>2019-08-20T11:31:46Z</time>
      </trkpt>
      <trkpt lat="46.47803" lon="3.91071">
        <ele>225.9</ele>
        <time>2019-08-20T11:31:47Z</time>
      </trkpt>
      <trkpt lat="46.47804" lon="3.91064">
        <ele>225.9</ele>
        <time>2019-08-20T11:31:48Z</time>
      </trkpt>
      <trkpt lat="46.47804" lon="3.91055">
        <ele>225.9</ele>
        <time>2019-08-20T11:31:49Z</time>
      </trkpt>
      <trkpt lat="46.47805" lon="3.91048">
        <ele>225.8</ele>
        <time>2019-08-20T11:31:50Z</time>
      </trkpt>
      <trkpt lat="46.47806" lon="3.91042">
        <ele>225.8</ele>
        <time>2019-08-20T11:31:51Z</time>
      </trkpt>
      <trkpt lat="46.47808" lon="3.91034">
        <ele>225.8</ele>
        <time>2019-08-20T11:31:52Z</time>
      </trkpt>
      <trkpt lat="46.47809" lon="3.91027">
        <ele>225.7</ele>
        <time>2019-08-20T11:31:53Z</time>
      </trkpt>
      <trkpt lat="46.47811" lon="3.91019">
        <ele>225.7</ele>
        <time>2019-08-20T11:31:54Z</time>
      </trkpt>
      <trkpt lat="46.47812" lon="3.91012">
        <ele>225.7</ele>
        <time>2019-08-20T11:31:55Z</time>
      </trkpt>
      <trkpt lat="46.47813" lon="3.91005">
        <ele>225.7</ele>
        <time>2019-08-20T11:31:56Z</time>
      </trkpt>
      <trkpt lat="46.47813" lon="3.90997">
        <ele>225.7</ele>
        <time>2019-08-20T11:31:57Z</time>
      </trkpt>
      <trkpt lat="46.47814" lon="3.90989">
        <ele>225.6</ele>
        <time>2019-08-20T11:31:58Z</time>
      </trkpt>
      <trkpt lat="46.47815" lon="3.90982">
        <ele>225.6</ele>
        <time>2019-08-20T11:31:59Z</time>
      </trkpt>
      <trkpt lat="46.47816" lon="3.90974">
        <ele>225.6</ele>
        <time>2019-08-20T11:32:00Z</time>
      </trkpt>
      <trkpt lat="46.47817" lon="3.90966">
        <ele>225.6</ele>
        <time>2019-08-20T11:32:01Z</time>
      </trkpt>
      <trkpt lat="46.47818" lon="3.90957">
        <ele>225.6</ele>
        <time>2019-08-20T11:32:02Z</time>
      </trkpt>
      <trkpt lat="46.47819" lon="3.9095">
        <ele>225.6</ele>
        <time>2019-08-20T11:32:03Z</time>
      </trkpt>
      <trkpt lat="46.47819" lon="3.90942">
        <ele>225.6</ele>
        <time>2019-08-20T11:32:04Z</time>
      </trkpt>
      <trkpt lat="46.4782" lon="3.90935">
        <ele>225.6</ele>
        <time>2019-08-20T11:32:05Z</time>
      </trkpt>
      <trkpt lat="46.47821" lon="3.90928">
        <ele>225.6</ele>
        <time>2019-08-20T11:32:06Z</time>
      </trkpt>
      <trkpt lat="46.47821" lon="3.9092">
        <ele>225.6</ele>
        <time>2019-08-20T11:32:07Z</time>
      </trkpt>
      <trkpt lat="46.47822" lon="3.90913">
        <ele>225.6</ele>
        <time>2019-08-20T11:32:08Z</time>
      </trkpt>
      <trkpt lat="46.47824" lon="3.90906">
        <ele>225.6</ele>
        <time>2019-08-20T11:32:09Z</time>
      </trkpt>
      <trkpt lat="46.47825" lon="3.90899">
        <ele>225.6</ele>
        <time>2019-08-20T11:32:10Z</time>
      </trkpt>
      <trkpt lat="46.47826" lon="3.90891">
        <ele>225.6</ele>
        <time>2019-08-20T11:32:11Z</time>
      </trkpt>
      <trkpt lat="46.47827" lon="3.90884">
        <ele>225.6</ele>
        <time>2019-08-20T11:32:12Z</time>
      </trkpt>
      <trkpt lat="46.47829" lon="3.90876">
        <ele>225.6</ele>
        <time>2019-08-20T11:32:13Z</time>
      </trkpt>
      <trkpt lat="46.4783" lon="3.90868">
        <ele>225.6</ele>
        <time>2019-08-20T11:32:14Z</time>
      </trkpt>
      <trkpt lat="46.47831" lon="3.9086">
        <ele>225.6</ele>
        <time>2019-08-20T11:32:15Z</time>
      </trkpt>
      <trkpt lat="46.47832" lon="3.90854">
        <ele>225.6</ele>
        <time>2019-08-20T11:32:16Z</time>
      </trkpt>
      <trkpt lat="46.47833" lon="3.90847">
        <ele>225.6</ele>
        <time>2019-08-20T11:32:17Z</time>
      </trkpt>
      <trkpt lat="46.47834" lon="3.90842">
        <ele>225.6</ele>
        <time>2019-08-20T11:32:18Z</time>
      </trkpt>
      <trkpt lat="46.47835" lon="3.90836">
        <ele>225.6</ele>
        <time>2019-08-20T11:32:19Z</time>
      </trkpt>
      <trkpt lat="46.47836" lon="3.9083">
        <ele>225.6</ele>
        <time>2019-08-20T11:32:20Z</time>
      </trkpt>
      <trkpt lat="46.47837" lon="3.90822">
        <ele>225.6</ele>
        <time>2019-08-20T11:32:21Z</time>
      </trkpt>
      <trkpt lat="46.47839" lon="3.90814">
        <ele>225.6</ele>
        <time>2019-08-20T11:32:22Z</time>
      </trkpt>
      <trkpt lat="46.4784" lon="3.90807">
        <ele>225.7</ele>
        <time>2019-08-20T11:32:23Z</time>
      </trkpt>
      <trkpt lat="46.47841" lon="3.908">
        <ele>225.7</ele>
        <time>2019-08-20T11:32:24Z</time>
      </trkpt>
      <trkpt lat="46.47843" lon="3.90791">
        <ele>225.7</ele>
        <time>2019-08-20T11:32:25Z</time>
      </trkpt>
      <trkpt lat="46.47844" lon="3.90785">
        <ele>225.7</ele>
        <time>2019-08-20T11:32:26Z</time>
      </trkpt>
      <trkpt lat="46.47845" lon="3.90778">
        <ele>225.7</ele>
        <time>2019-08-20T11:32:27Z</time>
      </trkpt>
      <trkpt lat="46.47846" lon="3.90772">
        <ele>225.8</ele>
        <time>2019-08-20T11:32:28Z</time>
      </trkpt>
      <trkpt lat="46.47847" lon="3.90765">
        <ele>225.8</ele>
        <time>2019-08-20T11:32:29Z</time>
      </trkpt>
      <trkpt lat="46.47847" lon="3.90757">
        <ele>225.8</ele>
        <time>2019-08-20T11:32:30Z</time>
      </trkpt>
      <trkpt lat="46.47848" lon="3.9075">
        <ele>225.8</ele>
        <time>2019-08-20T11:32:31Z</time>
      </trkpt>
      <trkpt lat="46.47849" lon="3.90743">
        <ele>225.9</ele>
        <time>2019-08-20T11:32:32Z</time>
      </trkpt>
      <trkpt lat="46.4785" lon="3.90736">
        <ele>225.9</ele>
        <time>2019-08-20T11:32:33Z</time>
      </trkpt>
      <trkpt lat="46.47851" lon="3.90728">
        <ele>225.9</ele>
        <time>2019-08-20T11:32:34Z</time>
      </trkpt>
      <trkpt lat="46.47852" lon="3.90721">
        <ele>226</ele>
        <time>2019-08-20T11:32:35Z</time>
      </trkpt>
      <trkpt lat="46.47852" lon="3.90713">
        <ele>226</ele>
        <time>2019-08-20T11:32:36Z</time>
      </trkpt>
      <trkpt lat="46.47853" lon="3.90706">
        <ele>226</ele>
        <time>2019-08-20T11:32:37Z</time>
      </trkpt>
      <trkpt lat="46.47854" lon="3.90699">
        <ele>226.1</ele>
        <time>2019-08-20T11:32:38Z</time>
      </trkpt>
      <trkpt lat="46.47855" lon="3.90692">
        <ele>226.1</ele>
        <time>2019-08-20T11:32:39Z</time>
      </trkpt>
      <trkpt lat="46.47857" lon="3.90685">
        <ele>226.1</ele>
        <time>2019-08-20T11:32:40Z</time>
      </trkpt>
      <trkpt lat="46.47858" lon="3.90677">
        <ele>226.1</ele>
        <time>2019-08-20T11:32:41Z</time>
      </trkpt>
      <trkpt lat="46.47858" lon="3.9067">
        <ele>226.2</ele>
        <time>2019-08-20T11:32:42Z</time>
      </trkpt>
      <trkpt lat="46.47859" lon="3.90662">
        <ele>226.2</ele>
        <time>2019-08-20T11:32:43Z</time>
      </trkpt>
      <trkpt lat="46.4786" lon="3.90655">
        <ele>226.2</ele>
        <time>2019-08-20T11:32:44Z</time>
      </trkpt>
      <trkpt lat="46.4786" lon="3.90647">
        <ele>226.2</ele>
        <time>2019-08-20T11:32:45Z</time>
      </trkpt>
      <trkpt lat="46.47862" lon="3.9064">
        <ele>226.2</ele>
        <time>2019-08-20T11:32:46Z</time>
      </trkpt>
      <trkpt lat="46.47863" lon="3.90632">
        <ele>226.2</ele>
        <time>2019-08-20T11:32:47Z</time>
      </trkpt>
      <trkpt lat="46.47864" lon="3.90627">
        <ele>226.2</ele>
        <time>2019-08-20T11:32:48Z</time>
      </trkpt>
      <trkpt lat="46.47865" lon="3.9062">
        <ele>226.2</ele>
        <time>2019-08-20T11:32:49Z</time>
      </trkpt>
      <trkpt lat="46.47866" lon="3.90614">
        <ele>226.2</ele>
        <time>2019-08-20T11:32:50Z</time>
      </trkpt>
      <trkpt lat="46.47868" lon="3.90606">
        <ele>226.2</ele>
        <time>2019-08-20T11:32:51Z</time>
      </trkpt>
      <trkpt lat="46.4787" lon="3.906">
        <ele>226.2</ele>
        <time>2019-08-20T11:32:52Z</time>
      </trkpt>
      <trkpt lat="46.47871" lon="3.90593">
        <ele>226.2</ele>
        <time>2019-08-20T11:32:53Z</time>
      </trkpt>
      <trkpt lat="46.47872" lon="3.90587">
        <ele>226.2</ele>
        <time>2019-08-20T11:32:54Z</time>
      </trkpt>
      <trkpt lat="46.47874" lon="3.9058">
        <ele>226.2</ele>
        <time>2019-08-20T11:32:55Z</time>
      </trkpt>
      <trkpt lat="46.47875" lon="3.90574">
        <ele>226.2</ele>
        <time>2019-08-20T11:32:56Z</time>
      </trkpt>
      <trkpt lat="46.47876" lon="3.90567">
        <ele>226.2</ele>
        <time>2019-08-20T11:32:57Z</time>
      </trkpt>
      <trkpt lat="46.47877" lon="3.9056">
        <ele>226.3</ele>
        <time>2019-08-20T11:32:58Z</time>
      </trkpt>
      <trkpt lat="46.47879" lon="3.90553">
        <ele>226.3</ele>
        <time>2019-08-20T11:32:59Z</time>
      </trkpt>
      <trkpt lat="46.4788" lon="3.90545">
        <ele>226.3</ele>
        <time>2019-08-20T11:33:00Z</time>
      </trkpt>
      <trkpt lat="46.47881" lon="3.90538">
        <ele>226.3</ele>
        <time>2019-08-20T11:33:01Z</time>
      </trkpt>
      <trkpt lat="46.47883" lon="3.90531">
        <ele>226.3</ele>
        <time>2019-08-20T11:33:02Z</time>
      </trkpt>
      <trkpt lat="46.47884" lon="3.90524">
        <ele>226.3</ele>
        <time>2019-08-20T11:33:03Z</time>
      </trkpt>
      <trkpt lat="46.47886" lon="3.90516">
        <ele>226.3</ele>
        <time>2019-08-20T11:33:04Z</time>
      </trkpt>
      <trkpt lat="46.47887" lon="3.90509">
        <ele>226.3</ele>
        <time>2019-08-20T11:33:05Z</time>
      </trkpt>
      <trkpt lat="46.47888" lon="3.90501">
        <ele>226.3</ele>
        <time>2019-08-20T11:33:06Z</time>
      </trkpt>
      <trkpt lat="46.47889" lon="3.90494">
        <ele>226.3</ele>
        <time>2019-08-20T11:33:07Z</time>
      </trkpt>
      <trkpt lat="46.4789" lon="3.90487">
        <ele>226.2</ele>
        <time>2019-08-20T11:33:08Z</time>
      </trkpt>
      <trkpt lat="46.47891" lon="3.90479">
        <ele>226.2</ele>
        <time>2019-08-20T11:33:09Z</time>
      </trkpt>
      <trkpt lat="46.47892" lon="3.90472">
        <ele>226.2</ele>
        <time>2019-08-20T11:33:10Z</time>
      </trkpt>
      <trkpt lat="46.47893" lon="3.90465">
        <ele>226.2</ele>
        <time>2019-08-20T11:33:11Z</time>
      </trkpt>
      <trkpt lat="46.47893" lon="3.90458">
        <ele>226.2</ele>
        <time>2019-08-20T11:33:12Z</time>
      </trkpt>
      <trkpt lat="46.47894" lon="3.90452">
        <ele>226.2</ele>
        <time>2019-08-20T11:33:13Z</time>
      </trkpt>
      <trkpt lat="46.47895" lon="3.90446">
        <ele>226.2</ele>
        <time>2019-08-20T11:33:14Z</time>
      </trkpt>
      <trkpt lat="46.47896" lon="3.90438">
        <ele>226.2</ele>
        <time>2019-08-20T11:33:15Z</time>
      </trkpt>
      <trkpt lat="46.47896" lon="3.90431">
        <ele>226.2</ele>
        <time>2019-08-20T11:33:16Z</time>
      </trkpt>
      <trkpt lat="46.47896" lon="3.90423">
        <ele>226.2</ele>
        <time>2019-08-20T11:33:17Z</time>
      </trkpt>
      <trkpt lat="46.47897" lon="3.90417">
        <ele>226.2</ele>
        <time>2019-08-20T11:33:18Z</time>
      </trkpt>
      <trkpt lat="46.47898" lon="3.90411">
        <ele>226.2</ele>
        <time>2019-08-20T11:33:19Z</time>
      </trkpt>
      <trkpt lat="46.479" lon="3.90405">
        <ele>226.2</ele>
        <time>2019-08-20T11:33:20Z</time>
      </trkpt>
      <trkpt lat="46.47901" lon="3.90398">
        <ele>226.2</ele>
        <time>2019-08-20T11:33:21Z</time>
      </trkpt>
      <trkpt lat="46.47902" lon="3.90392">
        <ele>226.2</ele>
        <time>2019-08-20T11:33:22Z</time>
      </trkpt>
      <trkpt lat="46.47903" lon="3.90386">
        <ele>226.2</ele>
        <time>2019-08-20T11:33:23Z</time>
      </trkpt>
      <trkpt lat="46.47904" lon="3.90378">
        <ele>226.2</ele>
        <time>2019-08-20T11:33:24Z</time>
      </trkpt>
      <trkpt lat="46.47905" lon="3.90371">
        <ele>226.2</ele>
        <time>2019-08-20T11:33:25Z</time>
      </trkpt>
      <trkpt lat="46.47906" lon="3.90363">
        <ele>226.2</ele>
        <time>2019-08-20T11:33:26Z</time>
      </trkpt>
      <trkpt lat="46.47907" lon="3.90356">
        <ele>226.2</ele>
        <time>2019-08-20T11:33:27Z</time>
      </trkpt>
      <trkpt lat="46.47908" lon="3.9035">
        <ele>226.2</ele>
        <time>2019-08-20T11:33:28Z</time>
      </trkpt>
      <trkpt lat="46.47909" lon="3.90343">
        <ele>226.2</ele>
        <time>2019-08-20T11:33:29Z</time>
      </trkpt>
      <trkpt lat="46.47909" lon="3.90338">
        <ele>226.2</ele>
        <time>2019-08-20T11:33:30Z</time>
      </trkpt>
      <trkpt lat="46.4791" lon="3.90331">
        <ele>226.2</ele>
        <time>2019-08-20T11:33:31Z</time>
      </trkpt>
      <trkpt lat="46.4791" lon="3.90326">
        <ele>226.2</ele>
        <time>2019-08-20T11:33:32Z</time>
      </trkpt>
      <trkpt lat="46.47912" lon="3.9032">
        <ele>226.2</ele>
        <time>2019-08-20T11:33:33Z</time>
      </trkpt>
      <trkpt lat="46.47913" lon="3.90314">
        <ele>226.2</ele>
        <time>2019-08-20T11:33:34Z</time>
      </trkpt>
      <trkpt lat="46.47914" lon="3.90308">
        <ele>226.2</ele>
        <time>2019-08-20T11:33:35Z</time>
      </trkpt>
      <trkpt lat="46.47916" lon="3.90301">
        <ele>226.2</ele>
        <time>2019-08-20T11:33:36Z</time>
      </trkpt>
      <trkpt lat="46.47917" lon="3.90294">
        <ele>226.1</ele>
        <time>2019-08-20T11:33:37Z</time>
      </trkpt>
      <trkpt lat="46.47919" lon="3.90286">
        <ele>226.1</ele>
        <time>2019-08-20T11:33:38Z</time>
      </trkpt>
      <trkpt lat="46.4792" lon="3.9028">
        <ele>226.1</ele>
        <time>2019-08-20T11:33:39Z</time>
      </trkpt>
      <trkpt lat="46.47921" lon="3.90273">
        <ele>226.1</ele>
        <time>2019-08-20T11:33:40Z</time>
      </trkpt>
      <trkpt lat="46.47922" lon="3.90267">
        <ele>226.1</ele>
        <time>2019-08-20T11:33:41Z</time>
      </trkpt>
      <trkpt lat="46.47923" lon="3.90261">
        <ele>226.1</ele>
        <time>2019-08-20T11:33:42Z</time>
      </trkpt>
      <trkpt lat="46.47924" lon="3.90254">
        <ele>226.1</ele>
        <time>2019-08-20T11:33:43Z</time>
      </trkpt>
      <trkpt lat="46.47925" lon="3.90247">
        <ele>226</ele>
        <time>2019-08-20T11:33:44Z</time>
      </trkpt>
      <trkpt lat="46.47926" lon="3.9024">
        <ele>226</ele>
        <time>2019-08-20T11:33:45Z</time>
      </trkpt>
      <trkpt lat="46.47927" lon="3.90234">
        <ele>226</ele>
        <time>2019-08-20T11:33:46Z</time>
      </trkpt>
      <trkpt lat="46.47928" lon="3.90228">
        <ele>226</ele>
        <time>2019-08-20T11:33:47Z</time>
      </trkpt>
      <trkpt lat="46.47929" lon="3.90221">
        <ele>226</ele>
        <time>2019-08-20T11:33:48Z</time>
      </trkpt>
      <trkpt lat="46.47931" lon="3.90214">
        <ele>226</ele>
        <time>2019-08-20T11:33:49Z</time>
      </trkpt>
      <trkpt lat="46.47932" lon="3.90206">
        <ele>226</ele>
        <time>2019-08-20T11:33:50Z</time>
      </trkpt>
      <trkpt lat="46.47934" lon="3.90198">
        <ele>225.9</ele>
        <time>2019-08-20T11:33:51Z</time>
      </trkpt>
      <trkpt lat="46.47935" lon="3.90191">
        <ele>225.9</ele>
        <time>2019-08-20T11:33:52Z</time>
      </trkpt>
      <trkpt lat="46.47936" lon="3.90184">
        <ele>225.9</ele>
        <time>2019-08-20T11:33:53Z</time>
      </trkpt>
      <trkpt lat="46.47938" lon="3.90177">
        <ele>225.9</ele>
        <time>2019-08-20T11:33:54Z</time>
      </trkpt>
      <trkpt lat="46.47939" lon="3.9017">
        <ele>225.9</ele>
        <time>2019-08-20T11:33:55Z</time>
      </trkpt>
      <trkpt lat="46.4794" lon="3.90163">
        <ele>225.9</ele>
        <time>2019-08-20T11:33:56Z</time>
      </trkpt>
      <trkpt lat="46.47941" lon="3.90156">
        <ele>225.9</ele>
        <time>2019-08-20T11:33:57Z</time>
      </trkpt>
      <trkpt lat="46.47942" lon="3.90149">
        <ele>225.9</ele>
        <time>2019-08-20T11:33:58Z</time>
      </trkpt>
      <trkpt lat="46.47943" lon="3.90142">
        <ele>225.9</ele>
        <time>2019-08-20T11:33:59Z</time>
      </trkpt>
      <trkpt lat="46.47945" lon="3.90135">
        <ele>225.9</ele>
        <time>2019-08-20T11:34:00Z</time>
      </trkpt>
      <trkpt lat="46.47946" lon="3.90129">
        <ele>225.8</ele>
        <time>2019-08-20T11:34:01Z</time>
      </trkpt>
      <trkpt lat="46.47948" lon="3.90122">
        <ele>225.8</ele>
        <time>2019-08-20T11:34:02Z</time>
      </trkpt>
      <trkpt lat="46.47949" lon="3.90115">
        <ele>225.8</ele>
        <time>2019-08-20T11:34:03Z</time>
      </trkpt>
      <trkpt lat="46.47949" lon="3.90108">
        <ele>225.8</ele>
        <time>2019-08-20T11:34:04Z</time>
      </trkpt>
      <trkpt lat="46.4795" lon="3.90103">
        <ele>225.8</ele>
        <time>2019-08-20T11:34:05Z</time>
      </trkpt>
      <trkpt lat="46.47951" lon="3.90096">
        <ele>225.8</ele>
        <time>2019-08-20T11:34:06Z</time>
      </trkpt>
      <trkpt lat="46.47952" lon="3.90091">
        <ele>225.8</ele>
        <time>2019-08-20T11:34:07Z</time>
      </trkpt>
      <trkpt lat="46.47954" lon="3.90085">
        <ele>225.8</ele>
        <time>2019-08-20T11:34:08Z</time>
      </trkpt>
      <trkpt lat="46.47955" lon="3.90079">
        <ele>225.8</ele>
        <time>2019-08-20T11:34:09Z</time>
      </trkpt>
      <trkpt lat="46.47956" lon="3.90071">
        <ele>225.8</ele>
        <time>2019-08-20T11:34:10Z</time>
      </trkpt>
      <trkpt lat="46.47958" lon="3.90063">
        <ele>225.8</ele>
        <time>2019-08-20T11:34:11Z</time>
      </trkpt>
      <trkpt lat="46.47959" lon="3.90056">
        <ele>225.8</ele>
        <time>2019-08-20T11:34:12Z</time>
      </trkpt>
      <trkpt lat="46.4796" lon="3.90049">
        <ele>225.8</ele>
        <time>2019-08-20T11:34:13Z</time>
      </trkpt>
      <trkpt lat="46.4796" lon="3.90043">
        <ele>225.8</ele>
        <time>2019-08-20T11:34:14Z</time>
      </trkpt>
      <trkpt lat="46.47962" lon="3.90037">
        <ele>225.8</ele>
        <time>2019-08-20T11:34:15Z</time>
      </trkpt>
      <trkpt lat="46.47963" lon="3.9003">
        <ele>225.8</ele>
        <time>2019-08-20T11:34:16Z</time>
      </trkpt>
      <trkpt lat="46.47964" lon="3.90024">
        <ele>225.8</ele>
        <time>2019-08-20T11:34:17Z</time>
      </trkpt>
      <trkpt lat="46.47966" lon="3.90017">
        <ele>225.7</ele>
        <time>2019-08-20T11:34:18Z</time>
      </trkpt>
      <trkpt lat="46.47967" lon="3.9001">
        <ele>225.7</ele>
        <time>2019-08-20T11:34:19Z</time>
      </trkpt>
      <trkpt lat="46.47969" lon="3.90003">
        <ele>225.7</ele>
        <time>2019-08-20T11:34:20Z</time>
      </trkpt>
      <trkpt lat="46.47969" lon="3.89996">
        <ele>225.7</ele>
        <time>2019-08-20T11:34:21Z</time>
      </trkpt>
      <trkpt lat="46.47969" lon="3.89989">
        <ele>225.7</ele>
        <time>2019-08-20T11:34:22Z</time>
      </trkpt>
      <trkpt lat="46.4797" lon="3.89981">
        <ele>225.7</ele>
        <time>2019-08-20T11:34:23Z</time>
      </trkpt>
      <trkpt lat="46.4797" lon="3.89974">
        <ele>225.7</ele>
        <time>2019-08-20T11:34:24Z</time>
      </trkpt>
      <trkpt lat="46.47972" lon="3.89967">
        <ele>225.7</ele>
        <time>2019-08-20T11:34:25Z</time>
      </trkpt>
      <trkpt lat="46.47972" lon="3.89961">
        <ele>225.7</ele>
        <time>2019-08-20T11:34:26Z</time>
      </trkpt>
      <trkpt lat="46.47973" lon="3.89955">
        <ele>225.7</ele>
        <time>2019-08-20T11:34:27Z</time>
      </trkpt>
      <trkpt lat="46.47973" lon="3.89949">
        <ele>225.7</ele>
        <time>2019-08-20T11:34:28Z</time>
      </trkpt>
      <trkpt lat="46.47975" lon="3.89943">
        <ele>225.7</ele>
        <time>2019-08-20T11:34:29Z</time>
      </trkpt>
      <trkpt lat="46.47976" lon="3.89936">
        <ele>225.7</ele>
        <time>2019-08-20T11:34:30Z</time>
      </trkpt>
      <trkpt lat="46.47977" lon="3.8993">
        <ele>225.7</ele>
        <time>2019-08-20T11:34:31Z</time>
      </trkpt>
      <trkpt lat="46.47977" lon="3.89922">
        <ele>225.7</ele>
        <time>2019-08-20T11:34:32Z</time>
      </trkpt>
      <trkpt lat="46.47978" lon="3.89916">
        <ele>225.7</ele>
        <time>2019-08-20T11:34:33Z</time>
      </trkpt>
      <trkpt lat="46.47979" lon="3.89909">
        <ele>225.7</ele>
        <time>2019-08-20T11:34:34Z</time>
      </trkpt>
      <trkpt lat="46.4798" lon="3.89902">
        <ele>225.7</ele>
        <time>2019-08-20T11:34:35Z</time>
      </trkpt>
      <trkpt lat="46.47981" lon="3.89895">
        <ele>225.7</ele>
        <time>2019-08-20T11:34:36Z</time>
      </trkpt>
      <trkpt lat="46.47981" lon="3.89888">
        <ele>225.7</ele>
        <time>2019-08-20T11:34:37Z</time>
      </trkpt>
      <trkpt lat="46.47982" lon="3.89881">
        <ele>225.7</ele>
        <time>2019-08-20T11:34:38Z</time>
      </trkpt>
      <trkpt lat="46.47981" lon="3.89874">
        <ele>225.7</ele>
        <time>2019-08-20T11:34:39Z</time>
      </trkpt>
      <trkpt lat="46.47982" lon="3.89868">
        <ele>225.7</ele>
        <time>2019-08-20T11:34:40Z</time>
      </trkpt>
      <trkpt lat="46.47982" lon="3.89861">
        <ele>225.7</ele>
        <time>2019-08-20T11:34:41Z</time>
      </trkpt>
      <trkpt lat="46.47983" lon="3.89855">
        <ele>225.7</ele>
        <time>2019-08-20T11:34:42Z</time>
      </trkpt>
      <trkpt lat="46.47984" lon="3.89849">
        <ele>225.7</ele>
        <time>2019-08-20T11:34:43Z</time>
      </trkpt>
      <trkpt lat="46.47985" lon="3.89842">
        <ele>225.8</ele>
        <time>2019-08-20T11:34:44Z</time>
      </trkpt>
      <trkpt lat="46.47986" lon="3.89835">
        <ele>225.8</ele>
        <time>2019-08-20T11:34:45Z</time>
      </trkpt>
      <trkpt lat="46.47986" lon="3.89829">
        <ele>225.8</ele>
        <time>2019-08-20T11:34:46Z</time>
      </trkpt>
      <trkpt lat="46.47985" lon="3.89822">
        <ele>225.8</ele>
        <time>2019-08-20T11:34:47Z</time>
      </trkpt>
      <trkpt lat="46.47986" lon="3.89815">
        <ele>225.8</ele>
        <time>2019-08-20T11:34:48Z</time>
      </trkpt>
      <trkpt lat="46.47986" lon="3.89808">
        <ele>225.8</ele>
        <time>2019-08-20T11:34:49Z</time>
      </trkpt>
      <trkpt lat="46.47987" lon="3.898">
        <ele>225.8</ele>
        <time>2019-08-20T11:34:50Z</time>
      </trkpt>
      <trkpt lat="46.47987" lon="3.89793">
        <ele>225.8</ele>
        <time>2019-08-20T11:34:51Z</time>
      </trkpt>
      <trkpt lat="46.47988" lon="3.89786">
        <ele>225.8</ele>
        <time>2019-08-20T11:34:52Z</time>
      </trkpt>
      <trkpt lat="46.47987" lon="3.89779">
        <ele>225.8</ele>
        <time>2019-08-20T11:34:53Z</time>
      </trkpt>
      <trkpt lat="46.47986" lon="3.89773">
        <ele>225.8</ele>
        <time>2019-08-20T11:34:54Z</time>
      </trkpt>
      <trkpt lat="46.47986" lon="3.89767">
        <ele>225.8</ele>
        <time>2019-08-20T11:34:55Z</time>
      </trkpt>
      <trkpt lat="46.47986" lon="3.8976">
        <ele>225.8</ele>
        <time>2019-08-20T11:34:56Z</time>
      </trkpt>
      <trkpt lat="46.47988" lon="3.89753">
        <ele>225.8</ele>
        <time>2019-08-20T11:34:57Z</time>
      </trkpt>
      <trkpt lat="46.47987" lon="3.89746">
        <ele>225.8</ele>
        <time>2019-08-20T11:34:58Z</time>
      </trkpt>
      <trkpt lat="46.47987" lon="3.8974">
        <ele>225.8</ele>
        <time>2019-08-20T11:34:59Z</time>
      </trkpt>
      <trkpt lat="46.47987" lon="3.89734">
        <ele>225.8</ele>
        <time>2019-08-20T11:35:00Z</time>
      </trkpt>
      <trkpt lat="46.47986" lon="3.89728">
        <ele>225.8</ele>
        <time>2019-08-20T11:35:01Z</time>
      </trkpt>
      <trkpt lat="46.47986" lon="3.89722">
        <ele>225.8</ele>
        <time>2019-08-20T11:35:02Z</time>
      </trkpt>
      <trkpt lat="46.47986" lon="3.89715">
        <ele>225.8</ele>
        <time>2019-08-20T11:35:03Z</time>
      </trkpt>
      <trkpt lat="46.47986" lon="3.89708">
        <ele>225.8</ele>
        <time>2019-08-20T11:35:04Z</time>
      </trkpt>
      <trkpt lat="46.47986" lon="3.89702">
        <ele>225.8</ele>
        <time>2019-08-20T11:35:05Z</time>
      </trkpt>
      <trkpt lat="46.47986" lon="3.89695">
        <ele>225.8</ele>
        <time>2019-08-20T11:35:06Z</time>
      </trkpt>
      <trkpt lat="46.47985" lon="3.89689">
        <ele>225.8</ele>
        <time>2019-08-20T11:35:07Z</time>
      </trkpt>
      <trkpt lat="46.47985" lon="3.89682">
        <ele>225.8</ele>
        <time>2019-08-20T11:35:08Z</time>
      </trkpt>
      <trkpt lat="46.47985" lon="3.89675">
        <ele>225.8</ele>
        <time>2019-08-20T11:35:09Z</time>
      </trkpt>
      <trkpt lat="46.47985" lon="3.89667">
        <ele>225.8</ele>
        <time>2019-08-20T11:35:10Z</time>
      </trkpt>
      <trkpt lat="46.47985" lon="3.8966">
        <ele>225.8</ele>
        <time>2019-08-20T11:35:11Z</time>
      </trkpt>
      <trkpt lat="46.47984" lon="3.89651">
        <ele>225.8</ele>
        <time>2019-08-20T11:35:12Z</time>
      </trkpt>
      <trkpt lat="46.47984" lon="3.89644">
        <ele>225.8</ele>
        <time>2019-08-20T11:35:13Z</time>
      </trkpt>
      <trkpt lat="46.47984" lon="3.89638">
        <ele>225.8</ele>
        <time>2019-08-20T11:35:14Z</time>
      </trkpt>
      <trkpt lat="46.47984" lon="3.89632">
        <ele>225.8</ele>
        <time>2019-08-20T11:35:15Z</time>
      </trkpt>
      <trkpt lat="46.47983" lon="3.89626">
        <ele>225.8</ele>
        <time>2019-08-20T11:35:16Z</time>
      </trkpt>
      <trkpt lat="46.47983" lon="3.89621">
        <ele>225.8</ele>
        <time>2019-08-20T11:35:17Z</time>
      </trkpt>
      <trkpt lat="46.47982" lon="3.89616">
        <ele>225.8</ele>
        <time>2019-08-20T11:35:18Z</time>
      </trkpt>
      <trkpt lat="46.47982" lon="3.89612">
        <ele>225.8</ele>
        <time>2019-08-20T11:35:19Z</time>
      </trkpt>
      <trkpt lat="46.47981" lon="3.89608">
        <ele>225.8</ele>
        <time>2019-08-20T11:35:20Z</time>
      </trkpt>
      <trkpt lat="46.4798" lon="3.89603">
        <ele>225.8</ele>
        <time>2019-08-20T11:35:21Z</time>
      </trkpt>
      <trkpt lat="46.4798" lon="3.89598">
        <ele>225.8</ele>
        <time>2019-08-20T11:35:22Z</time>
      </trkpt>
      <trkpt lat="46.47979" lon="3.89592">
        <ele>225.8</ele>
        <time>2019-08-20T11:35:23Z</time>
      </trkpt>
      <trkpt lat="46.47978" lon="3.89587">
        <ele>225.7</ele>
        <time>2019-08-20T11:35:24Z</time>
      </trkpt>
      <trkpt lat="46.47978" lon="3.89582">
        <ele>225.7</ele>
        <time>2019-08-20T11:35:25Z</time>
      </trkpt>
      <trkpt lat="46.47977" lon="3.89576">
        <ele>225.7</ele>
        <time>2019-08-20T11:35:26Z</time>
      </trkpt>
      <trkpt lat="46.47976" lon="3.8957">
        <ele>225.7</ele>
        <time>2019-08-20T11:35:27Z</time>
      </trkpt>
      <trkpt lat="46.47975" lon="3.89565">
        <ele>225.7</ele>
        <time>2019-08-20T11:35:28Z</time>
      </trkpt>
      <trkpt lat="46.47975" lon="3.89559">
        <ele>225.7</ele>
        <time>2019-08-20T11:35:29Z</time>
      </trkpt>
      <trkpt lat="46.47974" lon="3.89552">
        <ele>225.7</ele>
        <time>2019-08-20T11:35:30Z</time>
      </trkpt>
      <trkpt lat="46.47973" lon="3.89547">
        <ele>225.7</ele>
        <time>2019-08-20T11:35:31Z</time>
      </trkpt>
      <trkpt lat="46.47971" lon="3.89541">
        <ele>225.7</ele>
        <time>2019-08-20T11:35:32Z</time>
      </trkpt>
      <trkpt lat="46.4797" lon="3.89535">
        <ele>225.7</ele>
        <time>2019-08-20T11:35:33Z</time>
      </trkpt>
      <trkpt lat="46.47968" lon="3.89529">
        <ele>225.7</ele>
        <time>2019-08-20T11:35:34Z</time>
      </trkpt>
      <trkpt lat="46.47968" lon="3.89522">
        <ele>225.7</ele>
        <time>2019-08-20T11:35:35Z</time>
      </trkpt>
      <trkpt lat="46.47967" lon="3.89516">
        <ele>225.7</ele>
        <time>2019-08-20T11:35:36Z</time>
      </trkpt>
      <trkpt lat="46.47966" lon="3.89509">
        <ele>225.7</ele>
        <time>2019-08-20T11:35:37Z</time>
      </trkpt>
      <trkpt lat="46.47964" lon="3.89503">
        <ele>225.7</ele>
        <time>2019-08-20T11:35:38Z</time>
      </trkpt>
      <trkpt lat="46.47963" lon="3.89497">
        <ele>225.7</ele>
        <time>2019-08-20T11:35:39Z</time>
      </trkpt>
      <trkpt lat="46.47962" lon="3.89491">
        <ele>225.7</ele>
        <time>2019-08-20T11:35:40Z</time>
      </trkpt>
      <trkpt lat="46.4796" lon="3.89486">
        <ele>225.7</ele>
        <time>2019-08-20T11:35:41Z</time>
      </trkpt>
      <trkpt lat="46.4796" lon="3.8948">
        <ele>225.7</ele>
        <time>2019-08-20T11:35:42Z</time>
      </trkpt>
      <trkpt lat="46.47958" lon="3.89474">
        <ele>225.8</ele>
        <time>2019-08-20T11:35:43Z</time>
      </trkpt>
      <trkpt lat="46.47957" lon="3.89468">
        <ele>225.8</ele>
        <time>2019-08-20T11:35:44Z</time>
      </trkpt>
      <trkpt lat="46.47956" lon="3.89461">
        <ele>225.9</ele>
        <time>2019-08-20T11:35:45Z</time>
      </trkpt>
      <trkpt lat="46.47954" lon="3.89455">
        <ele>225.9</ele>
        <time>2019-08-20T11:35:46Z</time>
      </trkpt>
      <trkpt lat="46.47952" lon="3.89449">
        <ele>226</ele>
        <time>2019-08-20T11:35:47Z</time>
      </trkpt>
      <trkpt lat="46.47951" lon="3.89443">
        <ele>226.1</ele>
        <time>2019-08-20T11:35:48Z</time>
      </trkpt>
      <trkpt lat="46.4795" lon="3.89437">
        <ele>226.2</ele>
        <time>2019-08-20T11:35:49Z</time>
      </trkpt>
      <trkpt lat="46.47949" lon="3.8943">
        <ele>226.3</ele>
        <time>2019-08-20T11:35:50Z</time>
      </trkpt>
      <trkpt lat="46.47948" lon="3.89424">
        <ele>226.5</ele>
        <time>2019-08-20T11:35:51Z</time>
      </trkpt>
      <trkpt lat="46.47947" lon="3.89417">
        <ele>226.6</ele>
        <time>2019-08-20T11:35:52Z</time>
      </trkpt>
      <trkpt lat="46.47945" lon="3.8941">
        <ele>226.7</ele>
        <time>2019-08-20T11:35:53Z</time>
      </trkpt>
      <trkpt lat="46.47943" lon="3.89404">
        <ele>226.8</ele>
        <time>2019-08-20T11:35:54Z</time>
      </trkpt>
      <trkpt lat="46.47942" lon="3.89398">
        <ele>226.9</ele>
        <time>2019-08-20T11:35:55Z</time>
      </trkpt>
      <trkpt lat="46.4794" lon="3.89393">
        <ele>227</ele>
        <time>2019-08-20T11:35:56Z</time>
      </trkpt>
      <trkpt lat="46.47939" lon="3.89385">
        <ele>227.1</ele>
        <time>2019-08-20T11:35:57Z</time>
      </trkpt>
      <trkpt lat="46.47938" lon="3.89378">
        <ele>227.1</ele>
        <time>2019-08-20T11:35:58Z</time>
      </trkpt>
      <trkpt lat="46.47937" lon="3.89371">
        <ele>227.2</ele>
        <time>2019-08-20T11:35:59Z</time>
      </trkpt>
      <trkpt lat="46.47936" lon="3.89365">
        <ele>227.2</ele>
        <time>2019-08-20T11:36:00Z</time>
      </trkpt>
      <trkpt lat="46.47936" lon="3.89359">
        <ele>227.2</ele>
        <time>2019-08-20T11:36:01Z</time>
      </trkpt>
      <trkpt lat="46.47935" lon="3.89353">
        <ele>227.2</ele>
        <time>2019-08-20T11:36:02Z</time>
      </trkpt>
      <trkpt lat="46.47935" lon="3.89347">
        <ele>227.3</ele>
        <time>2019-08-20T11:36:03Z</time>
      </trkpt>
      <trkpt lat="46.47934" lon="3.89341">
        <ele>227.3</ele>
        <time>2019-08-20T11:36:04Z</time>
      </trkpt>
      <trkpt lat="46.47933" lon="3.89335">
        <ele>227.3</ele>
        <time>2019-08-20T11:36:05Z</time>
      </trkpt>
      <trkpt lat="46.47932" lon="3.89329">
        <ele>227.3</ele>
        <time>2019-08-20T11:36:06Z</time>
      </trkpt>
      <trkpt lat="46.47931" lon="3.89323">
        <ele>227.4</ele>
        <time>2019-08-20T11:36:07Z</time>
      </trkpt>
      <trkpt lat="46.4793" lon="3.89317">
        <ele>227.4</ele>
        <time>2019-08-20T11:36:08Z</time>
      </trkpt>
      <trkpt lat="46.47928" lon="3.89311">
        <ele>227.4</ele>
        <time>2019-08-20T11:36:09Z</time>
      </trkpt>
      <trkpt lat="46.47926" lon="3.89306">
        <ele>227.4</ele>
        <time>2019-08-20T11:36:10Z</time>
      </trkpt>
      <trkpt lat="46.47927" lon="3.89299">
        <ele>227.5</ele>
        <time>2019-08-20T11:36:11Z</time>
      </trkpt>
      <trkpt lat="46.47926" lon="3.89293">
        <ele>227.5</ele>
        <time>2019-08-20T11:36:12Z</time>
      </trkpt>
      <trkpt lat="46.47925" lon="3.89287">
        <ele>227.6</ele>
        <time>2019-08-20T11:36:13Z</time>
      </trkpt>
      <trkpt lat="46.47925" lon="3.89281">
        <ele>227.7</ele>
        <time>2019-08-20T11:36:14Z</time>
      </trkpt>
      <trkpt lat="46.47923" lon="3.89275">
        <ele>227.7</ele>
        <time>2019-08-20T11:36:15Z</time>
      </trkpt>
      <trkpt lat="46.47921" lon="3.89269">
        <ele>227.7</ele>
        <time>2019-08-20T11:36:16Z</time>
      </trkpt>
      <trkpt lat="46.4792" lon="3.89263">
        <ele>227.8</ele>
        <time>2019-08-20T11:36:17Z</time>
      </trkpt>
      <trkpt lat="46.47919" lon="3.89257">
        <ele>227.8</ele>
        <time>2019-08-20T11:36:18Z</time>
      </trkpt>
      <trkpt lat="46.47918" lon="3.89251">
        <ele>227.9</ele>
        <time>2019-08-20T11:36:19Z</time>
      </trkpt>
      <trkpt lat="46.47916" lon="3.89244">
        <ele>227.9</ele>
        <time>2019-08-20T11:36:20Z</time>
      </trkpt>
      <trkpt lat="46.47915" lon="3.89238">
        <ele>227.9</ele>
        <time>2019-08-20T11:36:21Z</time>
      </trkpt>
      <trkpt lat="46.47913" lon="3.89232">
        <ele>228</ele>
        <time>2019-08-20T11:36:22Z</time>
      </trkpt>
      <trkpt lat="46.47911" lon="3.89226">
        <ele>228.1</ele>
        <time>2019-08-20T11:36:23Z</time>
      </trkpt>
      <trkpt lat="46.47909" lon="3.8922">
        <ele>228.2</ele>
        <time>2019-08-20T11:36:24Z</time>
      </trkpt>
      <trkpt lat="46.47907" lon="3.89214">
        <ele>228.3</ele>
        <time>2019-08-20T11:36:25Z</time>
      </trkpt>
      <trkpt lat="46.47905" lon="3.89201">
        <ele>228.6</ele>
        <time>2019-08-20T11:36:27Z</time>
      </trkpt>
      <trkpt lat="46.47905" lon="3.89196">
        <ele>228.6</ele>
        <time>2019-08-20T11:36:28Z</time>
      </trkpt>
      <trkpt lat="46.47905" lon="3.89191">
        <ele>228.7</ele>
        <time>2019-08-20T11:36:29Z</time>
      </trkpt>
      <trkpt lat="46.47908" lon="3.89186">
        <ele>228.8</ele>
        <time>2019-08-20T11:36:30Z</time>
      </trkpt>
      <trkpt lat="46.47909" lon="3.8918">
        <ele>229</ele>
        <time>2019-08-20T11:36:31Z</time>
      </trkpt>
      <trkpt lat="46.4791" lon="3.89175">
        <ele>229</ele>
        <time>2019-08-20T11:36:32Z</time>
      </trkpt>
      <trkpt lat="46.4791" lon="3.89169">
        <ele>229.1</ele>
        <time>2019-08-20T11:36:33Z</time>
      </trkpt>
      <trkpt lat="46.47911" lon="3.89161">
        <ele>229.3</ele>
        <time>2019-08-20T11:36:35Z</time>
      </trkpt>
      <trkpt lat="46.4791" lon="3.89157">
        <ele>229.4</ele>
        <time>2019-08-20T11:36:36Z</time>
      </trkpt>
      <trkpt lat="46.4791" lon="3.8915">
        <ele>229.5</ele>
        <time>2019-08-20T11:36:38Z</time>
      </trkpt>
      <trkpt lat="46.47912" lon="3.89148">
        <ele>229.5</ele>
        <time>2019-08-20T11:36:40Z</time>
      </trkpt>
      <trkpt lat="46.47914" lon="3.89143">
        <ele>229.6</ele>
        <time>2019-08-20T11:36:42Z</time>
      </trkpt>
      <trkpt lat="46.47914" lon="3.89136">
        <ele>229.7</ele>
        <time>2019-08-20T11:36:44Z</time>
      </trkpt>
      <trkpt lat="46.47916" lon="3.89128">
        <ele>229.9</ele>
        <time>2019-08-20T11:36:46Z</time>
      </trkpt>
      <trkpt lat="46.47915" lon="3.89121">
        <ele>230.2</ele>
        <time>2019-08-20T11:36:48Z</time>
      </trkpt>
      <trkpt lat="46.47916" lon="3.89115">
        <ele>230.3</ele>
        <time>2019-08-20T11:36:49Z</time>
      </trkpt>
      <trkpt lat="46.47916" lon="3.8911">
        <ele>230.5</ele>
        <time>2019-08-20T11:36:50Z</time>
      </trkpt>
      <trkpt lat="46.47916" lon="3.89106">
        <ele>230.6</ele>
        <time>2019-08-20T11:36:51Z</time>
      </trkpt>
      <trkpt lat="46.47916" lon="3.89102">
        <ele>230.7</ele>
        <time>2019-08-20T11:36:52Z</time>
      </trkpt>
      <trkpt lat="46.47917" lon="3.89097">
        <ele>230.8</ele>
        <time>2019-08-20T11:36:53Z</time>
      </trkpt>
      <trkpt lat="46.47918" lon="3.89092">
        <ele>231</ele>
        <time>2019-08-20T11:36:54Z</time>
      </trkpt>
      <trkpt lat="46.47918" lon="3.89087">
        <ele>231.1</ele>
        <time>2019-08-20T11:36:55Z</time>
      </trkpt>
      <trkpt lat="46.47919" lon="3.89081">
        <ele>231.3</ele>
        <time>2019-08-20T11:36:56Z</time>
      </trkpt>
      <trkpt lat="46.47919" lon="3.89075">
        <ele>231.4</ele>
        <time>2019-08-20T11:36:57Z</time>
      </trkpt>
      <trkpt lat="46.47918" lon="3.89068">
        <ele>231.6</ele>
        <time>2019-08-20T11:36:58Z</time>
      </trkpt>
      <trkpt lat="46.47918" lon="3.89062">
        <ele>231.7</ele>
        <time>2019-08-20T11:36:59Z</time>
      </trkpt>
      <trkpt lat="46.47919" lon="3.89056">
        <ele>231.8</ele>
        <time>2019-08-20T11:37:00Z</time>
      </trkpt>
      <trkpt lat="46.47919" lon="3.8905">
        <ele>231.9</ele>
        <time>2019-08-20T11:37:01Z</time>
      </trkpt>
      <trkpt lat="46.47919" lon="3.89042">
        <ele>232.1</ele>
        <time>2019-08-20T11:37:02Z</time>
      </trkpt>
      <trkpt lat="46.47919" lon="3.89036">
        <ele>232.2</ele>
        <time>2019-08-20T11:37:03Z</time>
      </trkpt>
      <trkpt lat="46.47918" lon="3.89031">
        <ele>232.4</ele>
        <time>2019-08-20T11:37:04Z</time>
      </trkpt>
      <trkpt lat="46.47918" lon="3.89024">
        <ele>232.7</ele>
        <time>2019-08-20T11:37:05Z</time>
      </trkpt>
      <trkpt lat="46.47919" lon="3.89018">
        <ele>232.9</ele>
        <time>2019-08-20T11:37:06Z</time>
      </trkpt>
      <trkpt lat="46.4792" lon="3.89012">
        <ele>233.2</ele>
        <time>2019-08-20T11:37:07Z</time>
      </trkpt>
      <trkpt lat="46.4792" lon="3.89005">
        <ele>233.5</ele>
        <time>2019-08-20T11:37:08Z</time>
      </trkpt>
      <trkpt lat="46.47921" lon="3.89">
        <ele>233.7</ele>
        <time>2019-08-20T11:37:09Z</time>
      </trkpt>
      <trkpt lat="46.47922" lon="3.88994">
        <ele>234</ele>
        <time>2019-08-20T11:37:10Z</time>
      </trkpt>
      <trkpt lat="46.47922" lon="3.88989">
        <ele>234.2</ele>
        <time>2019-08-20T11:37:11Z</time>
      </trkpt>
      <trkpt lat="46.47922" lon="3.88983">
        <ele>234.4</ele>
        <time>2019-08-20T11:37:12Z</time>
      </trkpt>
      <trkpt lat="46.47923" lon="3.88979">
        <ele>234.7</ele>
        <time>2019-08-20T11:37:13Z</time>
      </trkpt>
      <trkpt lat="46.47923" lon="3.88975">
        <ele>234.9</ele>
        <time>2019-08-20T11:37:14Z</time>
      </trkpt>
      <trkpt lat="46.47924" lon="3.8897">
        <ele>235.1</ele>
        <time>2019-08-20T11:37:15Z</time>
      </trkpt>
      <trkpt lat="46.47925" lon="3.88962">
        <ele>235.5</ele>
        <time>2019-08-20T11:37:17Z</time>
      </trkpt>
      <trkpt lat="46.47927" lon="3.88956">
        <ele>235.9</ele>
        <time>2019-08-20T11:37:19Z</time>
      </trkpt>
      <trkpt lat="46.47927" lon="3.88951">
        <ele>236.1</ele>
        <time>2019-08-20T11:37:21Z</time>
      </trkpt>
      <trkpt lat="46.47926" lon="3.88947">
        <ele>236.4</ele>
        <time>2019-08-20T11:37:23Z</time>
      </trkpt>
      <trkpt lat="46.47924" lon="3.88951">
        <ele>236.1</ele>
        <time>2019-08-20T11:37:29Z</time>
      </trkpt>
      <trkpt lat="46.47923" lon="3.88955">
        <ele>236.1</ele>
        <time>2019-08-20T11:37:33Z</time>
      </trkpt>
      <trkpt lat="46.47921" lon="3.88953">
        <ele>236.1</ele>
        <time>2019-08-20T11:37:39Z</time>
      </trkpt>
      <trkpt lat="46.4792" lon="3.88949">
        <ele>236.1</ele>
        <time>2019-08-20T11:37:45Z</time>
      </trkpt>
      <trkpt lat="46.47927" lon="3.88951">
        <ele>236.1</ele>
        <time>2019-08-20T13:05:02Z</time>
      </trkpt>
      <trkpt lat="46.47928" lon="3.88944">
        <ele>236.6</ele>
        <time>2019-08-20T13:05:05Z</time>
      </trkpt>
      <trkpt lat="46.47929" lon="3.8894">
        <ele>236.8</ele>
        <time>2019-08-20T13:05:06Z</time>
      </trkpt>
      <trkpt lat="46.4793" lon="3.88932">
        <ele>237.3</ele>
        <time>2019-08-20T13:05:08Z</time>
      </trkpt>
      <trkpt lat="46.47931" lon="3.88927">
        <ele>237.7</ele>
        <time>2019-08-20T13:05:10Z</time>
      </trkpt>
      <trkpt lat="46.47932" lon="3.88924">
        <ele>237.9</ele>
        <time>2019-08-20T13:05:12Z</time>
      </trkpt>
      <trkpt lat="46.47933" lon="3.8892">
        <ele>238.2</ele>
        <time>2019-08-20T13:05:13Z</time>
      </trkpt>
      <trkpt lat="46.47934" lon="3.88912">
        <ele>238.7</ele>
        <time>2019-08-20T13:05:15Z</time>
      </trkpt>
      <trkpt lat="46.47935" lon="3.88905">
        <ele>239.1</ele>
        <time>2019-08-20T13:05:17Z</time>
      </trkpt>
      <trkpt lat="46.47935" lon="3.88901">
        <ele>239.6</ele>
        <time>2019-08-20T13:05:18Z</time>
      </trkpt>
      <trkpt lat="46.47935" lon="3.88896">
        <ele>239.6</ele>
        <time>2019-08-20T13:05:19Z</time>
      </trkpt>
      <trkpt lat="46.47936" lon="3.88892">
        <ele>239.6</ele>
        <time>2019-08-20T13:05:20Z</time>
      </trkpt>
      <trkpt lat="46.47937" lon="3.88887">
        <ele>239.5</ele>
        <time>2019-08-20T13:05:21Z</time>
      </trkpt>
      <trkpt lat="46.47938" lon="3.88883">
        <ele>239.5</ele>
        <time>2019-08-20T13:05:22Z</time>
      </trkpt>
      <trkpt lat="46.47939" lon="3.88878">
        <ele>239.4</ele>
        <time>2019-08-20T13:05:23Z</time>
      </trkpt>
      <trkpt lat="46.47941" lon="3.88874">
        <ele>239.4</ele>
        <time>2019-08-20T13:05:24Z</time>
      </trkpt>
      <trkpt lat="46.47942" lon="3.88869">
        <ele>239.4</ele>
        <time>2019-08-20T13:05:25Z</time>
      </trkpt>
      <trkpt lat="46.47943" lon="3.88864">
        <ele>239.3</ele>
        <time>2019-08-20T13:05:26Z</time>
      </trkpt>
      <trkpt lat="46.47944" lon="3.88859">
        <ele>239.3</ele>
        <time>2019-08-20T13:05:27Z</time>
      </trkpt>
      <trkpt lat="46.47945" lon="3.88854">
        <ele>239.3</ele>
        <time>2019-08-20T13:05:28Z</time>
      </trkpt>
      <trkpt lat="46.47947" lon="3.88849">
        <ele>239.3</ele>
        <time>2019-08-20T13:05:29Z</time>
      </trkpt>
      <trkpt lat="46.47949" lon="3.88845">
        <ele>239.3</ele>
        <time>2019-08-20T13:05:30Z</time>
      </trkpt>
      <trkpt lat="46.47952" lon="3.88841">
        <ele>239.3</ele>
        <time>2019-08-20T13:05:31Z</time>
      </trkpt>
      <trkpt lat="46.47953" lon="3.88837">
        <ele>239.3</ele>
        <time>2019-08-20T13:05:32Z</time>
      </trkpt>
      <trkpt lat="46.47954" lon="3.88831">
        <ele>239.3</ele>
        <time>2019-08-20T13:05:33Z</time>
      </trkpt>
      <trkpt lat="46.47956" lon="3.88826">
        <ele>239.3</ele>
        <time>2019-08-20T13:05:34Z</time>
      </trkpt>
      <trkpt lat="46.47957" lon="3.8882">
        <ele>239.3</ele>
        <time>2019-08-20T13:05:35Z</time>
      </trkpt>
      <trkpt lat="46.47959" lon="3.88815">
        <ele>239.4</ele>
        <time>2019-08-20T13:05:36Z</time>
      </trkpt>
      <trkpt lat="46.47959" lon="3.8881">
        <ele>239.4</ele>
        <time>2019-08-20T13:05:37Z</time>
      </trkpt>
      <trkpt lat="46.47961" lon="3.88803">
        <ele>239.3</ele>
        <time>2019-08-20T13:05:38Z</time>
      </trkpt>
      <trkpt lat="46.47962" lon="3.88797">
        <ele>239.3</ele>
        <time>2019-08-20T13:05:39Z</time>
      </trkpt>
      <trkpt lat="46.47964" lon="3.88791">
        <ele>239.3</ele>
        <time>2019-08-20T13:05:40Z</time>
      </trkpt>
      <trkpt lat="46.47965" lon="3.88786">
        <ele>239.3</ele>
        <time>2019-08-20T13:05:41Z</time>
      </trkpt>
      <trkpt lat="46.47966" lon="3.8878">
        <ele>239.2</ele>
        <time>2019-08-20T13:05:42Z</time>
      </trkpt>
      <trkpt lat="46.47967" lon="3.88776">
        <ele>239.1</ele>
        <time>2019-08-20T13:05:43Z</time>
      </trkpt>
      <trkpt lat="46.47969" lon="3.88771">
        <ele>239</ele>
        <time>2019-08-20T13:05:44Z</time>
      </trkpt>
      <trkpt lat="46.4797" lon="3.88765">
        <ele>238.9</ele>
        <time>2019-08-20T13:05:45Z</time>
      </trkpt>
      <trkpt lat="46.47971" lon="3.88759">
        <ele>238.8</ele>
        <time>2019-08-20T13:05:46Z</time>
      </trkpt>
      <trkpt lat="46.47973" lon="3.88752">
        <ele>238.6</ele>
        <time>2019-08-20T13:05:47Z</time>
      </trkpt>
      <trkpt lat="46.47975" lon="3.88746">
        <ele>238.5</ele>
        <time>2019-08-20T13:05:48Z</time>
      </trkpt>
      <trkpt lat="46.47978" lon="3.8874">
        <ele>238.3</ele>
        <time>2019-08-20T13:05:49Z</time>
      </trkpt>
      <trkpt lat="46.4798" lon="3.88733">
        <ele>238.1</ele>
        <time>2019-08-20T13:05:50Z</time>
      </trkpt>
      <trkpt lat="46.47982" lon="3.88726">
        <ele>237.8</ele>
        <time>2019-08-20T13:05:51Z</time>
      </trkpt>
      <trkpt lat="46.47984" lon="3.88719">
        <ele>237.5</ele>
        <time>2019-08-20T13:05:52Z</time>
      </trkpt>
      <trkpt lat="46.47986" lon="3.88713">
        <ele>237.3</ele>
        <time>2019-08-20T13:05:53Z</time>
      </trkpt>
      <trkpt lat="46.47989" lon="3.88706">
        <ele>237.1</ele>
        <time>2019-08-20T13:05:54Z</time>
      </trkpt>
      <trkpt lat="46.47992" lon="3.88699">
        <ele>236.8</ele>
        <time>2019-08-20T13:05:55Z</time>
      </trkpt>
      <trkpt lat="46.47995" lon="3.88693">
        <ele>236.6</ele>
        <time>2019-08-20T13:05:56Z</time>
      </trkpt>
      <trkpt lat="46.47997" lon="3.88686">
        <ele>236.4</ele>
        <time>2019-08-20T13:05:57Z</time>
      </trkpt>
      <trkpt lat="46.47999" lon="3.88679">
        <ele>236.2</ele>
        <time>2019-08-20T13:05:58Z</time>
      </trkpt>
      <trkpt lat="46.48001" lon="3.88673">
        <ele>235.9</ele>
        <time>2019-08-20T13:05:59Z</time>
      </trkpt>
      <trkpt lat="46.48004" lon="3.88666">
        <ele>235.6</ele>
        <time>2019-08-20T13:06:00Z</time>
      </trkpt>
      <trkpt lat="46.48006" lon="3.88659">
        <ele>235.4</ele>
        <time>2019-08-20T13:06:01Z</time>
      </trkpt>
      <trkpt lat="46.48009" lon="3.88653">
        <ele>235.2</ele>
        <time>2019-08-20T13:06:02Z</time>
      </trkpt>
      <trkpt lat="46.48012" lon="3.88647">
        <ele>235.1</ele>
        <time>2019-08-20T13:06:03Z</time>
      </trkpt>
      <trkpt lat="46.48014" lon="3.8864">
        <ele>234.9</ele>
        <time>2019-08-20T13:06:04Z</time>
      </trkpt>
      <trkpt lat="46.48017" lon="3.88633">
        <ele>234.7</ele>
        <time>2019-08-20T13:06:05Z</time>
      </trkpt>
      <trkpt lat="46.4802" lon="3.88625">
        <ele>234.6</ele>
        <time>2019-08-20T13:06:06Z</time>
      </trkpt>
      <trkpt lat="46.48022" lon="3.88618">
        <ele>234.4</ele>
        <time>2019-08-20T13:06:07Z</time>
      </trkpt>
      <trkpt lat="46.48024" lon="3.8861">
        <ele>234.3</ele>
        <time>2019-08-20T13:06:08Z</time>
      </trkpt>
      <trkpt lat="46.48026" lon="3.88603">
        <ele>234.2</ele>
        <time>2019-08-20T13:06:09Z</time>
      </trkpt>
      <trkpt lat="46.48028" lon="3.88595">
        <ele>234.1</ele>
        <time>2019-08-20T13:06:10Z</time>
      </trkpt>
      <trkpt lat="46.48029" lon="3.88588">
        <ele>234</ele>
        <time>2019-08-20T13:06:11Z</time>
      </trkpt>
      <trkpt lat="46.48032" lon="3.88581">
        <ele>234</ele>
        <time>2019-08-20T13:06:12Z</time>
      </trkpt>
      <trkpt lat="46.48034" lon="3.88574">
        <ele>234</ele>
        <time>2019-08-20T13:06:13Z</time>
      </trkpt>
      <trkpt lat="46.48036" lon="3.88567">
        <ele>234</ele>
        <time>2019-08-20T13:06:14Z</time>
      </trkpt>
      <trkpt lat="46.48038" lon="3.88561">
        <ele>234</ele>
        <time>2019-08-20T13:06:15Z</time>
      </trkpt>
      <trkpt lat="46.4804" lon="3.88554">
        <ele>234.1</ele>
        <time>2019-08-20T13:06:16Z</time>
      </trkpt>
      <trkpt lat="46.48042" lon="3.88548">
        <ele>234.1</ele>
        <time>2019-08-20T13:06:17Z</time>
      </trkpt>
      <trkpt lat="46.48043" lon="3.88541">
        <ele>234.2</ele>
        <time>2019-08-20T13:06:18Z</time>
      </trkpt>
      <trkpt lat="46.48044" lon="3.88533">
        <ele>234.2</ele>
        <time>2019-08-20T13:06:19Z</time>
      </trkpt>
      <trkpt lat="46.48045" lon="3.88526">
        <ele>234.3</ele>
        <time>2019-08-20T13:06:20Z</time>
      </trkpt>
      <trkpt lat="46.48046" lon="3.88519">
        <ele>234.3</ele>
        <time>2019-08-20T13:06:21Z</time>
      </trkpt>
      <trkpt lat="46.48047" lon="3.88512">
        <ele>234.3</ele>
        <time>2019-08-20T13:06:22Z</time>
      </trkpt>
      <trkpt lat="46.48048" lon="3.88505">
        <ele>234.3</ele>
        <time>2019-08-20T13:06:23Z</time>
      </trkpt>
      <trkpt lat="46.48049" lon="3.88498">
        <ele>234.4</ele>
        <time>2019-08-20T13:06:24Z</time>
      </trkpt>
      <trkpt lat="46.48051" lon="3.88492">
        <ele>234.4</ele>
        <time>2019-08-20T13:06:25Z</time>
      </trkpt>
      <trkpt lat="46.48052" lon="3.88485">
        <ele>234.4</ele>
        <time>2019-08-20T13:06:26Z</time>
      </trkpt>
      <trkpt lat="46.48053" lon="3.88478">
        <ele>234.4</ele>
        <time>2019-08-20T13:06:27Z</time>
      </trkpt>
      <trkpt lat="46.48054" lon="3.88472">
        <ele>234.4</ele>
        <time>2019-08-20T13:06:28Z</time>
      </trkpt>
      <trkpt lat="46.48055" lon="3.88465">
        <ele>234.4</ele>
        <time>2019-08-20T13:06:29Z</time>
      </trkpt>
      <trkpt lat="46.48057" lon="3.88458">
        <ele>234.3</ele>
        <time>2019-08-20T13:06:30Z</time>
      </trkpt>
      <trkpt lat="46.48057" lon="3.88452">
        <ele>234.3</ele>
        <time>2019-08-20T13:06:31Z</time>
      </trkpt>
      <trkpt lat="46.48058" lon="3.88446">
        <ele>234.3</ele>
        <time>2019-08-20T13:06:32Z</time>
      </trkpt>
      <trkpt lat="46.4806" lon="3.88439">
        <ele>234.3</ele>
        <time>2019-08-20T13:06:33Z</time>
      </trkpt>
      <trkpt lat="46.48062" lon="3.88431">
        <ele>234.2</ele>
        <time>2019-08-20T13:06:34Z</time>
      </trkpt>
      <trkpt lat="46.48063" lon="3.88425">
        <ele>234.2</ele>
        <time>2019-08-20T13:06:35Z</time>
      </trkpt>
      <trkpt lat="46.48064" lon="3.88419">
        <ele>234.1</ele>
        <time>2019-08-20T13:06:36Z</time>
      </trkpt>
      <trkpt lat="46.48064" lon="3.88412">
        <ele>234.1</ele>
        <time>2019-08-20T13:06:37Z</time>
      </trkpt>
      <trkpt lat="46.48064" lon="3.88406">
        <ele>234</ele>
        <time>2019-08-20T13:06:38Z</time>
      </trkpt>
      <trkpt lat="46.48065" lon="3.88399">
        <ele>233.9</ele>
        <time>2019-08-20T13:06:39Z</time>
      </trkpt>
      <trkpt lat="46.48066" lon="3.88392">
        <ele>233.8</ele>
        <time>2019-08-20T13:06:40Z</time>
      </trkpt>
      <trkpt lat="46.48066" lon="3.88385">
        <ele>233.8</ele>
        <time>2019-08-20T13:06:41Z</time>
      </trkpt>
      <trkpt lat="46.48066" lon="3.88379">
        <ele>233.7</ele>
        <time>2019-08-20T13:06:42Z</time>
      </trkpt>
      <trkpt lat="46.48067" lon="3.88373">
        <ele>233.6</ele>
        <time>2019-08-20T13:06:43Z</time>
      </trkpt>
      <trkpt lat="46.48067" lon="3.88367">
        <ele>233.5</ele>
        <time>2019-08-20T13:06:44Z</time>
      </trkpt>
      <trkpt lat="46.48068" lon="3.8836">
        <ele>233.4</ele>
        <time>2019-08-20T13:06:45Z</time>
      </trkpt>
      <trkpt lat="46.48069" lon="3.88354">
        <ele>233.3</ele>
        <time>2019-08-20T13:06:46Z</time>
      </trkpt>
      <trkpt lat="46.48069" lon="3.88348">
        <ele>233.3</ele>
        <time>2019-08-20T13:06:47Z</time>
      </trkpt>
      <trkpt lat="46.48069" lon="3.88342">
        <ele>233.2</ele>
        <time>2019-08-20T13:06:48Z</time>
      </trkpt>
      <trkpt lat="46.48069" lon="3.88336">
        <ele>233.1</ele>
        <time>2019-08-20T13:06:49Z</time>
      </trkpt>
      <trkpt lat="46.4807" lon="3.8833">
        <ele>233</ele>
        <time>2019-08-20T13:06:50Z</time>
      </trkpt>
      <trkpt lat="46.48071" lon="3.88324">
        <ele>232.9</ele>
        <time>2019-08-20T13:06:51Z</time>
      </trkpt>
      <trkpt lat="46.48071" lon="3.88318">
        <ele>232.8</ele>
        <time>2019-08-20T13:06:52Z</time>
      </trkpt>
      <trkpt lat="46.48072" lon="3.8831">
        <ele>232.6</ele>
        <time>2019-08-20T13:06:53Z</time>
      </trkpt>
      <trkpt lat="46.48072" lon="3.88303">
        <ele>232.5</ele>
        <time>2019-08-20T13:06:54Z</time>
      </trkpt>
      <trkpt lat="46.48072" lon="3.88295">
        <ele>232.4</ele>
        <time>2019-08-20T13:06:55Z</time>
      </trkpt>
      <trkpt lat="46.48071" lon="3.88289">
        <ele>232.3</ele>
        <time>2019-08-20T13:06:56Z</time>
      </trkpt>
      <trkpt lat="46.48071" lon="3.88281">
        <ele>232.2</ele>
        <time>2019-08-20T13:06:57Z</time>
      </trkpt>
      <trkpt lat="46.48071" lon="3.88275">
        <ele>232.1</ele>
        <time>2019-08-20T13:06:58Z</time>
      </trkpt>
      <trkpt lat="46.48072" lon="3.88268">
        <ele>232</ele>
        <time>2019-08-20T13:06:59Z</time>
      </trkpt>
      <trkpt lat="46.48072" lon="3.88262">
        <ele>231.9</ele>
        <time>2019-08-20T13:07:00Z</time>
      </trkpt>
      <trkpt lat="46.48072" lon="3.88256">
        <ele>231.8</ele>
        <time>2019-08-20T13:07:01Z</time>
      </trkpt>
      <trkpt lat="46.48073" lon="3.88248">
        <ele>231.6</ele>
        <time>2019-08-20T13:07:02Z</time>
      </trkpt>
      <trkpt lat="46.48073" lon="3.88241">
        <ele>231.5</ele>
        <time>2019-08-20T13:07:03Z</time>
      </trkpt>
      <trkpt lat="46.48072" lon="3.88235">
        <ele>231.4</ele>
        <time>2019-08-20T13:07:04Z</time>
      </trkpt>
      <trkpt lat="46.48073" lon="3.88226">
        <ele>231.3</ele>
        <time>2019-08-20T13:07:05Z</time>
      </trkpt>
      <trkpt lat="46.48072" lon="3.88219">
        <ele>231.2</ele>
        <time>2019-08-20T13:07:06Z</time>
      </trkpt>
      <trkpt lat="46.48072" lon="3.88212">
        <ele>231.2</ele>
        <time>2019-08-20T13:07:07Z</time>
      </trkpt>
      <trkpt lat="46.48072" lon="3.88206">
        <ele>231.1</ele>
        <time>2019-08-20T13:07:08Z</time>
      </trkpt>
      <trkpt lat="46.48071" lon="3.88199">
        <ele>231.1</ele>
        <time>2019-08-20T13:07:09Z</time>
      </trkpt>
      <trkpt lat="46.48071" lon="3.88193">
        <ele>231</ele>
        <time>2019-08-20T13:07:10Z</time>
      </trkpt>
      <trkpt lat="46.4807" lon="3.88187">
        <ele>231</ele>
        <time>2019-08-20T13:07:11Z</time>
      </trkpt>
      <trkpt lat="46.4807" lon="3.88182">
        <ele>231</ele>
        <time>2019-08-20T13:07:12Z</time>
      </trkpt>
      <trkpt lat="46.4807" lon="3.88175">
        <ele>231</ele>
        <time>2019-08-20T13:07:13Z</time>
      </trkpt>
      <trkpt lat="46.4807" lon="3.88167">
        <ele>231</ele>
        <time>2019-08-20T13:07:14Z</time>
      </trkpt>
      <trkpt lat="46.4807" lon="3.8816">
        <ele>231</ele>
        <time>2019-08-20T13:07:15Z</time>
      </trkpt>
      <trkpt lat="46.4807" lon="3.88154">
        <ele>231</ele>
        <time>2019-08-20T13:07:16Z</time>
      </trkpt>
      <trkpt lat="46.4807" lon="3.88148">
        <ele>231</ele>
        <time>2019-08-20T13:07:17Z</time>
      </trkpt>
      <trkpt lat="46.4807" lon="3.88142">
        <ele>231</ele>
        <time>2019-08-20T13:07:18Z</time>
      </trkpt>
      <trkpt lat="46.48069" lon="3.88135">
        <ele>231</ele>
        <time>2019-08-20T13:07:19Z</time>
      </trkpt>
      <trkpt lat="46.48069" lon="3.88129">
        <ele>231</ele>
        <time>2019-08-20T13:07:20Z</time>
      </trkpt>
      <trkpt lat="46.48069" lon="3.88123">
        <ele>231</ele>
        <time>2019-08-20T13:07:21Z</time>
      </trkpt>
      <trkpt lat="46.48069" lon="3.88117">
        <ele>231</ele>
        <time>2019-08-20T13:07:22Z</time>
      </trkpt>
      <trkpt lat="46.48069" lon="3.88112">
        <ele>231</ele>
        <time>2019-08-20T13:07:23Z</time>
      </trkpt>
      <trkpt lat="46.48069" lon="3.88106">
        <ele>231</ele>
        <time>2019-08-20T13:07:24Z</time>
      </trkpt>
      <trkpt lat="46.48069" lon="3.881">
        <ele>231</ele>
        <time>2019-08-20T13:07:25Z</time>
      </trkpt>
      <trkpt lat="46.48068" lon="3.88093">
        <ele>231</ele>
        <time>2019-08-20T13:07:26Z</time>
      </trkpt>
      <trkpt lat="46.48068" lon="3.88086">
        <ele>231</ele>
        <time>2019-08-20T13:07:27Z</time>
      </trkpt>
      <trkpt lat="46.48068" lon="3.88079">
        <ele>231</ele>
        <time>2019-08-20T13:07:28Z</time>
      </trkpt>
      <trkpt lat="46.48068" lon="3.88072">
        <ele>231</ele>
        <time>2019-08-20T13:07:29Z</time>
      </trkpt>
      <trkpt lat="46.48068" lon="3.88066">
        <ele>231</ele>
        <time>2019-08-20T13:07:30Z</time>
      </trkpt>
      <trkpt lat="46.48068" lon="3.88059">
        <ele>231</ele>
        <time>2019-08-20T13:07:31Z</time>
      </trkpt>
      <trkpt lat="46.48068" lon="3.88052">
        <ele>231</ele>
        <time>2019-08-20T13:07:32Z</time>
      </trkpt>
      <trkpt lat="46.48067" lon="3.88047">
        <ele>231</ele>
        <time>2019-08-20T13:07:33Z</time>
      </trkpt>
      <trkpt lat="46.48068" lon="3.88039">
        <ele>231</ele>
        <time>2019-08-20T13:07:34Z</time>
      </trkpt>
      <trkpt lat="46.48068" lon="3.88032">
        <ele>230.9</ele>
        <time>2019-08-20T13:07:35Z</time>
      </trkpt>
      <trkpt lat="46.48068" lon="3.88026">
        <ele>230.9</ele>
        <time>2019-08-20T13:07:36Z</time>
      </trkpt>
      <trkpt lat="46.48068" lon="3.8802">
        <ele>230.9</ele>
        <time>2019-08-20T13:07:37Z</time>
      </trkpt>
      <trkpt lat="46.48068" lon="3.88014">
        <ele>230.9</ele>
        <time>2019-08-20T13:07:38Z</time>
      </trkpt>
      <trkpt lat="46.48068" lon="3.88008">
        <ele>230.9</ele>
        <time>2019-08-20T13:07:39Z</time>
      </trkpt>
      <trkpt lat="46.48069" lon="3.88002">
        <ele>230.8</ele>
        <time>2019-08-20T13:07:40Z</time>
      </trkpt>
      <trkpt lat="46.48068" lon="3.87997">
        <ele>230.8</ele>
        <time>2019-08-20T13:07:41Z</time>
      </trkpt>
      <trkpt lat="46.48069" lon="3.8799">
        <ele>230.8</ele>
        <time>2019-08-20T13:07:42Z</time>
      </trkpt>
      <trkpt lat="46.48069" lon="3.87983">
        <ele>230.7</ele>
        <time>2019-08-20T13:07:43Z</time>
      </trkpt>
      <trkpt lat="46.48069" lon="3.87978">
        <ele>230.6</ele>
        <time>2019-08-20T13:07:44Z</time>
      </trkpt>
      <trkpt lat="46.48069" lon="3.8797">
        <ele>230.6</ele>
        <time>2019-08-20T13:07:45Z</time>
      </trkpt>
      <trkpt lat="46.48069" lon="3.87964">
        <ele>230.5</ele>
        <time>2019-08-20T13:07:46Z</time>
      </trkpt>
      <trkpt lat="46.48069" lon="3.87958">
        <ele>230.4</ele>
        <time>2019-08-20T13:07:47Z</time>
      </trkpt>
      <trkpt lat="46.4807" lon="3.87951">
        <ele>230.4</ele>
        <time>2019-08-20T13:07:48Z</time>
      </trkpt>
      <trkpt lat="46.4807" lon="3.87943">
        <ele>230.3</ele>
        <time>2019-08-20T13:07:49Z</time>
      </trkpt>
      <trkpt lat="46.48071" lon="3.87934">
        <ele>230.2</ele>
        <time>2019-08-20T13:07:50Z</time>
      </trkpt>
      <trkpt lat="46.48071" lon="3.87927">
        <ele>230.2</ele>
        <time>2019-08-20T13:07:51Z</time>
      </trkpt>
      <trkpt lat="46.48071" lon="3.87921">
        <ele>230.1</ele>
        <time>2019-08-20T13:07:52Z</time>
      </trkpt>
      <trkpt lat="46.4807" lon="3.87914">
        <ele>230.1</ele>
        <time>2019-08-20T13:07:53Z</time>
      </trkpt>
      <trkpt lat="46.48071" lon="3.87908">
        <ele>230.1</ele>
        <time>2019-08-20T13:07:54Z</time>
      </trkpt>
      <trkpt lat="46.48071" lon="3.87902">
        <ele>230</ele>
        <time>2019-08-20T13:07:55Z</time>
      </trkpt>
      <trkpt lat="46.4807" lon="3.87896">
        <ele>230</ele>
        <time>2019-08-20T13:07:56Z</time>
      </trkpt>
      <trkpt lat="46.4807" lon="3.8789">
        <ele>230</ele>
        <time>2019-08-20T13:07:57Z</time>
      </trkpt>
      <trkpt lat="46.48069" lon="3.87884">
        <ele>229.9</ele>
        <time>2019-08-20T13:07:58Z</time>
      </trkpt>
      <trkpt lat="46.48069" lon="3.87878">
        <ele>229.9</ele>
        <time>2019-08-20T13:07:59Z</time>
      </trkpt>
      <trkpt lat="46.48068" lon="3.87873">
        <ele>229.8</ele>
        <time>2019-08-20T13:08:00Z</time>
      </trkpt>
      <trkpt lat="46.48069" lon="3.87867">
        <ele>229.8</ele>
        <time>2019-08-20T13:08:01Z</time>
      </trkpt>
      <trkpt lat="46.48069" lon="3.87861">
        <ele>229.8</ele>
        <time>2019-08-20T13:08:02Z</time>
      </trkpt>
      <trkpt lat="46.48069" lon="3.87854">
        <ele>229.7</ele>
        <time>2019-08-20T13:08:03Z</time>
      </trkpt>
      <trkpt lat="46.48069" lon="3.87847">
        <ele>229.7</ele>
        <time>2019-08-20T13:08:04Z</time>
      </trkpt>
      <trkpt lat="46.4807" lon="3.8784">
        <ele>229.6</ele>
        <time>2019-08-20T13:08:05Z</time>
      </trkpt>
      <trkpt lat="46.4807" lon="3.87832">
        <ele>229.6</ele>
        <time>2019-08-20T13:08:06Z</time>
      </trkpt>
      <trkpt lat="46.4807" lon="3.87826">
        <ele>229.6</ele>
        <time>2019-08-20T13:08:07Z</time>
      </trkpt>
      <trkpt lat="46.4807" lon="3.87819">
        <ele>229.5</ele>
        <time>2019-08-20T13:08:08Z</time>
      </trkpt>
      <trkpt lat="46.48068" lon="3.87812">
        <ele>229.5</ele>
        <time>2019-08-20T13:08:09Z</time>
      </trkpt>
      <trkpt lat="46.48068" lon="3.87805">
        <ele>229.5</ele>
        <time>2019-08-20T13:08:10Z</time>
      </trkpt>
      <trkpt lat="46.48068" lon="3.87798">
        <ele>229.4</ele>
        <time>2019-08-20T13:08:11Z</time>
      </trkpt>
      <trkpt lat="46.48069" lon="3.87791">
        <ele>229.4</ele>
        <time>2019-08-20T13:08:12Z</time>
      </trkpt>
      <trkpt lat="46.4807" lon="3.87785">
        <ele>229.4</ele>
        <time>2019-08-20T13:08:13Z</time>
      </trkpt>
      <trkpt lat="46.4807" lon="3.8778">
        <ele>229.4</ele>
        <time>2019-08-20T13:08:14Z</time>
      </trkpt>
      <trkpt lat="46.4807" lon="3.87773">
        <ele>229.4</ele>
        <time>2019-08-20T13:08:15Z</time>
      </trkpt>
      <trkpt lat="46.48069" lon="3.87768">
        <ele>229.4</ele>
        <time>2019-08-20T13:08:16Z</time>
      </trkpt>
      <trkpt lat="46.48069" lon="3.87761">
        <ele>229.4</ele>
        <time>2019-08-20T13:08:17Z</time>
      </trkpt>
      <trkpt lat="46.48069" lon="3.87754">
        <ele>229.4</ele>
        <time>2019-08-20T13:08:18Z</time>
      </trkpt>
      <trkpt lat="46.4807" lon="3.87749">
        <ele>229.3</ele>
        <time>2019-08-20T13:08:19Z</time>
      </trkpt>
      <trkpt lat="46.4807" lon="3.87743">
        <ele>229.3</ele>
        <time>2019-08-20T13:08:20Z</time>
      </trkpt>
      <trkpt lat="46.4807" lon="3.87737">
        <ele>229.3</ele>
        <time>2019-08-20T13:08:21Z</time>
      </trkpt>
      <trkpt lat="46.48071" lon="3.8773">
        <ele>229.3</ele>
        <time>2019-08-20T13:08:22Z</time>
      </trkpt>
      <trkpt lat="46.48071" lon="3.87723">
        <ele>229.2</ele>
        <time>2019-08-20T13:08:23Z</time>
      </trkpt>
      <trkpt lat="46.48071" lon="3.87715">
        <ele>229.2</ele>
        <time>2019-08-20T13:08:24Z</time>
      </trkpt>
      <trkpt lat="46.48071" lon="3.87709">
        <ele>229.1</ele>
        <time>2019-08-20T13:08:25Z</time>
      </trkpt>
      <trkpt lat="46.48071" lon="3.87703">
        <ele>229.1</ele>
        <time>2019-08-20T13:08:26Z</time>
      </trkpt>
      <trkpt lat="46.48071" lon="3.87697">
        <ele>229.1</ele>
        <time>2019-08-20T13:08:27Z</time>
      </trkpt>
      <trkpt lat="46.48071" lon="3.87691">
        <ele>229.1</ele>
        <time>2019-08-20T13:08:28Z</time>
      </trkpt>
      <trkpt lat="46.48071" lon="3.87684">
        <ele>229.1</ele>
        <time>2019-08-20T13:08:29Z</time>
      </trkpt>
      <trkpt lat="46.48071" lon="3.87678">
        <ele>229</ele>
        <time>2019-08-20T13:08:30Z</time>
      </trkpt>
      <trkpt lat="46.48071" lon="3.87674">
        <ele>229</ele>
        <time>2019-08-20T13:08:31Z</time>
      </trkpt>
      <trkpt lat="46.48071" lon="3.87668">
        <ele>229</ele>
        <time>2019-08-20T13:08:32Z</time>
      </trkpt>
      <trkpt lat="46.48071" lon="3.87661">
        <ele>229</ele>
        <time>2019-08-20T13:08:33Z</time>
      </trkpt>
      <trkpt lat="46.48071" lon="3.87656">
        <ele>229</ele>
        <time>2019-08-20T13:08:34Z</time>
      </trkpt>
      <trkpt lat="46.4807" lon="3.87649">
        <ele>228.9</ele>
        <time>2019-08-20T13:08:35Z</time>
      </trkpt>
      <trkpt lat="46.4807" lon="3.87642">
        <ele>228.9</ele>
        <time>2019-08-20T13:08:36Z</time>
      </trkpt>
      <trkpt lat="46.4807" lon="3.87635">
        <ele>228.9</ele>
        <time>2019-08-20T13:08:37Z</time>
      </trkpt>
      <trkpt lat="46.48069" lon="3.87628">
        <ele>228.8</ele>
        <time>2019-08-20T13:08:38Z</time>
      </trkpt>
      <trkpt lat="46.48069" lon="3.87621">
        <ele>228.8</ele>
        <time>2019-08-20T13:08:39Z</time>
      </trkpt>
      <trkpt lat="46.48069" lon="3.87612">
        <ele>228.7</ele>
        <time>2019-08-20T13:08:40Z</time>
      </trkpt>
      <trkpt lat="46.48069" lon="3.87606">
        <ele>228.7</ele>
        <time>2019-08-20T13:08:41Z</time>
      </trkpt>
      <trkpt lat="46.48069" lon="3.876">
        <ele>228.6</ele>
        <time>2019-08-20T13:08:42Z</time>
      </trkpt>
      <trkpt lat="46.48068" lon="3.87594">
        <ele>228.5</ele>
        <time>2019-08-20T13:08:43Z</time>
      </trkpt>
      <trkpt lat="46.48068" lon="3.87589">
        <ele>228.5</ele>
        <time>2019-08-20T13:08:44Z</time>
      </trkpt>
      <trkpt lat="46.48068" lon="3.87584">
        <ele>228.4</ele>
        <time>2019-08-20T13:08:45Z</time>
      </trkpt>
      <trkpt lat="46.48068" lon="3.87577">
        <ele>228.3</ele>
        <time>2019-08-20T13:08:46Z</time>
      </trkpt>
      <trkpt lat="46.48068" lon="3.8757">
        <ele>228.2</ele>
        <time>2019-08-20T13:08:47Z</time>
      </trkpt>
      <trkpt lat="46.48067" lon="3.87563">
        <ele>228.1</ele>
        <time>2019-08-20T13:08:48Z</time>
      </trkpt>
      <trkpt lat="46.48066" lon="3.87556">
        <ele>228.1</ele>
        <time>2019-08-20T13:08:49Z</time>
      </trkpt>
      <trkpt lat="46.48065" lon="3.87549">
        <ele>228</ele>
        <time>2019-08-20T13:08:50Z</time>
      </trkpt>
      <trkpt lat="46.48065" lon="3.87542">
        <ele>227.9</ele>
        <time>2019-08-20T13:08:51Z</time>
      </trkpt>
      <trkpt lat="46.48065" lon="3.87534">
        <ele>227.9</ele>
        <time>2019-08-20T13:08:52Z</time>
      </trkpt>
      <trkpt lat="46.48065" lon="3.87527">
        <ele>227.8</ele>
        <time>2019-08-20T13:08:53Z</time>
      </trkpt>
      <trkpt lat="46.48065" lon="3.8752">
        <ele>227.7</ele>
        <time>2019-08-20T13:08:54Z</time>
      </trkpt>
      <trkpt lat="46.48066" lon="3.87514">
        <ele>227.6</ele>
        <time>2019-08-20T13:08:55Z</time>
      </trkpt>
      <trkpt lat="46.48066" lon="3.87507">
        <ele>227.5</ele>
        <time>2019-08-20T13:08:56Z</time>
      </trkpt>
      <trkpt lat="46.48066" lon="3.87501">
        <ele>227.4</ele>
        <time>2019-08-20T13:08:57Z</time>
      </trkpt>
      <trkpt lat="46.48067" lon="3.87495">
        <ele>227.3</ele>
        <time>2019-08-20T13:08:58Z</time>
      </trkpt>
      <trkpt lat="46.48066" lon="3.87488">
        <ele>227.1</ele>
        <time>2019-08-20T13:08:59Z</time>
      </trkpt>
      <trkpt lat="46.48066" lon="3.87482">
        <ele>227</ele>
        <time>2019-08-20T13:09:00Z</time>
      </trkpt>
      <trkpt lat="46.48065" lon="3.87476">
        <ele>226.9</ele>
        <time>2019-08-20T13:09:01Z</time>
      </trkpt>
      <trkpt lat="46.48065" lon="3.87469">
        <ele>226.7</ele>
        <time>2019-08-20T13:09:02Z</time>
      </trkpt>
      <trkpt lat="46.48065" lon="3.87463">
        <ele>226.6</ele>
        <time>2019-08-20T13:09:03Z</time>
      </trkpt>
      <trkpt lat="46.48064" lon="3.87456">
        <ele>226.7</ele>
        <time>2019-08-20T13:09:04Z</time>
      </trkpt>
      <trkpt lat="46.48064" lon="3.8745">
        <ele>226.6</ele>
        <time>2019-08-20T13:09:05Z</time>
      </trkpt>
      <trkpt lat="46.48063" lon="3.87444">
        <ele>226.6</ele>
        <time>2019-08-20T13:09:06Z</time>
      </trkpt>
      <trkpt lat="46.48063" lon="3.87437">
        <ele>226.6</ele>
        <time>2019-08-20T13:09:07Z</time>
      </trkpt>
      <trkpt lat="46.48063" lon="3.87431">
        <ele>226.6</ele>
        <time>2019-08-20T13:09:08Z</time>
      </trkpt>
      <trkpt lat="46.48063" lon="3.87425">
        <ele>226.6</ele>
        <time>2019-08-20T13:09:09Z</time>
      </trkpt>
      <trkpt lat="46.48064" lon="3.87419">
        <ele>226.6</ele>
        <time>2019-08-20T13:09:10Z</time>
      </trkpt>
      <trkpt lat="46.48064" lon="3.87414">
        <ele>226.6</ele>
        <time>2019-08-20T13:09:11Z</time>
      </trkpt>
      <trkpt lat="46.48065" lon="3.87407">
        <ele>226.6</ele>
        <time>2019-08-20T13:09:12Z</time>
      </trkpt>
      <trkpt lat="46.48065" lon="3.874">
        <ele>226.6</ele>
        <time>2019-08-20T13:09:13Z</time>
      </trkpt>
      <trkpt lat="46.48065" lon="3.87394">
        <ele>226.6</ele>
        <time>2019-08-20T13:09:14Z</time>
      </trkpt>
      <trkpt lat="46.48065" lon="3.87387">
        <ele>226.7</ele>
        <time>2019-08-20T13:09:15Z</time>
      </trkpt>
      <trkpt lat="46.48065" lon="3.87381">
        <ele>226.7</ele>
        <time>2019-08-20T13:09:16Z</time>
      </trkpt>
      <trkpt lat="46.48064" lon="3.87374">
        <ele>226.8</ele>
        <time>2019-08-20T13:09:17Z</time>
      </trkpt>
      <trkpt lat="46.48062" lon="3.87368">
        <ele>226.8</ele>
        <time>2019-08-20T13:09:18Z</time>
      </trkpt>
      <trkpt lat="46.48062" lon="3.87361">
        <ele>226.8</ele>
        <time>2019-08-20T13:09:19Z</time>
      </trkpt>
      <trkpt lat="46.48061" lon="3.87357">
        <ele>226.9</ele>
        <time>2019-08-20T13:09:20Z</time>
      </trkpt>
      <trkpt lat="46.4806" lon="3.87351">
        <ele>226.9</ele>
        <time>2019-08-20T13:09:21Z</time>
      </trkpt>
      <trkpt lat="46.48059" lon="3.87347">
        <ele>227</ele>
        <time>2019-08-20T13:09:22Z</time>
      </trkpt>
      <trkpt lat="46.48059" lon="3.87342">
        <ele>227</ele>
        <time>2019-08-20T13:09:23Z</time>
      </trkpt>
      <trkpt lat="46.4806" lon="3.87338">
        <ele>227.1</ele>
        <time>2019-08-20T13:09:24Z</time>
      </trkpt>
      <trkpt lat="46.48062" lon="3.87332">
        <ele>227.3</ele>
        <time>2019-08-20T13:09:26Z</time>
      </trkpt>
      <trkpt lat="46.48063" lon="3.87327">
        <ele>227.3</ele>
        <time>2019-08-20T13:09:29Z</time>
      </trkpt>
      <trkpt lat="46.48062" lon="3.8732">
        <ele>227</ele>
        <time>2019-08-20T13:09:31Z</time>
      </trkpt>
      <trkpt lat="46.48061" lon="3.87314">
        <ele>226.8</ele>
        <time>2019-08-20T13:09:32Z</time>
      </trkpt>
      <trkpt lat="46.48062" lon="3.87308">
        <ele>226.6</ele>
        <time>2019-08-20T13:09:33Z</time>
      </trkpt>
      <trkpt lat="46.48063" lon="3.873">
        <ele>226.4</ele>
        <time>2019-08-20T13:09:34Z</time>
      </trkpt>
      <trkpt lat="46.48063" lon="3.87291">
        <ele>226.2</ele>
        <time>2019-08-20T13:09:35Z</time>
      </trkpt>
      <trkpt lat="46.48064" lon="3.87283">
        <ele>226</ele>
        <time>2019-08-20T13:09:36Z</time>
      </trkpt>
      <trkpt lat="46.48064" lon="3.87275">
        <ele>225.8</ele>
        <time>2019-08-20T13:09:37Z</time>
      </trkpt>
      <trkpt lat="46.48064" lon="3.87265">
        <ele>225.6</ele>
        <time>2019-08-20T13:09:38Z</time>
      </trkpt>
      <trkpt lat="46.48064" lon="3.87255">
        <ele>225.5</ele>
        <time>2019-08-20T13:09:39Z</time>
      </trkpt>
      <trkpt lat="46.48064" lon="3.87245">
        <ele>225.3</ele>
        <time>2019-08-20T13:09:40Z</time>
      </trkpt>
      <trkpt lat="46.48063" lon="3.87236">
        <ele>225.2</ele>
        <time>2019-08-20T13:09:41Z</time>
      </trkpt>
      <trkpt lat="46.48063" lon="3.87226">
        <ele>225.2</ele>
        <time>2019-08-20T13:09:42Z</time>
      </trkpt>
      <trkpt lat="46.48062" lon="3.87216">
        <ele>225.1</ele>
        <time>2019-08-20T13:09:43Z</time>
      </trkpt>
      <trkpt lat="46.48062" lon="3.87207">
        <ele>225.1</ele>
        <time>2019-08-20T13:09:44Z</time>
      </trkpt>
      <trkpt lat="46.48062" lon="3.87199">
        <ele>225.2</ele>
        <time>2019-08-20T13:09:45Z</time>
      </trkpt>
      <trkpt lat="46.48062" lon="3.87191">
        <ele>225.2</ele>
        <time>2019-08-20T13:09:46Z</time>
      </trkpt>
      <trkpt lat="46.48063" lon="3.87184">
        <ele>225.2</ele>
        <time>2019-08-20T13:09:47Z</time>
      </trkpt>
      <trkpt lat="46.48063" lon="3.87176">
        <ele>225.2</ele>
        <time>2019-08-20T13:09:48Z</time>
      </trkpt>
      <trkpt lat="46.48062" lon="3.8717">
        <ele>225.2</ele>
        <time>2019-08-20T13:09:49Z</time>
      </trkpt>
      <trkpt lat="46.48062" lon="3.87163">
        <ele>225.2</ele>
        <time>2019-08-20T13:09:50Z</time>
      </trkpt>
      <trkpt lat="46.48062" lon="3.87158">
        <ele>225.3</ele>
        <time>2019-08-20T13:09:51Z</time>
      </trkpt>
      <trkpt lat="46.48062" lon="3.87153">
        <ele>225.3</ele>
        <time>2019-08-20T13:09:52Z</time>
      </trkpt>
      <trkpt lat="46.48063" lon="3.87147">
        <ele>225.3</ele>
        <time>2019-08-20T13:09:53Z</time>
      </trkpt>
      <trkpt lat="46.48064" lon="3.87141">
        <ele>225.3</ele>
        <time>2019-08-20T13:09:54Z</time>
      </trkpt>
      <trkpt lat="46.48063" lon="3.87135">
        <ele>225.4</ele>
        <time>2019-08-20T13:09:55Z</time>
      </trkpt>
      <trkpt lat="46.48063" lon="3.87129">
        <ele>225.4</ele>
        <time>2019-08-20T13:09:56Z</time>
      </trkpt>
      <trkpt lat="46.48063" lon="3.87124">
        <ele>225.4</ele>
        <time>2019-08-20T13:09:57Z</time>
      </trkpt>
      <trkpt lat="46.48064" lon="3.87115">
        <ele>225.5</ele>
        <time>2019-08-20T13:09:58Z</time>
      </trkpt>
      <trkpt lat="46.48066" lon="3.87106">
        <ele>225.5</ele>
        <time>2019-08-20T13:09:59Z</time>
      </trkpt>
      <trkpt lat="46.48066" lon="3.871">
        <ele>225.6</ele>
        <time>2019-08-20T13:10:00Z</time>
      </trkpt>
      <trkpt lat="46.48067" lon="3.87093">
        <ele>225.6</ele>
        <time>2019-08-20T13:10:01Z</time>
      </trkpt>
      <trkpt lat="46.48068" lon="3.87087">
        <ele>225.7</ele>
        <time>2019-08-20T13:10:02Z</time>
      </trkpt>
      <trkpt lat="46.48069" lon="3.87078">
        <ele>225.7</ele>
        <time>2019-08-20T13:10:03Z</time>
      </trkpt>
      <trkpt lat="46.48069" lon="3.87073">
        <ele>225.8</ele>
        <time>2019-08-20T13:10:04Z</time>
      </trkpt>
      <trkpt lat="46.48069" lon="3.87068">
        <ele>225.9</ele>
        <time>2019-08-20T13:10:05Z</time>
      </trkpt>
      <trkpt lat="46.48069" lon="3.87062">
        <ele>226</ele>
        <time>2019-08-20T13:10:06Z</time>
      </trkpt>
      <trkpt lat="46.48069" lon="3.87056">
        <ele>226.1</ele>
        <time>2019-08-20T13:10:07Z</time>
      </trkpt>
      <trkpt lat="46.48069" lon="3.8705">
        <ele>226.2</ele>
        <time>2019-08-20T13:10:08Z</time>
      </trkpt>
      <trkpt lat="46.4807" lon="3.87042">
        <ele>226.2</ele>
        <time>2019-08-20T13:10:09Z</time>
      </trkpt>
      <trkpt lat="46.48071" lon="3.87035">
        <ele>226.3</ele>
        <time>2019-08-20T13:10:10Z</time>
      </trkpt>
      <trkpt lat="46.48071" lon="3.87029">
        <ele>226.4</ele>
        <time>2019-08-20T13:10:11Z</time>
      </trkpt>
      <trkpt lat="46.48072" lon="3.87022">
        <ele>226.4</ele>
        <time>2019-08-20T13:10:12Z</time>
      </trkpt>
      <trkpt lat="46.48072" lon="3.87015">
        <ele>226.5</ele>
        <time>2019-08-20T13:10:13Z</time>
      </trkpt>
      <trkpt lat="46.48073" lon="3.87008">
        <ele>226.5</ele>
        <time>2019-08-20T13:10:14Z</time>
      </trkpt>
      <trkpt lat="46.48074" lon="3.87001">
        <ele>226.5</ele>
        <time>2019-08-20T13:10:15Z</time>
      </trkpt>
      <trkpt lat="46.48075" lon="3.86995">
        <ele>226.5</ele>
        <time>2019-08-20T13:10:16Z</time>
      </trkpt>
      <trkpt lat="46.48073" lon="3.8699">
        <ele>226.5</ele>
        <time>2019-08-20T13:10:17Z</time>
      </trkpt>
      <trkpt lat="46.48074" lon="3.86983">
        <ele>226.5</ele>
        <time>2019-08-20T13:10:18Z</time>
      </trkpt>
      <trkpt lat="46.48075" lon="3.86977">
        <ele>226.5</ele>
        <time>2019-08-20T13:10:19Z</time>
      </trkpt>
      <trkpt lat="46.48076" lon="3.86969">
        <ele>226.5</ele>
        <time>2019-08-20T13:10:20Z</time>
      </trkpt>
      <trkpt lat="46.48077" lon="3.86962">
        <ele>226.6</ele>
        <time>2019-08-20T13:10:21Z</time>
      </trkpt>
      <trkpt lat="46.48078" lon="3.86956">
        <ele>226.6</ele>
        <time>2019-08-20T13:10:22Z</time>
      </trkpt>
      <trkpt lat="46.48079" lon="3.8695">
        <ele>226.6</ele>
        <time>2019-08-20T13:10:23Z</time>
      </trkpt>
      <trkpt lat="46.4808" lon="3.86944">
        <ele>226.6</ele>
        <time>2019-08-20T13:10:24Z</time>
      </trkpt>
      <trkpt lat="46.48081" lon="3.86938">
        <ele>226.6</ele>
        <time>2019-08-20T13:10:25Z</time>
      </trkpt>
      <trkpt lat="46.48082" lon="3.86933">
        <ele>226.7</ele>
        <time>2019-08-20T13:10:26Z</time>
      </trkpt>
      <trkpt lat="46.48085" lon="3.86926">
        <ele>226.7</ele>
        <time>2019-08-20T13:10:27Z</time>
      </trkpt>
      <trkpt lat="46.48086" lon="3.8692">
        <ele>226.7</ele>
        <time>2019-08-20T13:10:28Z</time>
      </trkpt>
      <trkpt lat="46.48088" lon="3.86916">
        <ele>226.7</ele>
        <time>2019-08-20T13:10:29Z</time>
      </trkpt>
      <trkpt lat="46.4809" lon="3.86912">
        <ele>226.8</ele>
        <time>2019-08-20T13:10:30Z</time>
      </trkpt>
      <trkpt lat="46.48093" lon="3.86905">
        <ele>226.8</ele>
        <time>2019-08-20T13:10:31Z</time>
      </trkpt>
      <trkpt lat="46.48096" lon="3.86899">
        <ele>226.9</ele>
        <time>2019-08-20T13:10:32Z</time>
      </trkpt>
      <trkpt lat="46.48097" lon="3.86893">
        <ele>226.9</ele>
        <time>2019-08-20T13:10:33Z</time>
      </trkpt>
      <trkpt lat="46.48099" lon="3.86884">
        <ele>227</ele>
        <time>2019-08-20T13:10:34Z</time>
      </trkpt>
      <trkpt lat="46.48101" lon="3.86878">
        <ele>227</ele>
        <time>2019-08-20T13:10:35Z</time>
      </trkpt>
      <trkpt lat="46.48103" lon="3.8687">
        <ele>227.1</ele>
        <time>2019-08-20T13:10:36Z</time>
      </trkpt>
      <trkpt lat="46.48105" lon="3.86863">
        <ele>227.2</ele>
        <time>2019-08-20T13:10:37Z</time>
      </trkpt>
      <trkpt lat="46.48107" lon="3.86857">
        <ele>227.3</ele>
        <time>2019-08-20T13:10:38Z</time>
      </trkpt>
      <trkpt lat="46.48109" lon="3.8685">
        <ele>227.3</ele>
        <time>2019-08-20T13:10:39Z</time>
      </trkpt>
      <trkpt lat="46.48111" lon="3.86844">
        <ele>227.4</ele>
        <time>2019-08-20T13:10:40Z</time>
      </trkpt>
      <trkpt lat="46.48113" lon="3.86839">
        <ele>227.4</ele>
        <time>2019-08-20T13:10:41Z</time>
      </trkpt>
      <trkpt lat="46.48114" lon="3.86832">
        <ele>227.5</ele>
        <time>2019-08-20T13:10:42Z</time>
      </trkpt>
      <trkpt lat="46.48115" lon="3.86826">
        <ele>227.5</ele>
        <time>2019-08-20T13:10:43Z</time>
      </trkpt>
      <trkpt lat="46.48117" lon="3.8682">
        <ele>227.5</ele>
        <time>2019-08-20T13:10:44Z</time>
      </trkpt>
      <trkpt lat="46.48118" lon="3.86813">
        <ele>227.6</ele>
        <time>2019-08-20T13:10:45Z</time>
      </trkpt>
      <trkpt lat="46.48119" lon="3.86808">
        <ele>227.6</ele>
        <time>2019-08-20T13:10:46Z</time>
      </trkpt>
      <trkpt lat="46.48121" lon="3.86802">
        <ele>227.6</ele>
        <time>2019-08-20T13:10:47Z</time>
      </trkpt>
      <trkpt lat="46.48123" lon="3.86796">
        <ele>227.6</ele>
        <time>2019-08-20T13:10:48Z</time>
      </trkpt>
      <trkpt lat="46.48125" lon="3.8679">
        <ele>227.6</ele>
        <time>2019-08-20T13:10:49Z</time>
      </trkpt>
      <trkpt lat="46.48127" lon="3.86783">
        <ele>227.6</ele>
        <time>2019-08-20T13:10:50Z</time>
      </trkpt>
      <trkpt lat="46.48129" lon="3.86778">
        <ele>227.5</ele>
        <time>2019-08-20T13:10:51Z</time>
      </trkpt>
      <trkpt lat="46.4813" lon="3.86772">
        <ele>227.4</ele>
        <time>2019-08-20T13:10:52Z</time>
      </trkpt>
      <trkpt lat="46.48132" lon="3.86765">
        <ele>227.4</ele>
        <time>2019-08-20T13:10:53Z</time>
      </trkpt>
      <trkpt lat="46.48135" lon="3.86759">
        <ele>227.3</ele>
        <time>2019-08-20T13:10:54Z</time>
      </trkpt>
      <trkpt lat="46.48137" lon="3.86752">
        <ele>227.3</ele>
        <time>2019-08-20T13:10:55Z</time>
      </trkpt>
      <trkpt lat="46.48139" lon="3.86746">
        <ele>227.2</ele>
        <time>2019-08-20T13:10:56Z</time>
      </trkpt>
      <trkpt lat="46.48141" lon="3.86741">
        <ele>227.1</ele>
        <time>2019-08-20T13:10:57Z</time>
      </trkpt>
      <trkpt lat="46.48143" lon="3.86734">
        <ele>227</ele>
        <time>2019-08-20T13:10:58Z</time>
      </trkpt>
      <trkpt lat="46.48146" lon="3.86726">
        <ele>226.9</ele>
        <time>2019-08-20T13:10:59Z</time>
      </trkpt>
      <trkpt lat="46.48148" lon="3.8672">
        <ele>226.9</ele>
        <time>2019-08-20T13:11:00Z</time>
      </trkpt>
      <trkpt lat="46.48151" lon="3.86714">
        <ele>226.7</ele>
        <time>2019-08-20T13:11:01Z</time>
      </trkpt>
      <trkpt lat="46.48154" lon="3.86707">
        <ele>226.6</ele>
        <time>2019-08-20T13:11:02Z</time>
      </trkpt>
      <trkpt lat="46.48156" lon="3.86702">
        <ele>226.5</ele>
        <time>2019-08-20T13:11:03Z</time>
      </trkpt>
      <trkpt lat="46.48159" lon="3.86695">
        <ele>226.4</ele>
        <time>2019-08-20T13:11:04Z</time>
      </trkpt>
      <trkpt lat="46.48161" lon="3.8669">
        <ele>226.3</ele>
        <time>2019-08-20T13:11:05Z</time>
      </trkpt>
      <trkpt lat="46.48163" lon="3.86685">
        <ele>226.3</ele>
        <time>2019-08-20T13:11:06Z</time>
      </trkpt>
      <trkpt lat="46.48165" lon="3.86679">
        <ele>226.2</ele>
        <time>2019-08-20T13:11:07Z</time>
      </trkpt>
      <trkpt lat="46.48167" lon="3.86674">
        <ele>226.1</ele>
        <time>2019-08-20T13:11:08Z</time>
      </trkpt>
      <trkpt lat="46.4817" lon="3.86668">
        <ele>226.1</ele>
        <time>2019-08-20T13:11:09Z</time>
      </trkpt>
      <trkpt lat="46.48173" lon="3.86662">
        <ele>226.1</ele>
        <time>2019-08-20T13:11:10Z</time>
      </trkpt>
      <trkpt lat="46.48174" lon="3.86655">
        <ele>226.1</ele>
        <time>2019-08-20T13:11:11Z</time>
      </trkpt>
      <trkpt lat="46.48176" lon="3.86649">
        <ele>226.1</ele>
        <time>2019-08-20T13:11:12Z</time>
      </trkpt>
      <trkpt lat="46.48178" lon="3.86642">
        <ele>226.2</ele>
        <time>2019-08-20T13:11:13Z</time>
      </trkpt>
      <trkpt lat="46.48181" lon="3.86636">
        <ele>226.2</ele>
        <time>2019-08-20T13:11:14Z</time>
      </trkpt>
      <trkpt lat="46.48183" lon="3.8663">
        <ele>226.3</ele>
        <time>2019-08-20T13:11:15Z</time>
      </trkpt>
      <trkpt lat="46.48186" lon="3.86624">
        <ele>226.3</ele>
        <time>2019-08-20T13:11:16Z</time>
      </trkpt>
      <trkpt lat="46.48189" lon="3.86618">
        <ele>226.3</ele>
        <time>2019-08-20T13:11:17Z</time>
      </trkpt>
      <trkpt lat="46.48192" lon="3.86612">
        <ele>226.4</ele>
        <time>2019-08-20T13:11:18Z</time>
      </trkpt>
      <trkpt lat="46.48194" lon="3.86606">
        <ele>226.4</ele>
        <time>2019-08-20T13:11:19Z</time>
      </trkpt>
      <trkpt lat="46.48197" lon="3.86599">
        <ele>226.4</ele>
        <time>2019-08-20T13:11:20Z</time>
      </trkpt>
      <trkpt lat="46.48199" lon="3.86593">
        <ele>226.4</ele>
        <time>2019-08-20T13:11:21Z</time>
      </trkpt>
      <trkpt lat="46.48201" lon="3.86588">
        <ele>226.4</ele>
        <time>2019-08-20T13:11:22Z</time>
      </trkpt>
      <trkpt lat="46.48203" lon="3.8658">
        <ele>226.4</ele>
        <time>2019-08-20T13:11:23Z</time>
      </trkpt>
      <trkpt lat="46.48205" lon="3.86574">
        <ele>226.3</ele>
        <time>2019-08-20T13:11:24Z</time>
      </trkpt>
      <trkpt lat="46.48207" lon="3.86568">
        <ele>226.3</ele>
        <time>2019-08-20T13:11:25Z</time>
      </trkpt>
      <trkpt lat="46.4821" lon="3.86561">
        <ele>226.2</ele>
        <time>2019-08-20T13:11:26Z</time>
      </trkpt>
      <trkpt lat="46.48212" lon="3.86554">
        <ele>226.1</ele>
        <time>2019-08-20T13:11:27Z</time>
      </trkpt>
      <trkpt lat="46.48215" lon="3.86548">
        <ele>226</ele>
        <time>2019-08-20T13:11:28Z</time>
      </trkpt>
      <trkpt lat="46.48218" lon="3.86542">
        <ele>225.9</ele>
        <time>2019-08-20T13:11:29Z</time>
      </trkpt>
      <trkpt lat="46.48222" lon="3.86535">
        <ele>225.8</ele>
        <time>2019-08-20T13:11:30Z</time>
      </trkpt>
      <trkpt lat="46.48224" lon="3.86529">
        <ele>225.7</ele>
        <time>2019-08-20T13:11:31Z</time>
      </trkpt>
      <trkpt lat="46.48226" lon="3.86523">
        <ele>225.6</ele>
        <time>2019-08-20T13:11:32Z</time>
      </trkpt>
      <trkpt lat="46.48229" lon="3.86517">
        <ele>225.6</ele>
        <time>2019-08-20T13:11:33Z</time>
      </trkpt>
      <trkpt lat="46.48232" lon="3.86513">
        <ele>225.5</ele>
        <time>2019-08-20T13:11:34Z</time>
      </trkpt>
      <trkpt lat="46.48235" lon="3.86508">
        <ele>225.4</ele>
        <time>2019-08-20T13:11:35Z</time>
      </trkpt>
      <trkpt lat="46.48238" lon="3.86501">
        <ele>225.3</ele>
        <time>2019-08-20T13:11:36Z</time>
      </trkpt>
      <trkpt lat="46.4824" lon="3.86494">
        <ele>225.3</ele>
        <time>2019-08-20T13:11:37Z</time>
      </trkpt>
      <trkpt lat="46.48243" lon="3.86488">
        <ele>225.2</ele>
        <time>2019-08-20T13:11:38Z</time>
      </trkpt>
      <trkpt lat="46.48246" lon="3.86481">
        <ele>225.2</ele>
        <time>2019-08-20T13:11:39Z</time>
      </trkpt>
      <trkpt lat="46.48249" lon="3.86473">
        <ele>225.2</ele>
        <time>2019-08-20T13:11:40Z</time>
      </trkpt>
      <trkpt lat="46.48252" lon="3.86466">
        <ele>225.2</ele>
        <time>2019-08-20T13:11:41Z</time>
      </trkpt>
      <trkpt lat="46.48255" lon="3.86459">
        <ele>225.2</ele>
        <time>2019-08-20T13:11:42Z</time>
      </trkpt>
      <trkpt lat="46.48257" lon="3.86452">
        <ele>225.2</ele>
        <time>2019-08-20T13:11:43Z</time>
      </trkpt>
      <trkpt lat="46.48259" lon="3.86445">
        <ele>225.2</ele>
        <time>2019-08-20T13:11:44Z</time>
      </trkpt>
      <trkpt lat="46.48262" lon="3.86437">
        <ele>225.3</ele>
        <time>2019-08-20T13:11:45Z</time>
      </trkpt>
      <trkpt lat="46.48265" lon="3.86432">
        <ele>225.4</ele>
        <time>2019-08-20T13:11:46Z</time>
      </trkpt>
      <trkpt lat="46.48267" lon="3.86426">
        <ele>225.4</ele>
        <time>2019-08-20T13:11:47Z</time>
      </trkpt>
      <trkpt lat="46.48269" lon="3.8642">
        <ele>225.5</ele>
        <time>2019-08-20T13:11:48Z</time>
      </trkpt>
      <trkpt lat="46.48272" lon="3.86414">
        <ele>225.6</ele>
        <time>2019-08-20T13:11:49Z</time>
      </trkpt>
      <trkpt lat="46.48274" lon="3.86407">
        <ele>225.7</ele>
        <time>2019-08-20T13:11:50Z</time>
      </trkpt>
      <trkpt lat="46.48277" lon="3.86401">
        <ele>225.7</ele>
        <time>2019-08-20T13:11:51Z</time>
      </trkpt>
      <trkpt lat="46.48279" lon="3.86395">
        <ele>225.8</ele>
        <time>2019-08-20T13:11:52Z</time>
      </trkpt>
      <trkpt lat="46.48281" lon="3.86389">
        <ele>225.9</ele>
        <time>2019-08-20T13:11:53Z</time>
      </trkpt>
      <trkpt lat="46.48283" lon="3.86384">
        <ele>226</ele>
        <time>2019-08-20T13:11:54Z</time>
      </trkpt>
      <trkpt lat="46.48285" lon="3.86378">
        <ele>226.1</ele>
        <time>2019-08-20T13:11:55Z</time>
      </trkpt>
      <trkpt lat="46.48287" lon="3.86372">
        <ele>226.1</ele>
        <time>2019-08-20T13:11:56Z</time>
      </trkpt>
      <trkpt lat="46.4829" lon="3.86366">
        <ele>226.2</ele>
        <time>2019-08-20T13:11:57Z</time>
      </trkpt>
      <trkpt lat="46.48292" lon="3.8636">
        <ele>226.3</ele>
        <time>2019-08-20T13:11:58Z</time>
      </trkpt>
      <trkpt lat="46.48295" lon="3.86353">
        <ele>226.3</ele>
        <time>2019-08-20T13:11:59Z</time>
      </trkpt>
      <trkpt lat="46.48297" lon="3.86348">
        <ele>226.4</ele>
        <time>2019-08-20T13:12:00Z</time>
      </trkpt>
      <trkpt lat="46.48298" lon="3.86342">
        <ele>226.4</ele>
        <time>2019-08-20T13:12:01Z</time>
      </trkpt>
      <trkpt lat="46.483" lon="3.86336">
        <ele>226.5</ele>
        <time>2019-08-20T13:12:02Z</time>
      </trkpt>
      <trkpt lat="46.48302" lon="3.8633">
        <ele>226.5</ele>
        <time>2019-08-20T13:12:03Z</time>
      </trkpt>
      <trkpt lat="46.48305" lon="3.86322">
        <ele>226.6</ele>
        <time>2019-08-20T13:12:04Z</time>
      </trkpt>
      <trkpt lat="46.48308" lon="3.86316">
        <ele>226.7</ele>
        <time>2019-08-20T13:12:05Z</time>
      </trkpt>
      <trkpt lat="46.4831" lon="3.86311">
        <ele>226.7</ele>
        <time>2019-08-20T13:12:06Z</time>
      </trkpt>
      <trkpt lat="46.48313" lon="3.86304">
        <ele>226.8</ele>
        <time>2019-08-20T13:12:07Z</time>
      </trkpt>
      <trkpt lat="46.48315" lon="3.86297">
        <ele>226.9</ele>
        <time>2019-08-20T13:12:08Z</time>
      </trkpt>
      <trkpt lat="46.48318" lon="3.86291">
        <ele>227</ele>
        <time>2019-08-20T13:12:09Z</time>
      </trkpt>
      <trkpt lat="46.4832" lon="3.86286">
        <ele>227</ele>
        <time>2019-08-20T13:12:10Z</time>
      </trkpt>
      <trkpt lat="46.48322" lon="3.86281">
        <ele>227</ele>
        <time>2019-08-20T13:12:11Z</time>
      </trkpt>
      <trkpt lat="46.48324" lon="3.86276">
        <ele>227</ele>
        <time>2019-08-20T13:12:12Z</time>
      </trkpt>
      <trkpt lat="46.48326" lon="3.86269">
        <ele>227</ele>
        <time>2019-08-20T13:12:13Z</time>
      </trkpt>
      <trkpt lat="46.48329" lon="3.86263">
        <ele>227</ele>
        <time>2019-08-20T13:12:14Z</time>
      </trkpt>
      <trkpt lat="46.48332" lon="3.86258">
        <ele>227</ele>
        <time>2019-08-20T13:12:15Z</time>
      </trkpt>
      <trkpt lat="46.48334" lon="3.86252">
        <ele>227</ele>
        <time>2019-08-20T13:12:16Z</time>
      </trkpt>
      <trkpt lat="46.48336" lon="3.86246">
        <ele>226.9</ele>
        <time>2019-08-20T13:12:17Z</time>
      </trkpt>
      <trkpt lat="46.48339" lon="3.86239">
        <ele>226.9</ele>
        <time>2019-08-20T13:12:18Z</time>
      </trkpt>
      <trkpt lat="46.48342" lon="3.86232">
        <ele>226.9</ele>
        <time>2019-08-20T13:12:19Z</time>
      </trkpt>
      <trkpt lat="46.48345" lon="3.86226">
        <ele>226.9</ele>
        <time>2019-08-20T13:12:20Z</time>
      </trkpt>
      <trkpt lat="46.48348" lon="3.8622">
        <ele>226.8</ele>
        <time>2019-08-20T13:12:21Z</time>
      </trkpt>
      <trkpt lat="46.4835" lon="3.86213">
        <ele>226.8</ele>
        <time>2019-08-20T13:12:22Z</time>
      </trkpt>
      <trkpt lat="46.48353" lon="3.86206">
        <ele>226.8</ele>
        <time>2019-08-20T13:12:23Z</time>
      </trkpt>
      <trkpt lat="46.48357" lon="3.86202">
        <ele>226.8</ele>
        <time>2019-08-20T13:12:24Z</time>
      </trkpt>
      <trkpt lat="46.48359" lon="3.86197">
        <ele>226.8</ele>
        <time>2019-08-20T13:12:25Z</time>
      </trkpt>
      <trkpt lat="46.48362" lon="3.86192">
        <ele>226.8</ele>
        <time>2019-08-20T13:12:26Z</time>
      </trkpt>
      <trkpt lat="46.48364" lon="3.86186">
        <ele>226.8</ele>
        <time>2019-08-20T13:12:27Z</time>
      </trkpt>
      <trkpt lat="46.48366" lon="3.8618">
        <ele>226.8</ele>
        <time>2019-08-20T13:12:28Z</time>
      </trkpt>
      <trkpt lat="46.48368" lon="3.86175">
        <ele>226.8</ele>
        <time>2019-08-20T13:12:29Z</time>
      </trkpt>
      <trkpt lat="46.48371" lon="3.86169">
        <ele>226.8</ele>
        <time>2019-08-20T13:12:30Z</time>
      </trkpt>
      <trkpt lat="46.48373" lon="3.86163">
        <ele>226.8</ele>
        <time>2019-08-20T13:12:31Z</time>
      </trkpt>
      <trkpt lat="46.48375" lon="3.86156">
        <ele>226.8</ele>
        <time>2019-08-20T13:12:32Z</time>
      </trkpt>
      <trkpt lat="46.48377" lon="3.8615">
        <ele>226.8</ele>
        <time>2019-08-20T13:12:33Z</time>
      </trkpt>
      <trkpt lat="46.4838" lon="3.86143">
        <ele>226.8</ele>
        <time>2019-08-20T13:12:34Z</time>
      </trkpt>
      <trkpt lat="46.48382" lon="3.86136">
        <ele>226.8</ele>
        <time>2019-08-20T13:12:35Z</time>
      </trkpt>
      <trkpt lat="46.48384" lon="3.8613">
        <ele>226.9</ele>
        <time>2019-08-20T13:12:36Z</time>
      </trkpt>
      <trkpt lat="46.48387" lon="3.86123">
        <ele>226.9</ele>
        <time>2019-08-20T13:12:37Z</time>
      </trkpt>
      <trkpt lat="46.48389" lon="3.86117">
        <ele>226.9</ele>
        <time>2019-08-20T13:12:38Z</time>
      </trkpt>
      <trkpt lat="46.48391" lon="3.86112">
        <ele>227</ele>
        <time>2019-08-20T13:12:39Z</time>
      </trkpt>
      <trkpt lat="46.48394" lon="3.86105">
        <ele>227</ele>
        <time>2019-08-20T13:12:40Z</time>
      </trkpt>
      <trkpt lat="46.48396" lon="3.86099">
        <ele>227</ele>
        <time>2019-08-20T13:12:41Z</time>
      </trkpt>
      <trkpt lat="46.48398" lon="3.86093">
        <ele>227.1</ele>
        <time>2019-08-20T13:12:42Z</time>
      </trkpt>
      <trkpt lat="46.48401" lon="3.86088">
        <ele>227.1</ele>
        <time>2019-08-20T13:12:43Z</time>
      </trkpt>
      <trkpt lat="46.48403" lon="3.86082">
        <ele>227.1</ele>
        <time>2019-08-20T13:12:44Z</time>
      </trkpt>
      <trkpt lat="46.48406" lon="3.86077">
        <ele>227.2</ele>
        <time>2019-08-20T13:12:45Z</time>
      </trkpt>
      <trkpt lat="46.48408" lon="3.86071">
        <ele>227.2</ele>
        <time>2019-08-20T13:12:46Z</time>
      </trkpt>
      <trkpt lat="46.4841" lon="3.86065">
        <ele>227.2</ele>
        <time>2019-08-20T13:12:47Z</time>
      </trkpt>
      <trkpt lat="46.48414" lon="3.86058">
        <ele>227.2</ele>
        <time>2019-08-20T13:12:48Z</time>
      </trkpt>
      <trkpt lat="46.48416" lon="3.86053">
        <ele>227.2</ele>
        <time>2019-08-20T13:12:49Z</time>
      </trkpt>
      <trkpt lat="46.48419" lon="3.86047">
        <ele>227.2</ele>
        <time>2019-08-20T13:12:50Z</time>
      </trkpt>
      <trkpt lat="46.48421" lon="3.86041">
        <ele>227.2</ele>
        <time>2019-08-20T13:12:51Z</time>
      </trkpt>
      <trkpt lat="46.48423" lon="3.86035">
        <ele>227.3</ele>
        <time>2019-08-20T13:12:52Z</time>
      </trkpt>
      <trkpt lat="46.48426" lon="3.86027">
        <ele>227.3</ele>
        <time>2019-08-20T13:12:53Z</time>
      </trkpt>
      <trkpt lat="46.48428" lon="3.8602">
        <ele>227.4</ele>
        <time>2019-08-20T13:12:54Z</time>
      </trkpt>
      <trkpt lat="46.4843" lon="3.86014">
        <ele>227.4</ele>
        <time>2019-08-20T13:12:55Z</time>
      </trkpt>
      <trkpt lat="46.48433" lon="3.86007">
        <ele>227.5</ele>
        <time>2019-08-20T13:12:56Z</time>
      </trkpt>
      <trkpt lat="46.48436" lon="3.86001">
        <ele>227.6</ele>
        <time>2019-08-20T13:12:57Z</time>
      </trkpt>
      <trkpt lat="46.48438" lon="3.85997">
        <ele>227.6</ele>
        <time>2019-08-20T13:12:58Z</time>
      </trkpt>
      <trkpt lat="46.4844" lon="3.85992">
        <ele>227.6</ele>
        <time>2019-08-20T13:12:59Z</time>
      </trkpt>
      <trkpt lat="46.48442" lon="3.85986">
        <ele>227.7</ele>
        <time>2019-08-20T13:13:00Z</time>
      </trkpt>
      <trkpt lat="46.48444" lon="3.85981">
        <ele>227.7</ele>
        <time>2019-08-20T13:13:01Z</time>
      </trkpt>
      <trkpt lat="46.48445" lon="3.85976">
        <ele>227.7</ele>
        <time>2019-08-20T13:13:02Z</time>
      </trkpt>
      <trkpt lat="46.48446" lon="3.8597">
        <ele>227.7</ele>
        <time>2019-08-20T13:13:03Z</time>
      </trkpt>
      <trkpt lat="46.48448" lon="3.85964">
        <ele>227.8</ele>
        <time>2019-08-20T13:13:04Z</time>
      </trkpt>
      <trkpt lat="46.4845" lon="3.85959">
        <ele>227.8</ele>
        <time>2019-08-20T13:13:05Z</time>
      </trkpt>
      <trkpt lat="46.48452" lon="3.85953">
        <ele>227.7</ele>
        <time>2019-08-20T13:13:06Z</time>
      </trkpt>
      <trkpt lat="46.48454" lon="3.85946">
        <ele>227.7</ele>
        <time>2019-08-20T13:13:07Z</time>
      </trkpt>
      <trkpt lat="46.48457" lon="3.85939">
        <ele>227.6</ele>
        <time>2019-08-20T13:13:08Z</time>
      </trkpt>
      <trkpt lat="46.48458" lon="3.85933">
        <ele>227.6</ele>
        <time>2019-08-20T13:13:09Z</time>
      </trkpt>
      <trkpt lat="46.48461" lon="3.85928">
        <ele>227.5</ele>
        <time>2019-08-20T13:13:10Z</time>
      </trkpt>
      <trkpt lat="46.48462" lon="3.85922">
        <ele>227.4</ele>
        <time>2019-08-20T13:13:11Z</time>
      </trkpt>
      <trkpt lat="46.48464" lon="3.85916">
        <ele>227.3</ele>
        <time>2019-08-20T13:13:12Z</time>
      </trkpt>
      <trkpt lat="46.48466" lon="3.8591">
        <ele>227.1</ele>
        <time>2019-08-20T13:13:13Z</time>
      </trkpt>
      <trkpt lat="46.48468" lon="3.85904">
        <ele>227</ele>
        <time>2019-08-20T13:13:14Z</time>
      </trkpt>
      <trkpt lat="46.48469" lon="3.85898">
        <ele>227</ele>
        <time>2019-08-20T13:13:15Z</time>
      </trkpt>
      <trkpt lat="46.48471" lon="3.85891">
        <ele>226.9</ele>
        <time>2019-08-20T13:13:16Z</time>
      </trkpt>
      <trkpt lat="46.48472" lon="3.85885">
        <ele>226.8</ele>
        <time>2019-08-20T13:13:17Z</time>
      </trkpt>
      <trkpt lat="46.48474" lon="3.85878">
        <ele>226.8</ele>
        <time>2019-08-20T13:13:18Z</time>
      </trkpt>
      <trkpt lat="46.48476" lon="3.85872">
        <ele>226.7</ele>
        <time>2019-08-20T13:13:19Z</time>
      </trkpt>
      <trkpt lat="46.48478" lon="3.85865">
        <ele>226.6</ele>
        <time>2019-08-20T13:13:20Z</time>
      </trkpt>
      <trkpt lat="46.48479" lon="3.85859">
        <ele>226.5</ele>
        <time>2019-08-20T13:13:21Z</time>
      </trkpt>
      <trkpt lat="46.48482" lon="3.85852">
        <ele>226.5</ele>
        <time>2019-08-20T13:13:22Z</time>
      </trkpt>
      <trkpt lat="46.48484" lon="3.85845">
        <ele>226.5</ele>
        <time>2019-08-20T13:13:23Z</time>
      </trkpt>
      <trkpt lat="46.48485" lon="3.85839">
        <ele>226.6</ele>
        <time>2019-08-20T13:13:24Z</time>
      </trkpt>
      <trkpt lat="46.48486" lon="3.85834">
        <ele>226.6</ele>
        <time>2019-08-20T13:13:25Z</time>
      </trkpt>
      <trkpt lat="46.48486" lon="3.85829">
        <ele>226.7</ele>
        <time>2019-08-20T13:13:26Z</time>
      </trkpt>
      <trkpt lat="46.48487" lon="3.85824">
        <ele>226.7</ele>
        <time>2019-08-20T13:13:27Z</time>
      </trkpt>
      <trkpt lat="46.48488" lon="3.8582">
        <ele>226.8</ele>
        <time>2019-08-20T13:13:28Z</time>
      </trkpt>
      <trkpt lat="46.4849" lon="3.85813">
        <ele>226.9</ele>
        <time>2019-08-20T13:13:30Z</time>
      </trkpt>
      <trkpt lat="46.48491" lon="3.85808">
        <ele>227</ele>
        <time>2019-08-20T13:13:31Z</time>
      </trkpt>
      <trkpt lat="46.48492" lon="3.85803">
        <ele>227.1</ele>
        <time>2019-08-20T13:13:32Z</time>
      </trkpt>
      <trkpt lat="46.48493" lon="3.85797">
        <ele>227.2</ele>
        <time>2019-08-20T13:13:33Z</time>
      </trkpt>
      <trkpt lat="46.48494" lon="3.85791">
        <ele>227.3</ele>
        <time>2019-08-20T13:13:34Z</time>
      </trkpt>
      <trkpt lat="46.48496" lon="3.85786">
        <ele>227.4</ele>
        <time>2019-08-20T13:13:35Z</time>
      </trkpt>
      <trkpt lat="46.48498" lon="3.85779">
        <ele>227.5</ele>
        <time>2019-08-20T13:13:36Z</time>
      </trkpt>
      <trkpt lat="46.48499" lon="3.85772">
        <ele>227.5</ele>
        <time>2019-08-20T13:13:37Z</time>
      </trkpt>
      <trkpt lat="46.48501" lon="3.85766">
        <ele>227.4</ele>
        <time>2019-08-20T13:13:38Z</time>
      </trkpt>
      <trkpt lat="46.48503" lon="3.8576">
        <ele>227.3</ele>
        <time>2019-08-20T13:13:39Z</time>
      </trkpt>
      <trkpt lat="46.48504" lon="3.85754">
        <ele>227.2</ele>
        <time>2019-08-20T13:13:40Z</time>
      </trkpt>
      <trkpt lat="46.48506" lon="3.85749">
        <ele>227.1</ele>
        <time>2019-08-20T13:13:41Z</time>
      </trkpt>
      <trkpt lat="46.48507" lon="3.85744">
        <ele>227</ele>
        <time>2019-08-20T13:13:42Z</time>
      </trkpt>
      <trkpt lat="46.4851" lon="3.85739">
        <ele>227</ele>
        <time>2019-08-20T13:13:43Z</time>
      </trkpt>
      <trkpt lat="46.48512" lon="3.85734">
        <ele>227</ele>
        <time>2019-08-20T13:13:44Z</time>
      </trkpt>
      <trkpt lat="46.48513" lon="3.85729">
        <ele>227</ele>
        <time>2019-08-20T13:13:45Z</time>
      </trkpt>
      <trkpt lat="46.48514" lon="3.85723">
        <ele>226.9</ele>
        <time>2019-08-20T13:13:46Z</time>
      </trkpt>
      <trkpt lat="46.48515" lon="3.85719">
        <ele>226.9</ele>
        <time>2019-08-20T13:13:47Z</time>
      </trkpt>
      <trkpt lat="46.48516" lon="3.85713">
        <ele>226.9</ele>
        <time>2019-08-20T13:13:48Z</time>
      </trkpt>
      <trkpt lat="46.48518" lon="3.85708">
        <ele>226.9</ele>
        <time>2019-08-20T13:13:49Z</time>
      </trkpt>
      <trkpt lat="46.4852" lon="3.85703">
        <ele>226.9</ele>
        <time>2019-08-20T13:13:50Z</time>
      </trkpt>
      <trkpt lat="46.48521" lon="3.85696">
        <ele>226.9</ele>
        <time>2019-08-20T13:13:52Z</time>
      </trkpt>
      <trkpt lat="46.48522" lon="3.8569">
        <ele>226.9</ele>
        <time>2019-08-20T13:13:54Z</time>
      </trkpt>
      <trkpt lat="46.48524" lon="3.85683">
        <ele>226.9</ele>
        <time>2019-08-20T13:13:56Z</time>
      </trkpt>
      <trkpt lat="46.48525" lon="3.85677">
        <ele>226.9</ele>
        <time>2019-08-20T13:13:57Z</time>
      </trkpt>
      <trkpt lat="46.48526" lon="3.85672">
        <ele>226.9</ele>
        <time>2019-08-20T13:13:58Z</time>
      </trkpt>
      <trkpt lat="46.48527" lon="3.85667">
        <ele>226.8</ele>
        <time>2019-08-20T13:13:59Z</time>
      </trkpt>
      <trkpt lat="46.48528" lon="3.85663">
        <ele>226.8</ele>
        <time>2019-08-20T13:14:00Z</time>
      </trkpt>
      <trkpt lat="46.48529" lon="3.85659">
        <ele>226.8</ele>
        <time>2019-08-20T13:14:01Z</time>
      </trkpt>
      <trkpt lat="46.4853" lon="3.85655">
        <ele>226.8</ele>
        <time>2019-08-20T13:14:02Z</time>
      </trkpt>
      <trkpt lat="46.4853" lon="3.85651">
        <ele>226.8</ele>
        <time>2019-08-20T13:14:03Z</time>
      </trkpt>
      <trkpt lat="46.48531" lon="3.85647">
        <ele>226.8</ele>
        <time>2019-08-20T13:14:04Z</time>
      </trkpt>
      <trkpt lat="46.48533" lon="3.85642">
        <ele>226.8</ele>
        <time>2019-08-20T13:14:05Z</time>
      </trkpt>
      <trkpt lat="46.48534" lon="3.85636">
        <ele>226.8</ele>
        <time>2019-08-20T13:14:06Z</time>
      </trkpt>
      <trkpt lat="46.48535" lon="3.85629">
        <ele>226.8</ele>
        <time>2019-08-20T13:14:07Z</time>
      </trkpt>
      <trkpt lat="46.48536" lon="3.85623">
        <ele>226.8</ele>
        <time>2019-08-20T13:14:08Z</time>
      </trkpt>
      <trkpt lat="46.48538" lon="3.85618">
        <ele>226.8</ele>
        <time>2019-08-20T13:14:09Z</time>
      </trkpt>
      <trkpt lat="46.4854" lon="3.85614">
        <ele>226.7</ele>
        <time>2019-08-20T13:14:10Z</time>
      </trkpt>
      <trkpt lat="46.48542" lon="3.85608">
        <ele>226.7</ele>
        <time>2019-08-20T13:14:11Z</time>
      </trkpt>
      <trkpt lat="46.48544" lon="3.85602">
        <ele>226.7</ele>
        <time>2019-08-20T13:14:12Z</time>
      </trkpt>
      <trkpt lat="46.48545" lon="3.85597">
        <ele>226.7</ele>
        <time>2019-08-20T13:14:13Z</time>
      </trkpt>
      <trkpt lat="46.48548" lon="3.85592">
        <ele>226.7</ele>
        <time>2019-08-20T13:14:14Z</time>
      </trkpt>
      <trkpt lat="46.48549" lon="3.85586">
        <ele>226.7</ele>
        <time>2019-08-20T13:14:15Z</time>
      </trkpt>
      <trkpt lat="46.4855" lon="3.85581">
        <ele>226.7</ele>
        <time>2019-08-20T13:14:16Z</time>
      </trkpt>
      <trkpt lat="46.48551" lon="3.85577">
        <ele>226.6</ele>
        <time>2019-08-20T13:14:17Z</time>
      </trkpt>
      <trkpt lat="46.48553" lon="3.85572">
        <ele>226.6</ele>
        <time>2019-08-20T13:14:18Z</time>
      </trkpt>
      <trkpt lat="46.48555" lon="3.85566">
        <ele>226.6</ele>
        <time>2019-08-20T13:14:19Z</time>
      </trkpt>
      <trkpt lat="46.48557" lon="3.85561">
        <ele>226.6</ele>
        <time>2019-08-20T13:14:20Z</time>
      </trkpt>
      <trkpt lat="46.48559" lon="3.85554">
        <ele>226.5</ele>
        <time>2019-08-20T13:14:21Z</time>
      </trkpt>
      <trkpt lat="46.48561" lon="3.85548">
        <ele>226.5</ele>
        <time>2019-08-20T13:14:22Z</time>
      </trkpt>
      <trkpt lat="46.48563" lon="3.85543">
        <ele>226.5</ele>
        <time>2019-08-20T13:14:23Z</time>
      </trkpt>
      <trkpt lat="46.48564" lon="3.85538">
        <ele>226.5</ele>
        <time>2019-08-20T13:14:24Z</time>
      </trkpt>
      <trkpt lat="46.48565" lon="3.85533">
        <ele>226.4</ele>
        <time>2019-08-20T13:14:25Z</time>
      </trkpt>
      <trkpt lat="46.48567" lon="3.85527">
        <ele>226.4</ele>
        <time>2019-08-20T13:14:26Z</time>
      </trkpt>
      <trkpt lat="46.48569" lon="3.85522">
        <ele>226.4</ele>
        <time>2019-08-20T13:14:27Z</time>
      </trkpt>
      <trkpt lat="46.48571" lon="3.85516">
        <ele>226.3</ele>
        <time>2019-08-20T13:14:28Z</time>
      </trkpt>
      <trkpt lat="46.48573" lon="3.8551">
        <ele>226.3</ele>
        <time>2019-08-20T13:14:29Z</time>
      </trkpt>
      <trkpt lat="46.48577" lon="3.85503">
        <ele>226.3</ele>
        <time>2019-08-20T13:14:30Z</time>
      </trkpt>
      <trkpt lat="46.4858" lon="3.85498">
        <ele>226.3</ele>
        <time>2019-08-20T13:14:31Z</time>
      </trkpt>
      <trkpt lat="46.48581" lon="3.85493">
        <ele>226.2</ele>
        <time>2019-08-20T13:14:32Z</time>
      </trkpt>
      <trkpt lat="46.48584" lon="3.85489">
        <ele>226.2</ele>
        <time>2019-08-20T13:14:33Z</time>
      </trkpt>
      <trkpt lat="46.48587" lon="3.85484">
        <ele>226.2</ele>
        <time>2019-08-20T13:14:34Z</time>
      </trkpt>
      <trkpt lat="46.48589" lon="3.85478">
        <ele>226.2</ele>
        <time>2019-08-20T13:14:35Z</time>
      </trkpt>
      <trkpt lat="46.4859" lon="3.85474">
        <ele>226.2</ele>
        <time>2019-08-20T13:14:36Z</time>
      </trkpt>
      <trkpt lat="46.48593" lon="3.85468">
        <ele>226.1</ele>
        <time>2019-08-20T13:14:37Z</time>
      </trkpt>
      <trkpt lat="46.48595" lon="3.85463">
        <ele>226.1</ele>
        <time>2019-08-20T13:14:38Z</time>
      </trkpt>
      <trkpt lat="46.48599" lon="3.85457">
        <ele>226.1</ele>
        <time>2019-08-20T13:14:39Z</time>
      </trkpt>
      <trkpt lat="46.48601" lon="3.85452">
        <ele>226.1</ele>
        <time>2019-08-20T13:14:40Z</time>
      </trkpt>
      <trkpt lat="46.48603" lon="3.85446">
        <ele>226.1</ele>
        <time>2019-08-20T13:14:41Z</time>
      </trkpt>
      <trkpt lat="46.48606" lon="3.8544">
        <ele>226</ele>
        <time>2019-08-20T13:14:42Z</time>
      </trkpt>
      <trkpt lat="46.48609" lon="3.85435">
        <ele>226</ele>
        <time>2019-08-20T13:14:43Z</time>
      </trkpt>
      <trkpt lat="46.48611" lon="3.8543">
        <ele>226</ele>
        <time>2019-08-20T13:14:44Z</time>
      </trkpt>
      <trkpt lat="46.48614" lon="3.85425">
        <ele>226</ele>
        <time>2019-08-20T13:14:45Z</time>
      </trkpt>
      <trkpt lat="46.48616" lon="3.85419">
        <ele>226</ele>
        <time>2019-08-20T13:14:46Z</time>
      </trkpt>
      <trkpt lat="46.48619" lon="3.85414">
        <ele>226</ele>
        <time>2019-08-20T13:14:47Z</time>
      </trkpt>
      <trkpt lat="46.48621" lon="3.85409">
        <ele>226</ele>
        <time>2019-08-20T13:14:48Z</time>
      </trkpt>
      <trkpt lat="46.48624" lon="3.85404">
        <ele>225.9</ele>
        <time>2019-08-20T13:14:49Z</time>
      </trkpt>
      <trkpt lat="46.48627" lon="3.85399">
        <ele>225.9</ele>
        <time>2019-08-20T13:14:50Z</time>
      </trkpt>
      <trkpt lat="46.48629" lon="3.85392">
        <ele>225.9</ele>
        <time>2019-08-20T13:14:51Z</time>
      </trkpt>
      <trkpt lat="46.48632" lon="3.85387">
        <ele>225.9</ele>
        <time>2019-08-20T13:14:52Z</time>
      </trkpt>
      <trkpt lat="46.48636" lon="3.85382">
        <ele>225.9</ele>
        <time>2019-08-20T13:14:53Z</time>
      </trkpt>
      <trkpt lat="46.48638" lon="3.85377">
        <ele>225.9</ele>
        <time>2019-08-20T13:14:54Z</time>
      </trkpt>
      <trkpt lat="46.48641" lon="3.85372">
        <ele>225.9</ele>
        <time>2019-08-20T13:14:55Z</time>
      </trkpt>
      <trkpt lat="46.48643" lon="3.85368">
        <ele>225.9</ele>
        <time>2019-08-20T13:14:56Z</time>
      </trkpt>
      <trkpt lat="46.48646" lon="3.85363">
        <ele>225.8</ele>
        <time>2019-08-20T13:14:57Z</time>
      </trkpt>
      <trkpt lat="46.4865" lon="3.85357">
        <ele>225.8</ele>
        <time>2019-08-20T13:14:58Z</time>
      </trkpt>
      <trkpt lat="46.48653" lon="3.85352">
        <ele>225.8</ele>
        <time>2019-08-20T13:14:59Z</time>
      </trkpt>
      <trkpt lat="46.48657" lon="3.85348">
        <ele>225.8</ele>
        <time>2019-08-20T13:15:00Z</time>
      </trkpt>
      <trkpt lat="46.48661" lon="3.85343">
        <ele>225.8</ele>
        <time>2019-08-20T13:15:01Z</time>
      </trkpt>
      <trkpt lat="46.48664" lon="3.85339">
        <ele>225.8</ele>
        <time>2019-08-20T13:15:02Z</time>
      </trkpt>
      <trkpt lat="46.48667" lon="3.85335">
        <ele>225.8</ele>
        <time>2019-08-20T13:15:03Z</time>
      </trkpt>
      <trkpt lat="46.4867" lon="3.85331">
        <ele>225.8</ele>
        <time>2019-08-20T13:15:04Z</time>
      </trkpt>
      <trkpt lat="46.48674" lon="3.85326">
        <ele>225.8</ele>
        <time>2019-08-20T13:15:05Z</time>
      </trkpt>
      <trkpt lat="46.48676" lon="3.85323">
        <ele>225.7</ele>
        <time>2019-08-20T13:15:06Z</time>
      </trkpt>
      <trkpt lat="46.48678" lon="3.85319">
        <ele>225.7</ele>
        <time>2019-08-20T13:15:07Z</time>
      </trkpt>
      <trkpt lat="46.48682" lon="3.85314">
        <ele>225.7</ele>
        <time>2019-08-20T13:15:08Z</time>
      </trkpt>
      <trkpt lat="46.48685" lon="3.85308">
        <ele>225.7</ele>
        <time>2019-08-20T13:15:09Z</time>
      </trkpt>
      <trkpt lat="46.48688" lon="3.85304">
        <ele>225.7</ele>
        <time>2019-08-20T13:15:10Z</time>
      </trkpt>
      <trkpt lat="46.48691" lon="3.85301">
        <ele>225.7</ele>
        <time>2019-08-20T13:15:11Z</time>
      </trkpt>
      <trkpt lat="46.48695" lon="3.85297">
        <ele>225.7</ele>
        <time>2019-08-20T13:15:12Z</time>
      </trkpt>
      <trkpt lat="46.48698" lon="3.85293">
        <ele>225.7</ele>
        <time>2019-08-20T13:15:13Z</time>
      </trkpt>
      <trkpt lat="46.48702" lon="3.85288">
        <ele>225.7</ele>
        <time>2019-08-20T13:15:14Z</time>
      </trkpt>
      <trkpt lat="46.48705" lon="3.85282">
        <ele>225.7</ele>
        <time>2019-08-20T13:15:15Z</time>
      </trkpt>
      <trkpt lat="46.48709" lon="3.85277">
        <ele>225.7</ele>
        <time>2019-08-20T13:15:16Z</time>
      </trkpt>
      <trkpt lat="46.48713" lon="3.85273">
        <ele>225.7</ele>
        <time>2019-08-20T13:15:17Z</time>
      </trkpt>
      <trkpt lat="46.48716" lon="3.85269">
        <ele>225.7</ele>
        <time>2019-08-20T13:15:18Z</time>
      </trkpt>
      <trkpt lat="46.4872" lon="3.85265">
        <ele>225.7</ele>
        <time>2019-08-20T13:15:19Z</time>
      </trkpt>
      <trkpt lat="46.48725" lon="3.85259">
        <ele>225.7</ele>
        <time>2019-08-20T13:15:20Z</time>
      </trkpt>
      <trkpt lat="46.48729" lon="3.85255">
        <ele>225.7</ele>
        <time>2019-08-20T13:15:21Z</time>
      </trkpt>
      <trkpt lat="46.48732" lon="3.8525">
        <ele>225.7</ele>
        <time>2019-08-20T13:15:22Z</time>
      </trkpt>
      <trkpt lat="46.48736" lon="3.85245">
        <ele>225.7</ele>
        <time>2019-08-20T13:15:23Z</time>
      </trkpt>
      <trkpt lat="46.48739" lon="3.85241">
        <ele>225.7</ele>
        <time>2019-08-20T13:15:24Z</time>
      </trkpt>
      <trkpt lat="46.48743" lon="3.85237">
        <ele>225.7</ele>
        <time>2019-08-20T13:15:25Z</time>
      </trkpt>
      <trkpt lat="46.48748" lon="3.85232">
        <ele>225.7</ele>
        <time>2019-08-20T13:15:26Z</time>
      </trkpt>
      <trkpt lat="46.48752" lon="3.85228">
        <ele>225.7</ele>
        <time>2019-08-20T13:15:27Z</time>
      </trkpt>
      <trkpt lat="46.48754" lon="3.85224">
        <ele>225.7</ele>
        <time>2019-08-20T13:15:28Z</time>
      </trkpt>
      <trkpt lat="46.48758" lon="3.8522">
        <ele>225.7</ele>
        <time>2019-08-20T13:15:29Z</time>
      </trkpt>
      <trkpt lat="46.48761" lon="3.85217">
        <ele>225.7</ele>
        <time>2019-08-20T13:15:30Z</time>
      </trkpt>
      <trkpt lat="46.48765" lon="3.85212">
        <ele>225.7</ele>
        <time>2019-08-20T13:15:31Z</time>
      </trkpt>
      <trkpt lat="46.48769" lon="3.85208">
        <ele>225.7</ele>
        <time>2019-08-20T13:15:32Z</time>
      </trkpt>
      <trkpt lat="46.48773" lon="3.85205">
        <ele>225.7</ele>
        <time>2019-08-20T13:15:33Z</time>
      </trkpt>
      <trkpt lat="46.48778" lon="3.85202">
        <ele>225.7</ele>
        <time>2019-08-20T13:15:34Z</time>
      </trkpt>
      <trkpt lat="46.48781" lon="3.85198">
        <ele>225.6</ele>
        <time>2019-08-20T13:15:35Z</time>
      </trkpt>
      <trkpt lat="46.48785" lon="3.85194">
        <ele>225.6</ele>
        <time>2019-08-20T13:15:36Z</time>
      </trkpt>
      <trkpt lat="46.48789" lon="3.85191">
        <ele>225.6</ele>
        <time>2019-08-20T13:15:37Z</time>
      </trkpt>
      <trkpt lat="46.48792" lon="3.85185">
        <ele>225.6</ele>
        <time>2019-08-20T13:15:38Z</time>
      </trkpt>
      <trkpt lat="46.48796" lon="3.85182">
        <ele>225.6</ele>
        <time>2019-08-20T13:15:39Z</time>
      </trkpt>
      <trkpt lat="46.488" lon="3.8518">
        <ele>225.5</ele>
        <time>2019-08-20T13:15:40Z</time>
      </trkpt>
      <trkpt lat="46.48804" lon="3.85176">
        <ele>225.5</ele>
        <time>2019-08-20T13:15:41Z</time>
      </trkpt>
      <trkpt lat="46.48808" lon="3.85173">
        <ele>225.5</ele>
        <time>2019-08-20T13:15:42Z</time>
      </trkpt>
      <trkpt lat="46.48811" lon="3.85169">
        <ele>225.5</ele>
        <time>2019-08-20T13:15:43Z</time>
      </trkpt>
      <trkpt lat="46.48816" lon="3.85165">
        <ele>225.5</ele>
        <time>2019-08-20T13:15:44Z</time>
      </trkpt>
      <trkpt lat="46.4882" lon="3.8516">
        <ele>225.5</ele>
        <time>2019-08-20T13:15:45Z</time>
      </trkpt>
      <trkpt lat="46.48824" lon="3.85155">
        <ele>225.4</ele>
        <time>2019-08-20T13:15:46Z</time>
      </trkpt>
      <trkpt lat="46.48828" lon="3.85151">
        <ele>225.4</ele>
        <time>2019-08-20T13:15:47Z</time>
      </trkpt>
      <trkpt lat="46.48832" lon="3.85147">
        <ele>225.4</ele>
        <time>2019-08-20T13:15:48Z</time>
      </trkpt>
      <trkpt lat="46.48835" lon="3.85144">
        <ele>225.4</ele>
        <time>2019-08-20T13:15:49Z</time>
      </trkpt>
      <trkpt lat="46.48838" lon="3.85141">
        <ele>225.4</ele>
        <time>2019-08-20T13:15:50Z</time>
      </trkpt>
      <trkpt lat="46.48842" lon="3.85137">
        <ele>225.4</ele>
        <time>2019-08-20T13:15:51Z</time>
      </trkpt>
      <trkpt lat="46.48846" lon="3.85134">
        <ele>225.4</ele>
        <time>2019-08-20T13:15:52Z</time>
      </trkpt>
      <trkpt lat="46.4885" lon="3.8513">
        <ele>225.4</ele>
        <time>2019-08-20T13:15:53Z</time>
      </trkpt>
      <trkpt lat="46.48854" lon="3.85127">
        <ele>225.5</ele>
        <time>2019-08-20T13:15:54Z</time>
      </trkpt>
      <trkpt lat="46.48857" lon="3.85124">
        <ele>225.5</ele>
        <time>2019-08-20T13:15:55Z</time>
      </trkpt>
      <trkpt lat="46.48862" lon="3.8512">
        <ele>225.5</ele>
        <time>2019-08-20T13:15:56Z</time>
      </trkpt>
      <trkpt lat="46.48866" lon="3.85117">
        <ele>225.5</ele>
        <time>2019-08-20T13:15:57Z</time>
      </trkpt>
      <trkpt lat="46.48869" lon="3.85113">
        <ele>225.5</ele>
        <time>2019-08-20T13:15:58Z</time>
      </trkpt>
      <trkpt lat="46.48871" lon="3.85109">
        <ele>225.5</ele>
        <time>2019-08-20T13:15:59Z</time>
      </trkpt>
      <trkpt lat="46.48875" lon="3.85105">
        <ele>225.5</ele>
        <time>2019-08-20T13:16:00Z</time>
      </trkpt>
      <trkpt lat="46.48879" lon="3.85101">
        <ele>225.5</ele>
        <time>2019-08-20T13:16:01Z</time>
      </trkpt>
      <trkpt lat="46.48883" lon="3.85098">
        <ele>225.5</ele>
        <time>2019-08-20T13:16:02Z</time>
      </trkpt>
      <trkpt lat="46.48886" lon="3.85093">
        <ele>225.5</ele>
        <time>2019-08-20T13:16:03Z</time>
      </trkpt>
      <trkpt lat="46.4889" lon="3.85089">
        <ele>225.5</ele>
        <time>2019-08-20T13:16:04Z</time>
      </trkpt>
      <trkpt lat="46.48894" lon="3.85086">
        <ele>225.6</ele>
        <time>2019-08-20T13:16:05Z</time>
      </trkpt>
      <trkpt lat="46.48898" lon="3.85082">
        <ele>225.6</ele>
        <time>2019-08-20T13:16:06Z</time>
      </trkpt>
      <trkpt lat="46.48901" lon="3.85078">
        <ele>225.6</ele>
        <time>2019-08-20T13:16:07Z</time>
      </trkpt>
      <trkpt lat="46.48905" lon="3.85075">
        <ele>225.6</ele>
        <time>2019-08-20T13:16:08Z</time>
      </trkpt>
      <trkpt lat="46.48909" lon="3.85071">
        <ele>225.6</ele>
        <time>2019-08-20T13:16:09Z</time>
      </trkpt>
      <trkpt lat="46.48914" lon="3.85068">
        <ele>225.6</ele>
        <time>2019-08-20T13:16:10Z</time>
      </trkpt>
      <trkpt lat="46.48917" lon="3.85063">
        <ele>225.7</ele>
        <time>2019-08-20T13:16:11Z</time>
      </trkpt>
      <trkpt lat="46.48921" lon="3.85059">
        <ele>225.7</ele>
        <time>2019-08-20T13:16:12Z</time>
      </trkpt>
      <trkpt lat="46.48924" lon="3.85055">
        <ele>225.7</ele>
        <time>2019-08-20T13:16:13Z</time>
      </trkpt>
      <trkpt lat="46.48929" lon="3.85051">
        <ele>225.7</ele>
        <time>2019-08-20T13:16:14Z</time>
      </trkpt>
      <trkpt lat="46.48932" lon="3.85045">
        <ele>225.7</ele>
        <time>2019-08-20T13:16:15Z</time>
      </trkpt>
      <trkpt lat="46.48935" lon="3.85041">
        <ele>225.8</ele>
        <time>2019-08-20T13:16:16Z</time>
      </trkpt>
      <trkpt lat="46.48938" lon="3.85037">
        <ele>225.8</ele>
        <time>2019-08-20T13:16:17Z</time>
      </trkpt>
      <trkpt lat="46.48942" lon="3.85033">
        <ele>225.8</ele>
        <time>2019-08-20T13:16:18Z</time>
      </trkpt>
      <trkpt lat="46.48946" lon="3.85028">
        <ele>225.8</ele>
        <time>2019-08-20T13:16:19Z</time>
      </trkpt>
      <trkpt lat="46.48949" lon="3.85023">
        <ele>225.8</ele>
        <time>2019-08-20T13:16:20Z</time>
      </trkpt>
      <trkpt lat="46.48952" lon="3.85019">
        <ele>225.8</ele>
        <time>2019-08-20T13:16:21Z</time>
      </trkpt>
      <trkpt lat="46.48955" lon="3.85014">
        <ele>225.8</ele>
        <time>2019-08-20T13:16:22Z</time>
      </trkpt>
      <trkpt lat="46.48959" lon="3.85011">
        <ele>225.8</ele>
        <time>2019-08-20T13:16:23Z</time>
      </trkpt>
      <trkpt lat="46.48963" lon="3.85006">
        <ele>225.8</ele>
        <time>2019-08-20T13:16:24Z</time>
      </trkpt>
      <trkpt lat="46.48968" lon="3.85004">
        <ele>225.9</ele>
        <time>2019-08-20T13:16:25Z</time>
      </trkpt>
      <trkpt lat="46.48971" lon="3.85">
        <ele>225.9</ele>
        <time>2019-08-20T13:16:26Z</time>
      </trkpt>
      <trkpt lat="46.48975" lon="3.84996">
        <ele>225.9</ele>
        <time>2019-08-20T13:16:27Z</time>
      </trkpt>
      <trkpt lat="46.48978" lon="3.84991">
        <ele>225.9</ele>
        <time>2019-08-20T13:16:28Z</time>
      </trkpt>
      <trkpt lat="46.48981" lon="3.84986">
        <ele>225.9</ele>
        <time>2019-08-20T13:16:29Z</time>
      </trkpt>
      <trkpt lat="46.48985" lon="3.84981">
        <ele>225.9</ele>
        <time>2019-08-20T13:16:30Z</time>
      </trkpt>
      <trkpt lat="46.48988" lon="3.84976">
        <ele>225.9</ele>
        <time>2019-08-20T13:16:31Z</time>
      </trkpt>
      <trkpt lat="46.48992" lon="3.84971">
        <ele>225.9</ele>
        <time>2019-08-20T13:16:32Z</time>
      </trkpt>
      <trkpt lat="46.48995" lon="3.84967">
        <ele>225.9</ele>
        <time>2019-08-20T13:16:33Z</time>
      </trkpt>
      <trkpt lat="46.48998" lon="3.84963">
        <ele>225.9</ele>
        <time>2019-08-20T13:16:34Z</time>
      </trkpt>
      <trkpt lat="46.49001" lon="3.84958">
        <ele>225.9</ele>
        <time>2019-08-20T13:16:35Z</time>
      </trkpt>
      <trkpt lat="46.49004" lon="3.84954">
        <ele>225.9</ele>
        <time>2019-08-20T13:16:36Z</time>
      </trkpt>
      <trkpt lat="46.49007" lon="3.84948">
        <ele>225.9</ele>
        <time>2019-08-20T13:16:37Z</time>
      </trkpt>
      <trkpt lat="46.49011" lon="3.84941">
        <ele>225.9</ele>
        <time>2019-08-20T13:16:38Z</time>
      </trkpt>
      <trkpt lat="46.49014" lon="3.84935">
        <ele>225.9</ele>
        <time>2019-08-20T13:16:39Z</time>
      </trkpt>
      <trkpt lat="46.49017" lon="3.8493">
        <ele>225.9</ele>
        <time>2019-08-20T13:16:40Z</time>
      </trkpt>
      <trkpt lat="46.4902" lon="3.84925">
        <ele>225.9</ele>
        <time>2019-08-20T13:16:41Z</time>
      </trkpt>
      <trkpt lat="46.49024" lon="3.8492">
        <ele>225.9</ele>
        <time>2019-08-20T13:16:42Z</time>
      </trkpt>
      <trkpt lat="46.49027" lon="3.84916">
        <ele>225.9</ele>
        <time>2019-08-20T13:16:43Z</time>
      </trkpt>
      <trkpt lat="46.49029" lon="3.84912">
        <ele>225.9</ele>
        <time>2019-08-20T13:16:44Z</time>
      </trkpt>
      <trkpt lat="46.49034" lon="3.84906">
        <ele>225.9</ele>
        <time>2019-08-20T13:16:45Z</time>
      </trkpt>
      <trkpt lat="46.49036" lon="3.84901">
        <ele>225.9</ele>
        <time>2019-08-20T13:16:46Z</time>
      </trkpt>
      <trkpt lat="46.49039" lon="3.84895">
        <ele>225.9</ele>
        <time>2019-08-20T13:16:47Z</time>
      </trkpt>
      <trkpt lat="46.49042" lon="3.84889">
        <ele>225.9</ele>
        <time>2019-08-20T13:16:48Z</time>
      </trkpt>
      <trkpt lat="46.49045" lon="3.84884">
        <ele>225.9</ele>
        <time>2019-08-20T13:16:49Z</time>
      </trkpt>
      <trkpt lat="46.49047" lon="3.8488">
        <ele>225.9</ele>
        <time>2019-08-20T13:16:50Z</time>
      </trkpt>
      <trkpt lat="46.4905" lon="3.84875">
        <ele>225.9</ele>
        <time>2019-08-20T13:16:51Z</time>
      </trkpt>
      <trkpt lat="46.49054" lon="3.8487">
        <ele>225.9</ele>
        <time>2019-08-20T13:16:52Z</time>
      </trkpt>
      <trkpt lat="46.49057" lon="3.84865">
        <ele>225.9</ele>
        <time>2019-08-20T13:16:53Z</time>
      </trkpt>
      <trkpt lat="46.4906" lon="3.8486">
        <ele>225.9</ele>
        <time>2019-08-20T13:16:54Z</time>
      </trkpt>
      <trkpt lat="46.49064" lon="3.84854">
        <ele>225.9</ele>
        <time>2019-08-20T13:16:55Z</time>
      </trkpt>
      <trkpt lat="46.49067" lon="3.84849">
        <ele>225.9</ele>
        <time>2019-08-20T13:16:56Z</time>
      </trkpt>
      <trkpt lat="46.4907" lon="3.84843">
        <ele>225.9</ele>
        <time>2019-08-20T13:16:57Z</time>
      </trkpt>
      <trkpt lat="46.49073" lon="3.84837">
        <ele>225.9</ele>
        <time>2019-08-20T13:16:58Z</time>
      </trkpt>
      <trkpt lat="46.49075" lon="3.84832">
        <ele>225.9</ele>
        <time>2019-08-20T13:16:59Z</time>
      </trkpt>
      <trkpt lat="46.49077" lon="3.84826">
        <ele>225.9</ele>
        <time>2019-08-20T13:17:00Z</time>
      </trkpt>
      <trkpt lat="46.49079" lon="3.8482">
        <ele>225.9</ele>
        <time>2019-08-20T13:17:01Z</time>
      </trkpt>
      <trkpt lat="46.49081" lon="3.84815">
        <ele>225.9</ele>
        <time>2019-08-20T13:17:02Z</time>
      </trkpt>
      <trkpt lat="46.49084" lon="3.84808">
        <ele>225.9</ele>
        <time>2019-08-20T13:17:03Z</time>
      </trkpt>
      <trkpt lat="46.49086" lon="3.84802">
        <ele>225.9</ele>
        <time>2019-08-20T13:17:04Z</time>
      </trkpt>
      <trkpt lat="46.49088" lon="3.84796">
        <ele>225.8</ele>
        <time>2019-08-20T13:17:05Z</time>
      </trkpt>
      <trkpt lat="46.4909" lon="3.84791">
        <ele>225.8</ele>
        <time>2019-08-20T13:17:06Z</time>
      </trkpt>
      <trkpt lat="46.49092" lon="3.84785">
        <ele>225.8</ele>
        <time>2019-08-20T13:17:07Z</time>
      </trkpt>
      <trkpt lat="46.49094" lon="3.8478">
        <ele>225.8</ele>
        <time>2019-08-20T13:17:08Z</time>
      </trkpt>
      <trkpt lat="46.49096" lon="3.84775">
        <ele>225.8</ele>
        <time>2019-08-20T13:17:09Z</time>
      </trkpt>
      <trkpt lat="46.491" lon="3.8477">
        <ele>225.8</ele>
        <time>2019-08-20T13:17:10Z</time>
      </trkpt>
      <trkpt lat="46.49103" lon="3.84764">
        <ele>225.8</ele>
        <time>2019-08-20T13:17:11Z</time>
      </trkpt>
      <trkpt lat="46.49106" lon="3.84758">
        <ele>225.8</ele>
        <time>2019-08-20T13:17:12Z</time>
      </trkpt>
      <trkpt lat="46.49108" lon="3.84752">
        <ele>225.7</ele>
        <time>2019-08-20T13:17:13Z</time>
      </trkpt>
      <trkpt lat="46.49111" lon="3.84746">
        <ele>225.7</ele>
        <time>2019-08-20T13:17:14Z</time>
      </trkpt>
      <trkpt lat="46.49113" lon="3.84741">
        <ele>225.7</ele>
        <time>2019-08-20T13:17:15Z</time>
      </trkpt>
      <trkpt lat="46.49115" lon="3.84735">
        <ele>225.7</ele>
        <time>2019-08-20T13:17:16Z</time>
      </trkpt>
      <trkpt lat="46.49117" lon="3.84729">
        <ele>225.7</ele>
        <time>2019-08-20T13:17:17Z</time>
      </trkpt>
      <trkpt lat="46.49119" lon="3.84723">
        <ele>225.7</ele>
        <time>2019-08-20T13:17:18Z</time>
      </trkpt>
      <trkpt lat="46.49122" lon="3.84716">
        <ele>225.7</ele>
        <time>2019-08-20T13:17:19Z</time>
      </trkpt>
      <trkpt lat="46.49124" lon="3.84711">
        <ele>225.7</ele>
        <time>2019-08-20T13:17:20Z</time>
      </trkpt>
      <trkpt lat="46.49126" lon="3.84706">
        <ele>225.6</ele>
        <time>2019-08-20T13:17:21Z</time>
      </trkpt>
      <trkpt lat="46.4913" lon="3.847">
        <ele>225.6</ele>
        <time>2019-08-20T13:17:22Z</time>
      </trkpt>
      <trkpt lat="46.49133" lon="3.84694">
        <ele>225.6</ele>
        <time>2019-08-20T13:17:23Z</time>
      </trkpt>
      <trkpt lat="46.49136" lon="3.84688">
        <ele>225.6</ele>
        <time>2019-08-20T13:17:24Z</time>
      </trkpt>
      <trkpt lat="46.49139" lon="3.84681">
        <ele>225.6</ele>
        <time>2019-08-20T13:17:25Z</time>
      </trkpt>
      <trkpt lat="46.49142" lon="3.84675">
        <ele>225.6</ele>
        <time>2019-08-20T13:17:26Z</time>
      </trkpt>
      <trkpt lat="46.49144" lon="3.84668">
        <ele>225.6</ele>
        <time>2019-08-20T13:17:27Z</time>
      </trkpt>
      <trkpt lat="46.49146" lon="3.84663">
        <ele>225.6</ele>
        <time>2019-08-20T13:17:28Z</time>
      </trkpt>
      <trkpt lat="46.49149" lon="3.84658">
        <ele>225.6</ele>
        <time>2019-08-20T13:17:29Z</time>
      </trkpt>
      <trkpt lat="46.49151" lon="3.84652">
        <ele>225.6</ele>
        <time>2019-08-20T13:17:30Z</time>
      </trkpt>
      <trkpt lat="46.49154" lon="3.84647">
        <ele>225.6</ele>
        <time>2019-08-20T13:17:31Z</time>
      </trkpt>
      <trkpt lat="46.49156" lon="3.84642">
        <ele>225.6</ele>
        <time>2019-08-20T13:17:32Z</time>
      </trkpt>
      <trkpt lat="46.49158" lon="3.84636">
        <ele>225.6</ele>
        <time>2019-08-20T13:17:33Z</time>
      </trkpt>
      <trkpt lat="46.49161" lon="3.8463">
        <ele>225.6</ele>
        <time>2019-08-20T13:17:34Z</time>
      </trkpt>
      <trkpt lat="46.49163" lon="3.84625">
        <ele>225.6</ele>
        <time>2019-08-20T13:17:35Z</time>
      </trkpt>
      <trkpt lat="46.49166" lon="3.84619">
        <ele>225.6</ele>
        <time>2019-08-20T13:17:36Z</time>
      </trkpt>
      <trkpt lat="46.49169" lon="3.84612">
        <ele>225.6</ele>
        <time>2019-08-20T13:17:37Z</time>
      </trkpt>
      <trkpt lat="46.49172" lon="3.84606">
        <ele>225.6</ele>
        <time>2019-08-20T13:17:38Z</time>
      </trkpt>
      <trkpt lat="46.49175" lon="3.84601">
        <ele>225.7</ele>
        <time>2019-08-20T13:17:39Z</time>
      </trkpt>
      <trkpt lat="46.49177" lon="3.84595">
        <ele>225.7</ele>
        <time>2019-08-20T13:17:40Z</time>
      </trkpt>
      <trkpt lat="46.4918" lon="3.84589">
        <ele>225.7</ele>
        <time>2019-08-20T13:17:41Z</time>
      </trkpt>
      <trkpt lat="46.49182" lon="3.84584">
        <ele>225.7</ele>
        <time>2019-08-20T13:17:42Z</time>
      </trkpt>
      <trkpt lat="46.49184" lon="3.84578">
        <ele>225.7</ele>
        <time>2019-08-20T13:17:43Z</time>
      </trkpt>
      <trkpt lat="46.49186" lon="3.84573">
        <ele>225.7</ele>
        <time>2019-08-20T13:17:44Z</time>
      </trkpt>
      <trkpt lat="46.49188" lon="3.84567">
        <ele>225.7</ele>
        <time>2019-08-20T13:17:45Z</time>
      </trkpt>
      <trkpt lat="46.49191" lon="3.84562">
        <ele>225.8</ele>
        <time>2019-08-20T13:17:46Z</time>
      </trkpt>
      <trkpt lat="46.49194" lon="3.84556">
        <ele>225.8</ele>
        <time>2019-08-20T13:17:47Z</time>
      </trkpt>
      <trkpt lat="46.49197" lon="3.84551">
        <ele>225.8</ele>
        <time>2019-08-20T13:17:48Z</time>
      </trkpt>
      <trkpt lat="46.492" lon="3.84545">
        <ele>225.8</ele>
        <time>2019-08-20T13:17:49Z</time>
      </trkpt>
      <trkpt lat="46.49202" lon="3.84539">
        <ele>225.8</ele>
        <time>2019-08-20T13:17:50Z</time>
      </trkpt>
      <trkpt lat="46.49205" lon="3.84531">
        <ele>225.8</ele>
        <time>2019-08-20T13:17:51Z</time>
      </trkpt>
      <trkpt lat="46.49208" lon="3.84525">
        <ele>225.8</ele>
        <time>2019-08-20T13:17:52Z</time>
      </trkpt>
      <trkpt lat="46.4921" lon="3.8452">
        <ele>225.8</ele>
        <time>2019-08-20T13:17:53Z</time>
      </trkpt>
      <trkpt lat="46.49213" lon="3.84513">
        <ele>225.8</ele>
        <time>2019-08-20T13:17:54Z</time>
      </trkpt>
      <trkpt lat="46.49215" lon="3.84507">
        <ele>225.8</ele>
        <time>2019-08-20T13:17:55Z</time>
      </trkpt>
      <trkpt lat="46.49218" lon="3.84501">
        <ele>225.8</ele>
        <time>2019-08-20T13:17:56Z</time>
      </trkpt>
      <trkpt lat="46.4922" lon="3.84494">
        <ele>225.8</ele>
        <time>2019-08-20T13:17:57Z</time>
      </trkpt>
      <trkpt lat="46.49222" lon="3.84488">
        <ele>225.8</ele>
        <time>2019-08-20T13:17:58Z</time>
      </trkpt>
      <trkpt lat="46.49225" lon="3.84481">
        <ele>225.8</ele>
        <time>2019-08-20T13:17:59Z</time>
      </trkpt>
      <trkpt lat="46.49228" lon="3.84475">
        <ele>225.8</ele>
        <time>2019-08-20T13:18:00Z</time>
      </trkpt>
      <trkpt lat="46.4923" lon="3.8447">
        <ele>225.8</ele>
        <time>2019-08-20T13:18:01Z</time>
      </trkpt>
      <trkpt lat="46.49232" lon="3.84464">
        <ele>225.8</ele>
        <time>2019-08-20T13:18:02Z</time>
      </trkpt>
      <trkpt lat="46.49235" lon="3.84458">
        <ele>225.8</ele>
        <time>2019-08-20T13:18:03Z</time>
      </trkpt>
      <trkpt lat="46.49238" lon="3.84453">
        <ele>225.8</ele>
        <time>2019-08-20T13:18:04Z</time>
      </trkpt>
      <trkpt lat="46.4924" lon="3.84448">
        <ele>225.8</ele>
        <time>2019-08-20T13:18:05Z</time>
      </trkpt>
      <trkpt lat="46.49244" lon="3.84443">
        <ele>225.8</ele>
        <time>2019-08-20T13:18:06Z</time>
      </trkpt>
      <trkpt lat="46.49247" lon="3.84438">
        <ele>225.8</ele>
        <time>2019-08-20T13:18:07Z</time>
      </trkpt>
      <trkpt lat="46.49249" lon="3.84432">
        <ele>225.8</ele>
        <time>2019-08-20T13:18:08Z</time>
      </trkpt>
      <trkpt lat="46.49252" lon="3.84428">
        <ele>225.8</ele>
        <time>2019-08-20T13:18:09Z</time>
      </trkpt>
      <trkpt lat="46.49254" lon="3.84421">
        <ele>225.8</ele>
        <time>2019-08-20T13:18:10Z</time>
      </trkpt>
      <trkpt lat="46.49256" lon="3.84414">
        <ele>225.8</ele>
        <time>2019-08-20T13:18:11Z</time>
      </trkpt>
      <trkpt lat="46.49259" lon="3.84409">
        <ele>225.8</ele>
        <time>2019-08-20T13:18:12Z</time>
      </trkpt>
      <trkpt lat="46.49262" lon="3.84402">
        <ele>225.8</ele>
        <time>2019-08-20T13:18:13Z</time>
      </trkpt>
      <trkpt lat="46.49264" lon="3.84396">
        <ele>225.7</ele>
        <time>2019-08-20T13:18:14Z</time>
      </trkpt>
      <trkpt lat="46.49266" lon="3.8439">
        <ele>225.7</ele>
        <time>2019-08-20T13:18:15Z</time>
      </trkpt>
      <trkpt lat="46.49268" lon="3.84385">
        <ele>225.7</ele>
        <time>2019-08-20T13:18:16Z</time>
      </trkpt>
      <trkpt lat="46.49271" lon="3.84379">
        <ele>225.7</ele>
        <time>2019-08-20T13:18:17Z</time>
      </trkpt>
      <trkpt lat="46.49273" lon="3.84374">
        <ele>225.7</ele>
        <time>2019-08-20T13:18:18Z</time>
      </trkpt>
      <trkpt lat="46.49275" lon="3.84367">
        <ele>225.7</ele>
        <time>2019-08-20T13:18:19Z</time>
      </trkpt>
      <trkpt lat="46.49278" lon="3.84361">
        <ele>225.7</ele>
        <time>2019-08-20T13:18:20Z</time>
      </trkpt>
      <trkpt lat="46.49281" lon="3.84355">
        <ele>225.7</ele>
        <time>2019-08-20T13:18:21Z</time>
      </trkpt>
      <trkpt lat="46.49284" lon="3.8435">
        <ele>225.7</ele>
        <time>2019-08-20T13:18:22Z</time>
      </trkpt>
      <trkpt lat="46.49286" lon="3.84345">
        <ele>225.7</ele>
        <time>2019-08-20T13:18:23Z</time>
      </trkpt>
      <trkpt lat="46.49289" lon="3.84339">
        <ele>225.7</ele>
        <time>2019-08-20T13:18:24Z</time>
      </trkpt>
      <trkpt lat="46.49292" lon="3.84334">
        <ele>225.7</ele>
        <time>2019-08-20T13:18:25Z</time>
      </trkpt>
      <trkpt lat="46.49294" lon="3.84329">
        <ele>225.7</ele>
        <time>2019-08-20T13:18:26Z</time>
      </trkpt>
      <trkpt lat="46.49297" lon="3.84324">
        <ele>225.7</ele>
        <time>2019-08-20T13:18:27Z</time>
      </trkpt>
      <trkpt lat="46.493" lon="3.84319">
        <ele>225.7</ele>
        <time>2019-08-20T13:18:28Z</time>
      </trkpt>
      <trkpt lat="46.49302" lon="3.84314">
        <ele>225.7</ele>
        <time>2019-08-20T13:18:29Z</time>
      </trkpt>
      <trkpt lat="46.49305" lon="3.84307">
        <ele>225.7</ele>
        <time>2019-08-20T13:18:30Z</time>
      </trkpt>
      <trkpt lat="46.49308" lon="3.84301">
        <ele>225.7</ele>
        <time>2019-08-20T13:18:31Z</time>
      </trkpt>
      <trkpt lat="46.49311" lon="3.84296">
        <ele>225.7</ele>
        <time>2019-08-20T13:18:32Z</time>
      </trkpt>
      <trkpt lat="46.49312" lon="3.8429">
        <ele>225.7</ele>
        <time>2019-08-20T13:18:33Z</time>
      </trkpt>
      <trkpt lat="46.49315" lon="3.84285">
        <ele>225.7</ele>
        <time>2019-08-20T13:18:34Z</time>
      </trkpt>
      <trkpt lat="46.49317" lon="3.8428">
        <ele>225.7</ele>
        <time>2019-08-20T13:18:35Z</time>
      </trkpt>
      <trkpt lat="46.4932" lon="3.84274">
        <ele>225.7</ele>
        <time>2019-08-20T13:18:36Z</time>
      </trkpt>
      <trkpt lat="46.49322" lon="3.84268">
        <ele>225.7</ele>
        <time>2019-08-20T13:18:37Z</time>
      </trkpt>
      <trkpt lat="46.49325" lon="3.84262">
        <ele>225.7</ele>
        <time>2019-08-20T13:18:38Z</time>
      </trkpt>
      <trkpt lat="46.49327" lon="3.84255">
        <ele>225.7</ele>
        <time>2019-08-20T13:18:39Z</time>
      </trkpt>
      <trkpt lat="46.49331" lon="3.84248">
        <ele>225.7</ele>
        <time>2019-08-20T13:18:40Z</time>
      </trkpt>
      <trkpt lat="46.49333" lon="3.84243">
        <ele>225.7</ele>
        <time>2019-08-20T13:18:41Z</time>
      </trkpt>
      <trkpt lat="46.49336" lon="3.84237">
        <ele>225.7</ele>
        <time>2019-08-20T13:18:42Z</time>
      </trkpt>
      <trkpt lat="46.49339" lon="3.84232">
        <ele>225.7</ele>
        <time>2019-08-20T13:18:43Z</time>
      </trkpt>
      <trkpt lat="46.49341" lon="3.84228">
        <ele>225.8</ele>
        <time>2019-08-20T13:18:44Z</time>
      </trkpt>
      <trkpt lat="46.49344" lon="3.84222">
        <ele>225.8</ele>
        <time>2019-08-20T13:18:45Z</time>
      </trkpt>
      <trkpt lat="46.49346" lon="3.84217">
        <ele>225.8</ele>
        <time>2019-08-20T13:18:46Z</time>
      </trkpt>
      <trkpt lat="46.4935" lon="3.84211">
        <ele>225.8</ele>
        <time>2019-08-20T13:18:47Z</time>
      </trkpt>
      <trkpt lat="46.49353" lon="3.84207">
        <ele>225.8</ele>
        <time>2019-08-20T13:18:48Z</time>
      </trkpt>
      <trkpt lat="46.49357" lon="3.84202">
        <ele>225.8</ele>
        <time>2019-08-20T13:18:49Z</time>
      </trkpt>
      <trkpt lat="46.4936" lon="3.84198">
        <ele>225.8</ele>
        <time>2019-08-20T13:18:50Z</time>
      </trkpt>
      <trkpt lat="46.49363" lon="3.84193">
        <ele>225.8</ele>
        <time>2019-08-20T13:18:51Z</time>
      </trkpt>
      <trkpt lat="46.49366" lon="3.84187">
        <ele>225.8</ele>
        <time>2019-08-20T13:18:52Z</time>
      </trkpt>
      <trkpt lat="46.4937" lon="3.84182">
        <ele>225.8</ele>
        <time>2019-08-20T13:18:53Z</time>
      </trkpt>
      <trkpt lat="46.49373" lon="3.84176">
        <ele>225.8</ele>
        <time>2019-08-20T13:18:54Z</time>
      </trkpt>
      <trkpt lat="46.49374" lon="3.8417">
        <ele>225.8</ele>
        <time>2019-08-20T13:18:55Z</time>
      </trkpt>
      <trkpt lat="46.49376" lon="3.84166">
        <ele>225.8</ele>
        <time>2019-08-20T13:18:56Z</time>
      </trkpt>
      <trkpt lat="46.49378" lon="3.84162">
        <ele>225.9</ele>
        <time>2019-08-20T13:18:57Z</time>
      </trkpt>
      <trkpt lat="46.4938" lon="3.84157">
        <ele>225.9</ele>
        <time>2019-08-20T13:18:58Z</time>
      </trkpt>
      <trkpt lat="46.49382" lon="3.84153">
        <ele>225.9</ele>
        <time>2019-08-20T13:18:59Z</time>
      </trkpt>
      <trkpt lat="46.49384" lon="3.8415">
        <ele>225.9</ele>
        <time>2019-08-20T13:19:00Z</time>
      </trkpt>
      <trkpt lat="46.49387" lon="3.84147">
        <ele>226</ele>
        <time>2019-08-20T13:19:02Z</time>
      </trkpt>
      <trkpt lat="46.4939" lon="3.84142">
        <ele>225.9</ele>
        <time>2019-08-20T13:19:04Z</time>
      </trkpt>
      <trkpt lat="46.49393" lon="3.84135">
        <ele>225.6</ele>
        <time>2019-08-20T13:19:06Z</time>
      </trkpt>
      <trkpt lat="46.49395" lon="3.8413">
        <ele>225.4</ele>
        <time>2019-08-20T13:19:07Z</time>
      </trkpt>
      <trkpt lat="46.49398" lon="3.84127">
        <ele>225.1</ele>
        <time>2019-08-20T13:19:08Z</time>
      </trkpt>
      <trkpt lat="46.49401" lon="3.84121">
        <ele>224.7</ele>
        <time>2019-08-20T13:19:09Z</time>
      </trkpt>
      <trkpt lat="46.49403" lon="3.84116">
        <ele>224.5</ele>
        <time>2019-08-20T13:19:10Z</time>
      </trkpt>
      <trkpt lat="46.49406" lon="3.8411">
        <ele>224.2</ele>
        <time>2019-08-20T13:19:11Z</time>
      </trkpt>
      <trkpt lat="46.49409" lon="3.84104">
        <ele>223.9</ele>
        <time>2019-08-20T13:19:12Z</time>
      </trkpt>
      <trkpt lat="46.49413" lon="3.84097">
        <ele>223.8</ele>
        <time>2019-08-20T13:19:13Z</time>
      </trkpt>
      <trkpt lat="46.49415" lon="3.8409">
        <ele>223.7</ele>
        <time>2019-08-20T13:19:14Z</time>
      </trkpt>
      <trkpt lat="46.49418" lon="3.84081">
        <ele>223.7</ele>
        <time>2019-08-20T13:19:15Z</time>
      </trkpt>
      <trkpt lat="46.49422" lon="3.84073">
        <ele>223.6</ele>
        <time>2019-08-20T13:19:16Z</time>
      </trkpt>
      <trkpt lat="46.49425" lon="3.84066">
        <ele>223.5</ele>
        <time>2019-08-20T13:19:17Z</time>
      </trkpt>
      <trkpt lat="46.49429" lon="3.84058">
        <ele>223.5</ele>
        <time>2019-08-20T13:19:18Z</time>
      </trkpt>
      <trkpt lat="46.49432" lon="3.84052">
        <ele>223.5</ele>
        <time>2019-08-20T13:19:19Z</time>
      </trkpt>
      <trkpt lat="46.49435" lon="3.84046">
        <ele>223.4</ele>
        <time>2019-08-20T13:19:20Z</time>
      </trkpt>
      <trkpt lat="46.49438" lon="3.8404">
        <ele>223.4</ele>
        <time>2019-08-20T13:19:21Z</time>
      </trkpt>
      <trkpt lat="46.49441" lon="3.84034">
        <ele>223.3</ele>
        <time>2019-08-20T13:19:22Z</time>
      </trkpt>
      <trkpt lat="46.49445" lon="3.84028">
        <ele>223.3</ele>
        <time>2019-08-20T13:19:23Z</time>
      </trkpt>
      <trkpt lat="46.49448" lon="3.84024">
        <ele>223.3</ele>
        <time>2019-08-20T13:19:24Z</time>
      </trkpt>
      <trkpt lat="46.49451" lon="3.84019">
        <ele>223.3</ele>
        <time>2019-08-20T13:19:25Z</time>
      </trkpt>
      <trkpt lat="46.49453" lon="3.84014">
        <ele>223.2</ele>
        <time>2019-08-20T13:19:26Z</time>
      </trkpt>
      <trkpt lat="46.49456" lon="3.84008">
        <ele>223.2</ele>
        <time>2019-08-20T13:19:27Z</time>
      </trkpt>
      <trkpt lat="46.4946" lon="3.84">
        <ele>223.1</ele>
        <time>2019-08-20T13:19:28Z</time>
      </trkpt>
      <trkpt lat="46.49461" lon="3.83994">
        <ele>223.1</ele>
        <time>2019-08-20T13:19:29Z</time>
      </trkpt>
      <trkpt lat="46.49465" lon="3.83988">
        <ele>223.1</ele>
        <time>2019-08-20T13:19:30Z</time>
      </trkpt>
      <trkpt lat="46.49468" lon="3.83984">
        <ele>223</ele>
        <time>2019-08-20T13:19:31Z</time>
      </trkpt>
      <trkpt lat="46.4947" lon="3.83977">
        <ele>223</ele>
        <time>2019-08-20T13:19:32Z</time>
      </trkpt>
      <trkpt lat="46.49472" lon="3.83972">
        <ele>223</ele>
        <time>2019-08-20T13:19:33Z</time>
      </trkpt>
      <trkpt lat="46.49473" lon="3.83965">
        <ele>222.9</ele>
        <time>2019-08-20T13:19:34Z</time>
      </trkpt>
      <trkpt lat="46.49474" lon="3.8396">
        <ele>222.9</ele>
        <time>2019-08-20T13:19:35Z</time>
      </trkpt>
      <trkpt lat="46.49476" lon="3.83955">
        <ele>222.9</ele>
        <time>2019-08-20T13:19:36Z</time>
      </trkpt>
      <trkpt lat="46.49479" lon="3.8395">
        <ele>222.8</ele>
        <time>2019-08-20T13:19:37Z</time>
      </trkpt>
      <trkpt lat="46.49483" lon="3.83945">
        <ele>222.8</ele>
        <time>2019-08-20T13:19:38Z</time>
      </trkpt>
      <trkpt lat="46.49487" lon="3.8394">
        <ele>222.6</ele>
        <time>2019-08-20T13:19:39Z</time>
      </trkpt>
      <trkpt lat="46.49489" lon="3.83935">
        <ele>222.5</ele>
        <time>2019-08-20T13:19:40Z</time>
      </trkpt>
      <trkpt lat="46.49492" lon="3.83931">
        <ele>222.4</ele>
        <time>2019-08-20T13:19:41Z</time>
      </trkpt>
      <trkpt lat="46.49494" lon="3.83926">
        <ele>222.3</ele>
        <time>2019-08-20T13:19:42Z</time>
      </trkpt>
      <trkpt lat="46.49496" lon="3.83921">
        <ele>222.2</ele>
        <time>2019-08-20T13:19:43Z</time>
      </trkpt>
      <trkpt lat="46.49498" lon="3.83915">
        <ele>222</ele>
        <time>2019-08-20T13:19:44Z</time>
      </trkpt>
      <trkpt lat="46.495" lon="3.83911">
        <ele>221.9</ele>
        <time>2019-08-20T13:19:45Z</time>
      </trkpt>
      <trkpt lat="46.49502" lon="3.83906">
        <ele>221.8</ele>
        <time>2019-08-20T13:19:46Z</time>
      </trkpt>
      <trkpt lat="46.49506" lon="3.83901">
        <ele>221.7</ele>
        <time>2019-08-20T13:19:48Z</time>
      </trkpt>
      <trkpt lat="46.49509" lon="3.83895">
        <ele>221.6</ele>
        <time>2019-08-20T13:19:50Z</time>
      </trkpt>
      <trkpt lat="46.49511" lon="3.83893">
        <ele>221.5</ele>
        <time>2019-08-20T13:19:51Z</time>
      </trkpt>
      <trkpt lat="46.49514" lon="3.83891">
        <ele>221.5</ele>
        <time>2019-08-20T13:19:52Z</time>
      </trkpt>
      <trkpt lat="46.49516" lon="3.83887">
        <ele>221.4</ele>
        <time>2019-08-20T13:19:53Z</time>
      </trkpt>
      <trkpt lat="46.49519" lon="3.83884">
        <ele>221.3</ele>
        <time>2019-08-20T13:19:54Z</time>
      </trkpt>
      <trkpt lat="46.49521" lon="3.8388">
        <ele>221.2</ele>
        <time>2019-08-20T13:19:55Z</time>
      </trkpt>
      <trkpt lat="46.49524" lon="3.83875">
        <ele>221.1</ele>
        <time>2019-08-20T13:19:56Z</time>
      </trkpt>
      <trkpt lat="46.49527" lon="3.83869">
        <ele>221</ele>
        <time>2019-08-20T13:19:57Z</time>
      </trkpt>
      <trkpt lat="46.49531" lon="3.83862">
        <ele>220.8</ele>
        <time>2019-08-20T13:19:58Z</time>
      </trkpt>
      <trkpt lat="46.49534" lon="3.83856">
        <ele>220.7</ele>
        <time>2019-08-20T13:19:59Z</time>
      </trkpt>
      <trkpt lat="46.49538" lon="3.83853">
        <ele>220.7</ele>
        <time>2019-08-20T13:20:00Z</time>
      </trkpt>
      <trkpt lat="46.49542" lon="3.83847">
        <ele>220.6</ele>
        <time>2019-08-20T13:20:01Z</time>
      </trkpt>
      <trkpt lat="46.49545" lon="3.8384">
        <ele>220.6</ele>
        <time>2019-08-20T13:20:02Z</time>
      </trkpt>
      <trkpt lat="46.49548" lon="3.83834">
        <ele>220.6</ele>
        <time>2019-08-20T13:20:03Z</time>
      </trkpt>
      <trkpt lat="46.49551" lon="3.83827">
        <ele>220.6</ele>
        <time>2019-08-20T13:20:04Z</time>
      </trkpt>
      <trkpt lat="46.49554" lon="3.83821">
        <ele>220.6</ele>
        <time>2019-08-20T13:20:05Z</time>
      </trkpt>
      <trkpt lat="46.49557" lon="3.83814">
        <ele>220.6</ele>
        <time>2019-08-20T13:20:06Z</time>
      </trkpt>
      <trkpt lat="46.49561" lon="3.8381">
        <ele>220.6</ele>
        <time>2019-08-20T13:20:07Z</time>
      </trkpt>
      <trkpt lat="46.49564" lon="3.83804">
        <ele>220.6</ele>
        <time>2019-08-20T13:20:08Z</time>
      </trkpt>
      <trkpt lat="46.49568" lon="3.83798">
        <ele>220.6</ele>
        <time>2019-08-20T13:20:09Z</time>
      </trkpt>
      <trkpt lat="46.49571" lon="3.83793">
        <ele>220.6</ele>
        <time>2019-08-20T13:20:10Z</time>
      </trkpt>
      <trkpt lat="46.49573" lon="3.83788">
        <ele>220.6</ele>
        <time>2019-08-20T13:20:11Z</time>
      </trkpt>
      <trkpt lat="46.49576" lon="3.83783">
        <ele>220.6</ele>
        <time>2019-08-20T13:20:12Z</time>
      </trkpt>
      <trkpt lat="46.49579" lon="3.83778">
        <ele>220.5</ele>
        <time>2019-08-20T13:20:13Z</time>
      </trkpt>
      <trkpt lat="46.49582" lon="3.83773">
        <ele>220.5</ele>
        <time>2019-08-20T13:20:14Z</time>
      </trkpt>
      <trkpt lat="46.49585" lon="3.83768">
        <ele>220.5</ele>
        <time>2019-08-20T13:20:15Z</time>
      </trkpt>
      <trkpt lat="46.49589" lon="3.83763">
        <ele>220.5</ele>
        <time>2019-08-20T13:20:16Z</time>
      </trkpt>
      <trkpt lat="46.49592" lon="3.83759">
        <ele>220.4</ele>
        <time>2019-08-20T13:20:17Z</time>
      </trkpt>
      <trkpt lat="46.49594" lon="3.83754">
        <ele>220.4</ele>
        <time>2019-08-20T13:20:18Z</time>
      </trkpt>
      <trkpt lat="46.49596" lon="3.83749">
        <ele>220.4</ele>
        <time>2019-08-20T13:20:19Z</time>
      </trkpt>
      <trkpt lat="46.49598" lon="3.83743">
        <ele>220.4</ele>
        <time>2019-08-20T13:20:20Z</time>
      </trkpt>
      <trkpt lat="46.496" lon="3.83739">
        <ele>220.4</ele>
        <time>2019-08-20T13:20:21Z</time>
      </trkpt>
      <trkpt lat="46.49602" lon="3.83734">
        <ele>220.4</ele>
        <time>2019-08-20T13:20:22Z</time>
      </trkpt>
      <trkpt lat="46.49604" lon="3.8373">
        <ele>220.4</ele>
        <time>2019-08-20T13:20:23Z</time>
      </trkpt>
      <trkpt lat="46.49606" lon="3.83725">
        <ele>220.4</ele>
        <time>2019-08-20T13:20:24Z</time>
      </trkpt>
      <trkpt lat="46.49608" lon="3.83722">
        <ele>220.4</ele>
        <time>2019-08-20T13:20:25Z</time>
      </trkpt>
      <trkpt lat="46.49611" lon="3.83718">
        <ele>220.4</ele>
        <time>2019-08-20T13:20:26Z</time>
      </trkpt>
      <trkpt lat="46.49613" lon="3.83713">
        <ele>220.4</ele>
        <time>2019-08-20T13:20:27Z</time>
      </trkpt>
      <trkpt lat="46.49615" lon="3.8371">
        <ele>220.4</ele>
        <time>2019-08-20T13:20:28Z</time>
      </trkpt>
      <trkpt lat="46.49617" lon="3.83706">
        <ele>220.4</ele>
        <time>2019-08-20T13:20:29Z</time>
      </trkpt>
      <trkpt lat="46.49621" lon="3.83702">
        <ele>220.4</ele>
        <time>2019-08-20T13:20:30Z</time>
      </trkpt>
      <trkpt lat="46.49624" lon="3.83698">
        <ele>220.4</ele>
        <time>2019-08-20T13:20:31Z</time>
      </trkpt>
      <trkpt lat="46.49626" lon="3.83694">
        <ele>220.4</ele>
        <time>2019-08-20T13:20:32Z</time>
      </trkpt>
      <trkpt lat="46.49629" lon="3.83691">
        <ele>220.4</ele>
        <time>2019-08-20T13:20:33Z</time>
      </trkpt>
      <trkpt lat="46.49631" lon="3.83686">
        <ele>220.4</ele>
        <time>2019-08-20T13:20:34Z</time>
      </trkpt>
      <trkpt lat="46.49634" lon="3.8368">
        <ele>220.4</ele>
        <time>2019-08-20T13:20:35Z</time>
      </trkpt>
      <trkpt lat="46.49635" lon="3.83674">
        <ele>220.4</ele>
        <time>2019-08-20T13:20:36Z</time>
      </trkpt>
      <trkpt lat="46.49638" lon="3.83669">
        <ele>220.4</ele>
        <time>2019-08-20T13:20:37Z</time>
      </trkpt>
      <trkpt lat="46.4964" lon="3.83664">
        <ele>220.4</ele>
        <time>2019-08-20T13:20:38Z</time>
      </trkpt>
      <trkpt lat="46.49642" lon="3.83659">
        <ele>220.4</ele>
        <time>2019-08-20T13:20:39Z</time>
      </trkpt>
      <trkpt lat="46.49646" lon="3.83653">
        <ele>220.5</ele>
        <time>2019-08-20T13:20:40Z</time>
      </trkpt>
      <trkpt lat="46.49648" lon="3.83649">
        <ele>220.5</ele>
        <time>2019-08-20T13:20:41Z</time>
      </trkpt>
      <trkpt lat="46.4965" lon="3.83645">
        <ele>220.5</ele>
        <time>2019-08-20T13:20:42Z</time>
      </trkpt>
      <trkpt lat="46.49652" lon="3.83641">
        <ele>220.5</ele>
        <time>2019-08-20T13:20:43Z</time>
      </trkpt>
      <trkpt lat="46.49654" lon="3.83636">
        <ele>220.5</ele>
        <time>2019-08-20T13:20:44Z</time>
      </trkpt>
      <trkpt lat="46.49657" lon="3.83631">
        <ele>220.6</ele>
        <time>2019-08-20T13:20:45Z</time>
      </trkpt>
      <trkpt lat="46.49659" lon="3.83627">
        <ele>220.6</ele>
        <time>2019-08-20T13:20:46Z</time>
      </trkpt>
      <trkpt lat="46.49662" lon="3.83623">
        <ele>220.6</ele>
        <time>2019-08-20T13:20:47Z</time>
      </trkpt>
      <trkpt lat="46.49664" lon="3.83618">
        <ele>220.6</ele>
        <time>2019-08-20T13:20:48Z</time>
      </trkpt>
      <trkpt lat="46.49666" lon="3.83613">
        <ele>220.6</ele>
        <time>2019-08-20T13:20:49Z</time>
      </trkpt>
      <trkpt lat="46.49669" lon="3.83609">
        <ele>220.6</ele>
        <time>2019-08-20T13:20:50Z</time>
      </trkpt>
      <trkpt lat="46.49673" lon="3.83603">
        <ele>220.6</ele>
        <time>2019-08-20T13:20:51Z</time>
      </trkpt>
      <trkpt lat="46.49676" lon="3.83597">
        <ele>220.6</ele>
        <time>2019-08-20T13:20:52Z</time>
      </trkpt>
      <trkpt lat="46.49679" lon="3.83592">
        <ele>220.6</ele>
        <time>2019-08-20T13:20:53Z</time>
      </trkpt>
      <trkpt lat="46.49681" lon="3.83587">
        <ele>220.5</ele>
        <time>2019-08-20T13:20:54Z</time>
      </trkpt>
      <trkpt lat="46.49684" lon="3.83582">
        <ele>220.5</ele>
        <time>2019-08-20T13:20:55Z</time>
      </trkpt>
      <trkpt lat="46.49686" lon="3.83577">
        <ele>220.5</ele>
        <time>2019-08-20T13:20:56Z</time>
      </trkpt>
      <trkpt lat="46.49688" lon="3.83573">
        <ele>220.4</ele>
        <time>2019-08-20T13:20:57Z</time>
      </trkpt>
      <trkpt lat="46.49691" lon="3.83568">
        <ele>220.4</ele>
        <time>2019-08-20T13:20:58Z</time>
      </trkpt>
      <trkpt lat="46.49694" lon="3.83563">
        <ele>220.4</ele>
        <time>2019-08-20T13:20:59Z</time>
      </trkpt>
      <trkpt lat="46.49697" lon="3.83559">
        <ele>220.4</ele>
        <time>2019-08-20T13:21:00Z</time>
      </trkpt>
      <trkpt lat="46.497" lon="3.83554">
        <ele>220.3</ele>
        <time>2019-08-20T13:21:01Z</time>
      </trkpt>
      <trkpt lat="46.49704" lon="3.83549">
        <ele>220.3</ele>
        <time>2019-08-20T13:21:02Z</time>
      </trkpt>
      <trkpt lat="46.49707" lon="3.83544">
        <ele>220.3</ele>
        <time>2019-08-20T13:21:03Z</time>
      </trkpt>
      <trkpt lat="46.4971" lon="3.83539">
        <ele>220.3</ele>
        <time>2019-08-20T13:21:04Z</time>
      </trkpt>
      <trkpt lat="46.49712" lon="3.83535">
        <ele>220.3</ele>
        <time>2019-08-20T13:21:05Z</time>
      </trkpt>
      <trkpt lat="46.49714" lon="3.83528">
        <ele>220.3</ele>
        <time>2019-08-20T13:21:06Z</time>
      </trkpt>
      <trkpt lat="46.49716" lon="3.83522">
        <ele>220.3</ele>
        <time>2019-08-20T13:21:07Z</time>
      </trkpt>
      <trkpt lat="46.49718" lon="3.83518">
        <ele>220.3</ele>
        <time>2019-08-20T13:21:08Z</time>
      </trkpt>
      <trkpt lat="46.49721" lon="3.83512">
        <ele>220.3</ele>
        <time>2019-08-20T13:21:09Z</time>
      </trkpt>
      <trkpt lat="46.49724" lon="3.83507">
        <ele>220.3</ele>
        <time>2019-08-20T13:21:10Z</time>
      </trkpt>
      <trkpt lat="46.49726" lon="3.83501">
        <ele>220.3</ele>
        <time>2019-08-20T13:21:11Z</time>
      </trkpt>
      <trkpt lat="46.49728" lon="3.83496">
        <ele>220.3</ele>
        <time>2019-08-20T13:21:12Z</time>
      </trkpt>
      <trkpt lat="46.49731" lon="3.83491">
        <ele>220.3</ele>
        <time>2019-08-20T13:21:13Z</time>
      </trkpt>
      <trkpt lat="46.49734" lon="3.83486">
        <ele>220.3</ele>
        <time>2019-08-20T13:21:14Z</time>
      </trkpt>
      <trkpt lat="46.49736" lon="3.83481">
        <ele>220.3</ele>
        <time>2019-08-20T13:21:15Z</time>
      </trkpt>
      <trkpt lat="46.49739" lon="3.83476">
        <ele>220.3</ele>
        <time>2019-08-20T13:21:16Z</time>
      </trkpt>
      <trkpt lat="46.49742" lon="3.8347">
        <ele>220.3</ele>
        <time>2019-08-20T13:21:17Z</time>
      </trkpt>
      <trkpt lat="46.49745" lon="3.83465">
        <ele>220.3</ele>
        <time>2019-08-20T13:21:18Z</time>
      </trkpt>
      <trkpt lat="46.49748" lon="3.83459">
        <ele>220.3</ele>
        <time>2019-08-20T13:21:19Z</time>
      </trkpt>
      <trkpt lat="46.49751" lon="3.83454">
        <ele>220.3</ele>
        <time>2019-08-20T13:21:20Z</time>
      </trkpt>
      <trkpt lat="46.49753" lon="3.83448">
        <ele>220.3</ele>
        <time>2019-08-20T13:21:21Z</time>
      </trkpt>
      <trkpt lat="46.49756" lon="3.83443">
        <ele>220.2</ele>
        <time>2019-08-20T13:21:22Z</time>
      </trkpt>
      <trkpt lat="46.49758" lon="3.8344">
        <ele>220.2</ele>
        <time>2019-08-20T13:21:23Z</time>
      </trkpt>
      <trkpt lat="46.4976" lon="3.83436">
        <ele>220.2</ele>
        <time>2019-08-20T13:21:24Z</time>
      </trkpt>
      <trkpt lat="46.49763" lon="3.83431">
        <ele>220.2</ele>
        <time>2019-08-20T13:21:25Z</time>
      </trkpt>
      <trkpt lat="46.49766" lon="3.83427">
        <ele>220.2</ele>
        <time>2019-08-20T13:21:26Z</time>
      </trkpt>
      <trkpt lat="46.49769" lon="3.83423">
        <ele>220.1</ele>
        <time>2019-08-20T13:21:27Z</time>
      </trkpt>
      <trkpt lat="46.49772" lon="3.83418">
        <ele>220.1</ele>
        <time>2019-08-20T13:21:28Z</time>
      </trkpt>
      <trkpt lat="46.49774" lon="3.83412">
        <ele>220.1</ele>
        <time>2019-08-20T13:21:29Z</time>
      </trkpt>
      <trkpt lat="46.49777" lon="3.83408">
        <ele>220</ele>
        <time>2019-08-20T13:21:30Z</time>
      </trkpt>
      <trkpt lat="46.49779" lon="3.83403">
        <ele>220</ele>
        <time>2019-08-20T13:21:31Z</time>
      </trkpt>
      <trkpt lat="46.49782" lon="3.83398">
        <ele>219.9</ele>
        <time>2019-08-20T13:21:32Z</time>
      </trkpt>
      <trkpt lat="46.49785" lon="3.83393">
        <ele>219.9</ele>
        <time>2019-08-20T13:21:33Z</time>
      </trkpt>
      <trkpt lat="46.49787" lon="3.83388">
        <ele>219.9</ele>
        <time>2019-08-20T13:21:34Z</time>
      </trkpt>
      <trkpt lat="46.49789" lon="3.83383">
        <ele>219.8</ele>
        <time>2019-08-20T13:21:35Z</time>
      </trkpt>
      <trkpt lat="46.49791" lon="3.83378">
        <ele>219.8</ele>
        <time>2019-08-20T13:21:36Z</time>
      </trkpt>
      <trkpt lat="46.49794" lon="3.83373">
        <ele>219.8</ele>
        <time>2019-08-20T13:21:37Z</time>
      </trkpt>
      <trkpt lat="46.49797" lon="3.83368">
        <ele>219.7</ele>
        <time>2019-08-20T13:21:38Z</time>
      </trkpt>
      <trkpt lat="46.498" lon="3.83364">
        <ele>219.7</ele>
        <time>2019-08-20T13:21:39Z</time>
      </trkpt>
      <trkpt lat="46.49803" lon="3.8336">
        <ele>219.7</ele>
        <time>2019-08-20T13:21:40Z</time>
      </trkpt>
      <trkpt lat="46.49805" lon="3.83354">
        <ele>219.7</ele>
        <time>2019-08-20T13:21:41Z</time>
      </trkpt>
      <trkpt lat="46.49809" lon="3.83349">
        <ele>219.7</ele>
        <time>2019-08-20T13:21:42Z</time>
      </trkpt>
      <trkpt lat="46.49812" lon="3.83344">
        <ele>219.8</ele>
        <time>2019-08-20T13:21:43Z</time>
      </trkpt>
      <trkpt lat="46.49814" lon="3.83339">
        <ele>219.8</ele>
        <time>2019-08-20T13:21:44Z</time>
      </trkpt>
      <trkpt lat="46.49816" lon="3.83333">
        <ele>219.8</ele>
        <time>2019-08-20T13:21:45Z</time>
      </trkpt>
      <trkpt lat="46.49819" lon="3.83327">
        <ele>219.9</ele>
        <time>2019-08-20T13:21:46Z</time>
      </trkpt>
      <trkpt lat="46.49823" lon="3.83321">
        <ele>219.9</ele>
        <time>2019-08-20T13:21:47Z</time>
      </trkpt>
      <trkpt lat="46.49825" lon="3.83316">
        <ele>219.9</ele>
        <time>2019-08-20T13:21:48Z</time>
      </trkpt>
      <trkpt lat="46.49827" lon="3.83308">
        <ele>220</ele>
        <time>2019-08-20T13:21:49Z</time>
      </trkpt>
      <trkpt lat="46.49829" lon="3.83303">
        <ele>220</ele>
        <time>2019-08-20T13:21:50Z</time>
      </trkpt>
      <trkpt lat="46.49831" lon="3.83298">
        <ele>220.1</ele>
        <time>2019-08-20T13:21:51Z</time>
      </trkpt>
      <trkpt lat="46.49834" lon="3.83294">
        <ele>220.1</ele>
        <time>2019-08-20T13:21:52Z</time>
      </trkpt>
      <trkpt lat="46.49837" lon="3.83289">
        <ele>220.2</ele>
        <time>2019-08-20T13:21:53Z</time>
      </trkpt>
      <trkpt lat="46.4984" lon="3.83284">
        <ele>220.3</ele>
        <time>2019-08-20T13:21:54Z</time>
      </trkpt>
      <trkpt lat="46.49842" lon="3.83279">
        <ele>220.3</ele>
        <time>2019-08-20T13:21:55Z</time>
      </trkpt>
      <trkpt lat="46.49845" lon="3.83273">
        <ele>220.4</ele>
        <time>2019-08-20T13:21:56Z</time>
      </trkpt>
      <trkpt lat="46.49848" lon="3.83267">
        <ele>220.4</ele>
        <time>2019-08-20T13:21:57Z</time>
      </trkpt>
      <trkpt lat="46.49851" lon="3.83261">
        <ele>220.5</ele>
        <time>2019-08-20T13:21:58Z</time>
      </trkpt>
      <trkpt lat="46.49854" lon="3.83256">
        <ele>220.6</ele>
        <time>2019-08-20T13:21:59Z</time>
      </trkpt>
      <trkpt lat="46.49857" lon="3.83251">
        <ele>220.6</ele>
        <time>2019-08-20T13:22:00Z</time>
      </trkpt>
      <trkpt lat="46.49861" lon="3.83245">
        <ele>220.6</ele>
        <time>2019-08-20T13:22:01Z</time>
      </trkpt>
      <trkpt lat="46.49865" lon="3.83241">
        <ele>220.7</ele>
        <time>2019-08-20T13:22:02Z</time>
      </trkpt>
      <trkpt lat="46.49867" lon="3.83236">
        <ele>220.7</ele>
        <time>2019-08-20T13:22:03Z</time>
      </trkpt>
      <trkpt lat="46.49871" lon="3.8323">
        <ele>220.7</ele>
        <time>2019-08-20T13:22:04Z</time>
      </trkpt>
      <trkpt lat="46.49874" lon="3.83224">
        <ele>220.7</ele>
        <time>2019-08-20T13:22:05Z</time>
      </trkpt>
      <trkpt lat="46.49876" lon="3.83218">
        <ele>220.7</ele>
        <time>2019-08-20T13:22:06Z</time>
      </trkpt>
      <trkpt lat="46.49879" lon="3.83214">
        <ele>220.7</ele>
        <time>2019-08-20T13:22:07Z</time>
      </trkpt>
      <trkpt lat="46.49882" lon="3.83208">
        <ele>220.6</ele>
        <time>2019-08-20T13:22:08Z</time>
      </trkpt>
      <trkpt lat="46.49884" lon="3.83203">
        <ele>220.6</ele>
        <time>2019-08-20T13:22:09Z</time>
      </trkpt>
      <trkpt lat="46.49887" lon="3.83198">
        <ele>220.5</ele>
        <time>2019-08-20T13:22:10Z</time>
      </trkpt>
      <trkpt lat="46.49889" lon="3.83191">
        <ele>220.5</ele>
        <time>2019-08-20T13:22:11Z</time>
      </trkpt>
      <trkpt lat="46.49892" lon="3.83184">
        <ele>220.4</ele>
        <time>2019-08-20T13:22:12Z</time>
      </trkpt>
      <trkpt lat="46.49895" lon="3.83179">
        <ele>220.3</ele>
        <time>2019-08-20T13:22:13Z</time>
      </trkpt>
      <trkpt lat="46.49899" lon="3.83174">
        <ele>220.3</ele>
        <time>2019-08-20T13:22:14Z</time>
      </trkpt>
      <trkpt lat="46.49902" lon="3.83169">
        <ele>220.2</ele>
        <time>2019-08-20T13:22:15Z</time>
      </trkpt>
      <trkpt lat="46.49905" lon="3.83163">
        <ele>220.1</ele>
        <time>2019-08-20T13:22:16Z</time>
      </trkpt>
      <trkpt lat="46.49908" lon="3.83157">
        <ele>220.1</ele>
        <time>2019-08-20T13:22:17Z</time>
      </trkpt>
      <trkpt lat="46.49912" lon="3.8315">
        <ele>220.1</ele>
        <time>2019-08-20T13:22:18Z</time>
      </trkpt>
      <trkpt lat="46.49915" lon="3.83144">
        <ele>220.1</ele>
        <time>2019-08-20T13:22:19Z</time>
      </trkpt>
      <trkpt lat="46.49918" lon="3.83138">
        <ele>220.1</ele>
        <time>2019-08-20T13:22:20Z</time>
      </trkpt>
      <trkpt lat="46.4992" lon="3.83132">
        <ele>220.1</ele>
        <time>2019-08-20T13:22:21Z</time>
      </trkpt>
      <trkpt lat="46.49923" lon="3.83127">
        <ele>220.1</ele>
        <time>2019-08-20T13:22:22Z</time>
      </trkpt>
      <trkpt lat="46.49927" lon="3.83121">
        <ele>220.2</ele>
        <time>2019-08-20T13:22:23Z</time>
      </trkpt>
      <trkpt lat="46.4993" lon="3.83116">
        <ele>220.2</ele>
        <time>2019-08-20T13:22:24Z</time>
      </trkpt>
      <trkpt lat="46.49933" lon="3.8311">
        <ele>220.3</ele>
        <time>2019-08-20T13:22:25Z</time>
      </trkpt>
      <trkpt lat="46.49936" lon="3.83105">
        <ele>220.3</ele>
        <time>2019-08-20T13:22:26Z</time>
      </trkpt>
      <trkpt lat="46.49939" lon="3.83099">
        <ele>220.4</ele>
        <time>2019-08-20T13:22:27Z</time>
      </trkpt>
      <trkpt lat="46.49941" lon="3.83095">
        <ele>220.4</ele>
        <time>2019-08-20T13:22:28Z</time>
      </trkpt>
      <trkpt lat="46.49945" lon="3.8309">
        <ele>220.5</ele>
        <time>2019-08-20T13:22:29Z</time>
      </trkpt>
      <trkpt lat="46.49948" lon="3.83083">
        <ele>220.5</ele>
        <time>2019-08-20T13:22:30Z</time>
      </trkpt>
      <trkpt lat="46.4995" lon="3.83077">
        <ele>220.6</ele>
        <time>2019-08-20T13:22:31Z</time>
      </trkpt>
      <trkpt lat="46.49953" lon="3.83071">
        <ele>220.7</ele>
        <time>2019-08-20T13:22:32Z</time>
      </trkpt>
      <trkpt lat="46.49956" lon="3.83065">
        <ele>220.8</ele>
        <time>2019-08-20T13:22:33Z</time>
      </trkpt>
      <trkpt lat="46.49958" lon="3.83059">
        <ele>220.8</ele>
        <time>2019-08-20T13:22:34Z</time>
      </trkpt>
      <trkpt lat="46.49961" lon="3.83055">
        <ele>220.9</ele>
        <time>2019-08-20T13:22:35Z</time>
      </trkpt>
      <trkpt lat="46.49963" lon="3.8305">
        <ele>220.9</ele>
        <time>2019-08-20T13:22:36Z</time>
      </trkpt>
      <trkpt lat="46.49966" lon="3.83045">
        <ele>221</ele>
        <time>2019-08-20T13:22:37Z</time>
      </trkpt>
      <trkpt lat="46.4997" lon="3.83039">
        <ele>221.1</ele>
        <time>2019-08-20T13:22:38Z</time>
      </trkpt>
      <trkpt lat="46.49974" lon="3.83033">
        <ele>221.1</ele>
        <time>2019-08-20T13:22:39Z</time>
      </trkpt>
      <trkpt lat="46.49977" lon="3.83026">
        <ele>221.2</ele>
        <time>2019-08-20T13:22:40Z</time>
      </trkpt>
      <trkpt lat="46.49979" lon="3.83022">
        <ele>221.2</ele>
        <time>2019-08-20T13:22:41Z</time>
      </trkpt>
      <trkpt lat="46.49982" lon="3.83015">
        <ele>221.2</ele>
        <time>2019-08-20T13:22:42Z</time>
      </trkpt>
      <trkpt lat="46.49985" lon="3.8301">
        <ele>221.3</ele>
        <time>2019-08-20T13:22:43Z</time>
      </trkpt>
      <trkpt lat="46.49987" lon="3.83004">
        <ele>221.3</ele>
        <time>2019-08-20T13:22:44Z</time>
      </trkpt>
      <trkpt lat="46.4999" lon="3.82998">
        <ele>221.3</ele>
        <time>2019-08-20T13:22:45Z</time>
      </trkpt>
      <trkpt lat="46.49993" lon="3.82992">
        <ele>221.3</ele>
        <time>2019-08-20T13:22:46Z</time>
      </trkpt>
      <trkpt lat="46.49996" lon="3.82986">
        <ele>221.3</ele>
        <time>2019-08-20T13:22:47Z</time>
      </trkpt>
      <trkpt lat="46.49999" lon="3.8298">
        <ele>221.4</ele>
        <time>2019-08-20T13:22:48Z</time>
      </trkpt>
      <trkpt lat="46.50002" lon="3.82975">
        <ele>221.4</ele>
        <time>2019-08-20T13:22:49Z</time>
      </trkpt>
      <trkpt lat="46.50006" lon="3.82967">
        <ele>221.4</ele>
        <time>2019-08-20T13:22:50Z</time>
      </trkpt>
      <trkpt lat="46.50008" lon="3.82963">
        <ele>221.5</ele>
        <time>2019-08-20T13:22:51Z</time>
      </trkpt>
      <trkpt lat="46.50011" lon="3.82957">
        <ele>221.5</ele>
        <time>2019-08-20T13:22:52Z</time>
      </trkpt>
      <trkpt lat="46.50013" lon="3.82952">
        <ele>221.6</ele>
        <time>2019-08-20T13:22:53Z</time>
      </trkpt>
      <trkpt lat="46.50016" lon="3.82946">
        <ele>221.6</ele>
        <time>2019-08-20T13:22:54Z</time>
      </trkpt>
      <trkpt lat="46.50019" lon="3.82941">
        <ele>221.6</ele>
        <time>2019-08-20T13:22:55Z</time>
      </trkpt>
      <trkpt lat="46.50021" lon="3.82934">
        <ele>221.6</ele>
        <time>2019-08-20T13:22:56Z</time>
      </trkpt>
      <trkpt lat="46.50024" lon="3.82929">
        <ele>221.6</ele>
        <time>2019-08-20T13:22:57Z</time>
      </trkpt>
      <trkpt lat="46.50027" lon="3.82924">
        <ele>221.5</ele>
        <time>2019-08-20T13:22:58Z</time>
      </trkpt>
      <trkpt lat="46.50029" lon="3.82916">
        <ele>221.5</ele>
        <time>2019-08-20T13:22:59Z</time>
      </trkpt>
      <trkpt lat="46.50032" lon="3.8291">
        <ele>221.5</ele>
        <time>2019-08-20T13:23:00Z</time>
      </trkpt>
      <trkpt lat="46.50035" lon="3.82904">
        <ele>221.4</ele>
        <time>2019-08-20T13:23:01Z</time>
      </trkpt>
      <trkpt lat="46.50038" lon="3.82898">
        <ele>221.3</ele>
        <time>2019-08-20T13:23:02Z</time>
      </trkpt>
      <trkpt lat="46.5004" lon="3.82892">
        <ele>221.3</ele>
        <time>2019-08-20T13:23:03Z</time>
      </trkpt>
      <trkpt lat="46.50043" lon="3.82885">
        <ele>221.3</ele>
        <time>2019-08-20T13:23:04Z</time>
      </trkpt>
      <trkpt lat="46.50045" lon="3.82878">
        <ele>221.3</ele>
        <time>2019-08-20T13:23:05Z</time>
      </trkpt>
      <trkpt lat="46.50047" lon="3.82872">
        <ele>221.2</ele>
        <time>2019-08-20T13:23:06Z</time>
      </trkpt>
      <trkpt lat="46.50049" lon="3.82866">
        <ele>221.2</ele>
        <time>2019-08-20T13:23:07Z</time>
      </trkpt>
      <trkpt lat="46.50051" lon="3.82859">
        <ele>221.3</ele>
        <time>2019-08-20T13:23:08Z</time>
      </trkpt>
      <trkpt lat="46.50053" lon="3.82853">
        <ele>221.3</ele>
        <time>2019-08-20T13:23:09Z</time>
      </trkpt>
      <trkpt lat="46.50056" lon="3.82847">
        <ele>221.3</ele>
        <time>2019-08-20T13:23:10Z</time>
      </trkpt>
      <trkpt lat="46.50058" lon="3.82839">
        <ele>221.3</ele>
        <time>2019-08-20T13:23:11Z</time>
      </trkpt>
      <trkpt lat="46.50059" lon="3.82835">
        <ele>221.3</ele>
        <time>2019-08-20T13:23:12Z</time>
      </trkpt>
      <trkpt lat="46.50062" lon="3.82828">
        <ele>221.4</ele>
        <time>2019-08-20T13:23:13Z</time>
      </trkpt>
      <trkpt lat="46.50065" lon="3.82821">
        <ele>221.4</ele>
        <time>2019-08-20T13:23:14Z</time>
      </trkpt>
      <trkpt lat="46.50068" lon="3.82815">
        <ele>221.4</ele>
        <time>2019-08-20T13:23:15Z</time>
      </trkpt>
      <trkpt lat="46.5007" lon="3.82809">
        <ele>221.5</ele>
        <time>2019-08-20T13:23:16Z</time>
      </trkpt>
      <trkpt lat="46.50073" lon="3.82803">
        <ele>221.5</ele>
        <time>2019-08-20T13:23:17Z</time>
      </trkpt>
      <trkpt lat="46.50075" lon="3.82797">
        <ele>221.5</ele>
        <time>2019-08-20T13:23:18Z</time>
      </trkpt>
      <trkpt lat="46.50077" lon="3.82791">
        <ele>221.6</ele>
        <time>2019-08-20T13:23:19Z</time>
      </trkpt>
      <trkpt lat="46.50079" lon="3.82785">
        <ele>221.6</ele>
        <time>2019-08-20T13:23:20Z</time>
      </trkpt>
      <trkpt lat="46.50082" lon="3.82779">
        <ele>221.6</ele>
        <time>2019-08-20T13:23:21Z</time>
      </trkpt>
      <trkpt lat="46.50085" lon="3.82772">
        <ele>221.6</ele>
        <time>2019-08-20T13:23:22Z</time>
      </trkpt>
      <trkpt lat="46.50087" lon="3.82766">
        <ele>221.7</ele>
        <time>2019-08-20T13:23:23Z</time>
      </trkpt>
      <trkpt lat="46.5009" lon="3.8276">
        <ele>221.7</ele>
        <time>2019-08-20T13:23:24Z</time>
      </trkpt>
      <trkpt lat="46.50093" lon="3.82754">
        <ele>221.7</ele>
        <time>2019-08-20T13:23:25Z</time>
      </trkpt>
      <trkpt lat="46.50095" lon="3.82748">
        <ele>221.8</ele>
        <time>2019-08-20T13:23:26Z</time>
      </trkpt>
      <trkpt lat="46.50098" lon="3.82743">
        <ele>221.8</ele>
        <time>2019-08-20T13:23:27Z</time>
      </trkpt>
      <trkpt lat="46.501" lon="3.82737">
        <ele>221.9</ele>
        <time>2019-08-20T13:23:28Z</time>
      </trkpt>
      <trkpt lat="46.50102" lon="3.8273">
        <ele>221.9</ele>
        <time>2019-08-20T13:23:29Z</time>
      </trkpt>
      <trkpt lat="46.50104" lon="3.82725">
        <ele>221.9</ele>
        <time>2019-08-20T13:23:30Z</time>
      </trkpt>
      <trkpt lat="46.50105" lon="3.82717">
        <ele>222</ele>
        <time>2019-08-20T13:23:31Z</time>
      </trkpt>
      <trkpt lat="46.50108" lon="3.8271">
        <ele>222</ele>
        <time>2019-08-20T13:23:32Z</time>
      </trkpt>
      <trkpt lat="46.5011" lon="3.82704">
        <ele>222</ele>
        <time>2019-08-20T13:23:33Z</time>
      </trkpt>
      <trkpt lat="46.50113" lon="3.82697">
        <ele>222</ele>
        <time>2019-08-20T13:23:34Z</time>
      </trkpt>
      <trkpt lat="46.50116" lon="3.8269">
        <ele>222</ele>
        <time>2019-08-20T13:23:35Z</time>
      </trkpt>
      <trkpt lat="46.50118" lon="3.82684">
        <ele>222</ele>
        <time>2019-08-20T13:23:36Z</time>
      </trkpt>
      <trkpt lat="46.50121" lon="3.82678">
        <ele>222</ele>
        <time>2019-08-20T13:23:37Z</time>
      </trkpt>
      <trkpt lat="46.50123" lon="3.82672">
        <ele>222</ele>
        <time>2019-08-20T13:23:38Z</time>
      </trkpt>
      <trkpt lat="46.50126" lon="3.82666">
        <ele>222</ele>
        <time>2019-08-20T13:23:39Z</time>
      </trkpt>
      <trkpt lat="46.50129" lon="3.8266">
        <ele>222.1</ele>
        <time>2019-08-20T13:23:40Z</time>
      </trkpt>
      <trkpt lat="46.50132" lon="3.82655">
        <ele>222.1</ele>
        <time>2019-08-20T13:23:41Z</time>
      </trkpt>
      <trkpt lat="46.50135" lon="3.82649">
        <ele>222.1</ele>
        <time>2019-08-20T13:23:42Z</time>
      </trkpt>
      <trkpt lat="46.50137" lon="3.82644">
        <ele>222.1</ele>
        <time>2019-08-20T13:23:43Z</time>
      </trkpt>
      <trkpt lat="46.5014" lon="3.82638">
        <ele>222.1</ele>
        <time>2019-08-20T13:23:44Z</time>
      </trkpt>
      <trkpt lat="46.50142" lon="3.82633">
        <ele>222.1</ele>
        <time>2019-08-20T13:23:45Z</time>
      </trkpt>
      <trkpt lat="46.50143" lon="3.82627">
        <ele>222.1</ele>
        <time>2019-08-20T13:23:46Z</time>
      </trkpt>
      <trkpt lat="46.50146" lon="3.82622">
        <ele>222.1</ele>
        <time>2019-08-20T13:23:47Z</time>
      </trkpt>
      <trkpt lat="46.50148" lon="3.82615">
        <ele>222.1</ele>
        <time>2019-08-20T13:23:48Z</time>
      </trkpt>
      <trkpt lat="46.5015" lon="3.82608">
        <ele>222.1</ele>
        <time>2019-08-20T13:23:49Z</time>
      </trkpt>
      <trkpt lat="46.50153" lon="3.82602">
        <ele>222.1</ele>
        <time>2019-08-20T13:23:50Z</time>
      </trkpt>
      <trkpt lat="46.50155" lon="3.82595">
        <ele>222.1</ele>
        <time>2019-08-20T13:23:51Z</time>
      </trkpt>
      <trkpt lat="46.50158" lon="3.82589">
        <ele>222</ele>
        <time>2019-08-20T13:23:52Z</time>
      </trkpt>
      <trkpt lat="46.50161" lon="3.82583">
        <ele>222</ele>
        <time>2019-08-20T13:23:53Z</time>
      </trkpt>
      <trkpt lat="46.50163" lon="3.82578">
        <ele>222</ele>
        <time>2019-08-20T13:23:54Z</time>
      </trkpt>
      <trkpt lat="46.50165" lon="3.82572">
        <ele>221.9</ele>
        <time>2019-08-20T13:23:55Z</time>
      </trkpt>
      <trkpt lat="46.50167" lon="3.82566">
        <ele>221.9</ele>
        <time>2019-08-20T13:23:56Z</time>
      </trkpt>
      <trkpt lat="46.50169" lon="3.82559">
        <ele>221.8</ele>
        <time>2019-08-20T13:23:57Z</time>
      </trkpt>
      <trkpt lat="46.50172" lon="3.82553">
        <ele>221.8</ele>
        <time>2019-08-20T13:23:58Z</time>
      </trkpt>
      <trkpt lat="46.50174" lon="3.82546">
        <ele>221.8</ele>
        <time>2019-08-20T13:23:59Z</time>
      </trkpt>
      <trkpt lat="46.50177" lon="3.8254">
        <ele>221.8</ele>
        <time>2019-08-20T13:24:00Z</time>
      </trkpt>
      <trkpt lat="46.5018" lon="3.82532">
        <ele>221.8</ele>
        <time>2019-08-20T13:24:01Z</time>
      </trkpt>
      <trkpt lat="46.50183" lon="3.82525">
        <ele>221.8</ele>
        <time>2019-08-20T13:24:02Z</time>
      </trkpt>
      <trkpt lat="46.50186" lon="3.82518">
        <ele>221.8</ele>
        <time>2019-08-20T13:24:03Z</time>
      </trkpt>
      <trkpt lat="46.50188" lon="3.82512">
        <ele>221.8</ele>
        <time>2019-08-20T13:24:04Z</time>
      </trkpt>
      <trkpt lat="46.50189" lon="3.82507">
        <ele>221.9</ele>
        <time>2019-08-20T13:24:05Z</time>
      </trkpt>
      <trkpt lat="46.50191" lon="3.82502">
        <ele>221.9</ele>
        <time>2019-08-20T13:24:06Z</time>
      </trkpt>
      <trkpt lat="46.50193" lon="3.82495">
        <ele>222</ele>
        <time>2019-08-20T13:24:07Z</time>
      </trkpt>
      <trkpt lat="46.50196" lon="3.82488">
        <ele>222</ele>
        <time>2019-08-20T13:24:08Z</time>
      </trkpt>
      <trkpt lat="46.50198" lon="3.82482">
        <ele>222.1</ele>
        <time>2019-08-20T13:24:09Z</time>
      </trkpt>
      <trkpt lat="46.50201" lon="3.82476">
        <ele>222.2</ele>
        <time>2019-08-20T13:24:10Z</time>
      </trkpt>
      <trkpt lat="46.50203" lon="3.8247">
        <ele>222.3</ele>
        <time>2019-08-20T13:24:11Z</time>
      </trkpt>
      <trkpt lat="46.50204" lon="3.82463">
        <ele>222.3</ele>
        <time>2019-08-20T13:24:12Z</time>
      </trkpt>
      <trkpt lat="46.50207" lon="3.82457">
        <ele>222.4</ele>
        <time>2019-08-20T13:24:13Z</time>
      </trkpt>
      <trkpt lat="46.50211" lon="3.8245">
        <ele>222.4</ele>
        <time>2019-08-20T13:24:14Z</time>
      </trkpt>
      <trkpt lat="46.50213" lon="3.82444">
        <ele>222.5</ele>
        <time>2019-08-20T13:24:15Z</time>
      </trkpt>
      <trkpt lat="46.50215" lon="3.82438">
        <ele>222.5</ele>
        <time>2019-08-20T13:24:16Z</time>
      </trkpt>
      <trkpt lat="46.50218" lon="3.82432">
        <ele>222.5</ele>
        <time>2019-08-20T13:24:17Z</time>
      </trkpt>
      <trkpt lat="46.5022" lon="3.82426">
        <ele>222.6</ele>
        <time>2019-08-20T13:24:18Z</time>
      </trkpt>
      <trkpt lat="46.50223" lon="3.8242">
        <ele>222.6</ele>
        <time>2019-08-20T13:24:19Z</time>
      </trkpt>
      <trkpt lat="46.50226" lon="3.82414">
        <ele>222.7</ele>
        <time>2019-08-20T13:24:20Z</time>
      </trkpt>
      <trkpt lat="46.50228" lon="3.82406">
        <ele>222.7</ele>
        <time>2019-08-20T13:24:21Z</time>
      </trkpt>
      <trkpt lat="46.50231" lon="3.82401">
        <ele>222.8</ele>
        <time>2019-08-20T13:24:22Z</time>
      </trkpt>
      <trkpt lat="46.50233" lon="3.82394">
        <ele>222.9</ele>
        <time>2019-08-20T13:24:23Z</time>
      </trkpt>
      <trkpt lat="46.50236" lon="3.82386">
        <ele>223</ele>
        <time>2019-08-20T13:24:24Z</time>
      </trkpt>
      <trkpt lat="46.50239" lon="3.8238">
        <ele>223.2</ele>
        <time>2019-08-20T13:24:25Z</time>
      </trkpt>
      <trkpt lat="46.50241" lon="3.82374">
        <ele>223.3</ele>
        <time>2019-08-20T13:24:26Z</time>
      </trkpt>
      <trkpt lat="46.50243" lon="3.82368">
        <ele>223.5</ele>
        <time>2019-08-20T13:24:27Z</time>
      </trkpt>
      <trkpt lat="46.50245" lon="3.82363">
        <ele>223.7</ele>
        <time>2019-08-20T13:24:28Z</time>
      </trkpt>
      <trkpt lat="46.50248" lon="3.82357">
        <ele>223.9</ele>
        <time>2019-08-20T13:24:29Z</time>
      </trkpt>
      <trkpt lat="46.5025" lon="3.82352">
        <ele>223.9</ele>
        <time>2019-08-20T13:24:30Z</time>
      </trkpt>
      <trkpt lat="46.50252" lon="3.82344">
        <ele>224</ele>
        <time>2019-08-20T13:24:31Z</time>
      </trkpt>
      <trkpt lat="46.50255" lon="3.82337">
        <ele>224.1</ele>
        <time>2019-08-20T13:24:32Z</time>
      </trkpt>
      <trkpt lat="46.50259" lon="3.8233">
        <ele>224.1</ele>
        <time>2019-08-20T13:24:33Z</time>
      </trkpt>
      <trkpt lat="46.50261" lon="3.82324">
        <ele>224.2</ele>
        <time>2019-08-20T13:24:34Z</time>
      </trkpt>
      <trkpt lat="46.50263" lon="3.82317">
        <ele>224.2</ele>
        <time>2019-08-20T13:24:35Z</time>
      </trkpt>
      <trkpt lat="46.50266" lon="3.8231">
        <ele>224.3</ele>
        <time>2019-08-20T13:24:36Z</time>
      </trkpt>
      <trkpt lat="46.50268" lon="3.82304">
        <ele>224.3</ele>
        <time>2019-08-20T13:24:37Z</time>
      </trkpt>
      <trkpt lat="46.5027" lon="3.82298">
        <ele>224.3</ele>
        <time>2019-08-20T13:24:38Z</time>
      </trkpt>
      <trkpt lat="46.50272" lon="3.82291">
        <ele>224.3</ele>
        <time>2019-08-20T13:24:39Z</time>
      </trkpt>
      <trkpt lat="46.50275" lon="3.82285">
        <ele>224.3</ele>
        <time>2019-08-20T13:24:40Z</time>
      </trkpt>
      <trkpt lat="46.50278" lon="3.82279">
        <ele>224.3</ele>
        <time>2019-08-20T13:24:41Z</time>
      </trkpt>
      <trkpt lat="46.50281" lon="3.82273">
        <ele>224.3</ele>
        <time>2019-08-20T13:24:42Z</time>
      </trkpt>
      <trkpt lat="46.50285" lon="3.82267">
        <ele>224.3</ele>
        <time>2019-08-20T13:24:43Z</time>
      </trkpt>
      <trkpt lat="46.50287" lon="3.82261">
        <ele>224.3</ele>
        <time>2019-08-20T13:24:44Z</time>
      </trkpt>
      <trkpt lat="46.5029" lon="3.82255">
        <ele>224.4</ele>
        <time>2019-08-20T13:24:45Z</time>
      </trkpt>
      <trkpt lat="46.50293" lon="3.82247">
        <ele>224.4</ele>
        <time>2019-08-20T13:24:46Z</time>
      </trkpt>
      <trkpt lat="46.50296" lon="3.8224">
        <ele>224.4</ele>
        <time>2019-08-20T13:24:47Z</time>
      </trkpt>
      <trkpt lat="46.50298" lon="3.82233">
        <ele>224.4</ele>
        <time>2019-08-20T13:24:48Z</time>
      </trkpt>
      <trkpt lat="46.50301" lon="3.82227">
        <ele>224.4</ele>
        <time>2019-08-20T13:24:49Z</time>
      </trkpt>
      <trkpt lat="46.50303" lon="3.82219">
        <ele>224.4</ele>
        <time>2019-08-20T13:24:50Z</time>
      </trkpt>
      <trkpt lat="46.50306" lon="3.82213">
        <ele>224.4</ele>
        <time>2019-08-20T13:24:51Z</time>
      </trkpt>
      <trkpt lat="46.50308" lon="3.82207">
        <ele>224.4</ele>
        <time>2019-08-20T13:24:52Z</time>
      </trkpt>
      <trkpt lat="46.50309" lon="3.82201">
        <ele>224.4</ele>
        <time>2019-08-20T13:24:53Z</time>
      </trkpt>
      <trkpt lat="46.50312" lon="3.82194">
        <ele>224.4</ele>
        <time>2019-08-20T13:24:54Z</time>
      </trkpt>
      <trkpt lat="46.50315" lon="3.82188">
        <ele>224.4</ele>
        <time>2019-08-20T13:24:55Z</time>
      </trkpt>
      <trkpt lat="46.50317" lon="3.82181">
        <ele>224.4</ele>
        <time>2019-08-20T13:24:56Z</time>
      </trkpt>
      <trkpt lat="46.5032" lon="3.82174">
        <ele>224.4</ele>
        <time>2019-08-20T13:24:57Z</time>
      </trkpt>
      <trkpt lat="46.50324" lon="3.82168">
        <ele>224.4</ele>
        <time>2019-08-20T13:24:58Z</time>
      </trkpt>
      <trkpt lat="46.50326" lon="3.82162">
        <ele>224.4</ele>
        <time>2019-08-20T13:24:59Z</time>
      </trkpt>
      <trkpt lat="46.50328" lon="3.82155">
        <ele>224.4</ele>
        <time>2019-08-20T13:25:00Z</time>
      </trkpt>
      <trkpt lat="46.5033" lon="3.82149">
        <ele>224.4</ele>
        <time>2019-08-20T13:25:01Z</time>
      </trkpt>
      <trkpt lat="46.50333" lon="3.82143">
        <ele>224.4</ele>
        <time>2019-08-20T13:25:02Z</time>
      </trkpt>
      <trkpt lat="46.50335" lon="3.82137">
        <ele>224.4</ele>
        <time>2019-08-20T13:25:03Z</time>
      </trkpt>
      <trkpt lat="46.50337" lon="3.82131">
        <ele>224.4</ele>
        <time>2019-08-20T13:25:04Z</time>
      </trkpt>
      <trkpt lat="46.50339" lon="3.82124">
        <ele>224.3</ele>
        <time>2019-08-20T13:25:05Z</time>
      </trkpt>
      <trkpt lat="46.50342" lon="3.82117">
        <ele>224.3</ele>
        <time>2019-08-20T13:25:06Z</time>
      </trkpt>
      <trkpt lat="46.50344" lon="3.82111">
        <ele>224.3</ele>
        <time>2019-08-20T13:25:07Z</time>
      </trkpt>
      <trkpt lat="46.50346" lon="3.82103">
        <ele>224.3</ele>
        <time>2019-08-20T13:25:08Z</time>
      </trkpt>
      <trkpt lat="46.50349" lon="3.82097">
        <ele>224.3</ele>
        <time>2019-08-20T13:25:09Z</time>
      </trkpt>
      <trkpt lat="46.50351" lon="3.8209">
        <ele>224.2</ele>
        <time>2019-08-20T13:25:10Z</time>
      </trkpt>
      <trkpt lat="46.50354" lon="3.82083">
        <ele>224.2</ele>
        <time>2019-08-20T13:25:11Z</time>
      </trkpt>
      <trkpt lat="46.50357" lon="3.82076">
        <ele>224.2</ele>
        <time>2019-08-20T13:25:12Z</time>
      </trkpt>
      <trkpt lat="46.5036" lon="3.8207">
        <ele>224.2</ele>
        <time>2019-08-20T13:25:13Z</time>
      </trkpt>
      <trkpt lat="46.50363" lon="3.82064">
        <ele>224.1</ele>
        <time>2019-08-20T13:25:14Z</time>
      </trkpt>
      <trkpt lat="46.50366" lon="3.82057">
        <ele>224.1</ele>
        <time>2019-08-20T13:25:15Z</time>
      </trkpt>
      <trkpt lat="46.50369" lon="3.82051">
        <ele>224.1</ele>
        <time>2019-08-20T13:25:16Z</time>
      </trkpt>
      <trkpt lat="46.50371" lon="3.82044">
        <ele>224.1</ele>
        <time>2019-08-20T13:25:17Z</time>
      </trkpt>
      <trkpt lat="46.50373" lon="3.82038">
        <ele>224</ele>
        <time>2019-08-20T13:25:18Z</time>
      </trkpt>
      <trkpt lat="46.50376" lon="3.82033">
        <ele>224</ele>
        <time>2019-08-20T13:25:19Z</time>
      </trkpt>
      <trkpt lat="46.50379" lon="3.82026">
        <ele>224</ele>
        <time>2019-08-20T13:25:20Z</time>
      </trkpt>
      <trkpt lat="46.50382" lon="3.8202">
        <ele>224</ele>
        <time>2019-08-20T13:25:21Z</time>
      </trkpt>
      <trkpt lat="46.50384" lon="3.82014">
        <ele>223.9</ele>
        <time>2019-08-20T13:25:22Z</time>
      </trkpt>
      <trkpt lat="46.50387" lon="3.82007">
        <ele>223.9</ele>
        <time>2019-08-20T13:25:23Z</time>
      </trkpt>
      <trkpt lat="46.50391" lon="3.82002">
        <ele>223.9</ele>
        <time>2019-08-20T13:25:24Z</time>
      </trkpt>
      <trkpt lat="46.50393" lon="3.81994">
        <ele>223.9</ele>
        <time>2019-08-20T13:25:25Z</time>
      </trkpt>
      <trkpt lat="46.50396" lon="3.81988">
        <ele>223.9</ele>
        <time>2019-08-20T13:25:26Z</time>
      </trkpt>
      <trkpt lat="46.50398" lon="3.81981">
        <ele>223.9</ele>
        <time>2019-08-20T13:25:27Z</time>
      </trkpt>
      <trkpt lat="46.50399" lon="3.81975">
        <ele>223.9</ele>
        <time>2019-08-20T13:25:28Z</time>
      </trkpt>
      <trkpt lat="46.50401" lon="3.81968">
        <ele>223.9</ele>
        <time>2019-08-20T13:25:29Z</time>
      </trkpt>
      <trkpt lat="46.50405" lon="3.81963">
        <ele>223.9</ele>
        <time>2019-08-20T13:25:30Z</time>
      </trkpt>
      <trkpt lat="46.50407" lon="3.81957">
        <ele>223.9</ele>
        <time>2019-08-20T13:25:31Z</time>
      </trkpt>
      <trkpt lat="46.50409" lon="3.8195">
        <ele>223.9</ele>
        <time>2019-08-20T13:25:32Z</time>
      </trkpt>
      <trkpt lat="46.50412" lon="3.81944">
        <ele>223.9</ele>
        <time>2019-08-20T13:25:33Z</time>
      </trkpt>
      <trkpt lat="46.50414" lon="3.81937">
        <ele>223.9</ele>
        <time>2019-08-20T13:25:34Z</time>
      </trkpt>
      <trkpt lat="46.50417" lon="3.81932">
        <ele>223.9</ele>
        <time>2019-08-20T13:25:35Z</time>
      </trkpt>
      <trkpt lat="46.50421" lon="3.81924">
        <ele>223.9</ele>
        <time>2019-08-20T13:25:36Z</time>
      </trkpt>
      <trkpt lat="46.50423" lon="3.81916">
        <ele>223.9</ele>
        <time>2019-08-20T13:25:37Z</time>
      </trkpt>
      <trkpt lat="46.50425" lon="3.8191">
        <ele>223.8</ele>
        <time>2019-08-20T13:25:38Z</time>
      </trkpt>
      <trkpt lat="46.50428" lon="3.81902">
        <ele>223.8</ele>
        <time>2019-08-20T13:25:39Z</time>
      </trkpt>
      <trkpt lat="46.5043" lon="3.81896">
        <ele>223.8</ele>
        <time>2019-08-20T13:25:40Z</time>
      </trkpt>
      <trkpt lat="46.50432" lon="3.8189">
        <ele>223.8</ele>
        <time>2019-08-20T13:25:41Z</time>
      </trkpt>
      <trkpt lat="46.50434" lon="3.81884">
        <ele>223.8</ele>
        <time>2019-08-20T13:25:42Z</time>
      </trkpt>
      <trkpt lat="46.50436" lon="3.81878">
        <ele>223.7</ele>
        <time>2019-08-20T13:25:43Z</time>
      </trkpt>
      <trkpt lat="46.50438" lon="3.81871">
        <ele>223.7</ele>
        <time>2019-08-20T13:25:44Z</time>
      </trkpt>
      <trkpt lat="46.50441" lon="3.81864">
        <ele>223.6</ele>
        <time>2019-08-20T13:25:45Z</time>
      </trkpt>
      <trkpt lat="46.50444" lon="3.81857">
        <ele>223.6</ele>
        <time>2019-08-20T13:25:46Z</time>
      </trkpt>
      <trkpt lat="46.50447" lon="3.81851">
        <ele>223.5</ele>
        <time>2019-08-20T13:25:47Z</time>
      </trkpt>
      <trkpt lat="46.5045" lon="3.81845">
        <ele>223.5</ele>
        <time>2019-08-20T13:25:48Z</time>
      </trkpt>
      <trkpt lat="46.50453" lon="3.81838">
        <ele>223.4</ele>
        <time>2019-08-20T13:25:49Z</time>
      </trkpt>
      <trkpt lat="46.50455" lon="3.81832">
        <ele>223.4</ele>
        <time>2019-08-20T13:25:50Z</time>
      </trkpt>
      <trkpt lat="46.50457" lon="3.81827">
        <ele>223.4</ele>
        <time>2019-08-20T13:25:51Z</time>
      </trkpt>
      <trkpt lat="46.5046" lon="3.81821">
        <ele>223.4</ele>
        <time>2019-08-20T13:25:52Z</time>
      </trkpt>
      <trkpt lat="46.50462" lon="3.81814">
        <ele>223.3</ele>
        <time>2019-08-20T13:25:53Z</time>
      </trkpt>
      <trkpt lat="46.50464" lon="3.81807">
        <ele>223.3</ele>
        <time>2019-08-20T13:25:54Z</time>
      </trkpt>
      <trkpt lat="46.50467" lon="3.818">
        <ele>223.3</ele>
        <time>2019-08-20T13:25:55Z</time>
      </trkpt>
      <trkpt lat="46.5047" lon="3.81793">
        <ele>223.2</ele>
        <time>2019-08-20T13:25:56Z</time>
      </trkpt>
      <trkpt lat="46.50473" lon="3.81785">
        <ele>223.2</ele>
        <time>2019-08-20T13:25:57Z</time>
      </trkpt>
      <trkpt lat="46.50476" lon="3.81778">
        <ele>223.2</ele>
        <time>2019-08-20T13:25:58Z</time>
      </trkpt>
      <trkpt lat="46.50478" lon="3.81771">
        <ele>223.2</ele>
        <time>2019-08-20T13:25:59Z</time>
      </trkpt>
      <trkpt lat="46.50481" lon="3.81765">
        <ele>223.2</ele>
        <time>2019-08-20T13:26:00Z</time>
      </trkpt>
      <trkpt lat="46.50483" lon="3.81759">
        <ele>223.2</ele>
        <time>2019-08-20T13:26:01Z</time>
      </trkpt>
      <trkpt lat="46.50486" lon="3.81752">
        <ele>223.2</ele>
        <time>2019-08-20T13:26:02Z</time>
      </trkpt>
      <trkpt lat="46.50488" lon="3.81747">
        <ele>223.2</ele>
        <time>2019-08-20T13:26:03Z</time>
      </trkpt>
      <trkpt lat="46.50491" lon="3.8174">
        <ele>223.2</ele>
        <time>2019-08-20T13:26:04Z</time>
      </trkpt>
      <trkpt lat="46.50494" lon="3.81732">
        <ele>223.2</ele>
        <time>2019-08-20T13:26:05Z</time>
      </trkpt>
      <trkpt lat="46.50497" lon="3.81725">
        <ele>223.2</ele>
        <time>2019-08-20T13:26:06Z</time>
      </trkpt>
      <trkpt lat="46.505" lon="3.81717">
        <ele>223.2</ele>
        <time>2019-08-20T13:26:07Z</time>
      </trkpt>
      <trkpt lat="46.50502" lon="3.8171">
        <ele>223.2</ele>
        <time>2019-08-20T13:26:08Z</time>
      </trkpt>
      <trkpt lat="46.50505" lon="3.81704">
        <ele>223.2</ele>
        <time>2019-08-20T13:26:09Z</time>
      </trkpt>
      <trkpt lat="46.50508" lon="3.81697">
        <ele>223.2</ele>
        <time>2019-08-20T13:26:10Z</time>
      </trkpt>
      <trkpt lat="46.50511" lon="3.81691">
        <ele>223.2</ele>
        <time>2019-08-20T13:26:11Z</time>
      </trkpt>
      <trkpt lat="46.50513" lon="3.81685">
        <ele>223.2</ele>
        <time>2019-08-20T13:26:12Z</time>
      </trkpt>
      <trkpt lat="46.50515" lon="3.81678">
        <ele>223.2</ele>
        <time>2019-08-20T13:26:13Z</time>
      </trkpt>
      <trkpt lat="46.50517" lon="3.81673">
        <ele>223.2</ele>
        <time>2019-08-20T13:26:14Z</time>
      </trkpt>
      <trkpt lat="46.50518" lon="3.81667">
        <ele>223.2</ele>
        <time>2019-08-20T13:26:15Z</time>
      </trkpt>
      <trkpt lat="46.50522" lon="3.81661">
        <ele>223.2</ele>
        <time>2019-08-20T13:26:16Z</time>
      </trkpt>
      <trkpt lat="46.50525" lon="3.81654">
        <ele>223.2</ele>
        <time>2019-08-20T13:26:17Z</time>
      </trkpt>
      <trkpt lat="46.50528" lon="3.81647">
        <ele>223.2</ele>
        <time>2019-08-20T13:26:18Z</time>
      </trkpt>
      <trkpt lat="46.50531" lon="3.81638">
        <ele>223.2</ele>
        <time>2019-08-20T13:26:19Z</time>
      </trkpt>
      <trkpt lat="46.50535" lon="3.81631">
        <ele>223.2</ele>
        <time>2019-08-20T13:26:20Z</time>
      </trkpt>
      <trkpt lat="46.50538" lon="3.81624">
        <ele>223.2</ele>
        <time>2019-08-20T13:26:21Z</time>
      </trkpt>
      <trkpt lat="46.50541" lon="3.81617">
        <ele>223.2</ele>
        <time>2019-08-20T13:26:22Z</time>
      </trkpt>
      <trkpt lat="46.50543" lon="3.81611">
        <ele>223.2</ele>
        <time>2019-08-20T13:26:23Z</time>
      </trkpt>
      <trkpt lat="46.50545" lon="3.81604">
        <ele>223.2</ele>
        <time>2019-08-20T13:26:24Z</time>
      </trkpt>
      <trkpt lat="46.50547" lon="3.81598">
        <ele>223.2</ele>
        <time>2019-08-20T13:26:25Z</time>
      </trkpt>
      <trkpt lat="46.5055" lon="3.8159">
        <ele>223.2</ele>
        <time>2019-08-20T13:26:26Z</time>
      </trkpt>
      <trkpt lat="46.50553" lon="3.81584">
        <ele>223.2</ele>
        <time>2019-08-20T13:26:27Z</time>
      </trkpt>
      <trkpt lat="46.50555" lon="3.81578">
        <ele>223.2</ele>
        <time>2019-08-20T13:26:28Z</time>
      </trkpt>
      <trkpt lat="46.50556" lon="3.81572">
        <ele>223.2</ele>
        <time>2019-08-20T13:26:29Z</time>
      </trkpt>
      <trkpt lat="46.5056" lon="3.81565">
        <ele>223.2</ele>
        <time>2019-08-20T13:26:30Z</time>
      </trkpt>
      <trkpt lat="46.50563" lon="3.81559">
        <ele>223.2</ele>
        <time>2019-08-20T13:26:31Z</time>
      </trkpt>
      <trkpt lat="46.50565" lon="3.81552">
        <ele>223.2</ele>
        <time>2019-08-20T13:26:32Z</time>
      </trkpt>
      <trkpt lat="46.50567" lon="3.81546">
        <ele>223.2</ele>
        <time>2019-08-20T13:26:33Z</time>
      </trkpt>
      <trkpt lat="46.5057" lon="3.8154">
        <ele>223.1</ele>
        <time>2019-08-20T13:26:34Z</time>
      </trkpt>
      <trkpt lat="46.50573" lon="3.81533">
        <ele>223.1</ele>
        <time>2019-08-20T13:26:35Z</time>
      </trkpt>
      <trkpt lat="46.50575" lon="3.81526">
        <ele>223.1</ele>
        <time>2019-08-20T13:26:36Z</time>
      </trkpt>
      <trkpt lat="46.50578" lon="3.8152">
        <ele>223.1</ele>
        <time>2019-08-20T13:26:37Z</time>
      </trkpt>
      <trkpt lat="46.5058" lon="3.81514">
        <ele>223.1</ele>
        <time>2019-08-20T13:26:38Z</time>
      </trkpt>
      <trkpt lat="46.50583" lon="3.81506">
        <ele>223.1</ele>
        <time>2019-08-20T13:26:39Z</time>
      </trkpt>
      <trkpt lat="46.50586" lon="3.81499">
        <ele>223.1</ele>
        <time>2019-08-20T13:26:40Z</time>
      </trkpt>
      <trkpt lat="46.50588" lon="3.81494">
        <ele>223.1</ele>
        <time>2019-08-20T13:26:41Z</time>
      </trkpt>
      <trkpt lat="46.5059" lon="3.81488">
        <ele>223.1</ele>
        <time>2019-08-20T13:26:42Z</time>
      </trkpt>
      <trkpt lat="46.50593" lon="3.81482">
        <ele>223.1</ele>
        <time>2019-08-20T13:26:43Z</time>
      </trkpt>
      <trkpt lat="46.50595" lon="3.81476">
        <ele>223</ele>
        <time>2019-08-20T13:26:44Z</time>
      </trkpt>
      <trkpt lat="46.50597" lon="3.81471">
        <ele>223</ele>
        <time>2019-08-20T13:26:45Z</time>
      </trkpt>
      <trkpt lat="46.50599" lon="3.81465">
        <ele>223</ele>
        <time>2019-08-20T13:26:46Z</time>
      </trkpt>
      <trkpt lat="46.50601" lon="3.81459">
        <ele>223</ele>
        <time>2019-08-20T13:26:47Z</time>
      </trkpt>
      <trkpt lat="46.50604" lon="3.81455">
        <ele>223</ele>
        <time>2019-08-20T13:26:48Z</time>
      </trkpt>
      <trkpt lat="46.50606" lon="3.81449">
        <ele>223</ele>
        <time>2019-08-20T13:26:49Z</time>
      </trkpt>
      <trkpt lat="46.5061" lon="3.81442">
        <ele>222.9</ele>
        <time>2019-08-20T13:26:50Z</time>
      </trkpt>
      <trkpt lat="46.50611" lon="3.81434">
        <ele>222.9</ele>
        <time>2019-08-20T13:26:51Z</time>
      </trkpt>
      <trkpt lat="46.50613" lon="3.81428">
        <ele>222.9</ele>
        <time>2019-08-20T13:26:52Z</time>
      </trkpt>
      <trkpt lat="46.50616" lon="3.81421">
        <ele>222.9</ele>
        <time>2019-08-20T13:26:53Z</time>
      </trkpt>
      <trkpt lat="46.50619" lon="3.81415">
        <ele>222.9</ele>
        <time>2019-08-20T13:26:54Z</time>
      </trkpt>
      <trkpt lat="46.50621" lon="3.8141">
        <ele>222.9</ele>
        <time>2019-08-20T13:26:55Z</time>
      </trkpt>
      <trkpt lat="46.50623" lon="3.81404">
        <ele>222.9</ele>
        <time>2019-08-20T13:26:56Z</time>
      </trkpt>
      <trkpt lat="46.50625" lon="3.81398">
        <ele>222.9</ele>
        <time>2019-08-20T13:26:57Z</time>
      </trkpt>
      <trkpt lat="46.50628" lon="3.81392">
        <ele>222.9</ele>
        <time>2019-08-20T13:26:58Z</time>
      </trkpt>
      <trkpt lat="46.5063" lon="3.81387">
        <ele>222.8</ele>
        <time>2019-08-20T13:26:59Z</time>
      </trkpt>
      <trkpt lat="46.50632" lon="3.81381">
        <ele>222.8</ele>
        <time>2019-08-20T13:27:00Z</time>
      </trkpt>
      <trkpt lat="46.50635" lon="3.81374">
        <ele>222.8</ele>
        <time>2019-08-20T13:27:01Z</time>
      </trkpt>
      <trkpt lat="46.50637" lon="3.81367">
        <ele>222.8</ele>
        <time>2019-08-20T13:27:02Z</time>
      </trkpt>
      <trkpt lat="46.50639" lon="3.8136">
        <ele>222.8</ele>
        <time>2019-08-20T13:27:03Z</time>
      </trkpt>
      <trkpt lat="46.50642" lon="3.81352">
        <ele>222.8</ele>
        <time>2019-08-20T13:27:04Z</time>
      </trkpt>
      <trkpt lat="46.50644" lon="3.81345">
        <ele>222.8</ele>
        <time>2019-08-20T13:27:05Z</time>
      </trkpt>
      <trkpt lat="46.50647" lon="3.81338">
        <ele>222.8</ele>
        <time>2019-08-20T13:27:06Z</time>
      </trkpt>
      <trkpt lat="46.50651" lon="3.81331">
        <ele>222.9</ele>
        <time>2019-08-20T13:27:07Z</time>
      </trkpt>
      <trkpt lat="46.50653" lon="3.81325">
        <ele>222.9</ele>
        <time>2019-08-20T13:27:08Z</time>
      </trkpt>
      <trkpt lat="46.50655" lon="3.81319">
        <ele>222.9</ele>
        <time>2019-08-20T13:27:09Z</time>
      </trkpt>
      <trkpt lat="46.50657" lon="3.81312">
        <ele>223</ele>
        <time>2019-08-20T13:27:10Z</time>
      </trkpt>
      <trkpt lat="46.50658" lon="3.81307">
        <ele>223</ele>
        <time>2019-08-20T13:27:11Z</time>
      </trkpt>
      <trkpt lat="46.5066" lon="3.81301">
        <ele>223.1</ele>
        <time>2019-08-20T13:27:12Z</time>
      </trkpt>
      <trkpt lat="46.50663" lon="3.81294">
        <ele>223.1</ele>
        <time>2019-08-20T13:27:13Z</time>
      </trkpt>
      <trkpt lat="46.50666" lon="3.81288">
        <ele>223.2</ele>
        <time>2019-08-20T13:27:14Z</time>
      </trkpt>
      <trkpt lat="46.50671" lon="3.81284">
        <ele>223.3</ele>
        <time>2019-08-20T13:27:15Z</time>
      </trkpt>
      <trkpt lat="46.50674" lon="3.81277">
        <ele>223.4</ele>
        <time>2019-08-20T13:27:16Z</time>
      </trkpt>
      <trkpt lat="46.50677" lon="3.81271">
        <ele>223.4</ele>
        <time>2019-08-20T13:27:17Z</time>
      </trkpt>
      <trkpt lat="46.50679" lon="3.81266">
        <ele>223.5</ele>
        <time>2019-08-20T13:27:18Z</time>
      </trkpt>
      <trkpt lat="46.50681" lon="3.81259">
        <ele>223.5</ele>
        <time>2019-08-20T13:27:19Z</time>
      </trkpt>
      <trkpt lat="46.50683" lon="3.81252">
        <ele>223.6</ele>
        <time>2019-08-20T13:27:20Z</time>
      </trkpt>
      <trkpt lat="46.50686" lon="3.81245">
        <ele>223.5</ele>
        <time>2019-08-20T13:27:21Z</time>
      </trkpt>
      <trkpt lat="46.50688" lon="3.81239">
        <ele>223.5</ele>
        <time>2019-08-20T13:27:22Z</time>
      </trkpt>
      <trkpt lat="46.5069" lon="3.81234">
        <ele>223.5</ele>
        <time>2019-08-20T13:27:23Z</time>
      </trkpt>
      <trkpt lat="46.50692" lon="3.81228">
        <ele>223.5</ele>
        <time>2019-08-20T13:27:24Z</time>
      </trkpt>
      <trkpt lat="46.50694" lon="3.8122">
        <ele>223.4</ele>
        <time>2019-08-20T13:27:25Z</time>
      </trkpt>
      <trkpt lat="46.50697" lon="3.81214">
        <ele>223.4</ele>
        <time>2019-08-20T13:27:26Z</time>
      </trkpt>
      <trkpt lat="46.50699" lon="3.81207">
        <ele>223.4</ele>
        <time>2019-08-20T13:27:27Z</time>
      </trkpt>
      <trkpt lat="46.50702" lon="3.81201">
        <ele>223.5</ele>
        <time>2019-08-20T13:27:28Z</time>
      </trkpt>
      <trkpt lat="46.50705" lon="3.81194">
        <ele>223.5</ele>
        <time>2019-08-20T13:27:29Z</time>
      </trkpt>
      <trkpt lat="46.50708" lon="3.81189">
        <ele>223.5</ele>
        <time>2019-08-20T13:27:30Z</time>
      </trkpt>
      <trkpt lat="46.5071" lon="3.81183">
        <ele>223.6</ele>
        <time>2019-08-20T13:27:31Z</time>
      </trkpt>
      <trkpt lat="46.50713" lon="3.81177">
        <ele>223.6</ele>
        <time>2019-08-20T13:27:32Z</time>
      </trkpt>
      <trkpt lat="46.50716" lon="3.81172">
        <ele>223.6</ele>
        <time>2019-08-20T13:27:33Z</time>
      </trkpt>
      <trkpt lat="46.50717" lon="3.81165">
        <ele>223.7</ele>
        <time>2019-08-20T13:27:34Z</time>
      </trkpt>
      <trkpt lat="46.50719" lon="3.81159">
        <ele>223.7</ele>
        <time>2019-08-20T13:27:35Z</time>
      </trkpt>
      <trkpt lat="46.50722" lon="3.81154">
        <ele>223.7</ele>
        <time>2019-08-20T13:27:36Z</time>
      </trkpt>
      <trkpt lat="46.50724" lon="3.81146">
        <ele>223.7</ele>
        <time>2019-08-20T13:27:37Z</time>
      </trkpt>
      <trkpt lat="46.50727" lon="3.81142">
        <ele>223.7</ele>
        <time>2019-08-20T13:27:38Z</time>
      </trkpt>
      <trkpt lat="46.50728" lon="3.81136">
        <ele>223.7</ele>
        <time>2019-08-20T13:27:39Z</time>
      </trkpt>
      <trkpt lat="46.5073" lon="3.81131">
        <ele>223.7</ele>
        <time>2019-08-20T13:27:40Z</time>
      </trkpt>
      <trkpt lat="46.50731" lon="3.81127">
        <ele>223.7</ele>
        <time>2019-08-20T13:27:41Z</time>
      </trkpt>
      <trkpt lat="46.50733" lon="3.81123">
        <ele>223.7</ele>
        <time>2019-08-20T13:27:42Z</time>
      </trkpt>
      <trkpt lat="46.50735" lon="3.81119">
        <ele>223.6</ele>
        <time>2019-08-20T13:27:43Z</time>
      </trkpt>
      <trkpt lat="46.50738" lon="3.81113">
        <ele>223.6</ele>
        <time>2019-08-20T13:27:45Z</time>
      </trkpt>
      <trkpt lat="46.5074" lon="3.81109">
        <ele>223.6</ele>
        <time>2019-08-20T13:27:46Z</time>
      </trkpt>
      <trkpt lat="46.50743" lon="3.81104">
        <ele>223.6</ele>
        <time>2019-08-20T13:27:47Z</time>
      </trkpt>
      <trkpt lat="46.50745" lon="3.81099">
        <ele>223.5</ele>
        <time>2019-08-20T13:27:48Z</time>
      </trkpt>
      <trkpt lat="46.50746" lon="3.81095">
        <ele>223.5</ele>
        <time>2019-08-20T13:27:49Z</time>
      </trkpt>
      <trkpt lat="46.50749" lon="3.81088">
        <ele>223.5</ele>
        <time>2019-08-20T13:27:51Z</time>
      </trkpt>
      <trkpt lat="46.50751" lon="3.81083">
        <ele>223.4</ele>
        <time>2019-08-20T13:27:52Z</time>
      </trkpt>
      <trkpt lat="46.50753" lon="3.81079">
        <ele>223.4</ele>
        <time>2019-08-20T13:27:53Z</time>
      </trkpt>
      <trkpt lat="46.50754" lon="3.81075">
        <ele>223.4</ele>
        <time>2019-08-20T13:27:54Z</time>
      </trkpt>
      <trkpt lat="46.50756" lon="3.8107">
        <ele>223.3</ele>
        <time>2019-08-20T13:27:55Z</time>
      </trkpt>
      <trkpt lat="46.50758" lon="3.81066">
        <ele>223.3</ele>
        <time>2019-08-20T13:27:56Z</time>
      </trkpt>
      <trkpt lat="46.5076" lon="3.81059">
        <ele>223.2</ele>
        <time>2019-08-20T13:27:58Z</time>
      </trkpt>
      <trkpt lat="46.50762" lon="3.81054">
        <ele>223.1</ele>
        <time>2019-08-20T13:27:59Z</time>
      </trkpt>
      <trkpt lat="46.50763" lon="3.8105">
        <ele>223.1</ele>
        <time>2019-08-20T13:28:00Z</time>
      </trkpt>
      <trkpt lat="46.50765" lon="3.81045">
        <ele>223.1</ele>
        <time>2019-08-20T13:28:01Z</time>
      </trkpt>
      <trkpt lat="46.50766" lon="3.81041">
        <ele>223</ele>
        <time>2019-08-20T13:28:02Z</time>
      </trkpt>
      <trkpt lat="46.50769" lon="3.81034">
        <ele>222.9</ele>
        <time>2019-08-20T13:28:04Z</time>
      </trkpt>
      <trkpt lat="46.50771" lon="3.8103">
        <ele>222.9</ele>
        <time>2019-08-20T13:28:05Z</time>
      </trkpt>
      <trkpt lat="46.50773" lon="3.81025">
        <ele>222.9</ele>
        <time>2019-08-20T13:28:06Z</time>
      </trkpt>
      <trkpt lat="46.50775" lon="3.8102">
        <ele>222.8</ele>
        <time>2019-08-20T13:28:07Z</time>
      </trkpt>
      <trkpt lat="46.50777" lon="3.81017">
        <ele>222.8</ele>
        <time>2019-08-20T13:28:08Z</time>
      </trkpt>
      <trkpt lat="46.50779" lon="3.81012">
        <ele>222.8</ele>
        <time>2019-08-20T13:28:09Z</time>
      </trkpt>
      <trkpt lat="46.50781" lon="3.81008">
        <ele>222.8</ele>
        <time>2019-08-20T13:28:10Z</time>
      </trkpt>
      <trkpt lat="46.50783" lon="3.81004">
        <ele>222.8</ele>
        <time>2019-08-20T13:28:11Z</time>
      </trkpt>
      <trkpt lat="46.50784" lon="3.80999">
        <ele>222.8</ele>
        <time>2019-08-20T13:28:12Z</time>
      </trkpt>
      <trkpt lat="46.50785" lon="3.80996">
        <ele>222.8</ele>
        <time>2019-08-20T13:28:13Z</time>
      </trkpt>
      <trkpt lat="46.50787" lon="3.80991">
        <ele>222.8</ele>
        <time>2019-08-20T13:28:14Z</time>
      </trkpt>
      <trkpt lat="46.50788" lon="3.80987">
        <ele>222.8</ele>
        <time>2019-08-20T13:28:15Z</time>
      </trkpt>
      <trkpt lat="46.5079" lon="3.80983">
        <ele>222.8</ele>
        <time>2019-08-20T13:28:16Z</time>
      </trkpt>
      <trkpt lat="46.50793" lon="3.8098">
        <ele>222.8</ele>
        <time>2019-08-20T13:28:17Z</time>
      </trkpt>
      <trkpt lat="46.50795" lon="3.80977">
        <ele>222.8</ele>
        <time>2019-08-20T13:28:18Z</time>
      </trkpt>
      <trkpt lat="46.50797" lon="3.80973">
        <ele>222.8</ele>
        <time>2019-08-20T13:28:20Z</time>
      </trkpt>
      <trkpt lat="46.50794" lon="3.80972">
        <ele>222.8</ele>
        <time>2019-08-20T13:28:29Z</time>
      </trkpt>
      <trkpt lat="46.50797" lon="3.8097">
        <ele>222.8</ele>
        <time>2019-08-20T13:29:23Z</time>
      </trkpt>
      <trkpt lat="46.50799" lon="3.80965">
        <ele>222.8</ele>
        <time>2019-08-20T13:29:25Z</time>
      </trkpt>
      <trkpt lat="46.508" lon="3.8096">
        <ele>222.8</ele>
        <time>2019-08-20T13:29:27Z</time>
      </trkpt>
      <trkpt lat="46.50803" lon="3.80956">
        <ele>222.8</ele>
        <time>2019-08-20T13:29:29Z</time>
      </trkpt>
      <trkpt lat="46.50805" lon="3.8095">
        <ele>222.8</ele>
        <time>2019-08-20T13:29:31Z</time>
      </trkpt>
      <trkpt lat="46.50807" lon="3.80943">
        <ele>222.9</ele>
        <time>2019-08-20T13:29:33Z</time>
      </trkpt>
      <trkpt lat="46.50809" lon="3.80939">
        <ele>222.9</ele>
        <time>2019-08-20T13:29:34Z</time>
      </trkpt>
      <trkpt lat="46.5081" lon="3.80935">
        <ele>222.9</ele>
        <time>2019-08-20T13:29:35Z</time>
      </trkpt>
      <trkpt lat="46.50811" lon="3.8093">
        <ele>222.9</ele>
        <time>2019-08-20T13:29:36Z</time>
      </trkpt>
      <trkpt lat="46.50812" lon="3.80926">
        <ele>222.9</ele>
        <time>2019-08-20T13:29:37Z</time>
      </trkpt>
      <trkpt lat="46.50814" lon="3.80921">
        <ele>222.9</ele>
        <time>2019-08-20T13:29:38Z</time>
      </trkpt>
      <trkpt lat="46.50816" lon="3.80917">
        <ele>222.9</ele>
        <time>2019-08-20T13:29:39Z</time>
      </trkpt>
      <trkpt lat="46.50818" lon="3.80913">
        <ele>223</ele>
        <time>2019-08-20T13:29:40Z</time>
      </trkpt>
      <trkpt lat="46.50819" lon="3.80908">
        <ele>223</ele>
        <time>2019-08-20T13:29:41Z</time>
      </trkpt>
      <trkpt lat="46.50821" lon="3.80903">
        <ele>223</ele>
        <time>2019-08-20T13:29:42Z</time>
      </trkpt>
      <trkpt lat="46.50824" lon="3.80898">
        <ele>223</ele>
        <time>2019-08-20T13:29:43Z</time>
      </trkpt>
      <trkpt lat="46.50825" lon="3.80894">
        <ele>223</ele>
        <time>2019-08-20T13:29:44Z</time>
      </trkpt>
      <trkpt lat="46.50828" lon="3.80888">
        <ele>223</ele>
        <time>2019-08-20T13:29:46Z</time>
      </trkpt>
      <trkpt lat="46.5083" lon="3.80884">
        <ele>223</ele>
        <time>2019-08-20T13:29:47Z</time>
      </trkpt>
      <trkpt lat="46.50832" lon="3.80879">
        <ele>223</ele>
        <time>2019-08-20T13:29:48Z</time>
      </trkpt>
      <trkpt lat="46.50833" lon="3.80873">
        <ele>223</ele>
        <time>2019-08-20T13:29:49Z</time>
      </trkpt>
      <trkpt lat="46.50835" lon="3.80869">
        <ele>223</ele>
        <time>2019-08-20T13:29:50Z</time>
      </trkpt>
      <trkpt lat="46.50836" lon="3.80864">
        <ele>223</ele>
        <time>2019-08-20T13:29:51Z</time>
      </trkpt>
      <trkpt lat="46.50837" lon="3.80859">
        <ele>222.9</ele>
        <time>2019-08-20T13:29:52Z</time>
      </trkpt>
      <trkpt lat="46.50839" lon="3.80855">
        <ele>222.9</ele>
        <time>2019-08-20T13:29:53Z</time>
      </trkpt>
      <trkpt lat="46.50841" lon="3.8085">
        <ele>222.9</ele>
        <time>2019-08-20T13:29:54Z</time>
      </trkpt>
      <trkpt lat="46.50843" lon="3.80845">
        <ele>222.9</ele>
        <time>2019-08-20T13:29:55Z</time>
      </trkpt>
      <trkpt lat="46.50846" lon="3.8084">
        <ele>222.9</ele>
        <time>2019-08-20T13:29:56Z</time>
      </trkpt>
      <trkpt lat="46.50848" lon="3.80835">
        <ele>222.8</ele>
        <time>2019-08-20T13:29:57Z</time>
      </trkpt>
      <trkpt lat="46.5085" lon="3.8083">
        <ele>222.8</ele>
        <time>2019-08-20T13:29:58Z</time>
      </trkpt>
      <trkpt lat="46.50852" lon="3.80825">
        <ele>222.8</ele>
        <time>2019-08-20T13:29:59Z</time>
      </trkpt>
      <trkpt lat="46.50853" lon="3.8082">
        <ele>222.8</ele>
        <time>2019-08-20T13:30:00Z</time>
      </trkpt>
      <trkpt lat="46.50855" lon="3.80815">
        <ele>222.8</ele>
        <time>2019-08-20T13:30:01Z</time>
      </trkpt>
      <trkpt lat="46.50857" lon="3.8081">
        <ele>222.8</ele>
        <time>2019-08-20T13:30:02Z</time>
      </trkpt>
      <trkpt lat="46.50859" lon="3.80806">
        <ele>222.8</ele>
        <time>2019-08-20T13:30:03Z</time>
      </trkpt>
      <trkpt lat="46.50861" lon="3.80802">
        <ele>222.8</ele>
        <time>2019-08-20T13:30:04Z</time>
      </trkpt>
      <trkpt lat="46.50863" lon="3.80797">
        <ele>222.8</ele>
        <time>2019-08-20T13:30:05Z</time>
      </trkpt>
      <trkpt lat="46.50865" lon="3.80791">
        <ele>222.9</ele>
        <time>2019-08-20T13:30:06Z</time>
      </trkpt>
      <trkpt lat="46.50867" lon="3.80786">
        <ele>222.9</ele>
        <time>2019-08-20T13:30:07Z</time>
      </trkpt>
      <trkpt lat="46.50869" lon="3.80781">
        <ele>222.9</ele>
        <time>2019-08-20T13:30:08Z</time>
      </trkpt>
      <trkpt lat="46.50871" lon="3.80775">
        <ele>222.9</ele>
        <time>2019-08-20T13:30:09Z</time>
      </trkpt>
      <trkpt lat="46.50873" lon="3.80771">
        <ele>223</ele>
        <time>2019-08-20T13:30:10Z</time>
      </trkpt>
      <trkpt lat="46.50875" lon="3.80766">
        <ele>223</ele>
        <time>2019-08-20T13:30:11Z</time>
      </trkpt>
      <trkpt lat="46.50877" lon="3.80761">
        <ele>223</ele>
        <time>2019-08-20T13:30:12Z</time>
      </trkpt>
      <trkpt lat="46.50879" lon="3.80755">
        <ele>223.1</ele>
        <time>2019-08-20T13:30:13Z</time>
      </trkpt>
      <trkpt lat="46.50881" lon="3.80749">
        <ele>223.1</ele>
        <time>2019-08-20T13:30:14Z</time>
      </trkpt>
      <trkpt lat="46.50883" lon="3.80742">
        <ele>223.1</ele>
        <time>2019-08-20T13:30:15Z</time>
      </trkpt>
      <trkpt lat="46.50885" lon="3.80735">
        <ele>223.1</ele>
        <time>2019-08-20T13:30:16Z</time>
      </trkpt>
      <trkpt lat="46.50887" lon="3.80729">
        <ele>223.1</ele>
        <time>2019-08-20T13:30:17Z</time>
      </trkpt>
      <trkpt lat="46.5089" lon="3.80724">
        <ele>223.1</ele>
        <time>2019-08-20T13:30:18Z</time>
      </trkpt>
      <trkpt lat="46.50893" lon="3.80719">
        <ele>223.1</ele>
        <time>2019-08-20T13:30:19Z</time>
      </trkpt>
      <trkpt lat="46.50895" lon="3.80713">
        <ele>223.1</ele>
        <time>2019-08-20T13:30:20Z</time>
      </trkpt>
      <trkpt lat="46.50897" lon="3.80708">
        <ele>223.1</ele>
        <time>2019-08-20T13:30:21Z</time>
      </trkpt>
      <trkpt lat="46.50898" lon="3.80703">
        <ele>223.1</ele>
        <time>2019-08-20T13:30:22Z</time>
      </trkpt>
      <trkpt lat="46.509" lon="3.80698">
        <ele>223.1</ele>
        <time>2019-08-20T13:30:23Z</time>
      </trkpt>
      <trkpt lat="46.50903" lon="3.80692">
        <ele>223.1</ele>
        <time>2019-08-20T13:30:24Z</time>
      </trkpt>
      <trkpt lat="46.50906" lon="3.80687">
        <ele>223.1</ele>
        <time>2019-08-20T13:30:25Z</time>
      </trkpt>
      <trkpt lat="46.50909" lon="3.80681">
        <ele>223.1</ele>
        <time>2019-08-20T13:30:26Z</time>
      </trkpt>
      <trkpt lat="46.5091" lon="3.80676">
        <ele>223.1</ele>
        <time>2019-08-20T13:30:27Z</time>
      </trkpt>
      <trkpt lat="46.50911" lon="3.80669">
        <ele>223.1</ele>
        <time>2019-08-20T13:30:28Z</time>
      </trkpt>
      <trkpt lat="46.50913" lon="3.80664">
        <ele>223.1</ele>
        <time>2019-08-20T13:30:29Z</time>
      </trkpt>
      <trkpt lat="46.50916" lon="3.8066">
        <ele>223.1</ele>
        <time>2019-08-20T13:30:30Z</time>
      </trkpt>
      <trkpt lat="46.50918" lon="3.80654">
        <ele>223.1</ele>
        <time>2019-08-20T13:30:31Z</time>
      </trkpt>
      <trkpt lat="46.50921" lon="3.80649">
        <ele>223.1</ele>
        <time>2019-08-20T13:30:32Z</time>
      </trkpt>
      <trkpt lat="46.50925" lon="3.80643">
        <ele>223.1</ele>
        <time>2019-08-20T13:30:33Z</time>
      </trkpt>
      <trkpt lat="46.50928" lon="3.80637">
        <ele>223.1</ele>
        <time>2019-08-20T13:30:34Z</time>
      </trkpt>
      <trkpt lat="46.50931" lon="3.80632">
        <ele>223.1</ele>
        <time>2019-08-20T13:30:35Z</time>
      </trkpt>
      <trkpt lat="46.50935" lon="3.80627">
        <ele>223.2</ele>
        <time>2019-08-20T13:30:36Z</time>
      </trkpt>
      <trkpt lat="46.50938" lon="3.80622">
        <ele>223.2</ele>
        <time>2019-08-20T13:30:37Z</time>
      </trkpt>
      <trkpt lat="46.50941" lon="3.80616">
        <ele>223.2</ele>
        <time>2019-08-20T13:30:38Z</time>
      </trkpt>
      <trkpt lat="46.50943" lon="3.80612">
        <ele>223.3</ele>
        <time>2019-08-20T13:30:39Z</time>
      </trkpt>
      <trkpt lat="46.50946" lon="3.80607">
        <ele>223.3</ele>
        <time>2019-08-20T13:30:40Z</time>
      </trkpt>
      <trkpt lat="46.50948" lon="3.80604">
        <ele>223.3</ele>
        <time>2019-08-20T13:30:41Z</time>
      </trkpt>
      <trkpt lat="46.50952" lon="3.80599">
        <ele>223.4</ele>
        <time>2019-08-20T13:30:42Z</time>
      </trkpt>
      <trkpt lat="46.50954" lon="3.80594">
        <ele>223.4</ele>
        <time>2019-08-20T13:30:43Z</time>
      </trkpt>
      <trkpt lat="46.50957" lon="3.80588">
        <ele>223.4</ele>
        <time>2019-08-20T13:30:44Z</time>
      </trkpt>
      <trkpt lat="46.50961" lon="3.80583">
        <ele>223.4</ele>
        <time>2019-08-20T13:30:45Z</time>
      </trkpt>
      <trkpt lat="46.50964" lon="3.80578">
        <ele>223.4</ele>
        <time>2019-08-20T13:30:46Z</time>
      </trkpt>
      <trkpt lat="46.50967" lon="3.80574">
        <ele>223.4</ele>
        <time>2019-08-20T13:30:47Z</time>
      </trkpt>
      <trkpt lat="46.5097" lon="3.8057">
        <ele>223.4</ele>
        <time>2019-08-20T13:30:48Z</time>
      </trkpt>
      <trkpt lat="46.50973" lon="3.80565">
        <ele>223.4</ele>
        <time>2019-08-20T13:30:49Z</time>
      </trkpt>
      <trkpt lat="46.50976" lon="3.8056">
        <ele>223.4</ele>
        <time>2019-08-20T13:30:50Z</time>
      </trkpt>
      <trkpt lat="46.50979" lon="3.80556">
        <ele>223.4</ele>
        <time>2019-08-20T13:30:51Z</time>
      </trkpt>
      <trkpt lat="46.50982" lon="3.80551">
        <ele>223.3</ele>
        <time>2019-08-20T13:30:52Z</time>
      </trkpt>
      <trkpt lat="46.50985" lon="3.80546">
        <ele>223.3</ele>
        <time>2019-08-20T13:30:53Z</time>
      </trkpt>
      <trkpt lat="46.50989" lon="3.80543">
        <ele>223.3</ele>
        <time>2019-08-20T13:30:54Z</time>
      </trkpt>
      <trkpt lat="46.50992" lon="3.80537">
        <ele>223.2</ele>
        <time>2019-08-20T13:30:55Z</time>
      </trkpt>
      <trkpt lat="46.50996" lon="3.80533">
        <ele>223.2</ele>
        <time>2019-08-20T13:30:56Z</time>
      </trkpt>
      <trkpt lat="46.51" lon="3.80529">
        <ele>223.2</ele>
        <time>2019-08-20T13:30:57Z</time>
      </trkpt>
      <trkpt lat="46.51004" lon="3.80524">
        <ele>223.2</ele>
        <time>2019-08-20T13:30:58Z</time>
      </trkpt>
      <trkpt lat="46.51008" lon="3.80519">
        <ele>223.1</ele>
        <time>2019-08-20T13:30:59Z</time>
      </trkpt>
      <trkpt lat="46.51012" lon="3.80514">
        <ele>223.1</ele>
        <time>2019-08-20T13:31:00Z</time>
      </trkpt>
      <trkpt lat="46.51016" lon="3.80511">
        <ele>223.1</ele>
        <time>2019-08-20T13:31:01Z</time>
      </trkpt>
      <trkpt lat="46.51019" lon="3.80507">
        <ele>223.1</ele>
        <time>2019-08-20T13:31:02Z</time>
      </trkpt>
      <trkpt lat="46.51023" lon="3.80502">
        <ele>223.1</ele>
        <time>2019-08-20T13:31:03Z</time>
      </trkpt>
      <trkpt lat="46.51026" lon="3.80499">
        <ele>223.1</ele>
        <time>2019-08-20T13:31:04Z</time>
      </trkpt>
      <trkpt lat="46.5103" lon="3.80496">
        <ele>223.1</ele>
        <time>2019-08-20T13:31:05Z</time>
      </trkpt>
      <trkpt lat="46.51034" lon="3.80493">
        <ele>223.1</ele>
        <time>2019-08-20T13:31:06Z</time>
      </trkpt>
      <trkpt lat="46.51038" lon="3.80489">
        <ele>223.1</ele>
        <time>2019-08-20T13:31:07Z</time>
      </trkpt>
      <trkpt lat="46.51042" lon="3.80486">
        <ele>223.1</ele>
        <time>2019-08-20T13:31:08Z</time>
      </trkpt>
      <trkpt lat="46.51045" lon="3.80483">
        <ele>223.1</ele>
        <time>2019-08-20T13:31:09Z</time>
      </trkpt>
      <trkpt lat="46.51049" lon="3.8048">
        <ele>223.1</ele>
        <time>2019-08-20T13:31:10Z</time>
      </trkpt>
      <trkpt lat="46.51053" lon="3.80476">
        <ele>223.1</ele>
        <time>2019-08-20T13:31:11Z</time>
      </trkpt>
      <trkpt lat="46.51057" lon="3.80473">
        <ele>223.1</ele>
        <time>2019-08-20T13:31:12Z</time>
      </trkpt>
      <trkpt lat="46.5106" lon="3.80469">
        <ele>223.1</ele>
        <time>2019-08-20T13:31:13Z</time>
      </trkpt>
      <trkpt lat="46.51064" lon="3.80466">
        <ele>223.1</ele>
        <time>2019-08-20T13:31:14Z</time>
      </trkpt>
      <trkpt lat="46.51067" lon="3.80463">
        <ele>223.1</ele>
        <time>2019-08-20T13:31:15Z</time>
      </trkpt>
      <trkpt lat="46.51071" lon="3.8046">
        <ele>223.1</ele>
        <time>2019-08-20T13:31:16Z</time>
      </trkpt>
      <trkpt lat="46.51074" lon="3.80456">
        <ele>223.1</ele>
        <time>2019-08-20T13:31:17Z</time>
      </trkpt>
      <trkpt lat="46.51078" lon="3.80453">
        <ele>223.1</ele>
        <time>2019-08-20T13:31:18Z</time>
      </trkpt>
      <trkpt lat="46.51081" lon="3.80449">
        <ele>223.1</ele>
        <time>2019-08-20T13:31:19Z</time>
      </trkpt>
      <trkpt lat="46.51085" lon="3.80446">
        <ele>223.1</ele>
        <time>2019-08-20T13:31:20Z</time>
      </trkpt>
      <trkpt lat="46.51088" lon="3.80443">
        <ele>223.1</ele>
        <time>2019-08-20T13:31:21Z</time>
      </trkpt>
      <trkpt lat="46.51091" lon="3.80438">
        <ele>223.2</ele>
        <time>2019-08-20T13:31:22Z</time>
      </trkpt>
      <trkpt lat="46.51095" lon="3.80435">
        <ele>223.2</ele>
        <time>2019-08-20T13:31:23Z</time>
      </trkpt>
      <trkpt lat="46.51099" lon="3.80431">
        <ele>223.3</ele>
        <time>2019-08-20T13:31:24Z</time>
      </trkpt>
      <trkpt lat="46.51103" lon="3.80427">
        <ele>223.3</ele>
        <time>2019-08-20T13:31:25Z</time>
      </trkpt>
      <trkpt lat="46.51107" lon="3.80422">
        <ele>223.4</ele>
        <time>2019-08-20T13:31:26Z</time>
      </trkpt>
      <trkpt lat="46.5111" lon="3.80418">
        <ele>223.5</ele>
        <time>2019-08-20T13:31:27Z</time>
      </trkpt>
      <trkpt lat="46.51113" lon="3.80413">
        <ele>223.6</ele>
        <time>2019-08-20T13:31:28Z</time>
      </trkpt>
      <trkpt lat="46.51116" lon="3.8041">
        <ele>223.6</ele>
        <time>2019-08-20T13:31:29Z</time>
      </trkpt>
      <trkpt lat="46.5112" lon="3.80407">
        <ele>223.7</ele>
        <time>2019-08-20T13:31:30Z</time>
      </trkpt>
      <trkpt lat="46.51124" lon="3.80402">
        <ele>223.8</ele>
        <time>2019-08-20T13:31:31Z</time>
      </trkpt>
      <trkpt lat="46.51128" lon="3.80397">
        <ele>223.8</ele>
        <time>2019-08-20T13:31:32Z</time>
      </trkpt>
      <trkpt lat="46.51131" lon="3.80393">
        <ele>223.9</ele>
        <time>2019-08-20T13:31:33Z</time>
      </trkpt>
      <trkpt lat="46.51133" lon="3.8039">
        <ele>223.9</ele>
        <time>2019-08-20T13:31:34Z</time>
      </trkpt>
      <trkpt lat="46.51136" lon="3.80386">
        <ele>224</ele>
        <time>2019-08-20T13:31:35Z</time>
      </trkpt>
      <trkpt lat="46.51138" lon="3.80382">
        <ele>224</ele>
        <time>2019-08-20T13:31:36Z</time>
      </trkpt>
      <trkpt lat="46.51143" lon="3.80378">
        <ele>224</ele>
        <time>2019-08-20T13:31:38Z</time>
      </trkpt>
      <trkpt lat="46.51148" lon="3.80373">
        <ele>224.1</ele>
        <time>2019-08-20T13:31:40Z</time>
      </trkpt>
      <trkpt lat="46.51151" lon="3.80374">
        <ele>224.1</ele>
        <time>2019-08-20T13:31:41Z</time>
      </trkpt>
      <trkpt lat="46.51155" lon="3.80374">
        <ele>224.1</ele>
        <time>2019-08-20T13:31:42Z</time>
      </trkpt>
      <trkpt lat="46.5116" lon="3.80371">
        <ele>224.1</ele>
        <time>2019-08-20T13:31:44Z</time>
      </trkpt>
      <trkpt lat="46.51161" lon="3.80365">
        <ele>224.1</ele>
        <time>2019-08-20T13:31:45Z</time>
      </trkpt>
      <trkpt lat="46.51163" lon="3.8036">
        <ele>224.3</ele>
        <time>2019-08-20T13:31:46Z</time>
      </trkpt>
      <trkpt lat="46.51164" lon="3.80356">
        <ele>224.4</ele>
        <time>2019-08-20T13:31:47Z</time>
      </trkpt>
      <trkpt lat="46.51166" lon="3.80353">
        <ele>224.5</ele>
        <time>2019-08-20T13:31:48Z</time>
      </trkpt>
      <trkpt lat="46.51169" lon="3.80349">
        <ele>224.6</ele>
        <time>2019-08-20T13:31:49Z</time>
      </trkpt>
      <trkpt lat="46.51171" lon="3.80343">
        <ele>224.7</ele>
        <time>2019-08-20T13:31:50Z</time>
      </trkpt>
      <trkpt lat="46.51175" lon="3.80341">
        <ele>224.7</ele>
        <time>2019-08-20T13:31:51Z</time>
      </trkpt>
      <trkpt lat="46.51178" lon="3.80335">
        <ele>224.8</ele>
        <time>2019-08-20T13:31:52Z</time>
      </trkpt>
      <trkpt lat="46.51181" lon="3.8033">
        <ele>224.8</ele>
        <time>2019-08-20T13:31:53Z</time>
      </trkpt>
      <trkpt lat="46.51184" lon="3.80325">
        <ele>224.8</ele>
        <time>2019-08-20T13:31:54Z</time>
      </trkpt>
      <trkpt lat="46.51188" lon="3.80319">
        <ele>224.8</ele>
        <time>2019-08-20T13:31:55Z</time>
      </trkpt>
      <trkpt lat="46.51191" lon="3.80311">
        <ele>224.7</ele>
        <time>2019-08-20T13:31:56Z</time>
      </trkpt>
      <trkpt lat="46.51194" lon="3.80303">
        <ele>224.6</ele>
        <time>2019-08-20T13:31:57Z</time>
      </trkpt>
      <trkpt lat="46.51197" lon="3.80295">
        <ele>224.5</ele>
        <time>2019-08-20T13:31:58Z</time>
      </trkpt>
      <trkpt lat="46.512" lon="3.80288">
        <ele>224.4</ele>
        <time>2019-08-20T13:31:59Z</time>
      </trkpt>
      <trkpt lat="46.51203" lon="3.80281">
        <ele>224.3</ele>
        <time>2019-08-20T13:32:00Z</time>
      </trkpt>
      <trkpt lat="46.51206" lon="3.80277">
        <ele>224.3</ele>
        <time>2019-08-20T13:32:01Z</time>
      </trkpt>
      <trkpt lat="46.51208" lon="3.8027">
        <ele>224.2</ele>
        <time>2019-08-20T13:32:02Z</time>
      </trkpt>
      <trkpt lat="46.5121" lon="3.80264">
        <ele>224.1</ele>
        <time>2019-08-20T13:32:03Z</time>
      </trkpt>
      <trkpt lat="46.51211" lon="3.80258">
        <ele>224</ele>
        <time>2019-08-20T13:32:04Z</time>
      </trkpt>
      <trkpt lat="46.51213" lon="3.80252">
        <ele>224</ele>
        <time>2019-08-20T13:32:05Z</time>
      </trkpt>
      <trkpt lat="46.51215" lon="3.80248">
        <ele>224</ele>
        <time>2019-08-20T13:32:06Z</time>
      </trkpt>
      <trkpt lat="46.51217" lon="3.80243">
        <ele>223.9</ele>
        <time>2019-08-20T13:32:07Z</time>
      </trkpt>
      <trkpt lat="46.5122" lon="3.80237">
        <ele>223.9</ele>
        <time>2019-08-20T13:32:08Z</time>
      </trkpt>
      <trkpt lat="46.51222" lon="3.8023">
        <ele>223.9</ele>
        <time>2019-08-20T13:32:09Z</time>
      </trkpt>
      <trkpt lat="46.51225" lon="3.80224">
        <ele>223.9</ele>
        <time>2019-08-20T13:32:10Z</time>
      </trkpt>
      <trkpt lat="46.51226" lon="3.80219">
        <ele>223.9</ele>
        <time>2019-08-20T13:32:11Z</time>
      </trkpt>
      <trkpt lat="46.51229" lon="3.80213">
        <ele>223.8</ele>
        <time>2019-08-20T13:32:12Z</time>
      </trkpt>
      <trkpt lat="46.51231" lon="3.80207">
        <ele>223.8</ele>
        <time>2019-08-20T13:32:13Z</time>
      </trkpt>
      <trkpt lat="46.51234" lon="3.802">
        <ele>223.8</ele>
        <time>2019-08-20T13:32:14Z</time>
      </trkpt>
      <trkpt lat="46.51236" lon="3.80194">
        <ele>223.7</ele>
        <time>2019-08-20T13:32:15Z</time>
      </trkpt>
      <trkpt lat="46.5124" lon="3.80187">
        <ele>223.7</ele>
        <time>2019-08-20T13:32:16Z</time>
      </trkpt>
      <trkpt lat="46.51241" lon="3.8018">
        <ele>223.6</ele>
        <time>2019-08-20T13:32:17Z</time>
      </trkpt>
      <trkpt lat="46.51243" lon="3.80174">
        <ele>223.6</ele>
        <time>2019-08-20T13:32:18Z</time>
      </trkpt>
      <trkpt lat="46.51246" lon="3.8017">
        <ele>223.6</ele>
        <time>2019-08-20T13:32:19Z</time>
      </trkpt>
      <trkpt lat="46.51247" lon="3.80164">
        <ele>223.5</ele>
        <time>2019-08-20T13:32:20Z</time>
      </trkpt>
      <trkpt lat="46.51249" lon="3.80159">
        <ele>223.5</ele>
        <time>2019-08-20T13:32:21Z</time>
      </trkpt>
      <trkpt lat="46.51251" lon="3.80153">
        <ele>223.5</ele>
        <time>2019-08-20T13:32:22Z</time>
      </trkpt>
      <trkpt lat="46.51253" lon="3.80148">
        <ele>223.5</ele>
        <time>2019-08-20T13:32:23Z</time>
      </trkpt>
      <trkpt lat="46.51255" lon="3.80144">
        <ele>223.5</ele>
        <time>2019-08-20T13:32:24Z</time>
      </trkpt>
      <trkpt lat="46.51257" lon="3.80139">
        <ele>223.5</ele>
        <time>2019-08-20T13:32:25Z</time>
      </trkpt>
      <trkpt lat="46.5126" lon="3.80133">
        <ele>223.5</ele>
        <time>2019-08-20T13:32:26Z</time>
      </trkpt>
      <trkpt lat="46.51264" lon="3.80128">
        <ele>223.5</ele>
        <time>2019-08-20T13:32:27Z</time>
      </trkpt>
      <trkpt lat="46.51266" lon="3.80122">
        <ele>223.6</ele>
        <time>2019-08-20T13:32:28Z</time>
      </trkpt>
      <trkpt lat="46.51269" lon="3.80116">
        <ele>223.6</ele>
        <time>2019-08-20T13:32:29Z</time>
      </trkpt>
      <trkpt lat="46.51271" lon="3.8011">
        <ele>223.6</ele>
        <time>2019-08-20T13:32:30Z</time>
      </trkpt>
      <trkpt lat="46.51274" lon="3.80104">
        <ele>223.6</ele>
        <time>2019-08-20T13:32:31Z</time>
      </trkpt>
      <trkpt lat="46.51276" lon="3.80097">
        <ele>223.6</ele>
        <time>2019-08-20T13:32:32Z</time>
      </trkpt>
      <trkpt lat="46.51278" lon="3.80092">
        <ele>223.6</ele>
        <time>2019-08-20T13:32:33Z</time>
      </trkpt>
      <trkpt lat="46.51281" lon="3.80087">
        <ele>223.6</ele>
        <time>2019-08-20T13:32:34Z</time>
      </trkpt>
      <trkpt lat="46.51284" lon="3.8008">
        <ele>223.5</ele>
        <time>2019-08-20T13:32:35Z</time>
      </trkpt>
      <trkpt lat="46.51287" lon="3.80075">
        <ele>223.5</ele>
        <time>2019-08-20T13:32:36Z</time>
      </trkpt>
      <trkpt lat="46.51289" lon="3.80069">
        <ele>223.4</ele>
        <time>2019-08-20T13:32:37Z</time>
      </trkpt>
      <trkpt lat="46.5129" lon="3.80064">
        <ele>223.4</ele>
        <time>2019-08-20T13:32:38Z</time>
      </trkpt>
      <trkpt lat="46.51292" lon="3.8006">
        <ele>223.4</ele>
        <time>2019-08-20T13:32:39Z</time>
      </trkpt>
      <trkpt lat="46.51294" lon="3.80056">
        <ele>223.3</ele>
        <time>2019-08-20T13:32:40Z</time>
      </trkpt>
      <trkpt lat="46.51296" lon="3.80051">
        <ele>223.3</ele>
        <time>2019-08-20T13:32:41Z</time>
      </trkpt>
      <trkpt lat="46.51299" lon="3.80044">
        <ele>223.3</ele>
        <time>2019-08-20T13:32:42Z</time>
      </trkpt>
      <trkpt lat="46.51301" lon="3.80038">
        <ele>223.2</ele>
        <time>2019-08-20T13:32:43Z</time>
      </trkpt>
      <trkpt lat="46.51303" lon="3.80032">
        <ele>223.2</ele>
        <time>2019-08-20T13:32:44Z</time>
      </trkpt>
      <trkpt lat="46.51305" lon="3.80026">
        <ele>223.2</ele>
        <time>2019-08-20T13:32:45Z</time>
      </trkpt>
      <trkpt lat="46.51307" lon="3.80021">
        <ele>223.2</ele>
        <time>2019-08-20T13:32:46Z</time>
      </trkpt>
      <trkpt lat="46.51309" lon="3.80015">
        <ele>223.1</ele>
        <time>2019-08-20T13:32:47Z</time>
      </trkpt>
      <trkpt lat="46.51312" lon="3.8001">
        <ele>223.1</ele>
        <time>2019-08-20T13:32:48Z</time>
      </trkpt>
      <trkpt lat="46.51315" lon="3.80005">
        <ele>223.1</ele>
        <time>2019-08-20T13:32:49Z</time>
      </trkpt>
      <trkpt lat="46.51317" lon="3.8">
        <ele>223.1</ele>
        <time>2019-08-20T13:32:50Z</time>
      </trkpt>
      <trkpt lat="46.5132" lon="3.79993">
        <ele>223.1</ele>
        <time>2019-08-20T13:32:51Z</time>
      </trkpt>
      <trkpt lat="46.51322" lon="3.79986">
        <ele>223.1</ele>
        <time>2019-08-20T13:32:52Z</time>
      </trkpt>
      <trkpt lat="46.51325" lon="3.7998">
        <ele>223</ele>
        <time>2019-08-20T13:32:53Z</time>
      </trkpt>
      <trkpt lat="46.51327" lon="3.79974">
        <ele>223</ele>
        <time>2019-08-20T13:32:54Z</time>
      </trkpt>
      <trkpt lat="46.5133" lon="3.79967">
        <ele>223</ele>
        <time>2019-08-20T13:32:55Z</time>
      </trkpt>
      <trkpt lat="46.51331" lon="3.79962">
        <ele>223</ele>
        <time>2019-08-20T13:32:56Z</time>
      </trkpt>
      <trkpt lat="46.51333" lon="3.79957">
        <ele>223.1</ele>
        <time>2019-08-20T13:32:57Z</time>
      </trkpt>
      <trkpt lat="46.51335" lon="3.79951">
        <ele>223.1</ele>
        <time>2019-08-20T13:32:58Z</time>
      </trkpt>
      <trkpt lat="46.51337" lon="3.79947">
        <ele>223.1</ele>
        <time>2019-08-20T13:32:59Z</time>
      </trkpt>
      <trkpt lat="46.51341" lon="3.79943">
        <ele>223.1</ele>
        <time>2019-08-20T13:33:00Z</time>
      </trkpt>
      <trkpt lat="46.51342" lon="3.79938">
        <ele>223.1</ele>
        <time>2019-08-20T13:33:01Z</time>
      </trkpt>
      <trkpt lat="46.51344" lon="3.79932">
        <ele>223.1</ele>
        <time>2019-08-20T13:33:02Z</time>
      </trkpt>
      <trkpt lat="46.51345" lon="3.79927">
        <ele>223.1</ele>
        <time>2019-08-20T13:33:03Z</time>
      </trkpt>
      <trkpt lat="46.51347" lon="3.79923">
        <ele>223.1</ele>
        <time>2019-08-20T13:33:04Z</time>
      </trkpt>
      <trkpt lat="46.51348" lon="3.79919">
        <ele>223.1</ele>
        <time>2019-08-20T13:33:05Z</time>
      </trkpt>
      <trkpt lat="46.51351" lon="3.79914">
        <ele>223.1</ele>
        <time>2019-08-20T13:33:06Z</time>
      </trkpt>
      <trkpt lat="46.51353" lon="3.79908">
        <ele>223.2</ele>
        <time>2019-08-20T13:33:07Z</time>
      </trkpt>
      <trkpt lat="46.51355" lon="3.79901">
        <ele>223.2</ele>
        <time>2019-08-20T13:33:08Z</time>
      </trkpt>
      <trkpt lat="46.51359" lon="3.79896">
        <ele>223.3</ele>
        <time>2019-08-20T13:33:09Z</time>
      </trkpt>
      <trkpt lat="46.51361" lon="3.7989">
        <ele>223.3</ele>
        <time>2019-08-20T13:33:10Z</time>
      </trkpt>
      <trkpt lat="46.51363" lon="3.79884">
        <ele>223.4</ele>
        <time>2019-08-20T13:33:11Z</time>
      </trkpt>
      <trkpt lat="46.51365" lon="3.79878">
        <ele>223.5</ele>
        <time>2019-08-20T13:33:12Z</time>
      </trkpt>
      <trkpt lat="46.51367" lon="3.79873">
        <ele>223.5</ele>
        <time>2019-08-20T13:33:13Z</time>
      </trkpt>
      <trkpt lat="46.5137" lon="3.79869">
        <ele>223.6</ele>
        <time>2019-08-20T13:33:14Z</time>
      </trkpt>
      <trkpt lat="46.51372" lon="3.79865">
        <ele>223.6</ele>
        <time>2019-08-20T13:33:15Z</time>
      </trkpt>
      <trkpt lat="46.51374" lon="3.7986">
        <ele>223.6</ele>
        <time>2019-08-20T13:33:16Z</time>
      </trkpt>
      <trkpt lat="46.51376" lon="3.79854">
        <ele>223.6</ele>
        <time>2019-08-20T13:33:17Z</time>
      </trkpt>
      <trkpt lat="46.51378" lon="3.79848">
        <ele>223.6</ele>
        <time>2019-08-20T13:33:18Z</time>
      </trkpt>
      <trkpt lat="46.51379" lon="3.79843">
        <ele>223.6</ele>
        <time>2019-08-20T13:33:19Z</time>
      </trkpt>
      <trkpt lat="46.51381" lon="3.79838">
        <ele>223.5</ele>
        <time>2019-08-20T13:33:20Z</time>
      </trkpt>
      <trkpt lat="46.51383" lon="3.79833">
        <ele>223.5</ele>
        <time>2019-08-20T13:33:21Z</time>
      </trkpt>
      <trkpt lat="46.51386" lon="3.79826">
        <ele>223.4</ele>
        <time>2019-08-20T13:33:22Z</time>
      </trkpt>
      <trkpt lat="46.51389" lon="3.7982">
        <ele>223.3</ele>
        <time>2019-08-20T13:33:23Z</time>
      </trkpt>
      <trkpt lat="46.51392" lon="3.79813">
        <ele>223.2</ele>
        <time>2019-08-20T13:33:24Z</time>
      </trkpt>
      <trkpt lat="46.51394" lon="3.79808">
        <ele>223.1</ele>
        <time>2019-08-20T13:33:25Z</time>
      </trkpt>
      <trkpt lat="46.51396" lon="3.79803">
        <ele>223.1</ele>
        <time>2019-08-20T13:33:26Z</time>
      </trkpt>
      <trkpt lat="46.51398" lon="3.79798">
        <ele>223</ele>
        <time>2019-08-20T13:33:27Z</time>
      </trkpt>
      <trkpt lat="46.51401" lon="3.79793">
        <ele>222.9</ele>
        <time>2019-08-20T13:33:28Z</time>
      </trkpt>
      <trkpt lat="46.51403" lon="3.79788">
        <ele>222.9</ele>
        <time>2019-08-20T13:33:29Z</time>
      </trkpt>
      <trkpt lat="46.51405" lon="3.79783">
        <ele>222.9</ele>
        <time>2019-08-20T13:33:30Z</time>
      </trkpt>
      <trkpt lat="46.51408" lon="3.79777">
        <ele>222.8</ele>
        <time>2019-08-20T13:33:31Z</time>
      </trkpt>
      <trkpt lat="46.5141" lon="3.79769">
        <ele>222.8</ele>
        <time>2019-08-20T13:33:32Z</time>
      </trkpt>
      <trkpt lat="46.51412" lon="3.79763">
        <ele>222.8</ele>
        <time>2019-08-20T13:33:33Z</time>
      </trkpt>
      <trkpt lat="46.51414" lon="3.79757">
        <ele>222.8</ele>
        <time>2019-08-20T13:33:34Z</time>
      </trkpt>
      <trkpt lat="46.51417" lon="3.79752">
        <ele>222.8</ele>
        <time>2019-08-20T13:33:35Z</time>
      </trkpt>
      <trkpt lat="46.51419" lon="3.79748">
        <ele>222.8</ele>
        <time>2019-08-20T13:33:36Z</time>
      </trkpt>
      <trkpt lat="46.51421" lon="3.79744">
        <ele>222.9</ele>
        <time>2019-08-20T13:33:37Z</time>
      </trkpt>
      <trkpt lat="46.51423" lon="3.79739">
        <ele>222.9</ele>
        <time>2019-08-20T13:33:38Z</time>
      </trkpt>
      <trkpt lat="46.51426" lon="3.79733">
        <ele>222.9</ele>
        <time>2019-08-20T13:33:39Z</time>
      </trkpt>
      <trkpt lat="46.51428" lon="3.79727">
        <ele>222.9</ele>
        <time>2019-08-20T13:33:40Z</time>
      </trkpt>
      <trkpt lat="46.5143" lon="3.79722">
        <ele>222.9</ele>
        <time>2019-08-20T13:33:41Z</time>
      </trkpt>
      <trkpt lat="46.51432" lon="3.79716">
        <ele>222.9</ele>
        <time>2019-08-20T13:33:42Z</time>
      </trkpt>
      <trkpt lat="46.51434" lon="3.79709">
        <ele>222.9</ele>
        <time>2019-08-20T13:33:43Z</time>
      </trkpt>
      <trkpt lat="46.51436" lon="3.79704">
        <ele>222.9</ele>
        <time>2019-08-20T13:33:44Z</time>
      </trkpt>
      <trkpt lat="46.51438" lon="3.79699">
        <ele>222.8</ele>
        <time>2019-08-20T13:33:45Z</time>
      </trkpt>
      <trkpt lat="46.5144" lon="3.79693">
        <ele>222.8</ele>
        <time>2019-08-20T13:33:46Z</time>
      </trkpt>
      <trkpt lat="46.51441" lon="3.79688">
        <ele>222.8</ele>
        <time>2019-08-20T13:33:47Z</time>
      </trkpt>
      <trkpt lat="46.51443" lon="3.79682">
        <ele>222.7</ele>
        <time>2019-08-20T13:33:48Z</time>
      </trkpt>
      <trkpt lat="46.51444" lon="3.79677">
        <ele>222.7</ele>
        <time>2019-08-20T13:33:49Z</time>
      </trkpt>
      <trkpt lat="46.51445" lon="3.79671">
        <ele>222.7</ele>
        <time>2019-08-20T13:33:50Z</time>
      </trkpt>
      <trkpt lat="46.51447" lon="3.79667">
        <ele>222.6</ele>
        <time>2019-08-20T13:33:51Z</time>
      </trkpt>
      <trkpt lat="46.51449" lon="3.79662">
        <ele>222.6</ele>
        <time>2019-08-20T13:33:52Z</time>
      </trkpt>
      <trkpt lat="46.51451" lon="3.79658">
        <ele>222.6</ele>
        <time>2019-08-20T13:33:53Z</time>
      </trkpt>
      <trkpt lat="46.51453" lon="3.79653">
        <ele>222.6</ele>
        <time>2019-08-20T13:33:54Z</time>
      </trkpt>
      <trkpt lat="46.51455" lon="3.79648">
        <ele>222.5</ele>
        <time>2019-08-20T13:33:55Z</time>
      </trkpt>
      <trkpt lat="46.51456" lon="3.79644">
        <ele>222.5</ele>
        <time>2019-08-20T13:33:56Z</time>
      </trkpt>
      <trkpt lat="46.51458" lon="3.7964">
        <ele>222.4</ele>
        <time>2019-08-20T13:33:57Z</time>
      </trkpt>
      <trkpt lat="46.51461" lon="3.79636">
        <ele>222.4</ele>
        <time>2019-08-20T13:33:58Z</time>
      </trkpt>
      <trkpt lat="46.51463" lon="3.79632">
        <ele>222.3</ele>
        <time>2019-08-20T13:33:59Z</time>
      </trkpt>
      <trkpt lat="46.51466" lon="3.79628">
        <ele>222.3</ele>
        <time>2019-08-20T13:34:00Z</time>
      </trkpt>
      <trkpt lat="46.51468" lon="3.79624">
        <ele>222.2</ele>
        <time>2019-08-20T13:34:01Z</time>
      </trkpt>
      <trkpt lat="46.5147" lon="3.7962">
        <ele>222.2</ele>
        <time>2019-08-20T13:34:02Z</time>
      </trkpt>
      <trkpt lat="46.51473" lon="3.79616">
        <ele>222.1</ele>
        <time>2019-08-20T13:34:03Z</time>
      </trkpt>
      <trkpt lat="46.51476" lon="3.7961">
        <ele>222.1</ele>
        <time>2019-08-20T13:34:04Z</time>
      </trkpt>
      <trkpt lat="46.51478" lon="3.79604">
        <ele>222</ele>
        <time>2019-08-20T13:34:05Z</time>
      </trkpt>
      <trkpt lat="46.51481" lon="3.79598">
        <ele>222</ele>
        <time>2019-08-20T13:34:06Z</time>
      </trkpt>
      <trkpt lat="46.51483" lon="3.79591">
        <ele>222</ele>
        <time>2019-08-20T13:34:07Z</time>
      </trkpt>
      <trkpt lat="46.51486" lon="3.79583">
        <ele>221.9</ele>
        <time>2019-08-20T13:34:08Z</time>
      </trkpt>
      <trkpt lat="46.51489" lon="3.79575">
        <ele>221.9</ele>
        <time>2019-08-20T13:34:09Z</time>
      </trkpt>
      <trkpt lat="46.51493" lon="3.79568">
        <ele>221.8</ele>
        <time>2019-08-20T13:34:10Z</time>
      </trkpt>
      <trkpt lat="46.51496" lon="3.79561">
        <ele>221.7</ele>
        <time>2019-08-20T13:34:11Z</time>
      </trkpt>
      <trkpt lat="46.51499" lon="3.79554">
        <ele>221.6</ele>
        <time>2019-08-20T13:34:12Z</time>
      </trkpt>
      <trkpt lat="46.51502" lon="3.79549">
        <ele>221.6</ele>
        <time>2019-08-20T13:34:13Z</time>
      </trkpt>
      <trkpt lat="46.51504" lon="3.79542">
        <ele>221.5</ele>
        <time>2019-08-20T13:34:14Z</time>
      </trkpt>
      <trkpt lat="46.51507" lon="3.79537">
        <ele>221.5</ele>
        <time>2019-08-20T13:34:15Z</time>
      </trkpt>
      <trkpt lat="46.51508" lon="3.7953">
        <ele>221.4</ele>
        <time>2019-08-20T13:34:16Z</time>
      </trkpt>
      <trkpt lat="46.5151" lon="3.79523">
        <ele>221.3</ele>
        <time>2019-08-20T13:34:17Z</time>
      </trkpt>
      <trkpt lat="46.51513" lon="3.79518">
        <ele>221.3</ele>
        <time>2019-08-20T13:34:18Z</time>
      </trkpt>
      <trkpt lat="46.51516" lon="3.79512">
        <ele>221.3</ele>
        <time>2019-08-20T13:34:19Z</time>
      </trkpt>
      <trkpt lat="46.51518" lon="3.79506">
        <ele>221.3</ele>
        <time>2019-08-20T13:34:20Z</time>
      </trkpt>
      <trkpt lat="46.51521" lon="3.79499">
        <ele>221.3</ele>
        <time>2019-08-20T13:34:21Z</time>
      </trkpt>
      <trkpt lat="46.51524" lon="3.79494">
        <ele>221.3</ele>
        <time>2019-08-20T13:34:22Z</time>
      </trkpt>
      <trkpt lat="46.51524" lon="3.79489">
        <ele>221.3</ele>
        <time>2019-08-20T13:34:23Z</time>
      </trkpt>
      <trkpt lat="46.51526" lon="3.79483">
        <ele>221.3</ele>
        <time>2019-08-20T13:34:24Z</time>
      </trkpt>
      <trkpt lat="46.51528" lon="3.79478">
        <ele>221.3</ele>
        <time>2019-08-20T13:34:25Z</time>
      </trkpt>
      <trkpt lat="46.51531" lon="3.79472">
        <ele>221.3</ele>
        <time>2019-08-20T13:34:26Z</time>
      </trkpt>
      <trkpt lat="46.51533" lon="3.79466">
        <ele>221.2</ele>
        <time>2019-08-20T13:34:27Z</time>
      </trkpt>
      <trkpt lat="46.51535" lon="3.79461">
        <ele>221.2</ele>
        <time>2019-08-20T13:34:28Z</time>
      </trkpt>
      <trkpt lat="46.51537" lon="3.79455">
        <ele>221.2</ele>
        <time>2019-08-20T13:34:29Z</time>
      </trkpt>
      <trkpt lat="46.51539" lon="3.79449">
        <ele>221.1</ele>
        <time>2019-08-20T13:34:30Z</time>
      </trkpt>
      <trkpt lat="46.51541" lon="3.79443">
        <ele>221.1</ele>
        <time>2019-08-20T13:34:31Z</time>
      </trkpt>
      <trkpt lat="46.51544" lon="3.79438">
        <ele>221</ele>
        <time>2019-08-20T13:34:32Z</time>
      </trkpt>
      <trkpt lat="46.51546" lon="3.79431">
        <ele>221</ele>
        <time>2019-08-20T13:34:33Z</time>
      </trkpt>
      <trkpt lat="46.51546" lon="3.79425">
        <ele>221</ele>
        <time>2019-08-20T13:34:34Z</time>
      </trkpt>
      <trkpt lat="46.51549" lon="3.79421">
        <ele>220.9</ele>
        <time>2019-08-20T13:34:35Z</time>
      </trkpt>
      <trkpt lat="46.51553" lon="3.79415">
        <ele>220.9</ele>
        <time>2019-08-20T13:34:36Z</time>
      </trkpt>
      <trkpt lat="46.51556" lon="3.79409">
        <ele>220.9</ele>
        <time>2019-08-20T13:34:37Z</time>
      </trkpt>
      <trkpt lat="46.5156" lon="3.79404">
        <ele>220.9</ele>
        <time>2019-08-20T13:34:38Z</time>
      </trkpt>
      <trkpt lat="46.51561" lon="3.79398">
        <ele>220.9</ele>
        <time>2019-08-20T13:34:39Z</time>
      </trkpt>
      <trkpt lat="46.51563" lon="3.79392">
        <ele>220.9</ele>
        <time>2019-08-20T13:34:40Z</time>
      </trkpt>
      <trkpt lat="46.51565" lon="3.79386">
        <ele>220.9</ele>
        <time>2019-08-20T13:34:41Z</time>
      </trkpt>
      <trkpt lat="46.51567" lon="3.7938">
        <ele>220.9</ele>
        <time>2019-08-20T13:34:42Z</time>
      </trkpt>
      <trkpt lat="46.51569" lon="3.79374">
        <ele>220.9</ele>
        <time>2019-08-20T13:34:43Z</time>
      </trkpt>
      <trkpt lat="46.51572" lon="3.79368">
        <ele>220.9</ele>
        <time>2019-08-20T13:34:44Z</time>
      </trkpt>
      <trkpt lat="46.51573" lon="3.79364">
        <ele>220.9</ele>
        <time>2019-08-20T13:34:45Z</time>
      </trkpt>
      <trkpt lat="46.51575" lon="3.79358">
        <ele>220.9</ele>
        <time>2019-08-20T13:34:46Z</time>
      </trkpt>
      <trkpt lat="46.51577" lon="3.79352">
        <ele>220.9</ele>
        <time>2019-08-20T13:34:47Z</time>
      </trkpt>
      <trkpt lat="46.5158" lon="3.79346">
        <ele>220.9</ele>
        <time>2019-08-20T13:34:48Z</time>
      </trkpt>
      <trkpt lat="46.51582" lon="3.79341">
        <ele>220.9</ele>
        <time>2019-08-20T13:34:49Z</time>
      </trkpt>
      <trkpt lat="46.51586" lon="3.79336">
        <ele>220.9</ele>
        <time>2019-08-20T13:34:50Z</time>
      </trkpt>
      <trkpt lat="46.51588" lon="3.79331">
        <ele>220.8</ele>
        <time>2019-08-20T13:34:51Z</time>
      </trkpt>
      <trkpt lat="46.5159" lon="3.79325">
        <ele>220.8</ele>
        <time>2019-08-20T13:34:52Z</time>
      </trkpt>
      <trkpt lat="46.51593" lon="3.7932">
        <ele>220.8</ele>
        <time>2019-08-20T13:34:53Z</time>
      </trkpt>
      <trkpt lat="46.51595" lon="3.79314">
        <ele>220.8</ele>
        <time>2019-08-20T13:34:54Z</time>
      </trkpt>
      <trkpt lat="46.51597" lon="3.79309">
        <ele>220.8</ele>
        <time>2019-08-20T13:34:55Z</time>
      </trkpt>
      <trkpt lat="46.51599" lon="3.79304">
        <ele>220.8</ele>
        <time>2019-08-20T13:34:56Z</time>
      </trkpt>
      <trkpt lat="46.516" lon="3.793">
        <ele>220.8</ele>
        <time>2019-08-20T13:34:57Z</time>
      </trkpt>
      <trkpt lat="46.51603" lon="3.79295">
        <ele>220.7</ele>
        <time>2019-08-20T13:34:58Z</time>
      </trkpt>
      <trkpt lat="46.51605" lon="3.79289">
        <ele>220.7</ele>
        <time>2019-08-20T13:34:59Z</time>
      </trkpt>
      <trkpt lat="46.51608" lon="3.79283">
        <ele>220.8</ele>
        <time>2019-08-20T13:35:00Z</time>
      </trkpt>
      <trkpt lat="46.51609" lon="3.79278">
        <ele>220.8</ele>
        <time>2019-08-20T13:35:01Z</time>
      </trkpt>
      <trkpt lat="46.51613" lon="3.79272">
        <ele>220.8</ele>
        <time>2019-08-20T13:35:02Z</time>
      </trkpt>
      <trkpt lat="46.51616" lon="3.79266">
        <ele>220.9</ele>
        <time>2019-08-20T13:35:03Z</time>
      </trkpt>
      <trkpt lat="46.51618" lon="3.79262">
        <ele>220.9</ele>
        <time>2019-08-20T13:35:04Z</time>
      </trkpt>
      <trkpt lat="46.5162" lon="3.79254">
        <ele>220.9</ele>
        <time>2019-08-20T13:35:05Z</time>
      </trkpt>
      <trkpt lat="46.51622" lon="3.79248">
        <ele>221</ele>
        <time>2019-08-20T13:35:06Z</time>
      </trkpt>
      <trkpt lat="46.51624" lon="3.79242">
        <ele>221</ele>
        <time>2019-08-20T13:35:07Z</time>
      </trkpt>
      <trkpt lat="46.51626" lon="3.79236">
        <ele>221</ele>
        <time>2019-08-20T13:35:08Z</time>
      </trkpt>
      <trkpt lat="46.51628" lon="3.79231">
        <ele>221.1</ele>
        <time>2019-08-20T13:35:09Z</time>
      </trkpt>
      <trkpt lat="46.5163" lon="3.79225">
        <ele>221.1</ele>
        <time>2019-08-20T13:35:10Z</time>
      </trkpt>
      <trkpt lat="46.51633" lon="3.7922">
        <ele>221.1</ele>
        <time>2019-08-20T13:35:11Z</time>
      </trkpt>
      <trkpt lat="46.51635" lon="3.79214">
        <ele>221.1</ele>
        <time>2019-08-20T13:35:12Z</time>
      </trkpt>
      <trkpt lat="46.51637" lon="3.79208">
        <ele>221.1</ele>
        <time>2019-08-20T13:35:13Z</time>
      </trkpt>
      <trkpt lat="46.51639" lon="3.79202">
        <ele>221.1</ele>
        <time>2019-08-20T13:35:14Z</time>
      </trkpt>
      <trkpt lat="46.51643" lon="3.79198">
        <ele>221.1</ele>
        <time>2019-08-20T13:35:15Z</time>
      </trkpt>
      <trkpt lat="46.51645" lon="3.79192">
        <ele>221.1</ele>
        <time>2019-08-20T13:35:16Z</time>
      </trkpt>
      <trkpt lat="46.51648" lon="3.79186">
        <ele>221.1</ele>
        <time>2019-08-20T13:35:17Z</time>
      </trkpt>
      <trkpt lat="46.5165" lon="3.7918">
        <ele>221.1</ele>
        <time>2019-08-20T13:35:18Z</time>
      </trkpt>
      <trkpt lat="46.51652" lon="3.79173">
        <ele>221.1</ele>
        <time>2019-08-20T13:35:19Z</time>
      </trkpt>
      <trkpt lat="46.51654" lon="3.79169">
        <ele>221.1</ele>
        <time>2019-08-20T13:35:20Z</time>
      </trkpt>
      <trkpt lat="46.51656" lon="3.79164">
        <ele>221.1</ele>
        <time>2019-08-20T13:35:21Z</time>
      </trkpt>
      <trkpt lat="46.51658" lon="3.79158">
        <ele>221.1</ele>
        <time>2019-08-20T13:35:22Z</time>
      </trkpt>
      <trkpt lat="46.51661" lon="3.79152">
        <ele>221.2</ele>
        <time>2019-08-20T13:35:23Z</time>
      </trkpt>
      <trkpt lat="46.51663" lon="3.79147">
        <ele>221.2</ele>
        <time>2019-08-20T13:35:24Z</time>
      </trkpt>
      <trkpt lat="46.51665" lon="3.79141">
        <ele>221.2</ele>
        <time>2019-08-20T13:35:25Z</time>
      </trkpt>
      <trkpt lat="46.51668" lon="3.79136">
        <ele>221.2</ele>
        <time>2019-08-20T13:35:26Z</time>
      </trkpt>
      <trkpt lat="46.5167" lon="3.7913">
        <ele>221.2</ele>
        <time>2019-08-20T13:35:27Z</time>
      </trkpt>
      <trkpt lat="46.51671" lon="3.79124">
        <ele>221.2</ele>
        <time>2019-08-20T13:35:28Z</time>
      </trkpt>
      <trkpt lat="46.51673" lon="3.79118">
        <ele>221.3</ele>
        <time>2019-08-20T13:35:29Z</time>
      </trkpt>
      <trkpt lat="46.51675" lon="3.79112">
        <ele>221.3</ele>
        <time>2019-08-20T13:35:30Z</time>
      </trkpt>
      <trkpt lat="46.51677" lon="3.79107">
        <ele>221.3</ele>
        <time>2019-08-20T13:35:31Z</time>
      </trkpt>
      <trkpt lat="46.51679" lon="3.79103">
        <ele>221.3</ele>
        <time>2019-08-20T13:35:32Z</time>
      </trkpt>
      <trkpt lat="46.51681" lon="3.79097">
        <ele>221.3</ele>
        <time>2019-08-20T13:35:33Z</time>
      </trkpt>
      <trkpt lat="46.51682" lon="3.79091">
        <ele>221.3</ele>
        <time>2019-08-20T13:35:34Z</time>
      </trkpt>
      <trkpt lat="46.51685" lon="3.79087">
        <ele>221.3</ele>
        <time>2019-08-20T13:35:35Z</time>
      </trkpt>
      <trkpt lat="46.51687" lon="3.79082">
        <ele>221.2</ele>
        <time>2019-08-20T13:35:36Z</time>
      </trkpt>
      <trkpt lat="46.51688" lon="3.79078">
        <ele>221.2</ele>
        <time>2019-08-20T13:35:37Z</time>
      </trkpt>
      <trkpt lat="46.51691" lon="3.79072">
        <ele>221.2</ele>
        <time>2019-08-20T13:35:38Z</time>
      </trkpt>
      <trkpt lat="46.51694" lon="3.79064">
        <ele>221.2</ele>
        <time>2019-08-20T13:35:39Z</time>
      </trkpt>
      <trkpt lat="46.51696" lon="3.79058">
        <ele>221.2</ele>
        <time>2019-08-20T13:35:40Z</time>
      </trkpt>
      <trkpt lat="46.51699" lon="3.79052">
        <ele>221.1</ele>
        <time>2019-08-20T13:35:41Z</time>
      </trkpt>
      <trkpt lat="46.51703" lon="3.79045">
        <ele>221.1</ele>
        <time>2019-08-20T13:35:42Z</time>
      </trkpt>
      <trkpt lat="46.51706" lon="3.7904">
        <ele>221.1</ele>
        <time>2019-08-20T13:35:43Z</time>
      </trkpt>
      <trkpt lat="46.51709" lon="3.79035">
        <ele>221.1</ele>
        <time>2019-08-20T13:35:44Z</time>
      </trkpt>
      <trkpt lat="46.51713" lon="3.7903">
        <ele>221.1</ele>
        <time>2019-08-20T13:35:45Z</time>
      </trkpt>
      <trkpt lat="46.51717" lon="3.79024">
        <ele>221.4</ele>
        <time>2019-08-20T13:35:46Z</time>
      </trkpt>
      <trkpt lat="46.5172" lon="3.79018">
        <ele>221.5</ele>
        <time>2019-08-20T13:35:47Z</time>
      </trkpt>
      <trkpt lat="46.51723" lon="3.79012">
        <ele>221.6</ele>
        <time>2019-08-20T13:35:48Z</time>
      </trkpt>
      <trkpt lat="46.51726" lon="3.79006">
        <ele>221.8</ele>
        <time>2019-08-20T13:35:49Z</time>
      </trkpt>
      <trkpt lat="46.51728" lon="3.79">
        <ele>221.9</ele>
        <time>2019-08-20T13:35:50Z</time>
      </trkpt>
      <trkpt lat="46.5173" lon="3.78995">
        <ele>221.9</ele>
        <time>2019-08-20T13:35:51Z</time>
      </trkpt>
      <trkpt lat="46.51732" lon="3.7899">
        <ele>222</ele>
        <time>2019-08-20T13:35:52Z</time>
      </trkpt>
      <trkpt lat="46.51733" lon="3.78985">
        <ele>222.1</ele>
        <time>2019-08-20T13:35:53Z</time>
      </trkpt>
      <trkpt lat="46.51734" lon="3.78979">
        <ele>222.2</ele>
        <time>2019-08-20T13:35:54Z</time>
      </trkpt>
      <trkpt lat="46.51734" lon="3.78974">
        <ele>222.4</ele>
        <time>2019-08-20T13:35:56Z</time>
      </trkpt>
      <trkpt lat="46.51737" lon="3.78971">
        <ele>222.5</ele>
        <time>2019-08-20T13:35:58Z</time>
      </trkpt>
      <trkpt lat="46.5174" lon="3.78967">
        <ele>222.6</ele>
        <time>2019-08-20T13:36:00Z</time>
      </trkpt>
      <trkpt lat="46.51742" lon="3.78963">
        <ele>222.7</ele>
        <time>2019-08-20T13:36:01Z</time>
      </trkpt>
      <trkpt lat="46.51743" lon="3.78958">
        <ele>222.8</ele>
        <time>2019-08-20T13:36:02Z</time>
      </trkpt>
      <trkpt lat="46.51745" lon="3.78952">
        <ele>222.9</ele>
        <time>2019-08-20T13:36:03Z</time>
      </trkpt>
      <trkpt lat="46.51747" lon="3.78946">
        <ele>223.1</ele>
        <time>2019-08-20T13:36:04Z</time>
      </trkpt>
      <trkpt lat="46.51748" lon="3.78939">
        <ele>223.2</ele>
        <time>2019-08-20T13:36:05Z</time>
      </trkpt>
      <trkpt lat="46.5175" lon="3.78932">
        <ele>223.3</ele>
        <time>2019-08-20T13:36:06Z</time>
      </trkpt>
      <trkpt lat="46.51752" lon="3.78924">
        <ele>223.3</ele>
        <time>2019-08-20T13:36:07Z</time>
      </trkpt>
      <trkpt lat="46.51755" lon="3.78917">
        <ele>222.9</ele>
        <time>2019-08-20T13:36:08Z</time>
      </trkpt>
      <trkpt lat="46.51757" lon="3.78909">
        <ele>222.6</ele>
        <time>2019-08-20T13:36:09Z</time>
      </trkpt>
      <trkpt lat="46.51758" lon="3.78902">
        <ele>222.3</ele>
        <time>2019-08-20T13:36:10Z</time>
      </trkpt>
      <trkpt lat="46.5176" lon="3.78895">
        <ele>222</ele>
        <time>2019-08-20T13:36:11Z</time>
      </trkpt>
      <trkpt lat="46.51764" lon="3.78887">
        <ele>221.8</ele>
        <time>2019-08-20T13:36:12Z</time>
      </trkpt>
      <trkpt lat="46.51767" lon="3.7888">
        <ele>221.6</ele>
        <time>2019-08-20T13:36:13Z</time>
      </trkpt>
      <trkpt lat="46.5177" lon="3.78873">
        <ele>221.6</ele>
        <time>2019-08-20T13:36:14Z</time>
      </trkpt>
      <trkpt lat="46.51772" lon="3.78866">
        <ele>221.5</ele>
        <time>2019-08-20T13:36:15Z</time>
      </trkpt>
      <trkpt lat="46.51774" lon="3.7886">
        <ele>221.5</ele>
        <time>2019-08-20T13:36:16Z</time>
      </trkpt>
      <trkpt lat="46.51776" lon="3.78853">
        <ele>221.5</ele>
        <time>2019-08-20T13:36:17Z</time>
      </trkpt>
      <trkpt lat="46.51779" lon="3.78846">
        <ele>221.5</ele>
        <time>2019-08-20T13:36:18Z</time>
      </trkpt>
      <trkpt lat="46.51782" lon="3.78839">
        <ele>221.4</ele>
        <time>2019-08-20T13:36:19Z</time>
      </trkpt>
      <trkpt lat="46.51784" lon="3.78833">
        <ele>221.4</ele>
        <time>2019-08-20T13:36:20Z</time>
      </trkpt>
      <trkpt lat="46.51786" lon="3.78826">
        <ele>221.4</ele>
        <time>2019-08-20T13:36:21Z</time>
      </trkpt>
      <trkpt lat="46.51787" lon="3.7882">
        <ele>221.3</ele>
        <time>2019-08-20T13:36:22Z</time>
      </trkpt>
      <trkpt lat="46.51789" lon="3.78814">
        <ele>221.2</ele>
        <time>2019-08-20T13:36:23Z</time>
      </trkpt>
      <trkpt lat="46.51791" lon="3.78809">
        <ele>221.2</ele>
        <time>2019-08-20T13:36:24Z</time>
      </trkpt>
      <trkpt lat="46.51793" lon="3.78801">
        <ele>221</ele>
        <time>2019-08-20T13:36:25Z</time>
      </trkpt>
      <trkpt lat="46.51795" lon="3.78795">
        <ele>220.9</ele>
        <time>2019-08-20T13:36:26Z</time>
      </trkpt>
      <trkpt lat="46.51796" lon="3.78791">
        <ele>220.9</ele>
        <time>2019-08-20T13:36:27Z</time>
      </trkpt>
      <trkpt lat="46.51798" lon="3.78785">
        <ele>220.8</ele>
        <time>2019-08-20T13:36:28Z</time>
      </trkpt>
      <trkpt lat="46.51801" lon="3.78779">
        <ele>220.7</ele>
        <time>2019-08-20T13:36:29Z</time>
      </trkpt>
      <trkpt lat="46.51803" lon="3.78774">
        <ele>220.6</ele>
        <time>2019-08-20T13:36:30Z</time>
      </trkpt>
      <trkpt lat="46.51805" lon="3.78768">
        <ele>220.6</ele>
        <time>2019-08-20T13:36:31Z</time>
      </trkpt>
      <trkpt lat="46.51807" lon="3.78763">
        <ele>220.6</ele>
        <time>2019-08-20T13:36:32Z</time>
      </trkpt>
      <trkpt lat="46.51809" lon="3.78759">
        <ele>220.6</ele>
        <time>2019-08-20T13:36:33Z</time>
      </trkpt>
      <trkpt lat="46.5181" lon="3.78754">
        <ele>220.6</ele>
        <time>2019-08-20T13:36:34Z</time>
      </trkpt>
      <trkpt lat="46.51812" lon="3.78748">
        <ele>220.6</ele>
        <time>2019-08-20T13:36:35Z</time>
      </trkpt>
      <trkpt lat="46.51814" lon="3.78742">
        <ele>220.6</ele>
        <time>2019-08-20T13:36:36Z</time>
      </trkpt>
      <trkpt lat="46.51816" lon="3.78735">
        <ele>220.6</ele>
        <time>2019-08-20T13:36:37Z</time>
      </trkpt>
      <trkpt lat="46.51819" lon="3.78729">
        <ele>220.6</ele>
        <time>2019-08-20T13:36:38Z</time>
      </trkpt>
      <trkpt lat="46.51821" lon="3.78725">
        <ele>220.6</ele>
        <time>2019-08-20T13:36:39Z</time>
      </trkpt>
      <trkpt lat="46.51823" lon="3.78719">
        <ele>220.7</ele>
        <time>2019-08-20T13:36:40Z</time>
      </trkpt>
      <trkpt lat="46.51826" lon="3.78714">
        <ele>220.7</ele>
        <time>2019-08-20T13:36:41Z</time>
      </trkpt>
      <trkpt lat="46.51828" lon="3.78707">
        <ele>220.8</ele>
        <time>2019-08-20T13:36:42Z</time>
      </trkpt>
      <trkpt lat="46.51829" lon="3.78701">
        <ele>220.8</ele>
        <time>2019-08-20T13:36:43Z</time>
      </trkpt>
      <trkpt lat="46.51831" lon="3.78696">
        <ele>220.9</ele>
        <time>2019-08-20T13:36:44Z</time>
      </trkpt>
      <trkpt lat="46.51833" lon="3.78692">
        <ele>221</ele>
        <time>2019-08-20T13:36:45Z</time>
      </trkpt>
      <trkpt lat="46.51836" lon="3.78687">
        <ele>221.1</ele>
        <time>2019-08-20T13:36:46Z</time>
      </trkpt>
      <trkpt lat="46.51838" lon="3.7868">
        <ele>221.2</ele>
        <time>2019-08-20T13:36:47Z</time>
      </trkpt>
      <trkpt lat="46.51841" lon="3.78673">
        <ele>221.4</ele>
        <time>2019-08-20T13:36:48Z</time>
      </trkpt>
      <trkpt lat="46.51844" lon="3.78666">
        <ele>221.4</ele>
        <time>2019-08-20T13:36:49Z</time>
      </trkpt>
      <trkpt lat="46.51846" lon="3.78659">
        <ele>221.5</ele>
        <time>2019-08-20T13:36:50Z</time>
      </trkpt>
      <trkpt lat="46.51848" lon="3.78653">
        <ele>221.5</ele>
        <time>2019-08-20T13:36:51Z</time>
      </trkpt>
      <trkpt lat="46.5185" lon="3.78646">
        <ele>221.6</ele>
        <time>2019-08-20T13:36:52Z</time>
      </trkpt>
      <trkpt lat="46.51853" lon="3.7864">
        <ele>221.6</ele>
        <time>2019-08-20T13:36:53Z</time>
      </trkpt>
      <trkpt lat="46.51856" lon="3.78635">
        <ele>221.6</ele>
        <time>2019-08-20T13:36:54Z</time>
      </trkpt>
      <trkpt lat="46.51857" lon="3.7863">
        <ele>221.6</ele>
        <time>2019-08-20T13:36:55Z</time>
      </trkpt>
      <trkpt lat="46.51858" lon="3.78623">
        <ele>221.6</ele>
        <time>2019-08-20T13:36:56Z</time>
      </trkpt>
      <trkpt lat="46.5186" lon="3.78617">
        <ele>221.6</ele>
        <time>2019-08-20T13:36:57Z</time>
      </trkpt>
      <trkpt lat="46.51863" lon="3.78612">
        <ele>221.5</ele>
        <time>2019-08-20T13:36:58Z</time>
      </trkpt>
      <trkpt lat="46.51865" lon="3.78605">
        <ele>221.5</ele>
        <time>2019-08-20T13:36:59Z</time>
      </trkpt>
      <trkpt lat="46.51867" lon="3.786">
        <ele>221.5</ele>
        <time>2019-08-20T13:37:00Z</time>
      </trkpt>
      <trkpt lat="46.51869" lon="3.78594">
        <ele>221.4</ele>
        <time>2019-08-20T13:37:01Z</time>
      </trkpt>
      <trkpt lat="46.51871" lon="3.78588">
        <ele>221.4</ele>
        <time>2019-08-20T13:37:02Z</time>
      </trkpt>
      <trkpt lat="46.51873" lon="3.78582">
        <ele>221.3</ele>
        <time>2019-08-20T13:37:03Z</time>
      </trkpt>
      <trkpt lat="46.51875" lon="3.78575">
        <ele>221.2</ele>
        <time>2019-08-20T13:37:04Z</time>
      </trkpt>
      <trkpt lat="46.51878" lon="3.78568">
        <ele>221.1</ele>
        <time>2019-08-20T13:37:05Z</time>
      </trkpt>
      <trkpt lat="46.51879" lon="3.78561">
        <ele>221</ele>
        <time>2019-08-20T13:37:06Z</time>
      </trkpt>
      <trkpt lat="46.51882" lon="3.78555">
        <ele>220.9</ele>
        <time>2019-08-20T13:37:07Z</time>
      </trkpt>
      <trkpt lat="46.51884" lon="3.78547">
        <ele>220.8</ele>
        <time>2019-08-20T13:37:08Z</time>
      </trkpt>
      <trkpt lat="46.51886" lon="3.78541">
        <ele>220.8</ele>
        <time>2019-08-20T13:37:09Z</time>
      </trkpt>
      <trkpt lat="46.51889" lon="3.78536">
        <ele>220.7</ele>
        <time>2019-08-20T13:37:10Z</time>
      </trkpt>
      <trkpt lat="46.51891" lon="3.7853">
        <ele>220.7</ele>
        <time>2019-08-20T13:37:11Z</time>
      </trkpt>
      <trkpt lat="46.51893" lon="3.78523">
        <ele>220.7</ele>
        <time>2019-08-20T13:37:12Z</time>
      </trkpt>
      <trkpt lat="46.51895" lon="3.78516">
        <ele>220.7</ele>
        <time>2019-08-20T13:37:13Z</time>
      </trkpt>
      <trkpt lat="46.51898" lon="3.7851">
        <ele>220.7</ele>
        <time>2019-08-20T13:37:14Z</time>
      </trkpt>
      <trkpt lat="46.519" lon="3.78503">
        <ele>220.7</ele>
        <time>2019-08-20T13:37:15Z</time>
      </trkpt>
      <trkpt lat="46.51902" lon="3.78497">
        <ele>220.7</ele>
        <time>2019-08-20T13:37:16Z</time>
      </trkpt>
      <trkpt lat="46.51905" lon="3.78491">
        <ele>220.7</ele>
        <time>2019-08-20T13:37:17Z</time>
      </trkpt>
      <trkpt lat="46.51907" lon="3.78485">
        <ele>220.7</ele>
        <time>2019-08-20T13:37:18Z</time>
      </trkpt>
      <trkpt lat="46.51909" lon="3.78479">
        <ele>220.7</ele>
        <time>2019-08-20T13:37:19Z</time>
      </trkpt>
      <trkpt lat="46.5191" lon="3.78474">
        <ele>220.7</ele>
        <time>2019-08-20T13:37:20Z</time>
      </trkpt>
      <trkpt lat="46.51913" lon="3.78468">
        <ele>220.7</ele>
        <time>2019-08-20T13:37:21Z</time>
      </trkpt>
      <trkpt lat="46.51915" lon="3.78461">
        <ele>220.7</ele>
        <time>2019-08-20T13:37:22Z</time>
      </trkpt>
      <trkpt lat="46.51918" lon="3.78454">
        <ele>220.7</ele>
        <time>2019-08-20T13:37:23Z</time>
      </trkpt>
      <trkpt lat="46.5192" lon="3.78446">
        <ele>220.7</ele>
        <time>2019-08-20T13:37:24Z</time>
      </trkpt>
      <trkpt lat="46.51923" lon="3.78439">
        <ele>220.7</ele>
        <time>2019-08-20T13:37:25Z</time>
      </trkpt>
      <trkpt lat="46.51925" lon="3.78433">
        <ele>220.7</ele>
        <time>2019-08-20T13:37:26Z</time>
      </trkpt>
      <trkpt lat="46.51928" lon="3.78427">
        <ele>220.7</ele>
        <time>2019-08-20T13:37:27Z</time>
      </trkpt>
      <trkpt lat="46.5193" lon="3.78421">
        <ele>220.7</ele>
        <time>2019-08-20T13:37:28Z</time>
      </trkpt>
      <trkpt lat="46.51933" lon="3.78414">
        <ele>220.7</ele>
        <time>2019-08-20T13:37:29Z</time>
      </trkpt>
      <trkpt lat="46.51936" lon="3.78407">
        <ele>220.7</ele>
        <time>2019-08-20T13:37:30Z</time>
      </trkpt>
      <trkpt lat="46.51938" lon="3.78401">
        <ele>220.7</ele>
        <time>2019-08-20T13:37:31Z</time>
      </trkpt>
      <trkpt lat="46.5194" lon="3.78394">
        <ele>220.7</ele>
        <time>2019-08-20T13:37:32Z</time>
      </trkpt>
      <trkpt lat="46.51942" lon="3.78387">
        <ele>220.7</ele>
        <time>2019-08-20T13:37:33Z</time>
      </trkpt>
      <trkpt lat="46.51944" lon="3.78381">
        <ele>220.7</ele>
        <time>2019-08-20T13:37:34Z</time>
      </trkpt>
      <trkpt lat="46.51946" lon="3.78374">
        <ele>220.7</ele>
        <time>2019-08-20T13:37:35Z</time>
      </trkpt>
      <trkpt lat="46.51948" lon="3.78368">
        <ele>220.7</ele>
        <time>2019-08-20T13:37:36Z</time>
      </trkpt>
      <trkpt lat="46.5195" lon="3.78362">
        <ele>220.8</ele>
        <time>2019-08-20T13:37:37Z</time>
      </trkpt>
      <trkpt lat="46.51952" lon="3.78357">
        <ele>220.8</ele>
        <time>2019-08-20T13:37:38Z</time>
      </trkpt>
      <trkpt lat="46.51954" lon="3.7835">
        <ele>220.8</ele>
        <time>2019-08-20T13:37:39Z</time>
      </trkpt>
      <trkpt lat="46.51956" lon="3.78345">
        <ele>220.9</ele>
        <time>2019-08-20T13:37:40Z</time>
      </trkpt>
      <trkpt lat="46.51959" lon="3.78339">
        <ele>221</ele>
        <time>2019-08-20T13:37:41Z</time>
      </trkpt>
      <trkpt lat="46.51961" lon="3.78332">
        <ele>221.1</ele>
        <time>2019-08-20T13:37:42Z</time>
      </trkpt>
      <trkpt lat="46.51964" lon="3.78325">
        <ele>221.2</ele>
        <time>2019-08-20T13:37:43Z</time>
      </trkpt>
      <trkpt lat="46.51967" lon="3.78319">
        <ele>221.3</ele>
        <time>2019-08-20T13:37:44Z</time>
      </trkpt>
      <trkpt lat="46.5197" lon="3.78313">
        <ele>221.4</ele>
        <time>2019-08-20T13:37:45Z</time>
      </trkpt>
      <trkpt lat="46.51972" lon="3.78307">
        <ele>221.5</ele>
        <time>2019-08-20T13:37:46Z</time>
      </trkpt>
      <trkpt lat="46.51974" lon="3.78299">
        <ele>221.6</ele>
        <time>2019-08-20T13:37:47Z</time>
      </trkpt>
      <trkpt lat="46.51976" lon="3.78293">
        <ele>221.7</ele>
        <time>2019-08-20T13:37:48Z</time>
      </trkpt>
      <trkpt lat="46.51979" lon="3.78286">
        <ele>221.7</ele>
        <time>2019-08-20T13:37:49Z</time>
      </trkpt>
      <trkpt lat="46.5198" lon="3.7828">
        <ele>221.7</ele>
        <time>2019-08-20T13:37:50Z</time>
      </trkpt>
      <trkpt lat="46.51983" lon="3.78274">
        <ele>221.7</ele>
        <time>2019-08-20T13:37:51Z</time>
      </trkpt>
      <trkpt lat="46.51986" lon="3.78267">
        <ele>221.8</ele>
        <time>2019-08-20T13:37:52Z</time>
      </trkpt>
      <trkpt lat="46.51988" lon="3.78261">
        <ele>221.8</ele>
        <time>2019-08-20T13:37:53Z</time>
      </trkpt>
      <trkpt lat="46.51991" lon="3.78255">
        <ele>221.8</ele>
        <time>2019-08-20T13:37:54Z</time>
      </trkpt>
      <trkpt lat="46.51993" lon="3.78249">
        <ele>221.8</ele>
        <time>2019-08-20T13:37:55Z</time>
      </trkpt>
      <trkpt lat="46.51995" lon="3.78242">
        <ele>221.8</ele>
        <time>2019-08-20T13:37:56Z</time>
      </trkpt>
      <trkpt lat="46.51997" lon="3.78237">
        <ele>221.8</ele>
        <time>2019-08-20T13:37:57Z</time>
      </trkpt>
      <trkpt lat="46.51999" lon="3.78232">
        <ele>221.8</ele>
        <time>2019-08-20T13:37:58Z</time>
      </trkpt>
      <trkpt lat="46.52002" lon="3.78226">
        <ele>221.8</ele>
        <time>2019-08-20T13:37:59Z</time>
      </trkpt>
      <trkpt lat="46.52003" lon="3.78219">
        <ele>221.8</ele>
        <time>2019-08-20T13:38:00Z</time>
      </trkpt>
      <trkpt lat="46.52006" lon="3.78212">
        <ele>221.8</ele>
        <time>2019-08-20T13:38:01Z</time>
      </trkpt>
      <trkpt lat="46.52008" lon="3.78205">
        <ele>221.8</ele>
        <time>2019-08-20T13:38:02Z</time>
      </trkpt>
      <trkpt lat="46.5201" lon="3.78198">
        <ele>221.8</ele>
        <time>2019-08-20T13:38:03Z</time>
      </trkpt>
      <trkpt lat="46.52011" lon="3.78192">
        <ele>221.8</ele>
        <time>2019-08-20T13:38:04Z</time>
      </trkpt>
      <trkpt lat="46.52014" lon="3.78186">
        <ele>221.8</ele>
        <time>2019-08-20T13:38:05Z</time>
      </trkpt>
      <trkpt lat="46.52016" lon="3.7818">
        <ele>221.8</ele>
        <time>2019-08-20T13:38:06Z</time>
      </trkpt>
      <trkpt lat="46.52019" lon="3.78174">
        <ele>221.8</ele>
        <time>2019-08-20T13:38:07Z</time>
      </trkpt>
      <trkpt lat="46.52021" lon="3.78169">
        <ele>221.8</ele>
        <time>2019-08-20T13:38:08Z</time>
      </trkpt>
      <trkpt lat="46.52024" lon="3.78163">
        <ele>221.8</ele>
        <time>2019-08-20T13:38:09Z</time>
      </trkpt>
      <trkpt lat="46.52027" lon="3.78158">
        <ele>221.8</ele>
        <time>2019-08-20T13:38:10Z</time>
      </trkpt>
      <trkpt lat="46.5203" lon="3.78151">
        <ele>221.8</ele>
        <time>2019-08-20T13:38:11Z</time>
      </trkpt>
      <trkpt lat="46.52033" lon="3.78145">
        <ele>221.8</ele>
        <time>2019-08-20T13:38:12Z</time>
      </trkpt>
      <trkpt lat="46.52036" lon="3.78139">
        <ele>221.8</ele>
        <time>2019-08-20T13:38:13Z</time>
      </trkpt>
      <trkpt lat="46.52038" lon="3.78133">
        <ele>221.8</ele>
        <time>2019-08-20T13:38:14Z</time>
      </trkpt>
      <trkpt lat="46.52041" lon="3.78127">
        <ele>221.8</ele>
        <time>2019-08-20T13:38:15Z</time>
      </trkpt>
      <trkpt lat="46.52044" lon="3.78123">
        <ele>221.8</ele>
        <time>2019-08-20T13:38:16Z</time>
      </trkpt>
      <trkpt lat="46.52046" lon="3.7812">
        <ele>221.8</ele>
        <time>2019-08-20T13:38:17Z</time>
      </trkpt>
      <trkpt lat="46.52049" lon="3.78116">
        <ele>221.8</ele>
        <time>2019-08-20T13:38:18Z</time>
      </trkpt>
      <trkpt lat="46.52053" lon="3.78111">
        <ele>221.8</ele>
        <time>2019-08-20T13:38:19Z</time>
      </trkpt>
      <trkpt lat="46.52056" lon="3.78106">
        <ele>221.8</ele>
        <time>2019-08-20T13:38:20Z</time>
      </trkpt>
      <trkpt lat="46.52059" lon="3.78099">
        <ele>221.8</ele>
        <time>2019-08-20T13:38:21Z</time>
      </trkpt>
      <trkpt lat="46.52062" lon="3.78093">
        <ele>221.8</ele>
        <time>2019-08-20T13:38:22Z</time>
      </trkpt>
      <trkpt lat="46.52065" lon="3.78087">
        <ele>221.8</ele>
        <time>2019-08-20T13:38:23Z</time>
      </trkpt>
      <trkpt lat="46.52067" lon="3.78082">
        <ele>221.8</ele>
        <time>2019-08-20T13:38:24Z</time>
      </trkpt>
      <trkpt lat="46.52071" lon="3.78076">
        <ele>221.8</ele>
        <time>2019-08-20T13:38:25Z</time>
      </trkpt>
      <trkpt lat="46.52073" lon="3.78071">
        <ele>221.7</ele>
        <time>2019-08-20T13:38:26Z</time>
      </trkpt>
      <trkpt lat="46.52076" lon="3.78065">
        <ele>221.6</ele>
        <time>2019-08-20T13:38:27Z</time>
      </trkpt>
      <trkpt lat="46.52079" lon="3.78059">
        <ele>221.4</ele>
        <time>2019-08-20T13:38:28Z</time>
      </trkpt>
      <trkpt lat="46.52082" lon="3.78053">
        <ele>221.2</ele>
        <time>2019-08-20T13:38:29Z</time>
      </trkpt>
      <trkpt lat="46.52086" lon="3.78046">
        <ele>220.9</ele>
        <time>2019-08-20T13:38:30Z</time>
      </trkpt>
      <trkpt lat="46.5209" lon="3.78041">
        <ele>220.7</ele>
        <time>2019-08-20T13:38:31Z</time>
      </trkpt>
      <trkpt lat="46.52093" lon="3.78036">
        <ele>220.5</ele>
        <time>2019-08-20T13:38:32Z</time>
      </trkpt>
      <trkpt lat="46.52096" lon="3.78031">
        <ele>220.3</ele>
        <time>2019-08-20T13:38:33Z</time>
      </trkpt>
      <trkpt lat="46.52099" lon="3.78025">
        <ele>220.1</ele>
        <time>2019-08-20T13:38:34Z</time>
      </trkpt>
      <trkpt lat="46.52103" lon="3.7802">
        <ele>220</ele>
        <time>2019-08-20T13:38:35Z</time>
      </trkpt>
      <trkpt lat="46.52107" lon="3.78016">
        <ele>220</ele>
        <time>2019-08-20T13:38:36Z</time>
      </trkpt>
      <trkpt lat="46.52111" lon="3.78011">
        <ele>219.9</ele>
        <time>2019-08-20T13:38:37Z</time>
      </trkpt>
      <trkpt lat="46.52114" lon="3.78007">
        <ele>219.9</ele>
        <time>2019-08-20T13:38:38Z</time>
      </trkpt>
      <trkpt lat="46.52118" lon="3.78001">
        <ele>219.8</ele>
        <time>2019-08-20T13:38:39Z</time>
      </trkpt>
      <trkpt lat="46.52122" lon="3.77996">
        <ele>219.8</ele>
        <time>2019-08-20T13:38:40Z</time>
      </trkpt>
      <trkpt lat="46.52126" lon="3.77991">
        <ele>219.7</ele>
        <time>2019-08-20T13:38:41Z</time>
      </trkpt>
      <trkpt lat="46.52131" lon="3.77988">
        <ele>219.6</ele>
        <time>2019-08-20T13:38:42Z</time>
      </trkpt>
      <trkpt lat="46.52135" lon="3.77983">
        <ele>219.6</ele>
        <time>2019-08-20T13:38:43Z</time>
      </trkpt>
      <trkpt lat="46.52138" lon="3.77977">
        <ele>219.5</ele>
        <time>2019-08-20T13:38:44Z</time>
      </trkpt>
      <trkpt lat="46.52142" lon="3.77972">
        <ele>219.4</ele>
        <time>2019-08-20T13:38:45Z</time>
      </trkpt>
      <trkpt lat="46.52147" lon="3.77967">
        <ele>219.3</ele>
        <time>2019-08-20T13:38:46Z</time>
      </trkpt>
      <trkpt lat="46.5215" lon="3.77963">
        <ele>219.3</ele>
        <time>2019-08-20T13:38:47Z</time>
      </trkpt>
      <trkpt lat="46.52154" lon="3.77958">
        <ele>219.2</ele>
        <time>2019-08-20T13:38:48Z</time>
      </trkpt>
      <trkpt lat="46.52157" lon="3.77953">
        <ele>219.1</ele>
        <time>2019-08-20T13:38:49Z</time>
      </trkpt>
      <trkpt lat="46.52161" lon="3.77948">
        <ele>219.1</ele>
        <time>2019-08-20T13:38:50Z</time>
      </trkpt>
      <trkpt lat="46.52165" lon="3.77943">
        <ele>219.1</ele>
        <time>2019-08-20T13:38:51Z</time>
      </trkpt>
      <trkpt lat="46.52169" lon="3.77938">
        <ele>219</ele>
        <time>2019-08-20T13:38:52Z</time>
      </trkpt>
      <trkpt lat="46.52173" lon="3.77934">
        <ele>219</ele>
        <time>2019-08-20T13:38:53Z</time>
      </trkpt>
      <trkpt lat="46.52177" lon="3.77929">
        <ele>219</ele>
        <time>2019-08-20T13:38:54Z</time>
      </trkpt>
      <trkpt lat="46.52181" lon="3.77925">
        <ele>219</ele>
        <time>2019-08-20T13:38:55Z</time>
      </trkpt>
      <trkpt lat="46.52186" lon="3.7792">
        <ele>219</ele>
        <time>2019-08-20T13:38:56Z</time>
      </trkpt>
      <trkpt lat="46.52189" lon="3.77915">
        <ele>219</ele>
        <time>2019-08-20T13:38:57Z</time>
      </trkpt>
      <trkpt lat="46.52193" lon="3.7791">
        <ele>219</ele>
        <time>2019-08-20T13:38:58Z</time>
      </trkpt>
      <trkpt lat="46.52197" lon="3.77907">
        <ele>219</ele>
        <time>2019-08-20T13:38:59Z</time>
      </trkpt>
      <trkpt lat="46.52201" lon="3.77903">
        <ele>219</ele>
        <time>2019-08-20T13:39:00Z</time>
      </trkpt>
      <trkpt lat="46.52203" lon="3.77901">
        <ele>219</ele>
        <time>2019-08-20T13:39:01Z</time>
      </trkpt>
      <trkpt lat="46.52207" lon="3.77898">
        <ele>219</ele>
        <time>2019-08-20T13:39:02Z</time>
      </trkpt>
      <trkpt lat="46.5221" lon="3.77893">
        <ele>219</ele>
        <time>2019-08-20T13:39:03Z</time>
      </trkpt>
      <trkpt lat="46.52213" lon="3.77889">
        <ele>219</ele>
        <time>2019-08-20T13:39:04Z</time>
      </trkpt>
      <trkpt lat="46.52217" lon="3.77885">
        <ele>219</ele>
        <time>2019-08-20T13:39:05Z</time>
      </trkpt>
      <trkpt lat="46.52222" lon="3.77882">
        <ele>219</ele>
        <time>2019-08-20T13:39:06Z</time>
      </trkpt>
      <trkpt lat="46.52226" lon="3.77878">
        <ele>219</ele>
        <time>2019-08-20T13:39:07Z</time>
      </trkpt>
      <trkpt lat="46.52229" lon="3.77873">
        <ele>219</ele>
        <time>2019-08-20T13:39:08Z</time>
      </trkpt>
      <trkpt lat="46.52233" lon="3.77868">
        <ele>219</ele>
        <time>2019-08-20T13:39:09Z</time>
      </trkpt>
      <trkpt lat="46.52237" lon="3.77864">
        <ele>219</ele>
        <time>2019-08-20T13:39:10Z</time>
      </trkpt>
      <trkpt lat="46.52241" lon="3.77861">
        <ele>219</ele>
        <time>2019-08-20T13:39:11Z</time>
      </trkpt>
      <trkpt lat="46.52245" lon="3.77856">
        <ele>219</ele>
        <time>2019-08-20T13:39:12Z</time>
      </trkpt>
      <trkpt lat="46.52249" lon="3.77852">
        <ele>219</ele>
        <time>2019-08-20T13:39:13Z</time>
      </trkpt>
      <trkpt lat="46.52252" lon="3.77848">
        <ele>219</ele>
        <time>2019-08-20T13:39:14Z</time>
      </trkpt>
      <trkpt lat="46.52256" lon="3.77844">
        <ele>219</ele>
        <time>2019-08-20T13:39:15Z</time>
      </trkpt>
      <trkpt lat="46.5226" lon="3.7784">
        <ele>219</ele>
        <time>2019-08-20T13:39:16Z</time>
      </trkpt>
      <trkpt lat="46.52263" lon="3.77836">
        <ele>219</ele>
        <time>2019-08-20T13:39:17Z</time>
      </trkpt>
      <trkpt lat="46.52267" lon="3.77832">
        <ele>219</ele>
        <time>2019-08-20T13:39:18Z</time>
      </trkpt>
      <trkpt lat="46.52271" lon="3.77829">
        <ele>219</ele>
        <time>2019-08-20T13:39:19Z</time>
      </trkpt>
      <trkpt lat="46.52276" lon="3.77825">
        <ele>219</ele>
        <time>2019-08-20T13:39:20Z</time>
      </trkpt>
      <trkpt lat="46.5228" lon="3.77822">
        <ele>219</ele>
        <time>2019-08-20T13:39:21Z</time>
      </trkpt>
      <trkpt lat="46.52284" lon="3.77817">
        <ele>219</ele>
        <time>2019-08-20T13:39:22Z</time>
      </trkpt>
      <trkpt lat="46.52288" lon="3.77813">
        <ele>219</ele>
        <time>2019-08-20T13:39:23Z</time>
      </trkpt>
      <trkpt lat="46.52292" lon="3.77808">
        <ele>219.1</ele>
        <time>2019-08-20T13:39:24Z</time>
      </trkpt>
      <trkpt lat="46.52296" lon="3.77804">
        <ele>219.1</ele>
        <time>2019-08-20T13:39:25Z</time>
      </trkpt>
      <trkpt lat="46.523" lon="3.77801">
        <ele>219.1</ele>
        <time>2019-08-20T13:39:26Z</time>
      </trkpt>
      <trkpt lat="46.52304" lon="3.77797">
        <ele>219.1</ele>
        <time>2019-08-20T13:39:27Z</time>
      </trkpt>
      <trkpt lat="46.52308" lon="3.77793">
        <ele>219.1</ele>
        <time>2019-08-20T13:39:28Z</time>
      </trkpt>
      <trkpt lat="46.52311" lon="3.77789">
        <ele>219.1</ele>
        <time>2019-08-20T13:39:29Z</time>
      </trkpt>
      <trkpt lat="46.52315" lon="3.77784">
        <ele>219.1</ele>
        <time>2019-08-20T13:39:30Z</time>
      </trkpt>
      <trkpt lat="46.52319" lon="3.77779">
        <ele>219.1</ele>
        <time>2019-08-20T13:39:31Z</time>
      </trkpt>
      <trkpt lat="46.52324" lon="3.77774">
        <ele>219.1</ele>
        <time>2019-08-20T13:39:32Z</time>
      </trkpt>
      <trkpt lat="46.52329" lon="3.77771">
        <ele>219.1</ele>
        <time>2019-08-20T13:39:33Z</time>
      </trkpt>
      <trkpt lat="46.52333" lon="3.77766">
        <ele>219.1</ele>
        <time>2019-08-20T13:39:34Z</time>
      </trkpt>
      <trkpt lat="46.52336" lon="3.77761">
        <ele>219.1</ele>
        <time>2019-08-20T13:39:35Z</time>
      </trkpt>
      <trkpt lat="46.52339" lon="3.77755">
        <ele>219.1</ele>
        <time>2019-08-20T13:39:36Z</time>
      </trkpt>
      <trkpt lat="46.52344" lon="3.77752">
        <ele>219.1</ele>
        <time>2019-08-20T13:39:37Z</time>
      </trkpt>
      <trkpt lat="46.52348" lon="3.77748">
        <ele>219.1</ele>
        <time>2019-08-20T13:39:38Z</time>
      </trkpt>
      <trkpt lat="46.52352" lon="3.77744">
        <ele>219.1</ele>
        <time>2019-08-20T13:39:39Z</time>
      </trkpt>
      <trkpt lat="46.52356" lon="3.77739">
        <ele>219.1</ele>
        <time>2019-08-20T13:39:40Z</time>
      </trkpt>
      <trkpt lat="46.52359" lon="3.77734">
        <ele>219.1</ele>
        <time>2019-08-20T13:39:41Z</time>
      </trkpt>
      <trkpt lat="46.52363" lon="3.77731">
        <ele>219.1</ele>
        <time>2019-08-20T13:39:42Z</time>
      </trkpt>
      <trkpt lat="46.52366" lon="3.77727">
        <ele>219.1</ele>
        <time>2019-08-20T13:39:43Z</time>
      </trkpt>
      <trkpt lat="46.5237" lon="3.77723">
        <ele>219.1</ele>
        <time>2019-08-20T13:39:44Z</time>
      </trkpt>
      <trkpt lat="46.52374" lon="3.77717">
        <ele>219.1</ele>
        <time>2019-08-20T13:39:45Z</time>
      </trkpt>
      <trkpt lat="46.52378" lon="3.77712">
        <ele>219.1</ele>
        <time>2019-08-20T13:39:46Z</time>
      </trkpt>
      <trkpt lat="46.52382" lon="3.7771">
        <ele>219.1</ele>
        <time>2019-08-20T13:39:47Z</time>
      </trkpt>
      <trkpt lat="46.52385" lon="3.77706">
        <ele>219.1</ele>
        <time>2019-08-20T13:39:48Z</time>
      </trkpt>
      <trkpt lat="46.52389" lon="3.77701">
        <ele>219.1</ele>
        <time>2019-08-20T13:39:49Z</time>
      </trkpt>
      <trkpt lat="46.52393" lon="3.77697">
        <ele>219.1</ele>
        <time>2019-08-20T13:39:50Z</time>
      </trkpt>
      <trkpt lat="46.52397" lon="3.77693">
        <ele>219.1</ele>
        <time>2019-08-20T13:39:51Z</time>
      </trkpt>
      <trkpt lat="46.524" lon="3.77689">
        <ele>219.1</ele>
        <time>2019-08-20T13:39:52Z</time>
      </trkpt>
      <trkpt lat="46.52405" lon="3.77685">
        <ele>219.1</ele>
        <time>2019-08-20T13:39:53Z</time>
      </trkpt>
      <trkpt lat="46.52409" lon="3.77682">
        <ele>219.1</ele>
        <time>2019-08-20T13:39:54Z</time>
      </trkpt>
      <trkpt lat="46.52412" lon="3.77677">
        <ele>219.1</ele>
        <time>2019-08-20T13:39:55Z</time>
      </trkpt>
      <trkpt lat="46.52415" lon="3.77672">
        <ele>219.1</ele>
        <time>2019-08-20T13:39:56Z</time>
      </trkpt>
      <trkpt lat="46.52419" lon="3.77669">
        <ele>219.2</ele>
        <time>2019-08-20T13:39:57Z</time>
      </trkpt>
      <trkpt lat="46.52423" lon="3.77665">
        <ele>219.2</ele>
        <time>2019-08-20T13:39:58Z</time>
      </trkpt>
      <trkpt lat="46.52427" lon="3.77662">
        <ele>219.2</ele>
        <time>2019-08-20T13:39:59Z</time>
      </trkpt>
      <trkpt lat="46.52431" lon="3.77659">
        <ele>219.2</ele>
        <time>2019-08-20T13:40:00Z</time>
      </trkpt>
      <trkpt lat="46.52434" lon="3.77656">
        <ele>219.2</ele>
        <time>2019-08-20T13:40:01Z</time>
      </trkpt>
      <trkpt lat="46.52437" lon="3.77652">
        <ele>219.2</ele>
        <time>2019-08-20T13:40:02Z</time>
      </trkpt>
      <trkpt lat="46.52441" lon="3.77648">
        <ele>219.2</ele>
        <time>2019-08-20T13:40:03Z</time>
      </trkpt>
      <trkpt lat="46.52444" lon="3.77644">
        <ele>219.2</ele>
        <time>2019-08-20T13:40:04Z</time>
      </trkpt>
      <trkpt lat="46.52446" lon="3.77641">
        <ele>219.2</ele>
        <time>2019-08-20T13:40:05Z</time>
      </trkpt>
      <trkpt lat="46.5245" lon="3.77636">
        <ele>219.2</ele>
        <time>2019-08-20T13:40:06Z</time>
      </trkpt>
      <trkpt lat="46.52454" lon="3.77632">
        <ele>219.3</ele>
        <time>2019-08-20T13:40:07Z</time>
      </trkpt>
      <trkpt lat="46.52459" lon="3.77626">
        <ele>219.4</ele>
        <time>2019-08-20T13:40:08Z</time>
      </trkpt>
      <trkpt lat="46.52462" lon="3.77621">
        <ele>219.6</ele>
        <time>2019-08-20T13:40:09Z</time>
      </trkpt>
      <trkpt lat="46.52466" lon="3.77616">
        <ele>219.9</ele>
        <time>2019-08-20T13:40:10Z</time>
      </trkpt>
      <trkpt lat="46.5247" lon="3.77612">
        <ele>220.1</ele>
        <time>2019-08-20T13:40:11Z</time>
      </trkpt>
      <trkpt lat="46.52474" lon="3.77608">
        <ele>220.4</ele>
        <time>2019-08-20T13:40:12Z</time>
      </trkpt>
      <trkpt lat="46.52478" lon="3.77606">
        <ele>220.5</ele>
        <time>2019-08-20T13:40:13Z</time>
      </trkpt>
      <trkpt lat="46.5248" lon="3.77602">
        <ele>220.7</ele>
        <time>2019-08-20T13:40:14Z</time>
      </trkpt>
      <trkpt lat="46.52484" lon="3.77598">
        <ele>220.8</ele>
        <time>2019-08-20T13:40:15Z</time>
      </trkpt>
      <trkpt lat="46.52487" lon="3.77594">
        <ele>221</ele>
        <time>2019-08-20T13:40:16Z</time>
      </trkpt>
      <trkpt lat="46.52491" lon="3.77588">
        <ele>221.1</ele>
        <time>2019-08-20T13:40:17Z</time>
      </trkpt>
      <trkpt lat="46.52493" lon="3.77582">
        <ele>221.1</ele>
        <time>2019-08-20T13:40:18Z</time>
      </trkpt>
      <trkpt lat="46.52496" lon="3.77578">
        <ele>221.2</ele>
        <time>2019-08-20T13:40:19Z</time>
      </trkpt>
      <trkpt lat="46.525" lon="3.77573">
        <ele>221.2</ele>
        <time>2019-08-20T13:40:20Z</time>
      </trkpt>
      <trkpt lat="46.52504" lon="3.77571">
        <ele>221.2</ele>
        <time>2019-08-20T13:40:21Z</time>
      </trkpt>
      <trkpt lat="46.52508" lon="3.77568">
        <ele>221.2</ele>
        <time>2019-08-20T13:40:22Z</time>
      </trkpt>
      <trkpt lat="46.52511" lon="3.77566">
        <ele>221.2</ele>
        <time>2019-08-20T13:40:23Z</time>
      </trkpt>
      <trkpt lat="46.52514" lon="3.77563">
        <ele>221.1</ele>
        <time>2019-08-20T13:40:24Z</time>
      </trkpt>
      <trkpt lat="46.52517" lon="3.77561">
        <ele>221.1</ele>
        <time>2019-08-20T13:40:25Z</time>
      </trkpt>
      <trkpt lat="46.52521" lon="3.77559">
        <ele>221</ele>
        <time>2019-08-20T13:40:26Z</time>
      </trkpt>
      <trkpt lat="46.52525" lon="3.77557">
        <ele>220.9</ele>
        <time>2019-08-20T13:40:27Z</time>
      </trkpt>
      <trkpt lat="46.52527" lon="3.77554">
        <ele>220.8</ele>
        <time>2019-08-20T13:40:28Z</time>
      </trkpt>
      <trkpt lat="46.52531" lon="3.77552">
        <ele>220.5</ele>
        <time>2019-08-20T13:40:30Z</time>
      </trkpt>
      <trkpt lat="46.52535" lon="3.77556">
        <ele>220.2</ele>
        <time>2019-08-20T13:40:32Z</time>
      </trkpt>
      <trkpt lat="46.52538" lon="3.77555">
        <ele>219.8</ele>
        <time>2019-08-20T13:40:33Z</time>
      </trkpt>
      <trkpt lat="46.52541" lon="3.77555">
        <ele>219.6</ele>
        <time>2019-08-20T13:40:34Z</time>
      </trkpt>
      <trkpt lat="46.52545" lon="3.77555">
        <ele>219.4</ele>
        <time>2019-08-20T13:40:35Z</time>
      </trkpt>
      <trkpt lat="46.52549" lon="3.77553">
        <ele>219.1</ele>
        <time>2019-08-20T13:40:36Z</time>
      </trkpt>
      <trkpt lat="46.52553" lon="3.7755">
        <ele>218.8</ele>
        <time>2019-08-20T13:40:37Z</time>
      </trkpt>
      <trkpt lat="46.52557" lon="3.77546">
        <ele>218.4</ele>
        <time>2019-08-20T13:40:38Z</time>
      </trkpt>
      <trkpt lat="46.52562" lon="3.7754">
        <ele>218.1</ele>
        <time>2019-08-20T13:40:39Z</time>
      </trkpt>
      <trkpt lat="46.52567" lon="3.77535">
        <ele>217.9</ele>
        <time>2019-08-20T13:40:40Z</time>
      </trkpt>
      <trkpt lat="46.52572" lon="3.7753">
        <ele>217.7</ele>
        <time>2019-08-20T13:40:41Z</time>
      </trkpt>
      <trkpt lat="46.52578" lon="3.77526">
        <ele>217.5</ele>
        <time>2019-08-20T13:40:42Z</time>
      </trkpt>
      <trkpt lat="46.52584" lon="3.77522">
        <ele>217.4</ele>
        <time>2019-08-20T13:40:43Z</time>
      </trkpt>
      <trkpt lat="46.52588" lon="3.77515">
        <ele>217.2</ele>
        <time>2019-08-20T13:40:44Z</time>
      </trkpt>
      <trkpt lat="46.52594" lon="3.77509">
        <ele>217.1</ele>
        <time>2019-08-20T13:40:45Z</time>
      </trkpt>
      <trkpt lat="46.52597" lon="3.77505">
        <ele>217</ele>
        <time>2019-08-20T13:40:46Z</time>
      </trkpt>
      <trkpt lat="46.52602" lon="3.77499">
        <ele>216.9</ele>
        <time>2019-08-20T13:40:47Z</time>
      </trkpt>
      <trkpt lat="46.52609" lon="3.77492">
        <ele>216.6</ele>
        <time>2019-08-20T13:40:48Z</time>
      </trkpt>
      <trkpt lat="46.52614" lon="3.77486">
        <ele>216.4</ele>
        <time>2019-08-20T13:40:49Z</time>
      </trkpt>
      <trkpt lat="46.52619" lon="3.77482">
        <ele>216.2</ele>
        <time>2019-08-20T13:40:50Z</time>
      </trkpt>
      <trkpt lat="46.52624" lon="3.77477">
        <ele>216.1</ele>
        <time>2019-08-20T13:40:51Z</time>
      </trkpt>
      <trkpt lat="46.5263" lon="3.77472">
        <ele>216</ele>
        <time>2019-08-20T13:40:52Z</time>
      </trkpt>
      <trkpt lat="46.52634" lon="3.77467">
        <ele>215.9</ele>
        <time>2019-08-20T13:40:53Z</time>
      </trkpt>
      <trkpt lat="46.52639" lon="3.77461">
        <ele>215.9</ele>
        <time>2019-08-20T13:40:54Z</time>
      </trkpt>
      <trkpt lat="46.52644" lon="3.77453">
        <ele>215.9</ele>
        <time>2019-08-20T13:40:55Z</time>
      </trkpt>
      <trkpt lat="46.5265" lon="3.77449">
        <ele>215.9</ele>
        <time>2019-08-20T13:40:56Z</time>
      </trkpt>
      <trkpt lat="46.52654" lon="3.77443">
        <ele>215.9</ele>
        <time>2019-08-20T13:40:57Z</time>
      </trkpt>
      <trkpt lat="46.52659" lon="3.77439">
        <ele>216</ele>
        <time>2019-08-20T13:40:58Z</time>
      </trkpt>
      <trkpt lat="46.52663" lon="3.77434">
        <ele>216</ele>
        <time>2019-08-20T13:40:59Z</time>
      </trkpt>
      <trkpt lat="46.52667" lon="3.77429">
        <ele>216.1</ele>
        <time>2019-08-20T13:41:00Z</time>
      </trkpt>
      <trkpt lat="46.52671" lon="3.77424">
        <ele>216.1</ele>
        <time>2019-08-20T13:41:01Z</time>
      </trkpt>
      <trkpt lat="46.52675" lon="3.7742">
        <ele>216.2</ele>
        <time>2019-08-20T13:41:02Z</time>
      </trkpt>
      <trkpt lat="46.5268" lon="3.77414">
        <ele>216.3</ele>
        <time>2019-08-20T13:41:03Z</time>
      </trkpt>
      <trkpt lat="46.52685" lon="3.77409">
        <ele>216.4</ele>
        <time>2019-08-20T13:41:04Z</time>
      </trkpt>
      <trkpt lat="46.52689" lon="3.77406">
        <ele>216.4</ele>
        <time>2019-08-20T13:41:05Z</time>
      </trkpt>
      <trkpt lat="46.52694" lon="3.77399">
        <ele>216.4</ele>
        <time>2019-08-20T13:41:06Z</time>
      </trkpt>
      <trkpt lat="46.52699" lon="3.77393">
        <ele>216.4</ele>
        <time>2019-08-20T13:41:07Z</time>
      </trkpt>
      <trkpt lat="46.52704" lon="3.77391">
        <ele>216.3</ele>
        <time>2019-08-20T13:41:08Z</time>
      </trkpt>
      <trkpt lat="46.52706" lon="3.77386">
        <ele>216.2</ele>
        <time>2019-08-20T13:41:09Z</time>
      </trkpt>
      <trkpt lat="46.52711" lon="3.77382">
        <ele>216.1</ele>
        <time>2019-08-20T13:41:10Z</time>
      </trkpt>
      <trkpt lat="46.52715" lon="3.77378">
        <ele>216</ele>
        <time>2019-08-20T13:41:11Z</time>
      </trkpt>
      <trkpt lat="46.52719" lon="3.77374">
        <ele>216</ele>
        <time>2019-08-20T13:41:12Z</time>
      </trkpt>
      <trkpt lat="46.52722" lon="3.77369">
        <ele>215.9</ele>
        <time>2019-08-20T13:41:13Z</time>
      </trkpt>
      <trkpt lat="46.52727" lon="3.77365">
        <ele>215.9</ele>
        <time>2019-08-20T13:41:14Z</time>
      </trkpt>
      <trkpt lat="46.52731" lon="3.77362">
        <ele>215.8</ele>
        <time>2019-08-20T13:41:15Z</time>
      </trkpt>
      <trkpt lat="46.52735" lon="3.77358">
        <ele>215.8</ele>
        <time>2019-08-20T13:41:16Z</time>
      </trkpt>
      <trkpt lat="46.5274" lon="3.77355">
        <ele>215.8</ele>
        <time>2019-08-20T13:41:17Z</time>
      </trkpt>
      <trkpt lat="46.52745" lon="3.77349">
        <ele>215.8</ele>
        <time>2019-08-20T13:41:18Z</time>
      </trkpt>
      <trkpt lat="46.52749" lon="3.77345">
        <ele>215.8</ele>
        <time>2019-08-20T13:41:19Z</time>
      </trkpt>
      <trkpt lat="46.52753" lon="3.77341">
        <ele>215.8</ele>
        <time>2019-08-20T13:41:20Z</time>
      </trkpt>
      <trkpt lat="46.52757" lon="3.77336">
        <ele>215.8</ele>
        <time>2019-08-20T13:41:21Z</time>
      </trkpt>
      <trkpt lat="46.52761" lon="3.77332">
        <ele>215.8</ele>
        <time>2019-08-20T13:41:22Z</time>
      </trkpt>
      <trkpt lat="46.52767" lon="3.77325">
        <ele>215.8</ele>
        <time>2019-08-20T13:41:23Z</time>
      </trkpt>
      <trkpt lat="46.52772" lon="3.77321">
        <ele>215.8</ele>
        <time>2019-08-20T13:41:24Z</time>
      </trkpt>
      <trkpt lat="46.52777" lon="3.77316">
        <ele>215.9</ele>
        <time>2019-08-20T13:41:25Z</time>
      </trkpt>
      <trkpt lat="46.52781" lon="3.77313">
        <ele>215.9</ele>
        <time>2019-08-20T13:41:26Z</time>
      </trkpt>
      <trkpt lat="46.52785" lon="3.77311">
        <ele>215.9</ele>
        <time>2019-08-20T13:41:27Z</time>
      </trkpt>
      <trkpt lat="46.52788" lon="3.77307">
        <ele>216</ele>
        <time>2019-08-20T13:41:28Z</time>
      </trkpt>
      <trkpt lat="46.52791" lon="3.77304">
        <ele>216</ele>
        <time>2019-08-20T13:41:29Z</time>
      </trkpt>
      <trkpt lat="46.52795" lon="3.773">
        <ele>216.1</ele>
        <time>2019-08-20T13:41:30Z</time>
      </trkpt>
      <trkpt lat="46.52799" lon="3.77295">
        <ele>216.2</ele>
        <time>2019-08-20T13:41:31Z</time>
      </trkpt>
      <trkpt lat="46.52803" lon="3.7729">
        <ele>216.2</ele>
        <time>2019-08-20T13:41:32Z</time>
      </trkpt>
      <trkpt lat="46.52807" lon="3.77286">
        <ele>216.3</ele>
        <time>2019-08-20T13:41:33Z</time>
      </trkpt>
      <trkpt lat="46.5281" lon="3.77282">
        <ele>216.4</ele>
        <time>2019-08-20T13:41:34Z</time>
      </trkpt>
      <trkpt lat="46.52814" lon="3.77277">
        <ele>216.5</ele>
        <time>2019-08-20T13:41:35Z</time>
      </trkpt>
      <trkpt lat="46.52818" lon="3.77273">
        <ele>216.6</ele>
        <time>2019-08-20T13:41:36Z</time>
      </trkpt>
      <trkpt lat="46.52821" lon="3.77269">
        <ele>216.6</ele>
        <time>2019-08-20T13:41:37Z</time>
      </trkpt>
      <trkpt lat="46.52824" lon="3.77266">
        <ele>216.7</ele>
        <time>2019-08-20T13:41:38Z</time>
      </trkpt>
      <trkpt lat="46.52828" lon="3.77262">
        <ele>216.7</ele>
        <time>2019-08-20T13:41:39Z</time>
      </trkpt>
      <trkpt lat="46.52831" lon="3.77258">
        <ele>216.6</ele>
        <time>2019-08-20T13:41:40Z</time>
      </trkpt>
      <trkpt lat="46.52834" lon="3.77254">
        <ele>216.6</ele>
        <time>2019-08-20T13:41:41Z</time>
      </trkpt>
      <trkpt lat="46.52838" lon="3.7725">
        <ele>216.6</ele>
        <time>2019-08-20T13:41:42Z</time>
      </trkpt>
      <trkpt lat="46.52841" lon="3.77244">
        <ele>216.5</ele>
        <time>2019-08-20T13:41:43Z</time>
      </trkpt>
      <trkpt lat="46.52845" lon="3.7724">
        <ele>216.5</ele>
        <time>2019-08-20T13:41:44Z</time>
      </trkpt>
      <trkpt lat="46.52852" lon="3.77233">
        <ele>216.4</ele>
        <time>2019-08-20T13:41:45Z</time>
      </trkpt>
      <trkpt lat="46.52856" lon="3.77228">
        <ele>216.4</ele>
        <time>2019-08-20T13:41:46Z</time>
      </trkpt>
      <trkpt lat="46.5286" lon="3.77224">
        <ele>216.3</ele>
        <time>2019-08-20T13:41:47Z</time>
      </trkpt>
      <trkpt lat="46.52864" lon="3.7722">
        <ele>216.3</ele>
        <time>2019-08-20T13:41:48Z</time>
      </trkpt>
      <trkpt lat="46.52869" lon="3.77215">
        <ele>216.2</ele>
        <time>2019-08-20T13:41:49Z</time>
      </trkpt>
      <trkpt lat="46.52874" lon="3.77212">
        <ele>216.1</ele>
        <time>2019-08-20T13:41:50Z</time>
      </trkpt>
      <trkpt lat="46.52878" lon="3.77207">
        <ele>216</ele>
        <time>2019-08-20T13:41:51Z</time>
      </trkpt>
      <trkpt lat="46.52882" lon="3.77204">
        <ele>215.9</ele>
        <time>2019-08-20T13:41:52Z</time>
      </trkpt>
      <trkpt lat="46.52886" lon="3.772">
        <ele>215.8</ele>
        <time>2019-08-20T13:41:53Z</time>
      </trkpt>
      <trkpt lat="46.5289" lon="3.77196">
        <ele>215.8</ele>
        <time>2019-08-20T13:41:54Z</time>
      </trkpt>
      <trkpt lat="46.52893" lon="3.77193">
        <ele>215.8</ele>
        <time>2019-08-20T13:41:55Z</time>
      </trkpt>
      <trkpt lat="46.52897" lon="3.77189">
        <ele>215.7</ele>
        <time>2019-08-20T13:41:56Z</time>
      </trkpt>
      <trkpt lat="46.52901" lon="3.77185">
        <ele>215.7</ele>
        <time>2019-08-20T13:41:57Z</time>
      </trkpt>
      <trkpt lat="46.52906" lon="3.7718">
        <ele>215.7</ele>
        <time>2019-08-20T13:41:58Z</time>
      </trkpt>
      <trkpt lat="46.5291" lon="3.77175">
        <ele>215.7</ele>
        <time>2019-08-20T13:41:59Z</time>
      </trkpt>
      <trkpt lat="46.52914" lon="3.77171">
        <ele>215.7</ele>
        <time>2019-08-20T13:42:00Z</time>
      </trkpt>
      <trkpt lat="46.52918" lon="3.77166">
        <ele>215.7</ele>
        <time>2019-08-20T13:42:01Z</time>
      </trkpt>
      <trkpt lat="46.52921" lon="3.77164">
        <ele>215.7</ele>
        <time>2019-08-20T13:42:02Z</time>
      </trkpt>
      <trkpt lat="46.52925" lon="3.77159">
        <ele>215.7</ele>
        <time>2019-08-20T13:42:03Z</time>
      </trkpt>
      <trkpt lat="46.5293" lon="3.77154">
        <ele>215.7</ele>
        <time>2019-08-20T13:42:04Z</time>
      </trkpt>
      <trkpt lat="46.52934" lon="3.77149">
        <ele>215.6</ele>
        <time>2019-08-20T13:42:05Z</time>
      </trkpt>
      <trkpt lat="46.52938" lon="3.77144">
        <ele>215.6</ele>
        <time>2019-08-20T13:42:06Z</time>
      </trkpt>
      <trkpt lat="46.52943" lon="3.77139">
        <ele>215.6</ele>
        <time>2019-08-20T13:42:07Z</time>
      </trkpt>
      <trkpt lat="46.52947" lon="3.77135">
        <ele>215.6</ele>
        <time>2019-08-20T13:42:08Z</time>
      </trkpt>
      <trkpt lat="46.52951" lon="3.77131">
        <ele>215.6</ele>
        <time>2019-08-20T13:42:09Z</time>
      </trkpt>
      <trkpt lat="46.52955" lon="3.77127">
        <ele>215.6</ele>
        <time>2019-08-20T13:42:10Z</time>
      </trkpt>
      <trkpt lat="46.52958" lon="3.77123">
        <ele>215.6</ele>
        <time>2019-08-20T13:42:11Z</time>
      </trkpt>
      <trkpt lat="46.52963" lon="3.77119">
        <ele>215.6</ele>
        <time>2019-08-20T13:42:12Z</time>
      </trkpt>
      <trkpt lat="46.52968" lon="3.77115">
        <ele>215.6</ele>
        <time>2019-08-20T13:42:13Z</time>
      </trkpt>
      <trkpt lat="46.52972" lon="3.77108">
        <ele>215.6</ele>
        <time>2019-08-20T13:42:14Z</time>
      </trkpt>
      <trkpt lat="46.52976" lon="3.77104">
        <ele>215.6</ele>
        <time>2019-08-20T13:42:15Z</time>
      </trkpt>
      <trkpt lat="46.52979" lon="3.77101">
        <ele>215.6</ele>
        <time>2019-08-20T13:42:16Z</time>
      </trkpt>
      <trkpt lat="46.52982" lon="3.77097">
        <ele>215.6</ele>
        <time>2019-08-20T13:42:17Z</time>
      </trkpt>
      <trkpt lat="46.52986" lon="3.77094">
        <ele>215.6</ele>
        <time>2019-08-20T13:42:19Z</time>
      </trkpt>
      <trkpt lat="46.52991" lon="3.77089">
        <ele>215.6</ele>
        <time>2019-08-20T13:42:21Z</time>
      </trkpt>
      <trkpt lat="46.52996" lon="3.77085">
        <ele>215.6</ele>
        <time>2019-08-20T13:42:22Z</time>
      </trkpt>
      <trkpt lat="46.52999" lon="3.77081">
        <ele>215.6</ele>
        <time>2019-08-20T13:42:23Z</time>
      </trkpt>
      <trkpt lat="46.53005" lon="3.77077">
        <ele>215.6</ele>
        <time>2019-08-20T13:42:24Z</time>
      </trkpt>
      <trkpt lat="46.53008" lon="3.77071">
        <ele>215.5</ele>
        <time>2019-08-20T13:42:25Z</time>
      </trkpt>
      <trkpt lat="46.53011" lon="3.77068">
        <ele>215.5</ele>
        <time>2019-08-20T13:42:26Z</time>
      </trkpt>
      <trkpt lat="46.53014" lon="3.77063">
        <ele>215.5</ele>
        <time>2019-08-20T13:42:27Z</time>
      </trkpt>
      <trkpt lat="46.53018" lon="3.77058">
        <ele>215.5</ele>
        <time>2019-08-20T13:42:28Z</time>
      </trkpt>
      <trkpt lat="46.53021" lon="3.77055">
        <ele>215.5</ele>
        <time>2019-08-20T13:42:29Z</time>
      </trkpt>
      <trkpt lat="46.53025" lon="3.77051">
        <ele>215.4</ele>
        <time>2019-08-20T13:42:30Z</time>
      </trkpt>
      <trkpt lat="46.53028" lon="3.77048">
        <ele>215.4</ele>
        <time>2019-08-20T13:42:31Z</time>
      </trkpt>
      <trkpt lat="46.53031" lon="3.77044">
        <ele>215.3</ele>
        <time>2019-08-20T13:42:32Z</time>
      </trkpt>
      <trkpt lat="46.53035" lon="3.7704">
        <ele>215.2</ele>
        <time>2019-08-20T13:42:33Z</time>
      </trkpt>
      <trkpt lat="46.53039" lon="3.77037">
        <ele>215.2</ele>
        <time>2019-08-20T13:42:34Z</time>
      </trkpt>
      <trkpt lat="46.53042" lon="3.77033">
        <ele>215.1</ele>
        <time>2019-08-20T13:42:35Z</time>
      </trkpt>
      <trkpt lat="46.53045" lon="3.7703">
        <ele>215</ele>
        <time>2019-08-20T13:42:36Z</time>
      </trkpt>
      <trkpt lat="46.5305" lon="3.77025">
        <ele>214.9</ele>
        <time>2019-08-20T13:42:37Z</time>
      </trkpt>
      <trkpt lat="46.53054" lon="3.77022">
        <ele>214.8</ele>
        <time>2019-08-20T13:42:38Z</time>
      </trkpt>
      <trkpt lat="46.53058" lon="3.77017">
        <ele>214.7</ele>
        <time>2019-08-20T13:42:39Z</time>
      </trkpt>
      <trkpt lat="46.53063" lon="3.77011">
        <ele>214.7</ele>
        <time>2019-08-20T13:42:40Z</time>
      </trkpt>
      <trkpt lat="46.53067" lon="3.77006">
        <ele>214.6</ele>
        <time>2019-08-20T13:42:41Z</time>
      </trkpt>
      <trkpt lat="46.53071" lon="3.77002">
        <ele>214.6</ele>
        <time>2019-08-20T13:42:42Z</time>
      </trkpt>
      <trkpt lat="46.53075" lon="3.76997">
        <ele>214.6</ele>
        <time>2019-08-20T13:42:43Z</time>
      </trkpt>
      <trkpt lat="46.53078" lon="3.76992">
        <ele>214.6</ele>
        <time>2019-08-20T13:42:44Z</time>
      </trkpt>
      <trkpt lat="46.53082" lon="3.76988">
        <ele>214.6</ele>
        <time>2019-08-20T13:42:45Z</time>
      </trkpt>
      <trkpt lat="46.53086" lon="3.76984">
        <ele>214.6</ele>
        <time>2019-08-20T13:42:46Z</time>
      </trkpt>
      <trkpt lat="46.53089" lon="3.7698">
        <ele>214.7</ele>
        <time>2019-08-20T13:42:47Z</time>
      </trkpt>
      <trkpt lat="46.53094" lon="3.76975">
        <ele>214.7</ele>
        <time>2019-08-20T13:42:48Z</time>
      </trkpt>
      <trkpt lat="46.53098" lon="3.76971">
        <ele>214.8</ele>
        <time>2019-08-20T13:42:49Z</time>
      </trkpt>
      <trkpt lat="46.53104" lon="3.76965">
        <ele>214.9</ele>
        <time>2019-08-20T13:42:50Z</time>
      </trkpt>
      <trkpt lat="46.53109" lon="3.7696">
        <ele>215.1</ele>
        <time>2019-08-20T13:42:51Z</time>
      </trkpt>
      <trkpt lat="46.53114" lon="3.76955">
        <ele>215.2</ele>
        <time>2019-08-20T13:42:52Z</time>
      </trkpt>
      <trkpt lat="46.53119" lon="3.76949">
        <ele>215.4</ele>
        <time>2019-08-20T13:42:53Z</time>
      </trkpt>
      <trkpt lat="46.53123" lon="3.76944">
        <ele>215.6</ele>
        <time>2019-08-20T13:42:54Z</time>
      </trkpt>
      <trkpt lat="46.53127" lon="3.76938">
        <ele>215.9</ele>
        <time>2019-08-20T13:42:55Z</time>
      </trkpt>
      <trkpt lat="46.5313" lon="3.76934">
        <ele>216.1</ele>
        <time>2019-08-20T13:42:56Z</time>
      </trkpt>
      <trkpt lat="46.53134" lon="3.7693">
        <ele>216.3</ele>
        <time>2019-08-20T13:42:57Z</time>
      </trkpt>
      <trkpt lat="46.53137" lon="3.76926">
        <ele>216.5</ele>
        <time>2019-08-20T13:42:58Z</time>
      </trkpt>
      <trkpt lat="46.5314" lon="3.7692">
        <ele>216.8</ele>
        <time>2019-08-20T13:42:59Z</time>
      </trkpt>
      <trkpt lat="46.53143" lon="3.76916">
        <ele>217</ele>
        <time>2019-08-20T13:43:00Z</time>
      </trkpt>
      <trkpt lat="46.53147" lon="3.76908">
        <ele>217.3</ele>
        <time>2019-08-20T13:43:02Z</time>
      </trkpt>
      <trkpt lat="46.5315" lon="3.76906">
        <ele>217.5</ele>
        <time>2019-08-20T13:43:03Z</time>
      </trkpt>
      <trkpt lat="46.53154" lon="3.76901">
        <ele>217.7</ele>
        <time>2019-08-20T13:43:05Z</time>
      </trkpt>
      <trkpt lat="46.53156" lon="3.76895">
        <ele>218</ele>
        <time>2019-08-20T13:43:07Z</time>
      </trkpt>
      <trkpt lat="46.5316" lon="3.76891">
        <ele>218.3</ele>
        <time>2019-08-20T13:43:08Z</time>
      </trkpt>
      <trkpt lat="46.53162" lon="3.76889">
        <ele>218.5</ele>
        <time>2019-08-20T13:43:09Z</time>
      </trkpt>
      <trkpt lat="46.53165" lon="3.76888">
        <ele>218.7</ele>
        <time>2019-08-20T13:43:10Z</time>
      </trkpt>
      <trkpt lat="46.53169" lon="3.76884">
        <ele>219</ele>
        <time>2019-08-20T13:43:11Z</time>
      </trkpt>
      <trkpt lat="46.53171" lon="3.76882">
        <ele>219.1</ele>
        <time>2019-08-20T13:43:12Z</time>
      </trkpt>
      <trkpt lat="46.53174" lon="3.76879">
        <ele>219.3</ele>
        <time>2019-08-20T13:43:13Z</time>
      </trkpt>
      <trkpt lat="46.53176" lon="3.76876">
        <ele>219.5</ele>
        <time>2019-08-20T13:43:14Z</time>
      </trkpt>
      <trkpt lat="46.5318" lon="3.76873">
        <ele>219.8</ele>
        <time>2019-08-20T13:43:16Z</time>
      </trkpt>
      <trkpt lat="46.53183" lon="3.7687">
        <ele>220</ele>
        <time>2019-08-20T13:43:18Z</time>
      </trkpt>
      <trkpt lat="46.53185" lon="3.76867">
        <ele>220.2</ele>
        <time>2019-08-20T13:43:20Z</time>
      </trkpt>
      <trkpt lat="46.53188" lon="3.76864">
        <ele>220.3</ele>
        <time>2019-08-20T13:43:22Z</time>
      </trkpt>
      <trkpt lat="46.5319" lon="3.76862">
        <ele>220.2</ele>
        <time>2019-08-20T13:43:23Z</time>
      </trkpt>
      <trkpt lat="46.53193" lon="3.7686">
        <ele>220.2</ele>
        <time>2019-08-20T13:43:24Z</time>
      </trkpt>
      <trkpt lat="46.53196" lon="3.76856">
        <ele>220.2</ele>
        <time>2019-08-20T13:43:25Z</time>
      </trkpt>
      <trkpt lat="46.532" lon="3.76852">
        <ele>220</ele>
        <time>2019-08-20T13:43:26Z</time>
      </trkpt>
      <trkpt lat="46.53204" lon="3.76846">
        <ele>219.8</ele>
        <time>2019-08-20T13:43:27Z</time>
      </trkpt>
      <trkpt lat="46.53207" lon="3.76841">
        <ele>219.6</ele>
        <time>2019-08-20T13:43:28Z</time>
      </trkpt>
      <trkpt lat="46.53211" lon="3.76837">
        <ele>219.4</ele>
        <time>2019-08-20T13:43:29Z</time>
      </trkpt>
      <trkpt lat="46.53215" lon="3.76832">
        <ele>219.2</ele>
        <time>2019-08-20T13:43:30Z</time>
      </trkpt>
      <trkpt lat="46.53219" lon="3.76828">
        <ele>219</ele>
        <time>2019-08-20T13:43:31Z</time>
      </trkpt>
      <trkpt lat="46.53224" lon="3.76823">
        <ele>218.9</ele>
        <time>2019-08-20T13:43:32Z</time>
      </trkpt>
      <trkpt lat="46.53229" lon="3.76818">
        <ele>218.8</ele>
        <time>2019-08-20T13:43:33Z</time>
      </trkpt>
      <trkpt lat="46.53234" lon="3.76813">
        <ele>218.6</ele>
        <time>2019-08-20T13:43:34Z</time>
      </trkpt>
      <trkpt lat="46.53239" lon="3.76808">
        <ele>218.5</ele>
        <time>2019-08-20T13:43:35Z</time>
      </trkpt>
      <trkpt lat="46.53245" lon="3.76803">
        <ele>218.3</ele>
        <time>2019-08-20T13:43:36Z</time>
      </trkpt>
      <trkpt lat="46.5325" lon="3.768">
        <ele>218.3</ele>
        <time>2019-08-20T13:43:37Z</time>
      </trkpt>
      <trkpt lat="46.53255" lon="3.76798">
        <ele>218.2</ele>
        <time>2019-08-20T13:43:38Z</time>
      </trkpt>
      <trkpt lat="46.53259" lon="3.76796">
        <ele>218.2</ele>
        <time>2019-08-20T13:43:39Z</time>
      </trkpt>
      <trkpt lat="46.53263" lon="3.76794">
        <ele>218.1</ele>
        <time>2019-08-20T13:43:40Z</time>
      </trkpt>
      <trkpt lat="46.53267" lon="3.76789">
        <ele>218.1</ele>
        <time>2019-08-20T13:43:41Z</time>
      </trkpt>
      <trkpt lat="46.53271" lon="3.76787">
        <ele>218.1</ele>
        <time>2019-08-20T13:43:42Z</time>
      </trkpt>
      <trkpt lat="46.53275" lon="3.76785">
        <ele>218</ele>
        <time>2019-08-20T13:43:43Z</time>
      </trkpt>
      <trkpt lat="46.53278" lon="3.76784">
        <ele>218</ele>
        <time>2019-08-20T13:43:44Z</time>
      </trkpt>
      <trkpt lat="46.53281" lon="3.76783">
        <ele>218</ele>
        <time>2019-08-20T13:43:45Z</time>
      </trkpt>
      <trkpt lat="46.53284" lon="3.76779">
        <ele>218</ele>
        <time>2019-08-20T13:43:46Z</time>
      </trkpt>
      <trkpt lat="46.53287" lon="3.76775">
        <ele>218</ele>
        <time>2019-08-20T13:43:47Z</time>
      </trkpt>
      <trkpt lat="46.53291" lon="3.76773">
        <ele>218</ele>
        <time>2019-08-20T13:43:48Z</time>
      </trkpt>
      <trkpt lat="46.53294" lon="3.76771">
        <ele>218</ele>
        <time>2019-08-20T13:43:49Z</time>
      </trkpt>
      <trkpt lat="46.53298" lon="3.76769">
        <ele>218</ele>
        <time>2019-08-20T13:43:50Z</time>
      </trkpt>
      <trkpt lat="46.53301" lon="3.76768">
        <ele>218</ele>
        <time>2019-08-20T13:43:51Z</time>
      </trkpt>
      <trkpt lat="46.53303" lon="3.76767">
        <ele>218</ele>
        <time>2019-08-20T13:43:52Z</time>
      </trkpt>
      <trkpt lat="46.53307" lon="3.76765">
        <ele>218</ele>
        <time>2019-08-20T13:43:53Z</time>
      </trkpt>
      <trkpt lat="46.5331" lon="3.76762">
        <ele>218</ele>
        <time>2019-08-20T13:43:54Z</time>
      </trkpt>
      <trkpt lat="46.53314" lon="3.7676">
        <ele>218</ele>
        <time>2019-08-20T13:43:55Z</time>
      </trkpt>
      <trkpt lat="46.53317" lon="3.76758">
        <ele>218</ele>
        <time>2019-08-20T13:43:56Z</time>
      </trkpt>
      <trkpt lat="46.53321" lon="3.76756">
        <ele>218</ele>
        <time>2019-08-20T13:43:57Z</time>
      </trkpt>
      <trkpt lat="46.53324" lon="3.76754">
        <ele>218</ele>
        <time>2019-08-20T13:43:58Z</time>
      </trkpt>
      <trkpt lat="46.53331" lon="3.76751">
        <ele>218.1</ele>
        <time>2019-08-20T13:44:00Z</time>
      </trkpt>
      <trkpt lat="46.53334" lon="3.76748">
        <ele>218.1</ele>
        <time>2019-08-20T13:44:01Z</time>
      </trkpt>
      <trkpt lat="46.53338" lon="3.76746">
        <ele>218.1</ele>
        <time>2019-08-20T13:44:02Z</time>
      </trkpt>
      <trkpt lat="46.53341" lon="3.76744">
        <ele>218.1</ele>
        <time>2019-08-20T13:44:03Z</time>
      </trkpt>
      <trkpt lat="46.53346" lon="3.76742">
        <ele>218.1</ele>
        <time>2019-08-20T13:44:04Z</time>
      </trkpt>
      <trkpt lat="46.53349" lon="3.76739">
        <ele>218.1</ele>
        <time>2019-08-20T13:44:05Z</time>
      </trkpt>
      <trkpt lat="46.53352" lon="3.76737">
        <ele>218.1</ele>
        <time>2019-08-20T13:44:06Z</time>
      </trkpt>
      <trkpt lat="46.53356" lon="3.76735">
        <ele>218.1</ele>
        <time>2019-08-20T13:44:07Z</time>
      </trkpt>
      <trkpt lat="46.53359" lon="3.76732">
        <ele>218.1</ele>
        <time>2019-08-20T13:44:08Z</time>
      </trkpt>
      <trkpt lat="46.53365" lon="3.76728">
        <ele>218.2</ele>
        <time>2019-08-20T13:44:10Z</time>
      </trkpt>
      <trkpt lat="46.53368" lon="3.76726">
        <ele>218.2</ele>
        <time>2019-08-20T13:44:11Z</time>
      </trkpt>
      <trkpt lat="46.53373" lon="3.76724">
        <ele>218.2</ele>
        <time>2019-08-20T13:44:12Z</time>
      </trkpt>
      <trkpt lat="46.53376" lon="3.76722">
        <ele>218.2</ele>
        <time>2019-08-20T13:44:13Z</time>
      </trkpt>
      <trkpt lat="46.5338" lon="3.76719">
        <ele>218.2</ele>
        <time>2019-08-20T13:44:14Z</time>
      </trkpt>
      <trkpt lat="46.53384" lon="3.76716">
        <ele>218.2</ele>
        <time>2019-08-20T13:44:15Z</time>
      </trkpt>
      <trkpt lat="46.53388" lon="3.76715">
        <ele>218.2</ele>
        <time>2019-08-20T13:44:16Z</time>
      </trkpt>
      <trkpt lat="46.53392" lon="3.76711">
        <ele>218.2</ele>
        <time>2019-08-20T13:44:17Z</time>
      </trkpt>
      <trkpt lat="46.53396" lon="3.76708">
        <ele>218.2</ele>
        <time>2019-08-20T13:44:18Z</time>
      </trkpt>
      <trkpt lat="46.534" lon="3.76704">
        <ele>218.2</ele>
        <time>2019-08-20T13:44:19Z</time>
      </trkpt>
      <trkpt lat="46.53404" lon="3.76701">
        <ele>218.2</ele>
        <time>2019-08-20T13:44:20Z</time>
      </trkpt>
      <trkpt lat="46.5341" lon="3.76698">
        <ele>218.2</ele>
        <time>2019-08-20T13:44:21Z</time>
      </trkpt>
      <trkpt lat="46.53413" lon="3.76694">
        <ele>218.2</ele>
        <time>2019-08-20T13:44:22Z</time>
      </trkpt>
      <trkpt lat="46.53416" lon="3.76691">
        <ele>218.2</ele>
        <time>2019-08-20T13:44:23Z</time>
      </trkpt>
      <trkpt lat="46.5342" lon="3.76688">
        <ele>218.2</ele>
        <time>2019-08-20T13:44:24Z</time>
      </trkpt>
      <trkpt lat="46.53423" lon="3.76684">
        <ele>218.2</ele>
        <time>2019-08-20T13:44:25Z</time>
      </trkpt>
      <trkpt lat="46.53427" lon="3.76681">
        <ele>218.2</ele>
        <time>2019-08-20T13:44:26Z</time>
      </trkpt>
      <trkpt lat="46.53431" lon="3.76677">
        <ele>218.2</ele>
        <time>2019-08-20T13:44:27Z</time>
      </trkpt>
      <trkpt lat="46.53436" lon="3.76674">
        <ele>218.2</ele>
        <time>2019-08-20T13:44:28Z</time>
      </trkpt>
      <trkpt lat="46.53439" lon="3.76671">
        <ele>218.2</ele>
        <time>2019-08-20T13:44:29Z</time>
      </trkpt>
      <trkpt lat="46.53442" lon="3.76666">
        <ele>218.2</ele>
        <time>2019-08-20T13:44:30Z</time>
      </trkpt>
      <trkpt lat="46.53446" lon="3.76662">
        <ele>218.2</ele>
        <time>2019-08-20T13:44:31Z</time>
      </trkpt>
      <trkpt lat="46.5345" lon="3.7666">
        <ele>218.2</ele>
        <time>2019-08-20T13:44:32Z</time>
      </trkpt>
      <trkpt lat="46.53454" lon="3.76657">
        <ele>218.2</ele>
        <time>2019-08-20T13:44:33Z</time>
      </trkpt>
      <trkpt lat="46.53457" lon="3.76652">
        <ele>218.2</ele>
        <time>2019-08-20T13:44:34Z</time>
      </trkpt>
      <trkpt lat="46.53462" lon="3.76647">
        <ele>218.2</ele>
        <time>2019-08-20T13:44:35Z</time>
      </trkpt>
      <trkpt lat="46.53465" lon="3.76643">
        <ele>218.2</ele>
        <time>2019-08-20T13:44:36Z</time>
      </trkpt>
      <trkpt lat="46.53468" lon="3.76639">
        <ele>218.2</ele>
        <time>2019-08-20T13:44:37Z</time>
      </trkpt>
      <trkpt lat="46.53472" lon="3.76635">
        <ele>218.2</ele>
        <time>2019-08-20T13:44:38Z</time>
      </trkpt>
      <trkpt lat="46.53476" lon="3.76631">
        <ele>218.1</ele>
        <time>2019-08-20T13:44:39Z</time>
      </trkpt>
      <trkpt lat="46.5348" lon="3.76626">
        <ele>218.1</ele>
        <time>2019-08-20T13:44:40Z</time>
      </trkpt>
      <trkpt lat="46.53484" lon="3.76621">
        <ele>218.1</ele>
        <time>2019-08-20T13:44:41Z</time>
      </trkpt>
      <trkpt lat="46.53488" lon="3.76617">
        <ele>218.1</ele>
        <time>2019-08-20T13:44:42Z</time>
      </trkpt>
      <trkpt lat="46.5349" lon="3.76612">
        <ele>218.1</ele>
        <time>2019-08-20T13:44:43Z</time>
      </trkpt>
      <trkpt lat="46.53495" lon="3.76607">
        <ele>218</ele>
        <time>2019-08-20T13:44:44Z</time>
      </trkpt>
      <trkpt lat="46.53499" lon="3.76604">
        <ele>218</ele>
        <time>2019-08-20T13:44:45Z</time>
      </trkpt>
      <trkpt lat="46.53503" lon="3.76598">
        <ele>218</ele>
        <time>2019-08-20T13:44:46Z</time>
      </trkpt>
      <trkpt lat="46.53507" lon="3.76593">
        <ele>218</ele>
        <time>2019-08-20T13:44:47Z</time>
      </trkpt>
      <trkpt lat="46.5351" lon="3.76588">
        <ele>218</ele>
        <time>2019-08-20T13:44:48Z</time>
      </trkpt>
      <trkpt lat="46.53514" lon="3.76583">
        <ele>218</ele>
        <time>2019-08-20T13:44:49Z</time>
      </trkpt>
      <trkpt lat="46.53518" lon="3.76579">
        <ele>218</ele>
        <time>2019-08-20T13:44:50Z</time>
      </trkpt>
      <trkpt lat="46.5352" lon="3.76574">
        <ele>218</ele>
        <time>2019-08-20T13:44:51Z</time>
      </trkpt>
      <trkpt lat="46.53524" lon="3.7657">
        <ele>217.9</ele>
        <time>2019-08-20T13:44:52Z</time>
      </trkpt>
      <trkpt lat="46.53527" lon="3.76565">
        <ele>217.9</ele>
        <time>2019-08-20T13:44:53Z</time>
      </trkpt>
      <trkpt lat="46.53532" lon="3.76559">
        <ele>217.9</ele>
        <time>2019-08-20T13:44:54Z</time>
      </trkpt>
      <trkpt lat="46.53537" lon="3.76554">
        <ele>217.9</ele>
        <time>2019-08-20T13:44:55Z</time>
      </trkpt>
      <trkpt lat="46.5354" lon="3.76548">
        <ele>217.9</ele>
        <time>2019-08-20T13:44:56Z</time>
      </trkpt>
      <trkpt lat="46.53543" lon="3.76542">
        <ele>217.9</ele>
        <time>2019-08-20T13:44:57Z</time>
      </trkpt>
      <trkpt lat="46.53547" lon="3.76537">
        <ele>218</ele>
        <time>2019-08-20T13:44:58Z</time>
      </trkpt>
      <trkpt lat="46.53551" lon="3.76531">
        <ele>218</ele>
        <time>2019-08-20T13:44:59Z</time>
      </trkpt>
      <trkpt lat="46.53555" lon="3.76526">
        <ele>218</ele>
        <time>2019-08-20T13:45:00Z</time>
      </trkpt>
      <trkpt lat="46.53559" lon="3.76521">
        <ele>218</ele>
        <time>2019-08-20T13:45:01Z</time>
      </trkpt>
      <trkpt lat="46.53562" lon="3.76517">
        <ele>218</ele>
        <time>2019-08-20T13:45:02Z</time>
      </trkpt>
      <trkpt lat="46.53566" lon="3.76512">
        <ele>218</ele>
        <time>2019-08-20T13:45:03Z</time>
      </trkpt>
      <trkpt lat="46.53571" lon="3.76507">
        <ele>218</ele>
        <time>2019-08-20T13:45:04Z</time>
      </trkpt>
      <trkpt lat="46.53575" lon="3.76504">
        <ele>218.1</ele>
        <time>2019-08-20T13:45:05Z</time>
      </trkpt>
      <trkpt lat="46.53578" lon="3.76498">
        <ele>218.1</ele>
        <time>2019-08-20T13:45:06Z</time>
      </trkpt>
      <trkpt lat="46.53582" lon="3.76493">
        <ele>218.1</ele>
        <time>2019-08-20T13:45:07Z</time>
      </trkpt>
      <trkpt lat="46.53585" lon="3.76488">
        <ele>218.1</ele>
        <time>2019-08-20T13:45:08Z</time>
      </trkpt>
      <trkpt lat="46.53588" lon="3.76484">
        <ele>218.1</ele>
        <time>2019-08-20T13:45:09Z</time>
      </trkpt>
      <trkpt lat="46.53591" lon="3.76479">
        <ele>218.1</ele>
        <time>2019-08-20T13:45:10Z</time>
      </trkpt>
      <trkpt lat="46.53594" lon="3.76475">
        <ele>218.1</ele>
        <time>2019-08-20T13:45:11Z</time>
      </trkpt>
      <trkpt lat="46.53597" lon="3.76471">
        <ele>218.1</ele>
        <time>2019-08-20T13:45:12Z</time>
      </trkpt>
      <trkpt lat="46.536" lon="3.76467">
        <ele>218.1</ele>
        <time>2019-08-20T13:45:13Z</time>
      </trkpt>
      <trkpt lat="46.53603" lon="3.76462">
        <ele>218.1</ele>
        <time>2019-08-20T13:45:14Z</time>
      </trkpt>
      <trkpt lat="46.53608" lon="3.76456">
        <ele>218.1</ele>
        <time>2019-08-20T13:45:15Z</time>
      </trkpt>
      <trkpt lat="46.53611" lon="3.7645">
        <ele>218.2</ele>
        <time>2019-08-20T13:45:16Z</time>
      </trkpt>
      <trkpt lat="46.53614" lon="3.76446">
        <ele>218.2</ele>
        <time>2019-08-20T13:45:17Z</time>
      </trkpt>
      <trkpt lat="46.53616" lon="3.76441">
        <ele>218.2</ele>
        <time>2019-08-20T13:45:18Z</time>
      </trkpt>
      <trkpt lat="46.53619" lon="3.76434">
        <ele>218.2</ele>
        <time>2019-08-20T13:45:19Z</time>
      </trkpt>
      <trkpt lat="46.53622" lon="3.7643">
        <ele>218.2</ele>
        <time>2019-08-20T13:45:20Z</time>
      </trkpt>
      <trkpt lat="46.53624" lon="3.76425">
        <ele>218.2</ele>
        <time>2019-08-20T13:45:21Z</time>
      </trkpt>
      <trkpt lat="46.53626" lon="3.7642">
        <ele>218.2</ele>
        <time>2019-08-20T13:45:22Z</time>
      </trkpt>
      <trkpt lat="46.53628" lon="3.76415">
        <ele>218.2</ele>
        <time>2019-08-20T13:45:23Z</time>
      </trkpt>
      <trkpt lat="46.5363" lon="3.7641">
        <ele>218.2</ele>
        <time>2019-08-20T13:45:24Z</time>
      </trkpt>
      <trkpt lat="46.53632" lon="3.76405">
        <ele>218.2</ele>
        <time>2019-08-20T13:45:25Z</time>
      </trkpt>
      <trkpt lat="46.53633" lon="3.76399">
        <ele>218.2</ele>
        <time>2019-08-20T13:45:26Z</time>
      </trkpt>
      <trkpt lat="46.53635" lon="3.76392">
        <ele>218.2</ele>
        <time>2019-08-20T13:45:27Z</time>
      </trkpt>
      <trkpt lat="46.53637" lon="3.76385">
        <ele>218.2</ele>
        <time>2019-08-20T13:45:28Z</time>
      </trkpt>
      <trkpt lat="46.53638" lon="3.76378">
        <ele>218.2</ele>
        <time>2019-08-20T13:45:29Z</time>
      </trkpt>
      <trkpt lat="46.5364" lon="3.76371">
        <ele>218.2</ele>
        <time>2019-08-20T13:45:30Z</time>
      </trkpt>
      <trkpt lat="46.53641" lon="3.76364">
        <ele>218.2</ele>
        <time>2019-08-20T13:45:31Z</time>
      </trkpt>
      <trkpt lat="46.53642" lon="3.76357">
        <ele>218.2</ele>
        <time>2019-08-20T13:45:32Z</time>
      </trkpt>
      <trkpt lat="46.53643" lon="3.7635">
        <ele>218.2</ele>
        <time>2019-08-20T13:45:33Z</time>
      </trkpt>
      <trkpt lat="46.53643" lon="3.76344">
        <ele>218.2</ele>
        <time>2019-08-20T13:45:34Z</time>
      </trkpt>
      <trkpt lat="46.53642" lon="3.76337">
        <ele>218.2</ele>
        <time>2019-08-20T13:45:35Z</time>
      </trkpt>
      <trkpt lat="46.53642" lon="3.7633">
        <ele>218.2</ele>
        <time>2019-08-20T13:45:36Z</time>
      </trkpt>
      <trkpt lat="46.53642" lon="3.76323">
        <ele>218.2</ele>
        <time>2019-08-20T13:45:37Z</time>
      </trkpt>
      <trkpt lat="46.53642" lon="3.76316">
        <ele>218.2</ele>
        <time>2019-08-20T13:45:38Z</time>
      </trkpt>
      <trkpt lat="46.53643" lon="3.76311">
        <ele>218.2</ele>
        <time>2019-08-20T13:45:39Z</time>
      </trkpt>
      <trkpt lat="46.53645" lon="3.76304">
        <ele>218.2</ele>
        <time>2019-08-20T13:45:40Z</time>
      </trkpt>
      <trkpt lat="46.53646" lon="3.76297">
        <ele>218.2</ele>
        <time>2019-08-20T13:45:41Z</time>
      </trkpt>
      <trkpt lat="46.53648" lon="3.76291">
        <ele>218.2</ele>
        <time>2019-08-20T13:45:42Z</time>
      </trkpt>
      <trkpt lat="46.5365" lon="3.76285">
        <ele>218.2</ele>
        <time>2019-08-20T13:45:43Z</time>
      </trkpt>
      <trkpt lat="46.53651" lon="3.76279">
        <ele>218.2</ele>
        <time>2019-08-20T13:45:44Z</time>
      </trkpt>
      <trkpt lat="46.53652" lon="3.76274">
        <ele>218.3</ele>
        <time>2019-08-20T13:45:45Z</time>
      </trkpt>
      <trkpt lat="46.53653" lon="3.76268">
        <ele>218.3</ele>
        <time>2019-08-20T13:45:46Z</time>
      </trkpt>
      <trkpt lat="46.53655" lon="3.76263">
        <ele>218.3</ele>
        <time>2019-08-20T13:45:47Z</time>
      </trkpt>
      <trkpt lat="46.53656" lon="3.76257">
        <ele>218.3</ele>
        <time>2019-08-20T13:45:48Z</time>
      </trkpt>
      <trkpt lat="46.53657" lon="3.76253">
        <ele>218.3</ele>
        <time>2019-08-20T13:45:49Z</time>
      </trkpt>
      <trkpt lat="46.53658" lon="3.76248">
        <ele>218.3</ele>
        <time>2019-08-20T13:45:50Z</time>
      </trkpt>
      <trkpt lat="46.53658" lon="3.76242">
        <ele>218.3</ele>
        <time>2019-08-20T13:45:51Z</time>
      </trkpt>
      <trkpt lat="46.53659" lon="3.76237">
        <ele>218.3</ele>
        <time>2019-08-20T13:45:52Z</time>
      </trkpt>
      <trkpt lat="46.53659" lon="3.7623">
        <ele>218.3</ele>
        <time>2019-08-20T13:45:53Z</time>
      </trkpt>
      <trkpt lat="46.5366" lon="3.76221">
        <ele>218.3</ele>
        <time>2019-08-20T13:45:54Z</time>
      </trkpt>
      <trkpt lat="46.5366" lon="3.76214">
        <ele>218.3</ele>
        <time>2019-08-20T13:45:55Z</time>
      </trkpt>
      <trkpt lat="46.5366" lon="3.76203">
        <ele>218.3</ele>
        <time>2019-08-20T13:45:56Z</time>
      </trkpt>
      <trkpt lat="46.5366" lon="3.76196">
        <ele>218.3</ele>
        <time>2019-08-20T13:45:57Z</time>
      </trkpt>
      <trkpt lat="46.53659" lon="3.76189">
        <ele>218.3</ele>
        <time>2019-08-20T13:45:58Z</time>
      </trkpt>
      <trkpt lat="46.53658" lon="3.76181">
        <ele>218.3</ele>
        <time>2019-08-20T13:45:59Z</time>
      </trkpt>
      <trkpt lat="46.53656" lon="3.76174">
        <ele>218.3</ele>
        <time>2019-08-20T13:46:00Z</time>
      </trkpt>
      <trkpt lat="46.53654" lon="3.76167">
        <ele>218.3</ele>
        <time>2019-08-20T13:46:01Z</time>
      </trkpt>
      <trkpt lat="46.53653" lon="3.76158">
        <ele>218.3</ele>
        <time>2019-08-20T13:46:02Z</time>
      </trkpt>
      <trkpt lat="46.53651" lon="3.7615">
        <ele>218.3</ele>
        <time>2019-08-20T13:46:03Z</time>
      </trkpt>
      <trkpt lat="46.5365" lon="3.76142">
        <ele>218.2</ele>
        <time>2019-08-20T13:46:04Z</time>
      </trkpt>
      <trkpt lat="46.5365" lon="3.76136">
        <ele>218.2</ele>
        <time>2019-08-20T13:46:05Z</time>
      </trkpt>
      <trkpt lat="46.53649" lon="3.7613">
        <ele>218.2</ele>
        <time>2019-08-20T13:46:06Z</time>
      </trkpt>
      <trkpt lat="46.53648" lon="3.76123">
        <ele>218.2</ele>
        <time>2019-08-20T13:46:07Z</time>
      </trkpt>
      <trkpt lat="46.53646" lon="3.76116">
        <ele>218.2</ele>
        <time>2019-08-20T13:46:08Z</time>
      </trkpt>
      <trkpt lat="46.53645" lon="3.7611">
        <ele>218.1</ele>
        <time>2019-08-20T13:46:09Z</time>
      </trkpt>
      <trkpt lat="46.53644" lon="3.76104">
        <ele>218.1</ele>
        <time>2019-08-20T13:46:10Z</time>
      </trkpt>
      <trkpt lat="46.53643" lon="3.76097">
        <ele>218</ele>
        <time>2019-08-20T13:46:11Z</time>
      </trkpt>
      <trkpt lat="46.53642" lon="3.7609">
        <ele>218</ele>
        <time>2019-08-20T13:46:12Z</time>
      </trkpt>
      <trkpt lat="46.5364" lon="3.76084">
        <ele>217.9</ele>
        <time>2019-08-20T13:46:13Z</time>
      </trkpt>
      <trkpt lat="46.53639" lon="3.76077">
        <ele>217.8</ele>
        <time>2019-08-20T13:46:14Z</time>
      </trkpt>
      <trkpt lat="46.53638" lon="3.7607">
        <ele>217.8</ele>
        <time>2019-08-20T13:46:15Z</time>
      </trkpt>
      <trkpt lat="46.53636" lon="3.76064">
        <ele>217.6</ele>
        <time>2019-08-20T13:46:16Z</time>
      </trkpt>
      <trkpt lat="46.53635" lon="3.76057">
        <ele>217.4</ele>
        <time>2019-08-20T13:46:17Z</time>
      </trkpt>
      <trkpt lat="46.53633" lon="3.7605">
        <ele>217.1</ele>
        <time>2019-08-20T13:46:18Z</time>
      </trkpt>
      <trkpt lat="46.53632" lon="3.76043">
        <ele>217</ele>
        <time>2019-08-20T13:46:19Z</time>
      </trkpt>
      <trkpt lat="46.53631" lon="3.76036">
        <ele>216.9</ele>
        <time>2019-08-20T13:46:20Z</time>
      </trkpt>
      <trkpt lat="46.53631" lon="3.76029">
        <ele>216.8</ele>
        <time>2019-08-20T13:46:21Z</time>
      </trkpt>
      <trkpt lat="46.5363" lon="3.76022">
        <ele>216.8</ele>
        <time>2019-08-20T13:46:22Z</time>
      </trkpt>
      <trkpt lat="46.53628" lon="3.76016">
        <ele>216.8</ele>
        <time>2019-08-20T13:46:23Z</time>
      </trkpt>
      <trkpt lat="46.53627" lon="3.76009">
        <ele>216.8</ele>
        <time>2019-08-20T13:46:24Z</time>
      </trkpt>
      <trkpt lat="46.53625" lon="3.76003">
        <ele>216.8</ele>
        <time>2019-08-20T13:46:25Z</time>
      </trkpt>
      <trkpt lat="46.53624" lon="3.75998">
        <ele>216.8</ele>
        <time>2019-08-20T13:46:26Z</time>
      </trkpt>
      <trkpt lat="46.53624" lon="3.75992">
        <ele>216.8</ele>
        <time>2019-08-20T13:46:27Z</time>
      </trkpt>
      <trkpt lat="46.53623" lon="3.75987">
        <ele>216.8</ele>
        <time>2019-08-20T13:46:28Z</time>
      </trkpt>
      <trkpt lat="46.53622" lon="3.75981">
        <ele>216.8</ele>
        <time>2019-08-20T13:46:29Z</time>
      </trkpt>
      <trkpt lat="46.53621" lon="3.75975">
        <ele>216.9</ele>
        <time>2019-08-20T13:46:30Z</time>
      </trkpt>
      <trkpt lat="46.5362" lon="3.75968">
        <ele>216.9</ele>
        <time>2019-08-20T13:46:31Z</time>
      </trkpt>
      <trkpt lat="46.53619" lon="3.75962">
        <ele>217</ele>
        <time>2019-08-20T13:46:32Z</time>
      </trkpt>
      <trkpt lat="46.53617" lon="3.75956">
        <ele>217.1</ele>
        <time>2019-08-20T13:46:33Z</time>
      </trkpt>
      <trkpt lat="46.53616" lon="3.75948">
        <ele>217.2</ele>
        <time>2019-08-20T13:46:34Z</time>
      </trkpt>
      <trkpt lat="46.53615" lon="3.75942">
        <ele>217.3</ele>
        <time>2019-08-20T13:46:35Z</time>
      </trkpt>
      <trkpt lat="46.53614" lon="3.75935">
        <ele>217.5</ele>
        <time>2019-08-20T13:46:36Z</time>
      </trkpt>
      <trkpt lat="46.53613" lon="3.75927">
        <ele>217.5</ele>
        <time>2019-08-20T13:46:37Z</time>
      </trkpt>
      <trkpt lat="46.53612" lon="3.75919">
        <ele>217.6</ele>
        <time>2019-08-20T13:46:38Z</time>
      </trkpt>
      <trkpt lat="46.5361" lon="3.75913">
        <ele>217.5</ele>
        <time>2019-08-20T13:46:39Z</time>
      </trkpt>
      <trkpt lat="46.53609" lon="3.75905">
        <ele>217.4</ele>
        <time>2019-08-20T13:46:40Z</time>
      </trkpt>
      <trkpt lat="46.53607" lon="3.75898">
        <ele>217.3</ele>
        <time>2019-08-20T13:46:41Z</time>
      </trkpt>
      <trkpt lat="46.53605" lon="3.75892">
        <ele>217.2</ele>
        <time>2019-08-20T13:46:42Z</time>
      </trkpt>
      <trkpt lat="46.53602" lon="3.75885">
        <ele>217.1</ele>
        <time>2019-08-20T13:46:43Z</time>
      </trkpt>
      <trkpt lat="46.536" lon="3.75878">
        <ele>217</ele>
        <time>2019-08-20T13:46:44Z</time>
      </trkpt>
      <trkpt lat="46.53598" lon="3.75871">
        <ele>217</ele>
        <time>2019-08-20T13:46:45Z</time>
      </trkpt>
      <trkpt lat="46.53596" lon="3.75864">
        <ele>217</ele>
        <time>2019-08-20T13:46:46Z</time>
      </trkpt>
      <trkpt lat="46.53593" lon="3.75858">
        <ele>216.9</ele>
        <time>2019-08-20T13:46:47Z</time>
      </trkpt>
      <trkpt lat="46.5359" lon="3.75852">
        <ele>216.9</ele>
        <time>2019-08-20T13:46:48Z</time>
      </trkpt>
      <trkpt lat="46.53587" lon="3.75845">
        <ele>216.9</ele>
        <time>2019-08-20T13:46:49Z</time>
      </trkpt>
      <trkpt lat="46.53585" lon="3.75839">
        <ele>216.9</ele>
        <time>2019-08-20T13:46:50Z</time>
      </trkpt>
      <trkpt lat="46.53581" lon="3.7583">
        <ele>216.9</ele>
        <time>2019-08-20T13:46:51Z</time>
      </trkpt>
      <trkpt lat="46.53579" lon="3.75824">
        <ele>216.9</ele>
        <time>2019-08-20T13:46:52Z</time>
      </trkpt>
      <trkpt lat="46.53576" lon="3.75817">
        <ele>216.8</ele>
        <time>2019-08-20T13:46:53Z</time>
      </trkpt>
      <trkpt lat="46.53574" lon="3.7581">
        <ele>216.8</ele>
        <time>2019-08-20T13:46:54Z</time>
      </trkpt>
      <trkpt lat="46.5357" lon="3.75804">
        <ele>216.9</ele>
        <time>2019-08-20T13:46:55Z</time>
      </trkpt>
      <trkpt lat="46.53567" lon="3.75798">
        <ele>216.9</ele>
        <time>2019-08-20T13:46:56Z</time>
      </trkpt>
      <trkpt lat="46.53563" lon="3.75793">
        <ele>216.9</ele>
        <time>2019-08-20T13:46:57Z</time>
      </trkpt>
      <trkpt lat="46.53561" lon="3.75787">
        <ele>216.9</ele>
        <time>2019-08-20T13:46:58Z</time>
      </trkpt>
      <trkpt lat="46.53558" lon="3.75782">
        <ele>217</ele>
        <time>2019-08-20T13:46:59Z</time>
      </trkpt>
      <trkpt lat="46.53555" lon="3.75776">
        <ele>217</ele>
        <time>2019-08-20T13:47:00Z</time>
      </trkpt>
      <trkpt lat="46.53552" lon="3.75769">
        <ele>217.1</ele>
        <time>2019-08-20T13:47:01Z</time>
      </trkpt>
      <trkpt lat="46.53548" lon="3.75763">
        <ele>217.1</ele>
        <time>2019-08-20T13:47:02Z</time>
      </trkpt>
      <trkpt lat="46.53546" lon="3.75758">
        <ele>217.2</ele>
        <time>2019-08-20T13:47:03Z</time>
      </trkpt>
      <trkpt lat="46.53541" lon="3.75751">
        <ele>217.2</ele>
        <time>2019-08-20T13:47:04Z</time>
      </trkpt>
      <trkpt lat="46.53539" lon="3.75747">
        <ele>217.3</ele>
        <time>2019-08-20T13:47:05Z</time>
      </trkpt>
      <trkpt lat="46.53535" lon="3.75741">
        <ele>217.3</ele>
        <time>2019-08-20T13:47:06Z</time>
      </trkpt>
      <trkpt lat="46.53531" lon="3.75735">
        <ele>217.3</ele>
        <time>2019-08-20T13:47:07Z</time>
      </trkpt>
      <trkpt lat="46.53528" lon="3.75728">
        <ele>217.4</ele>
        <time>2019-08-20T13:47:08Z</time>
      </trkpt>
      <trkpt lat="46.53524" lon="3.75723">
        <ele>217.4</ele>
        <time>2019-08-20T13:47:09Z</time>
      </trkpt>
      <trkpt lat="46.5352" lon="3.75718">
        <ele>217.3</ele>
        <time>2019-08-20T13:47:10Z</time>
      </trkpt>
      <trkpt lat="46.53516" lon="3.75713">
        <ele>217.3</ele>
        <time>2019-08-20T13:47:11Z</time>
      </trkpt>
      <trkpt lat="46.53513" lon="3.75708">
        <ele>217.3</ele>
        <time>2019-08-20T13:47:12Z</time>
      </trkpt>
      <trkpt lat="46.53509" lon="3.75703">
        <ele>217.2</ele>
        <time>2019-08-20T13:47:13Z</time>
      </trkpt>
      <trkpt lat="46.53505" lon="3.75697">
        <ele>217.2</ele>
        <time>2019-08-20T13:47:14Z</time>
      </trkpt>
      <trkpt lat="46.53503" lon="3.75692">
        <ele>217.3</ele>
        <time>2019-08-20T13:47:15Z</time>
      </trkpt>
      <trkpt lat="46.535" lon="3.75686">
        <ele>217.3</ele>
        <time>2019-08-20T13:47:16Z</time>
      </trkpt>
      <trkpt lat="46.53497" lon="3.75682">
        <ele>217.5</ele>
        <time>2019-08-20T13:47:17Z</time>
      </trkpt>
      <trkpt lat="46.53493" lon="3.75677">
        <ele>217.7</ele>
        <time>2019-08-20T13:47:18Z</time>
      </trkpt>
      <trkpt lat="46.5349" lon="3.75674">
        <ele>217.8</ele>
        <time>2019-08-20T13:47:19Z</time>
      </trkpt>
      <trkpt lat="46.53486" lon="3.75669">
        <ele>218.1</ele>
        <time>2019-08-20T13:47:20Z</time>
      </trkpt>
      <trkpt lat="46.53483" lon="3.75664">
        <ele>218.3</ele>
        <time>2019-08-20T13:47:21Z</time>
      </trkpt>
      <trkpt lat="46.5348" lon="3.75659">
        <ele>218.4</ele>
        <time>2019-08-20T13:47:22Z</time>
      </trkpt>
      <trkpt lat="46.53477" lon="3.75656">
        <ele>218.6</ele>
        <time>2019-08-20T13:47:23Z</time>
      </trkpt>
      <trkpt lat="46.53473" lon="3.75651">
        <ele>218.7</ele>
        <time>2019-08-20T13:47:24Z</time>
      </trkpt>
      <trkpt lat="46.5347" lon="3.75646">
        <ele>218.8</ele>
        <time>2019-08-20T13:47:25Z</time>
      </trkpt>
      <trkpt lat="46.53467" lon="3.7564">
        <ele>218.8</ele>
        <time>2019-08-20T13:47:26Z</time>
      </trkpt>
      <trkpt lat="46.53464" lon="3.75634">
        <ele>218.9</ele>
        <time>2019-08-20T13:47:27Z</time>
      </trkpt>
      <trkpt lat="46.5346" lon="3.75629">
        <ele>218.9</ele>
        <time>2019-08-20T13:47:28Z</time>
      </trkpt>
      <trkpt lat="46.53458" lon="3.75624">
        <ele>218.9</ele>
        <time>2019-08-20T13:47:29Z</time>
      </trkpt>
      <trkpt lat="46.53455" lon="3.75619">
        <ele>218.8</ele>
        <time>2019-08-20T13:47:30Z</time>
      </trkpt>
      <trkpt lat="46.53452" lon="3.75614">
        <ele>218.8</ele>
        <time>2019-08-20T13:47:31Z</time>
      </trkpt>
      <trkpt lat="46.53449" lon="3.75609">
        <ele>218.7</ele>
        <time>2019-08-20T13:47:32Z</time>
      </trkpt>
      <trkpt lat="46.53446" lon="3.75603">
        <ele>218.6</ele>
        <time>2019-08-20T13:47:33Z</time>
      </trkpt>
      <trkpt lat="46.53443" lon="3.75598">
        <ele>218.6</ele>
        <time>2019-08-20T13:47:34Z</time>
      </trkpt>
      <trkpt lat="46.53439" lon="3.75593">
        <ele>218.5</ele>
        <time>2019-08-20T13:47:35Z</time>
      </trkpt>
      <trkpt lat="46.53436" lon="3.75589">
        <ele>218.5</ele>
        <time>2019-08-20T13:47:36Z</time>
      </trkpt>
      <trkpt lat="46.53433" lon="3.75584">
        <ele>218.5</ele>
        <time>2019-08-20T13:47:37Z</time>
      </trkpt>
      <trkpt lat="46.53429" lon="3.75579">
        <ele>218.5</ele>
        <time>2019-08-20T13:47:38Z</time>
      </trkpt>
      <trkpt lat="46.53426" lon="3.75574">
        <ele>218.6</ele>
        <time>2019-08-20T13:47:39Z</time>
      </trkpt>
      <trkpt lat="46.53423" lon="3.75569">
        <ele>218.6</ele>
        <time>2019-08-20T13:47:40Z</time>
      </trkpt>
      <trkpt lat="46.53419" lon="3.75564">
        <ele>218.7</ele>
        <time>2019-08-20T13:47:41Z</time>
      </trkpt>
      <trkpt lat="46.53416" lon="3.75559">
        <ele>218.7</ele>
        <time>2019-08-20T13:47:42Z</time>
      </trkpt>
      <trkpt lat="46.53413" lon="3.75554">
        <ele>218.8</ele>
        <time>2019-08-20T13:47:43Z</time>
      </trkpt>
      <trkpt lat="46.5341" lon="3.7555">
        <ele>218.9</ele>
        <time>2019-08-20T13:47:44Z</time>
      </trkpt>
      <trkpt lat="46.53406" lon="3.75545">
        <ele>218.9</ele>
        <time>2019-08-20T13:47:45Z</time>
      </trkpt>
      <trkpt lat="46.53403" lon="3.7554">
        <ele>219</ele>
        <time>2019-08-20T13:47:46Z</time>
      </trkpt>
      <trkpt lat="46.534" lon="3.75536">
        <ele>219.1</ele>
        <time>2019-08-20T13:47:47Z</time>
      </trkpt>
      <trkpt lat="46.53396" lon="3.75531">
        <ele>219.1</ele>
        <time>2019-08-20T13:47:48Z</time>
      </trkpt>
      <trkpt lat="46.53392" lon="3.75526">
        <ele>219.2</ele>
        <time>2019-08-20T13:47:49Z</time>
      </trkpt>
      <trkpt lat="46.53388" lon="3.75521">
        <ele>219.2</ele>
        <time>2019-08-20T13:47:50Z</time>
      </trkpt>
      <trkpt lat="46.53385" lon="3.75516">
        <ele>219.3</ele>
        <time>2019-08-20T13:47:51Z</time>
      </trkpt>
      <trkpt lat="46.53382" lon="3.75512">
        <ele>219.3</ele>
        <time>2019-08-20T13:47:52Z</time>
      </trkpt>
      <trkpt lat="46.5338" lon="3.75509">
        <ele>219.3</ele>
        <time>2019-08-20T13:47:53Z</time>
      </trkpt>
      <trkpt lat="46.53378" lon="3.75504">
        <ele>219.4</ele>
        <time>2019-08-20T13:47:54Z</time>
      </trkpt>
      <trkpt lat="46.53375" lon="3.75499">
        <ele>219.4</ele>
        <time>2019-08-20T13:47:55Z</time>
      </trkpt>
      <trkpt lat="46.53373" lon="3.75494">
        <ele>219.4</ele>
        <time>2019-08-20T13:47:56Z</time>
      </trkpt>
      <trkpt lat="46.5337" lon="3.75489">
        <ele>219.4</ele>
        <time>2019-08-20T13:47:57Z</time>
      </trkpt>
      <trkpt lat="46.53368" lon="3.75484">
        <ele>219.5</ele>
        <time>2019-08-20T13:47:58Z</time>
      </trkpt>
      <trkpt lat="46.53364" lon="3.75477">
        <ele>219.5</ele>
        <time>2019-08-20T13:47:59Z</time>
      </trkpt>
      <trkpt lat="46.5336" lon="3.75469">
        <ele>219.5</ele>
        <time>2019-08-20T13:48:00Z</time>
      </trkpt>
      <trkpt lat="46.53356" lon="3.75463">
        <ele>219.6</ele>
        <time>2019-08-20T13:48:01Z</time>
      </trkpt>
      <trkpt lat="46.53353" lon="3.75458">
        <ele>219.6</ele>
        <time>2019-08-20T13:48:02Z</time>
      </trkpt>
      <trkpt lat="46.5335" lon="3.75454">
        <ele>219.6</ele>
        <time>2019-08-20T13:48:03Z</time>
      </trkpt>
      <trkpt lat="46.53346" lon="3.75446">
        <ele>219.7</ele>
        <time>2019-08-20T13:48:04Z</time>
      </trkpt>
      <trkpt lat="46.53342" lon="3.75441">
        <ele>219.8</ele>
        <time>2019-08-20T13:48:05Z</time>
      </trkpt>
      <trkpt lat="46.53339" lon="3.75435">
        <ele>219.8</ele>
        <time>2019-08-20T13:48:06Z</time>
      </trkpt>
      <trkpt lat="46.53336" lon="3.7543">
        <ele>219.9</ele>
        <time>2019-08-20T13:48:07Z</time>
      </trkpt>
      <trkpt lat="46.53332" lon="3.75424">
        <ele>220</ele>
        <time>2019-08-20T13:48:08Z</time>
      </trkpt>
      <trkpt lat="46.53329" lon="3.75419">
        <ele>220</ele>
        <time>2019-08-20T13:48:09Z</time>
      </trkpt>
      <trkpt lat="46.53326" lon="3.75414">
        <ele>220.1</ele>
        <time>2019-08-20T13:48:10Z</time>
      </trkpt>
      <trkpt lat="46.53323" lon="3.7541">
        <ele>220.2</ele>
        <time>2019-08-20T13:48:11Z</time>
      </trkpt>
      <trkpt lat="46.53321" lon="3.75405">
        <ele>220.3</ele>
        <time>2019-08-20T13:48:12Z</time>
      </trkpt>
      <trkpt lat="46.53318" lon="3.754">
        <ele>220.4</ele>
        <time>2019-08-20T13:48:13Z</time>
      </trkpt>
      <trkpt lat="46.53315" lon="3.75395">
        <ele>220.5</ele>
        <time>2019-08-20T13:48:14Z</time>
      </trkpt>
      <trkpt lat="46.53312" lon="3.75392">
        <ele>220.6</ele>
        <time>2019-08-20T13:48:15Z</time>
      </trkpt>
      <trkpt lat="46.5331" lon="3.75386">
        <ele>220.7</ele>
        <time>2019-08-20T13:48:16Z</time>
      </trkpt>
      <trkpt lat="46.53308" lon="3.75381">
        <ele>220.8</ele>
        <time>2019-08-20T13:48:17Z</time>
      </trkpt>
      <trkpt lat="46.53306" lon="3.75374">
        <ele>220.9</ele>
        <time>2019-08-20T13:48:18Z</time>
      </trkpt>
      <trkpt lat="46.53304" lon="3.75367">
        <ele>221</ele>
        <time>2019-08-20T13:48:19Z</time>
      </trkpt>
      <trkpt lat="46.53302" lon="3.7536">
        <ele>221.3</ele>
        <time>2019-08-20T13:48:20Z</time>
      </trkpt>
      <trkpt lat="46.533" lon="3.75354">
        <ele>220.6</ele>
        <time>2019-08-20T13:48:21Z</time>
      </trkpt>
      <trkpt lat="46.53298" lon="3.75347">
        <ele>219.9</ele>
        <time>2019-08-20T13:48:22Z</time>
      </trkpt>
      <trkpt lat="46.53296" lon="3.75341">
        <ele>219.4</ele>
        <time>2019-08-20T13:48:23Z</time>
      </trkpt>
      <trkpt lat="46.53295" lon="3.75336">
        <ele>219.1</ele>
        <time>2019-08-20T13:48:24Z</time>
      </trkpt>
      <trkpt lat="46.53293" lon="3.7533">
        <ele>218.8</ele>
        <time>2019-08-20T13:48:25Z</time>
      </trkpt>
      <trkpt lat="46.53292" lon="3.75324">
        <ele>218.6</ele>
        <time>2019-08-20T13:48:26Z</time>
      </trkpt>
      <trkpt lat="46.53291" lon="3.75318">
        <ele>218.5</ele>
        <time>2019-08-20T13:48:27Z</time>
      </trkpt>
      <trkpt lat="46.53289" lon="3.75312">
        <ele>218.4</ele>
        <time>2019-08-20T13:48:28Z</time>
      </trkpt>
      <trkpt lat="46.53288" lon="3.75306">
        <ele>218.4</ele>
        <time>2019-08-20T13:48:29Z</time>
      </trkpt>
      <trkpt lat="46.53286" lon="3.75299">
        <ele>218.4</ele>
        <time>2019-08-20T13:48:30Z</time>
      </trkpt>
      <trkpt lat="46.53285" lon="3.75291">
        <ele>218.3</ele>
        <time>2019-08-20T13:48:31Z</time>
      </trkpt>
      <trkpt lat="46.53284" lon="3.75284">
        <ele>218.3</ele>
        <time>2019-08-20T13:48:32Z</time>
      </trkpt>
      <trkpt lat="46.53282" lon="3.75278">
        <ele>218.2</ele>
        <time>2019-08-20T13:48:33Z</time>
      </trkpt>
      <trkpt lat="46.53282" lon="3.75271">
        <ele>218.1</ele>
        <time>2019-08-20T13:48:34Z</time>
      </trkpt>
      <trkpt lat="46.53281" lon="3.75266">
        <ele>218</ele>
        <time>2019-08-20T13:48:35Z</time>
      </trkpt>
      <trkpt lat="46.5328" lon="3.75259">
        <ele>217.9</ele>
        <time>2019-08-20T13:48:36Z</time>
      </trkpt>
      <trkpt lat="46.53278" lon="3.75251">
        <ele>217.8</ele>
        <time>2019-08-20T13:48:37Z</time>
      </trkpt>
      <trkpt lat="46.53277" lon="3.75243">
        <ele>217.7</ele>
        <time>2019-08-20T13:48:38Z</time>
      </trkpt>
      <trkpt lat="46.53277" lon="3.75233">
        <ele>217.7</ele>
        <time>2019-08-20T13:48:39Z</time>
      </trkpt>
      <trkpt lat="46.53277" lon="3.75224">
        <ele>217.6</ele>
        <time>2019-08-20T13:48:40Z</time>
      </trkpt>
      <trkpt lat="46.53277" lon="3.75215">
        <ele>217.6</ele>
        <time>2019-08-20T13:48:41Z</time>
      </trkpt>
      <trkpt lat="46.53278" lon="3.75206">
        <ele>217.6</ele>
        <time>2019-08-20T13:48:42Z</time>
      </trkpt>
      <trkpt lat="46.53277" lon="3.75197">
        <ele>217.7</ele>
        <time>2019-08-20T13:48:43Z</time>
      </trkpt>
      <trkpt lat="46.53277" lon="3.75189">
        <ele>217.7</ele>
        <time>2019-08-20T13:48:44Z</time>
      </trkpt>
      <trkpt lat="46.53276" lon="3.75181">
        <ele>217.7</ele>
        <time>2019-08-20T13:48:45Z</time>
      </trkpt>
      <trkpt lat="46.53275" lon="3.75173">
        <ele>217.7</ele>
        <time>2019-08-20T13:48:46Z</time>
      </trkpt>
      <trkpt lat="46.53276" lon="3.75165">
        <ele>217.7</ele>
        <time>2019-08-20T13:48:47Z</time>
      </trkpt>
      <trkpt lat="46.53276" lon="3.75157">
        <ele>217.7</ele>
        <time>2019-08-20T13:48:48Z</time>
      </trkpt>
      <trkpt lat="46.53275" lon="3.75149">
        <ele>217.8</ele>
        <time>2019-08-20T13:48:49Z</time>
      </trkpt>
      <trkpt lat="46.53274" lon="3.75142">
        <ele>217.8</ele>
        <time>2019-08-20T13:48:50Z</time>
      </trkpt>
      <trkpt lat="46.53273" lon="3.75136">
        <ele>217.8</ele>
        <time>2019-08-20T13:48:51Z</time>
      </trkpt>
      <trkpt lat="46.53273" lon="3.7513">
        <ele>217.8</ele>
        <time>2019-08-20T13:48:52Z</time>
      </trkpt>
      <trkpt lat="46.53273" lon="3.75124">
        <ele>217.8</ele>
        <time>2019-08-20T13:48:53Z</time>
      </trkpt>
      <trkpt lat="46.53273" lon="3.75117">
        <ele>217.8</ele>
        <time>2019-08-20T13:48:54Z</time>
      </trkpt>
      <trkpt lat="46.53273" lon="3.75107">
        <ele>217.9</ele>
        <time>2019-08-20T13:48:55Z</time>
      </trkpt>
      <trkpt lat="46.53272" lon="3.75101">
        <ele>217.9</ele>
        <time>2019-08-20T13:48:56Z</time>
      </trkpt>
      <trkpt lat="46.53272" lon="3.75094">
        <ele>217.9</ele>
        <time>2019-08-20T13:48:57Z</time>
      </trkpt>
      <trkpt lat="46.53272" lon="3.75087">
        <ele>217.9</ele>
        <time>2019-08-20T13:48:58Z</time>
      </trkpt>
      <trkpt lat="46.53272" lon="3.7508">
        <ele>217.9</ele>
        <time>2019-08-20T13:48:59Z</time>
      </trkpt>
      <trkpt lat="46.53272" lon="3.75074">
        <ele>217.9</ele>
        <time>2019-08-20T13:49:00Z</time>
      </trkpt>
      <trkpt lat="46.53272" lon="3.75067">
        <ele>218</ele>
        <time>2019-08-20T13:49:01Z</time>
      </trkpt>
      <trkpt lat="46.53272" lon="3.75058">
        <ele>218</ele>
        <time>2019-08-20T13:49:02Z</time>
      </trkpt>
      <trkpt lat="46.53271" lon="3.75051">
        <ele>218</ele>
        <time>2019-08-20T13:49:03Z</time>
      </trkpt>
      <trkpt lat="46.53271" lon="3.75044">
        <ele>218</ele>
        <time>2019-08-20T13:49:04Z</time>
      </trkpt>
      <trkpt lat="46.53269" lon="3.75037">
        <ele>218</ele>
        <time>2019-08-20T13:49:05Z</time>
      </trkpt>
      <trkpt lat="46.53267" lon="3.75031">
        <ele>218</ele>
        <time>2019-08-20T13:49:06Z</time>
      </trkpt>
      <trkpt lat="46.53266" lon="3.75026">
        <ele>218.1</ele>
        <time>2019-08-20T13:49:07Z</time>
      </trkpt>
      <trkpt lat="46.53264" lon="3.7502">
        <ele>218.1</ele>
        <time>2019-08-20T13:49:08Z</time>
      </trkpt>
      <trkpt lat="46.5326" lon="3.75015">
        <ele>218.1</ele>
        <time>2019-08-20T13:49:09Z</time>
      </trkpt>
      <trkpt lat="46.53256" lon="3.75012">
        <ele>218.2</ele>
        <time>2019-08-20T13:49:10Z</time>
      </trkpt>
      <trkpt lat="46.53251" lon="3.75009">
        <ele>218.2</ele>
        <time>2019-08-20T13:49:11Z</time>
      </trkpt>
      <trkpt lat="46.53246" lon="3.75006">
        <ele>218.2</ele>
        <time>2019-08-20T13:49:12Z</time>
      </trkpt>
      <trkpt lat="46.53241" lon="3.75002">
        <ele>218.2</ele>
        <time>2019-08-20T13:49:13Z</time>
      </trkpt>
      <trkpt lat="46.53236" lon="3.74999">
        <ele>218.3</ele>
        <time>2019-08-20T13:49:14Z</time>
      </trkpt>
      <trkpt lat="46.53231" lon="3.74996">
        <ele>218.3</ele>
        <time>2019-08-20T13:49:15Z</time>
      </trkpt>
      <trkpt lat="46.53226" lon="3.74993">
        <ele>218.3</ele>
        <time>2019-08-20T13:49:16Z</time>
      </trkpt>
      <trkpt lat="46.53223" lon="3.74992">
        <ele>218.3</ele>
        <time>2019-08-20T13:49:17Z</time>
      </trkpt>
      <trkpt lat="46.53219" lon="3.7499">
        <ele>218.3</ele>
        <time>2019-08-20T13:49:18Z</time>
      </trkpt>
      <trkpt lat="46.53215" lon="3.74987">
        <ele>218.3</ele>
        <time>2019-08-20T13:49:19Z</time>
      </trkpt>
      <trkpt lat="46.53212" lon="3.74984">
        <ele>218.3</ele>
        <time>2019-08-20T13:49:20Z</time>
      </trkpt>
      <trkpt lat="46.53209" lon="3.7498">
        <ele>218.2</ele>
        <time>2019-08-20T13:49:21Z</time>
      </trkpt>
      <trkpt lat="46.53205" lon="3.74974">
        <ele>218.2</ele>
        <time>2019-08-20T13:49:22Z</time>
      </trkpt>
      <trkpt lat="46.53201" lon="3.74967">
        <ele>218.2</ele>
        <time>2019-08-20T13:49:23Z</time>
      </trkpt>
      <trkpt lat="46.53198" lon="3.74961">
        <ele>218.2</ele>
        <time>2019-08-20T13:49:24Z</time>
      </trkpt>
      <trkpt lat="46.53196" lon="3.74955">
        <ele>218.2</ele>
        <time>2019-08-20T13:49:25Z</time>
      </trkpt>
      <trkpt lat="46.53196" lon="3.74951">
        <ele>218.2</ele>
        <time>2019-08-20T13:49:26Z</time>
      </trkpt>
      <trkpt lat="46.53196" lon="3.74945">
        <ele>218.1</ele>
        <time>2019-08-20T13:49:27Z</time>
      </trkpt>
      <trkpt lat="46.53195" lon="3.74938">
        <ele>218.1</ele>
        <time>2019-08-20T13:49:28Z</time>
      </trkpt>
      <trkpt lat="46.53195" lon="3.74931">
        <ele>218.1</ele>
        <time>2019-08-20T13:49:29Z</time>
      </trkpt>
      <trkpt lat="46.53195" lon="3.74924">
        <ele>218.1</ele>
        <time>2019-08-20T13:49:30Z</time>
      </trkpt>
      <trkpt lat="46.53194" lon="3.74918">
        <ele>218.1</ele>
        <time>2019-08-20T13:49:31Z</time>
      </trkpt>
      <trkpt lat="46.53194" lon="3.74909">
        <ele>218</ele>
        <time>2019-08-20T13:49:32Z</time>
      </trkpt>
      <trkpt lat="46.53194" lon="3.74902">
        <ele>218</ele>
        <time>2019-08-20T13:49:33Z</time>
      </trkpt>
      <trkpt lat="46.53194" lon="3.74896">
        <ele>218</ele>
        <time>2019-08-20T13:49:34Z</time>
      </trkpt>
      <trkpt lat="46.53193" lon="3.74889">
        <ele>218</ele>
        <time>2019-08-20T13:49:35Z</time>
      </trkpt>
      <trkpt lat="46.53192" lon="3.74881">
        <ele>218</ele>
        <time>2019-08-20T13:49:36Z</time>
      </trkpt>
      <trkpt lat="46.53192" lon="3.74873">
        <ele>217.9</ele>
        <time>2019-08-20T13:49:37Z</time>
      </trkpt>
      <trkpt lat="46.53192" lon="3.74866">
        <ele>217.9</ele>
        <time>2019-08-20T13:49:38Z</time>
      </trkpt>
      <trkpt lat="46.53193" lon="3.74858">
        <ele>217.9</ele>
        <time>2019-08-20T13:49:39Z</time>
      </trkpt>
      <trkpt lat="46.53193" lon="3.74851">
        <ele>217.9</ele>
        <time>2019-08-20T13:49:40Z</time>
      </trkpt>
      <trkpt lat="46.53193" lon="3.74844">
        <ele>217.9</ele>
        <time>2019-08-20T13:49:41Z</time>
      </trkpt>
      <trkpt lat="46.53194" lon="3.74839">
        <ele>217.9</ele>
        <time>2019-08-20T13:49:42Z</time>
      </trkpt>
      <trkpt lat="46.53194" lon="3.74834">
        <ele>217.9</ele>
        <time>2019-08-20T13:49:43Z</time>
      </trkpt>
      <trkpt lat="46.53195" lon="3.74826">
        <ele>217.9</ele>
        <time>2019-08-20T13:49:44Z</time>
      </trkpt>
      <trkpt lat="46.53196" lon="3.7482">
        <ele>217.9</ele>
        <time>2019-08-20T13:49:45Z</time>
      </trkpt>
      <trkpt lat="46.53196" lon="3.74814">
        <ele>217.9</ele>
        <time>2019-08-20T13:49:46Z</time>
      </trkpt>
      <trkpt lat="46.53197" lon="3.74806">
        <ele>217.9</ele>
        <time>2019-08-20T13:49:47Z</time>
      </trkpt>
      <trkpt lat="46.53197" lon="3.74799">
        <ele>217.9</ele>
        <time>2019-08-20T13:49:48Z</time>
      </trkpt>
      <trkpt lat="46.53197" lon="3.74792">
        <ele>217.9</ele>
        <time>2019-08-20T13:49:49Z</time>
      </trkpt>
      <trkpt lat="46.53197" lon="3.74784">
        <ele>217.9</ele>
        <time>2019-08-20T13:49:50Z</time>
      </trkpt>
      <trkpt lat="46.53197" lon="3.74777">
        <ele>217.9</ele>
        <time>2019-08-20T13:49:51Z</time>
      </trkpt>
      <trkpt lat="46.53197" lon="3.7477">
        <ele>217.9</ele>
        <time>2019-08-20T13:49:52Z</time>
      </trkpt>
      <trkpt lat="46.53198" lon="3.74763">
        <ele>217.9</ele>
        <time>2019-08-20T13:49:53Z</time>
      </trkpt>
      <trkpt lat="46.53198" lon="3.74756">
        <ele>217.9</ele>
        <time>2019-08-20T13:49:54Z</time>
      </trkpt>
      <trkpt lat="46.53199" lon="3.74749">
        <ele>217.9</ele>
        <time>2019-08-20T13:49:55Z</time>
      </trkpt>
      <trkpt lat="46.532" lon="3.7474">
        <ele>217.9</ele>
        <time>2019-08-20T13:49:56Z</time>
      </trkpt>
      <trkpt lat="46.53201" lon="3.74733">
        <ele>217.9</ele>
        <time>2019-08-20T13:49:57Z</time>
      </trkpt>
      <trkpt lat="46.53201" lon="3.74726">
        <ele>217.9</ele>
        <time>2019-08-20T13:49:58Z</time>
      </trkpt>
      <trkpt lat="46.53201" lon="3.74719">
        <ele>217.9</ele>
        <time>2019-08-20T13:49:59Z</time>
      </trkpt>
      <trkpt lat="46.532" lon="3.74712">
        <ele>218</ele>
        <time>2019-08-20T13:50:00Z</time>
      </trkpt>
      <trkpt lat="46.53201" lon="3.74705">
        <ele>218</ele>
        <time>2019-08-20T13:50:01Z</time>
      </trkpt>
      <trkpt lat="46.53202" lon="3.74698">
        <ele>218.1</ele>
        <time>2019-08-20T13:50:02Z</time>
      </trkpt>
      <trkpt lat="46.53203" lon="3.74691">
        <ele>218.2</ele>
        <time>2019-08-20T13:50:03Z</time>
      </trkpt>
      <trkpt lat="46.53203" lon="3.74683">
        <ele>218.3</ele>
        <time>2019-08-20T13:50:04Z</time>
      </trkpt>
      <trkpt lat="46.53204" lon="3.74674">
        <ele>218.4</ele>
        <time>2019-08-20T13:50:05Z</time>
      </trkpt>
      <trkpt lat="46.53205" lon="3.74668">
        <ele>218.6</ele>
        <time>2019-08-20T13:50:06Z</time>
      </trkpt>
      <trkpt lat="46.53205" lon="3.74661">
        <ele>218.9</ele>
        <time>2019-08-20T13:50:07Z</time>
      </trkpt>
      <trkpt lat="46.53205" lon="3.74653">
        <ele>219.3</ele>
        <time>2019-08-20T13:50:08Z</time>
      </trkpt>
      <trkpt lat="46.53205" lon="3.74645">
        <ele>219.5</ele>
        <time>2019-08-20T13:50:09Z</time>
      </trkpt>
      <trkpt lat="46.53206" lon="3.74638">
        <ele>219.8</ele>
        <time>2019-08-20T13:50:10Z</time>
      </trkpt>
      <trkpt lat="46.53206" lon="3.7463">
        <ele>220.1</ele>
        <time>2019-08-20T13:50:11Z</time>
      </trkpt>
      <trkpt lat="46.53207" lon="3.74623">
        <ele>220.4</ele>
        <time>2019-08-20T13:50:12Z</time>
      </trkpt>
      <trkpt lat="46.53208" lon="3.74616">
        <ele>220.6</ele>
        <time>2019-08-20T13:50:13Z</time>
      </trkpt>
      <trkpt lat="46.53209" lon="3.74608">
        <ele>220.8</ele>
        <time>2019-08-20T13:50:14Z</time>
      </trkpt>
      <trkpt lat="46.53209" lon="3.74601">
        <ele>221</ele>
        <time>2019-08-20T13:50:15Z</time>
      </trkpt>
      <trkpt lat="46.53211" lon="3.74594">
        <ele>221.1</ele>
        <time>2019-08-20T13:50:16Z</time>
      </trkpt>
      <trkpt lat="46.53212" lon="3.74586">
        <ele>221.2</ele>
        <time>2019-08-20T13:50:17Z</time>
      </trkpt>
      <trkpt lat="46.53213" lon="3.74579">
        <ele>221.3</ele>
        <time>2019-08-20T13:50:18Z</time>
      </trkpt>
      <trkpt lat="46.53214" lon="3.74572">
        <ele>221.4</ele>
        <time>2019-08-20T13:50:19Z</time>
      </trkpt>
      <trkpt lat="46.53216" lon="3.74565">
        <ele>221.4</ele>
        <time>2019-08-20T13:50:20Z</time>
      </trkpt>
      <trkpt lat="46.53216" lon="3.74558">
        <ele>221.4</ele>
        <time>2019-08-20T13:50:21Z</time>
      </trkpt>
      <trkpt lat="46.53217" lon="3.74553">
        <ele>221.4</ele>
        <time>2019-08-20T13:50:22Z</time>
      </trkpt>
      <trkpt lat="46.53217" lon="3.74548">
        <ele>221.4</ele>
        <time>2019-08-20T13:50:23Z</time>
      </trkpt>
      <trkpt lat="46.53217" lon="3.74544">
        <ele>221.3</ele>
        <time>2019-08-20T13:50:24Z</time>
      </trkpt>
      <trkpt lat="46.53218" lon="3.7454">
        <ele>221.2</ele>
        <time>2019-08-20T13:50:25Z</time>
      </trkpt>
      <trkpt lat="46.53218" lon="3.74535">
        <ele>221.2</ele>
        <time>2019-08-20T13:50:26Z</time>
      </trkpt>
      <trkpt lat="46.53219" lon="3.74532">
        <ele>221.1</ele>
        <time>2019-08-20T13:50:27Z</time>
      </trkpt>
      <trkpt lat="46.53218" lon="3.74527">
        <ele>221</ele>
        <time>2019-08-20T13:50:29Z</time>
      </trkpt>
      <trkpt lat="46.53217" lon="3.74522">
        <ele>220.8</ele>
        <time>2019-08-20T13:50:31Z</time>
      </trkpt>
      <trkpt lat="46.53218" lon="3.74519">
        <ele>220.7</ele>
        <time>2019-08-20T13:50:42Z</time>
      </trkpt>
      <trkpt lat="46.53216" lon="3.74516">
        <ele>220.8</ele>
        <time>2019-08-20T13:50:45Z</time>
      </trkpt>
      <trkpt lat="46.53217" lon="3.74511">
        <ele>221</ele>
        <time>2019-08-20T13:50:48Z</time>
      </trkpt>
      <trkpt lat="46.53217" lon="3.74507">
        <ele>221.2</ele>
        <time>2019-08-20T13:50:49Z</time>
      </trkpt>
      <trkpt lat="46.53217" lon="3.74501">
        <ele>221.5</ele>
        <time>2019-08-20T13:50:50Z</time>
      </trkpt>
      <trkpt lat="46.53216" lon="3.74496">
        <ele>221.7</ele>
        <time>2019-08-20T13:50:51Z</time>
      </trkpt>
      <trkpt lat="46.53216" lon="3.74492">
        <ele>221.9</ele>
        <time>2019-08-20T13:50:52Z</time>
      </trkpt>
      <trkpt lat="46.53217" lon="3.74487">
        <ele>222</ele>
        <time>2019-08-20T13:50:53Z</time>
      </trkpt>
      <trkpt lat="46.53217" lon="3.74481">
        <ele>222.2</ele>
        <time>2019-08-20T13:50:54Z</time>
      </trkpt>
      <trkpt lat="46.53218" lon="3.74473">
        <ele>222.3</ele>
        <time>2019-08-20T13:50:55Z</time>
      </trkpt>
      <trkpt lat="46.53218" lon="3.74465">
        <ele>222.3</ele>
        <time>2019-08-20T13:50:56Z</time>
      </trkpt>
      <trkpt lat="46.53218" lon="3.74458">
        <ele>222.4</ele>
        <time>2019-08-20T13:50:57Z</time>
      </trkpt>
      <trkpt lat="46.53218" lon="3.7445">
        <ele>222.3</ele>
        <time>2019-08-20T13:50:58Z</time>
      </trkpt>
      <trkpt lat="46.53218" lon="3.74441">
        <ele>222.2</ele>
        <time>2019-08-20T13:50:59Z</time>
      </trkpt>
      <trkpt lat="46.53218" lon="3.74431">
        <ele>222</ele>
        <time>2019-08-20T13:51:00Z</time>
      </trkpt>
      <trkpt lat="46.53217" lon="3.74421">
        <ele>221.8</ele>
        <time>2019-08-20T13:51:01Z</time>
      </trkpt>
      <trkpt lat="46.53216" lon="3.74411">
        <ele>221.5</ele>
        <time>2019-08-20T13:51:02Z</time>
      </trkpt>
      <trkpt lat="46.53215" lon="3.74402">
        <ele>221.2</ele>
        <time>2019-08-20T13:51:03Z</time>
      </trkpt>
      <trkpt lat="46.53214" lon="3.74394">
        <ele>220.9</ele>
        <time>2019-08-20T13:51:04Z</time>
      </trkpt>
      <trkpt lat="46.53213" lon="3.74387">
        <ele>220.6</ele>
        <time>2019-08-20T13:51:05Z</time>
      </trkpt>
      <trkpt lat="46.5321" lon="3.74378">
        <ele>220.2</ele>
        <time>2019-08-20T13:51:06Z</time>
      </trkpt>
      <trkpt lat="46.53207" lon="3.74371">
        <ele>219.8</ele>
        <time>2019-08-20T13:51:07Z</time>
      </trkpt>
      <trkpt lat="46.53203" lon="3.74362">
        <ele>219.4</ele>
        <time>2019-08-20T13:51:08Z</time>
      </trkpt>
      <trkpt lat="46.532" lon="3.74354">
        <ele>219</ele>
        <time>2019-08-20T13:51:09Z</time>
      </trkpt>
      <trkpt lat="46.53197" lon="3.74347">
        <ele>218.8</ele>
        <time>2019-08-20T13:51:10Z</time>
      </trkpt>
      <trkpt lat="46.53194" lon="3.7434">
        <ele>218.6</ele>
        <time>2019-08-20T13:51:11Z</time>
      </trkpt>
      <trkpt lat="46.53191" lon="3.74334">
        <ele>218.3</ele>
        <time>2019-08-20T13:51:12Z</time>
      </trkpt>
      <trkpt lat="46.53187" lon="3.74323">
        <ele>218.1</ele>
        <time>2019-08-20T13:51:13Z</time>
      </trkpt>
      <trkpt lat="46.53184" lon="3.74317">
        <ele>217.9</ele>
        <time>2019-08-20T13:51:14Z</time>
      </trkpt>
      <trkpt lat="46.53181" lon="3.74311">
        <ele>217.9</ele>
        <time>2019-08-20T13:51:15Z</time>
      </trkpt>
      <trkpt lat="46.53178" lon="3.74306">
        <ele>217.8</ele>
        <time>2019-08-20T13:51:16Z</time>
      </trkpt>
      <trkpt lat="46.53175" lon="3.743">
        <ele>217.7</ele>
        <time>2019-08-20T13:51:17Z</time>
      </trkpt>
      <trkpt lat="46.53172" lon="3.74291">
        <ele>217.6</ele>
        <time>2019-08-20T13:51:18Z</time>
      </trkpt>
      <trkpt lat="46.53169" lon="3.74285">
        <ele>217.6</ele>
        <time>2019-08-20T13:51:19Z</time>
      </trkpt>
      <trkpt lat="46.53165" lon="3.74277">
        <ele>217.6</ele>
        <time>2019-08-20T13:51:20Z</time>
      </trkpt>
      <trkpt lat="46.53162" lon="3.7427">
        <ele>217.6</ele>
        <time>2019-08-20T13:51:21Z</time>
      </trkpt>
      <trkpt lat="46.53159" lon="3.74262">
        <ele>217.5</ele>
        <time>2019-08-20T13:51:22Z</time>
      </trkpt>
      <trkpt lat="46.53156" lon="3.74255">
        <ele>217.5</ele>
        <time>2019-08-20T13:51:23Z</time>
      </trkpt>
      <trkpt lat="46.53153" lon="3.74248">
        <ele>217.5</ele>
        <time>2019-08-20T13:51:24Z</time>
      </trkpt>
      <trkpt lat="46.5315" lon="3.74242">
        <ele>217.5</ele>
        <time>2019-08-20T13:51:25Z</time>
      </trkpt>
      <trkpt lat="46.53148" lon="3.74236">
        <ele>217.6</ele>
        <time>2019-08-20T13:51:26Z</time>
      </trkpt>
      <trkpt lat="46.53145" lon="3.74229">
        <ele>217.6</ele>
        <time>2019-08-20T13:51:27Z</time>
      </trkpt>
      <trkpt lat="46.53142" lon="3.74224">
        <ele>217.6</ele>
        <time>2019-08-20T13:51:28Z</time>
      </trkpt>
      <trkpt lat="46.5314" lon="3.74221">
        <ele>217.6</ele>
        <time>2019-08-20T13:51:29Z</time>
      </trkpt>
      <trkpt lat="46.53137" lon="3.74216">
        <ele>217.6</ele>
        <time>2019-08-20T13:51:30Z</time>
      </trkpt>
      <trkpt lat="46.53133" lon="3.7421">
        <ele>217.6</ele>
        <time>2019-08-20T13:51:31Z</time>
      </trkpt>
      <trkpt lat="46.5313" lon="3.74203">
        <ele>217.7</ele>
        <time>2019-08-20T13:51:32Z</time>
      </trkpt>
      <trkpt lat="46.53128" lon="3.74198">
        <ele>217.7</ele>
        <time>2019-08-20T13:51:33Z</time>
      </trkpt>
      <trkpt lat="46.53126" lon="3.74191">
        <ele>217.7</ele>
        <time>2019-08-20T13:51:34Z</time>
      </trkpt>
      <trkpt lat="46.53123" lon="3.74185">
        <ele>217.8</ele>
        <time>2019-08-20T13:51:35Z</time>
      </trkpt>
      <trkpt lat="46.5312" lon="3.74179">
        <ele>217.8</ele>
        <time>2019-08-20T13:51:36Z</time>
      </trkpt>
      <trkpt lat="46.53117" lon="3.74174">
        <ele>217.8</ele>
        <time>2019-08-20T13:51:37Z</time>
      </trkpt>
      <trkpt lat="46.53114" lon="3.74171">
        <ele>217.8</ele>
        <time>2019-08-20T13:51:38Z</time>
      </trkpt>
      <trkpt lat="46.53111" lon="3.74166">
        <ele>217.8</ele>
        <time>2019-08-20T13:51:39Z</time>
      </trkpt>
      <trkpt lat="46.53108" lon="3.7416">
        <ele>217.9</ele>
        <time>2019-08-20T13:51:40Z</time>
      </trkpt>
      <trkpt lat="46.53105" lon="3.74155">
        <ele>217.9</ele>
        <time>2019-08-20T13:51:41Z</time>
      </trkpt>
      <trkpt lat="46.53102" lon="3.7415">
        <ele>217.9</ele>
        <time>2019-08-20T13:51:42Z</time>
      </trkpt>
      <trkpt lat="46.53098" lon="3.74143">
        <ele>217.9</ele>
        <time>2019-08-20T13:51:43Z</time>
      </trkpt>
      <trkpt lat="46.53095" lon="3.74137">
        <ele>217.9</ele>
        <time>2019-08-20T13:51:44Z</time>
      </trkpt>
      <trkpt lat="46.53092" lon="3.74132">
        <ele>217.9</ele>
        <time>2019-08-20T13:51:45Z</time>
      </trkpt>
      <trkpt lat="46.5309" lon="3.74127">
        <ele>217.9</ele>
        <time>2019-08-20T13:51:46Z</time>
      </trkpt>
      <trkpt lat="46.53087" lon="3.7412">
        <ele>217.9</ele>
        <time>2019-08-20T13:51:47Z</time>
      </trkpt>
      <trkpt lat="46.53085" lon="3.74113">
        <ele>217.9</ele>
        <time>2019-08-20T13:51:48Z</time>
      </trkpt>
      <trkpt lat="46.53082" lon="3.74105">
        <ele>217.9</ele>
        <time>2019-08-20T13:51:49Z</time>
      </trkpt>
      <trkpt lat="46.5308" lon="3.74099">
        <ele>217.9</ele>
        <time>2019-08-20T13:51:50Z</time>
      </trkpt>
      <trkpt lat="46.53078" lon="3.74095">
        <ele>217.9</ele>
        <time>2019-08-20T13:51:51Z</time>
      </trkpt>
      <trkpt lat="46.53075" lon="3.7409">
        <ele>217.9</ele>
        <time>2019-08-20T13:51:52Z</time>
      </trkpt>
      <trkpt lat="46.53072" lon="3.74084">
        <ele>217.8</ele>
        <time>2019-08-20T13:51:53Z</time>
      </trkpt>
      <trkpt lat="46.53069" lon="3.74079">
        <ele>217.8</ele>
        <time>2019-08-20T13:51:54Z</time>
      </trkpt>
      <trkpt lat="46.53065" lon="3.74075">
        <ele>217.8</ele>
        <time>2019-08-20T13:51:55Z</time>
      </trkpt>
      <trkpt lat="46.53062" lon="3.7407">
        <ele>217.8</ele>
        <time>2019-08-20T13:51:56Z</time>
      </trkpt>
      <trkpt lat="46.53059" lon="3.74065">
        <ele>217.7</ele>
        <time>2019-08-20T13:51:57Z</time>
      </trkpt>
      <trkpt lat="46.53057" lon="3.7406">
        <ele>217.7</ele>
        <time>2019-08-20T13:51:58Z</time>
      </trkpt>
      <trkpt lat="46.53055" lon="3.74054">
        <ele>217.7</ele>
        <time>2019-08-20T13:51:59Z</time>
      </trkpt>
      <trkpt lat="46.53052" lon="3.74047">
        <ele>217.7</ele>
        <time>2019-08-20T13:52:00Z</time>
      </trkpt>
      <trkpt lat="46.5305" lon="3.7404">
        <ele>217.6</ele>
        <time>2019-08-20T13:52:01Z</time>
      </trkpt>
      <trkpt lat="46.53047" lon="3.74032">
        <ele>217.6</ele>
        <time>2019-08-20T13:52:02Z</time>
      </trkpt>
      <trkpt lat="46.53045" lon="3.74026">
        <ele>217.6</ele>
        <time>2019-08-20T13:52:03Z</time>
      </trkpt>
      <trkpt lat="46.53044" lon="3.7402">
        <ele>217.6</ele>
        <time>2019-08-20T13:52:04Z</time>
      </trkpt>
      <trkpt lat="46.53042" lon="3.74016">
        <ele>217.6</ele>
        <time>2019-08-20T13:52:05Z</time>
      </trkpt>
      <trkpt lat="46.53039" lon="3.74011">
        <ele>217.5</ele>
        <time>2019-08-20T13:52:06Z</time>
      </trkpt>
      <trkpt lat="46.53036" lon="3.74006">
        <ele>217.5</ele>
        <time>2019-08-20T13:52:07Z</time>
      </trkpt>
      <trkpt lat="46.53033" lon="3.74001">
        <ele>217.5</ele>
        <time>2019-08-20T13:52:08Z</time>
      </trkpt>
      <trkpt lat="46.53029" lon="3.73994">
        <ele>217.5</ele>
        <time>2019-08-20T13:52:09Z</time>
      </trkpt>
      <trkpt lat="46.53027" lon="3.73989">
        <ele>217.5</ele>
        <time>2019-08-20T13:52:10Z</time>
      </trkpt>
      <trkpt lat="46.53024" lon="3.73983">
        <ele>217.4</ele>
        <time>2019-08-20T13:52:11Z</time>
      </trkpt>
      <trkpt lat="46.53021" lon="3.73977">
        <ele>217.4</ele>
        <time>2019-08-20T13:52:12Z</time>
      </trkpt>
      <trkpt lat="46.53018" lon="3.73972">
        <ele>217.4</ele>
        <time>2019-08-20T13:52:13Z</time>
      </trkpt>
      <trkpt lat="46.53015" lon="3.73966">
        <ele>217.4</ele>
        <time>2019-08-20T13:52:14Z</time>
      </trkpt>
      <trkpt lat="46.53012" lon="3.73959">
        <ele>217.4</ele>
        <time>2019-08-20T13:52:15Z</time>
      </trkpt>
      <trkpt lat="46.53008" lon="3.73952">
        <ele>217.4</ele>
        <time>2019-08-20T13:52:16Z</time>
      </trkpt>
      <trkpt lat="46.53007" lon="3.73949">
        <ele>217.4</ele>
        <time>2019-08-20T13:52:17Z</time>
      </trkpt>
      <trkpt lat="46.53004" lon="3.7394">
        <ele>217.4</ele>
        <time>2019-08-20T13:52:18Z</time>
      </trkpt>
      <trkpt lat="46.53002" lon="3.73934">
        <ele>217.4</ele>
        <time>2019-08-20T13:52:19Z</time>
      </trkpt>
      <trkpt lat="46.53001" lon="3.73929">
        <ele>217.4</ele>
        <time>2019-08-20T13:52:20Z</time>
      </trkpt>
      <trkpt lat="46.52999" lon="3.73923">
        <ele>217.4</ele>
        <time>2019-08-20T13:52:21Z</time>
      </trkpt>
      <trkpt lat="46.52997" lon="3.73916">
        <ele>217.4</ele>
        <time>2019-08-20T13:52:22Z</time>
      </trkpt>
      <trkpt lat="46.52995" lon="3.7391">
        <ele>217.4</ele>
        <time>2019-08-20T13:52:23Z</time>
      </trkpt>
      <trkpt lat="46.52993" lon="3.73904">
        <ele>217.4</ele>
        <time>2019-08-20T13:52:24Z</time>
      </trkpt>
      <trkpt lat="46.52991" lon="3.739">
        <ele>217.4</ele>
        <time>2019-08-20T13:52:25Z</time>
      </trkpt>
      <trkpt lat="46.52989" lon="3.73893">
        <ele>217.3</ele>
        <time>2019-08-20T13:52:26Z</time>
      </trkpt>
      <trkpt lat="46.52986" lon="3.73888">
        <ele>217.3</ele>
        <time>2019-08-20T13:52:27Z</time>
      </trkpt>
      <trkpt lat="46.52984" lon="3.73881">
        <ele>217.3</ele>
        <time>2019-08-20T13:52:28Z</time>
      </trkpt>
      <trkpt lat="46.52983" lon="3.73874">
        <ele>217.3</ele>
        <time>2019-08-20T13:52:29Z</time>
      </trkpt>
      <trkpt lat="46.52982" lon="3.73867">
        <ele>217.3</ele>
        <time>2019-08-20T13:52:30Z</time>
      </trkpt>
      <trkpt lat="46.52979" lon="3.7386">
        <ele>217.3</ele>
        <time>2019-08-20T13:52:31Z</time>
      </trkpt>
      <trkpt lat="46.52978" lon="3.73852">
        <ele>217.3</ele>
        <time>2019-08-20T13:52:32Z</time>
      </trkpt>
      <trkpt lat="46.52976" lon="3.73844">
        <ele>217.3</ele>
        <time>2019-08-20T13:52:33Z</time>
      </trkpt>
      <trkpt lat="46.52974" lon="3.73836">
        <ele>217.3</ele>
        <time>2019-08-20T13:52:34Z</time>
      </trkpt>
      <trkpt lat="46.52972" lon="3.73829">
        <ele>217.3</ele>
        <time>2019-08-20T13:52:35Z</time>
      </trkpt>
      <trkpt lat="46.52971" lon="3.73823">
        <ele>217.2</ele>
        <time>2019-08-20T13:52:36Z</time>
      </trkpt>
      <trkpt lat="46.52969" lon="3.73817">
        <ele>217.2</ele>
        <time>2019-08-20T13:52:37Z</time>
      </trkpt>
      <trkpt lat="46.52967" lon="3.73811">
        <ele>217.2</ele>
        <time>2019-08-20T13:52:38Z</time>
      </trkpt>
      <trkpt lat="46.52966" lon="3.73806">
        <ele>217.2</ele>
        <time>2019-08-20T13:52:39Z</time>
      </trkpt>
      <trkpt lat="46.52964" lon="3.738">
        <ele>217.2</ele>
        <time>2019-08-20T13:52:40Z</time>
      </trkpt>
      <trkpt lat="46.52962" lon="3.73794">
        <ele>217.2</ele>
        <time>2019-08-20T13:52:41Z</time>
      </trkpt>
      <trkpt lat="46.5296" lon="3.73789">
        <ele>217.2</ele>
        <time>2019-08-20T13:52:42Z</time>
      </trkpt>
      <trkpt lat="46.52958" lon="3.73783">
        <ele>217.2</ele>
        <time>2019-08-20T13:52:43Z</time>
      </trkpt>
      <trkpt lat="46.52956" lon="3.73777">
        <ele>217.3</ele>
        <time>2019-08-20T13:52:44Z</time>
      </trkpt>
      <trkpt lat="46.52955" lon="3.7377">
        <ele>217.3</ele>
        <time>2019-08-20T13:52:45Z</time>
      </trkpt>
      <trkpt lat="46.52954" lon="3.73763">
        <ele>217.3</ele>
        <time>2019-08-20T13:52:46Z</time>
      </trkpt>
      <trkpt lat="46.52953" lon="3.73757">
        <ele>217.3</ele>
        <time>2019-08-20T13:52:47Z</time>
      </trkpt>
      <trkpt lat="46.52951" lon="3.73751">
        <ele>217.3</ele>
        <time>2019-08-20T13:52:48Z</time>
      </trkpt>
      <trkpt lat="46.52949" lon="3.73745">
        <ele>217.3</ele>
        <time>2019-08-20T13:52:49Z</time>
      </trkpt>
      <trkpt lat="46.52948" lon="3.73738">
        <ele>217.4</ele>
        <time>2019-08-20T13:52:50Z</time>
      </trkpt>
      <trkpt lat="46.52946" lon="3.73732">
        <ele>217.4</ele>
        <time>2019-08-20T13:52:51Z</time>
      </trkpt>
      <trkpt lat="46.52944" lon="3.73725">
        <ele>217.4</ele>
        <time>2019-08-20T13:52:52Z</time>
      </trkpt>
      <trkpt lat="46.52943" lon="3.73717">
        <ele>217.5</ele>
        <time>2019-08-20T13:52:53Z</time>
      </trkpt>
      <trkpt lat="46.52941" lon="3.73709">
        <ele>217.5</ele>
        <time>2019-08-20T13:52:54Z</time>
      </trkpt>
      <trkpt lat="46.5294" lon="3.73702">
        <ele>217.6</ele>
        <time>2019-08-20T13:52:55Z</time>
      </trkpt>
      <trkpt lat="46.52939" lon="3.73693">
        <ele>217.6</ele>
        <time>2019-08-20T13:52:56Z</time>
      </trkpt>
      <trkpt lat="46.52938" lon="3.73687">
        <ele>217.6</ele>
        <time>2019-08-20T13:52:57Z</time>
      </trkpt>
      <trkpt lat="46.52936" lon="3.73679">
        <ele>217.7</ele>
        <time>2019-08-20T13:52:58Z</time>
      </trkpt>
      <trkpt lat="46.52935" lon="3.73672">
        <ele>217.7</ele>
        <time>2019-08-20T13:52:59Z</time>
      </trkpt>
      <trkpt lat="46.52934" lon="3.73666">
        <ele>217.8</ele>
        <time>2019-08-20T13:53:00Z</time>
      </trkpt>
      <trkpt lat="46.52932" lon="3.7366">
        <ele>217.8</ele>
        <time>2019-08-20T13:53:01Z</time>
      </trkpt>
      <trkpt lat="46.5293" lon="3.7365">
        <ele>217.9</ele>
        <time>2019-08-20T13:53:02Z</time>
      </trkpt>
      <trkpt lat="46.52928" lon="3.73643">
        <ele>217.9</ele>
        <time>2019-08-20T13:53:03Z</time>
      </trkpt>
      <trkpt lat="46.52926" lon="3.73637">
        <ele>217.9</ele>
        <time>2019-08-20T13:53:04Z</time>
      </trkpt>
      <trkpt lat="46.52925" lon="3.73631">
        <ele>217.9</ele>
        <time>2019-08-20T13:53:05Z</time>
      </trkpt>
      <trkpt lat="46.52923" lon="3.73625">
        <ele>217.9</ele>
        <time>2019-08-20T13:53:06Z</time>
      </trkpt>
      <trkpt lat="46.52921" lon="3.73617">
        <ele>218</ele>
        <time>2019-08-20T13:53:07Z</time>
      </trkpt>
      <trkpt lat="46.52919" lon="3.73608">
        <ele>218</ele>
        <time>2019-08-20T13:53:08Z</time>
      </trkpt>
      <trkpt lat="46.52918" lon="3.73602">
        <ele>218</ele>
        <time>2019-08-20T13:53:09Z</time>
      </trkpt>
      <trkpt lat="46.52917" lon="3.73597">
        <ele>218</ele>
        <time>2019-08-20T13:53:10Z</time>
      </trkpt>
      <trkpt lat="46.52915" lon="3.73587">
        <ele>218</ele>
        <time>2019-08-20T13:53:11Z</time>
      </trkpt>
      <trkpt lat="46.52913" lon="3.7358">
        <ele>218</ele>
        <time>2019-08-20T13:53:12Z</time>
      </trkpt>
      <trkpt lat="46.52911" lon="3.73573">
        <ele>218</ele>
        <time>2019-08-20T13:53:13Z</time>
      </trkpt>
      <trkpt lat="46.52908" lon="3.73566">
        <ele>218</ele>
        <time>2019-08-20T13:53:14Z</time>
      </trkpt>
      <trkpt lat="46.52906" lon="3.73559">
        <ele>217.9</ele>
        <time>2019-08-20T13:53:15Z</time>
      </trkpt>
      <trkpt lat="46.52904" lon="3.73553">
        <ele>217.9</ele>
        <time>2019-08-20T13:53:16Z</time>
      </trkpt>
      <trkpt lat="46.52901" lon="3.73548">
        <ele>217.9</ele>
        <time>2019-08-20T13:53:17Z</time>
      </trkpt>
      <trkpt lat="46.52899" lon="3.73542">
        <ele>217.9</ele>
        <time>2019-08-20T13:53:18Z</time>
      </trkpt>
      <trkpt lat="46.52897" lon="3.73536">
        <ele>217.8</ele>
        <time>2019-08-20T13:53:19Z</time>
      </trkpt>
      <trkpt lat="46.52896" lon="3.73528">
        <ele>217.8</ele>
        <time>2019-08-20T13:53:20Z</time>
      </trkpt>
      <trkpt lat="46.52894" lon="3.73521">
        <ele>217.8</ele>
        <time>2019-08-20T13:53:21Z</time>
      </trkpt>
      <trkpt lat="46.52892" lon="3.73513">
        <ele>217.7</ele>
        <time>2019-08-20T13:53:22Z</time>
      </trkpt>
      <trkpt lat="46.52891" lon="3.73507">
        <ele>217.7</ele>
        <time>2019-08-20T13:53:23Z</time>
      </trkpt>
      <trkpt lat="46.52889" lon="3.73501">
        <ele>217.7</ele>
        <time>2019-08-20T13:53:24Z</time>
      </trkpt>
      <trkpt lat="46.52887" lon="3.73493">
        <ele>217.6</ele>
        <time>2019-08-20T13:53:25Z</time>
      </trkpt>
      <trkpt lat="46.52885" lon="3.73486">
        <ele>217.6</ele>
        <time>2019-08-20T13:53:26Z</time>
      </trkpt>
      <trkpt lat="46.52884" lon="3.73481">
        <ele>217.6</ele>
        <time>2019-08-20T13:53:27Z</time>
      </trkpt>
      <trkpt lat="46.52881" lon="3.73473">
        <ele>217.6</ele>
        <time>2019-08-20T13:53:28Z</time>
      </trkpt>
      <trkpt lat="46.52879" lon="3.73464">
        <ele>217.5</ele>
        <time>2019-08-20T13:53:29Z</time>
      </trkpt>
      <trkpt lat="46.52876" lon="3.73456">
        <ele>217.5</ele>
        <time>2019-08-20T13:53:30Z</time>
      </trkpt>
      <trkpt lat="46.52873" lon="3.73448">
        <ele>217.5</ele>
        <time>2019-08-20T13:53:31Z</time>
      </trkpt>
      <trkpt lat="46.52871" lon="3.73441">
        <ele>217.5</ele>
        <time>2019-08-20T13:53:32Z</time>
      </trkpt>
      <trkpt lat="46.52868" lon="3.73433">
        <ele>217.5</ele>
        <time>2019-08-20T13:53:33Z</time>
      </trkpt>
      <trkpt lat="46.52865" lon="3.73426">
        <ele>217.5</ele>
        <time>2019-08-20T13:53:34Z</time>
      </trkpt>
      <trkpt lat="46.52863" lon="3.73419">
        <ele>217.5</ele>
        <time>2019-08-20T13:53:35Z</time>
      </trkpt>
      <trkpt lat="46.5286" lon="3.73412">
        <ele>217.5</ele>
        <time>2019-08-20T13:53:36Z</time>
      </trkpt>
      <trkpt lat="46.52858" lon="3.73405">
        <ele>217.5</ele>
        <time>2019-08-20T13:53:37Z</time>
      </trkpt>
      <trkpt lat="46.52857" lon="3.73397">
        <ele>217.5</ele>
        <time>2019-08-20T13:53:38Z</time>
      </trkpt>
      <trkpt lat="46.52855" lon="3.7339">
        <ele>217.5</ele>
        <time>2019-08-20T13:53:39Z</time>
      </trkpt>
      <trkpt lat="46.52853" lon="3.73383">
        <ele>217.5</ele>
        <time>2019-08-20T13:53:40Z</time>
      </trkpt>
      <trkpt lat="46.52852" lon="3.73375">
        <ele>217.5</ele>
        <time>2019-08-20T13:53:41Z</time>
      </trkpt>
      <trkpt lat="46.5285" lon="3.73366">
        <ele>217.5</ele>
        <time>2019-08-20T13:53:42Z</time>
      </trkpt>
      <trkpt lat="46.52849" lon="3.73359">
        <ele>217.5</ele>
        <time>2019-08-20T13:53:43Z</time>
      </trkpt>
      <trkpt lat="46.52848" lon="3.73351">
        <ele>217.6</ele>
        <time>2019-08-20T13:53:44Z</time>
      </trkpt>
      <trkpt lat="46.52847" lon="3.73343">
        <ele>217.6</ele>
        <time>2019-08-20T13:53:45Z</time>
      </trkpt>
      <trkpt lat="46.52846" lon="3.73336">
        <ele>217.7</ele>
        <time>2019-08-20T13:53:47Z</time>
      </trkpt>
      <trkpt lat="46.52843" lon="3.73331">
        <ele>217.9</ele>
        <time>2019-08-20T13:53:48Z</time>
      </trkpt>
      <trkpt lat="46.52841" lon="3.73326">
        <ele>218</ele>
        <time>2019-08-20T13:53:52Z</time>
      </trkpt>
      <trkpt lat="46.52841" lon="3.73322">
        <ele>218.1</ele>
        <time>2019-08-20T13:53:54Z</time>
      </trkpt>
      <trkpt lat="46.52839" lon="3.73318">
        <ele>218.3</ele>
        <time>2019-08-20T13:53:56Z</time>
      </trkpt>
      <trkpt lat="46.52834" lon="3.73315">
        <ele>218.7</ele>
        <time>2019-08-20T13:54:11Z</time>
      </trkpt>
      <trkpt lat="46.52832" lon="3.73311">
        <ele>218.6</ele>
        <time>2019-08-20T13:54:13Z</time>
      </trkpt>
      <trkpt lat="46.5283" lon="3.73306">
        <ele>218.6</ele>
        <time>2019-08-20T13:54:15Z</time>
      </trkpt>
      <trkpt lat="46.52832" lon="3.73303">
        <ele>218.6</ele>
        <time>2019-08-20T13:54:16Z</time>
      </trkpt>
      <trkpt lat="46.52829" lon="3.73299">
        <ele>218.5</ele>
        <time>2019-08-20T13:54:18Z</time>
      </trkpt>
      <trkpt lat="46.52829" lon="3.73303">
        <ele>218.4</ele>
        <time>2019-08-20T13:54:36Z</time>
      </trkpt>
      <trkpt lat="46.52828" lon="3.73298">
        <ele>218.4</ele>
        <time>2019-08-20T13:54:38Z</time>
      </trkpt>
      <trkpt lat="46.52827" lon="3.73293">
        <ele>218.3</ele>
        <time>2019-08-20T13:54:39Z</time>
      </trkpt>
      <trkpt lat="46.52826" lon="3.73288">
        <ele>218.2</ele>
        <time>2019-08-20T13:54:40Z</time>
      </trkpt>
      <trkpt lat="46.52825" lon="3.73282">
        <ele>218.1</ele>
        <time>2019-08-20T13:54:41Z</time>
      </trkpt>
      <trkpt lat="46.52823" lon="3.73274">
        <ele>218.1</ele>
        <time>2019-08-20T13:54:42Z</time>
      </trkpt>
      <trkpt lat="46.52821" lon="3.73266">
        <ele>218</ele>
        <time>2019-08-20T13:54:43Z</time>
      </trkpt>
      <trkpt lat="46.5282" lon="3.73257">
        <ele>217.9</ele>
        <time>2019-08-20T13:54:44Z</time>
      </trkpt>
      <trkpt lat="46.52818" lon="3.73248">
        <ele>217.9</ele>
        <time>2019-08-20T13:54:45Z</time>
      </trkpt>
      <trkpt lat="46.52816" lon="3.73239">
        <ele>217.9</ele>
        <time>2019-08-20T13:54:46Z</time>
      </trkpt>
      <trkpt lat="46.52814" lon="3.73229">
        <ele>217.9</ele>
        <time>2019-08-20T13:54:47Z</time>
      </trkpt>
      <trkpt lat="46.52812" lon="3.73221">
        <ele>217.9</ele>
        <time>2019-08-20T13:54:48Z</time>
      </trkpt>
      <trkpt lat="46.52811" lon="3.73213">
        <ele>218</ele>
        <time>2019-08-20T13:54:49Z</time>
      </trkpt>
      <trkpt lat="46.5281" lon="3.73205">
        <ele>218</ele>
        <time>2019-08-20T13:54:50Z</time>
      </trkpt>
      <trkpt lat="46.52811" lon="3.73197">
        <ele>218.1</ele>
        <time>2019-08-20T13:54:51Z</time>
      </trkpt>
      <trkpt lat="46.52812" lon="3.7319">
        <ele>218.2</ele>
        <time>2019-08-20T13:54:52Z</time>
      </trkpt>
      <trkpt lat="46.52814" lon="3.73183">
        <ele>218.2</ele>
        <time>2019-08-20T13:54:53Z</time>
      </trkpt>
      <trkpt lat="46.52814" lon="3.73175">
        <ele>218.3</ele>
        <time>2019-08-20T13:54:54Z</time>
      </trkpt>
      <trkpt lat="46.52815" lon="3.73168">
        <ele>218.3</ele>
        <time>2019-08-20T13:54:55Z</time>
      </trkpt>
      <trkpt lat="46.52814" lon="3.73161">
        <ele>218.4</ele>
        <time>2019-08-20T13:54:56Z</time>
      </trkpt>
      <trkpt lat="46.52814" lon="3.73155">
        <ele>218.4</ele>
        <time>2019-08-20T13:54:57Z</time>
      </trkpt>
      <trkpt lat="46.52813" lon="3.73149">
        <ele>218.4</ele>
        <time>2019-08-20T13:54:58Z</time>
      </trkpt>
      <trkpt lat="46.52814" lon="3.73143">
        <ele>218.5</ele>
        <time>2019-08-20T13:54:59Z</time>
      </trkpt>
      <trkpt lat="46.52815" lon="3.73137">
        <ele>218.5</ele>
        <time>2019-08-20T13:55:00Z</time>
      </trkpt>
      <trkpt lat="46.52818" lon="3.73133">
        <ele>218.5</ele>
        <time>2019-08-20T13:55:01Z</time>
      </trkpt>
      <trkpt lat="46.5282" lon="3.73127">
        <ele>218.4</ele>
        <time>2019-08-20T13:55:02Z</time>
      </trkpt>
      <trkpt lat="46.52822" lon="3.73121">
        <ele>218.4</ele>
        <time>2019-08-20T13:55:03Z</time>
      </trkpt>
      <trkpt lat="46.52823" lon="3.73115">
        <ele>218.4</ele>
        <time>2019-08-20T13:55:04Z</time>
      </trkpt>
      <trkpt lat="46.52824" lon="3.7311">
        <ele>218.4</ele>
        <time>2019-08-20T13:55:05Z</time>
      </trkpt>
      <trkpt lat="46.52825" lon="3.73105">
        <ele>218.5</ele>
        <time>2019-08-20T13:55:06Z</time>
      </trkpt>
      <trkpt lat="46.52827" lon="3.731">
        <ele>218.5</ele>
        <time>2019-08-20T13:55:07Z</time>
      </trkpt>
      <trkpt lat="46.5283" lon="3.73096">
        <ele>218.6</ele>
        <time>2019-08-20T13:55:08Z</time>
      </trkpt>
      <trkpt lat="46.52832" lon="3.73092">
        <ele>218.6</ele>
        <time>2019-08-20T13:55:09Z</time>
      </trkpt>
      <trkpt lat="46.52835" lon="3.73087">
        <ele>218.7</ele>
        <time>2019-08-20T13:55:10Z</time>
      </trkpt>
      <trkpt lat="46.52836" lon="3.73083">
        <ele>218.8</ele>
        <time>2019-08-20T13:55:11Z</time>
      </trkpt>
      <trkpt lat="46.52838" lon="3.73077">
        <ele>218.9</ele>
        <time>2019-08-20T13:55:12Z</time>
      </trkpt>
      <trkpt lat="46.5284" lon="3.73072">
        <ele>218.9</ele>
        <time>2019-08-20T13:55:13Z</time>
      </trkpt>
      <trkpt lat="46.52842" lon="3.73067">
        <ele>219</ele>
        <time>2019-08-20T13:55:14Z</time>
      </trkpt>
      <trkpt lat="46.52843" lon="3.73062">
        <ele>219</ele>
        <time>2019-08-20T13:55:15Z</time>
      </trkpt>
      <trkpt lat="46.52845" lon="3.73056">
        <ele>219.1</ele>
        <time>2019-08-20T13:55:16Z</time>
      </trkpt>
      <trkpt lat="46.52846" lon="3.73051">
        <ele>219.1</ele>
        <time>2019-08-20T13:55:17Z</time>
      </trkpt>
      <trkpt lat="46.52847" lon="3.73046">
        <ele>219.2</ele>
        <time>2019-08-20T13:55:18Z</time>
      </trkpt>
      <trkpt lat="46.52849" lon="3.73041">
        <ele>219.2</ele>
        <time>2019-08-20T13:55:19Z</time>
      </trkpt>
      <trkpt lat="46.52851" lon="3.73035">
        <ele>219.3</ele>
        <time>2019-08-20T13:55:20Z</time>
      </trkpt>
      <trkpt lat="46.52853" lon="3.73029">
        <ele>219.3</ele>
        <time>2019-08-20T13:55:21Z</time>
      </trkpt>
      <trkpt lat="46.52854" lon="3.73023">
        <ele>219.3</ele>
        <time>2019-08-20T13:55:22Z</time>
      </trkpt>
      <trkpt lat="46.52856" lon="3.73017">
        <ele>219.4</ele>
        <time>2019-08-20T13:55:23Z</time>
      </trkpt>
      <trkpt lat="46.52858" lon="3.73011">
        <ele>219.4</ele>
        <time>2019-08-20T13:55:24Z</time>
      </trkpt>
      <trkpt lat="46.5286" lon="3.73006">
        <ele>219.5</ele>
        <time>2019-08-20T13:55:25Z</time>
      </trkpt>
      <trkpt lat="46.52862" lon="3.73">
        <ele>219.5</ele>
        <time>2019-08-20T13:55:26Z</time>
      </trkpt>
      <trkpt lat="46.52864" lon="3.72994">
        <ele>219.6</ele>
        <time>2019-08-20T13:55:27Z</time>
      </trkpt>
      <trkpt lat="46.52866" lon="3.72987">
        <ele>219.7</ele>
        <time>2019-08-20T13:55:28Z</time>
      </trkpt>
      <trkpt lat="46.52868" lon="3.7298">
        <ele>219.7</ele>
        <time>2019-08-20T13:55:29Z</time>
      </trkpt>
      <trkpt lat="46.52871" lon="3.72973">
        <ele>219.8</ele>
        <time>2019-08-20T13:55:30Z</time>
      </trkpt>
      <trkpt lat="46.52873" lon="3.72967">
        <ele>219.9</ele>
        <time>2019-08-20T13:55:31Z</time>
      </trkpt>
      <trkpt lat="46.52875" lon="3.72962">
        <ele>220</ele>
        <time>2019-08-20T13:55:32Z</time>
      </trkpt>
      <trkpt lat="46.52876" lon="3.72955">
        <ele>220.1</ele>
        <time>2019-08-20T13:55:33Z</time>
      </trkpt>
      <trkpt lat="46.52879" lon="3.72949">
        <ele>220.3</ele>
        <time>2019-08-20T13:55:34Z</time>
      </trkpt>
      <trkpt lat="46.52881" lon="3.72942">
        <ele>220.5</ele>
        <time>2019-08-20T13:55:35Z</time>
      </trkpt>
      <trkpt lat="46.52884" lon="3.72935">
        <ele>220.8</ele>
        <time>2019-08-20T13:55:36Z</time>
      </trkpt>
      <trkpt lat="46.52886" lon="3.72928">
        <ele>221.1</ele>
        <time>2019-08-20T13:55:37Z</time>
      </trkpt>
      <trkpt lat="46.52888" lon="3.72921">
        <ele>221.4</ele>
        <time>2019-08-20T13:55:38Z</time>
      </trkpt>
      <trkpt lat="46.52891" lon="3.72914">
        <ele>221.7</ele>
        <time>2019-08-20T13:55:39Z</time>
      </trkpt>
      <trkpt lat="46.52894" lon="3.72907">
        <ele>222.1</ele>
        <time>2019-08-20T13:55:40Z</time>
      </trkpt>
      <trkpt lat="46.52896" lon="3.729">
        <ele>222.5</ele>
        <time>2019-08-20T13:55:41Z</time>
      </trkpt>
      <trkpt lat="46.52899" lon="3.72893">
        <ele>222.9</ele>
        <time>2019-08-20T13:55:42Z</time>
      </trkpt>
      <trkpt lat="46.52902" lon="3.72887">
        <ele>222.9</ele>
        <time>2019-08-20T13:55:43Z</time>
      </trkpt>
      <trkpt lat="46.52904" lon="3.72881">
        <ele>222.9</ele>
        <time>2019-08-20T13:55:44Z</time>
      </trkpt>
      <trkpt lat="46.52907" lon="3.72877">
        <ele>222.9</ele>
        <time>2019-08-20T13:55:45Z</time>
      </trkpt>
      <trkpt lat="46.52909" lon="3.72872">
        <ele>222.8</ele>
        <time>2019-08-20T13:55:46Z</time>
      </trkpt>
      <trkpt lat="46.52913" lon="3.72866">
        <ele>222.8</ele>
        <time>2019-08-20T13:55:47Z</time>
      </trkpt>
      <trkpt lat="46.52916" lon="3.7286">
        <ele>222.8</ele>
        <time>2019-08-20T13:55:48Z</time>
      </trkpt>
      <trkpt lat="46.52921" lon="3.72856">
        <ele>222.8</ele>
        <time>2019-08-20T13:55:49Z</time>
      </trkpt>
      <trkpt lat="46.52925" lon="3.72852">
        <ele>222.8</ele>
        <time>2019-08-20T13:55:50Z</time>
      </trkpt>
      <trkpt lat="46.5293" lon="3.72847">
        <ele>222.8</ele>
        <time>2019-08-20T13:55:51Z</time>
      </trkpt>
      <trkpt lat="46.52934" lon="3.72843">
        <ele>222.7</ele>
        <time>2019-08-20T13:55:52Z</time>
      </trkpt>
      <trkpt lat="46.52938" lon="3.7284">
        <ele>222.7</ele>
        <time>2019-08-20T13:55:53Z</time>
      </trkpt>
      <trkpt lat="46.52941" lon="3.72836">
        <ele>222.7</ele>
        <time>2019-08-20T13:55:54Z</time>
      </trkpt>
      <trkpt lat="46.52944" lon="3.72832">
        <ele>222.6</ele>
        <time>2019-08-20T13:55:55Z</time>
      </trkpt>
      <trkpt lat="46.52948" lon="3.72827">
        <ele>222.4</ele>
        <time>2019-08-20T13:55:56Z</time>
      </trkpt>
      <trkpt lat="46.52952" lon="3.72823">
        <ele>222.3</ele>
        <time>2019-08-20T13:55:57Z</time>
      </trkpt>
      <trkpt lat="46.5296" lon="3.72816">
        <ele>221.9</ele>
        <time>2019-08-20T13:55:59Z</time>
      </trkpt>
      <trkpt lat="46.52964" lon="3.72813">
        <ele>221.7</ele>
        <time>2019-08-20T13:56:00Z</time>
      </trkpt>
      <trkpt lat="46.52969" lon="3.72813">
        <ele>221.4</ele>
        <time>2019-08-20T13:56:01Z</time>
      </trkpt>
      <trkpt lat="46.52973" lon="3.72813">
        <ele>221.1</ele>
        <time>2019-08-20T13:56:02Z</time>
      </trkpt>
      <trkpt lat="46.52978" lon="3.72812">
        <ele>220.8</ele>
        <time>2019-08-20T13:56:03Z</time>
      </trkpt>
      <trkpt lat="46.52983" lon="3.72811">
        <ele>220.6</ele>
        <time>2019-08-20T13:56:04Z</time>
      </trkpt>
      <trkpt lat="46.52987" lon="3.72809">
        <ele>220.4</ele>
        <time>2019-08-20T13:56:05Z</time>
      </trkpt>
      <trkpt lat="46.52992" lon="3.72808">
        <ele>220.1</ele>
        <time>2019-08-20T13:56:06Z</time>
      </trkpt>
      <trkpt lat="46.52996" lon="3.72804">
        <ele>219.9</ele>
        <time>2019-08-20T13:56:07Z</time>
      </trkpt>
      <trkpt lat="46.53" lon="3.72802">
        <ele>219.8</ele>
        <time>2019-08-20T13:56:08Z</time>
      </trkpt>
      <trkpt lat="46.53004" lon="3.72799">
        <ele>219.6</ele>
        <time>2019-08-20T13:56:09Z</time>
      </trkpt>
      <trkpt lat="46.53008" lon="3.72796">
        <ele>219.5</ele>
        <time>2019-08-20T13:56:10Z</time>
      </trkpt>
      <trkpt lat="46.53012" lon="3.72792">
        <ele>219.3</ele>
        <time>2019-08-20T13:56:11Z</time>
      </trkpt>
      <trkpt lat="46.53016" lon="3.72788">
        <ele>219.1</ele>
        <time>2019-08-20T13:56:12Z</time>
      </trkpt>
      <trkpt lat="46.53019" lon="3.72783">
        <ele>219</ele>
        <time>2019-08-20T13:56:13Z</time>
      </trkpt>
      <trkpt lat="46.53023" lon="3.72778">
        <ele>218.8</ele>
        <time>2019-08-20T13:56:14Z</time>
      </trkpt>
      <trkpt lat="46.53026" lon="3.72773">
        <ele>218.7</ele>
        <time>2019-08-20T13:56:15Z</time>
      </trkpt>
      <trkpt lat="46.5303" lon="3.72767">
        <ele>218.6</ele>
        <time>2019-08-20T13:56:16Z</time>
      </trkpt>
      <trkpt lat="46.53034" lon="3.72761">
        <ele>218.5</ele>
        <time>2019-08-20T13:56:17Z</time>
      </trkpt>
      <trkpt lat="46.53037" lon="3.72755">
        <ele>218.5</ele>
        <time>2019-08-20T13:56:18Z</time>
      </trkpt>
      <trkpt lat="46.5304" lon="3.72749">
        <ele>218.4</ele>
        <time>2019-08-20T13:56:19Z</time>
      </trkpt>
      <trkpt lat="46.53043" lon="3.72744">
        <ele>218.4</ele>
        <time>2019-08-20T13:56:20Z</time>
      </trkpt>
      <trkpt lat="46.53047" lon="3.72738">
        <ele>218.3</ele>
        <time>2019-08-20T13:56:21Z</time>
      </trkpt>
      <trkpt lat="46.5305" lon="3.72732">
        <ele>218.3</ele>
        <time>2019-08-20T13:56:22Z</time>
      </trkpt>
      <trkpt lat="46.53052" lon="3.72726">
        <ele>218.2</ele>
        <time>2019-08-20T13:56:23Z</time>
      </trkpt>
      <trkpt lat="46.53055" lon="3.7272">
        <ele>218</ele>
        <time>2019-08-20T13:56:24Z</time>
      </trkpt>
      <trkpt lat="46.53057" lon="3.72712">
        <ele>217.9</ele>
        <time>2019-08-20T13:56:25Z</time>
      </trkpt>
      <trkpt lat="46.53058" lon="3.72705">
        <ele>217.7</ele>
        <time>2019-08-20T13:56:26Z</time>
      </trkpt>
      <trkpt lat="46.53059" lon="3.72698">
        <ele>217.6</ele>
        <time>2019-08-20T13:56:27Z</time>
      </trkpt>
      <trkpt lat="46.5306" lon="3.7269">
        <ele>217.5</ele>
        <time>2019-08-20T13:56:28Z</time>
      </trkpt>
      <trkpt lat="46.53062" lon="3.72683">
        <ele>217.4</ele>
        <time>2019-08-20T13:56:29Z</time>
      </trkpt>
      <trkpt lat="46.53063" lon="3.72676">
        <ele>217.3</ele>
        <time>2019-08-20T13:56:30Z</time>
      </trkpt>
      <trkpt lat="46.53065" lon="3.72668">
        <ele>217.3</ele>
        <time>2019-08-20T13:56:31Z</time>
      </trkpt>
      <trkpt lat="46.53067" lon="3.72659">
        <ele>217.3</ele>
        <time>2019-08-20T13:56:32Z</time>
      </trkpt>
      <trkpt lat="46.53068" lon="3.72652">
        <ele>217.2</ele>
        <time>2019-08-20T13:56:33Z</time>
      </trkpt>
      <trkpt lat="46.5307" lon="3.72646">
        <ele>217.2</ele>
        <time>2019-08-20T13:56:34Z</time>
      </trkpt>
      <trkpt lat="46.53071" lon="3.7264">
        <ele>217.1</ele>
        <time>2019-08-20T13:56:35Z</time>
      </trkpt>
      <trkpt lat="46.53072" lon="3.72632">
        <ele>217</ele>
        <time>2019-08-20T13:56:36Z</time>
      </trkpt>
      <trkpt lat="46.53074" lon="3.72625">
        <ele>216.8</ele>
        <time>2019-08-20T13:56:37Z</time>
      </trkpt>
      <trkpt lat="46.53075" lon="3.72617">
        <ele>216.7</ele>
        <time>2019-08-20T13:56:38Z</time>
      </trkpt>
      <trkpt lat="46.53077" lon="3.72607">
        <ele>216.5</ele>
        <time>2019-08-20T13:56:39Z</time>
      </trkpt>
      <trkpt lat="46.53078" lon="3.726">
        <ele>216.4</ele>
        <time>2019-08-20T13:56:40Z</time>
      </trkpt>
      <trkpt lat="46.53079" lon="3.72593">
        <ele>216.3</ele>
        <time>2019-08-20T13:56:41Z</time>
      </trkpt>
      <trkpt lat="46.5308" lon="3.72585">
        <ele>216.2</ele>
        <time>2019-08-20T13:56:42Z</time>
      </trkpt>
      <trkpt lat="46.53081" lon="3.72578">
        <ele>216.2</ele>
        <time>2019-08-20T13:56:43Z</time>
      </trkpt>
      <trkpt lat="46.53081" lon="3.7257">
        <ele>216.2</ele>
        <time>2019-08-20T13:56:44Z</time>
      </trkpt>
      <trkpt lat="46.53083" lon="3.72564">
        <ele>216.2</ele>
        <time>2019-08-20T13:56:45Z</time>
      </trkpt>
      <trkpt lat="46.53084" lon="3.72557">
        <ele>216.2</ele>
        <time>2019-08-20T13:56:46Z</time>
      </trkpt>
      <trkpt lat="46.53086" lon="3.7255">
        <ele>216.3</ele>
        <time>2019-08-20T13:56:47Z</time>
      </trkpt>
      <trkpt lat="46.53088" lon="3.72541">
        <ele>216.5</ele>
        <time>2019-08-20T13:56:48Z</time>
      </trkpt>
      <trkpt lat="46.5309" lon="3.72534">
        <ele>216.7</ele>
        <time>2019-08-20T13:56:49Z</time>
      </trkpt>
      <trkpt lat="46.53092" lon="3.72526">
        <ele>217</ele>
        <time>2019-08-20T13:56:50Z</time>
      </trkpt>
      <trkpt lat="46.53094" lon="3.72519">
        <ele>217.3</ele>
        <time>2019-08-20T13:56:51Z</time>
      </trkpt>
      <trkpt lat="46.53095" lon="3.72511">
        <ele>217.5</ele>
        <time>2019-08-20T13:56:52Z</time>
      </trkpt>
      <trkpt lat="46.53097" lon="3.72506">
        <ele>217.7</ele>
        <time>2019-08-20T13:56:53Z</time>
      </trkpt>
      <trkpt lat="46.53099" lon="3.72499">
        <ele>217.8</ele>
        <time>2019-08-20T13:56:54Z</time>
      </trkpt>
      <trkpt lat="46.53101" lon="3.72492">
        <ele>217.9</ele>
        <time>2019-08-20T13:56:55Z</time>
      </trkpt>
      <trkpt lat="46.53102" lon="3.72485">
        <ele>217.9</ele>
        <time>2019-08-20T13:56:56Z</time>
      </trkpt>
      <trkpt lat="46.53104" lon="3.72479">
        <ele>217.9</ele>
        <time>2019-08-20T13:56:57Z</time>
      </trkpt>
      <trkpt lat="46.53106" lon="3.72473">
        <ele>217.9</ele>
        <time>2019-08-20T13:56:58Z</time>
      </trkpt>
      <trkpt lat="46.53108" lon="3.72468">
        <ele>217.9</ele>
        <time>2019-08-20T13:56:59Z</time>
      </trkpt>
      <trkpt lat="46.5311" lon="3.72462">
        <ele>217.9</ele>
        <time>2019-08-20T13:57:00Z</time>
      </trkpt>
      <trkpt lat="46.53111" lon="3.72456">
        <ele>217.9</ele>
        <time>2019-08-20T13:57:01Z</time>
      </trkpt>
      <trkpt lat="46.53113" lon="3.72449">
        <ele>217.9</ele>
        <time>2019-08-20T13:57:02Z</time>
      </trkpt>
      <trkpt lat="46.53114" lon="3.72443">
        <ele>217.9</ele>
        <time>2019-08-20T13:57:03Z</time>
      </trkpt>
      <trkpt lat="46.53115" lon="3.72436">
        <ele>217.9</ele>
        <time>2019-08-20T13:57:04Z</time>
      </trkpt>
      <trkpt lat="46.53117" lon="3.72429">
        <ele>217.9</ele>
        <time>2019-08-20T13:57:05Z</time>
      </trkpt>
      <trkpt lat="46.53118" lon="3.72423">
        <ele>217.9</ele>
        <time>2019-08-20T13:57:06Z</time>
      </trkpt>
      <trkpt lat="46.5312" lon="3.72417">
        <ele>217.9</ele>
        <time>2019-08-20T13:57:07Z</time>
      </trkpt>
      <trkpt lat="46.53122" lon="3.72412">
        <ele>217.8</ele>
        <time>2019-08-20T13:57:08Z</time>
      </trkpt>
      <trkpt lat="46.53124" lon="3.72406">
        <ele>217.8</ele>
        <time>2019-08-20T13:57:09Z</time>
      </trkpt>
      <trkpt lat="46.53125" lon="3.72401">
        <ele>217.8</ele>
        <time>2019-08-20T13:57:10Z</time>
      </trkpt>
      <trkpt lat="46.53126" lon="3.72396">
        <ele>217.8</ele>
        <time>2019-08-20T13:57:11Z</time>
      </trkpt>
      <trkpt lat="46.53126" lon="3.7239">
        <ele>217.8</ele>
        <time>2019-08-20T13:57:12Z</time>
      </trkpt>
      <trkpt lat="46.53127" lon="3.72386">
        <ele>217.8</ele>
        <time>2019-08-20T13:57:13Z</time>
      </trkpt>
      <trkpt lat="46.53128" lon="3.7238">
        <ele>217.8</ele>
        <time>2019-08-20T13:57:14Z</time>
      </trkpt>
      <trkpt lat="46.53128" lon="3.72376">
        <ele>217.8</ele>
        <time>2019-08-20T13:57:15Z</time>
      </trkpt>
      <trkpt lat="46.53128" lon="3.7237">
        <ele>217.8</ele>
        <time>2019-08-20T13:57:16Z</time>
      </trkpt>
      <trkpt lat="46.53129" lon="3.72363">
        <ele>217.8</ele>
        <time>2019-08-20T13:57:17Z</time>
      </trkpt>
      <trkpt lat="46.53129" lon="3.72357">
        <ele>217.7</ele>
        <time>2019-08-20T13:57:18Z</time>
      </trkpt>
      <trkpt lat="46.53131" lon="3.72351">
        <ele>217.7</ele>
        <time>2019-08-20T13:57:19Z</time>
      </trkpt>
      <trkpt lat="46.53132" lon="3.72345">
        <ele>217.7</ele>
        <time>2019-08-20T13:57:20Z</time>
      </trkpt>
      <trkpt lat="46.53134" lon="3.72339">
        <ele>217.7</ele>
        <time>2019-08-20T13:57:21Z</time>
      </trkpt>
      <trkpt lat="46.53136" lon="3.72333">
        <ele>217.7</ele>
        <time>2019-08-20T13:57:22Z</time>
      </trkpt>
      <trkpt lat="46.53138" lon="3.72327">
        <ele>217.7</ele>
        <time>2019-08-20T13:57:23Z</time>
      </trkpt>
      <trkpt lat="46.5314" lon="3.72321">
        <ele>217.7</ele>
        <time>2019-08-20T13:57:24Z</time>
      </trkpt>
      <trkpt lat="46.53141" lon="3.72315">
        <ele>217.7</ele>
        <time>2019-08-20T13:57:25Z</time>
      </trkpt>
      <trkpt lat="46.53143" lon="3.72309">
        <ele>217.7</ele>
        <time>2019-08-20T13:57:26Z</time>
      </trkpt>
      <trkpt lat="46.53145" lon="3.72303">
        <ele>217.6</ele>
        <time>2019-08-20T13:57:27Z</time>
      </trkpt>
      <trkpt lat="46.53147" lon="3.72299">
        <ele>217.6</ele>
        <time>2019-08-20T13:57:28Z</time>
      </trkpt>
      <trkpt lat="46.53148" lon="3.72294">
        <ele>217.6</ele>
        <time>2019-08-20T13:57:29Z</time>
      </trkpt>
      <trkpt lat="46.53149" lon="3.7229">
        <ele>217.6</ele>
        <time>2019-08-20T13:57:30Z</time>
      </trkpt>
      <trkpt lat="46.53151" lon="3.72282">
        <ele>217.5</ele>
        <time>2019-08-20T13:57:31Z</time>
      </trkpt>
      <trkpt lat="46.53154" lon="3.72277">
        <ele>217.5</ele>
        <time>2019-08-20T13:57:32Z</time>
      </trkpt>
      <trkpt lat="46.53157" lon="3.7227">
        <ele>217.4</ele>
        <time>2019-08-20T13:57:33Z</time>
      </trkpt>
      <trkpt lat="46.53158" lon="3.72264">
        <ele>217.3</ele>
        <time>2019-08-20T13:57:34Z</time>
      </trkpt>
      <trkpt lat="46.53159" lon="3.72259">
        <ele>217.2</ele>
        <time>2019-08-20T13:57:35Z</time>
      </trkpt>
      <trkpt lat="46.5316" lon="3.72255">
        <ele>217.1</ele>
        <time>2019-08-20T13:57:36Z</time>
      </trkpt>
      <trkpt lat="46.53162" lon="3.7225">
        <ele>217</ele>
        <time>2019-08-20T13:57:37Z</time>
      </trkpt>
      <trkpt lat="46.53163" lon="3.72244">
        <ele>216.9</ele>
        <time>2019-08-20T13:57:38Z</time>
      </trkpt>
      <trkpt lat="46.53163" lon="3.72238">
        <ele>216.9</ele>
        <time>2019-08-20T13:57:39Z</time>
      </trkpt>
      <trkpt lat="46.53165" lon="3.72232">
        <ele>216.8</ele>
        <time>2019-08-20T13:57:40Z</time>
      </trkpt>
      <trkpt lat="46.53166" lon="3.72226">
        <ele>216.7</ele>
        <time>2019-08-20T13:57:41Z</time>
      </trkpt>
      <trkpt lat="46.53167" lon="3.7222">
        <ele>216.7</ele>
        <time>2019-08-20T13:57:42Z</time>
      </trkpt>
      <trkpt lat="46.53169" lon="3.72214">
        <ele>216.6</ele>
        <time>2019-08-20T13:57:43Z</time>
      </trkpt>
      <trkpt lat="46.5317" lon="3.72207">
        <ele>216.6</ele>
        <time>2019-08-20T13:57:44Z</time>
      </trkpt>
      <trkpt lat="46.53172" lon="3.72201">
        <ele>216.5</ele>
        <time>2019-08-20T13:57:45Z</time>
      </trkpt>
      <trkpt lat="46.53173" lon="3.72195">
        <ele>216.5</ele>
        <time>2019-08-20T13:57:46Z</time>
      </trkpt>
      <trkpt lat="46.53175" lon="3.72188">
        <ele>216.5</ele>
        <time>2019-08-20T13:57:47Z</time>
      </trkpt>
      <trkpt lat="46.53176" lon="3.72182">
        <ele>216.4</ele>
        <time>2019-08-20T13:57:48Z</time>
      </trkpt>
      <trkpt lat="46.53177" lon="3.72176">
        <ele>216.4</ele>
        <time>2019-08-20T13:57:49Z</time>
      </trkpt>
      <trkpt lat="46.53178" lon="3.72171">
        <ele>216.4</ele>
        <time>2019-08-20T13:57:50Z</time>
      </trkpt>
      <trkpt lat="46.53179" lon="3.72165">
        <ele>216.4</ele>
        <time>2019-08-20T13:57:51Z</time>
      </trkpt>
      <trkpt lat="46.5318" lon="3.72159">
        <ele>216.4</ele>
        <time>2019-08-20T13:57:52Z</time>
      </trkpt>
      <trkpt lat="46.53181" lon="3.72152">
        <ele>216.4</ele>
        <time>2019-08-20T13:57:53Z</time>
      </trkpt>
      <trkpt lat="46.53182" lon="3.72146">
        <ele>216.4</ele>
        <time>2019-08-20T13:57:54Z</time>
      </trkpt>
      <trkpt lat="46.53183" lon="3.7214">
        <ele>216.4</ele>
        <time>2019-08-20T13:57:55Z</time>
      </trkpt>
      <trkpt lat="46.53186" lon="3.72129">
        <ele>216.3</ele>
        <time>2019-08-20T13:57:56Z</time>
      </trkpt>
      <trkpt lat="46.53187" lon="3.72122">
        <ele>216.3</ele>
        <time>2019-08-20T13:57:57Z</time>
      </trkpt>
      <trkpt lat="46.53188" lon="3.72114">
        <ele>216.3</ele>
        <time>2019-08-20T13:57:58Z</time>
      </trkpt>
      <trkpt lat="46.53188" lon="3.72107">
        <ele>216.3</ele>
        <time>2019-08-20T13:57:59Z</time>
      </trkpt>
      <trkpt lat="46.5319" lon="3.721">
        <ele>216.3</ele>
        <time>2019-08-20T13:58:00Z</time>
      </trkpt>
      <trkpt lat="46.53192" lon="3.72092">
        <ele>216.3</ele>
        <time>2019-08-20T13:58:01Z</time>
      </trkpt>
      <trkpt lat="46.53194" lon="3.72086">
        <ele>216.3</ele>
        <time>2019-08-20T13:58:02Z</time>
      </trkpt>
      <trkpt lat="46.53195" lon="3.7208">
        <ele>216.3</ele>
        <time>2019-08-20T13:58:03Z</time>
      </trkpt>
      <trkpt lat="46.53197" lon="3.72073">
        <ele>216.2</ele>
        <time>2019-08-20T13:58:04Z</time>
      </trkpt>
      <trkpt lat="46.53198" lon="3.72066">
        <ele>216.2</ele>
        <time>2019-08-20T13:58:05Z</time>
      </trkpt>
      <trkpt lat="46.53199" lon="3.72059">
        <ele>216.2</ele>
        <time>2019-08-20T13:58:06Z</time>
      </trkpt>
      <trkpt lat="46.53201" lon="3.72053">
        <ele>216.2</ele>
        <time>2019-08-20T13:58:07Z</time>
      </trkpt>
      <trkpt lat="46.53202" lon="3.72045">
        <ele>216.2</ele>
        <time>2019-08-20T13:58:08Z</time>
      </trkpt>
      <trkpt lat="46.53203" lon="3.72037">
        <ele>216.2</ele>
        <time>2019-08-20T13:58:09Z</time>
      </trkpt>
      <trkpt lat="46.53204" lon="3.7203">
        <ele>216.2</ele>
        <time>2019-08-20T13:58:10Z</time>
      </trkpt>
      <trkpt lat="46.53206" lon="3.72023">
        <ele>216.2</ele>
        <time>2019-08-20T13:58:11Z</time>
      </trkpt>
      <trkpt lat="46.53208" lon="3.72017">
        <ele>216.1</ele>
        <time>2019-08-20T13:58:12Z</time>
      </trkpt>
      <trkpt lat="46.53209" lon="3.7201">
        <ele>216.1</ele>
        <time>2019-08-20T13:58:13Z</time>
      </trkpt>
      <trkpt lat="46.53211" lon="3.72003">
        <ele>216.1</ele>
        <time>2019-08-20T13:58:14Z</time>
      </trkpt>
      <trkpt lat="46.53212" lon="3.71996">
        <ele>216.1</ele>
        <time>2019-08-20T13:58:15Z</time>
      </trkpt>
      <trkpt lat="46.53214" lon="3.71988">
        <ele>216.1</ele>
        <time>2019-08-20T13:58:16Z</time>
      </trkpt>
      <trkpt lat="46.53217" lon="3.71981">
        <ele>216.1</ele>
        <time>2019-08-20T13:58:17Z</time>
      </trkpt>
      <trkpt lat="46.53219" lon="3.71974">
        <ele>216.1</ele>
        <time>2019-08-20T13:58:18Z</time>
      </trkpt>
      <trkpt lat="46.53221" lon="3.71967">
        <ele>216.1</ele>
        <time>2019-08-20T13:58:19Z</time>
      </trkpt>
      <trkpt lat="46.53223" lon="3.7196">
        <ele>216</ele>
        <time>2019-08-20T13:58:20Z</time>
      </trkpt>
      <trkpt lat="46.53224" lon="3.71954">
        <ele>216</ele>
        <time>2019-08-20T13:58:21Z</time>
      </trkpt>
      <trkpt lat="46.53226" lon="3.71947">
        <ele>216</ele>
        <time>2019-08-20T13:58:22Z</time>
      </trkpt>
      <trkpt lat="46.53228" lon="3.7194">
        <ele>216</ele>
        <time>2019-08-20T13:58:23Z</time>
      </trkpt>
      <trkpt lat="46.5323" lon="3.71934">
        <ele>216</ele>
        <time>2019-08-20T13:58:24Z</time>
      </trkpt>
      <trkpt lat="46.53232" lon="3.71928">
        <ele>216</ele>
        <time>2019-08-20T13:58:25Z</time>
      </trkpt>
      <trkpt lat="46.53234" lon="3.71922">
        <ele>216</ele>
        <time>2019-08-20T13:58:26Z</time>
      </trkpt>
      <trkpt lat="46.53235" lon="3.71917">
        <ele>216</ele>
        <time>2019-08-20T13:58:27Z</time>
      </trkpt>
      <trkpt lat="46.53236" lon="3.7191">
        <ele>216</ele>
        <time>2019-08-20T13:58:28Z</time>
      </trkpt>
      <trkpt lat="46.53238" lon="3.71904">
        <ele>215.9</ele>
        <time>2019-08-20T13:58:29Z</time>
      </trkpt>
      <trkpt lat="46.5324" lon="3.71897">
        <ele>215.9</ele>
        <time>2019-08-20T13:58:30Z</time>
      </trkpt>
      <trkpt lat="46.53243" lon="3.71889">
        <ele>215.9</ele>
        <time>2019-08-20T13:58:31Z</time>
      </trkpt>
      <trkpt lat="46.53245" lon="3.71882">
        <ele>215.9</ele>
        <time>2019-08-20T13:58:32Z</time>
      </trkpt>
      <trkpt lat="46.53247" lon="3.71875">
        <ele>215.9</ele>
        <time>2019-08-20T13:58:33Z</time>
      </trkpt>
      <trkpt lat="46.53249" lon="3.71868">
        <ele>215.9</ele>
        <time>2019-08-20T13:58:34Z</time>
      </trkpt>
      <trkpt lat="46.53251" lon="3.71861">
        <ele>215.9</ele>
        <time>2019-08-20T13:58:35Z</time>
      </trkpt>
      <trkpt lat="46.53254" lon="3.71854">
        <ele>215.9</ele>
        <time>2019-08-20T13:58:36Z</time>
      </trkpt>
      <trkpt lat="46.53256" lon="3.71847">
        <ele>215.8</ele>
        <time>2019-08-20T13:58:37Z</time>
      </trkpt>
      <trkpt lat="46.53258" lon="3.7184">
        <ele>215.8</ele>
        <time>2019-08-20T13:58:38Z</time>
      </trkpt>
      <trkpt lat="46.53261" lon="3.71833">
        <ele>215.8</ele>
        <time>2019-08-20T13:58:39Z</time>
      </trkpt>
      <trkpt lat="46.53263" lon="3.71826">
        <ele>215.8</ele>
        <time>2019-08-20T13:58:40Z</time>
      </trkpt>
      <trkpt lat="46.53265" lon="3.7182">
        <ele>215.8</ele>
        <time>2019-08-20T13:58:41Z</time>
      </trkpt>
      <trkpt lat="46.53267" lon="3.71815">
        <ele>215.8</ele>
        <time>2019-08-20T13:58:42Z</time>
      </trkpt>
      <trkpt lat="46.53269" lon="3.71809">
        <ele>215.8</ele>
        <time>2019-08-20T13:58:43Z</time>
      </trkpt>
      <trkpt lat="46.53271" lon="3.71802">
        <ele>215.8</ele>
        <time>2019-08-20T13:58:44Z</time>
      </trkpt>
      <trkpt lat="46.53273" lon="3.71797">
        <ele>215.7</ele>
        <time>2019-08-20T13:58:45Z</time>
      </trkpt>
      <trkpt lat="46.53276" lon="3.7179">
        <ele>215.7</ele>
        <time>2019-08-20T13:58:46Z</time>
      </trkpt>
      <trkpt lat="46.53278" lon="3.71784">
        <ele>215.7</ele>
        <time>2019-08-20T13:58:47Z</time>
      </trkpt>
      <trkpt lat="46.53281" lon="3.71778">
        <ele>215.7</ele>
        <time>2019-08-20T13:58:48Z</time>
      </trkpt>
      <trkpt lat="46.53285" lon="3.71771">
        <ele>215.7</ele>
        <time>2019-08-20T13:58:49Z</time>
      </trkpt>
      <trkpt lat="46.53287" lon="3.71765">
        <ele>215.7</ele>
        <time>2019-08-20T13:58:50Z</time>
      </trkpt>
      <trkpt lat="46.53289" lon="3.71758">
        <ele>215.7</ele>
        <time>2019-08-20T13:58:51Z</time>
      </trkpt>
      <trkpt lat="46.53292" lon="3.71752">
        <ele>215.7</ele>
        <time>2019-08-20T13:58:52Z</time>
      </trkpt>
      <trkpt lat="46.53295" lon="3.71746">
        <ele>215.6</ele>
        <time>2019-08-20T13:58:53Z</time>
      </trkpt>
      <trkpt lat="46.53298" lon="3.7174">
        <ele>215.6</ele>
        <time>2019-08-20T13:58:54Z</time>
      </trkpt>
      <trkpt lat="46.53302" lon="3.71735">
        <ele>215.6</ele>
        <time>2019-08-20T13:58:55Z</time>
      </trkpt>
      <trkpt lat="46.53305" lon="3.71729">
        <ele>215.6</ele>
        <time>2019-08-20T13:58:56Z</time>
      </trkpt>
      <trkpt lat="46.53307" lon="3.71722">
        <ele>215.6</ele>
        <time>2019-08-20T13:58:57Z</time>
      </trkpt>
      <trkpt lat="46.5331" lon="3.71716">
        <ele>215.6</ele>
        <time>2019-08-20T13:58:58Z</time>
      </trkpt>
      <trkpt lat="46.53313" lon="3.7171">
        <ele>215.6</ele>
        <time>2019-08-20T13:58:59Z</time>
      </trkpt>
      <trkpt lat="46.53317" lon="3.71704">
        <ele>215.6</ele>
        <time>2019-08-20T13:59:00Z</time>
      </trkpt>
      <trkpt lat="46.53321" lon="3.71699">
        <ele>215.5</ele>
        <time>2019-08-20T13:59:01Z</time>
      </trkpt>
      <trkpt lat="46.53325" lon="3.71693">
        <ele>215.5</ele>
        <time>2019-08-20T13:59:02Z</time>
      </trkpt>
      <trkpt lat="46.53328" lon="3.71687">
        <ele>215.5</ele>
        <time>2019-08-20T13:59:03Z</time>
      </trkpt>
      <trkpt lat="46.53332" lon="3.7168">
        <ele>215.5</ele>
        <time>2019-08-20T13:59:04Z</time>
      </trkpt>
      <trkpt lat="46.53336" lon="3.71674">
        <ele>215.5</ele>
        <time>2019-08-20T13:59:05Z</time>
      </trkpt>
      <trkpt lat="46.53339" lon="3.71667">
        <ele>215.5</ele>
        <time>2019-08-20T13:59:06Z</time>
      </trkpt>
      <trkpt lat="46.53342" lon="3.71662">
        <ele>215.5</ele>
        <time>2019-08-20T13:59:07Z</time>
      </trkpt>
      <trkpt lat="46.53344" lon="3.71657">
        <ele>215.4</ele>
        <time>2019-08-20T13:59:08Z</time>
      </trkpt>
      <trkpt lat="46.53347" lon="3.71651">
        <ele>215.4</ele>
        <time>2019-08-20T13:59:09Z</time>
      </trkpt>
      <trkpt lat="46.5335" lon="3.71645">
        <ele>215.4</ele>
        <time>2019-08-20T13:59:10Z</time>
      </trkpt>
      <trkpt lat="46.53353" lon="3.71638">
        <ele>215.4</ele>
        <time>2019-08-20T13:59:11Z</time>
      </trkpt>
      <trkpt lat="46.53357" lon="3.71633">
        <ele>215.4</ele>
        <time>2019-08-20T13:59:12Z</time>
      </trkpt>
      <trkpt lat="46.5336" lon="3.71628">
        <ele>215.4</ele>
        <time>2019-08-20T13:59:13Z</time>
      </trkpt>
      <trkpt lat="46.53364" lon="3.71623">
        <ele>215.4</ele>
        <time>2019-08-20T13:59:14Z</time>
      </trkpt>
      <trkpt lat="46.53367" lon="3.71618">
        <ele>215.4</ele>
        <time>2019-08-20T13:59:15Z</time>
      </trkpt>
      <trkpt lat="46.5337" lon="3.71614">
        <ele>215.4</ele>
        <time>2019-08-20T13:59:16Z</time>
      </trkpt>
      <trkpt lat="46.53373" lon="3.71609">
        <ele>215.3</ele>
        <time>2019-08-20T13:59:17Z</time>
      </trkpt>
      <trkpt lat="46.53376" lon="3.71604">
        <ele>215.3</ele>
        <time>2019-08-20T13:59:18Z</time>
      </trkpt>
      <trkpt lat="46.53379" lon="3.716">
        <ele>215.3</ele>
        <time>2019-08-20T13:59:19Z</time>
      </trkpt>
      <trkpt lat="46.53382" lon="3.71596">
        <ele>215.3</ele>
        <time>2019-08-20T13:59:20Z</time>
      </trkpt>
      <trkpt lat="46.53386" lon="3.71592">
        <ele>215.3</ele>
        <time>2019-08-20T13:59:21Z</time>
      </trkpt>
      <trkpt lat="46.5339" lon="3.71588">
        <ele>215.3</ele>
        <time>2019-08-20T13:59:22Z</time>
      </trkpt>
      <trkpt lat="46.53393" lon="3.71583">
        <ele>215.3</ele>
        <time>2019-08-20T13:59:23Z</time>
      </trkpt>
      <trkpt lat="46.53397" lon="3.71578">
        <ele>215.3</ele>
        <time>2019-08-20T13:59:24Z</time>
      </trkpt>
      <trkpt lat="46.534" lon="3.71575">
        <ele>215.2</ele>
        <time>2019-08-20T13:59:25Z</time>
      </trkpt>
      <trkpt lat="46.53404" lon="3.71571">
        <ele>215.2</ele>
        <time>2019-08-20T13:59:26Z</time>
      </trkpt>
      <trkpt lat="46.53408" lon="3.71567">
        <ele>215.2</ele>
        <time>2019-08-20T13:59:27Z</time>
      </trkpt>
      <trkpt lat="46.53412" lon="3.71563">
        <ele>215.2</ele>
        <time>2019-08-20T13:59:28Z</time>
      </trkpt>
      <trkpt lat="46.53416" lon="3.71558">
        <ele>215.2</ele>
        <time>2019-08-20T13:59:29Z</time>
      </trkpt>
      <trkpt lat="46.53419" lon="3.71554">
        <ele>215.2</ele>
        <time>2019-08-20T13:59:30Z</time>
      </trkpt>
      <trkpt lat="46.53423" lon="3.71551">
        <ele>215.2</ele>
        <time>2019-08-20T13:59:31Z</time>
      </trkpt>
      <trkpt lat="46.53427" lon="3.71548">
        <ele>215.2</ele>
        <time>2019-08-20T13:59:32Z</time>
      </trkpt>
      <trkpt lat="46.5343" lon="3.71545">
        <ele>215.2</ele>
        <time>2019-08-20T13:59:33Z</time>
      </trkpt>
      <trkpt lat="46.53434" lon="3.7154">
        <ele>215.1</ele>
        <time>2019-08-20T13:59:34Z</time>
      </trkpt>
      <trkpt lat="46.53438" lon="3.71536">
        <ele>215.1</ele>
        <time>2019-08-20T13:59:35Z</time>
      </trkpt>
      <trkpt lat="46.53443" lon="3.71532">
        <ele>215.1</ele>
        <time>2019-08-20T13:59:36Z</time>
      </trkpt>
      <trkpt lat="46.53446" lon="3.71528">
        <ele>215.1</ele>
        <time>2019-08-20T13:59:37Z</time>
      </trkpt>
      <trkpt lat="46.53451" lon="3.71524">
        <ele>215.1</ele>
        <time>2019-08-20T13:59:38Z</time>
      </trkpt>
      <trkpt lat="46.53454" lon="3.7152">
        <ele>215.1</ele>
        <time>2019-08-20T13:59:39Z</time>
      </trkpt>
      <trkpt lat="46.53458" lon="3.71515">
        <ele>215.1</ele>
        <time>2019-08-20T13:59:40Z</time>
      </trkpt>
      <trkpt lat="46.53463" lon="3.71509">
        <ele>215.1</ele>
        <time>2019-08-20T13:59:41Z</time>
      </trkpt>
      <trkpt lat="46.53468" lon="3.71506">
        <ele>215</ele>
        <time>2019-08-20T13:59:42Z</time>
      </trkpt>
      <trkpt lat="46.53472" lon="3.71502">
        <ele>215</ele>
        <time>2019-08-20T13:59:43Z</time>
      </trkpt>
      <trkpt lat="46.53475" lon="3.71498">
        <ele>215</ele>
        <time>2019-08-20T13:59:44Z</time>
      </trkpt>
      <trkpt lat="46.53479" lon="3.71493">
        <ele>215</ele>
        <time>2019-08-20T13:59:45Z</time>
      </trkpt>
      <trkpt lat="46.53483" lon="3.71488">
        <ele>215</ele>
        <time>2019-08-20T13:59:46Z</time>
      </trkpt>
      <trkpt lat="46.53487" lon="3.71482">
        <ele>215</ele>
        <time>2019-08-20T13:59:47Z</time>
      </trkpt>
      <trkpt lat="46.53491" lon="3.71477">
        <ele>215</ele>
        <time>2019-08-20T13:59:48Z</time>
      </trkpt>
      <trkpt lat="46.53494" lon="3.71474">
        <ele>215</ele>
        <time>2019-08-20T13:59:49Z</time>
      </trkpt>
      <trkpt lat="46.53498" lon="3.7147">
        <ele>215</ele>
        <time>2019-08-20T13:59:50Z</time>
      </trkpt>
      <trkpt lat="46.53502" lon="3.71466">
        <ele>214.9</ele>
        <time>2019-08-20T13:59:51Z</time>
      </trkpt>
      <trkpt lat="46.53506" lon="3.71461">
        <ele>214.9</ele>
        <time>2019-08-20T13:59:52Z</time>
      </trkpt>
      <trkpt lat="46.5351" lon="3.71457">
        <ele>214.9</ele>
        <time>2019-08-20T13:59:53Z</time>
      </trkpt>
      <trkpt lat="46.53514" lon="3.71453">
        <ele>214.9</ele>
        <time>2019-08-20T13:59:54Z</time>
      </trkpt>
      <trkpt lat="46.53518" lon="3.7145">
        <ele>214.9</ele>
        <time>2019-08-20T13:59:55Z</time>
      </trkpt>
      <trkpt lat="46.53523" lon="3.71447">
        <ele>214.9</ele>
        <time>2019-08-20T13:59:56Z</time>
      </trkpt>
      <trkpt lat="46.53526" lon="3.71443">
        <ele>214.9</ele>
        <time>2019-08-20T13:59:57Z</time>
      </trkpt>
      <trkpt lat="46.53531" lon="3.71439">
        <ele>214.9</ele>
        <time>2019-08-20T13:59:58Z</time>
      </trkpt>
      <trkpt lat="46.53534" lon="3.71435">
        <ele>214.8</ele>
        <time>2019-08-20T13:59:59Z</time>
      </trkpt>
      <trkpt lat="46.53538" lon="3.71431">
        <ele>214.8</ele>
        <time>2019-08-20T14:00:00Z</time>
      </trkpt>
      <trkpt lat="46.53541" lon="3.71426">
        <ele>214.8</ele>
        <time>2019-08-20T14:00:01Z</time>
      </trkpt>
      <trkpt lat="46.53546" lon="3.71424">
        <ele>214.8</ele>
        <time>2019-08-20T14:00:02Z</time>
      </trkpt>
      <trkpt lat="46.53549" lon="3.7142">
        <ele>214.8</ele>
        <time>2019-08-20T14:00:03Z</time>
      </trkpt>
      <trkpt lat="46.53553" lon="3.71417">
        <ele>214.8</ele>
        <time>2019-08-20T14:00:04Z</time>
      </trkpt>
      <trkpt lat="46.53556" lon="3.71413">
        <ele>214.8</ele>
        <time>2019-08-20T14:00:05Z</time>
      </trkpt>
      <trkpt lat="46.53559" lon="3.71409">
        <ele>214.8</ele>
        <time>2019-08-20T14:00:06Z</time>
      </trkpt>
      <trkpt lat="46.53563" lon="3.71405">
        <ele>214.8</ele>
        <time>2019-08-20T14:00:07Z</time>
      </trkpt>
      <trkpt lat="46.53567" lon="3.714">
        <ele>214.7</ele>
        <time>2019-08-20T14:00:08Z</time>
      </trkpt>
      <trkpt lat="46.53571" lon="3.71396">
        <ele>214.7</ele>
        <time>2019-08-20T14:00:09Z</time>
      </trkpt>
      <trkpt lat="46.53574" lon="3.71392">
        <ele>214.7</ele>
        <time>2019-08-20T14:00:10Z</time>
      </trkpt>
      <trkpt lat="46.53579" lon="3.71389">
        <ele>214.7</ele>
        <time>2019-08-20T14:00:11Z</time>
      </trkpt>
      <trkpt lat="46.53583" lon="3.71385">
        <ele>214.7</ele>
        <time>2019-08-20T14:00:12Z</time>
      </trkpt>
      <trkpt lat="46.53586" lon="3.71381">
        <ele>214.7</ele>
        <time>2019-08-20T14:00:13Z</time>
      </trkpt>
      <trkpt lat="46.5359" lon="3.71378">
        <ele>214.7</ele>
        <time>2019-08-20T14:00:14Z</time>
      </trkpt>
      <trkpt lat="46.53592" lon="3.71375">
        <ele>214.7</ele>
        <time>2019-08-20T14:00:15Z</time>
      </trkpt>
      <trkpt lat="46.53595" lon="3.71372">
        <ele>214.7</ele>
        <time>2019-08-20T14:00:16Z</time>
      </trkpt>
      <trkpt lat="46.53598" lon="3.71367">
        <ele>214.6</ele>
        <time>2019-08-20T14:00:17Z</time>
      </trkpt>
      <trkpt lat="46.53602" lon="3.71362">
        <ele>214.6</ele>
        <time>2019-08-20T14:00:18Z</time>
      </trkpt>
      <trkpt lat="46.53606" lon="3.71357">
        <ele>214.6</ele>
        <time>2019-08-20T14:00:19Z</time>
      </trkpt>
      <trkpt lat="46.53611" lon="3.71353">
        <ele>214.6</ele>
        <time>2019-08-20T14:00:20Z</time>
      </trkpt>
      <trkpt lat="46.53616" lon="3.71348">
        <ele>214.6</ele>
        <time>2019-08-20T14:00:21Z</time>
      </trkpt>
      <trkpt lat="46.53621" lon="3.71344">
        <ele>214.6</ele>
        <time>2019-08-20T14:00:22Z</time>
      </trkpt>
      <trkpt lat="46.53626" lon="3.71339">
        <ele>214.6</ele>
        <time>2019-08-20T14:00:23Z</time>
      </trkpt>
      <trkpt lat="46.5363" lon="3.71333">
        <ele>214.6</ele>
        <time>2019-08-20T14:00:24Z</time>
      </trkpt>
      <trkpt lat="46.53635" lon="3.71328">
        <ele>214.5</ele>
        <time>2019-08-20T14:00:25Z</time>
      </trkpt>
      <trkpt lat="46.53639" lon="3.71325">
        <ele>214.5</ele>
        <time>2019-08-20T14:00:26Z</time>
      </trkpt>
      <trkpt lat="46.53643" lon="3.71321">
        <ele>214.5</ele>
        <time>2019-08-20T14:00:27Z</time>
      </trkpt>
      <trkpt lat="46.53647" lon="3.71317">
        <ele>214.5</ele>
        <time>2019-08-20T14:00:28Z</time>
      </trkpt>
      <trkpt lat="46.53651" lon="3.71313">
        <ele>214.5</ele>
        <time>2019-08-20T14:00:29Z</time>
      </trkpt>
      <trkpt lat="46.53654" lon="3.7131">
        <ele>214.5</ele>
        <time>2019-08-20T14:00:30Z</time>
      </trkpt>
      <trkpt lat="46.53658" lon="3.71306">
        <ele>214.5</ele>
        <time>2019-08-20T14:00:31Z</time>
      </trkpt>
      <trkpt lat="46.53662" lon="3.71301">
        <ele>214.5</ele>
        <time>2019-08-20T14:00:32Z</time>
      </trkpt>
      <trkpt lat="46.53666" lon="3.71295">
        <ele>214.4</ele>
        <time>2019-08-20T14:00:33Z</time>
      </trkpt>
      <trkpt lat="46.53671" lon="3.7129">
        <ele>214.4</ele>
        <time>2019-08-20T14:00:34Z</time>
      </trkpt>
      <trkpt lat="46.53673" lon="3.71286">
        <ele>214.4</ele>
        <time>2019-08-20T14:00:35Z</time>
      </trkpt>
      <trkpt lat="46.53677" lon="3.71282">
        <ele>214.4</ele>
        <time>2019-08-20T14:00:36Z</time>
      </trkpt>
      <trkpt lat="46.5368" lon="3.71276">
        <ele>214.4</ele>
        <time>2019-08-20T14:00:37Z</time>
      </trkpt>
      <trkpt lat="46.53684" lon="3.7127">
        <ele>214.4</ele>
        <time>2019-08-20T14:00:38Z</time>
      </trkpt>
      <trkpt lat="46.53686" lon="3.71264">
        <ele>214.4</ele>
        <time>2019-08-20T14:00:39Z</time>
      </trkpt>
      <trkpt lat="46.5369" lon="3.7126">
        <ele>214.4</ele>
        <time>2019-08-20T14:00:40Z</time>
      </trkpt>
      <trkpt lat="46.53693" lon="3.71256">
        <ele>214.4</ele>
        <time>2019-08-20T14:00:41Z</time>
      </trkpt>
      <trkpt lat="46.53696" lon="3.71252">
        <ele>214.4</ele>
        <time>2019-08-20T14:00:42Z</time>
      </trkpt>
      <trkpt lat="46.53698" lon="3.71247">
        <ele>214.4</ele>
        <time>2019-08-20T14:00:43Z</time>
      </trkpt>
      <trkpt lat="46.53701" lon="3.71243">
        <ele>214.5</ele>
        <time>2019-08-20T14:00:44Z</time>
      </trkpt>
      <trkpt lat="46.53704" lon="3.71239">
        <ele>214.6</ele>
        <time>2019-08-20T14:00:45Z</time>
      </trkpt>
      <trkpt lat="46.53707" lon="3.71234">
        <ele>214.7</ele>
        <time>2019-08-20T14:00:46Z</time>
      </trkpt>
      <trkpt lat="46.5371" lon="3.71229">
        <ele>214.9</ele>
        <time>2019-08-20T14:00:47Z</time>
      </trkpt>
      <trkpt lat="46.53713" lon="3.71222">
        <ele>215.1</ele>
        <time>2019-08-20T14:00:48Z</time>
      </trkpt>
      <trkpt lat="46.53716" lon="3.71216">
        <ele>215.3</ele>
        <time>2019-08-20T14:00:49Z</time>
      </trkpt>
      <trkpt lat="46.53718" lon="3.71211">
        <ele>215.5</ele>
        <time>2019-08-20T14:00:50Z</time>
      </trkpt>
      <trkpt lat="46.5372" lon="3.71206">
        <ele>215.7</ele>
        <time>2019-08-20T14:00:51Z</time>
      </trkpt>
      <trkpt lat="46.53723" lon="3.71199">
        <ele>215.9</ele>
        <time>2019-08-20T14:00:52Z</time>
      </trkpt>
      <trkpt lat="46.53725" lon="3.71194">
        <ele>216</ele>
        <time>2019-08-20T14:00:53Z</time>
      </trkpt>
      <trkpt lat="46.53727" lon="3.71187">
        <ele>216.1</ele>
        <time>2019-08-20T14:00:54Z</time>
      </trkpt>
      <trkpt lat="46.53729" lon="3.71181">
        <ele>216.2</ele>
        <time>2019-08-20T14:00:55Z</time>
      </trkpt>
      <trkpt lat="46.53731" lon="3.71175">
        <ele>216.2</ele>
        <time>2019-08-20T14:00:56Z</time>
      </trkpt>
      <trkpt lat="46.53733" lon="3.71169">
        <ele>216.3</ele>
        <time>2019-08-20T14:00:57Z</time>
      </trkpt>
      <trkpt lat="46.53735" lon="3.71163">
        <ele>216.3</ele>
        <time>2019-08-20T14:00:58Z</time>
      </trkpt>
      <trkpt lat="46.53736" lon="3.71158">
        <ele>216.4</ele>
        <time>2019-08-20T14:00:59Z</time>
      </trkpt>
      <trkpt lat="46.53738" lon="3.71153">
        <ele>216.5</ele>
        <time>2019-08-20T14:01:00Z</time>
      </trkpt>
      <trkpt lat="46.5374" lon="3.71147">
        <ele>216.6</ele>
        <time>2019-08-20T14:01:01Z</time>
      </trkpt>
      <trkpt lat="46.53741" lon="3.71141">
        <ele>216.8</ele>
        <time>2019-08-20T14:01:02Z</time>
      </trkpt>
      <trkpt lat="46.53743" lon="3.71135">
        <ele>217.1</ele>
        <time>2019-08-20T14:01:03Z</time>
      </trkpt>
      <trkpt lat="46.53745" lon="3.71129">
        <ele>217.3</ele>
        <time>2019-08-20T14:01:04Z</time>
      </trkpt>
      <trkpt lat="46.53746" lon="3.71124">
        <ele>217.5</ele>
        <time>2019-08-20T14:01:05Z</time>
      </trkpt>
      <trkpt lat="46.53747" lon="3.71118">
        <ele>217.7</ele>
        <time>2019-08-20T14:01:06Z</time>
      </trkpt>
      <trkpt lat="46.53748" lon="3.71113">
        <ele>217.8</ele>
        <time>2019-08-20T14:01:07Z</time>
      </trkpt>
      <trkpt lat="46.53748" lon="3.71106">
        <ele>217.9</ele>
        <time>2019-08-20T14:01:08Z</time>
      </trkpt>
      <trkpt lat="46.53749" lon="3.71099">
        <ele>218</ele>
        <time>2019-08-20T14:01:09Z</time>
      </trkpt>
      <trkpt lat="46.53752" lon="3.71091">
        <ele>218</ele>
        <time>2019-08-20T14:01:10Z</time>
      </trkpt>
      <trkpt lat="46.53754" lon="3.71084">
        <ele>218</ele>
        <time>2019-08-20T14:01:11Z</time>
      </trkpt>
      <trkpt lat="46.53756" lon="3.71077">
        <ele>217.9</ele>
        <time>2019-08-20T14:01:12Z</time>
      </trkpt>
      <trkpt lat="46.53758" lon="3.71069">
        <ele>217.8</ele>
        <time>2019-08-20T14:01:13Z</time>
      </trkpt>
      <trkpt lat="46.5376" lon="3.71062">
        <ele>217.7</ele>
        <time>2019-08-20T14:01:14Z</time>
      </trkpt>
      <trkpt lat="46.53761" lon="3.71055">
        <ele>217.5</ele>
        <time>2019-08-20T14:01:15Z</time>
      </trkpt>
      <trkpt lat="46.53762" lon="3.71049">
        <ele>217.3</ele>
        <time>2019-08-20T14:01:16Z</time>
      </trkpt>
      <trkpt lat="46.53763" lon="3.71043">
        <ele>217.2</ele>
        <time>2019-08-20T14:01:17Z</time>
      </trkpt>
      <trkpt lat="46.53765" lon="3.71037">
        <ele>217</ele>
        <time>2019-08-20T14:01:18Z</time>
      </trkpt>
      <trkpt lat="46.53767" lon="3.71029">
        <ele>216.8</ele>
        <time>2019-08-20T14:01:19Z</time>
      </trkpt>
      <trkpt lat="46.53768" lon="3.71022">
        <ele>216.7</ele>
        <time>2019-08-20T14:01:20Z</time>
      </trkpt>
      <trkpt lat="46.53769" lon="3.71015">
        <ele>216.5</ele>
        <time>2019-08-20T14:01:21Z</time>
      </trkpt>
      <trkpt lat="46.53769" lon="3.71007">
        <ele>216.2</ele>
        <time>2019-08-20T14:01:22Z</time>
      </trkpt>
      <trkpt lat="46.53768" lon="3.71001">
        <ele>215.9</ele>
        <time>2019-08-20T14:01:23Z</time>
      </trkpt>
      <trkpt lat="46.53769" lon="3.70995">
        <ele>215.6</ele>
        <time>2019-08-20T14:01:24Z</time>
      </trkpt>
      <trkpt lat="46.5377" lon="3.7099">
        <ele>215.5</ele>
        <time>2019-08-20T14:01:25Z</time>
      </trkpt>
      <trkpt lat="46.53772" lon="3.70985">
        <ele>215.3</ele>
        <time>2019-08-20T14:01:26Z</time>
      </trkpt>
      <trkpt lat="46.53773" lon="3.7098">
        <ele>215.2</ele>
        <time>2019-08-20T14:01:27Z</time>
      </trkpt>
      <trkpt lat="46.53774" lon="3.70976">
        <ele>215.1</ele>
        <time>2019-08-20T14:01:28Z</time>
      </trkpt>
      <trkpt lat="46.53776" lon="3.70969">
        <ele>215</ele>
        <time>2019-08-20T14:01:30Z</time>
      </trkpt>
      <trkpt lat="46.53776" lon="3.70964">
        <ele>214.9</ele>
        <time>2019-08-20T14:01:31Z</time>
      </trkpt>
      <trkpt lat="46.53777" lon="3.70961">
        <ele>214.9</ele>
        <time>2019-08-20T14:01:32Z</time>
      </trkpt>
      <trkpt lat="46.53779" lon="3.70956">
        <ele>214.9</ele>
        <time>2019-08-20T14:01:33Z</time>
      </trkpt>
      <trkpt lat="46.5378" lon="3.70952">
        <ele>214.8</ele>
        <time>2019-08-20T14:01:34Z</time>
      </trkpt>
      <trkpt lat="46.53781" lon="3.70947">
        <ele>214.8</ele>
        <time>2019-08-20T14:01:35Z</time>
      </trkpt>
      <trkpt lat="46.53782" lon="3.70942">
        <ele>214.9</ele>
        <time>2019-08-20T14:01:36Z</time>
      </trkpt>
      <trkpt lat="46.53784" lon="3.70937">
        <ele>214.9</ele>
        <time>2019-08-20T14:01:37Z</time>
      </trkpt>
      <trkpt lat="46.53785" lon="3.70932">
        <ele>214.9</ele>
        <time>2019-08-20T14:01:38Z</time>
      </trkpt>
      <trkpt lat="46.53786" lon="3.70928">
        <ele>214.9</ele>
        <time>2019-08-20T14:01:39Z</time>
      </trkpt>
      <trkpt lat="46.53787" lon="3.70924">
        <ele>215</ele>
        <time>2019-08-20T14:01:40Z</time>
      </trkpt>
      <trkpt lat="46.53789" lon="3.70919">
        <ele>215</ele>
        <time>2019-08-20T14:01:41Z</time>
      </trkpt>
      <trkpt lat="46.5379" lon="3.70915">
        <ele>215</ele>
        <time>2019-08-20T14:01:42Z</time>
      </trkpt>
      <trkpt lat="46.53791" lon="3.7091">
        <ele>215</ele>
        <time>2019-08-20T14:01:43Z</time>
      </trkpt>
      <trkpt lat="46.53792" lon="3.70906">
        <ele>215</ele>
        <time>2019-08-20T14:01:44Z</time>
      </trkpt>
      <trkpt lat="46.53794" lon="3.70899">
        <ele>214.9</ele>
        <time>2019-08-20T14:01:46Z</time>
      </trkpt>
      <trkpt lat="46.53795" lon="3.70895">
        <ele>214.9</ele>
        <time>2019-08-20T14:01:47Z</time>
      </trkpt>
      <trkpt lat="46.53797" lon="3.70892">
        <ele>214.9</ele>
        <time>2019-08-20T14:01:50Z</time>
      </trkpt>
      <trkpt lat="46.53795" lon="3.70897">
        <ele>214.9</ele>
        <time>2019-08-20T14:01:57Z</time>
      </trkpt>
      <trkpt lat="46.53797" lon="3.70894">
        <ele>214.9</ele>
        <time>2019-08-20T14:02:00Z</time>
      </trkpt>
      <trkpt lat="46.53797" lon="3.7089">
        <ele>214.9</ele>
        <time>2019-08-20T14:02:08Z</time>
      </trkpt>
      <trkpt lat="46.538" lon="3.70885">
        <ele>214.8</ele>
        <time>2019-08-20T14:02:45Z</time>
      </trkpt>
      <trkpt lat="46.53801" lon="3.7088">
        <ele>214.7</ele>
        <time>2019-08-20T14:02:46Z</time>
      </trkpt>
      <trkpt lat="46.53803" lon="3.70876">
        <ele>214.7</ele>
        <time>2019-08-20T14:02:47Z</time>
      </trkpt>
      <trkpt lat="46.53805" lon="3.70872">
        <ele>214.6</ele>
        <time>2019-08-20T14:02:48Z</time>
      </trkpt>
      <trkpt lat="46.53806" lon="3.70868">
        <ele>214.6</ele>
        <time>2019-08-20T14:02:49Z</time>
      </trkpt>
      <trkpt lat="46.53807" lon="3.70864">
        <ele>214.6</ele>
        <time>2019-08-20T14:02:50Z</time>
      </trkpt>
      <trkpt lat="46.53808" lon="3.7086">
        <ele>214.6</ele>
        <time>2019-08-20T14:02:51Z</time>
      </trkpt>
      <trkpt lat="46.53809" lon="3.70855">
        <ele>214.5</ele>
        <time>2019-08-20T14:02:52Z</time>
      </trkpt>
      <trkpt lat="46.5381" lon="3.70851">
        <ele>214.5</ele>
        <time>2019-08-20T14:02:53Z</time>
      </trkpt>
      <trkpt lat="46.53812" lon="3.70845">
        <ele>214.5</ele>
        <time>2019-08-20T14:02:54Z</time>
      </trkpt>
      <trkpt lat="46.53812" lon="3.70841">
        <ele>214.4</ele>
        <time>2019-08-20T14:02:55Z</time>
      </trkpt>
      <trkpt lat="46.53813" lon="3.70837">
        <ele>214.4</ele>
        <time>2019-08-20T14:02:56Z</time>
      </trkpt>
      <trkpt lat="46.53814" lon="3.70833">
        <ele>214.4</ele>
        <time>2019-08-20T14:02:57Z</time>
      </trkpt>
      <trkpt lat="46.53816" lon="3.70829">
        <ele>214.3</ele>
        <time>2019-08-20T14:03:00Z</time>
      </trkpt>
      <trkpt lat="46.53818" lon="3.70825">
        <ele>214.3</ele>
        <time>2019-08-20T14:03:03Z</time>
      </trkpt>
      <trkpt lat="46.53817" lon="3.70819">
        <ele>214.2</ele>
        <time>2019-08-20T14:03:05Z</time>
      </trkpt>
      <trkpt lat="46.53819" lon="3.70812">
        <ele>214.2</ele>
        <time>2019-08-20T14:03:07Z</time>
      </trkpt>
      <trkpt lat="46.5382" lon="3.70808">
        <ele>214.2</ele>
        <time>2019-08-20T14:03:08Z</time>
      </trkpt>
      <trkpt lat="46.53822" lon="3.70801">
        <ele>214.1</ele>
        <time>2019-08-20T14:03:10Z</time>
      </trkpt>
      <trkpt lat="46.53824" lon="3.70797">
        <ele>214.1</ele>
        <time>2019-08-20T14:03:11Z</time>
      </trkpt>
      <trkpt lat="46.53825" lon="3.70792">
        <ele>214.1</ele>
        <time>2019-08-20T14:03:12Z</time>
      </trkpt>
      <trkpt lat="46.53827" lon="3.70788">
        <ele>214.1</ele>
        <time>2019-08-20T14:03:13Z</time>
      </trkpt>
      <trkpt lat="46.53829" lon="3.70783">
        <ele>214</ele>
        <time>2019-08-20T14:03:15Z</time>
      </trkpt>
      <trkpt lat="46.53831" lon="3.70779">
        <ele>214</ele>
        <time>2019-08-20T14:03:17Z</time>
      </trkpt>
      <trkpt lat="46.53833" lon="3.70775">
        <ele>214</ele>
        <time>2019-08-20T14:03:18Z</time>
      </trkpt>
      <trkpt lat="46.53835" lon="3.70773">
        <ele>214</ele>
        <time>2019-08-20T14:03:19Z</time>
      </trkpt>
      <trkpt lat="46.53837" lon="3.7077">
        <ele>214</ele>
        <time>2019-08-20T14:03:20Z</time>
      </trkpt>
      <trkpt lat="46.53839" lon="3.70765">
        <ele>214.1</ele>
        <time>2019-08-20T14:03:22Z</time>
      </trkpt>
      <trkpt lat="46.53838" lon="3.70761">
        <ele>214.1</ele>
        <time>2019-08-20T14:03:23Z</time>
      </trkpt>
      <trkpt lat="46.53835" lon="3.70758">
        <ele>214.1</ele>
        <time>2019-08-20T14:03:25Z</time>
      </trkpt>
      <trkpt lat="46.53831" lon="3.70756">
        <ele>214.2</ele>
        <time>2019-08-20T14:03:27Z</time>
      </trkpt>
      <trkpt lat="46.53826" lon="3.70754">
        <ele>214.3</ele>
        <time>2019-08-20T14:03:29Z</time>
      </trkpt>
      <trkpt lat="46.53823" lon="3.70753">
        <ele>214.3</ele>
        <time>2019-08-20T14:03:30Z</time>
      </trkpt>
      <trkpt lat="46.53817" lon="3.70749">
        <ele>214.4</ele>
        <time>2019-08-20T14:03:32Z</time>
      </trkpt>
      <trkpt lat="46.53813" lon="3.70746">
        <ele>214.5</ele>
        <time>2019-08-20T14:03:33Z</time>
      </trkpt>
      <trkpt lat="46.53808" lon="3.70743">
        <ele>214.6</ele>
        <time>2019-08-20T14:03:34Z</time>
      </trkpt>
      <trkpt lat="46.53804" lon="3.7074">
        <ele>214.6</ele>
        <time>2019-08-20T14:03:35Z</time>
      </trkpt>
      <trkpt lat="46.53798" lon="3.70736">
        <ele>214.7</ele>
        <time>2019-08-20T14:03:36Z</time>
      </trkpt>
      <trkpt lat="46.53793" lon="3.70732">
        <ele>214.8</ele>
        <time>2019-08-20T14:03:37Z</time>
      </trkpt>
      <trkpt lat="46.53788" lon="3.70726">
        <ele>215</ele>
        <time>2019-08-20T14:03:38Z</time>
      </trkpt>
      <trkpt lat="46.53785" lon="3.70718">
        <ele>215.1</ele>
        <time>2019-08-20T14:03:39Z</time>
      </trkpt>
      <trkpt lat="46.53787" lon="3.70712">
        <ele>215.2</ele>
        <time>2019-08-20T14:03:40Z</time>
      </trkpt>
      <trkpt lat="46.5379" lon="3.70706">
        <ele>215.3</ele>
        <time>2019-08-20T14:03:41Z</time>
      </trkpt>
      <trkpt lat="46.53792" lon="3.707">
        <ele>215.4</ele>
        <time>2019-08-20T14:03:42Z</time>
      </trkpt>
      <trkpt lat="46.53795" lon="3.70695">
        <ele>215.5</ele>
        <time>2019-08-20T14:03:43Z</time>
      </trkpt>
      <trkpt lat="46.53797" lon="3.70689">
        <ele>215.6</ele>
        <time>2019-08-20T14:03:44Z</time>
      </trkpt>
      <trkpt lat="46.53798" lon="3.70684">
        <ele>215.6</ele>
        <time>2019-08-20T14:03:45Z</time>
      </trkpt>
      <trkpt lat="46.538" lon="3.70678">
        <ele>215.7</ele>
        <time>2019-08-20T14:03:46Z</time>
      </trkpt>
      <trkpt lat="46.53802" lon="3.70675">
        <ele>215.7</ele>
        <time>2019-08-20T14:03:47Z</time>
      </trkpt>
      <trkpt lat="46.53805" lon="3.70673">
        <ele>215.8</ele>
        <time>2019-08-20T14:03:48Z</time>
      </trkpt>
      <trkpt lat="46.53806" lon="3.70669">
        <ele>215.9</ele>
        <time>2019-08-20T14:03:49Z</time>
      </trkpt>
      <trkpt lat="46.53808" lon="3.70665">
        <ele>215.9</ele>
        <time>2019-08-20T14:03:50Z</time>
      </trkpt>
      <trkpt lat="46.5381" lon="3.70661">
        <ele>216</ele>
        <time>2019-08-20T14:03:51Z</time>
      </trkpt>
      <trkpt lat="46.53812" lon="3.70656">
        <ele>216.1</ele>
        <time>2019-08-20T14:03:52Z</time>
      </trkpt>
      <trkpt lat="46.53815" lon="3.7065">
        <ele>216.2</ele>
        <time>2019-08-20T14:03:53Z</time>
      </trkpt>
      <trkpt lat="46.53818" lon="3.70644">
        <ele>216.3</ele>
        <time>2019-08-20T14:03:54Z</time>
      </trkpt>
      <trkpt lat="46.5382" lon="3.70638">
        <ele>216.4</ele>
        <time>2019-08-20T14:03:55Z</time>
      </trkpt>
      <trkpt lat="46.53822" lon="3.70632">
        <ele>216.6</ele>
        <time>2019-08-20T14:03:56Z</time>
      </trkpt>
      <trkpt lat="46.53824" lon="3.70627">
        <ele>216.6</ele>
        <time>2019-08-20T14:03:57Z</time>
      </trkpt>
      <trkpt lat="46.53826" lon="3.70622">
        <ele>216.8</ele>
        <time>2019-08-20T14:03:58Z</time>
      </trkpt>
      <trkpt lat="46.53827" lon="3.70615">
        <ele>216.7</ele>
        <time>2019-08-20T14:04:00Z</time>
      </trkpt>
      <trkpt lat="46.53824" lon="3.70612">
        <ele>216.6</ele>
        <time>2019-08-20T14:04:02Z</time>
      </trkpt>
      <trkpt lat="46.5382" lon="3.70615">
        <ele>216.6</ele>
        <time>2019-08-20T14:04:04Z</time>
      </trkpt>
      <trkpt lat="46.53818" lon="3.70621">
        <ele>216.5</ele>
        <time>2019-08-20T14:04:06Z</time>
      </trkpt>
      <trkpt lat="46.53815" lon="3.70624">
        <ele>216.5</ele>
        <time>2019-08-20T14:04:08Z</time>
      </trkpt>
      <trkpt lat="46.53813" lon="3.70629">
        <ele>216.5</ele>
        <time>2019-08-20T14:04:10Z</time>
      </trkpt>
      <trkpt lat="46.53812" lon="3.70633">
        <ele>216.5</ele>
        <time>2019-08-20T14:04:11Z</time>
      </trkpt>
      <trkpt lat="46.5381" lon="3.70637">
        <ele>216.5</ele>
        <time>2019-08-20T14:04:12Z</time>
      </trkpt>
      <trkpt lat="46.53807" lon="3.7064">
        <ele>216.5</ele>
        <time>2019-08-20T14:04:13Z</time>
      </trkpt>
      <trkpt lat="46.53804" lon="3.70642">
        <ele>216.6</ele>
        <time>2019-08-20T14:04:14Z</time>
      </trkpt>
      <trkpt lat="46.538" lon="3.70641">
        <ele>216.6</ele>
        <time>2019-08-20T14:04:15Z</time>
      </trkpt>
      <trkpt lat="46.53796" lon="3.70638">
        <ele>216.6</ele>
        <time>2019-08-20T14:04:16Z</time>
      </trkpt>
      <trkpt lat="46.53792" lon="3.70635">
        <ele>216.7</ele>
        <time>2019-08-20T14:04:17Z</time>
      </trkpt>
      <trkpt lat="46.53789" lon="3.70634">
        <ele>216.7</ele>
        <time>2019-08-20T14:04:18Z</time>
      </trkpt>
      <trkpt lat="46.53787" lon="3.70632">
        <ele>216.7</ele>
        <time>2019-08-20T14:04:19Z</time>
      </trkpt>
      <trkpt lat="46.53784" lon="3.70629">
        <ele>216.8</ele>
        <time>2019-08-20T14:04:20Z</time>
      </trkpt>
      <trkpt lat="46.53781" lon="3.70626">
        <ele>216.8</ele>
        <time>2019-08-20T14:04:21Z</time>
      </trkpt>
      <trkpt lat="46.53778" lon="3.70623">
        <ele>216.8</ele>
        <time>2019-08-20T14:04:22Z</time>
      </trkpt>
      <trkpt lat="46.53773" lon="3.70618">
        <ele>216.8</ele>
        <time>2019-08-20T14:04:24Z</time>
      </trkpt>
      <trkpt lat="46.5377" lon="3.70615">
        <ele>216.9</ele>
        <time>2019-08-20T14:04:25Z</time>
      </trkpt>
      <trkpt lat="46.53766" lon="3.70612">
        <ele>216.9</ele>
        <time>2019-08-20T14:04:26Z</time>
      </trkpt>
      <trkpt lat="46.53764" lon="3.70608">
        <ele>216.9</ele>
        <time>2019-08-20T14:04:27Z</time>
      </trkpt>
      <trkpt lat="46.53761" lon="3.70607">
        <ele>216.9</ele>
        <time>2019-08-20T14:04:28Z</time>
      </trkpt>
      <trkpt lat="46.53759" lon="3.70604">
        <ele>216.8</ele>
        <time>2019-08-20T14:04:29Z</time>
      </trkpt>
      <trkpt lat="46.53755" lon="3.70602">
        <ele>216.8</ele>
        <time>2019-08-20T14:04:30Z</time>
      </trkpt>
      <trkpt lat="46.53752" lon="3.70601">
        <ele>216.8</ele>
        <time>2019-08-20T14:04:31Z</time>
      </trkpt>
      <trkpt lat="46.53749" lon="3.70598">
        <ele>216.8</ele>
        <time>2019-08-20T14:04:32Z</time>
      </trkpt>
      <trkpt lat="46.53746" lon="3.70596">
        <ele>216.8</ele>
        <time>2019-08-20T14:04:33Z</time>
      </trkpt>
      <trkpt lat="46.53743" lon="3.70593">
        <ele>216.8</ele>
        <time>2019-08-20T14:04:34Z</time>
      </trkpt>
      <trkpt lat="46.5374" lon="3.70589">
        <ele>216.8</ele>
        <time>2019-08-20T14:04:35Z</time>
      </trkpt>
      <trkpt lat="46.53737" lon="3.70587">
        <ele>216.8</ele>
        <time>2019-08-20T14:04:36Z</time>
      </trkpt>
      <trkpt lat="46.53734" lon="3.70584">
        <ele>216.8</ele>
        <time>2019-08-20T14:04:37Z</time>
      </trkpt>
      <trkpt lat="46.53731" lon="3.7058">
        <ele>216.8</ele>
        <time>2019-08-20T14:04:38Z</time>
      </trkpt>
      <trkpt lat="46.53727" lon="3.70577">
        <ele>216.8</ele>
        <time>2019-08-20T14:04:39Z</time>
      </trkpt>
      <trkpt lat="46.53723" lon="3.70574">
        <ele>216.8</ele>
        <time>2019-08-20T14:04:40Z</time>
      </trkpt>
      <trkpt lat="46.53719" lon="3.70571">
        <ele>216.8</ele>
        <time>2019-08-20T14:04:41Z</time>
      </trkpt>
      <trkpt lat="46.53715" lon="3.70568">
        <ele>216.8</ele>
        <time>2019-08-20T14:04:42Z</time>
      </trkpt>
      <trkpt lat="46.53711" lon="3.70565">
        <ele>216.8</ele>
        <time>2019-08-20T14:04:43Z</time>
      </trkpt>
      <trkpt lat="46.53707" lon="3.70562">
        <ele>216.8</ele>
        <time>2019-08-20T14:04:44Z</time>
      </trkpt>
      <trkpt lat="46.53704" lon="3.70557">
        <ele>216.8</ele>
        <time>2019-08-20T14:04:45Z</time>
      </trkpt>
      <trkpt lat="46.53701" lon="3.70553">
        <ele>216.8</ele>
        <time>2019-08-20T14:04:46Z</time>
      </trkpt>
      <trkpt lat="46.53697" lon="3.7055">
        <ele>216.8</ele>
        <time>2019-08-20T14:04:47Z</time>
      </trkpt>
      <trkpt lat="46.53693" lon="3.70547">
        <ele>216.8</ele>
        <time>2019-08-20T14:04:48Z</time>
      </trkpt>
      <trkpt lat="46.53689" lon="3.70543">
        <ele>216.9</ele>
        <time>2019-08-20T14:04:49Z</time>
      </trkpt>
      <trkpt lat="46.53686" lon="3.7054">
        <ele>216.9</ele>
        <time>2019-08-20T14:04:50Z</time>
      </trkpt>
      <trkpt lat="46.53681" lon="3.70538">
        <ele>216.9</ele>
        <time>2019-08-20T14:04:51Z</time>
      </trkpt>
      <trkpt lat="46.53676" lon="3.70535">
        <ele>216.9</ele>
        <time>2019-08-20T14:04:52Z</time>
      </trkpt>
      <trkpt lat="46.53672" lon="3.70532">
        <ele>216.9</ele>
        <time>2019-08-20T14:04:53Z</time>
      </trkpt>
      <trkpt lat="46.53668" lon="3.70529">
        <ele>216.9</ele>
        <time>2019-08-20T14:04:54Z</time>
      </trkpt>
      <trkpt lat="46.53665" lon="3.70526">
        <ele>216.9</ele>
        <time>2019-08-20T14:04:55Z</time>
      </trkpt>
      <trkpt lat="46.53663" lon="3.70524">
        <ele>216.9</ele>
        <time>2019-08-20T14:04:56Z</time>
      </trkpt>
      <trkpt lat="46.5366" lon="3.7052">
        <ele>217</ele>
        <time>2019-08-20T14:04:57Z</time>
      </trkpt>
      <trkpt lat="46.53657" lon="3.70517">
        <ele>217</ele>
        <time>2019-08-20T14:04:58Z</time>
      </trkpt>
      <trkpt lat="46.53654" lon="3.70513">
        <ele>217</ele>
        <time>2019-08-20T14:04:59Z</time>
      </trkpt>
      <trkpt lat="46.5365" lon="3.7051">
        <ele>217</ele>
        <time>2019-08-20T14:05:00Z</time>
      </trkpt>
      <trkpt lat="46.53646" lon="3.70506">
        <ele>217</ele>
        <time>2019-08-20T14:05:01Z</time>
      </trkpt>
      <trkpt lat="46.53643" lon="3.70503">
        <ele>217</ele>
        <time>2019-08-20T14:05:02Z</time>
      </trkpt>
      <trkpt lat="46.5364" lon="3.70499">
        <ele>217</ele>
        <time>2019-08-20T14:05:03Z</time>
      </trkpt>
      <trkpt lat="46.53636" lon="3.70495">
        <ele>217</ele>
        <time>2019-08-20T14:05:04Z</time>
      </trkpt>
      <trkpt lat="46.53632" lon="3.70491">
        <ele>217.1</ele>
        <time>2019-08-20T14:05:05Z</time>
      </trkpt>
      <trkpt lat="46.53628" lon="3.70488">
        <ele>217.1</ele>
        <time>2019-08-20T14:05:06Z</time>
      </trkpt>
      <trkpt lat="46.53623" lon="3.70485">
        <ele>217.2</ele>
        <time>2019-08-20T14:05:07Z</time>
      </trkpt>
      <trkpt lat="46.53619" lon="3.70482">
        <ele>217.2</ele>
        <time>2019-08-20T14:05:08Z</time>
      </trkpt>
      <trkpt lat="46.53616" lon="3.7048">
        <ele>217.2</ele>
        <time>2019-08-20T14:05:09Z</time>
      </trkpt>
      <trkpt lat="46.53613" lon="3.70476">
        <ele>217.2</ele>
        <time>2019-08-20T14:05:10Z</time>
      </trkpt>
      <trkpt lat="46.5361" lon="3.70473">
        <ele>217.2</ele>
        <time>2019-08-20T14:05:11Z</time>
      </trkpt>
      <trkpt lat="46.53605" lon="3.70469">
        <ele>217.2</ele>
        <time>2019-08-20T14:05:12Z</time>
      </trkpt>
      <trkpt lat="46.53602" lon="3.70465">
        <ele>217.2</ele>
        <time>2019-08-20T14:05:13Z</time>
      </trkpt>
      <trkpt lat="46.53599" lon="3.7046">
        <ele>217.2</ele>
        <time>2019-08-20T14:05:14Z</time>
      </trkpt>
      <trkpt lat="46.53594" lon="3.70456">
        <ele>217.1</ele>
        <time>2019-08-20T14:05:15Z</time>
      </trkpt>
      <trkpt lat="46.53591" lon="3.7045">
        <ele>217.1</ele>
        <time>2019-08-20T14:05:16Z</time>
      </trkpt>
      <trkpt lat="46.53588" lon="3.70445">
        <ele>217.1</ele>
        <time>2019-08-20T14:05:17Z</time>
      </trkpt>
      <trkpt lat="46.53584" lon="3.70441">
        <ele>217</ele>
        <time>2019-08-20T14:05:18Z</time>
      </trkpt>
      <trkpt lat="46.53579" lon="3.70438">
        <ele>217</ele>
        <time>2019-08-20T14:05:19Z</time>
      </trkpt>
      <trkpt lat="46.53574" lon="3.70437">
        <ele>217</ele>
        <time>2019-08-20T14:05:20Z</time>
      </trkpt>
      <trkpt lat="46.53571" lon="3.70435">
        <ele>217</ele>
        <time>2019-08-20T14:05:21Z</time>
      </trkpt>
      <trkpt lat="46.53567" lon="3.70433">
        <ele>217.1</ele>
        <time>2019-08-20T14:05:22Z</time>
      </trkpt>
      <trkpt lat="46.53563" lon="3.70429">
        <ele>217.1</ele>
        <time>2019-08-20T14:05:23Z</time>
      </trkpt>
      <trkpt lat="46.53559" lon="3.70426">
        <ele>217.1</ele>
        <time>2019-08-20T14:05:24Z</time>
      </trkpt>
      <trkpt lat="46.53555" lon="3.70424">
        <ele>217.1</ele>
        <time>2019-08-20T14:05:25Z</time>
      </trkpt>
      <trkpt lat="46.53551" lon="3.70421">
        <ele>217.1</ele>
        <time>2019-08-20T14:05:26Z</time>
      </trkpt>
      <trkpt lat="46.53547" lon="3.70418">
        <ele>217.1</ele>
        <time>2019-08-20T14:05:27Z</time>
      </trkpt>
      <trkpt lat="46.53542" lon="3.70414">
        <ele>217.1</ele>
        <time>2019-08-20T14:05:28Z</time>
      </trkpt>
      <trkpt lat="46.53539" lon="3.70413">
        <ele>217.1</ele>
        <time>2019-08-20T14:05:29Z</time>
      </trkpt>
      <trkpt lat="46.53534" lon="3.70409">
        <ele>217.1</ele>
        <time>2019-08-20T14:05:30Z</time>
      </trkpt>
      <trkpt lat="46.53531" lon="3.70406">
        <ele>217.1</ele>
        <time>2019-08-20T14:05:31Z</time>
      </trkpt>
      <trkpt lat="46.53526" lon="3.70403">
        <ele>217.1</ele>
        <time>2019-08-20T14:05:32Z</time>
      </trkpt>
      <trkpt lat="46.53522" lon="3.704">
        <ele>217.1</ele>
        <time>2019-08-20T14:05:33Z</time>
      </trkpt>
      <trkpt lat="46.53518" lon="3.70397">
        <ele>217.1</ele>
        <time>2019-08-20T14:05:34Z</time>
      </trkpt>
      <trkpt lat="46.53515" lon="3.70393">
        <ele>217.1</ele>
        <time>2019-08-20T14:05:35Z</time>
      </trkpt>
      <trkpt lat="46.53511" lon="3.7039">
        <ele>217.1</ele>
        <time>2019-08-20T14:05:36Z</time>
      </trkpt>
      <trkpt lat="46.53507" lon="3.70387">
        <ele>217.1</ele>
        <time>2019-08-20T14:05:37Z</time>
      </trkpt>
      <trkpt lat="46.53504" lon="3.70383">
        <ele>217.1</ele>
        <time>2019-08-20T14:05:38Z</time>
      </trkpt>
      <trkpt lat="46.535" lon="3.70379">
        <ele>217.1</ele>
        <time>2019-08-20T14:05:39Z</time>
      </trkpt>
      <trkpt lat="46.53497" lon="3.70376">
        <ele>217.1</ele>
        <time>2019-08-20T14:05:40Z</time>
      </trkpt>
      <trkpt lat="46.53493" lon="3.70373">
        <ele>217.1</ele>
        <time>2019-08-20T14:05:41Z</time>
      </trkpt>
      <trkpt lat="46.5349" lon="3.70368">
        <ele>217.1</ele>
        <time>2019-08-20T14:05:42Z</time>
      </trkpt>
      <trkpt lat="46.53486" lon="3.70364">
        <ele>217.1</ele>
        <time>2019-08-20T14:05:43Z</time>
      </trkpt>
      <trkpt lat="46.53483" lon="3.70361">
        <ele>217.1</ele>
        <time>2019-08-20T14:05:44Z</time>
      </trkpt>
      <trkpt lat="46.53479" lon="3.70358">
        <ele>217.1</ele>
        <time>2019-08-20T14:05:45Z</time>
      </trkpt>
      <trkpt lat="46.53476" lon="3.70355">
        <ele>217.1</ele>
        <time>2019-08-20T14:05:46Z</time>
      </trkpt>
      <trkpt lat="46.53473" lon="3.70352">
        <ele>217.1</ele>
        <time>2019-08-20T14:05:47Z</time>
      </trkpt>
      <trkpt lat="46.53468" lon="3.70349">
        <ele>217.1</ele>
        <time>2019-08-20T14:05:48Z</time>
      </trkpt>
      <trkpt lat="46.53464" lon="3.70346">
        <ele>217.1</ele>
        <time>2019-08-20T14:05:49Z</time>
      </trkpt>
      <trkpt lat="46.5346" lon="3.70343">
        <ele>217.1</ele>
        <time>2019-08-20T14:05:50Z</time>
      </trkpt>
      <trkpt lat="46.53457" lon="3.70339">
        <ele>217</ele>
        <time>2019-08-20T14:05:51Z</time>
      </trkpt>
      <trkpt lat="46.53454" lon="3.70334">
        <ele>217</ele>
        <time>2019-08-20T14:05:52Z</time>
      </trkpt>
      <trkpt lat="46.5345" lon="3.70331">
        <ele>217</ele>
        <time>2019-08-20T14:05:53Z</time>
      </trkpt>
      <trkpt lat="46.53446" lon="3.70328">
        <ele>217</ele>
        <time>2019-08-20T14:05:54Z</time>
      </trkpt>
      <trkpt lat="46.53443" lon="3.70325">
        <ele>216.9</ele>
        <time>2019-08-20T14:05:55Z</time>
      </trkpt>
      <trkpt lat="46.5344" lon="3.70322">
        <ele>216.9</ele>
        <time>2019-08-20T14:05:56Z</time>
      </trkpt>
      <trkpt lat="46.53437" lon="3.70319">
        <ele>216.8</ele>
        <time>2019-08-20T14:05:57Z</time>
      </trkpt>
      <trkpt lat="46.53434" lon="3.70316">
        <ele>216.8</ele>
        <time>2019-08-20T14:05:58Z</time>
      </trkpt>
      <trkpt lat="46.53429" lon="3.70314">
        <ele>216.7</ele>
        <time>2019-08-20T14:05:59Z</time>
      </trkpt>
      <trkpt lat="46.53425" lon="3.70312">
        <ele>216.6</ele>
        <time>2019-08-20T14:06:00Z</time>
      </trkpt>
      <trkpt lat="46.5342" lon="3.70312">
        <ele>216.6</ele>
        <time>2019-08-20T14:06:01Z</time>
      </trkpt>
      <trkpt lat="46.53415" lon="3.70312">
        <ele>216.5</ele>
        <time>2019-08-20T14:06:02Z</time>
      </trkpt>
      <trkpt lat="46.5341" lon="3.7031">
        <ele>216.4</ele>
        <time>2019-08-20T14:06:03Z</time>
      </trkpt>
      <trkpt lat="46.53406" lon="3.70307">
        <ele>216.3</ele>
        <time>2019-08-20T14:06:04Z</time>
      </trkpt>
      <trkpt lat="46.53402" lon="3.70305">
        <ele>216.3</ele>
        <time>2019-08-20T14:06:05Z</time>
      </trkpt>
      <trkpt lat="46.53398" lon="3.70302">
        <ele>216.2</ele>
        <time>2019-08-20T14:06:06Z</time>
      </trkpt>
      <trkpt lat="46.53395" lon="3.703">
        <ele>216.2</ele>
        <time>2019-08-20T14:06:07Z</time>
      </trkpt>
      <trkpt lat="46.53392" lon="3.70297">
        <ele>216.2</ele>
        <time>2019-08-20T14:06:08Z</time>
      </trkpt>
      <trkpt lat="46.53389" lon="3.70294">
        <ele>216.2</ele>
        <time>2019-08-20T14:06:09Z</time>
      </trkpt>
      <trkpt lat="46.53387" lon="3.70288">
        <ele>216.2</ele>
        <time>2019-08-20T14:06:10Z</time>
      </trkpt>
      <trkpt lat="46.53386" lon="3.70281">
        <ele>216.2</ele>
        <time>2019-08-20T14:06:11Z</time>
      </trkpt>
      <trkpt lat="46.53384" lon="3.70274">
        <ele>216.2</ele>
        <time>2019-08-20T14:06:12Z</time>
      </trkpt>
      <trkpt lat="46.53382" lon="3.70268">
        <ele>216.2</ele>
        <time>2019-08-20T14:06:13Z</time>
      </trkpt>
      <trkpt lat="46.5338" lon="3.70262">
        <ele>216.3</ele>
        <time>2019-08-20T14:06:14Z</time>
      </trkpt>
      <trkpt lat="46.53377" lon="3.70258">
        <ele>216.3</ele>
        <time>2019-08-20T14:06:15Z</time>
      </trkpt>
      <trkpt lat="46.53373" lon="3.70253">
        <ele>216.3</ele>
        <time>2019-08-20T14:06:16Z</time>
      </trkpt>
      <trkpt lat="46.53369" lon="3.70247">
        <ele>216.3</ele>
        <time>2019-08-20T14:06:17Z</time>
      </trkpt>
      <trkpt lat="46.53366" lon="3.70242">
        <ele>216.4</ele>
        <time>2019-08-20T14:06:18Z</time>
      </trkpt>
      <trkpt lat="46.53362" lon="3.70236">
        <ele>216.4</ele>
        <time>2019-08-20T14:06:19Z</time>
      </trkpt>
      <trkpt lat="46.5336" lon="3.7023">
        <ele>216.4</ele>
        <time>2019-08-20T14:06:20Z</time>
      </trkpt>
      <trkpt lat="46.53358" lon="3.70224">
        <ele>216.3</ele>
        <time>2019-08-20T14:06:21Z</time>
      </trkpt>
      <trkpt lat="46.53356" lon="3.70217">
        <ele>216.3</ele>
        <time>2019-08-20T14:06:22Z</time>
      </trkpt>
      <trkpt lat="46.53354" lon="3.7021">
        <ele>216.3</ele>
        <time>2019-08-20T14:06:23Z</time>
      </trkpt>
      <trkpt lat="46.53351" lon="3.70203">
        <ele>216.3</ele>
        <time>2019-08-20T14:06:24Z</time>
      </trkpt>
      <trkpt lat="46.53349" lon="3.70197">
        <ele>216.2</ele>
        <time>2019-08-20T14:06:25Z</time>
      </trkpt>
      <trkpt lat="46.53346" lon="3.70191">
        <ele>216.2</ele>
        <time>2019-08-20T14:06:26Z</time>
      </trkpt>
      <trkpt lat="46.53344" lon="3.70185">
        <ele>216.1</ele>
        <time>2019-08-20T14:06:27Z</time>
      </trkpt>
      <trkpt lat="46.53341" lon="3.70179">
        <ele>216</ele>
        <time>2019-08-20T14:06:28Z</time>
      </trkpt>
      <trkpt lat="46.53339" lon="3.70172">
        <ele>216</ele>
        <time>2019-08-20T14:06:29Z</time>
      </trkpt>
      <trkpt lat="46.53336" lon="3.70164">
        <ele>215.9</ele>
        <time>2019-08-20T14:06:30Z</time>
      </trkpt>
      <trkpt lat="46.53333" lon="3.70159">
        <ele>215.8</ele>
        <time>2019-08-20T14:06:31Z</time>
      </trkpt>
      <trkpt lat="46.5333" lon="3.70152">
        <ele>215.8</ele>
        <time>2019-08-20T14:06:32Z</time>
      </trkpt>
      <trkpt lat="46.53328" lon="3.70146">
        <ele>215.7</ele>
        <time>2019-08-20T14:06:33Z</time>
      </trkpt>
      <trkpt lat="46.53324" lon="3.7014">
        <ele>215.7</ele>
        <time>2019-08-20T14:06:34Z</time>
      </trkpt>
      <trkpt lat="46.53321" lon="3.70133">
        <ele>215.6</ele>
        <time>2019-08-20T14:06:35Z</time>
      </trkpt>
      <trkpt lat="46.53317" lon="3.70126">
        <ele>215.6</ele>
        <time>2019-08-20T14:06:36Z</time>
      </trkpt>
      <trkpt lat="46.53315" lon="3.70119">
        <ele>215.6</ele>
        <time>2019-08-20T14:06:37Z</time>
      </trkpt>
      <trkpt lat="46.53312" lon="3.70113">
        <ele>215.6</ele>
        <time>2019-08-20T14:06:38Z</time>
      </trkpt>
      <trkpt lat="46.53309" lon="3.70106">
        <ele>215.6</ele>
        <time>2019-08-20T14:06:39Z</time>
      </trkpt>
      <trkpt lat="46.53306" lon="3.701">
        <ele>215.6</ele>
        <time>2019-08-20T14:06:40Z</time>
      </trkpt>
      <trkpt lat="46.53303" lon="3.70094">
        <ele>215.6</ele>
        <time>2019-08-20T14:06:41Z</time>
      </trkpt>
      <trkpt lat="46.533" lon="3.70088">
        <ele>215.6</ele>
        <time>2019-08-20T14:06:42Z</time>
      </trkpt>
      <trkpt lat="46.53297" lon="3.70082">
        <ele>215.7</ele>
        <time>2019-08-20T14:06:43Z</time>
      </trkpt>
      <trkpt lat="46.53294" lon="3.70074">
        <ele>215.7</ele>
        <time>2019-08-20T14:06:44Z</time>
      </trkpt>
      <trkpt lat="46.53291" lon="3.70068">
        <ele>215.7</ele>
        <time>2019-08-20T14:06:45Z</time>
      </trkpt>
      <trkpt lat="46.53288" lon="3.7006">
        <ele>215.7</ele>
        <time>2019-08-20T14:06:46Z</time>
      </trkpt>
      <trkpt lat="46.53285" lon="3.70054">
        <ele>215.7</ele>
        <time>2019-08-20T14:06:47Z</time>
      </trkpt>
      <trkpt lat="46.53282" lon="3.70048">
        <ele>215.7</ele>
        <time>2019-08-20T14:06:48Z</time>
      </trkpt>
      <trkpt lat="46.53279" lon="3.70042">
        <ele>215.7</ele>
        <time>2019-08-20T14:06:49Z</time>
      </trkpt>
      <trkpt lat="46.53276" lon="3.70035">
        <ele>215.7</ele>
        <time>2019-08-20T14:06:50Z</time>
      </trkpt>
      <trkpt lat="46.53273" lon="3.70028">
        <ele>215.7</ele>
        <time>2019-08-20T14:06:51Z</time>
      </trkpt>
      <trkpt lat="46.5327" lon="3.70022">
        <ele>215.7</ele>
        <time>2019-08-20T14:06:52Z</time>
      </trkpt>
      <trkpt lat="46.53267" lon="3.70015">
        <ele>215.7</ele>
        <time>2019-08-20T14:06:53Z</time>
      </trkpt>
      <trkpt lat="46.53264" lon="3.70008">
        <ele>215.7</ele>
        <time>2019-08-20T14:06:54Z</time>
      </trkpt>
      <trkpt lat="46.53261" lon="3.70002">
        <ele>215.7</ele>
        <time>2019-08-20T14:06:55Z</time>
      </trkpt>
      <trkpt lat="46.53257" lon="3.69994">
        <ele>215.7</ele>
        <time>2019-08-20T14:06:56Z</time>
      </trkpt>
      <trkpt lat="46.53253" lon="3.69988">
        <ele>215.6</ele>
        <time>2019-08-20T14:06:57Z</time>
      </trkpt>
      <trkpt lat="46.5325" lon="3.69982">
        <ele>215.6</ele>
        <time>2019-08-20T14:06:58Z</time>
      </trkpt>
      <trkpt lat="46.53247" lon="3.69976">
        <ele>215.6</ele>
        <time>2019-08-20T14:06:59Z</time>
      </trkpt>
      <trkpt lat="46.53244" lon="3.6997">
        <ele>215.5</ele>
        <time>2019-08-20T14:07:00Z</time>
      </trkpt>
      <trkpt lat="46.53241" lon="3.69965">
        <ele>215.5</ele>
        <time>2019-08-20T14:07:01Z</time>
      </trkpt>
      <trkpt lat="46.53239" lon="3.69959">
        <ele>215.4</ele>
        <time>2019-08-20T14:07:02Z</time>
      </trkpt>
      <trkpt lat="46.53236" lon="3.69954">
        <ele>215.4</ele>
        <time>2019-08-20T14:07:03Z</time>
      </trkpt>
      <trkpt lat="46.53232" lon="3.69948">
        <ele>215.3</ele>
        <time>2019-08-20T14:07:04Z</time>
      </trkpt>
      <trkpt lat="46.53228" lon="3.69943">
        <ele>215.3</ele>
        <time>2019-08-20T14:07:05Z</time>
      </trkpt>
      <trkpt lat="46.53225" lon="3.69937">
        <ele>215.3</ele>
        <time>2019-08-20T14:07:06Z</time>
      </trkpt>
      <trkpt lat="46.53223" lon="3.69931">
        <ele>215.3</ele>
        <time>2019-08-20T14:07:07Z</time>
      </trkpt>
      <trkpt lat="46.5322" lon="3.69925">
        <ele>215.3</ele>
        <time>2019-08-20T14:07:08Z</time>
      </trkpt>
      <trkpt lat="46.53217" lon="3.69918">
        <ele>215.4</ele>
        <time>2019-08-20T14:07:09Z</time>
      </trkpt>
      <trkpt lat="46.53214" lon="3.69912">
        <ele>215.4</ele>
        <time>2019-08-20T14:07:10Z</time>
      </trkpt>
      <trkpt lat="46.53211" lon="3.69907">
        <ele>215.4</ele>
        <time>2019-08-20T14:07:11Z</time>
      </trkpt>
      <trkpt lat="46.53209" lon="3.69901">
        <ele>215.5</ele>
        <time>2019-08-20T14:07:12Z</time>
      </trkpt>
      <trkpt lat="46.53207" lon="3.69895">
        <ele>215.5</ele>
        <time>2019-08-20T14:07:13Z</time>
      </trkpt>
      <trkpt lat="46.53205" lon="3.6989">
        <ele>215.5</ele>
        <time>2019-08-20T14:07:14Z</time>
      </trkpt>
      <trkpt lat="46.53203" lon="3.69883">
        <ele>215.5</ele>
        <time>2019-08-20T14:07:15Z</time>
      </trkpt>
      <trkpt lat="46.53202" lon="3.69878">
        <ele>215.5</ele>
        <time>2019-08-20T14:07:16Z</time>
      </trkpt>
      <trkpt lat="46.532" lon="3.69873">
        <ele>215.6</ele>
        <time>2019-08-20T14:07:17Z</time>
      </trkpt>
      <trkpt lat="46.53197" lon="3.69868">
        <ele>215.6</ele>
        <time>2019-08-20T14:07:18Z</time>
      </trkpt>
      <trkpt lat="46.53195" lon="3.69863">
        <ele>215.6</ele>
        <time>2019-08-20T14:07:19Z</time>
      </trkpt>
      <trkpt lat="46.53193" lon="3.69857">
        <ele>215.6</ele>
        <time>2019-08-20T14:07:20Z</time>
      </trkpt>
      <trkpt lat="46.53191" lon="3.69851">
        <ele>215.6</ele>
        <time>2019-08-20T14:07:21Z</time>
      </trkpt>
      <trkpt lat="46.53189" lon="3.69846">
        <ele>215.6</ele>
        <time>2019-08-20T14:07:22Z</time>
      </trkpt>
      <trkpt lat="46.53187" lon="3.6984">
        <ele>215.6</ele>
        <time>2019-08-20T14:07:23Z</time>
      </trkpt>
      <trkpt lat="46.53184" lon="3.69834">
        <ele>215.6</ele>
        <time>2019-08-20T14:07:24Z</time>
      </trkpt>
      <trkpt lat="46.53181" lon="3.69828">
        <ele>215.6</ele>
        <time>2019-08-20T14:07:25Z</time>
      </trkpt>
      <trkpt lat="46.53179" lon="3.69822">
        <ele>215.6</ele>
        <time>2019-08-20T14:07:26Z</time>
      </trkpt>
      <trkpt lat="46.53176" lon="3.69817">
        <ele>215.6</ele>
        <time>2019-08-20T14:07:27Z</time>
      </trkpt>
      <trkpt lat="46.53174" lon="3.69812">
        <ele>215.6</ele>
        <time>2019-08-20T14:07:28Z</time>
      </trkpt>
      <trkpt lat="46.53171" lon="3.69807">
        <ele>215.7</ele>
        <time>2019-08-20T14:07:29Z</time>
      </trkpt>
      <trkpt lat="46.53168" lon="3.69801">
        <ele>215.7</ele>
        <time>2019-08-20T14:07:30Z</time>
      </trkpt>
      <trkpt lat="46.53165" lon="3.69795">
        <ele>215.7</ele>
        <time>2019-08-20T14:07:31Z</time>
      </trkpt>
      <trkpt lat="46.53163" lon="3.69789">
        <ele>215.8</ele>
        <time>2019-08-20T14:07:32Z</time>
      </trkpt>
      <trkpt lat="46.5316" lon="3.69782">
        <ele>215.8</ele>
        <time>2019-08-20T14:07:33Z</time>
      </trkpt>
      <trkpt lat="46.53158" lon="3.69776">
        <ele>215.9</ele>
        <time>2019-08-20T14:07:34Z</time>
      </trkpt>
      <trkpt lat="46.53155" lon="3.69769">
        <ele>215.9</ele>
        <time>2019-08-20T14:07:35Z</time>
      </trkpt>
      <trkpt lat="46.53153" lon="3.69763">
        <ele>216</ele>
        <time>2019-08-20T14:07:36Z</time>
      </trkpt>
      <trkpt lat="46.5315" lon="3.69758">
        <ele>216.2</ele>
        <time>2019-08-20T14:07:37Z</time>
      </trkpt>
      <trkpt lat="46.53146" lon="3.69753">
        <ele>216.3</ele>
        <time>2019-08-20T14:07:38Z</time>
      </trkpt>
      <trkpt lat="46.53142" lon="3.69749">
        <ele>216.5</ele>
        <time>2019-08-20T14:07:39Z</time>
      </trkpt>
      <trkpt lat="46.53137" lon="3.69746">
        <ele>216.7</ele>
        <time>2019-08-20T14:07:40Z</time>
      </trkpt>
      <trkpt lat="46.53133" lon="3.69745">
        <ele>216.9</ele>
        <time>2019-08-20T14:07:41Z</time>
      </trkpt>
      <trkpt lat="46.53129" lon="3.69742">
        <ele>217</ele>
        <time>2019-08-20T14:07:42Z</time>
      </trkpt>
      <trkpt lat="46.53124" lon="3.69739">
        <ele>217.2</ele>
        <time>2019-08-20T14:07:43Z</time>
      </trkpt>
      <trkpt lat="46.53119" lon="3.69735">
        <ele>217.4</ele>
        <time>2019-08-20T14:07:44Z</time>
      </trkpt>
      <trkpt lat="46.53115" lon="3.69732">
        <ele>217.6</ele>
        <time>2019-08-20T14:07:45Z</time>
      </trkpt>
      <trkpt lat="46.5311" lon="3.69728">
        <ele>217.7</ele>
        <time>2019-08-20T14:07:46Z</time>
      </trkpt>
      <trkpt lat="46.53106" lon="3.69724">
        <ele>217.8</ele>
        <time>2019-08-20T14:07:47Z</time>
      </trkpt>
      <trkpt lat="46.53102" lon="3.69721">
        <ele>217.9</ele>
        <time>2019-08-20T14:07:48Z</time>
      </trkpt>
      <trkpt lat="46.53099" lon="3.69718">
        <ele>217.9</ele>
        <time>2019-08-20T14:07:49Z</time>
      </trkpt>
      <trkpt lat="46.53095" lon="3.69716">
        <ele>218</ele>
        <time>2019-08-20T14:07:50Z</time>
      </trkpt>
      <trkpt lat="46.53093" lon="3.69714">
        <ele>218</ele>
        <time>2019-08-20T14:07:51Z</time>
      </trkpt>
      <trkpt lat="46.5309" lon="3.69712">
        <ele>218.1</ele>
        <time>2019-08-20T14:07:52Z</time>
      </trkpt>
      <trkpt lat="46.53087" lon="3.69709">
        <ele>218.1</ele>
        <time>2019-08-20T14:07:53Z</time>
      </trkpt>
      <trkpt lat="46.53083" lon="3.69705">
        <ele>218.2</ele>
        <time>2019-08-20T14:07:54Z</time>
      </trkpt>
      <trkpt lat="46.53079" lon="3.69702">
        <ele>218.2</ele>
        <time>2019-08-20T14:07:55Z</time>
      </trkpt>
      <trkpt lat="46.53075" lon="3.69699">
        <ele>218.2</ele>
        <time>2019-08-20T14:07:56Z</time>
      </trkpt>
      <trkpt lat="46.53071" lon="3.69696">
        <ele>218.3</ele>
        <time>2019-08-20T14:07:57Z</time>
      </trkpt>
      <trkpt lat="46.53067" lon="3.69693">
        <ele>218.3</ele>
        <time>2019-08-20T14:07:58Z</time>
      </trkpt>
      <trkpt lat="46.53063" lon="3.69691">
        <ele>218.3</ele>
        <time>2019-08-20T14:07:59Z</time>
      </trkpt>
      <trkpt lat="46.53059" lon="3.69689">
        <ele>218.3</ele>
        <time>2019-08-20T14:08:00Z</time>
      </trkpt>
      <trkpt lat="46.53055" lon="3.69685">
        <ele>218.3</ele>
        <time>2019-08-20T14:08:01Z</time>
      </trkpt>
      <trkpt lat="46.53051" lon="3.69682">
        <ele>218.3</ele>
        <time>2019-08-20T14:08:02Z</time>
      </trkpt>
      <trkpt lat="46.53046" lon="3.69678">
        <ele>218.4</ele>
        <time>2019-08-20T14:08:03Z</time>
      </trkpt>
      <trkpt lat="46.53042" lon="3.69676">
        <ele>218.4</ele>
        <time>2019-08-20T14:08:04Z</time>
      </trkpt>
      <trkpt lat="46.53037" lon="3.69673">
        <ele>218.4</ele>
        <time>2019-08-20T14:08:05Z</time>
      </trkpt>
      <trkpt lat="46.53033" lon="3.69671">
        <ele>218.5</ele>
        <time>2019-08-20T14:08:06Z</time>
      </trkpt>
      <trkpt lat="46.53029" lon="3.69669">
        <ele>218.5</ele>
        <time>2019-08-20T14:08:07Z</time>
      </trkpt>
      <trkpt lat="46.53024" lon="3.69666">
        <ele>218.5</ele>
        <time>2019-08-20T14:08:08Z</time>
      </trkpt>
      <trkpt lat="46.5302" lon="3.69664">
        <ele>218.6</ele>
        <time>2019-08-20T14:08:09Z</time>
      </trkpt>
      <trkpt lat="46.53016" lon="3.69661">
        <ele>218.6</ele>
        <time>2019-08-20T14:08:10Z</time>
      </trkpt>
      <trkpt lat="46.53011" lon="3.69658">
        <ele>218.7</ele>
        <time>2019-08-20T14:08:11Z</time>
      </trkpt>
      <trkpt lat="46.53007" lon="3.69656">
        <ele>218.7</ele>
        <time>2019-08-20T14:08:12Z</time>
      </trkpt>
      <trkpt lat="46.53002" lon="3.69653">
        <ele>218.7</ele>
        <time>2019-08-20T14:08:13Z</time>
      </trkpt>
      <trkpt lat="46.52998" lon="3.6965">
        <ele>218.7</ele>
        <time>2019-08-20T14:08:14Z</time>
      </trkpt>
      <trkpt lat="46.52994" lon="3.69646">
        <ele>218.7</ele>
        <time>2019-08-20T14:08:15Z</time>
      </trkpt>
      <trkpt lat="46.5299" lon="3.69643">
        <ele>218.7</ele>
        <time>2019-08-20T14:08:16Z</time>
      </trkpt>
      <trkpt lat="46.52985" lon="3.6964">
        <ele>218.7</ele>
        <time>2019-08-20T14:08:17Z</time>
      </trkpt>
      <trkpt lat="46.5298" lon="3.69637">
        <ele>218.6</ele>
        <time>2019-08-20T14:08:18Z</time>
      </trkpt>
      <trkpt lat="46.52975" lon="3.69634">
        <ele>218.6</ele>
        <time>2019-08-20T14:08:19Z</time>
      </trkpt>
      <trkpt lat="46.5297" lon="3.69632">
        <ele>218.6</ele>
        <time>2019-08-20T14:08:20Z</time>
      </trkpt>
      <trkpt lat="46.52965" lon="3.69629">
        <ele>218.5</ele>
        <time>2019-08-20T14:08:21Z</time>
      </trkpt>
      <trkpt lat="46.52961" lon="3.69625">
        <ele>218.5</ele>
        <time>2019-08-20T14:08:22Z</time>
      </trkpt>
      <trkpt lat="46.52956" lon="3.69623">
        <ele>218.5</ele>
        <time>2019-08-20T14:08:23Z</time>
      </trkpt>
      <trkpt lat="46.52952" lon="3.69619">
        <ele>218.4</ele>
        <time>2019-08-20T14:08:24Z</time>
      </trkpt>
      <trkpt lat="46.52947" lon="3.69617">
        <ele>218.4</ele>
        <time>2019-08-20T14:08:25Z</time>
      </trkpt>
      <trkpt lat="46.52943" lon="3.69614">
        <ele>218.4</ele>
        <time>2019-08-20T14:08:26Z</time>
      </trkpt>
      <trkpt lat="46.52938" lon="3.69611">
        <ele>218.5</ele>
        <time>2019-08-20T14:08:27Z</time>
      </trkpt>
      <trkpt lat="46.52934" lon="3.69609">
        <ele>218.5</ele>
        <time>2019-08-20T14:08:28Z</time>
      </trkpt>
      <trkpt lat="46.52929" lon="3.69606">
        <ele>218.6</ele>
        <time>2019-08-20T14:08:29Z</time>
      </trkpt>
      <trkpt lat="46.52925" lon="3.69603">
        <ele>218.7</ele>
        <time>2019-08-20T14:08:30Z</time>
      </trkpt>
      <trkpt lat="46.5292" lon="3.69598">
        <ele>218.8</ele>
        <time>2019-08-20T14:08:31Z</time>
      </trkpt>
      <trkpt lat="46.52915" lon="3.69596">
        <ele>218.9</ele>
        <time>2019-08-20T14:08:32Z</time>
      </trkpt>
      <trkpt lat="46.52911" lon="3.69593">
        <ele>219</ele>
        <time>2019-08-20T14:08:33Z</time>
      </trkpt>
      <trkpt lat="46.52907" lon="3.6959">
        <ele>219</ele>
        <time>2019-08-20T14:08:34Z</time>
      </trkpt>
      <trkpt lat="46.52903" lon="3.69587">
        <ele>219.1</ele>
        <time>2019-08-20T14:08:35Z</time>
      </trkpt>
      <trkpt lat="46.52899" lon="3.69585">
        <ele>219.1</ele>
        <time>2019-08-20T14:08:36Z</time>
      </trkpt>
      <trkpt lat="46.52894" lon="3.69582">
        <ele>219.2</ele>
        <time>2019-08-20T14:08:37Z</time>
      </trkpt>
      <trkpt lat="46.5289" lon="3.69579">
        <ele>219.2</ele>
        <time>2019-08-20T14:08:38Z</time>
      </trkpt>
      <trkpt lat="46.52886" lon="3.69576">
        <ele>219.3</ele>
        <time>2019-08-20T14:08:39Z</time>
      </trkpt>
      <trkpt lat="46.52881" lon="3.69572">
        <ele>219.3</ele>
        <time>2019-08-20T14:08:40Z</time>
      </trkpt>
      <trkpt lat="46.52877" lon="3.69568">
        <ele>219.3</ele>
        <time>2019-08-20T14:08:41Z</time>
      </trkpt>
      <trkpt lat="46.52872" lon="3.69565">
        <ele>219.3</ele>
        <time>2019-08-20T14:08:42Z</time>
      </trkpt>
      <trkpt lat="46.52868" lon="3.69562">
        <ele>219.3</ele>
        <time>2019-08-20T14:08:43Z</time>
      </trkpt>
      <trkpt lat="46.52863" lon="3.6956">
        <ele>219.3</ele>
        <time>2019-08-20T14:08:44Z</time>
      </trkpt>
      <trkpt lat="46.52859" lon="3.69557">
        <ele>219.3</ele>
        <time>2019-08-20T14:08:45Z</time>
      </trkpt>
      <trkpt lat="46.52854" lon="3.69555">
        <ele>219.3</ele>
        <time>2019-08-20T14:08:46Z</time>
      </trkpt>
      <trkpt lat="46.52849" lon="3.69553">
        <ele>219.3</ele>
        <time>2019-08-20T14:08:47Z</time>
      </trkpt>
      <trkpt lat="46.52845" lon="3.6955">
        <ele>219.3</ele>
        <time>2019-08-20T14:08:48Z</time>
      </trkpt>
      <trkpt lat="46.5284" lon="3.69547">
        <ele>219.3</ele>
        <time>2019-08-20T14:08:49Z</time>
      </trkpt>
      <trkpt lat="46.52835" lon="3.69543">
        <ele>219.3</ele>
        <time>2019-08-20T14:08:50Z</time>
      </trkpt>
      <trkpt lat="46.5283" lon="3.6954">
        <ele>219.3</ele>
        <time>2019-08-20T14:08:51Z</time>
      </trkpt>
      <trkpt lat="46.52826" lon="3.69537">
        <ele>219.3</ele>
        <time>2019-08-20T14:08:52Z</time>
      </trkpt>
      <trkpt lat="46.52821" lon="3.69533">
        <ele>219.3</ele>
        <time>2019-08-20T14:08:53Z</time>
      </trkpt>
      <trkpt lat="46.52816" lon="3.69531">
        <ele>219.3</ele>
        <time>2019-08-20T14:08:54Z</time>
      </trkpt>
      <trkpt lat="46.52812" lon="3.69529">
        <ele>219.3</ele>
        <time>2019-08-20T14:08:55Z</time>
      </trkpt>
      <trkpt lat="46.52807" lon="3.69526">
        <ele>219.3</ele>
        <time>2019-08-20T14:08:56Z</time>
      </trkpt>
      <trkpt lat="46.52802" lon="3.69523">
        <ele>219.3</ele>
        <time>2019-08-20T14:08:57Z</time>
      </trkpt>
      <trkpt lat="46.52797" lon="3.69521">
        <ele>219.3</ele>
        <time>2019-08-20T14:08:58Z</time>
      </trkpt>
      <trkpt lat="46.52793" lon="3.69518">
        <ele>219.3</ele>
        <time>2019-08-20T14:08:59Z</time>
      </trkpt>
      <trkpt lat="46.52789" lon="3.69515">
        <ele>219.3</ele>
        <time>2019-08-20T14:09:00Z</time>
      </trkpt>
      <trkpt lat="46.52785" lon="3.69512">
        <ele>219.3</ele>
        <time>2019-08-20T14:09:01Z</time>
      </trkpt>
      <trkpt lat="46.52781" lon="3.6951">
        <ele>219.3</ele>
        <time>2019-08-20T14:09:02Z</time>
      </trkpt>
      <trkpt lat="46.52778" lon="3.69508">
        <ele>219.3</ele>
        <time>2019-08-20T14:09:03Z</time>
      </trkpt>
      <trkpt lat="46.52774" lon="3.69506">
        <ele>219.3</ele>
        <time>2019-08-20T14:09:04Z</time>
      </trkpt>
      <trkpt lat="46.52771" lon="3.69504">
        <ele>219.3</ele>
        <time>2019-08-20T14:09:05Z</time>
      </trkpt>
      <trkpt lat="46.52768" lon="3.69503">
        <ele>219.3</ele>
        <time>2019-08-20T14:09:06Z</time>
      </trkpt>
      <trkpt lat="46.52765" lon="3.69501">
        <ele>219.3</ele>
        <time>2019-08-20T14:09:07Z</time>
      </trkpt>
      <trkpt lat="46.52762" lon="3.69499">
        <ele>219.3</ele>
        <time>2019-08-20T14:09:08Z</time>
      </trkpt>
      <trkpt lat="46.52758" lon="3.69497">
        <ele>219.3</ele>
        <time>2019-08-20T14:09:09Z</time>
      </trkpt>
      <trkpt lat="46.52754" lon="3.69495">
        <ele>219.3</ele>
        <time>2019-08-20T14:09:10Z</time>
      </trkpt>
      <trkpt lat="46.5275" lon="3.69492">
        <ele>219.3</ele>
        <time>2019-08-20T14:09:11Z</time>
      </trkpt>
      <trkpt lat="46.52746" lon="3.69491">
        <ele>219.3</ele>
        <time>2019-08-20T14:09:12Z</time>
      </trkpt>
      <trkpt lat="46.52742" lon="3.69488">
        <ele>219.3</ele>
        <time>2019-08-20T14:09:13Z</time>
      </trkpt>
      <trkpt lat="46.52737" lon="3.69486">
        <ele>219.3</ele>
        <time>2019-08-20T14:09:14Z</time>
      </trkpt>
      <trkpt lat="46.52733" lon="3.69484">
        <ele>219.3</ele>
        <time>2019-08-20T14:09:15Z</time>
      </trkpt>
      <trkpt lat="46.52729" lon="3.69481">
        <ele>219.3</ele>
        <time>2019-08-20T14:09:16Z</time>
      </trkpt>
      <trkpt lat="46.52724" lon="3.69479">
        <ele>219.3</ele>
        <time>2019-08-20T14:09:17Z</time>
      </trkpt>
      <trkpt lat="46.5272" lon="3.69477">
        <ele>219.3</ele>
        <time>2019-08-20T14:09:18Z</time>
      </trkpt>
      <trkpt lat="46.52715" lon="3.69474">
        <ele>219.3</ele>
        <time>2019-08-20T14:09:19Z</time>
      </trkpt>
      <trkpt lat="46.52711" lon="3.69471">
        <ele>219.2</ele>
        <time>2019-08-20T14:09:20Z</time>
      </trkpt>
      <trkpt lat="46.52707" lon="3.69468">
        <ele>219.2</ele>
        <time>2019-08-20T14:09:21Z</time>
      </trkpt>
      <trkpt lat="46.52702" lon="3.69465">
        <ele>219.2</ele>
        <time>2019-08-20T14:09:22Z</time>
      </trkpt>
      <trkpt lat="46.52698" lon="3.69462">
        <ele>219.1</ele>
        <time>2019-08-20T14:09:23Z</time>
      </trkpt>
      <trkpt lat="46.52694" lon="3.6946">
        <ele>219.1</ele>
        <time>2019-08-20T14:09:24Z</time>
      </trkpt>
      <trkpt lat="46.5269" lon="3.69458">
        <ele>219.1</ele>
        <time>2019-08-20T14:09:25Z</time>
      </trkpt>
      <trkpt lat="46.52687" lon="3.69456">
        <ele>219</ele>
        <time>2019-08-20T14:09:26Z</time>
      </trkpt>
      <trkpt lat="46.52684" lon="3.69455">
        <ele>219</ele>
        <time>2019-08-20T14:09:27Z</time>
      </trkpt>
      <trkpt lat="46.5268" lon="3.69453">
        <ele>219</ele>
        <time>2019-08-20T14:09:29Z</time>
      </trkpt>
      <trkpt lat="46.52679" lon="3.69449">
        <ele>218.9</ele>
        <time>2019-08-20T14:09:32Z</time>
      </trkpt>
      <trkpt lat="46.52676" lon="3.69449">
        <ele>218.9</ele>
        <time>2019-08-20T14:09:34Z</time>
      </trkpt>
      <trkpt lat="46.52673" lon="3.69446">
        <ele>218.9</ele>
        <time>2019-08-20T14:09:37Z</time>
      </trkpt>
      <trkpt lat="46.52669" lon="3.69444">
        <ele>218.9</ele>
        <time>2019-08-20T14:09:39Z</time>
      </trkpt>
      <trkpt lat="46.52666" lon="3.69443">
        <ele>218.9</ele>
        <time>2019-08-20T14:09:41Z</time>
      </trkpt>
      <trkpt lat="46.52663" lon="3.69438">
        <ele>218.8</ele>
        <time>2019-08-20T14:09:44Z</time>
      </trkpt>
      <trkpt lat="46.52659" lon="3.69434">
        <ele>218.8</ele>
        <time>2019-08-20T14:09:46Z</time>
      </trkpt>
      <trkpt lat="46.52657" lon="3.69431">
        <ele>218.8</ele>
        <time>2019-08-20T14:09:47Z</time>
      </trkpt>
      <trkpt lat="46.52654" lon="3.69427">
        <ele>218.8</ele>
        <time>2019-08-20T14:09:48Z</time>
      </trkpt>
      <trkpt lat="46.52651" lon="3.69424">
        <ele>218.8</ele>
        <time>2019-08-20T14:09:49Z</time>
      </trkpt>
      <trkpt lat="46.52647" lon="3.6942">
        <ele>218.8</ele>
        <time>2019-08-20T14:09:50Z</time>
      </trkpt>
      <trkpt lat="46.52644" lon="3.69417">
        <ele>218.8</ele>
        <time>2019-08-20T14:09:51Z</time>
      </trkpt>
      <trkpt lat="46.52642" lon="3.69414">
        <ele>218.8</ele>
        <time>2019-08-20T14:09:52Z</time>
      </trkpt>
      <trkpt lat="46.52638" lon="3.69412">
        <ele>218.8</ele>
        <time>2019-08-20T14:09:53Z</time>
      </trkpt>
      <trkpt lat="46.52635" lon="3.69409">
        <ele>218.8</ele>
        <time>2019-08-20T14:09:54Z</time>
      </trkpt>
      <trkpt lat="46.52632" lon="3.69407">
        <ele>218.7</ele>
        <time>2019-08-20T14:09:55Z</time>
      </trkpt>
      <trkpt lat="46.52627" lon="3.69404">
        <ele>218.7</ele>
        <time>2019-08-20T14:09:56Z</time>
      </trkpt>
      <trkpt lat="46.52623" lon="3.69401">
        <ele>218.6</ele>
        <time>2019-08-20T14:09:57Z</time>
      </trkpt>
      <trkpt lat="46.52619" lon="3.69398">
        <ele>218.6</ele>
        <time>2019-08-20T14:09:58Z</time>
      </trkpt>
      <trkpt lat="46.52616" lon="3.69393">
        <ele>218.5</ele>
        <time>2019-08-20T14:09:59Z</time>
      </trkpt>
      <trkpt lat="46.52612" lon="3.69388">
        <ele>218.5</ele>
        <time>2019-08-20T14:10:00Z</time>
      </trkpt>
      <trkpt lat="46.52609" lon="3.69384">
        <ele>218.4</ele>
        <time>2019-08-20T14:10:01Z</time>
      </trkpt>
      <trkpt lat="46.52606" lon="3.6938">
        <ele>218.4</ele>
        <time>2019-08-20T14:10:02Z</time>
      </trkpt>
      <trkpt lat="46.52603" lon="3.69376">
        <ele>218.5</ele>
        <time>2019-08-20T14:10:03Z</time>
      </trkpt>
      <trkpt lat="46.526" lon="3.69371">
        <ele>218.6</ele>
        <time>2019-08-20T14:10:04Z</time>
      </trkpt>
      <trkpt lat="46.52597" lon="3.69366">
        <ele>218.6</ele>
        <time>2019-08-20T14:10:05Z</time>
      </trkpt>
      <trkpt lat="46.52595" lon="3.6936">
        <ele>218.7</ele>
        <time>2019-08-20T14:10:06Z</time>
      </trkpt>
      <trkpt lat="46.52592" lon="3.69354">
        <ele>218.7</ele>
        <time>2019-08-20T14:10:07Z</time>
      </trkpt>
      <trkpt lat="46.52589" lon="3.6935">
        <ele>218.8</ele>
        <time>2019-08-20T14:10:08Z</time>
      </trkpt>
      <trkpt lat="46.52586" lon="3.69346">
        <ele>218.8</ele>
        <time>2019-08-20T14:10:09Z</time>
      </trkpt>
      <trkpt lat="46.52583" lon="3.69341">
        <ele>218.8</ele>
        <time>2019-08-20T14:10:10Z</time>
      </trkpt>
      <trkpt lat="46.5258" lon="3.69337">
        <ele>218.8</ele>
        <time>2019-08-20T14:10:11Z</time>
      </trkpt>
      <trkpt lat="46.52577" lon="3.69332">
        <ele>218.8</ele>
        <time>2019-08-20T14:10:12Z</time>
      </trkpt>
      <trkpt lat="46.52575" lon="3.69327">
        <ele>218.8</ele>
        <time>2019-08-20T14:10:13Z</time>
      </trkpt>
      <trkpt lat="46.52573" lon="3.69321">
        <ele>218.8</ele>
        <time>2019-08-20T14:10:14Z</time>
      </trkpt>
      <trkpt lat="46.5257" lon="3.69316">
        <ele>218.8</ele>
        <time>2019-08-20T14:10:15Z</time>
      </trkpt>
      <trkpt lat="46.52568" lon="3.69311">
        <ele>218.8</ele>
        <time>2019-08-20T14:10:16Z</time>
      </trkpt>
      <trkpt lat="46.52566" lon="3.69306">
        <ele>218.8</ele>
        <time>2019-08-20T14:10:17Z</time>
      </trkpt>
      <trkpt lat="46.52563" lon="3.69301">
        <ele>218.7</ele>
        <time>2019-08-20T14:10:18Z</time>
      </trkpt>
      <trkpt lat="46.52561" lon="3.69296">
        <ele>218.7</ele>
        <time>2019-08-20T14:10:19Z</time>
      </trkpt>
      <trkpt lat="46.52559" lon="3.6929">
        <ele>218.7</ele>
        <time>2019-08-20T14:10:20Z</time>
      </trkpt>
      <trkpt lat="46.52556" lon="3.69286">
        <ele>218.7</ele>
        <time>2019-08-20T14:10:21Z</time>
      </trkpt>
      <trkpt lat="46.52554" lon="3.6928">
        <ele>218.7</ele>
        <time>2019-08-20T14:10:22Z</time>
      </trkpt>
      <trkpt lat="46.52551" lon="3.69274">
        <ele>218.7</ele>
        <time>2019-08-20T14:10:23Z</time>
      </trkpt>
      <trkpt lat="46.52549" lon="3.69268">
        <ele>218.7</ele>
        <time>2019-08-20T14:10:24Z</time>
      </trkpt>
      <trkpt lat="46.52547" lon="3.69263">
        <ele>218.7</ele>
        <time>2019-08-20T14:10:25Z</time>
      </trkpt>
      <trkpt lat="46.52544" lon="3.69258">
        <ele>218.7</ele>
        <time>2019-08-20T14:10:26Z</time>
      </trkpt>
      <trkpt lat="46.52542" lon="3.69252">
        <ele>218.8</ele>
        <time>2019-08-20T14:10:27Z</time>
      </trkpt>
      <trkpt lat="46.5254" lon="3.69247">
        <ele>218.8</ele>
        <time>2019-08-20T14:10:28Z</time>
      </trkpt>
      <trkpt lat="46.52538" lon="3.69244">
        <ele>218.8</ele>
        <time>2019-08-20T14:10:29Z</time>
      </trkpt>
      <trkpt lat="46.52535" lon="3.69239">
        <ele>218.8</ele>
        <time>2019-08-20T14:10:30Z</time>
      </trkpt>
      <trkpt lat="46.52533" lon="3.69234">
        <ele>218.8</ele>
        <time>2019-08-20T14:10:31Z</time>
      </trkpt>
      <trkpt lat="46.5253" lon="3.69229">
        <ele>218.8</ele>
        <time>2019-08-20T14:10:32Z</time>
      </trkpt>
      <trkpt lat="46.52527" lon="3.69223">
        <ele>218.8</ele>
        <time>2019-08-20T14:10:33Z</time>
      </trkpt>
      <trkpt lat="46.52525" lon="3.69218">
        <ele>218.8</ele>
        <time>2019-08-20T14:10:34Z</time>
      </trkpt>
      <trkpt lat="46.52522" lon="3.69213">
        <ele>218.7</ele>
        <time>2019-08-20T14:10:35Z</time>
      </trkpt>
      <trkpt lat="46.52518" lon="3.69208">
        <ele>218.7</ele>
        <time>2019-08-20T14:10:36Z</time>
      </trkpt>
      <trkpt lat="46.52515" lon="3.69202">
        <ele>218.6</ele>
        <time>2019-08-20T14:10:37Z</time>
      </trkpt>
      <trkpt lat="46.52512" lon="3.69196">
        <ele>218.6</ele>
        <time>2019-08-20T14:10:38Z</time>
      </trkpt>
      <trkpt lat="46.52508" lon="3.69191">
        <ele>218.6</ele>
        <time>2019-08-20T14:10:39Z</time>
      </trkpt>
      <trkpt lat="46.52505" lon="3.69185">
        <ele>218.5</ele>
        <time>2019-08-20T14:10:40Z</time>
      </trkpt>
      <trkpt lat="46.52503" lon="3.6918">
        <ele>218.5</ele>
        <time>2019-08-20T14:10:41Z</time>
      </trkpt>
      <trkpt lat="46.525" lon="3.69175">
        <ele>218.5</ele>
        <time>2019-08-20T14:10:42Z</time>
      </trkpt>
      <trkpt lat="46.52498" lon="3.69171">
        <ele>218.5</ele>
        <time>2019-08-20T14:10:43Z</time>
      </trkpt>
      <trkpt lat="46.52495" lon="3.69166">
        <ele>218.5</ele>
        <time>2019-08-20T14:10:44Z</time>
      </trkpt>
      <trkpt lat="46.52493" lon="3.69161">
        <ele>218.5</ele>
        <time>2019-08-20T14:10:45Z</time>
      </trkpt>
      <trkpt lat="46.5249" lon="3.69156">
        <ele>218.5</ele>
        <time>2019-08-20T14:10:46Z</time>
      </trkpt>
      <trkpt lat="46.52487" lon="3.69151">
        <ele>218.4</ele>
        <time>2019-08-20T14:10:47Z</time>
      </trkpt>
      <trkpt lat="46.52484" lon="3.69147">
        <ele>218.4</ele>
        <time>2019-08-20T14:10:48Z</time>
      </trkpt>
      <trkpt lat="46.52481" lon="3.69142">
        <ele>218.3</ele>
        <time>2019-08-20T14:10:49Z</time>
      </trkpt>
      <trkpt lat="46.52479" lon="3.69136">
        <ele>218.3</ele>
        <time>2019-08-20T14:10:50Z</time>
      </trkpt>
      <trkpt lat="46.52476" lon="3.6913">
        <ele>218.1</ele>
        <time>2019-08-20T14:10:51Z</time>
      </trkpt>
      <trkpt lat="46.52473" lon="3.69124">
        <ele>218</ele>
        <time>2019-08-20T14:10:52Z</time>
      </trkpt>
      <trkpt lat="46.5247" lon="3.69118">
        <ele>217.9</ele>
        <time>2019-08-20T14:10:53Z</time>
      </trkpt>
      <trkpt lat="46.52467" lon="3.69111">
        <ele>217.8</ele>
        <time>2019-08-20T14:10:54Z</time>
      </trkpt>
      <trkpt lat="46.52464" lon="3.69106">
        <ele>217.8</ele>
        <time>2019-08-20T14:10:55Z</time>
      </trkpt>
      <trkpt lat="46.52461" lon="3.691">
        <ele>217.7</ele>
        <time>2019-08-20T14:10:56Z</time>
      </trkpt>
      <trkpt lat="46.52458" lon="3.69094">
        <ele>217.7</ele>
        <time>2019-08-20T14:10:57Z</time>
      </trkpt>
      <trkpt lat="46.52454" lon="3.69088">
        <ele>217.7</ele>
        <time>2019-08-20T14:10:58Z</time>
      </trkpt>
      <trkpt lat="46.52451" lon="3.69082">
        <ele>217.8</ele>
        <time>2019-08-20T14:10:59Z</time>
      </trkpt>
      <trkpt lat="46.52447" lon="3.69075">
        <ele>217.8</ele>
        <time>2019-08-20T14:11:00Z</time>
      </trkpt>
      <trkpt lat="46.52444" lon="3.69068">
        <ele>217.8</ele>
        <time>2019-08-20T14:11:01Z</time>
      </trkpt>
      <trkpt lat="46.52441" lon="3.6906">
        <ele>217.8</ele>
        <time>2019-08-20T14:11:02Z</time>
      </trkpt>
      <trkpt lat="46.52437" lon="3.69052">
        <ele>217.8</ele>
        <time>2019-08-20T14:11:03Z</time>
      </trkpt>
      <trkpt lat="46.52434" lon="3.69045">
        <ele>217.8</ele>
        <time>2019-08-20T14:11:04Z</time>
      </trkpt>
      <trkpt lat="46.52431" lon="3.69039">
        <ele>217.8</ele>
        <time>2019-08-20T14:11:05Z</time>
      </trkpt>
      <trkpt lat="46.52427" lon="3.69033">
        <ele>217.8</ele>
        <time>2019-08-20T14:11:06Z</time>
      </trkpt>
      <trkpt lat="46.52424" lon="3.69028">
        <ele>217.8</ele>
        <time>2019-08-20T14:11:07Z</time>
      </trkpt>
      <trkpt lat="46.52422" lon="3.69022">
        <ele>217.8</ele>
        <time>2019-08-20T14:11:08Z</time>
      </trkpt>
      <trkpt lat="46.52419" lon="3.69018">
        <ele>217.8</ele>
        <time>2019-08-20T14:11:09Z</time>
      </trkpt>
      <trkpt lat="46.52416" lon="3.69014">
        <ele>217.7</ele>
        <time>2019-08-20T14:11:10Z</time>
      </trkpt>
      <trkpt lat="46.52414" lon="3.6901">
        <ele>217.7</ele>
        <time>2019-08-20T14:11:11Z</time>
      </trkpt>
      <trkpt lat="46.52412" lon="3.69005">
        <ele>217.7</ele>
        <time>2019-08-20T14:11:13Z</time>
      </trkpt>
      <trkpt lat="46.52413" lon="3.69001">
        <ele>217.6</ele>
        <time>2019-08-20T14:11:18Z</time>
      </trkpt>
      <trkpt lat="46.52411" lon="3.68997">
        <ele>217.6</ele>
        <time>2019-08-20T14:11:20Z</time>
      </trkpt>
      <trkpt lat="46.52408" lon="3.68993">
        <ele>217.5</ele>
        <time>2019-08-20T14:11:22Z</time>
      </trkpt>
      <trkpt lat="46.52404" lon="3.68986">
        <ele>217.4</ele>
        <time>2019-08-20T14:11:24Z</time>
      </trkpt>
      <trkpt lat="46.52401" lon="3.6898">
        <ele>217.3</ele>
        <time>2019-08-20T14:11:25Z</time>
      </trkpt>
      <trkpt lat="46.52398" lon="3.68976">
        <ele>217.3</ele>
        <time>2019-08-20T14:11:26Z</time>
      </trkpt>
      <trkpt lat="46.52395" lon="3.68972">
        <ele>217.3</ele>
        <time>2019-08-20T14:11:27Z</time>
      </trkpt>
      <trkpt lat="46.52393" lon="3.68965">
        <ele>217.2</ele>
        <time>2019-08-20T14:11:30Z</time>
      </trkpt>
      <trkpt lat="46.5239" lon="3.6896">
        <ele>217.2</ele>
        <time>2019-08-20T14:11:32Z</time>
      </trkpt>
      <trkpt lat="46.52388" lon="3.68958">
        <ele>217.2</ele>
        <time>2019-08-20T14:11:33Z</time>
      </trkpt>
      <trkpt lat="46.52387" lon="3.68954">
        <ele>217.2</ele>
        <time>2019-08-20T14:11:34Z</time>
      </trkpt>
      <trkpt lat="46.52385" lon="3.68951">
        <ele>217.2</ele>
        <time>2019-08-20T14:11:35Z</time>
      </trkpt>
      <trkpt lat="46.52382" lon="3.68947">
        <ele>217.2</ele>
        <time>2019-08-20T14:11:36Z</time>
      </trkpt>
      <trkpt lat="46.5238" lon="3.68945">
        <ele>217.2</ele>
        <time>2019-08-20T14:11:37Z</time>
      </trkpt>
      <trkpt lat="46.52377" lon="3.68941">
        <ele>217.2</ele>
        <time>2019-08-20T14:11:38Z</time>
      </trkpt>
      <trkpt lat="46.52374" lon="3.68936">
        <ele>217.1</ele>
        <time>2019-08-20T14:11:39Z</time>
      </trkpt>
      <trkpt lat="46.52371" lon="3.68932">
        <ele>217.1</ele>
        <time>2019-08-20T14:11:40Z</time>
      </trkpt>
      <trkpt lat="46.52367" lon="3.68927">
        <ele>217.1</ele>
        <time>2019-08-20T14:11:41Z</time>
      </trkpt>
      <trkpt lat="46.52364" lon="3.68922">
        <ele>217</ele>
        <time>2019-08-20T14:11:42Z</time>
      </trkpt>
      <trkpt lat="46.52361" lon="3.68917">
        <ele>217</ele>
        <time>2019-08-20T14:11:43Z</time>
      </trkpt>
      <trkpt lat="46.52358" lon="3.68913">
        <ele>217</ele>
        <time>2019-08-20T14:11:44Z</time>
      </trkpt>
      <trkpt lat="46.52354" lon="3.68909">
        <ele>216.9</ele>
        <time>2019-08-20T14:11:45Z</time>
      </trkpt>
      <trkpt lat="46.5235" lon="3.68903">
        <ele>216.9</ele>
        <time>2019-08-20T14:11:46Z</time>
      </trkpt>
      <trkpt lat="46.52347" lon="3.68897">
        <ele>216.9</ele>
        <time>2019-08-20T14:11:47Z</time>
      </trkpt>
      <trkpt lat="46.52342" lon="3.6889">
        <ele>216.9</ele>
        <time>2019-08-20T14:11:48Z</time>
      </trkpt>
      <trkpt lat="46.52337" lon="3.68885">
        <ele>216.9</ele>
        <time>2019-08-20T14:11:49Z</time>
      </trkpt>
      <trkpt lat="46.52333" lon="3.6888">
        <ele>216.9</ele>
        <time>2019-08-20T14:11:50Z</time>
      </trkpt>
      <trkpt lat="46.52328" lon="3.68875">
        <ele>217</ele>
        <time>2019-08-20T14:11:51Z</time>
      </trkpt>
      <trkpt lat="46.52324" lon="3.68871">
        <ele>217</ele>
        <time>2019-08-20T14:11:52Z</time>
      </trkpt>
      <trkpt lat="46.52321" lon="3.68866">
        <ele>217</ele>
        <time>2019-08-20T14:11:53Z</time>
      </trkpt>
      <trkpt lat="46.52317" lon="3.68862">
        <ele>217</ele>
        <time>2019-08-20T14:11:54Z</time>
      </trkpt>
      <trkpt lat="46.52313" lon="3.68858">
        <ele>217</ele>
        <time>2019-08-20T14:11:55Z</time>
      </trkpt>
      <trkpt lat="46.5231" lon="3.68855">
        <ele>216.9</ele>
        <time>2019-08-20T14:11:56Z</time>
      </trkpt>
      <trkpt lat="46.52306" lon="3.6885">
        <ele>216.9</ele>
        <time>2019-08-20T14:11:57Z</time>
      </trkpt>
      <trkpt lat="46.52303" lon="3.68845">
        <ele>216.8</ele>
        <time>2019-08-20T14:11:58Z</time>
      </trkpt>
      <trkpt lat="46.52299" lon="3.6884">
        <ele>216.8</ele>
        <time>2019-08-20T14:11:59Z</time>
      </trkpt>
      <trkpt lat="46.52296" lon="3.68836">
        <ele>216.7</ele>
        <time>2019-08-20T14:12:00Z</time>
      </trkpt>
      <trkpt lat="46.52293" lon="3.68831">
        <ele>216.6</ele>
        <time>2019-08-20T14:12:01Z</time>
      </trkpt>
      <trkpt lat="46.5229" lon="3.68827">
        <ele>216.6</ele>
        <time>2019-08-20T14:12:02Z</time>
      </trkpt>
      <trkpt lat="46.52287" lon="3.68823">
        <ele>216.6</ele>
        <time>2019-08-20T14:12:03Z</time>
      </trkpt>
      <trkpt lat="46.52284" lon="3.68819">
        <ele>216.6</ele>
        <time>2019-08-20T14:12:04Z</time>
      </trkpt>
      <trkpt lat="46.5228" lon="3.68814">
        <ele>216.6</ele>
        <time>2019-08-20T14:12:05Z</time>
      </trkpt>
      <trkpt lat="46.52276" lon="3.68809">
        <ele>216.7</ele>
        <time>2019-08-20T14:12:07Z</time>
      </trkpt>
      <trkpt lat="46.52273" lon="3.68806">
        <ele>216.8</ele>
        <time>2019-08-20T14:12:09Z</time>
      </trkpt>
      <trkpt lat="46.52271" lon="3.68803">
        <ele>216.8</ele>
        <time>2019-08-20T14:12:11Z</time>
      </trkpt>
      <trkpt lat="46.52267" lon="3.68798">
        <ele>217</ele>
        <time>2019-08-20T14:12:13Z</time>
      </trkpt>
      <trkpt lat="46.52265" lon="3.68795">
        <ele>217.1</ele>
        <time>2019-08-20T14:12:14Z</time>
      </trkpt>
      <trkpt lat="46.52262" lon="3.68792">
        <ele>217.2</ele>
        <time>2019-08-20T14:12:15Z</time>
      </trkpt>
      <trkpt lat="46.52259" lon="3.68788">
        <ele>217.3</ele>
        <time>2019-08-20T14:12:16Z</time>
      </trkpt>
      <trkpt lat="46.52256" lon="3.68784">
        <ele>217.4</ele>
        <time>2019-08-20T14:12:17Z</time>
      </trkpt>
      <trkpt lat="46.52253" lon="3.68781">
        <ele>217.4</ele>
        <time>2019-08-20T14:12:18Z</time>
      </trkpt>
      <trkpt lat="46.52248" lon="3.68776">
        <ele>217.4</ele>
        <time>2019-08-20T14:12:20Z</time>
      </trkpt>
      <trkpt lat="46.52246" lon="3.68773">
        <ele>217.4</ele>
        <time>2019-08-20T14:12:21Z</time>
      </trkpt>
      <trkpt lat="46.52242" lon="3.68771">
        <ele>217.5</ele>
        <time>2019-08-20T14:12:22Z</time>
      </trkpt>
      <trkpt lat="46.52239" lon="3.68767">
        <ele>217.5</ele>
        <time>2019-08-20T14:12:23Z</time>
      </trkpt>
      <trkpt lat="46.52235" lon="3.68765">
        <ele>217.5</ele>
        <time>2019-08-20T14:12:24Z</time>
      </trkpt>
      <trkpt lat="46.52232" lon="3.68762">
        <ele>217.5</ele>
        <time>2019-08-20T14:12:25Z</time>
      </trkpt>
      <trkpt lat="46.52229" lon="3.68758">
        <ele>217.6</ele>
        <time>2019-08-20T14:12:26Z</time>
      </trkpt>
      <trkpt lat="46.52227" lon="3.68756">
        <ele>217.6</ele>
        <time>2019-08-20T14:12:27Z</time>
      </trkpt>
      <trkpt lat="46.52225" lon="3.68753">
        <ele>217.6</ele>
        <time>2019-08-20T14:12:28Z</time>
      </trkpt>
      <trkpt lat="46.52222" lon="3.68751">
        <ele>217.6</ele>
        <time>2019-08-20T14:12:29Z</time>
      </trkpt>
      <trkpt lat="46.52219" lon="3.68748">
        <ele>217.6</ele>
        <time>2019-08-20T14:12:30Z</time>
      </trkpt>
      <trkpt lat="46.52217" lon="3.68745">
        <ele>217.6</ele>
        <time>2019-08-20T14:12:31Z</time>
      </trkpt>
      <trkpt lat="46.52214" lon="3.68742">
        <ele>217.7</ele>
        <time>2019-08-20T14:12:32Z</time>
      </trkpt>
      <trkpt lat="46.52211" lon="3.68739">
        <ele>217.7</ele>
        <time>2019-08-20T14:12:33Z</time>
      </trkpt>
      <trkpt lat="46.52208" lon="3.68734">
        <ele>217.7</ele>
        <time>2019-08-20T14:12:34Z</time>
      </trkpt>
      <trkpt lat="46.52206" lon="3.68728">
        <ele>217.8</ele>
        <time>2019-08-20T14:12:35Z</time>
      </trkpt>
      <trkpt lat="46.52204" lon="3.68723">
        <ele>217.8</ele>
        <time>2019-08-20T14:12:36Z</time>
      </trkpt>
      <trkpt lat="46.52202" lon="3.68717">
        <ele>217.9</ele>
        <time>2019-08-20T14:12:37Z</time>
      </trkpt>
      <trkpt lat="46.522" lon="3.68713">
        <ele>218</ele>
        <time>2019-08-20T14:12:38Z</time>
      </trkpt>
      <trkpt lat="46.52197" lon="3.68708">
        <ele>218.1</ele>
        <time>2019-08-20T14:12:39Z</time>
      </trkpt>
      <trkpt lat="46.52195" lon="3.68704">
        <ele>218.2</ele>
        <time>2019-08-20T14:12:40Z</time>
      </trkpt>
      <trkpt lat="46.52194" lon="3.68698">
        <ele>218.3</ele>
        <time>2019-08-20T14:12:41Z</time>
      </trkpt>
      <trkpt lat="46.52193" lon="3.68693">
        <ele>218.5</ele>
        <time>2019-08-20T14:12:42Z</time>
      </trkpt>
      <trkpt lat="46.52193" lon="3.68687">
        <ele>218.7</ele>
        <time>2019-08-20T14:12:43Z</time>
      </trkpt>
      <trkpt lat="46.52193" lon="3.68683">
        <ele>218.9</ele>
        <time>2019-08-20T14:12:44Z</time>
      </trkpt>
      <trkpt lat="46.52194" lon="3.68677">
        <ele>219.2</ele>
        <time>2019-08-20T14:12:46Z</time>
      </trkpt>
      <trkpt lat="46.52195" lon="3.68672">
        <ele>219.5</ele>
        <time>2019-08-20T14:12:48Z</time>
      </trkpt>
      <trkpt lat="46.52194" lon="3.68668">
        <ele>220.5</ele>
        <time>2019-08-20T14:12:57Z</time>
      </trkpt>
      <trkpt lat="46.52188" lon="3.68662">
        <ele>220.6</ele>
        <time>2019-08-20T14:14:10Z</time>
      </trkpt>
      <trkpt lat="46.52185" lon="3.68658">
        <ele>220.6</ele>
        <time>2019-08-20T14:14:12Z</time>
      </trkpt>
      <trkpt lat="46.52182" lon="3.68655">
        <ele>221.1</ele>
        <time>2019-08-20T14:14:15Z</time>
      </trkpt>
      <trkpt lat="46.52182" lon="3.68648">
        <ele>221</ele>
        <time>2019-08-20T14:14:19Z</time>
      </trkpt>
      <trkpt lat="46.52179" lon="3.68645">
        <ele>221</ele>
        <time>2019-08-20T14:14:20Z</time>
      </trkpt>
      <trkpt lat="46.52176" lon="3.68642">
        <ele>221</ele>
        <time>2019-08-20T14:14:21Z</time>
      </trkpt>
      <trkpt lat="46.52173" lon="3.68639">
        <ele>221</ele>
        <time>2019-08-20T14:14:22Z</time>
      </trkpt>
      <trkpt lat="46.5217" lon="3.68637">
        <ele>221</ele>
        <time>2019-08-20T14:14:23Z</time>
      </trkpt>
      <trkpt lat="46.52168" lon="3.68635">
        <ele>221</ele>
        <time>2019-08-20T14:14:24Z</time>
      </trkpt>
      <trkpt lat="46.52163" lon="3.68632">
        <ele>221.1</ele>
        <time>2019-08-20T14:14:26Z</time>
      </trkpt>
      <trkpt lat="46.5216" lon="3.68629">
        <ele>221.1</ele>
        <time>2019-08-20T14:14:27Z</time>
      </trkpt>
      <trkpt lat="46.52158" lon="3.68627">
        <ele>221.1</ele>
        <time>2019-08-20T14:14:28Z</time>
      </trkpt>
      <trkpt lat="46.52156" lon="3.68623">
        <ele>221.1</ele>
        <time>2019-08-20T14:14:29Z</time>
      </trkpt>
      <trkpt lat="46.52153" lon="3.68619">
        <ele>221.1</ele>
        <time>2019-08-20T14:14:30Z</time>
      </trkpt>
      <trkpt lat="46.52151" lon="3.68615">
        <ele>221.1</ele>
        <time>2019-08-20T14:14:31Z</time>
      </trkpt>
      <trkpt lat="46.52149" lon="3.68611">
        <ele>221</ele>
        <time>2019-08-20T14:14:32Z</time>
      </trkpt>
      <trkpt lat="46.52146" lon="3.68607">
        <ele>221</ele>
        <time>2019-08-20T14:14:33Z</time>
      </trkpt>
      <trkpt lat="46.52143" lon="3.68603">
        <ele>221</ele>
        <time>2019-08-20T14:14:34Z</time>
      </trkpt>
      <trkpt lat="46.5214" lon="3.68599">
        <ele>221</ele>
        <time>2019-08-20T14:14:35Z</time>
      </trkpt>
      <trkpt lat="46.52136" lon="3.68595">
        <ele>220.9</ele>
        <time>2019-08-20T14:14:36Z</time>
      </trkpt>
      <trkpt lat="46.52133" lon="3.6859">
        <ele>220.9</ele>
        <time>2019-08-20T14:14:37Z</time>
      </trkpt>
      <trkpt lat="46.5213" lon="3.68586">
        <ele>220.8</ele>
        <time>2019-08-20T14:14:38Z</time>
      </trkpt>
      <trkpt lat="46.52127" lon="3.68582">
        <ele>220.8</ele>
        <time>2019-08-20T14:14:39Z</time>
      </trkpt>
      <trkpt lat="46.52124" lon="3.68577">
        <ele>220.7</ele>
        <time>2019-08-20T14:14:40Z</time>
      </trkpt>
      <trkpt lat="46.52121" lon="3.68573">
        <ele>220.7</ele>
        <time>2019-08-20T14:14:41Z</time>
      </trkpt>
      <trkpt lat="46.52117" lon="3.68569">
        <ele>220.7</ele>
        <time>2019-08-20T14:14:42Z</time>
      </trkpt>
      <trkpt lat="46.52113" lon="3.68564">
        <ele>220.7</ele>
        <time>2019-08-20T14:14:43Z</time>
      </trkpt>
      <trkpt lat="46.52108" lon="3.68561">
        <ele>220.6</ele>
        <time>2019-08-20T14:14:44Z</time>
      </trkpt>
      <trkpt lat="46.52104" lon="3.68557">
        <ele>220.6</ele>
        <time>2019-08-20T14:14:45Z</time>
      </trkpt>
      <trkpt lat="46.521" lon="3.68555">
        <ele>220.6</ele>
        <time>2019-08-20T14:14:46Z</time>
      </trkpt>
      <trkpt lat="46.52095" lon="3.68552">
        <ele>220.6</ele>
        <time>2019-08-20T14:14:47Z</time>
      </trkpt>
      <trkpt lat="46.52091" lon="3.68549">
        <ele>220.6</ele>
        <time>2019-08-20T14:14:48Z</time>
      </trkpt>
      <trkpt lat="46.52087" lon="3.68547">
        <ele>220.6</ele>
        <time>2019-08-20T14:14:49Z</time>
      </trkpt>
      <trkpt lat="46.52083" lon="3.68543">
        <ele>220.5</ele>
        <time>2019-08-20T14:14:50Z</time>
      </trkpt>
      <trkpt lat="46.52078" lon="3.68541">
        <ele>220.5</ele>
        <time>2019-08-20T14:14:51Z</time>
      </trkpt>
      <trkpt lat="46.52074" lon="3.68538">
        <ele>220.4</ele>
        <time>2019-08-20T14:14:52Z</time>
      </trkpt>
      <trkpt lat="46.5207" lon="3.68536">
        <ele>220.4</ele>
        <time>2019-08-20T14:14:53Z</time>
      </trkpt>
      <trkpt lat="46.52066" lon="3.68534">
        <ele>220.3</ele>
        <time>2019-08-20T14:14:54Z</time>
      </trkpt>
      <trkpt lat="46.52061" lon="3.68532">
        <ele>220.2</ele>
        <time>2019-08-20T14:14:55Z</time>
      </trkpt>
      <trkpt lat="46.52057" lon="3.68529">
        <ele>220.2</ele>
        <time>2019-08-20T14:14:56Z</time>
      </trkpt>
      <trkpt lat="46.52053" lon="3.68527">
        <ele>220.1</ele>
        <time>2019-08-20T14:14:57Z</time>
      </trkpt>
      <trkpt lat="46.52048" lon="3.68525">
        <ele>220</ele>
        <time>2019-08-20T14:14:58Z</time>
      </trkpt>
      <trkpt lat="46.52044" lon="3.68521">
        <ele>220</ele>
        <time>2019-08-20T14:14:59Z</time>
      </trkpt>
      <trkpt lat="46.52039" lon="3.68518">
        <ele>219.9</ele>
        <time>2019-08-20T14:15:00Z</time>
      </trkpt>
      <trkpt lat="46.52035" lon="3.68514">
        <ele>219.8</ele>
        <time>2019-08-20T14:15:01Z</time>
      </trkpt>
      <trkpt lat="46.52031" lon="3.68512">
        <ele>219.8</ele>
        <time>2019-08-20T14:15:02Z</time>
      </trkpt>
      <trkpt lat="46.52027" lon="3.68509">
        <ele>219.7</ele>
        <time>2019-08-20T14:15:03Z</time>
      </trkpt>
      <trkpt lat="46.52023" lon="3.68505">
        <ele>219.7</ele>
        <time>2019-08-20T14:15:04Z</time>
      </trkpt>
      <trkpt lat="46.52019" lon="3.68501">
        <ele>219.7</ele>
        <time>2019-08-20T14:15:05Z</time>
      </trkpt>
      <trkpt lat="46.52014" lon="3.68498">
        <ele>219.7</ele>
        <time>2019-08-20T14:15:06Z</time>
      </trkpt>
      <trkpt lat="46.5201" lon="3.68494">
        <ele>219.8</ele>
        <time>2019-08-20T14:15:07Z</time>
      </trkpt>
      <trkpt lat="46.52006" lon="3.6849">
        <ele>219.8</ele>
        <time>2019-08-20T14:15:08Z</time>
      </trkpt>
      <trkpt lat="46.52002" lon="3.68487">
        <ele>219.8</ele>
        <time>2019-08-20T14:15:09Z</time>
      </trkpt>
      <trkpt lat="46.51999" lon="3.68482">
        <ele>219.9</ele>
        <time>2019-08-20T14:15:10Z</time>
      </trkpt>
      <trkpt lat="46.51995" lon="3.68478">
        <ele>220</ele>
        <time>2019-08-20T14:15:11Z</time>
      </trkpt>
      <trkpt lat="46.51991" lon="3.68474">
        <ele>220</ele>
        <time>2019-08-20T14:15:12Z</time>
      </trkpt>
      <trkpt lat="46.51988" lon="3.6847">
        <ele>220.1</ele>
        <time>2019-08-20T14:15:13Z</time>
      </trkpt>
      <trkpt lat="46.51985" lon="3.68467">
        <ele>220.1</ele>
        <time>2019-08-20T14:15:14Z</time>
      </trkpt>
      <trkpt lat="46.51983" lon="3.68464">
        <ele>220.2</ele>
        <time>2019-08-20T14:15:15Z</time>
      </trkpt>
      <trkpt lat="46.51979" lon="3.68459">
        <ele>220.3</ele>
        <time>2019-08-20T14:15:17Z</time>
      </trkpt>
      <trkpt lat="46.51977" lon="3.68455">
        <ele>220.4</ele>
        <time>2019-08-20T14:15:18Z</time>
      </trkpt>
      <trkpt lat="46.51974" lon="3.68449">
        <ele>220.5</ele>
        <time>2019-08-20T14:15:20Z</time>
      </trkpt>
      <trkpt lat="46.51971" lon="3.68445">
        <ele>220.6</ele>
        <time>2019-08-20T14:15:22Z</time>
      </trkpt>
      <trkpt lat="46.51968" lon="3.68442">
        <ele>220.6</ele>
        <time>2019-08-20T14:15:24Z</time>
      </trkpt>
      <trkpt lat="46.51966" lon="3.6844">
        <ele>220.7</ele>
        <time>2019-08-20T14:15:27Z</time>
      </trkpt>
      <trkpt lat="46.5197" lon="3.68433">
        <ele>221.1</ele>
        <time>2019-08-20T14:15:49Z</time>
      </trkpt>
      <trkpt lat="46.51972" lon="3.68429">
        <ele>221.2</ele>
        <time>2019-08-20T14:15:50Z</time>
      </trkpt>
      <trkpt lat="46.51974" lon="3.68426">
        <ele>221.3</ele>
        <time>2019-08-20T14:15:51Z</time>
      </trkpt>
      <trkpt lat="46.51976" lon="3.68422">
        <ele>221.5</ele>
        <time>2019-08-20T14:15:52Z</time>
      </trkpt>
      <trkpt lat="46.51979" lon="3.68419">
        <ele>221.6</ele>
        <time>2019-08-20T14:15:53Z</time>
      </trkpt>
      <trkpt lat="46.51981" lon="3.68415">
        <ele>221.8</ele>
        <time>2019-08-20T14:15:54Z</time>
      </trkpt>
      <trkpt lat="46.51984" lon="3.68411">
        <ele>221.9</ele>
        <time>2019-08-20T14:15:55Z</time>
      </trkpt>
      <trkpt lat="46.51986" lon="3.68407">
        <ele>222</ele>
        <time>2019-08-20T14:15:56Z</time>
      </trkpt>
      <trkpt lat="46.51989" lon="3.68402">
        <ele>222.2</ele>
        <time>2019-08-20T14:15:57Z</time>
      </trkpt>
      <trkpt lat="46.51992" lon="3.68398">
        <ele>222.3</ele>
        <time>2019-08-20T14:15:58Z</time>
      </trkpt>
      <trkpt lat="46.51995" lon="3.68394">
        <ele>222.5</ele>
        <time>2019-08-20T14:15:59Z</time>
      </trkpt>
      <trkpt lat="46.51997" lon="3.6839">
        <ele>222.6</ele>
        <time>2019-08-20T14:16:00Z</time>
      </trkpt>
      <trkpt lat="46.51999" lon="3.68386">
        <ele>222.7</ele>
        <time>2019-08-20T14:16:01Z</time>
      </trkpt>
      <trkpt lat="46.52002" lon="3.68382">
        <ele>222.8</ele>
        <time>2019-08-20T14:16:02Z</time>
      </trkpt>
      <trkpt lat="46.52004" lon="3.68378">
        <ele>222.9</ele>
        <time>2019-08-20T14:16:03Z</time>
      </trkpt>
      <trkpt lat="46.52007" lon="3.68374">
        <ele>223.1</ele>
        <time>2019-08-20T14:16:04Z</time>
      </trkpt>
      <trkpt lat="46.5201" lon="3.6837">
        <ele>223.2</ele>
        <time>2019-08-20T14:16:05Z</time>
      </trkpt>
      <trkpt lat="46.52012" lon="3.68367">
        <ele>223.3</ele>
        <time>2019-08-20T14:16:06Z</time>
      </trkpt>
      <trkpt lat="46.52014" lon="3.68364">
        <ele>223.4</ele>
        <time>2019-08-20T14:16:07Z</time>
      </trkpt>
      <trkpt lat="46.52016" lon="3.68361">
        <ele>223.5</ele>
        <time>2019-08-20T14:16:08Z</time>
      </trkpt>
      <trkpt lat="46.5202" lon="3.68356">
        <ele>223.7</ele>
        <time>2019-08-20T14:16:10Z</time>
      </trkpt>
      <trkpt lat="46.52022" lon="3.68353">
        <ele>223.8</ele>
        <time>2019-08-20T14:16:12Z</time>
      </trkpt>
      <trkpt lat="46.52025" lon="3.68349">
        <ele>224</ele>
        <time>2019-08-20T14:16:14Z</time>
      </trkpt>
      <trkpt lat="46.52027" lon="3.68346">
        <ele>224.1</ele>
        <time>2019-08-20T14:16:18Z</time>
      </trkpt>
      <trkpt lat="46.5203" lon="3.68345">
        <ele>224.2</ele>
        <time>2019-08-20T14:16:26Z</time>
      </trkpt>
      <trkpt lat="46.52033" lon="3.68344">
        <ele>224.2</ele>
        <time>2019-08-20T14:16:28Z</time>
      </trkpt>
      <trkpt lat="46.52029" lon="3.68341">
        <ele>224.2</ele>
        <time>2019-08-20T14:16:59Z</time>
      </trkpt>
      <trkpt lat="46.52027" lon="3.68343">
        <ele>224.2</ele>
        <time>2019-08-20T14:17:02Z</time>
      </trkpt>
      <trkpt lat="46.52026" lon="3.68347">
        <ele>224.2</ele>
        <time>2019-08-20T14:17:05Z</time>
      </trkpt>
      <trkpt lat="46.52023" lon="3.6835">
        <ele>224.1</ele>
        <time>2019-08-20T14:17:08Z</time>
      </trkpt>
      <trkpt lat="46.52025" lon="3.68352">
        <ele>224.1</ele>
        <time>2019-08-20T14:17:22Z</time>
      </trkpt>
      <trkpt lat="46.52027" lon="3.68356">
        <ele>224.1</ele>
        <time>2019-08-20T14:17:25Z</time>
      </trkpt>
      <trkpt lat="46.52029" lon="3.68362">
        <ele>224.1</ele>
        <time>2019-08-20T14:17:29Z</time>
      </trkpt>
      <trkpt lat="46.52031" lon="3.68365">
        <ele>224.1</ele>
        <time>2019-08-20T14:17:33Z</time>
      </trkpt>
      <trkpt lat="46.52034" lon="3.68368">
        <ele>224</ele>
        <time>2019-08-20T14:17:37Z</time>
      </trkpt>
      <trkpt lat="46.52037" lon="3.68369">
        <ele>224</ele>
        <time>2019-08-20T14:17:43Z</time>
      </trkpt>
      <trkpt lat="46.52039" lon="3.68372">
        <ele>224</ele>
        <time>2019-08-20T14:17:45Z</time>
      </trkpt>
      <trkpt lat="46.52042" lon="3.68375">
        <ele>224</ele>
        <time>2019-08-20T14:17:48Z</time>
      </trkpt>
      <trkpt lat="46.52044" lon="3.68378">
        <ele>224</ele>
        <time>2019-08-20T14:17:51Z</time>
      </trkpt>
      <trkpt lat="46.52047" lon="3.68383">
        <ele>223.9</ele>
        <time>2019-08-20T14:17:54Z</time>
      </trkpt>
      <trkpt lat="46.52042" lon="3.68384">
        <ele>223.8</ele>
        <time>2019-08-20T14:17:56Z</time>
      </trkpt>
      <trkpt lat="46.52044" lon="3.68389">
        <ele>223.8</ele>
        <time>2019-08-20T14:17:58Z</time>
      </trkpt>
      <trkpt lat="46.52041" lon="3.68389">
        <ele>223.8</ele>
        <time>2019-08-20T14:17:59Z</time>
      </trkpt>
      <trkpt lat="46.52033" lon="3.68388">
        <ele>223.8</ele>
        <time>2019-08-20T14:18:10Z</time>
      </trkpt>
      <trkpt lat="46.52031" lon="3.68387">
        <ele>223.8</ele>
        <time>2019-08-20T14:18:11Z</time>
      </trkpt>
      <trkpt lat="46.52026" lon="3.68384">
        <ele>223.8</ele>
        <time>2019-08-20T14:18:12Z</time>
      </trkpt>
      <trkpt lat="46.52023" lon="3.68382">
        <ele>224</ele>
        <time>2019-08-20T14:18:13Z</time>
      </trkpt>
      <trkpt lat="46.52019" lon="3.68378">
        <ele>224</ele>
        <time>2019-08-20T14:18:14Z</time>
      </trkpt>
      <trkpt lat="46.52016" lon="3.68376">
        <ele>224</ele>
        <time>2019-08-20T14:18:15Z</time>
      </trkpt>
      <trkpt lat="46.52013" lon="3.68373">
        <ele>224.1</ele>
        <time>2019-08-20T14:18:16Z</time>
      </trkpt>
      <trkpt lat="46.5201" lon="3.68371">
        <ele>224.1</ele>
        <time>2019-08-20T14:18:17Z</time>
      </trkpt>
      <trkpt lat="46.52007" lon="3.68369">
        <ele>224.1</ele>
        <time>2019-08-20T14:18:18Z</time>
      </trkpt>
      <trkpt lat="46.52003" lon="3.68371">
        <ele>224.1</ele>
        <time>2019-08-20T14:18:20Z</time>
      </trkpt>
      <trkpt lat="46.52" lon="3.68373">
        <ele>224.1</ele>
        <time>2019-08-20T14:18:22Z</time>
      </trkpt>
      <trkpt lat="46.51996" lon="3.68371">
        <ele>224.1</ele>
        <time>2019-08-20T14:18:28Z</time>
      </trkpt>
      <trkpt lat="46.51993" lon="3.68368">
        <ele>224.1</ele>
        <time>2019-08-20T14:18:30Z</time>
      </trkpt>
      <trkpt lat="46.5199" lon="3.68366">
        <ele>224.1</ele>
        <time>2019-08-20T14:18:31Z</time>
      </trkpt>
      <trkpt lat="46.51988" lon="3.68362">
        <ele>224.1</ele>
        <time>2019-08-20T14:18:39Z</time>
      </trkpt>
      <trkpt lat="46.51991" lon="3.68367">
        <ele>224.1</ele>
        <time>2019-08-20T14:18:41Z</time>
      </trkpt>
      <trkpt lat="46.51989" lon="3.68364">
        <ele>224.1</ele>
        <time>2019-08-20T14:18:48Z</time>
      </trkpt>
      <trkpt lat="46.51991" lon="3.68367">
        <ele>224.1</ele>
        <time>2019-08-20T14:18:56Z</time>
      </trkpt>
      <trkpt lat="46.51995" lon="3.68368">
        <ele>224.1</ele>
        <time>2019-08-20T14:19:02Z</time>
      </trkpt>
      <trkpt lat="46.51998" lon="3.68371">
        <ele>224.1</ele>
        <time>2019-08-20T14:19:05Z</time>
      </trkpt>
      <trkpt lat="46.52001" lon="3.68373">
        <ele>224.1</ele>
        <time>2019-08-20T14:19:08Z</time>
      </trkpt>
      <trkpt lat="46.52004" lon="3.68374">
        <ele>224</ele>
        <time>2019-08-20T14:19:14Z</time>
      </trkpt>
      <trkpt lat="46.52007" lon="3.68377">
        <ele>224</ele>
        <time>2019-08-20T14:19:16Z</time>
      </trkpt>
      <trkpt lat="46.52009" lon="3.68379">
        <ele>224</ele>
        <time>2019-08-20T14:19:19Z</time>
      </trkpt>
      <trkpt lat="46.52011" lon="3.68375">
        <ele>224</ele>
        <time>2019-08-20T14:19:41Z</time>
      </trkpt>
      <trkpt lat="46.52011" lon="3.6837">
        <ele>224</ele>
        <time>2019-08-20T14:19:44Z</time>
      </trkpt>
      <trkpt lat="46.52014" lon="3.6837">
        <ele>224</ele>
        <time>2019-08-20T14:19:50Z</time>
      </trkpt>
      <trkpt lat="46.52017" lon="3.68371">
        <ele>224</ele>
        <time>2019-08-20T14:19:55Z</time>
      </trkpt>
      <trkpt lat="46.52018" lon="3.68368">
        <ele>224</ele>
        <time>2019-08-20T14:19:59Z</time>
      </trkpt>
      <trkpt lat="46.5202" lon="3.68365">
        <ele>224</ele>
        <time>2019-08-20T14:20:03Z</time>
      </trkpt>
      <trkpt lat="46.52029" lon="3.68352">
        <ele>224</ele>
        <time>2019-08-20T14:21:16Z</time>
      </trkpt>
      <trkpt lat="46.52032" lon="3.68353">
        <ele>223.8</ele>
        <time>2019-08-20T14:21:27Z</time>
      </trkpt>
      <trkpt lat="46.52035" lon="3.68354">
        <ele>223.8</ele>
        <time>2019-08-20T14:21:31Z</time>
      </trkpt>
      <trkpt lat="46.52041" lon="3.68365">
        <ele>223.8</ele>
        <time>2019-08-20T14:21:47Z</time>
      </trkpt>
      <trkpt lat="46.52041" lon="3.68369">
        <ele>223.8</ele>
        <time>2019-08-20T14:22:08Z</time>
      </trkpt>
      <trkpt lat="46.52039" lon="3.68365">
        <ele>223.8</ele>
        <time>2019-08-20T14:22:12Z</time>
      </trkpt>
      <trkpt lat="46.52039" lon="3.68361">
        <ele>223.8</ele>
        <time>2019-08-20T14:22:14Z</time>
      </trkpt>
      <trkpt lat="46.52038" lon="3.68356">
        <ele>223.8</ele>
        <time>2019-08-20T14:22:17Z</time>
      </trkpt>
      <trkpt lat="46.52035" lon="3.68356">
        <ele>223.8</ele>
        <time>2019-08-20T14:22:21Z</time>
      </trkpt>
      <trkpt lat="46.52032" lon="3.68357">
        <ele>223.8</ele>
        <time>2019-08-20T14:22:25Z</time>
      </trkpt>
      <trkpt lat="46.52029" lon="3.68357">
        <ele>223.8</ele>
        <time>2019-08-20T14:22:33Z</time>
      </trkpt>
      <trkpt lat="46.5203" lon="3.68362">
        <ele>223.7</ele>
        <time>2019-08-20T14:22:52Z</time>
      </trkpt>
      <trkpt lat="46.52028" lon="3.68359">
        <ele>223.6</ele>
        <time>2019-08-20T14:23:02Z</time>
      </trkpt>
      <trkpt lat="46.52031" lon="3.6836">
        <ele>223.6</ele>
        <time>2019-08-20T14:23:17Z</time>
      </trkpt>
      <trkpt lat="46.52031" lon="3.68355">
        <ele>223.5</ele>
        <time>2019-08-20T14:23:22Z</time>
      </trkpt>
      <trkpt lat="46.5203" lon="3.6835">
        <ele>223.4</ele>
        <time>2019-08-20T14:23:25Z</time>
      </trkpt>
      <trkpt lat="46.5203" lon="3.68346">
        <ele>223.4</ele>
        <time>2019-08-20T14:23:34Z</time>
      </trkpt>
      <trkpt lat="46.52029" lon="3.68342">
        <ele>223.3</ele>
        <time>2019-08-20T14:23:43Z</time>
      </trkpt>
      <trkpt lat="46.52025" lon="3.68337">
        <ele>223.2</ele>
        <time>2019-08-20T14:24:49Z</time>
      </trkpt>
      <trkpt lat="46.52029" lon="3.68337">
        <ele>223.1</ele>
        <time>2019-08-20T14:24:51Z</time>
      </trkpt>
      <trkpt lat="46.52028" lon="3.68344">
        <ele>223.1</ele>
        <time>2019-08-20T14:29:34Z</time>
      </trkpt>
      <trkpt lat="46.52025" lon="3.68345">
        <ele>223</ele>
        <time>2019-08-20T14:29:35Z</time>
      </trkpt>
      <trkpt lat="46.52022" lon="3.68348">
        <ele>222.9</ele>
        <time>2019-08-20T14:29:36Z</time>
      </trkpt>
      <trkpt lat="46.52019" lon="3.68353">
        <ele>222.9</ele>
        <time>2019-08-20T14:29:37Z</time>
      </trkpt>
      <trkpt lat="46.52015" lon="3.68357">
        <ele>222.8</ele>
        <time>2019-08-20T14:29:38Z</time>
      </trkpt>
      <trkpt lat="46.52012" lon="3.68362">
        <ele>222.7</ele>
        <time>2019-08-20T14:29:39Z</time>
      </trkpt>
      <trkpt lat="46.52007" lon="3.68368">
        <ele>222.6</ele>
        <time>2019-08-20T14:29:40Z</time>
      </trkpt>
      <trkpt lat="46.52004" lon="3.68372">
        <ele>222.5</ele>
        <time>2019-08-20T14:29:41Z</time>
      </trkpt>
      <trkpt lat="46.52" lon="3.68377">
        <ele>222.4</ele>
        <time>2019-08-20T14:29:42Z</time>
      </trkpt>
      <trkpt lat="46.51997" lon="3.68382">
        <ele>222.3</ele>
        <time>2019-08-20T14:29:43Z</time>
      </trkpt>
      <trkpt lat="46.51993" lon="3.68387">
        <ele>222.2</ele>
        <time>2019-08-20T14:29:44Z</time>
      </trkpt>
      <trkpt lat="46.51989" lon="3.68393">
        <ele>222.1</ele>
        <time>2019-08-20T14:29:45Z</time>
      </trkpt>
      <trkpt lat="46.51986" lon="3.68399">
        <ele>222</ele>
        <time>2019-08-20T14:29:46Z</time>
      </trkpt>
      <trkpt lat="46.51982" lon="3.68404">
        <ele>221.9</ele>
        <time>2019-08-20T14:29:47Z</time>
      </trkpt>
      <trkpt lat="46.51978" lon="3.68411">
        <ele>221.5</ele>
        <time>2019-08-20T14:29:48Z</time>
      </trkpt>
      <trkpt lat="46.51974" lon="3.68417">
        <ele>221.4</ele>
        <time>2019-08-20T14:29:49Z</time>
      </trkpt>
      <trkpt lat="46.5197" lon="3.68423">
        <ele>221.2</ele>
        <time>2019-08-20T14:29:50Z</time>
      </trkpt>
      <trkpt lat="46.51966" lon="3.68429">
        <ele>221.1</ele>
        <time>2019-08-20T14:29:51Z</time>
      </trkpt>
      <trkpt lat="46.51961" lon="3.68436">
        <ele>220.9</ele>
        <time>2019-08-20T14:29:52Z</time>
      </trkpt>
      <trkpt lat="46.51956" lon="3.68443">
        <ele>220.8</ele>
        <time>2019-08-20T14:29:53Z</time>
      </trkpt>
      <trkpt lat="46.51951" lon="3.6845">
        <ele>220.6</ele>
        <time>2019-08-20T14:29:54Z</time>
      </trkpt>
      <trkpt lat="46.51947" lon="3.68456">
        <ele>220.5</ele>
        <time>2019-08-20T14:29:55Z</time>
      </trkpt>
      <trkpt lat="46.51943" lon="3.68461">
        <ele>220.4</ele>
        <time>2019-08-20T14:29:56Z</time>
      </trkpt>
      <trkpt lat="46.51939" lon="3.68467">
        <ele>220.2</ele>
        <time>2019-08-20T14:29:57Z</time>
      </trkpt>
      <trkpt lat="46.51935" lon="3.68472">
        <ele>220.1</ele>
        <time>2019-08-20T14:29:58Z</time>
      </trkpt>
      <trkpt lat="46.51931" lon="3.68477">
        <ele>220.1</ele>
        <time>2019-08-20T14:29:59Z</time>
      </trkpt>
      <trkpt lat="46.51928" lon="3.68482">
        <ele>220.1</ele>
        <time>2019-08-20T14:30:00Z</time>
      </trkpt>
      <trkpt lat="46.51925" lon="3.68487">
        <ele>219.9</ele>
        <time>2019-08-20T14:30:01Z</time>
      </trkpt>
      <trkpt lat="46.51922" lon="3.68492">
        <ele>219.8</ele>
        <time>2019-08-20T14:30:02Z</time>
      </trkpt>
      <trkpt lat="46.5192" lon="3.68497">
        <ele>219.6</ele>
        <time>2019-08-20T14:30:03Z</time>
      </trkpt>
      <trkpt lat="46.51917" lon="3.685">
        <ele>219.5</ele>
        <time>2019-08-20T14:30:04Z</time>
      </trkpt>
      <trkpt lat="46.51913" lon="3.68503">
        <ele>219.4</ele>
        <time>2019-08-20T14:30:05Z</time>
      </trkpt>
      <trkpt lat="46.5191" lon="3.68507">
        <ele>219.3</ele>
        <time>2019-08-20T14:30:06Z</time>
      </trkpt>
      <trkpt lat="46.51907" lon="3.68511">
        <ele>219.2</ele>
        <time>2019-08-20T14:30:07Z</time>
      </trkpt>
      <trkpt lat="46.51904" lon="3.68515">
        <ele>219.1</ele>
        <time>2019-08-20T14:30:08Z</time>
      </trkpt>
      <trkpt lat="46.51901" lon="3.6852">
        <ele>219</ele>
        <time>2019-08-20T14:30:09Z</time>
      </trkpt>
      <trkpt lat="46.51899" lon="3.68525">
        <ele>218.9</ele>
        <time>2019-08-20T14:30:10Z</time>
      </trkpt>
      <trkpt lat="46.51896" lon="3.6853">
        <ele>218.8</ele>
        <time>2019-08-20T14:30:11Z</time>
      </trkpt>
      <trkpt lat="46.51892" lon="3.68535">
        <ele>218.5</ele>
        <time>2019-08-20T14:30:12Z</time>
      </trkpt>
      <trkpt lat="46.51889" lon="3.6854">
        <ele>218.4</ele>
        <time>2019-08-20T14:30:13Z</time>
      </trkpt>
      <trkpt lat="46.51886" lon="3.68543">
        <ele>218.2</ele>
        <time>2019-08-20T14:30:14Z</time>
      </trkpt>
      <trkpt lat="46.51883" lon="3.68547">
        <ele>218.1</ele>
        <time>2019-08-20T14:30:15Z</time>
      </trkpt>
      <trkpt lat="46.51881" lon="3.68551">
        <ele>218</ele>
        <time>2019-08-20T14:30:16Z</time>
      </trkpt>
      <trkpt lat="46.51879" lon="3.68556">
        <ele>217.9</ele>
        <time>2019-08-20T14:30:17Z</time>
      </trkpt>
      <trkpt lat="46.51876" lon="3.6856">
        <ele>217.7</ele>
        <time>2019-08-20T14:30:18Z</time>
      </trkpt>
      <trkpt lat="46.51874" lon="3.68564">
        <ele>217.6</ele>
        <time>2019-08-20T14:30:19Z</time>
      </trkpt>
      <trkpt lat="46.51871" lon="3.68568">
        <ele>217.6</ele>
        <time>2019-08-20T14:30:20Z</time>
      </trkpt>
      <trkpt lat="46.51868" lon="3.68572">
        <ele>217.6</ele>
        <time>2019-08-20T14:30:21Z</time>
      </trkpt>
      <trkpt lat="46.51865" lon="3.68576">
        <ele>217.7</ele>
        <time>2019-08-20T14:30:22Z</time>
      </trkpt>
      <trkpt lat="46.51862" lon="3.68581">
        <ele>217.8</ele>
        <time>2019-08-20T14:30:23Z</time>
      </trkpt>
      <trkpt lat="46.51859" lon="3.68585">
        <ele>217.8</ele>
        <time>2019-08-20T14:30:24Z</time>
      </trkpt>
      <trkpt lat="46.51856" lon="3.6859">
        <ele>217.9</ele>
        <time>2019-08-20T14:30:25Z</time>
      </trkpt>
      <trkpt lat="46.51852" lon="3.68595">
        <ele>218</ele>
        <time>2019-08-20T14:30:26Z</time>
      </trkpt>
      <trkpt lat="46.51849" lon="3.686">
        <ele>218.1</ele>
        <time>2019-08-20T14:30:27Z</time>
      </trkpt>
      <trkpt lat="46.51846" lon="3.68605">
        <ele>218.2</ele>
        <time>2019-08-20T14:30:28Z</time>
      </trkpt>
      <trkpt lat="46.51843" lon="3.6861">
        <ele>218.2</ele>
        <time>2019-08-20T14:30:29Z</time>
      </trkpt>
      <trkpt lat="46.5184" lon="3.68614">
        <ele>218.3</ele>
        <time>2019-08-20T14:30:30Z</time>
      </trkpt>
      <trkpt lat="46.51837" lon="3.68619">
        <ele>218.4</ele>
        <time>2019-08-20T14:30:31Z</time>
      </trkpt>
      <trkpt lat="46.51834" lon="3.68624">
        <ele>218.5</ele>
        <time>2019-08-20T14:30:32Z</time>
      </trkpt>
      <trkpt lat="46.51832" lon="3.68629">
        <ele>218.6</ele>
        <time>2019-08-20T14:30:33Z</time>
      </trkpt>
      <trkpt lat="46.51829" lon="3.68634">
        <ele>218.6</ele>
        <time>2019-08-20T14:30:34Z</time>
      </trkpt>
      <trkpt lat="46.51826" lon="3.68639">
        <ele>218.7</ele>
        <time>2019-08-20T14:30:35Z</time>
      </trkpt>
      <trkpt lat="46.51824" lon="3.68642">
        <ele>219</ele>
        <time>2019-08-20T14:30:36Z</time>
      </trkpt>
      <trkpt lat="46.51821" lon="3.68646">
        <ele>219.1</ele>
        <time>2019-08-20T14:30:37Z</time>
      </trkpt>
      <trkpt lat="46.51819" lon="3.68649">
        <ele>219.2</ele>
        <time>2019-08-20T14:30:38Z</time>
      </trkpt>
      <trkpt lat="46.51816" lon="3.68654">
        <ele>219.3</ele>
        <time>2019-08-20T14:30:39Z</time>
      </trkpt>
      <trkpt lat="46.51813" lon="3.68658">
        <ele>219.4</ele>
        <time>2019-08-20T14:30:40Z</time>
      </trkpt>
      <trkpt lat="46.5181" lon="3.68664">
        <ele>219.5</ele>
        <time>2019-08-20T14:30:41Z</time>
      </trkpt>
      <trkpt lat="46.51807" lon="3.68669">
        <ele>219.5</ele>
        <time>2019-08-20T14:30:42Z</time>
      </trkpt>
      <trkpt lat="46.51804" lon="3.68674">
        <ele>219.6</ele>
        <time>2019-08-20T14:30:43Z</time>
      </trkpt>
      <trkpt lat="46.51801" lon="3.68679">
        <ele>219.6</ele>
        <time>2019-08-20T14:30:44Z</time>
      </trkpt>
      <trkpt lat="46.51797" lon="3.68685">
        <ele>219.6</ele>
        <time>2019-08-20T14:30:45Z</time>
      </trkpt>
      <trkpt lat="46.51794" lon="3.68692">
        <ele>219.6</ele>
        <time>2019-08-20T14:30:46Z</time>
      </trkpt>
      <trkpt lat="46.5179" lon="3.68699">
        <ele>219.5</ele>
        <time>2019-08-20T14:30:47Z</time>
      </trkpt>
      <trkpt lat="46.51787" lon="3.68705">
        <ele>219.4</ele>
        <time>2019-08-20T14:30:48Z</time>
      </trkpt>
      <trkpt lat="46.51783" lon="3.6871">
        <ele>219.4</ele>
        <time>2019-08-20T14:30:49Z</time>
      </trkpt>
      <trkpt lat="46.51779" lon="3.68714">
        <ele>219.3</ele>
        <time>2019-08-20T14:30:50Z</time>
      </trkpt>
      <trkpt lat="46.51776" lon="3.68719">
        <ele>219.2</ele>
        <time>2019-08-20T14:30:51Z</time>
      </trkpt>
      <trkpt lat="46.51772" lon="3.68724">
        <ele>219.1</ele>
        <time>2019-08-20T14:30:52Z</time>
      </trkpt>
      <trkpt lat="46.51769" lon="3.68729">
        <ele>219</ele>
        <time>2019-08-20T14:30:53Z</time>
      </trkpt>
      <trkpt lat="46.51766" lon="3.68733">
        <ele>218.9</ele>
        <time>2019-08-20T14:30:54Z</time>
      </trkpt>
      <trkpt lat="46.51763" lon="3.68738">
        <ele>218.9</ele>
        <time>2019-08-20T14:30:55Z</time>
      </trkpt>
      <trkpt lat="46.5176" lon="3.68742">
        <ele>218.8</ele>
        <time>2019-08-20T14:30:56Z</time>
      </trkpt>
      <trkpt lat="46.51757" lon="3.68747">
        <ele>218.8</ele>
        <time>2019-08-20T14:30:57Z</time>
      </trkpt>
      <trkpt lat="46.51754" lon="3.6875">
        <ele>218.8</ele>
        <time>2019-08-20T14:30:58Z</time>
      </trkpt>
      <trkpt lat="46.51751" lon="3.68754">
        <ele>218.8</ele>
        <time>2019-08-20T14:30:59Z</time>
      </trkpt>
      <trkpt lat="46.51748" lon="3.68756">
        <ele>218.6</ele>
        <time>2019-08-20T14:31:00Z</time>
      </trkpt>
      <trkpt lat="46.51745" lon="3.68755">
        <ele>218.6</ele>
        <time>2019-08-20T14:31:01Z</time>
      </trkpt>
      <trkpt lat="46.51742" lon="3.68747">
        <ele>218.5</ele>
        <time>2019-08-20T14:31:02Z</time>
      </trkpt>
      <trkpt lat="46.51738" lon="3.68739">
        <ele>218.4</ele>
        <time>2019-08-20T14:31:03Z</time>
      </trkpt>
      <trkpt lat="46.51734" lon="3.6873">
        <ele>218.3</ele>
        <time>2019-08-20T14:31:04Z</time>
      </trkpt>
      <trkpt lat="46.5173" lon="3.6872">
        <ele>218.2</ele>
        <time>2019-08-20T14:31:05Z</time>
      </trkpt>
      <trkpt lat="46.51724" lon="3.6871">
        <ele>218.1</ele>
        <time>2019-08-20T14:31:06Z</time>
      </trkpt>
      <trkpt lat="46.51719" lon="3.68701">
        <ele>218</ele>
        <time>2019-08-20T14:31:07Z</time>
      </trkpt>
      <trkpt lat="46.51714" lon="3.68693">
        <ele>217.9</ele>
        <time>2019-08-20T14:31:08Z</time>
      </trkpt>
      <trkpt lat="46.51709" lon="3.68684">
        <ele>217.8</ele>
        <time>2019-08-20T14:31:09Z</time>
      </trkpt>
      <trkpt lat="46.51704" lon="3.68679">
        <ele>217.7</ele>
        <time>2019-08-20T14:31:10Z</time>
      </trkpt>
      <trkpt lat="46.51699" lon="3.68672">
        <ele>217.6</ele>
        <time>2019-08-20T14:31:11Z</time>
      </trkpt>
      <trkpt lat="46.51695" lon="3.68666">
        <ele>217.5</ele>
        <time>2019-08-20T14:31:12Z</time>
      </trkpt>
      <trkpt lat="46.5169" lon="3.68661">
        <ele>217.4</ele>
        <time>2019-08-20T14:31:13Z</time>
      </trkpt>
      <trkpt lat="46.51686" lon="3.68656">
        <ele>217.3</ele>
        <time>2019-08-20T14:31:14Z</time>
      </trkpt>
      <trkpt lat="46.51683" lon="3.68651">
        <ele>217.2</ele>
        <time>2019-08-20T14:31:15Z</time>
      </trkpt>
      <trkpt lat="46.51679" lon="3.68642">
        <ele>217.1</ele>
        <time>2019-08-20T14:31:16Z</time>
      </trkpt>
      <trkpt lat="46.51677" lon="3.68635">
        <ele>217</ele>
        <time>2019-08-20T14:31:17Z</time>
      </trkpt>
      <trkpt lat="46.51674" lon="3.68629">
        <ele>217</ele>
        <time>2019-08-20T14:31:18Z</time>
      </trkpt>
      <trkpt lat="46.51674" lon="3.68621">
        <ele>216.9</ele>
        <time>2019-08-20T14:31:19Z</time>
      </trkpt>
      <trkpt lat="46.51674" lon="3.68615">
        <ele>216.9</ele>
        <time>2019-08-20T14:31:20Z</time>
      </trkpt>
      <trkpt lat="46.51673" lon="3.68608">
        <ele>216.9</ele>
        <time>2019-08-20T14:31:21Z</time>
      </trkpt>
      <trkpt lat="46.51673" lon="3.68601">
        <ele>216.9</ele>
        <time>2019-08-20T14:31:22Z</time>
      </trkpt>
      <trkpt lat="46.51673" lon="3.68593">
        <ele>216.9</ele>
        <time>2019-08-20T14:31:23Z</time>
      </trkpt>
      <trkpt lat="46.51673" lon="3.68587">
        <ele>216.8</ele>
        <time>2019-08-20T14:31:24Z</time>
      </trkpt>
      <trkpt lat="46.51673" lon="3.68581">
        <ele>216.8</ele>
        <time>2019-08-20T14:31:25Z</time>
      </trkpt>
      <trkpt lat="46.51673" lon="3.68574">
        <ele>216.8</ele>
        <time>2019-08-20T14:31:26Z</time>
      </trkpt>
      <trkpt lat="46.51673" lon="3.68568">
        <ele>216.8</ele>
        <time>2019-08-20T14:31:27Z</time>
      </trkpt>
      <trkpt lat="46.51673" lon="3.6856">
        <ele>216.9</ele>
        <time>2019-08-20T14:31:29Z</time>
      </trkpt>
      <trkpt lat="46.51672" lon="3.68556">
        <ele>216.9</ele>
        <time>2019-08-20T14:31:30Z</time>
      </trkpt>
      <trkpt lat="46.51671" lon="3.68552">
        <ele>216.9</ele>
        <time>2019-08-20T14:31:31Z</time>
      </trkpt>
      <trkpt lat="46.51668" lon="3.68549">
        <ele>216.9</ele>
        <time>2019-08-20T14:31:32Z</time>
      </trkpt>
      <trkpt lat="46.51665" lon="3.68546">
        <ele>216.8</ele>
        <time>2019-08-20T14:31:33Z</time>
      </trkpt>
      <trkpt lat="46.51662" lon="3.68542">
        <ele>216.8</ele>
        <time>2019-08-20T14:31:34Z</time>
      </trkpt>
      <trkpt lat="46.51659" lon="3.68539">
        <ele>216.7</ele>
        <time>2019-08-20T14:31:35Z</time>
      </trkpt>
      <trkpt lat="46.51656" lon="3.68534">
        <ele>216.6</ele>
        <time>2019-08-20T14:31:36Z</time>
      </trkpt>
      <trkpt lat="46.51652" lon="3.6853">
        <ele>216.6</ele>
        <time>2019-08-20T14:31:37Z</time>
      </trkpt>
      <trkpt lat="46.51648" lon="3.68526">
        <ele>216.5</ele>
        <time>2019-08-20T14:31:38Z</time>
      </trkpt>
      <trkpt lat="46.51644" lon="3.68521">
        <ele>216.5</ele>
        <time>2019-08-20T14:31:39Z</time>
      </trkpt>
      <trkpt lat="46.51641" lon="3.68518">
        <ele>216.5</ele>
        <time>2019-08-20T14:31:40Z</time>
      </trkpt>
      <trkpt lat="46.51637" lon="3.68516">
        <ele>216.5</ele>
        <time>2019-08-20T14:31:41Z</time>
      </trkpt>
      <trkpt lat="46.51633" lon="3.68513">
        <ele>216.5</ele>
        <time>2019-08-20T14:31:42Z</time>
      </trkpt>
      <trkpt lat="46.5163" lon="3.6851">
        <ele>216.5</ele>
        <time>2019-08-20T14:31:43Z</time>
      </trkpt>
      <trkpt lat="46.51627" lon="3.68507">
        <ele>216.6</ele>
        <time>2019-08-20T14:31:44Z</time>
      </trkpt>
      <trkpt lat="46.51624" lon="3.68504">
        <ele>216.6</ele>
        <time>2019-08-20T14:31:45Z</time>
      </trkpt>
      <trkpt lat="46.5162" lon="3.68502">
        <ele>216.6</ele>
        <time>2019-08-20T14:31:46Z</time>
      </trkpt>
      <trkpt lat="46.51617" lon="3.68499">
        <ele>216.6</ele>
        <time>2019-08-20T14:31:47Z</time>
      </trkpt>
      <trkpt lat="46.51614" lon="3.68494">
        <ele>216.7</ele>
        <time>2019-08-20T14:31:48Z</time>
      </trkpt>
      <trkpt lat="46.51611" lon="3.6849">
        <ele>216.7</ele>
        <time>2019-08-20T14:31:49Z</time>
      </trkpt>
      <trkpt lat="46.51608" lon="3.68487">
        <ele>216.7</ele>
        <time>2019-08-20T14:31:50Z</time>
      </trkpt>
      <trkpt lat="46.51606" lon="3.68483">
        <ele>216.7</ele>
        <time>2019-08-20T14:31:51Z</time>
      </trkpt>
      <trkpt lat="46.51603" lon="3.68479">
        <ele>216.7</ele>
        <time>2019-08-20T14:31:52Z</time>
      </trkpt>
      <trkpt lat="46.51601" lon="3.68476">
        <ele>216.7</ele>
        <time>2019-08-20T14:31:53Z</time>
      </trkpt>
      <trkpt lat="46.51597" lon="3.68472">
        <ele>216.7</ele>
        <time>2019-08-20T14:31:55Z</time>
      </trkpt>
      <trkpt lat="46.51594" lon="3.6847">
        <ele>216.7</ele>
        <time>2019-08-20T14:32:00Z</time>
      </trkpt>
      <trkpt lat="46.51591" lon="3.68472">
        <ele>216.7</ele>
        <time>2019-08-20T14:32:02Z</time>
      </trkpt>
      <trkpt lat="46.5159" lon="3.68476">
        <ele>216.7</ele>
        <time>2019-08-20T14:32:07Z</time>
      </trkpt>
      <trkpt lat="46.51587" lon="3.68476">
        <ele>216.7</ele>
        <time>2019-08-20T14:32:16Z</time>
      </trkpt>
      <trkpt lat="46.51586" lon="3.68471">
        <ele>216.8</ele>
        <time>2019-08-20T14:32:24Z</time>
      </trkpt>
      <trkpt lat="46.51586" lon="3.68466">
        <ele>216.8</ele>
        <time>2019-08-20T14:32:27Z</time>
      </trkpt>
      <trkpt lat="46.51584" lon="3.68467">
        <ele>216.8</ele>
        <time>2019-08-20T14:34:01Z</time>
      </trkpt>
      <trkpt lat="46.51581" lon="3.68468">
        <ele>216.8</ele>
        <time>2019-08-20T14:34:04Z</time>
      </trkpt>
      <trkpt lat="46.51583" lon="3.68471">
        <ele>216.8</ele>
        <time>2019-08-20T14:34:11Z</time>
      </trkpt>
      <trkpt lat="46.51584" lon="3.6846">
        <ele>216.8</ele>
        <time>2019-08-20T14:36:48Z</time>
      </trkpt>
      <trkpt lat="46.5158" lon="3.68457">
        <ele>216.8</ele>
        <time>2019-08-20T14:36:50Z</time>
      </trkpt>
      <trkpt lat="46.51577" lon="3.68453">
        <ele>216.8</ele>
        <time>2019-08-20T14:36:52Z</time>
      </trkpt>
      <trkpt lat="46.51575" lon="3.6845">
        <ele>216.8</ele>
        <time>2019-08-20T14:36:53Z</time>
      </trkpt>
      <trkpt lat="46.51573" lon="3.68446">
        <ele>216.8</ele>
        <time>2019-08-20T14:36:54Z</time>
      </trkpt>
      <trkpt lat="46.51571" lon="3.68443">
        <ele>216.7</ele>
        <time>2019-08-20T14:36:55Z</time>
      </trkpt>
      <trkpt lat="46.51569" lon="3.68438">
        <ele>216.7</ele>
        <time>2019-08-20T14:36:56Z</time>
      </trkpt>
      <trkpt lat="46.51565" lon="3.68434">
        <ele>216.7</ele>
        <time>2019-08-20T14:36:58Z</time>
      </trkpt>
      <trkpt lat="46.51561" lon="3.6843">
        <ele>216.7</ele>
        <time>2019-08-20T14:37:00Z</time>
      </trkpt>
      <trkpt lat="46.51559" lon="3.68427">
        <ele>216.7</ele>
        <time>2019-08-20T14:37:01Z</time>
      </trkpt>
      <trkpt lat="46.51557" lon="3.68424">
        <ele>216.7</ele>
        <time>2019-08-20T14:37:02Z</time>
      </trkpt>
      <trkpt lat="46.51554" lon="3.68421">
        <ele>216.7</ele>
        <time>2019-08-20T14:37:03Z</time>
      </trkpt>
      <trkpt lat="46.51552" lon="3.68418">
        <ele>216.7</ele>
        <time>2019-08-20T14:37:04Z</time>
      </trkpt>
      <trkpt lat="46.51549" lon="3.68416">
        <ele>216.7</ele>
        <time>2019-08-20T14:37:05Z</time>
      </trkpt>
      <trkpt lat="46.51545" lon="3.68412">
        <ele>216.7</ele>
        <time>2019-08-20T14:37:07Z</time>
      </trkpt>
      <trkpt lat="46.51542" lon="3.6841">
        <ele>216.7</ele>
        <time>2019-08-20T14:37:08Z</time>
      </trkpt>
      <trkpt lat="46.51539" lon="3.68409">
        <ele>216.7</ele>
        <time>2019-08-20T14:37:09Z</time>
      </trkpt>
      <trkpt lat="46.51536" lon="3.68408">
        <ele>216.7</ele>
        <time>2019-08-20T14:37:10Z</time>
      </trkpt>
      <trkpt lat="46.51533" lon="3.68406">
        <ele>216.8</ele>
        <time>2019-08-20T14:37:11Z</time>
      </trkpt>
      <trkpt lat="46.5153" lon="3.68405">
        <ele>216.8</ele>
        <time>2019-08-20T14:37:12Z</time>
      </trkpt>
      <trkpt lat="46.51526" lon="3.68404">
        <ele>216.9</ele>
        <time>2019-08-20T14:37:13Z</time>
      </trkpt>
      <trkpt lat="46.51523" lon="3.68402">
        <ele>216.9</ele>
        <time>2019-08-20T14:37:14Z</time>
      </trkpt>
      <trkpt lat="46.5152" lon="3.68401">
        <ele>217</ele>
        <time>2019-08-20T14:37:15Z</time>
      </trkpt>
      <trkpt lat="46.51517" lon="3.68401">
        <ele>217</ele>
        <time>2019-08-20T14:37:16Z</time>
      </trkpt>
      <trkpt lat="46.51514" lon="3.684">
        <ele>217</ele>
        <time>2019-08-20T14:37:17Z</time>
      </trkpt>
      <trkpt lat="46.5151" lon="3.68399">
        <ele>217</ele>
        <time>2019-08-20T14:37:18Z</time>
      </trkpt>
      <trkpt lat="46.51506" lon="3.68398">
        <ele>217.1</ele>
        <time>2019-08-20T14:37:19Z</time>
      </trkpt>
      <trkpt lat="46.51503" lon="3.68397">
        <ele>217.1</ele>
        <time>2019-08-20T14:37:20Z</time>
      </trkpt>
      <trkpt lat="46.51501" lon="3.68396">
        <ele>217.1</ele>
        <time>2019-08-20T14:37:21Z</time>
      </trkpt>
      <trkpt lat="46.51498" lon="3.68394">
        <ele>217.1</ele>
        <time>2019-08-20T14:37:22Z</time>
      </trkpt>
      <trkpt lat="46.51492" lon="3.68392">
        <ele>217.1</ele>
        <time>2019-08-20T14:37:24Z</time>
      </trkpt>
      <trkpt lat="46.51489" lon="3.6839">
        <ele>217.1</ele>
        <time>2019-08-20T14:37:25Z</time>
      </trkpt>
      <trkpt lat="46.51486" lon="3.68388">
        <ele>217.1</ele>
        <time>2019-08-20T14:37:26Z</time>
      </trkpt>
      <trkpt lat="46.51483" lon="3.68384">
        <ele>217.1</ele>
        <time>2019-08-20T14:37:27Z</time>
      </trkpt>
      <trkpt lat="46.5148" lon="3.68381">
        <ele>217.1</ele>
        <time>2019-08-20T14:37:28Z</time>
      </trkpt>
      <trkpt lat="46.51477" lon="3.68378">
        <ele>217.1</ele>
        <time>2019-08-20T14:37:29Z</time>
      </trkpt>
      <trkpt lat="46.51474" lon="3.68375">
        <ele>217.1</ele>
        <time>2019-08-20T14:37:30Z</time>
      </trkpt>
      <trkpt lat="46.51471" lon="3.68372">
        <ele>217.1</ele>
        <time>2019-08-20T14:37:31Z</time>
      </trkpt>
      <trkpt lat="46.51468" lon="3.68368">
        <ele>217</ele>
        <time>2019-08-20T14:37:32Z</time>
      </trkpt>
      <trkpt lat="46.51465" lon="3.68365">
        <ele>217</ele>
        <time>2019-08-20T14:37:33Z</time>
      </trkpt>
      <trkpt lat="46.51462" lon="3.68362">
        <ele>217</ele>
        <time>2019-08-20T14:37:34Z</time>
      </trkpt>
      <trkpt lat="46.5146" lon="3.68358">
        <ele>217</ele>
        <time>2019-08-20T14:37:35Z</time>
      </trkpt>
      <trkpt lat="46.51457" lon="3.68355">
        <ele>217</ele>
        <time>2019-08-20T14:37:36Z</time>
      </trkpt>
      <trkpt lat="46.51454" lon="3.68352">
        <ele>216.9</ele>
        <time>2019-08-20T14:37:37Z</time>
      </trkpt>
      <trkpt lat="46.51451" lon="3.68349">
        <ele>216.9</ele>
        <time>2019-08-20T14:37:38Z</time>
      </trkpt>
      <trkpt lat="46.51448" lon="3.68347">
        <ele>216.9</ele>
        <time>2019-08-20T14:37:39Z</time>
      </trkpt>
      <trkpt lat="46.51445" lon="3.68344">
        <ele>216.9</ele>
        <time>2019-08-20T14:37:40Z</time>
      </trkpt>
      <trkpt lat="46.51442" lon="3.68341">
        <ele>216.9</ele>
        <time>2019-08-20T14:37:41Z</time>
      </trkpt>
      <trkpt lat="46.51439" lon="3.68337">
        <ele>216.9</ele>
        <time>2019-08-20T14:37:42Z</time>
      </trkpt>
      <trkpt lat="46.51437" lon="3.68334">
        <ele>216.9</ele>
        <time>2019-08-20T14:37:43Z</time>
      </trkpt>
      <trkpt lat="46.51434" lon="3.6833">
        <ele>216.9</ele>
        <time>2019-08-20T14:37:44Z</time>
      </trkpt>
      <trkpt lat="46.51431" lon="3.68325">
        <ele>216.9</ele>
        <time>2019-08-20T14:37:45Z</time>
      </trkpt>
      <trkpt lat="46.51428" lon="3.68322">
        <ele>216.9</ele>
        <time>2019-08-20T14:37:46Z</time>
      </trkpt>
      <trkpt lat="46.51425" lon="3.68319">
        <ele>216.9</ele>
        <time>2019-08-20T14:37:47Z</time>
      </trkpt>
      <trkpt lat="46.51422" lon="3.68316">
        <ele>217</ele>
        <time>2019-08-20T14:37:48Z</time>
      </trkpt>
      <trkpt lat="46.51419" lon="3.68314">
        <ele>217</ele>
        <time>2019-08-20T14:37:49Z</time>
      </trkpt>
      <trkpt lat="46.51416" lon="3.68312">
        <ele>217</ele>
        <time>2019-08-20T14:37:50Z</time>
      </trkpt>
      <trkpt lat="46.51413" lon="3.68309">
        <ele>217.1</ele>
        <time>2019-08-20T14:37:51Z</time>
      </trkpt>
      <trkpt lat="46.5141" lon="3.68307">
        <ele>217.1</ele>
        <time>2019-08-20T14:37:52Z</time>
      </trkpt>
      <trkpt lat="46.51408" lon="3.68303">
        <ele>217.2</ele>
        <time>2019-08-20T14:37:53Z</time>
      </trkpt>
      <trkpt lat="46.51405" lon="3.68301">
        <ele>217.3</ele>
        <time>2019-08-20T14:37:54Z</time>
      </trkpt>
      <trkpt lat="46.51403" lon="3.68298">
        <ele>217.4</ele>
        <time>2019-08-20T14:37:55Z</time>
      </trkpt>
      <trkpt lat="46.514" lon="3.68295">
        <ele>217.5</ele>
        <time>2019-08-20T14:37:56Z</time>
      </trkpt>
      <trkpt lat="46.51396" lon="3.68291">
        <ele>217.7</ele>
        <time>2019-08-20T14:37:58Z</time>
      </trkpt>
      <trkpt lat="46.51392" lon="3.68288">
        <ele>217.9</ele>
        <time>2019-08-20T14:38:00Z</time>
      </trkpt>
      <trkpt lat="46.51388" lon="3.68288">
        <ele>218</ele>
        <time>2019-08-20T14:38:02Z</time>
      </trkpt>
      <trkpt lat="46.51385" lon="3.68289">
        <ele>218.1</ele>
        <time>2019-08-20T14:38:03Z</time>
      </trkpt>
      <trkpt lat="46.51383" lon="3.68291">
        <ele>218.2</ele>
        <time>2019-08-20T14:38:04Z</time>
      </trkpt>
      <trkpt lat="46.5138" lon="3.68294">
        <ele>218.3</ele>
        <time>2019-08-20T14:38:05Z</time>
      </trkpt>
      <trkpt lat="46.51377" lon="3.68297">
        <ele>218.3</ele>
        <time>2019-08-20T14:38:07Z</time>
      </trkpt>
      <trkpt lat="46.51373" lon="3.68301">
        <ele>218.3</ele>
        <time>2019-08-20T14:38:09Z</time>
      </trkpt>
      <trkpt lat="46.51372" lon="3.68306">
        <ele>218.4</ele>
        <time>2019-08-20T14:38:12Z</time>
      </trkpt>
      <trkpt lat="46.51372" lon="3.68312">
        <ele>218.4</ele>
        <time>2019-08-20T14:38:14Z</time>
      </trkpt>
      <trkpt lat="46.51371" lon="3.68317">
        <ele>218.4</ele>
        <time>2019-08-20T14:38:16Z</time>
      </trkpt>
      <trkpt lat="46.5137" lon="3.68322">
        <ele>218.4</ele>
        <time>2019-08-20T14:38:18Z</time>
      </trkpt>
      <trkpt lat="46.51367" lon="3.68317">
        <ele>218.5</ele>
        <time>2019-08-20T14:40:46Z</time>
      </trkpt>
      <trkpt lat="46.51366" lon="3.68313">
        <ele>218.5</ele>
        <time>2019-08-20T14:40:55Z</time>
      </trkpt>
    </trkseg>
  </trk>
</gpx>